<?xml version="1.0" encoding="UTF-8" standalone="no" ?>
<gpx xmlns="http://www.topografix.com/GPX/1/1" xmlns:xsi="http://www.w3.org/2001/XMLSchema-instance" xsi:schemaLocation="http://www.topografix.com/GPX/1/1 http://www.topografix.com/GPX/1/1/gpx.xsd" version="1.1" creator="VisuGPX - https://www.visugpx.com">
  <metadata>
    <name>25-07-19</name>
    <desc><![CDATA[TDF-USMétro]]></desc>
  </metadata>
  <trk>
    <name><![CDATA[25-07-19_1]]></name>
    <trkseg>
      <trkpt lat="43.14961" lon="2.79445">
        <ele>76.4</ele>
        <time>2025-07-19T03:12:48Z</time>
      </trkpt>
      <trkpt lat="43.14949" lon="2.79439">
        <ele>76.4</ele>
        <time>2025-07-19T03:12:53Z</time>
      </trkpt>
      <trkpt lat="43.14934" lon="2.79432">
        <ele>76.4</ele>
        <time>2025-07-19T03:12:58Z</time>
      </trkpt>
      <trkpt lat="43.14921" lon="2.79427">
        <ele>76.6</ele>
        <time>2025-07-19T03:13:02Z</time>
      </trkpt>
      <trkpt lat="43.14906" lon="2.7942">
        <ele>76.8</ele>
        <time>2025-07-19T03:13:07Z</time>
      </trkpt>
      <trkpt lat="43.14895" lon="2.79414">
        <ele>77.4</ele>
        <time>2025-07-19T03:13:11Z</time>
      </trkpt>
      <trkpt lat="43.14875" lon="2.79404">
        <ele>77.8</ele>
        <time>2025-07-19T03:13:18Z</time>
      </trkpt>
      <trkpt lat="43.14867" lon="2.79401">
        <ele>78</ele>
        <time>2025-07-19T03:13:21Z</time>
      </trkpt>
      <trkpt lat="43.14859" lon="2.79403">
        <ele>78.4</ele>
        <time>2025-07-19T03:13:25Z</time>
      </trkpt>
      <trkpt lat="43.14861" lon="2.79416">
        <ele>78.8</ele>
        <time>2025-07-19T03:13:29Z</time>
      </trkpt>
      <trkpt lat="43.14861" lon="2.79418">
        <ele>79</ele>
        <time>2025-07-19T03:13:30Z</time>
      </trkpt>
      <trkpt lat="43.14869" lon="2.79446">
        <ele>79.2</ele>
        <time>2025-07-19T03:13:39Z</time>
      </trkpt>
      <trkpt lat="43.14883" lon="2.79472">
        <ele>79.8</ele>
        <time>2025-07-19T03:13:47Z</time>
      </trkpt>
      <trkpt lat="43.149" lon="2.7951">
        <ele>80.8</ele>
        <time>2025-07-19T03:13:57Z</time>
      </trkpt>
      <trkpt lat="43.14917" lon="2.79545">
        <ele>81.6</ele>
        <time>2025-07-19T03:14:06Z</time>
      </trkpt>
      <trkpt lat="43.14919" lon="2.79549">
        <ele>81.8</ele>
        <time>2025-07-19T03:14:07Z</time>
      </trkpt>
      <trkpt lat="43.14934" lon="2.79591">
        <ele>82.8</ele>
        <time>2025-07-19T03:14:17Z</time>
      </trkpt>
      <trkpt lat="43.14943" lon="2.79624">
        <ele>83.6</ele>
        <time>2025-07-19T03:14:25Z</time>
      </trkpt>
      <trkpt lat="43.14947" lon="2.79642">
        <ele>83.8</ele>
        <time>2025-07-19T03:14:29Z</time>
      </trkpt>
      <trkpt lat="43.1495" lon="2.79656">
        <ele>84.4</ele>
        <time>2025-07-19T03:14:32Z</time>
      </trkpt>
      <trkpt lat="43.14954" lon="2.79669">
        <ele>84.6</ele>
        <time>2025-07-19T03:14:35Z</time>
      </trkpt>
      <trkpt lat="43.14955" lon="2.79674">
        <ele>85</ele>
        <time>2025-07-19T03:14:36Z</time>
      </trkpt>
      <trkpt lat="43.14959" lon="2.79709">
        <ele>86</ele>
        <time>2025-07-19T03:14:43Z</time>
      </trkpt>
      <trkpt lat="43.14959" lon="2.79715">
        <ele>86</ele>
        <time>2025-07-19T03:14:44Z</time>
      </trkpt>
      <trkpt lat="43.14962" lon="2.79751">
        <ele>87</ele>
        <time>2025-07-19T03:14:51Z</time>
      </trkpt>
      <trkpt lat="43.14962" lon="2.79756">
        <ele>87.2</ele>
        <time>2025-07-19T03:14:52Z</time>
      </trkpt>
      <trkpt lat="43.14964" lon="2.79794">
        <ele>87.6</ele>
        <time>2025-07-19T03:14:59Z</time>
      </trkpt>
      <trkpt lat="43.14966" lon="2.79839">
        <ele>87.4</ele>
        <time>2025-07-19T03:15:07Z</time>
      </trkpt>
      <trkpt lat="43.14968" lon="2.79887">
        <ele>87.4</ele>
        <time>2025-07-19T03:15:15Z</time>
      </trkpt>
      <trkpt lat="43.14965" lon="2.79931">
        <ele>87</ele>
        <time>2025-07-19T03:15:21Z</time>
      </trkpt>
      <trkpt lat="43.14958" lon="2.79982">
        <ele>85.6</ele>
        <time>2025-07-19T03:15:27Z</time>
      </trkpt>
      <trkpt lat="43.14952" lon="2.80019">
        <ele>84.6</ele>
        <time>2025-07-19T03:15:31Z</time>
      </trkpt>
      <trkpt lat="43.14948" lon="2.80048">
        <ele>83.6</ele>
        <time>2025-07-19T03:15:34Z</time>
      </trkpt>
      <trkpt lat="43.14943" lon="2.80089">
        <ele>82.6</ele>
        <time>2025-07-19T03:15:38Z</time>
      </trkpt>
      <trkpt lat="43.14939" lon="2.80116">
        <ele>81.6</ele>
        <time>2025-07-19T03:15:41Z</time>
      </trkpt>
      <trkpt lat="43.14936" lon="2.80134">
        <ele>81.2</ele>
        <time>2025-07-19T03:15:43Z</time>
      </trkpt>
      <trkpt lat="43.14928" lon="2.80194">
        <ele>80.6</ele>
        <time>2025-07-19T03:15:50Z</time>
      </trkpt>
      <trkpt lat="43.14923" lon="2.80217">
        <ele>81</ele>
        <time>2025-07-19T03:15:53Z</time>
      </trkpt>
      <trkpt lat="43.14917" lon="2.80232">
        <ele>81.2</ele>
        <time>2025-07-19T03:15:55Z</time>
      </trkpt>
      <trkpt lat="43.14906" lon="2.80251">
        <ele>81.4</ele>
        <time>2025-07-19T03:15:58Z</time>
      </trkpt>
      <trkpt lat="43.14896" lon="2.80262">
        <ele>81.4</ele>
        <time>2025-07-19T03:16:00Z</time>
      </trkpt>
      <trkpt lat="43.14891" lon="2.80267">
        <ele>81.6</ele>
        <time>2025-07-19T03:16:01Z</time>
      </trkpt>
      <trkpt lat="43.14875" lon="2.80278">
        <ele>81.8</ele>
        <time>2025-07-19T03:16:04Z</time>
      </trkpt>
      <trkpt lat="43.14841" lon="2.80288">
        <ele>82.2</ele>
        <time>2025-07-19T03:16:10Z</time>
      </trkpt>
      <trkpt lat="43.14825" lon="2.80293">
        <ele>82.6</ele>
        <time>2025-07-19T03:16:13Z</time>
      </trkpt>
      <trkpt lat="43.14799" lon="2.803">
        <ele>83</ele>
        <time>2025-07-19T03:16:18Z</time>
      </trkpt>
      <trkpt lat="43.14774" lon="2.80306">
        <ele>83.6</ele>
        <time>2025-07-19T03:16:23Z</time>
      </trkpt>
      <trkpt lat="43.14764" lon="2.80309">
        <ele>84</ele>
        <time>2025-07-19T03:16:25Z</time>
      </trkpt>
      <trkpt lat="43.14728" lon="2.8032">
        <ele>84.6</ele>
        <time>2025-07-19T03:16:32Z</time>
      </trkpt>
      <trkpt lat="43.14722" lon="2.80323">
        <ele>84.6</ele>
        <time>2025-07-19T03:16:33Z</time>
      </trkpt>
      <trkpt lat="43.14711" lon="2.80328">
        <ele>84.6</ele>
        <time>2025-07-19T03:16:35Z</time>
      </trkpt>
      <trkpt lat="43.14696" lon="2.80339">
        <ele>84.4</ele>
        <time>2025-07-19T03:16:38Z</time>
      </trkpt>
      <trkpt lat="43.14691" lon="2.80344">
        <ele>84.4</ele>
        <time>2025-07-19T03:16:39Z</time>
      </trkpt>
      <trkpt lat="43.14686" lon="2.80349">
        <ele>84.2</ele>
        <time>2025-07-19T03:16:40Z</time>
      </trkpt>
      <trkpt lat="43.14676" lon="2.80369">
        <ele>84</ele>
        <time>2025-07-19T03:16:43Z</time>
      </trkpt>
      <trkpt lat="43.14665" lon="2.80399">
        <ele>83.6</ele>
        <time>2025-07-19T03:16:47Z</time>
      </trkpt>
      <trkpt lat="43.14658" lon="2.80413">
        <ele>83.4</ele>
        <time>2025-07-19T03:16:49Z</time>
      </trkpt>
      <trkpt lat="43.1465" lon="2.80426">
        <ele>83.2</ele>
        <time>2025-07-19T03:16:51Z</time>
      </trkpt>
      <trkpt lat="43.14614" lon="2.80476">
        <ele>82.8</ele>
        <time>2025-07-19T03:16:59Z</time>
      </trkpt>
      <trkpt lat="43.146" lon="2.80495">
        <ele>82.4</ele>
        <time>2025-07-19T03:17:02Z</time>
      </trkpt>
      <trkpt lat="43.14577" lon="2.80526">
        <ele>82.2</ele>
        <time>2025-07-19T03:17:07Z</time>
      </trkpt>
      <trkpt lat="43.14553" lon="2.80559">
        <ele>81.8</ele>
        <time>2025-07-19T03:17:11Z</time>
      </trkpt>
      <trkpt lat="43.14541" lon="2.80585">
        <ele>81.6</ele>
        <time>2025-07-19T03:17:14Z</time>
      </trkpt>
      <trkpt lat="43.14539" lon="2.80592">
        <ele>81.4</ele>
        <time>2025-07-19T03:17:16Z</time>
      </trkpt>
      <trkpt lat="43.14529" lon="2.80637">
        <ele>80.8</ele>
        <time>2025-07-19T03:17:21Z</time>
      </trkpt>
      <trkpt lat="43.1452" lon="2.80676">
        <ele>80.2</ele>
        <time>2025-07-19T03:17:25Z</time>
      </trkpt>
      <trkpt lat="43.14514" lon="2.80702">
        <ele>80</ele>
        <time>2025-07-19T03:17:27Z</time>
      </trkpt>
      <trkpt lat="43.14498" lon="2.80782">
        <ele>79.2</ele>
        <time>2025-07-19T03:17:36Z</time>
      </trkpt>
      <trkpt lat="43.14495" lon="2.80792">
        <ele>79.2</ele>
        <time>2025-07-19T03:17:37Z</time>
      </trkpt>
      <trkpt lat="43.1448" lon="2.80867">
        <ele>78.4</ele>
        <time>2025-07-19T03:17:45Z</time>
      </trkpt>
      <trkpt lat="43.14477" lon="2.80897">
        <ele>78</ele>
        <time>2025-07-19T03:17:47Z</time>
      </trkpt>
      <trkpt lat="43.14478" lon="2.80907">
        <ele>77.8</ele>
        <time>2025-07-19T03:17:49Z</time>
      </trkpt>
      <trkpt lat="43.1448" lon="2.80946">
        <ele>77.2</ele>
        <time>2025-07-19T03:17:53Z</time>
      </trkpt>
      <trkpt lat="43.14481" lon="2.80955">
        <ele>77</ele>
        <time>2025-07-19T03:17:54Z</time>
      </trkpt>
      <trkpt lat="43.14492" lon="2.81027">
        <ele>76.4</ele>
        <time>2025-07-19T03:18:00Z</time>
      </trkpt>
      <trkpt lat="43.14496" lon="2.81049">
        <ele>76</ele>
        <time>2025-07-19T03:18:02Z</time>
      </trkpt>
      <trkpt lat="43.14503" lon="2.81082">
        <ele>74.8</ele>
        <time>2025-07-19T03:18:06Z</time>
      </trkpt>
      <trkpt lat="43.14511" lon="2.81129">
        <ele>74</ele>
        <time>2025-07-19T03:18:09Z</time>
      </trkpt>
      <trkpt lat="43.14511" lon="2.81129">
        <ele>73.6</ele>
        <time>2025-07-19T03:18:10Z</time>
      </trkpt>
      <trkpt lat="43.14521" lon="2.81188">
        <ele>72.8</ele>
        <time>2025-07-19T03:18:14Z</time>
      </trkpt>
      <trkpt lat="43.14522" lon="2.812">
        <ele>72.2</ele>
        <time>2025-07-19T03:18:15Z</time>
      </trkpt>
      <trkpt lat="43.14522" lon="2.812">
        <ele>71.8</ele>
        <time>2025-07-19T03:18:16Z</time>
      </trkpt>
      <trkpt lat="43.14521" lon="2.81249">
        <ele>71</ele>
        <time>2025-07-19T03:18:19Z</time>
      </trkpt>
      <trkpt lat="43.14519" lon="2.81284">
        <ele>69.6</ele>
        <time>2025-07-19T03:18:22Z</time>
      </trkpt>
      <trkpt lat="43.14517" lon="2.81318">
        <ele>68.4</ele>
        <time>2025-07-19T03:18:26Z</time>
      </trkpt>
      <trkpt lat="43.14514" lon="2.81384">
        <ele>67.4</ele>
        <time>2025-07-19T03:18:34Z</time>
      </trkpt>
      <trkpt lat="43.14511" lon="2.81431">
        <ele>66.4</ele>
        <time>2025-07-19T03:18:40Z</time>
      </trkpt>
      <trkpt lat="43.1451" lon="2.81445">
        <ele>66.6</ele>
        <time>2025-07-19T03:18:42Z</time>
      </trkpt>
      <trkpt lat="43.14509" lon="2.81459">
        <ele>66.6</ele>
        <time>2025-07-19T03:18:44Z</time>
      </trkpt>
      <trkpt lat="43.14504" lon="2.81467">
        <ele>66.6</ele>
        <time>2025-07-19T03:18:46Z</time>
      </trkpt>
      <trkpt lat="43.14493" lon="2.81466">
        <ele>66.6</ele>
        <time>2025-07-19T03:18:50Z</time>
      </trkpt>
      <trkpt lat="43.14462" lon="2.81451">
        <ele>66.4</ele>
        <time>2025-07-19T03:18:55Z</time>
      </trkpt>
      <trkpt lat="43.14445" lon="2.81444">
        <ele>66</ele>
        <time>2025-07-19T03:18:59Z</time>
      </trkpt>
      <trkpt lat="43.14433" lon="2.8144">
        <ele>65.6</ele>
        <time>2025-07-19T03:19:00Z</time>
      </trkpt>
      <trkpt lat="43.14421" lon="2.81437">
        <ele>65.2</ele>
        <time>2025-07-19T03:19:02Z</time>
      </trkpt>
      <trkpt lat="43.14415" lon="2.81437">
        <ele>65.2</ele>
        <time>2025-07-19T03:19:03Z</time>
      </trkpt>
      <trkpt lat="43.14391" lon="2.81435">
        <ele>65</ele>
        <time>2025-07-19T03:19:07Z</time>
      </trkpt>
      <trkpt lat="43.1437" lon="2.81436">
        <ele>65.2</ele>
        <time>2025-07-19T03:19:12Z</time>
      </trkpt>
      <trkpt lat="43.14346" lon="2.81438">
        <ele>66.2</ele>
        <time>2025-07-19T03:19:16Z</time>
      </trkpt>
      <trkpt lat="43.14337" lon="2.81438">
        <ele>66.4</ele>
        <time>2025-07-19T03:19:18Z</time>
      </trkpt>
      <trkpt lat="43.14328" lon="2.81439">
        <ele>67.4</ele>
        <time>2025-07-19T03:19:21Z</time>
      </trkpt>
      <trkpt lat="43.14316" lon="2.81441">
        <ele>67.8</ele>
        <time>2025-07-19T03:19:23Z</time>
      </trkpt>
      <trkpt lat="43.14304" lon="2.81444">
        <ele>68.2</ele>
        <time>2025-07-19T03:19:26Z</time>
      </trkpt>
      <trkpt lat="43.14289" lon="2.81448">
        <ele>68.8</ele>
        <time>2025-07-19T03:19:30Z</time>
      </trkpt>
      <trkpt lat="43.14274" lon="2.81453">
        <ele>69.4</ele>
        <time>2025-07-19T03:19:34Z</time>
      </trkpt>
      <trkpt lat="43.14271" lon="2.81453">
        <ele>69.8</ele>
        <time>2025-07-19T03:19:36Z</time>
      </trkpt>
      <trkpt lat="43.1426" lon="2.81455">
        <ele>70.2</ele>
        <time>2025-07-19T03:19:38Z</time>
      </trkpt>
      <trkpt lat="43.14246" lon="2.81459">
        <ele>70.8</ele>
        <time>2025-07-19T03:19:42Z</time>
      </trkpt>
      <trkpt lat="43.14243" lon="2.8146">
        <ele>71.2</ele>
        <time>2025-07-19T03:19:43Z</time>
      </trkpt>
      <trkpt lat="43.1423" lon="2.81463">
        <ele>72.2</ele>
        <time>2025-07-19T03:19:47Z</time>
      </trkpt>
      <trkpt lat="43.1422" lon="2.81465">
        <ele>72.6</ele>
        <time>2025-07-19T03:19:50Z</time>
      </trkpt>
      <trkpt lat="43.14207" lon="2.81468">
        <ele>73.4</ele>
        <time>2025-07-19T03:19:54Z</time>
      </trkpt>
      <trkpt lat="43.14187" lon="2.81473">
        <ele>74.6</ele>
        <time>2025-07-19T03:20:00Z</time>
      </trkpt>
      <trkpt lat="43.1418" lon="2.81475">
        <ele>74.8</ele>
        <time>2025-07-19T03:20:02Z</time>
      </trkpt>
      <trkpt lat="43.14167" lon="2.81478">
        <ele>75.6</ele>
        <time>2025-07-19T03:20:06Z</time>
      </trkpt>
      <trkpt lat="43.14151" lon="2.81482">
        <ele>76.8</ele>
        <time>2025-07-19T03:20:11Z</time>
      </trkpt>
      <trkpt lat="43.14145" lon="2.81484">
        <ele>77.4</ele>
        <time>2025-07-19T03:20:13Z</time>
      </trkpt>
      <trkpt lat="43.14135" lon="2.81486">
        <ele>77.8</ele>
        <time>2025-07-19T03:20:16Z</time>
      </trkpt>
      <trkpt lat="43.14114" lon="2.8149">
        <ele>78.6</ele>
        <time>2025-07-19T03:20:22Z</time>
      </trkpt>
      <trkpt lat="43.14107" lon="2.81491">
        <ele>79</ele>
        <time>2025-07-19T03:20:24Z</time>
      </trkpt>
      <trkpt lat="43.14083" lon="2.8149">
        <ele>79.8</ele>
        <time>2025-07-19T03:20:31Z</time>
      </trkpt>
      <trkpt lat="43.14075" lon="2.81489">
        <ele>80</ele>
        <time>2025-07-19T03:20:33Z</time>
      </trkpt>
      <trkpt lat="43.14049" lon="2.81483">
        <ele>80.8</ele>
        <time>2025-07-19T03:20:40Z</time>
      </trkpt>
      <trkpt lat="43.14027" lon="2.81473">
        <ele>80.8</ele>
        <time>2025-07-19T03:20:46Z</time>
      </trkpt>
      <trkpt lat="43.13987" lon="2.81455">
        <ele>79.8</ele>
        <time>2025-07-19T03:20:52Z</time>
      </trkpt>
      <trkpt lat="43.13969" lon="2.81446">
        <ele>78.6</ele>
        <time>2025-07-19T03:20:55Z</time>
      </trkpt>
      <trkpt lat="43.13945" lon="2.81434">
        <ele>77.2</ele>
        <time>2025-07-19T03:20:59Z</time>
      </trkpt>
      <trkpt lat="43.13932" lon="2.81428">
        <ele>76.6</ele>
        <time>2025-07-19T03:21:01Z</time>
      </trkpt>
      <trkpt lat="43.13932" lon="2.81428">
        <ele>76.2</ele>
        <time>2025-07-19T03:21:02Z</time>
      </trkpt>
      <trkpt lat="43.13909" lon="2.81418">
        <ele>74.8</ele>
        <time>2025-07-19T03:21:05Z</time>
      </trkpt>
      <trkpt lat="43.13874" lon="2.81406">
        <ele>74.4</ele>
        <time>2025-07-19T03:21:11Z</time>
      </trkpt>
      <trkpt lat="43.13861" lon="2.81404">
        <ele>74.2</ele>
        <time>2025-07-19T03:21:13Z</time>
      </trkpt>
      <trkpt lat="43.1384" lon="2.81405">
        <ele>73.8</ele>
        <time>2025-07-19T03:21:17Z</time>
      </trkpt>
      <trkpt lat="43.13829" lon="2.81409">
        <ele>73.8</ele>
        <time>2025-07-19T03:21:19Z</time>
      </trkpt>
      <trkpt lat="43.1381" lon="2.81419">
        <ele>74.2</ele>
        <time>2025-07-19T03:21:23Z</time>
      </trkpt>
      <trkpt lat="43.13781" lon="2.81436">
        <ele>75.6</ele>
        <time>2025-07-19T03:21:30Z</time>
      </trkpt>
      <trkpt lat="43.13769" lon="2.81443">
        <ele>76</ele>
        <time>2025-07-19T03:21:33Z</time>
      </trkpt>
      <trkpt lat="43.13746" lon="2.81455">
        <ele>76.8</ele>
        <time>2025-07-19T03:21:39Z</time>
      </trkpt>
      <trkpt lat="43.13742" lon="2.81458">
        <ele>77.2</ele>
        <time>2025-07-19T03:21:40Z</time>
      </trkpt>
      <trkpt lat="43.13722" lon="2.8147">
        <ele>78.2</ele>
        <time>2025-07-19T03:21:46Z</time>
      </trkpt>
      <trkpt lat="43.13717" lon="2.81473">
        <ele>78.4</ele>
        <time>2025-07-19T03:21:47Z</time>
      </trkpt>
      <trkpt lat="43.13698" lon="2.8148">
        <ele>79.4</ele>
        <time>2025-07-19T03:21:52Z</time>
      </trkpt>
      <trkpt lat="43.13691" lon="2.81481">
        <ele>79.6</ele>
        <time>2025-07-19T03:21:54Z</time>
      </trkpt>
      <trkpt lat="43.13671" lon="2.81478">
        <ele>80.4</ele>
        <time>2025-07-19T03:21:59Z</time>
      </trkpt>
      <trkpt lat="43.13668" lon="2.81476">
        <ele>80.4</ele>
        <time>2025-07-19T03:22:00Z</time>
      </trkpt>
      <trkpt lat="43.13641" lon="2.81461">
        <ele>81.4</ele>
        <time>2025-07-19T03:22:07Z</time>
      </trkpt>
      <trkpt lat="43.1363" lon="2.81455">
        <ele>82</ele>
        <time>2025-07-19T03:22:10Z</time>
      </trkpt>
      <trkpt lat="43.13613" lon="2.81445">
        <ele>82.4</ele>
        <time>2025-07-19T03:22:14Z</time>
      </trkpt>
      <trkpt lat="43.13586" lon="2.8143">
        <ele>83</ele>
        <time>2025-07-19T03:22:21Z</time>
      </trkpt>
      <trkpt lat="43.13573" lon="2.81424">
        <ele>83.6</ele>
        <time>2025-07-19T03:22:24Z</time>
      </trkpt>
      <trkpt lat="43.13565" lon="2.81421">
        <ele>83.6</ele>
        <time>2025-07-19T03:22:26Z</time>
      </trkpt>
      <trkpt lat="43.13549" lon="2.81417">
        <ele>83.8</ele>
        <time>2025-07-19T03:22:29Z</time>
      </trkpt>
      <trkpt lat="43.13532" lon="2.81411">
        <ele>83.6</ele>
        <time>2025-07-19T03:22:32Z</time>
      </trkpt>
      <trkpt lat="43.1352" lon="2.81409">
        <ele>83.2</ele>
        <time>2025-07-19T03:22:34Z</time>
      </trkpt>
      <trkpt lat="43.13508" lon="2.81409">
        <ele>82.6</ele>
        <time>2025-07-19T03:22:36Z</time>
      </trkpt>
      <trkpt lat="43.13487" lon="2.81411">
        <ele>81.6</ele>
        <time>2025-07-19T03:22:39Z</time>
      </trkpt>
      <trkpt lat="43.13468" lon="2.81414">
        <ele>80.6</ele>
        <time>2025-07-19T03:22:42Z</time>
      </trkpt>
      <trkpt lat="43.13461" lon="2.81416">
        <ele>80</ele>
        <time>2025-07-19T03:22:43Z</time>
      </trkpt>
      <trkpt lat="43.13448" lon="2.81424">
        <ele>79.4</ele>
        <time>2025-07-19T03:22:45Z</time>
      </trkpt>
      <trkpt lat="43.13443" lon="2.81429">
        <ele>79</ele>
        <time>2025-07-19T03:22:46Z</time>
      </trkpt>
      <trkpt lat="43.13437" lon="2.81434">
        <ele>78.6</ele>
        <time>2025-07-19T03:22:47Z</time>
      </trkpt>
      <trkpt lat="43.13426" lon="2.81445">
        <ele>78</ele>
        <time>2025-07-19T03:22:49Z</time>
      </trkpt>
      <trkpt lat="43.1342" lon="2.81449">
        <ele>77.4</ele>
        <time>2025-07-19T03:22:50Z</time>
      </trkpt>
      <trkpt lat="43.13413" lon="2.81453">
        <ele>77</ele>
        <time>2025-07-19T03:22:51Z</time>
      </trkpt>
      <trkpt lat="43.13392" lon="2.81463">
        <ele>76.2</ele>
        <time>2025-07-19T03:22:54Z</time>
      </trkpt>
      <trkpt lat="43.13379" lon="2.8147">
        <ele>75.2</ele>
        <time>2025-07-19T03:22:56Z</time>
      </trkpt>
      <trkpt lat="43.13371" lon="2.81476">
        <ele>74.6</ele>
        <time>2025-07-19T03:22:57Z</time>
      </trkpt>
      <trkpt lat="43.13366" lon="2.81481">
        <ele>73.8</ele>
        <time>2025-07-19T03:22:58Z</time>
      </trkpt>
      <trkpt lat="43.13361" lon="2.81488">
        <ele>73.6</ele>
        <time>2025-07-19T03:22:59Z</time>
      </trkpt>
      <trkpt lat="43.13353" lon="2.81503">
        <ele>73.2</ele>
        <time>2025-07-19T03:23:01Z</time>
      </trkpt>
      <trkpt lat="43.1335" lon="2.81511">
        <ele>72.8</ele>
        <time>2025-07-19T03:23:02Z</time>
      </trkpt>
      <trkpt lat="43.13344" lon="2.81523">
        <ele>72.6</ele>
        <time>2025-07-19T03:23:04Z</time>
      </trkpt>
      <trkpt lat="43.13336" lon="2.81529">
        <ele>72.4</ele>
        <time>2025-07-19T03:23:06Z</time>
      </trkpt>
      <trkpt lat="43.13328" lon="2.81527">
        <ele>72.2</ele>
        <time>2025-07-19T03:23:08Z</time>
      </trkpt>
      <trkpt lat="43.13321" lon="2.81524">
        <ele>72.2</ele>
        <time>2025-07-19T03:23:10Z</time>
      </trkpt>
      <trkpt lat="43.13314" lon="2.81517">
        <ele>72.2</ele>
        <time>2025-07-19T03:23:12Z</time>
      </trkpt>
      <trkpt lat="43.13304" lon="2.81506">
        <ele>72.6</ele>
        <time>2025-07-19T03:23:16Z</time>
      </trkpt>
      <trkpt lat="43.13291" lon="2.81486">
        <ele>73.8</ele>
        <time>2025-07-19T03:23:22Z</time>
      </trkpt>
      <trkpt lat="43.1329" lon="2.81483">
        <ele>74.2</ele>
        <time>2025-07-19T03:23:23Z</time>
      </trkpt>
      <trkpt lat="43.1328" lon="2.81469">
        <ele>75.2</ele>
        <time>2025-07-19T03:23:28Z</time>
      </trkpt>
      <trkpt lat="43.13277" lon="2.81466">
        <ele>75.4</ele>
        <time>2025-07-19T03:23:29Z</time>
      </trkpt>
      <trkpt lat="43.13269" lon="2.8146">
        <ele>76.4</ele>
        <time>2025-07-19T03:23:32Z</time>
      </trkpt>
      <trkpt lat="43.13256" lon="2.81454">
        <ele>77</ele>
        <time>2025-07-19T03:23:36Z</time>
      </trkpt>
      <trkpt lat="43.13249" lon="2.81454">
        <ele>77.4</ele>
        <time>2025-07-19T03:23:38Z</time>
      </trkpt>
      <trkpt lat="43.13234" lon="2.81456">
        <ele>78</ele>
        <time>2025-07-19T03:23:43Z</time>
      </trkpt>
      <trkpt lat="43.13221" lon="2.81462">
        <ele>78.6</ele>
        <time>2025-07-19T03:23:47Z</time>
      </trkpt>
      <trkpt lat="43.13208" lon="2.81467">
        <ele>79</ele>
        <time>2025-07-19T03:23:51Z</time>
      </trkpt>
      <trkpt lat="43.13191" lon="2.81472">
        <ele>79.8</ele>
        <time>2025-07-19T03:23:56Z</time>
      </trkpt>
      <trkpt lat="43.13188" lon="2.81473">
        <ele>79.8</ele>
        <time>2025-07-19T03:23:57Z</time>
      </trkpt>
      <trkpt lat="43.1317" lon="2.81471">
        <ele>80.8</ele>
        <time>2025-07-19T03:24:02Z</time>
      </trkpt>
      <trkpt lat="43.13167" lon="2.8147">
        <ele>81</ele>
        <time>2025-07-19T03:24:04Z</time>
      </trkpt>
      <trkpt lat="43.1315" lon="2.81462">
        <ele>82</ele>
        <time>2025-07-19T03:24:08Z</time>
      </trkpt>
      <trkpt lat="43.13137" lon="2.81454">
        <ele>82.6</ele>
        <time>2025-07-19T03:24:12Z</time>
      </trkpt>
      <trkpt lat="43.13127" lon="2.81448">
        <ele>83.2</ele>
        <time>2025-07-19T03:24:15Z</time>
      </trkpt>
      <trkpt lat="43.13106" lon="2.81433">
        <ele>84.2</ele>
        <time>2025-07-19T03:24:22Z</time>
      </trkpt>
      <trkpt lat="43.13097" lon="2.81428">
        <ele>84.8</ele>
        <time>2025-07-19T03:24:25Z</time>
      </trkpt>
      <trkpt lat="43.13088" lon="2.81422">
        <ele>85.2</ele>
        <time>2025-07-19T03:24:28Z</time>
      </trkpt>
      <trkpt lat="43.13073" lon="2.81413">
        <ele>86</ele>
        <time>2025-07-19T03:24:33Z</time>
      </trkpt>
      <trkpt lat="43.1307" lon="2.81412">
        <ele>86.2</ele>
        <time>2025-07-19T03:24:34Z</time>
      </trkpt>
      <trkpt lat="43.13063" lon="2.81407">
        <ele>86.6</ele>
        <time>2025-07-19T03:24:39Z</time>
      </trkpt>
      <trkpt lat="43.13063" lon="2.81407">
        <ele>86.6</ele>
        <time>2025-07-19T03:24:40Z</time>
      </trkpt>
      <trkpt lat="43.13061" lon="2.81407">
        <ele>87</ele>
        <time>2025-07-19T03:26:15Z</time>
      </trkpt>
      <trkpt lat="43.13056" lon="2.81404">
        <ele>87</ele>
        <time>2025-07-19T03:26:17Z</time>
      </trkpt>
      <trkpt lat="43.13048" lon="2.81401">
        <ele>87.2</ele>
        <time>2025-07-19T03:26:20Z</time>
      </trkpt>
      <trkpt lat="43.13039" lon="2.81396">
        <ele>87.4</ele>
        <time>2025-07-19T03:26:23Z</time>
      </trkpt>
      <trkpt lat="43.1301" lon="2.81381">
        <ele>87.6</ele>
        <time>2025-07-19T03:26:31Z</time>
      </trkpt>
      <trkpt lat="43.12988" lon="2.81368">
        <ele>88</ele>
        <time>2025-07-19T03:26:37Z</time>
      </trkpt>
      <trkpt lat="43.12979" lon="2.81363">
        <ele>88</ele>
        <time>2025-07-19T03:26:39Z</time>
      </trkpt>
      <trkpt lat="43.12958" lon="2.81347">
        <ele>88.2</ele>
        <time>2025-07-19T03:26:44Z</time>
      </trkpt>
      <trkpt lat="43.1294" lon="2.81333">
        <ele>88.2</ele>
        <time>2025-07-19T03:26:48Z</time>
      </trkpt>
      <trkpt lat="43.12907" lon="2.81306">
        <ele>88</ele>
        <time>2025-07-19T03:26:54Z</time>
      </trkpt>
      <trkpt lat="43.12883" lon="2.81286">
        <ele>87</ele>
        <time>2025-07-19T03:26:58Z</time>
      </trkpt>
      <trkpt lat="43.12869" lon="2.81276">
        <ele>86</ele>
        <time>2025-07-19T03:27:01Z</time>
      </trkpt>
      <trkpt lat="43.12856" lon="2.81265">
        <ele>86</ele>
        <time>2025-07-19T03:27:02Z</time>
      </trkpt>
      <trkpt lat="43.12829" lon="2.81244">
        <ele>84.8</ele>
        <time>2025-07-19T03:27:06Z</time>
      </trkpt>
      <trkpt lat="43.12816" lon="2.81234">
        <ele>83.6</ele>
        <time>2025-07-19T03:27:08Z</time>
      </trkpt>
      <trkpt lat="43.12797" lon="2.81219">
        <ele>82.8</ele>
        <time>2025-07-19T03:27:11Z</time>
      </trkpt>
      <trkpt lat="43.12791" lon="2.81214">
        <ele>82.4</ele>
        <time>2025-07-19T03:27:12Z</time>
      </trkpt>
      <trkpt lat="43.12758" lon="2.81187">
        <ele>81</ele>
        <time>2025-07-19T03:27:17Z</time>
      </trkpt>
      <trkpt lat="43.12726" lon="2.81161">
        <ele>80.2</ele>
        <time>2025-07-19T03:27:22Z</time>
      </trkpt>
      <trkpt lat="43.12714" lon="2.81151">
        <ele>80</ele>
        <time>2025-07-19T03:27:24Z</time>
      </trkpt>
      <trkpt lat="43.12685" lon="2.81128">
        <ele>79.8</ele>
        <time>2025-07-19T03:27:29Z</time>
      </trkpt>
      <trkpt lat="43.12646" lon="2.81101">
        <ele>80.2</ele>
        <time>2025-07-19T03:27:36Z</time>
      </trkpt>
      <trkpt lat="43.12606" lon="2.8108">
        <ele>80</ele>
        <time>2025-07-19T03:27:42Z</time>
      </trkpt>
      <trkpt lat="43.12585" lon="2.81072">
        <ele>78.8</ele>
        <time>2025-07-19T03:27:45Z</time>
      </trkpt>
      <trkpt lat="43.12546" lon="2.81057">
        <ele>77.8</ele>
        <time>2025-07-19T03:27:50Z</time>
      </trkpt>
      <trkpt lat="43.12524" lon="2.81044">
        <ele>76.8</ele>
        <time>2025-07-19T03:27:53Z</time>
      </trkpt>
      <trkpt lat="43.12507" lon="2.81034">
        <ele>75.2</ele>
        <time>2025-07-19T03:27:55Z</time>
      </trkpt>
      <trkpt lat="43.12499" lon="2.8103">
        <ele>75</ele>
        <time>2025-07-19T03:27:56Z</time>
      </trkpt>
      <trkpt lat="43.12466" lon="2.81024">
        <ele>74</ele>
        <time>2025-07-19T03:28:00Z</time>
      </trkpt>
      <trkpt lat="43.12457" lon="2.81024">
        <ele>73.4</ele>
        <time>2025-07-19T03:28:01Z</time>
      </trkpt>
      <trkpt lat="43.12441" lon="2.81024">
        <ele>72.8</ele>
        <time>2025-07-19T03:28:03Z</time>
      </trkpt>
      <trkpt lat="43.12387" lon="2.81025">
        <ele>72</ele>
        <time>2025-07-19T03:28:10Z</time>
      </trkpt>
      <trkpt lat="43.12352" lon="2.81021">
        <ele>72</ele>
        <time>2025-07-19T03:28:15Z</time>
      </trkpt>
      <trkpt lat="43.12346" lon="2.81018">
        <ele>72.2</ele>
        <time>2025-07-19T03:28:16Z</time>
      </trkpt>
      <trkpt lat="43.12309" lon="2.80992">
        <ele>72.6</ele>
        <time>2025-07-19T03:28:22Z</time>
      </trkpt>
      <trkpt lat="43.12277" lon="2.80969">
        <ele>71.8</ele>
        <time>2025-07-19T03:28:27Z</time>
      </trkpt>
      <trkpt lat="43.1227" lon="2.80966">
        <ele>71.4</ele>
        <time>2025-07-19T03:28:28Z</time>
      </trkpt>
      <trkpt lat="43.12263" lon="2.80963">
        <ele>71</ele>
        <time>2025-07-19T03:28:29Z</time>
      </trkpt>
      <trkpt lat="43.12255" lon="2.80961">
        <ele>70.6</ele>
        <time>2025-07-19T03:28:30Z</time>
      </trkpt>
      <trkpt lat="43.1224" lon="2.80961">
        <ele>69.8</ele>
        <time>2025-07-19T03:28:32Z</time>
      </trkpt>
      <trkpt lat="43.12233" lon="2.80963">
        <ele>69.6</ele>
        <time>2025-07-19T03:28:33Z</time>
      </trkpt>
      <trkpt lat="43.12204" lon="2.80977">
        <ele>68.4</ele>
        <time>2025-07-19T03:28:37Z</time>
      </trkpt>
      <trkpt lat="43.12191" lon="2.80984">
        <ele>67.6</ele>
        <time>2025-07-19T03:28:39Z</time>
      </trkpt>
      <trkpt lat="43.12185" lon="2.80987">
        <ele>66.6</ele>
        <time>2025-07-19T03:28:40Z</time>
      </trkpt>
      <trkpt lat="43.1216" lon="2.81">
        <ele>65.2</ele>
        <time>2025-07-19T03:28:44Z</time>
      </trkpt>
      <trkpt lat="43.12155" lon="2.81004">
        <ele>65</ele>
        <time>2025-07-19T03:28:45Z</time>
      </trkpt>
      <trkpt lat="43.12146" lon="2.81005">
        <ele>64.4</ele>
        <time>2025-07-19T03:28:47Z</time>
      </trkpt>
      <trkpt lat="43.1214" lon="2.81002">
        <ele>64.2</ele>
        <time>2025-07-19T03:28:48Z</time>
      </trkpt>
      <trkpt lat="43.12137" lon="2.80997">
        <ele>64.2</ele>
        <time>2025-07-19T03:28:49Z</time>
      </trkpt>
      <trkpt lat="43.12132" lon="2.80985">
        <ele>63.8</ele>
        <time>2025-07-19T03:28:51Z</time>
      </trkpt>
      <trkpt lat="43.12129" lon="2.80973">
        <ele>63.8</ele>
        <time>2025-07-19T03:28:53Z</time>
      </trkpt>
      <trkpt lat="43.12126" lon="2.80971">
        <ele>63.8</ele>
        <time>2025-07-19T03:28:54Z</time>
      </trkpt>
      <trkpt lat="43.12111" lon="2.80968">
        <ele>63.8</ele>
        <time>2025-07-19T03:28:58Z</time>
      </trkpt>
      <trkpt lat="43.12096" lon="2.8095">
        <ele>64</ele>
        <time>2025-07-19T03:29:03Z</time>
      </trkpt>
      <trkpt lat="43.1208" lon="2.80927">
        <ele>64.6</ele>
        <time>2025-07-19T03:29:09Z</time>
      </trkpt>
      <trkpt lat="43.12068" lon="2.80908">
        <ele>65.2</ele>
        <time>2025-07-19T03:29:13Z</time>
      </trkpt>
      <trkpt lat="43.12057" lon="2.80888">
        <ele>65.8</ele>
        <time>2025-07-19T03:29:17Z</time>
      </trkpt>
      <trkpt lat="43.12054" lon="2.80883">
        <ele>65.8</ele>
        <time>2025-07-19T03:29:18Z</time>
      </trkpt>
      <trkpt lat="43.12049" lon="2.80872">
        <ele>66.4</ele>
        <time>2025-07-19T03:29:20Z</time>
      </trkpt>
      <trkpt lat="43.12043" lon="2.80856">
        <ele>66.8</ele>
        <time>2025-07-19T03:29:23Z</time>
      </trkpt>
      <trkpt lat="43.12031" lon="2.80831">
        <ele>67.4</ele>
        <time>2025-07-19T03:29:28Z</time>
      </trkpt>
      <trkpt lat="43.12029" lon="2.80825">
        <ele>67.4</ele>
        <time>2025-07-19T03:29:29Z</time>
      </trkpt>
      <trkpt lat="43.12025" lon="2.80816">
        <ele>67.8</ele>
        <time>2025-07-19T03:29:31Z</time>
      </trkpt>
      <trkpt lat="43.12021" lon="2.80806">
        <ele>68</ele>
        <time>2025-07-19T03:29:33Z</time>
      </trkpt>
      <trkpt lat="43.12015" lon="2.80797">
        <ele>68.2</ele>
        <time>2025-07-19T03:29:35Z</time>
      </trkpt>
      <trkpt lat="43.1201" lon="2.8079">
        <ele>68.2</ele>
        <time>2025-07-19T03:29:37Z</time>
      </trkpt>
      <trkpt lat="43.12" lon="2.80779">
        <ele>68.6</ele>
        <time>2025-07-19T03:29:40Z</time>
      </trkpt>
      <trkpt lat="43.11993" lon="2.80774">
        <ele>68.8</ele>
        <time>2025-07-19T03:29:42Z</time>
      </trkpt>
      <trkpt lat="43.11986" lon="2.80768">
        <ele>69</ele>
        <time>2025-07-19T03:29:44Z</time>
      </trkpt>
      <trkpt lat="43.11973" lon="2.80758">
        <ele>69.6</ele>
        <time>2025-07-19T03:29:48Z</time>
      </trkpt>
      <trkpt lat="43.11963" lon="2.80753">
        <ele>70.2</ele>
        <time>2025-07-19T03:29:51Z</time>
      </trkpt>
      <trkpt lat="43.11956" lon="2.8075">
        <ele>70.8</ele>
        <time>2025-07-19T03:29:53Z</time>
      </trkpt>
      <trkpt lat="43.11934" lon="2.8074">
        <ele>71.8</ele>
        <time>2025-07-19T03:29:59Z</time>
      </trkpt>
      <trkpt lat="43.1193" lon="2.80738">
        <ele>71.8</ele>
        <time>2025-07-19T03:30:00Z</time>
      </trkpt>
      <trkpt lat="43.11902" lon="2.80726">
        <ele>72</ele>
        <time>2025-07-19T03:30:07Z</time>
      </trkpt>
      <trkpt lat="43.11871" lon="2.80713">
        <ele>72</ele>
        <time>2025-07-19T03:30:13Z</time>
      </trkpt>
      <trkpt lat="43.11827" lon="2.80694">
        <ele>71.4</ele>
        <time>2025-07-19T03:30:21Z</time>
      </trkpt>
      <trkpt lat="43.11772" lon="2.8067">
        <ele>71.2</ele>
        <time>2025-07-19T03:30:31Z</time>
      </trkpt>
      <trkpt lat="43.11755" lon="2.80664">
        <ele>71.4</ele>
        <time>2025-07-19T03:30:34Z</time>
      </trkpt>
      <trkpt lat="43.11731" lon="2.80657">
        <ele>71.4</ele>
        <time>2025-07-19T03:30:38Z</time>
      </trkpt>
      <trkpt lat="43.11721" lon="2.80657">
        <ele>71.4</ele>
        <time>2025-07-19T03:30:40Z</time>
      </trkpt>
      <trkpt lat="43.11678" lon="2.80666">
        <ele>72</ele>
        <time>2025-07-19T03:30:48Z</time>
      </trkpt>
      <trkpt lat="43.11635" lon="2.80673">
        <ele>72.6</ele>
        <time>2025-07-19T03:30:56Z</time>
      </trkpt>
      <trkpt lat="43.11593" lon="2.80678">
        <ele>72.4</ele>
        <time>2025-07-19T03:31:03Z</time>
      </trkpt>
      <trkpt lat="43.11538" lon="2.80684">
        <ele>72</ele>
        <time>2025-07-19T03:31:12Z</time>
      </trkpt>
      <trkpt lat="43.11531" lon="2.80685">
        <ele>72</ele>
        <time>2025-07-19T03:31:13Z</time>
      </trkpt>
      <trkpt lat="43.11475" lon="2.80692">
        <ele>71.4</ele>
        <time>2025-07-19T03:31:22Z</time>
      </trkpt>
      <trkpt lat="43.11455" lon="2.80695">
        <ele>71</ele>
        <time>2025-07-19T03:31:25Z</time>
      </trkpt>
      <trkpt lat="43.11429" lon="2.80698">
        <ele>70.8</ele>
        <time>2025-07-19T03:31:29Z</time>
      </trkpt>
      <trkpt lat="43.11383" lon="2.80703">
        <ele>70.4</ele>
        <time>2025-07-19T03:31:36Z</time>
      </trkpt>
      <trkpt lat="43.11336" lon="2.80709">
        <ele>69.8</ele>
        <time>2025-07-19T03:31:43Z</time>
      </trkpt>
      <trkpt lat="43.11323" lon="2.80711">
        <ele>69.8</ele>
        <time>2025-07-19T03:31:45Z</time>
      </trkpt>
      <trkpt lat="43.11284" lon="2.80723">
        <ele>69.4</ele>
        <time>2025-07-19T03:31:51Z</time>
      </trkpt>
      <trkpt lat="43.11228" lon="2.80754">
        <ele>69</ele>
        <time>2025-07-19T03:32:00Z</time>
      </trkpt>
      <trkpt lat="43.11215" lon="2.80761">
        <ele>68.8</ele>
        <time>2025-07-19T03:32:02Z</time>
      </trkpt>
      <trkpt lat="43.11174" lon="2.80784">
        <ele>68.8</ele>
        <time>2025-07-19T03:32:09Z</time>
      </trkpt>
      <trkpt lat="43.11137" lon="2.80803">
        <ele>70</ele>
        <time>2025-07-19T03:32:16Z</time>
      </trkpt>
      <trkpt lat="43.11101" lon="2.80822">
        <ele>70.8</ele>
        <time>2025-07-19T03:32:24Z</time>
      </trkpt>
      <trkpt lat="43.11092" lon="2.80827">
        <ele>71</ele>
        <time>2025-07-19T03:32:26Z</time>
      </trkpt>
      <trkpt lat="43.11069" lon="2.80841">
        <ele>72</ele>
        <time>2025-07-19T03:32:32Z</time>
      </trkpt>
      <trkpt lat="43.11065" lon="2.80843">
        <ele>72.2</ele>
        <time>2025-07-19T03:32:33Z</time>
      </trkpt>
      <trkpt lat="43.1104" lon="2.80859">
        <ele>73.4</ele>
        <time>2025-07-19T03:32:40Z</time>
      </trkpt>
      <trkpt lat="43.11036" lon="2.80861">
        <ele>73.6</ele>
        <time>2025-07-19T03:32:41Z</time>
      </trkpt>
      <trkpt lat="43.11016" lon="2.80876">
        <ele>74.6</ele>
        <time>2025-07-19T03:32:47Z</time>
      </trkpt>
      <trkpt lat="43.11005" lon="2.80884">
        <ele>75.2</ele>
        <time>2025-07-19T03:32:50Z</time>
      </trkpt>
      <trkpt lat="43.10992" lon="2.80895">
        <ele>75.8</ele>
        <time>2025-07-19T03:32:54Z</time>
      </trkpt>
      <trkpt lat="43.10976" lon="2.80911">
        <ele>76.4</ele>
        <time>2025-07-19T03:32:59Z</time>
      </trkpt>
      <trkpt lat="43.10961" lon="2.8093">
        <ele>76.8</ele>
        <time>2025-07-19T03:33:04Z</time>
      </trkpt>
      <trkpt lat="43.10946" lon="2.80949">
        <ele>77.6</ele>
        <time>2025-07-19T03:33:09Z</time>
      </trkpt>
      <trkpt lat="43.1094" lon="2.80955">
        <ele>77.8</ele>
        <time>2025-07-19T03:33:11Z</time>
      </trkpt>
      <trkpt lat="43.10922" lon="2.80966">
        <ele>78.4</ele>
        <time>2025-07-19T03:33:16Z</time>
      </trkpt>
      <trkpt lat="43.109" lon="2.80968">
        <ele>79</ele>
        <time>2025-07-19T03:33:21Z</time>
      </trkpt>
      <trkpt lat="43.10886" lon="2.80969">
        <ele>79.2</ele>
        <time>2025-07-19T03:33:24Z</time>
      </trkpt>
      <trkpt lat="43.10841" lon="2.80974">
        <ele>79</ele>
        <time>2025-07-19T03:33:32Z</time>
      </trkpt>
      <trkpt lat="43.10819" lon="2.8098">
        <ele>79</ele>
        <time>2025-07-19T03:33:36Z</time>
      </trkpt>
      <trkpt lat="43.10811" lon="2.80985">
        <ele>79</ele>
        <time>2025-07-19T03:33:38Z</time>
      </trkpt>
      <trkpt lat="43.10807" lon="2.80989">
        <ele>79</ele>
        <time>2025-07-19T03:33:39Z</time>
      </trkpt>
      <trkpt lat="43.10796" lon="2.81002">
        <ele>79</ele>
        <time>2025-07-19T03:33:42Z</time>
      </trkpt>
      <trkpt lat="43.10791" lon="2.81008">
        <ele>79</ele>
        <time>2025-07-19T03:33:44Z</time>
      </trkpt>
      <trkpt lat="43.10776" lon="2.81028">
        <ele>80</ele>
        <time>2025-07-19T03:33:50Z</time>
      </trkpt>
      <trkpt lat="43.10772" lon="2.81033">
        <ele>80</ele>
        <time>2025-07-19T03:33:51Z</time>
      </trkpt>
      <trkpt lat="43.10759" lon="2.81037">
        <ele>80.4</ele>
        <time>2025-07-19T03:33:54Z</time>
      </trkpt>
      <trkpt lat="43.10754" lon="2.81036">
        <ele>80.6</ele>
        <time>2025-07-19T03:33:55Z</time>
      </trkpt>
      <trkpt lat="43.10722" lon="2.81027">
        <ele>80.2</ele>
        <time>2025-07-19T03:34:01Z</time>
      </trkpt>
      <trkpt lat="43.10688" lon="2.81018">
        <ele>78.8</ele>
        <time>2025-07-19T03:34:07Z</time>
      </trkpt>
      <trkpt lat="43.10683" lon="2.81016">
        <ele>78.6</ele>
        <time>2025-07-19T03:34:08Z</time>
      </trkpt>
      <trkpt lat="43.10647" lon="2.81005">
        <ele>77.8</ele>
        <time>2025-07-19T03:34:14Z</time>
      </trkpt>
      <trkpt lat="43.1064" lon="2.81003">
        <ele>77.8</ele>
        <time>2025-07-19T03:34:15Z</time>
      </trkpt>
      <trkpt lat="43.10635" lon="2.81001">
        <ele>77.8</ele>
        <time>2025-07-19T03:34:16Z</time>
      </trkpt>
      <trkpt lat="43.10618" lon="2.80996">
        <ele>77.8</ele>
        <time>2025-07-19T03:34:19Z</time>
      </trkpt>
      <trkpt lat="43.10604" lon="2.80992">
        <ele>78</ele>
        <time>2025-07-19T03:34:22Z</time>
      </trkpt>
      <trkpt lat="43.10583" lon="2.80987">
        <ele>78.6</ele>
        <time>2025-07-19T03:34:27Z</time>
      </trkpt>
      <trkpt lat="43.10579" lon="2.80987">
        <ele>79</ele>
        <time>2025-07-19T03:34:28Z</time>
      </trkpt>
      <trkpt lat="43.10567" lon="2.80988">
        <ele>80</ele>
        <time>2025-07-19T03:34:31Z</time>
      </trkpt>
      <trkpt lat="43.10549" lon="2.80992">
        <ele>80.2</ele>
        <time>2025-07-19T03:34:35Z</time>
      </trkpt>
      <trkpt lat="43.10544" lon="2.80994">
        <ele>80.2</ele>
        <time>2025-07-19T03:34:36Z</time>
      </trkpt>
      <trkpt lat="43.1052" lon="2.81003">
        <ele>79.8</ele>
        <time>2025-07-19T03:34:42Z</time>
      </trkpt>
      <trkpt lat="43.10511" lon="2.81002">
        <ele>79.6</ele>
        <time>2025-07-19T03:34:44Z</time>
      </trkpt>
      <trkpt lat="43.10502" lon="2.80997">
        <ele>79.6</ele>
        <time>2025-07-19T03:34:46Z</time>
      </trkpt>
      <trkpt lat="43.1048" lon="2.80974">
        <ele>79.2</ele>
        <time>2025-07-19T03:34:51Z</time>
      </trkpt>
      <trkpt lat="43.10447" lon="2.80934">
        <ele>78.4</ele>
        <time>2025-07-19T03:34:59Z</time>
      </trkpt>
      <trkpt lat="43.10437" lon="2.80921">
        <ele>78.2</ele>
        <time>2025-07-19T03:35:03Z</time>
      </trkpt>
      <trkpt lat="43.10435" lon="2.80919">
        <ele>78</ele>
        <time>2025-07-19T03:35:04Z</time>
      </trkpt>
      <trkpt lat="43.10426" lon="2.80908">
        <ele>77.2</ele>
        <time>2025-07-19T03:35:09Z</time>
      </trkpt>
      <trkpt lat="43.10414" lon="2.80892">
        <ele>77</ele>
        <time>2025-07-19T03:35:14Z</time>
      </trkpt>
      <trkpt lat="43.10398" lon="2.80872">
        <ele>77.2</ele>
        <time>2025-07-19T03:35:19Z</time>
      </trkpt>
      <trkpt lat="43.10383" lon="2.80857">
        <ele>77.6</ele>
        <time>2025-07-19T03:35:23Z</time>
      </trkpt>
      <trkpt lat="43.10373" lon="2.80851">
        <ele>77.6</ele>
        <time>2025-07-19T03:35:25Z</time>
      </trkpt>
      <trkpt lat="43.10346" lon="2.80838">
        <ele>78</ele>
        <time>2025-07-19T03:35:31Z</time>
      </trkpt>
      <trkpt lat="43.10313" lon="2.80825">
        <ele>78.2</ele>
        <time>2025-07-19T03:35:38Z</time>
      </trkpt>
      <trkpt lat="43.10304" lon="2.80823">
        <ele>78.4</ele>
        <time>2025-07-19T03:35:40Z</time>
      </trkpt>
      <trkpt lat="43.103" lon="2.80822">
        <ele>78.6</ele>
        <time>2025-07-19T03:35:41Z</time>
      </trkpt>
      <trkpt lat="43.10281" lon="2.80823">
        <ele>78.6</ele>
        <time>2025-07-19T03:35:45Z</time>
      </trkpt>
      <trkpt lat="43.10244" lon="2.80827">
        <ele>78.4</ele>
        <time>2025-07-19T03:35:52Z</time>
      </trkpt>
      <trkpt lat="43.10207" lon="2.80833">
        <ele>78</ele>
        <time>2025-07-19T03:35:58Z</time>
      </trkpt>
      <trkpt lat="43.10151" lon="2.8084">
        <ele>77</ele>
        <time>2025-07-19T03:36:08Z</time>
      </trkpt>
      <trkpt lat="43.10101" lon="2.80846">
        <ele>77.4</ele>
        <time>2025-07-19T03:36:17Z</time>
      </trkpt>
      <trkpt lat="43.10063" lon="2.80851">
        <ele>78.2</ele>
        <time>2025-07-19T03:36:24Z</time>
      </trkpt>
      <trkpt lat="43.10038" lon="2.80854">
        <ele>78.8</ele>
        <time>2025-07-19T03:36:29Z</time>
      </trkpt>
      <trkpt lat="43.10029" lon="2.80854">
        <ele>79</ele>
        <time>2025-07-19T03:36:31Z</time>
      </trkpt>
      <trkpt lat="43.10024" lon="2.80855">
        <ele>79.2</ele>
        <time>2025-07-19T03:36:32Z</time>
      </trkpt>
      <trkpt lat="43.09998" lon="2.80858">
        <ele>79.6</ele>
        <time>2025-07-19T03:36:37Z</time>
      </trkpt>
      <trkpt lat="43.09993" lon="2.80858">
        <ele>79.8</ele>
        <time>2025-07-19T03:36:38Z</time>
      </trkpt>
      <trkpt lat="43.09967" lon="2.80857">
        <ele>81</ele>
        <time>2025-07-19T03:36:43Z</time>
      </trkpt>
      <trkpt lat="43.09953" lon="2.80856">
        <ele>81.6</ele>
        <time>2025-07-19T03:36:46Z</time>
      </trkpt>
      <trkpt lat="43.09927" lon="2.80853">
        <ele>81.8</ele>
        <time>2025-07-19T03:36:52Z</time>
      </trkpt>
      <trkpt lat="43.09923" lon="2.80852">
        <ele>82</ele>
        <time>2025-07-19T03:36:53Z</time>
      </trkpt>
      <trkpt lat="43.09909" lon="2.80852">
        <ele>82</ele>
        <time>2025-07-19T03:36:56Z</time>
      </trkpt>
      <trkpt lat="43.09905" lon="2.8085">
        <ele>82</ele>
        <time>2025-07-19T03:36:57Z</time>
      </trkpt>
      <trkpt lat="43.09861" lon="2.80844">
        <ele>82.4</ele>
        <time>2025-07-19T03:37:06Z</time>
      </trkpt>
      <trkpt lat="43.09832" lon="2.80842">
        <ele>82</ele>
        <time>2025-07-19T03:37:11Z</time>
      </trkpt>
      <trkpt lat="43.09826" lon="2.80843">
        <ele>81.8</ele>
        <time>2025-07-19T03:37:12Z</time>
      </trkpt>
      <trkpt lat="43.09794" lon="2.80854">
        <ele>81</ele>
        <time>2025-07-19T03:37:17Z</time>
      </trkpt>
      <trkpt lat="43.09788" lon="2.80857">
        <ele>80.8</ele>
        <time>2025-07-19T03:37:18Z</time>
      </trkpt>
      <trkpt lat="43.09756" lon="2.80875">
        <ele>80.2</ele>
        <time>2025-07-19T03:37:23Z</time>
      </trkpt>
      <trkpt lat="43.09735" lon="2.80886">
        <ele>79.8</ele>
        <time>2025-07-19T03:37:26Z</time>
      </trkpt>
      <trkpt lat="43.0969" lon="2.8091">
        <ele>78.6</ele>
        <time>2025-07-19T03:37:33Z</time>
      </trkpt>
      <trkpt lat="43.09676" lon="2.80917">
        <ele>78.6</ele>
        <time>2025-07-19T03:37:35Z</time>
      </trkpt>
      <trkpt lat="43.0965" lon="2.80924">
        <ele>77.8</ele>
        <time>2025-07-19T03:37:39Z</time>
      </trkpt>
      <trkpt lat="43.09605" lon="2.80925">
        <ele>78.4</ele>
        <time>2025-07-19T03:37:46Z</time>
      </trkpt>
      <trkpt lat="43.09567" lon="2.80926">
        <ele>78.6</ele>
        <time>2025-07-19T03:37:53Z</time>
      </trkpt>
      <trkpt lat="43.09561" lon="2.80926">
        <ele>78.6</ele>
        <time>2025-07-19T03:37:54Z</time>
      </trkpt>
      <trkpt lat="43.09542" lon="2.80931">
        <ele>78.8</ele>
        <time>2025-07-19T03:37:58Z</time>
      </trkpt>
      <trkpt lat="43.09518" lon="2.80936">
        <ele>79.6</ele>
        <time>2025-07-19T03:38:03Z</time>
      </trkpt>
      <trkpt lat="43.09513" lon="2.80937">
        <ele>80</ele>
        <time>2025-07-19T03:38:04Z</time>
      </trkpt>
      <trkpt lat="43.09509" lon="2.80938">
        <ele>80</ele>
        <time>2025-07-19T03:38:05Z</time>
      </trkpt>
      <trkpt lat="43.09485" lon="2.80942">
        <ele>81</ele>
        <time>2025-07-19T03:38:10Z</time>
      </trkpt>
      <trkpt lat="43.09458" lon="2.80946">
        <ele>81.6</ele>
        <time>2025-07-19T03:38:16Z</time>
      </trkpt>
      <trkpt lat="43.09429" lon="2.80951">
        <ele>82.2</ele>
        <time>2025-07-19T03:38:22Z</time>
      </trkpt>
      <trkpt lat="43.0942" lon="2.80953">
        <ele>82.4</ele>
        <time>2025-07-19T03:38:24Z</time>
      </trkpt>
      <trkpt lat="43.09388" lon="2.80958">
        <ele>83.2</ele>
        <time>2025-07-19T03:38:31Z</time>
      </trkpt>
      <trkpt lat="43.09373" lon="2.8096">
        <ele>83.6</ele>
        <time>2025-07-19T03:38:34Z</time>
      </trkpt>
      <trkpt lat="43.09333" lon="2.80966">
        <ele>84</ele>
        <time>2025-07-19T03:38:42Z</time>
      </trkpt>
      <trkpt lat="43.09324" lon="2.80967">
        <ele>84.4</ele>
        <time>2025-07-19T03:38:44Z</time>
      </trkpt>
      <trkpt lat="43.09276" lon="2.80972">
        <ele>84.8</ele>
        <time>2025-07-19T03:38:53Z</time>
      </trkpt>
      <trkpt lat="43.09234" lon="2.80976">
        <ele>85</ele>
        <time>2025-07-19T03:39:01Z</time>
      </trkpt>
      <trkpt lat="43.09191" lon="2.80981">
        <ele>85.4</ele>
        <time>2025-07-19T03:39:09Z</time>
      </trkpt>
      <trkpt lat="43.09155" lon="2.80984">
        <ele>86.4</ele>
        <time>2025-07-19T03:39:16Z</time>
      </trkpt>
      <trkpt lat="43.09142" lon="2.80986">
        <ele>87.4</ele>
        <time>2025-07-19T03:39:19Z</time>
      </trkpt>
      <trkpt lat="43.09138" lon="2.80987">
        <ele>87.4</ele>
        <time>2025-07-19T03:39:20Z</time>
      </trkpt>
      <trkpt lat="43.09119" lon="2.80989">
        <ele>88.6</ele>
        <time>2025-07-19T03:39:25Z</time>
      </trkpt>
      <trkpt lat="43.09116" lon="2.80989">
        <ele>88.8</ele>
        <time>2025-07-19T03:39:26Z</time>
      </trkpt>
      <trkpt lat="43.091" lon="2.80989">
        <ele>89.6</ele>
        <time>2025-07-19T03:39:30Z</time>
      </trkpt>
      <trkpt lat="43.09086" lon="2.80988">
        <ele>90.2</ele>
        <time>2025-07-19T03:39:34Z</time>
      </trkpt>
      <trkpt lat="43.09075" lon="2.80987">
        <ele>90.8</ele>
        <time>2025-07-19T03:39:37Z</time>
      </trkpt>
      <trkpt lat="43.0906" lon="2.80985">
        <ele>91.2</ele>
        <time>2025-07-19T03:39:41Z</time>
      </trkpt>
      <trkpt lat="43.09045" lon="2.80984">
        <ele>92.2</ele>
        <time>2025-07-19T03:39:45Z</time>
      </trkpt>
      <trkpt lat="43.09025" lon="2.8098">
        <ele>92.8</ele>
        <time>2025-07-19T03:39:50Z</time>
      </trkpt>
      <trkpt lat="43.09007" lon="2.80982">
        <ele>93.2</ele>
        <time>2025-07-19T03:39:54Z</time>
      </trkpt>
      <trkpt lat="43.08999" lon="2.80985">
        <ele>93.4</ele>
        <time>2025-07-19T03:39:56Z</time>
      </trkpt>
      <trkpt lat="43.08975" lon="2.81">
        <ele>93.2</ele>
        <time>2025-07-19T03:40:01Z</time>
      </trkpt>
      <trkpt lat="43.08937" lon="2.81028">
        <ele>92.4</ele>
        <time>2025-07-19T03:40:08Z</time>
      </trkpt>
      <trkpt lat="43.08932" lon="2.81031">
        <ele>92.2</ele>
        <time>2025-07-19T03:40:09Z</time>
      </trkpt>
      <trkpt lat="43.08902" lon="2.81047">
        <ele>92</ele>
        <time>2025-07-19T03:40:14Z</time>
      </trkpt>
      <trkpt lat="43.08866" lon="2.81058">
        <ele>91.4</ele>
        <time>2025-07-19T03:40:20Z</time>
      </trkpt>
      <trkpt lat="43.08846" lon="2.81064">
        <ele>91.2</ele>
        <time>2025-07-19T03:40:23Z</time>
      </trkpt>
      <trkpt lat="43.08798" lon="2.81076">
        <ele>91.4</ele>
        <time>2025-07-19T03:40:31Z</time>
      </trkpt>
      <trkpt lat="43.08781" lon="2.8108">
        <ele>91.4</ele>
        <time>2025-07-19T03:40:34Z</time>
      </trkpt>
      <trkpt lat="43.08734" lon="2.81093">
        <ele>92.4</ele>
        <time>2025-07-19T03:40:42Z</time>
      </trkpt>
      <trkpt lat="43.0873" lon="2.81094">
        <ele>92.6</ele>
        <time>2025-07-19T03:40:43Z</time>
      </trkpt>
      <trkpt lat="43.08687" lon="2.81102">
        <ele>92.8</ele>
        <time>2025-07-19T03:40:50Z</time>
      </trkpt>
      <trkpt lat="43.08651" lon="2.811">
        <ele>93</ele>
        <time>2025-07-19T03:40:56Z</time>
      </trkpt>
      <trkpt lat="43.08596" lon="2.81087">
        <ele>93.2</ele>
        <time>2025-07-19T03:41:05Z</time>
      </trkpt>
      <trkpt lat="43.0854" lon="2.81073">
        <ele>93.2</ele>
        <time>2025-07-19T03:41:14Z</time>
      </trkpt>
      <trkpt lat="43.08486" lon="2.8106">
        <ele>93.2</ele>
        <time>2025-07-19T03:41:23Z</time>
      </trkpt>
      <trkpt lat="43.08431" lon="2.81046">
        <ele>93.2</ele>
        <time>2025-07-19T03:41:32Z</time>
      </trkpt>
      <trkpt lat="43.08375" lon="2.81033">
        <ele>93.2</ele>
        <time>2025-07-19T03:41:41Z</time>
      </trkpt>
      <trkpt lat="43.0832" lon="2.81019">
        <ele>92.8</ele>
        <time>2025-07-19T03:41:50Z</time>
      </trkpt>
      <trkpt lat="43.08275" lon="2.81008">
        <ele>93.4</ele>
        <time>2025-07-19T03:41:58Z</time>
      </trkpt>
      <trkpt lat="43.08269" lon="2.81006">
        <ele>93.4</ele>
        <time>2025-07-19T03:41:59Z</time>
      </trkpt>
      <trkpt lat="43.08221" lon="2.80994">
        <ele>93.6</ele>
        <time>2025-07-19T03:42:07Z</time>
      </trkpt>
      <trkpt lat="43.08165" lon="2.80978">
        <ele>93.8</ele>
        <time>2025-07-19T03:42:17Z</time>
      </trkpt>
      <trkpt lat="43.08154" lon="2.80973">
        <ele>94.2</ele>
        <time>2025-07-19T03:42:19Z</time>
      </trkpt>
      <trkpt lat="43.08144" lon="2.80968">
        <ele>94.6</ele>
        <time>2025-07-19T03:42:21Z</time>
      </trkpt>
      <trkpt lat="43.08121" lon="2.80952">
        <ele>95.2</ele>
        <time>2025-07-19T03:42:26Z</time>
      </trkpt>
      <trkpt lat="43.08086" lon="2.80914">
        <ele>95.4</ele>
        <time>2025-07-19T03:42:34Z</time>
      </trkpt>
      <trkpt lat="43.08082" lon="2.80909">
        <ele>95.6</ele>
        <time>2025-07-19T03:42:35Z</time>
      </trkpt>
      <trkpt lat="43.08056" lon="2.80879">
        <ele>96.2</ele>
        <time>2025-07-19T03:42:42Z</time>
      </trkpt>
      <trkpt lat="43.08048" lon="2.80871">
        <ele>96.8</ele>
        <time>2025-07-19T03:42:44Z</time>
      </trkpt>
      <trkpt lat="43.08029" lon="2.80848">
        <ele>98.2</ele>
        <time>2025-07-19T03:42:50Z</time>
      </trkpt>
      <trkpt lat="43.08027" lon="2.80846">
        <ele>97.8</ele>
        <time>2025-07-19T03:42:51Z</time>
      </trkpt>
      <trkpt lat="43.08005" lon="2.80823">
        <ele>98.8</ele>
        <time>2025-07-19T03:42:58Z</time>
      </trkpt>
      <trkpt lat="43.07988" lon="2.80805">
        <ele>99.8</ele>
        <time>2025-07-19T03:43:04Z</time>
      </trkpt>
      <trkpt lat="43.07982" lon="2.80798">
        <ele>100</ele>
        <time>2025-07-19T03:43:06Z</time>
      </trkpt>
      <trkpt lat="43.07968" lon="2.80782">
        <ele>101.2</ele>
        <time>2025-07-19T03:43:11Z</time>
      </trkpt>
      <trkpt lat="43.07952" lon="2.80763">
        <ele>102</ele>
        <time>2025-07-19T03:43:17Z</time>
      </trkpt>
      <trkpt lat="43.07948" lon="2.80757">
        <ele>102.2</ele>
        <time>2025-07-19T03:43:19Z</time>
      </trkpt>
      <trkpt lat="43.07932" lon="2.80736">
        <ele>102.8</ele>
        <time>2025-07-19T03:43:25Z</time>
      </trkpt>
      <trkpt lat="43.07924" lon="2.80726">
        <ele>103.2</ele>
        <time>2025-07-19T03:43:28Z</time>
      </trkpt>
      <trkpt lat="43.07909" lon="2.80705">
        <ele>103.6</ele>
        <time>2025-07-19T03:43:34Z</time>
      </trkpt>
      <trkpt lat="43.07904" lon="2.80698">
        <ele>104.2</ele>
        <time>2025-07-19T03:43:36Z</time>
      </trkpt>
      <trkpt lat="43.07891" lon="2.80679">
        <ele>104.8</ele>
        <time>2025-07-19T03:43:42Z</time>
      </trkpt>
      <trkpt lat="43.07881" lon="2.80665">
        <ele>105.4</ele>
        <time>2025-07-19T03:43:46Z</time>
      </trkpt>
      <trkpt lat="43.07871" lon="2.80652">
        <ele>106</ele>
        <time>2025-07-19T03:43:50Z</time>
      </trkpt>
      <trkpt lat="43.07865" lon="2.80643">
        <ele>106.6</ele>
        <time>2025-07-19T03:43:53Z</time>
      </trkpt>
      <trkpt lat="43.07848" lon="2.8062">
        <ele>107.4</ele>
        <time>2025-07-19T03:44:00Z</time>
      </trkpt>
      <trkpt lat="43.07844" lon="2.80614">
        <ele>107.6</ele>
        <time>2025-07-19T03:44:02Z</time>
      </trkpt>
      <trkpt lat="43.07831" lon="2.80593">
        <ele>108.4</ele>
        <time>2025-07-19T03:44:08Z</time>
      </trkpt>
      <trkpt lat="43.07829" lon="2.80589">
        <ele>108.6</ele>
        <time>2025-07-19T03:44:09Z</time>
      </trkpt>
      <trkpt lat="43.07824" lon="2.80567">
        <ele>109.4</ele>
        <time>2025-07-19T03:44:14Z</time>
      </trkpt>
      <trkpt lat="43.07823" lon="2.80558">
        <ele>109.8</ele>
        <time>2025-07-19T03:44:16Z</time>
      </trkpt>
      <trkpt lat="43.07823" lon="2.80537">
        <ele>111</ele>
        <time>2025-07-19T03:44:21Z</time>
      </trkpt>
      <trkpt lat="43.07824" lon="2.80527">
        <ele>111.2</ele>
        <time>2025-07-19T03:44:23Z</time>
      </trkpt>
      <trkpt lat="43.07824" lon="2.805">
        <ele>112</ele>
        <time>2025-07-19T03:44:29Z</time>
      </trkpt>
      <trkpt lat="43.07825" lon="2.80487">
        <ele>112.4</ele>
        <time>2025-07-19T03:44:32Z</time>
      </trkpt>
      <trkpt lat="43.07825" lon="2.8047">
        <ele>113.2</ele>
        <time>2025-07-19T03:44:36Z</time>
      </trkpt>
      <trkpt lat="43.07825" lon="2.80455">
        <ele>113.8</ele>
        <time>2025-07-19T03:44:40Z</time>
      </trkpt>
      <trkpt lat="43.07825" lon="2.80441">
        <ele>114.4</ele>
        <time>2025-07-19T03:44:43Z</time>
      </trkpt>
      <trkpt lat="43.07826" lon="2.8042">
        <ele>115.4</ele>
        <time>2025-07-19T03:44:49Z</time>
      </trkpt>
      <trkpt lat="43.07826" lon="2.80394">
        <ele>116.6</ele>
        <time>2025-07-19T03:44:56Z</time>
      </trkpt>
      <trkpt lat="43.07825" lon="2.8039">
        <ele>116.8</ele>
        <time>2025-07-19T03:44:57Z</time>
      </trkpt>
      <trkpt lat="43.07817" lon="2.80365">
        <ele>117.8</ele>
        <time>2025-07-19T03:45:04Z</time>
      </trkpt>
      <trkpt lat="43.07816" lon="2.80362">
        <ele>117.8</ele>
        <time>2025-07-19T03:45:05Z</time>
      </trkpt>
      <trkpt lat="43.07805" lon="2.80344">
        <ele>118.8</ele>
        <time>2025-07-19T03:45:11Z</time>
      </trkpt>
      <trkpt lat="43.07799" lon="2.80333">
        <ele>119.2</ele>
        <time>2025-07-19T03:45:15Z</time>
      </trkpt>
      <trkpt lat="43.07793" lon="2.80326">
        <ele>119.6</ele>
        <time>2025-07-19T03:45:19Z</time>
      </trkpt>
      <trkpt lat="43.07789" lon="2.80327">
        <ele>120</ele>
        <time>2025-07-19T03:45:21Z</time>
      </trkpt>
      <trkpt lat="43.07783" lon="2.80331">
        <ele>120.2</ele>
        <time>2025-07-19T03:45:23Z</time>
      </trkpt>
      <trkpt lat="43.07771" lon="2.80339">
        <ele>120.4</ele>
        <time>2025-07-19T03:45:26Z</time>
      </trkpt>
      <trkpt lat="43.07763" lon="2.80346">
        <ele>120.4</ele>
        <time>2025-07-19T03:45:28Z</time>
      </trkpt>
      <trkpt lat="43.07745" lon="2.8036">
        <ele>120.2</ele>
        <time>2025-07-19T03:45:32Z</time>
      </trkpt>
      <trkpt lat="43.07711" lon="2.80386">
        <ele>119.8</ele>
        <time>2025-07-19T03:45:38Z</time>
      </trkpt>
      <trkpt lat="43.07678" lon="2.80413">
        <ele>119</ele>
        <time>2025-07-19T03:45:44Z</time>
      </trkpt>
      <trkpt lat="43.07667" lon="2.80423">
        <ele>118.8</ele>
        <time>2025-07-19T03:45:46Z</time>
      </trkpt>
      <trkpt lat="43.07615" lon="2.80464">
        <ele>118</ele>
        <time>2025-07-19T03:45:54Z</time>
      </trkpt>
      <trkpt lat="43.07602" lon="2.80474">
        <ele>117.8</ele>
        <time>2025-07-19T03:45:56Z</time>
      </trkpt>
      <trkpt lat="43.07569" lon="2.80502">
        <ele>117</ele>
        <time>2025-07-19T03:46:01Z</time>
      </trkpt>
      <trkpt lat="43.07555" lon="2.80513">
        <ele>116.6</ele>
        <time>2025-07-19T03:46:03Z</time>
      </trkpt>
      <trkpt lat="43.07512" lon="2.80547">
        <ele>116</ele>
        <time>2025-07-19T03:46:09Z</time>
      </trkpt>
      <trkpt lat="43.07484" lon="2.80569">
        <ele>115.6</ele>
        <time>2025-07-19T03:46:13Z</time>
      </trkpt>
      <trkpt lat="43.07434" lon="2.80606">
        <ele>114.8</ele>
        <time>2025-07-19T03:46:20Z</time>
      </trkpt>
      <trkpt lat="43.07401" lon="2.8063">
        <ele>114.4</ele>
        <time>2025-07-19T03:46:25Z</time>
      </trkpt>
      <trkpt lat="43.07354" lon="2.80664">
        <ele>114.2</ele>
        <time>2025-07-19T03:46:32Z</time>
      </trkpt>
      <trkpt lat="43.07304" lon="2.80701">
        <ele>114.2</ele>
        <time>2025-07-19T03:46:40Z</time>
      </trkpt>
      <trkpt lat="43.07285" lon="2.80714">
        <ele>114.2</ele>
        <time>2025-07-19T03:46:43Z</time>
      </trkpt>
      <trkpt lat="43.07237" lon="2.80749">
        <ele>114.6</ele>
        <time>2025-07-19T03:46:51Z</time>
      </trkpt>
      <trkpt lat="43.07226" lon="2.80758">
        <ele>114.8</ele>
        <time>2025-07-19T03:46:53Z</time>
      </trkpt>
      <trkpt lat="43.07181" lon="2.8079">
        <ele>115</ele>
        <time>2025-07-19T03:47:01Z</time>
      </trkpt>
      <trkpt lat="43.07135" lon="2.80825">
        <ele>115.6</ele>
        <time>2025-07-19T03:47:10Z</time>
      </trkpt>
      <trkpt lat="43.0713" lon="2.80829">
        <ele>115.8</ele>
        <time>2025-07-19T03:47:11Z</time>
      </trkpt>
      <trkpt lat="43.07087" lon="2.8086">
        <ele>116.4</ele>
        <time>2025-07-19T03:47:19Z</time>
      </trkpt>
      <trkpt lat="43.07077" lon="2.80867">
        <ele>116.8</ele>
        <time>2025-07-19T03:47:21Z</time>
      </trkpt>
      <trkpt lat="43.07041" lon="2.80893">
        <ele>117.8</ele>
        <time>2025-07-19T03:47:28Z</time>
      </trkpt>
      <trkpt lat="43.07001" lon="2.80923">
        <ele>118.8</ele>
        <time>2025-07-19T03:47:36Z</time>
      </trkpt>
      <trkpt lat="43.06997" lon="2.80926">
        <ele>118.8</ele>
        <time>2025-07-19T03:47:37Z</time>
      </trkpt>
      <trkpt lat="43.06969" lon="2.80953">
        <ele>119.4</ele>
        <time>2025-07-19T03:47:43Z</time>
      </trkpt>
      <trkpt lat="43.06954" lon="2.80976">
        <ele>119.8</ele>
        <time>2025-07-19T03:47:47Z</time>
      </trkpt>
      <trkpt lat="43.06948" lon="2.8099">
        <ele>120</ele>
        <time>2025-07-19T03:47:49Z</time>
      </trkpt>
      <trkpt lat="43.06936" lon="2.81034">
        <ele>120.4</ele>
        <time>2025-07-19T03:47:55Z</time>
      </trkpt>
      <trkpt lat="43.0693" lon="2.81073">
        <ele>120.8</ele>
        <time>2025-07-19T03:48:00Z</time>
      </trkpt>
      <trkpt lat="43.0692" lon="2.81134">
        <ele>121.8</ele>
        <time>2025-07-19T03:48:08Z</time>
      </trkpt>
      <trkpt lat="43.06917" lon="2.8115">
        <ele>121.8</ele>
        <time>2025-07-19T03:48:10Z</time>
      </trkpt>
      <trkpt lat="43.06914" lon="2.81157">
        <ele>122</ele>
        <time>2025-07-19T03:48:11Z</time>
      </trkpt>
      <trkpt lat="43.06908" lon="2.81172">
        <ele>122</ele>
        <time>2025-07-19T03:48:13Z</time>
      </trkpt>
      <trkpt lat="43.069" lon="2.81185">
        <ele>122</ele>
        <time>2025-07-19T03:48:15Z</time>
      </trkpt>
      <trkpt lat="43.06891" lon="2.81196">
        <ele>122</ele>
        <time>2025-07-19T03:48:17Z</time>
      </trkpt>
      <trkpt lat="43.06886" lon="2.81201">
        <ele>122</ele>
        <time>2025-07-19T03:48:18Z</time>
      </trkpt>
      <trkpt lat="43.0685" lon="2.81225">
        <ele>122</ele>
        <time>2025-07-19T03:48:24Z</time>
      </trkpt>
      <trkpt lat="43.06803" lon="2.81258">
        <ele>122.2</ele>
        <time>2025-07-19T03:48:32Z</time>
      </trkpt>
      <trkpt lat="43.06754" lon="2.8129">
        <ele>122.4</ele>
        <time>2025-07-19T03:48:40Z</time>
      </trkpt>
      <trkpt lat="43.06736" lon="2.81302">
        <ele>122.6</ele>
        <time>2025-07-19T03:48:43Z</time>
      </trkpt>
      <trkpt lat="43.06693" lon="2.81331">
        <ele>122.6</ele>
        <time>2025-07-19T03:48:50Z</time>
      </trkpt>
      <trkpt lat="43.06641" lon="2.81366">
        <ele>121.8</ele>
        <time>2025-07-19T03:48:58Z</time>
      </trkpt>
      <trkpt lat="43.06622" lon="2.81379">
        <ele>121.8</ele>
        <time>2025-07-19T03:49:01Z</time>
      </trkpt>
      <trkpt lat="43.0657" lon="2.81415">
        <ele>121.4</ele>
        <time>2025-07-19T03:49:09Z</time>
      </trkpt>
      <trkpt lat="43.06557" lon="2.81423">
        <ele>121.4</ele>
        <time>2025-07-19T03:49:11Z</time>
      </trkpt>
      <trkpt lat="43.06507" lon="2.81457">
        <ele>121.2</ele>
        <time>2025-07-19T03:49:19Z</time>
      </trkpt>
      <trkpt lat="43.06488" lon="2.81469">
        <ele>121</ele>
        <time>2025-07-19T03:49:22Z</time>
      </trkpt>
      <trkpt lat="43.06438" lon="2.81504">
        <ele>121</ele>
        <time>2025-07-19T03:49:30Z</time>
      </trkpt>
      <trkpt lat="43.06426" lon="2.81512">
        <ele>121</ele>
        <time>2025-07-19T03:49:32Z</time>
      </trkpt>
      <trkpt lat="43.06376" lon="2.81545">
        <ele>121.2</ele>
        <time>2025-07-19T03:49:40Z</time>
      </trkpt>
      <trkpt lat="43.0637" lon="2.81549">
        <ele>121.2</ele>
        <time>2025-07-19T03:49:41Z</time>
      </trkpt>
      <trkpt lat="43.06328" lon="2.81573">
        <ele>121.6</ele>
        <time>2025-07-19T03:49:48Z</time>
      </trkpt>
      <trkpt lat="43.06322" lon="2.81575">
        <ele>121.6</ele>
        <time>2025-07-19T03:49:49Z</time>
      </trkpt>
      <trkpt lat="43.0627" lon="2.81595">
        <ele>122.4</ele>
        <time>2025-07-19T03:49:58Z</time>
      </trkpt>
      <trkpt lat="43.06242" lon="2.81606">
        <ele>122.8</ele>
        <time>2025-07-19T03:50:03Z</time>
      </trkpt>
      <trkpt lat="43.06224" lon="2.81611">
        <ele>123.2</ele>
        <time>2025-07-19T03:50:06Z</time>
      </trkpt>
      <trkpt lat="43.06184" lon="2.81615">
        <ele>123.4</ele>
        <time>2025-07-19T03:50:13Z</time>
      </trkpt>
      <trkpt lat="43.06149" lon="2.81607">
        <ele>123.4</ele>
        <time>2025-07-19T03:50:19Z</time>
      </trkpt>
      <trkpt lat="43.06126" lon="2.816">
        <ele>124</ele>
        <time>2025-07-19T03:50:23Z</time>
      </trkpt>
      <trkpt lat="43.06097" lon="2.81591">
        <ele>124.6</ele>
        <time>2025-07-19T03:50:28Z</time>
      </trkpt>
      <trkpt lat="43.06064" lon="2.8158">
        <ele>125</ele>
        <time>2025-07-19T03:50:34Z</time>
      </trkpt>
      <trkpt lat="43.06053" lon="2.81577">
        <ele>125</ele>
        <time>2025-07-19T03:50:36Z</time>
      </trkpt>
      <trkpt lat="43.06004" lon="2.8156">
        <ele>125.8</ele>
        <time>2025-07-19T03:50:45Z</time>
      </trkpt>
      <trkpt lat="43.05992" lon="2.81557">
        <ele>126.2</ele>
        <time>2025-07-19T03:50:47Z</time>
      </trkpt>
      <trkpt lat="43.05943" lon="2.8154">
        <ele>127</ele>
        <time>2025-07-19T03:50:56Z</time>
      </trkpt>
      <trkpt lat="43.05938" lon="2.81537">
        <ele>127.2</ele>
        <time>2025-07-19T03:50:57Z</time>
      </trkpt>
      <trkpt lat="43.05924" lon="2.81527">
        <ele>127.4</ele>
        <time>2025-07-19T03:51:00Z</time>
      </trkpt>
      <trkpt lat="43.05915" lon="2.81519">
        <ele>127.6</ele>
        <time>2025-07-19T03:51:02Z</time>
      </trkpt>
      <trkpt lat="43.05899" lon="2.81501">
        <ele>128.2</ele>
        <time>2025-07-19T03:51:06Z</time>
      </trkpt>
      <trkpt lat="43.05882" lon="2.81481">
        <ele>128.6</ele>
        <time>2025-07-19T03:51:10Z</time>
      </trkpt>
      <trkpt lat="43.05868" lon="2.8147">
        <ele>128.6</ele>
        <time>2025-07-19T03:51:13Z</time>
      </trkpt>
      <trkpt lat="43.05857" lon="2.81466">
        <ele>128.8</ele>
        <time>2025-07-19T03:51:15Z</time>
      </trkpt>
      <trkpt lat="43.05845" lon="2.81464">
        <ele>128.8</ele>
        <time>2025-07-19T03:51:17Z</time>
      </trkpt>
      <trkpt lat="43.05828" lon="2.81466">
        <ele>128.6</ele>
        <time>2025-07-19T03:51:20Z</time>
      </trkpt>
      <trkpt lat="43.05785" lon="2.81479">
        <ele>128.6</ele>
        <time>2025-07-19T03:51:27Z</time>
      </trkpt>
      <trkpt lat="43.05744" lon="2.81494">
        <ele>128.6</ele>
        <time>2025-07-19T03:51:33Z</time>
      </trkpt>
      <trkpt lat="43.05694" lon="2.81512">
        <ele>128</ele>
        <time>2025-07-19T03:51:40Z</time>
      </trkpt>
      <trkpt lat="43.05642" lon="2.81534">
        <ele>127.4</ele>
        <time>2025-07-19T03:51:47Z</time>
      </trkpt>
      <trkpt lat="43.05634" lon="2.81538">
        <ele>127</ele>
        <time>2025-07-19T03:51:48Z</time>
      </trkpt>
      <trkpt lat="43.05619" lon="2.81545">
        <ele>126.8</ele>
        <time>2025-07-19T03:51:50Z</time>
      </trkpt>
      <trkpt lat="43.05565" lon="2.81577">
        <ele>126.2</ele>
        <time>2025-07-19T03:51:57Z</time>
      </trkpt>
      <trkpt lat="43.05557" lon="2.81582">
        <ele>125.8</ele>
        <time>2025-07-19T03:51:58Z</time>
      </trkpt>
      <trkpt lat="43.05517" lon="2.81605">
        <ele>124.6</ele>
        <time>2025-07-19T03:52:03Z</time>
      </trkpt>
      <trkpt lat="43.05509" lon="2.81609">
        <ele>124.4</ele>
        <time>2025-07-19T03:52:04Z</time>
      </trkpt>
      <trkpt lat="43.05466" lon="2.81622">
        <ele>123.6</ele>
        <time>2025-07-19T03:52:09Z</time>
      </trkpt>
      <trkpt lat="43.05457" lon="2.81622">
        <ele>123.4</ele>
        <time>2025-07-19T03:52:10Z</time>
      </trkpt>
      <trkpt lat="43.05423" lon="2.81618">
        <ele>122.6</ele>
        <time>2025-07-19T03:52:14Z</time>
      </trkpt>
      <trkpt lat="43.05415" lon="2.81617">
        <ele>122.4</ele>
        <time>2025-07-19T03:52:15Z</time>
      </trkpt>
      <trkpt lat="43.05398" lon="2.81617">
        <ele>122</ele>
        <time>2025-07-19T03:52:17Z</time>
      </trkpt>
      <trkpt lat="43.0539" lon="2.8162">
        <ele>121.8</ele>
        <time>2025-07-19T03:52:18Z</time>
      </trkpt>
      <trkpt lat="43.05381" lon="2.81623">
        <ele>121.8</ele>
        <time>2025-07-19T03:52:19Z</time>
      </trkpt>
      <trkpt lat="43.05366" lon="2.81634">
        <ele>121.4</ele>
        <time>2025-07-19T03:52:21Z</time>
      </trkpt>
      <trkpt lat="43.0536" lon="2.81642">
        <ele>121.2</ele>
        <time>2025-07-19T03:52:22Z</time>
      </trkpt>
      <trkpt lat="43.0533" lon="2.81688">
        <ele>120.2</ele>
        <time>2025-07-19T03:52:27Z</time>
      </trkpt>
      <trkpt lat="43.05323" lon="2.81697">
        <ele>119.8</ele>
        <time>2025-07-19T03:52:28Z</time>
      </trkpt>
      <trkpt lat="43.05311" lon="2.81717">
        <ele>119</ele>
        <time>2025-07-19T03:52:30Z</time>
      </trkpt>
      <trkpt lat="43.05292" lon="2.81747">
        <ele>117.6</ele>
        <time>2025-07-19T03:52:33Z</time>
      </trkpt>
      <trkpt lat="43.0528" lon="2.81767">
        <ele>117.2</ele>
        <time>2025-07-19T03:52:35Z</time>
      </trkpt>
      <trkpt lat="43.05261" lon="2.81798">
        <ele>116.4</ele>
        <time>2025-07-19T03:52:38Z</time>
      </trkpt>
      <trkpt lat="43.05222" lon="2.81861">
        <ele>115.2</ele>
        <time>2025-07-19T03:52:44Z</time>
      </trkpt>
      <trkpt lat="43.05215" lon="2.81872">
        <ele>115</ele>
        <time>2025-07-19T03:52:45Z</time>
      </trkpt>
      <trkpt lat="43.05178" lon="2.81933">
        <ele>114.6</ele>
        <time>2025-07-19T03:52:51Z</time>
      </trkpt>
      <trkpt lat="43.0516" lon="2.81961">
        <ele>114.4</ele>
        <time>2025-07-19T03:52:54Z</time>
      </trkpt>
      <trkpt lat="43.05148" lon="2.81979">
        <ele>114.2</ele>
        <time>2025-07-19T03:52:56Z</time>
      </trkpt>
      <trkpt lat="43.0512" lon="2.82012">
        <ele>113.2</ele>
        <time>2025-07-19T03:53:00Z</time>
      </trkpt>
      <trkpt lat="43.05113" lon="2.8202">
        <ele>113</ele>
        <time>2025-07-19T03:53:01Z</time>
      </trkpt>
      <trkpt lat="43.0509" lon="2.82041">
        <ele>112</ele>
        <time>2025-07-19T03:53:04Z</time>
      </trkpt>
      <trkpt lat="43.05074" lon="2.82055">
        <ele>111.6</ele>
        <time>2025-07-19T03:53:06Z</time>
      </trkpt>
      <trkpt lat="43.05051" lon="2.82077">
        <ele>111</ele>
        <time>2025-07-19T03:53:09Z</time>
      </trkpt>
      <trkpt lat="43.0503" lon="2.82103">
        <ele>110.6</ele>
        <time>2025-07-19T03:53:12Z</time>
      </trkpt>
      <trkpt lat="43.05007" lon="2.82143">
        <ele>109.6</ele>
        <time>2025-07-19T03:53:16Z</time>
      </trkpt>
      <trkpt lat="43.05002" lon="2.82153">
        <ele>109.6</ele>
        <time>2025-07-19T03:53:17Z</time>
      </trkpt>
      <trkpt lat="43.04971" lon="2.82214">
        <ele>108.6</ele>
        <time>2025-07-19T03:53:23Z</time>
      </trkpt>
      <trkpt lat="43.04965" lon="2.82224">
        <ele>108.6</ele>
        <time>2025-07-19T03:53:24Z</time>
      </trkpt>
      <trkpt lat="43.0496" lon="2.82234">
        <ele>108</ele>
        <time>2025-07-19T03:53:25Z</time>
      </trkpt>
      <trkpt lat="43.04947" lon="2.82253">
        <ele>107.4</ele>
        <time>2025-07-19T03:53:27Z</time>
      </trkpt>
      <trkpt lat="43.04915" lon="2.82296">
        <ele>106.4</ele>
        <time>2025-07-19T03:53:32Z</time>
      </trkpt>
      <trkpt lat="43.04868" lon="2.82353">
        <ele>105.6</ele>
        <time>2025-07-19T03:53:39Z</time>
      </trkpt>
      <trkpt lat="43.04861" lon="2.82359">
        <ele>105.6</ele>
        <time>2025-07-19T03:53:40Z</time>
      </trkpt>
      <trkpt lat="43.04846" lon="2.82372">
        <ele>105.4</ele>
        <time>2025-07-19T03:53:42Z</time>
      </trkpt>
      <trkpt lat="43.04815" lon="2.82392">
        <ele>105</ele>
        <time>2025-07-19T03:53:46Z</time>
      </trkpt>
      <trkpt lat="43.04789" lon="2.82404">
        <ele>104.2</ele>
        <time>2025-07-19T03:53:49Z</time>
      </trkpt>
      <trkpt lat="43.04744" lon="2.82423">
        <ele>103.8</ele>
        <time>2025-07-19T03:53:54Z</time>
      </trkpt>
      <trkpt lat="43.04697" lon="2.82441">
        <ele>103.2</ele>
        <time>2025-07-19T03:53:59Z</time>
      </trkpt>
      <trkpt lat="43.0466" lon="2.82461">
        <ele>102.6</ele>
        <time>2025-07-19T03:54:03Z</time>
      </trkpt>
      <trkpt lat="43.04633" lon="2.8248">
        <ele>102.2</ele>
        <time>2025-07-19T03:54:06Z</time>
      </trkpt>
      <trkpt lat="43.04608" lon="2.82502">
        <ele>102</ele>
        <time>2025-07-19T03:54:09Z</time>
      </trkpt>
      <trkpt lat="43.04561" lon="2.82546">
        <ele>100.6</ele>
        <time>2025-07-19T03:54:15Z</time>
      </trkpt>
      <trkpt lat="43.04539" lon="2.82569">
        <ele>99.8</ele>
        <time>2025-07-19T03:54:18Z</time>
      </trkpt>
      <trkpt lat="43.0453" lon="2.82579">
        <ele>99.6</ele>
        <time>2025-07-19T03:54:19Z</time>
      </trkpt>
      <trkpt lat="43.04482" lon="2.82632">
        <ele>98.6</ele>
        <time>2025-07-19T03:54:25Z</time>
      </trkpt>
      <trkpt lat="43.04475" lon="2.82641">
        <ele>98.6</ele>
        <time>2025-07-19T03:54:26Z</time>
      </trkpt>
      <trkpt lat="43.04427" lon="2.82685">
        <ele>97.4</ele>
        <time>2025-07-19T03:54:32Z</time>
      </trkpt>
      <trkpt lat="43.04409" lon="2.82701">
        <ele>97</ele>
        <time>2025-07-19T03:54:34Z</time>
      </trkpt>
      <trkpt lat="43.04395" lon="2.8272">
        <ele>96.8</ele>
        <time>2025-07-19T03:54:36Z</time>
      </trkpt>
      <trkpt lat="43.04378" lon="2.8275">
        <ele>96.2</ele>
        <time>2025-07-19T03:54:39Z</time>
      </trkpt>
      <trkpt lat="43.04367" lon="2.82773">
        <ele>96.2</ele>
        <time>2025-07-19T03:54:41Z</time>
      </trkpt>
      <trkpt lat="43.04343" lon="2.82814">
        <ele>95.8</ele>
        <time>2025-07-19T03:54:45Z</time>
      </trkpt>
      <trkpt lat="43.04328" lon="2.82831">
        <ele>95.6</ele>
        <time>2025-07-19T03:54:47Z</time>
      </trkpt>
      <trkpt lat="43.0432" lon="2.82837">
        <ele>95.2</ele>
        <time>2025-07-19T03:54:48Z</time>
      </trkpt>
      <trkpt lat="43.04312" lon="2.82842">
        <ele>95.2</ele>
        <time>2025-07-19T03:54:49Z</time>
      </trkpt>
      <trkpt lat="43.04303" lon="2.82844">
        <ele>95</ele>
        <time>2025-07-19T03:54:50Z</time>
      </trkpt>
      <trkpt lat="43.04294" lon="2.82844">
        <ele>94.6</ele>
        <time>2025-07-19T03:54:51Z</time>
      </trkpt>
      <trkpt lat="43.04275" lon="2.82844">
        <ele>94.2</ele>
        <time>2025-07-19T03:54:53Z</time>
      </trkpt>
      <trkpt lat="43.04261" lon="2.8285">
        <ele>93.6</ele>
        <time>2025-07-19T03:54:55Z</time>
      </trkpt>
      <trkpt lat="43.04252" lon="2.82857">
        <ele>93.4</ele>
        <time>2025-07-19T03:54:56Z</time>
      </trkpt>
      <trkpt lat="43.04246" lon="2.82865">
        <ele>93.2</ele>
        <time>2025-07-19T03:54:57Z</time>
      </trkpt>
      <trkpt lat="43.04241" lon="2.82875">
        <ele>93</ele>
        <time>2025-07-19T03:54:58Z</time>
      </trkpt>
      <trkpt lat="43.04237" lon="2.82886">
        <ele>93</ele>
        <time>2025-07-19T03:54:59Z</time>
      </trkpt>
      <trkpt lat="43.04236" lon="2.82911">
        <ele>92.6</ele>
        <time>2025-07-19T03:55:01Z</time>
      </trkpt>
      <trkpt lat="43.04238" lon="2.82923">
        <ele>92.4</ele>
        <time>2025-07-19T03:55:02Z</time>
      </trkpt>
      <trkpt lat="43.04243" lon="2.82946">
        <ele>92</ele>
        <time>2025-07-19T03:55:04Z</time>
      </trkpt>
      <trkpt lat="43.04246" lon="2.82958">
        <ele>91.6</ele>
        <time>2025-07-19T03:55:05Z</time>
      </trkpt>
      <trkpt lat="43.04248" lon="2.82983">
        <ele>91.2</ele>
        <time>2025-07-19T03:55:07Z</time>
      </trkpt>
      <trkpt lat="43.04245" lon="2.83008">
        <ele>90.6</ele>
        <time>2025-07-19T03:55:09Z</time>
      </trkpt>
      <trkpt lat="43.04241" lon="2.83019">
        <ele>90.2</ele>
        <time>2025-07-19T03:55:10Z</time>
      </trkpt>
      <trkpt lat="43.04236" lon="2.83029">
        <ele>89.6</ele>
        <time>2025-07-19T03:55:11Z</time>
      </trkpt>
      <trkpt lat="43.04229" lon="2.83038">
        <ele>89.2</ele>
        <time>2025-07-19T03:55:12Z</time>
      </trkpt>
      <trkpt lat="43.04223" lon="2.83046">
        <ele>89.2</ele>
        <time>2025-07-19T03:55:13Z</time>
      </trkpt>
      <trkpt lat="43.04196" lon="2.83079">
        <ele>88</ele>
        <time>2025-07-19T03:55:17Z</time>
      </trkpt>
      <trkpt lat="43.04181" lon="2.83094">
        <ele>86.8</ele>
        <time>2025-07-19T03:55:19Z</time>
      </trkpt>
      <trkpt lat="43.04173" lon="2.831">
        <ele>86.6</ele>
        <time>2025-07-19T03:55:20Z</time>
      </trkpt>
      <trkpt lat="43.0415" lon="2.83115">
        <ele>85.8</ele>
        <time>2025-07-19T03:55:23Z</time>
      </trkpt>
      <trkpt lat="43.04133" lon="2.83123">
        <ele>85.2</ele>
        <time>2025-07-19T03:55:25Z</time>
      </trkpt>
      <trkpt lat="43.04125" lon="2.83127">
        <ele>84.8</ele>
        <time>2025-07-19T03:55:26Z</time>
      </trkpt>
      <trkpt lat="43.04074" lon="2.8316">
        <ele>83.8</ele>
        <time>2025-07-19T03:55:32Z</time>
      </trkpt>
      <trkpt lat="43.04067" lon="2.83167">
        <ele>83.6</ele>
        <time>2025-07-19T03:55:33Z</time>
      </trkpt>
      <trkpt lat="43.04046" lon="2.83192">
        <ele>83.2</ele>
        <time>2025-07-19T03:55:36Z</time>
      </trkpt>
      <trkpt lat="43.0404" lon="2.83202">
        <ele>83</ele>
        <time>2025-07-19T03:55:37Z</time>
      </trkpt>
      <trkpt lat="43.04036" lon="2.83213">
        <ele>82.4</ele>
        <time>2025-07-19T03:55:38Z</time>
      </trkpt>
      <trkpt lat="43.04034" lon="2.83238">
        <ele>81.8</ele>
        <time>2025-07-19T03:55:40Z</time>
      </trkpt>
      <trkpt lat="43.0404" lon="2.83263">
        <ele>81.2</ele>
        <time>2025-07-19T03:55:42Z</time>
      </trkpt>
      <trkpt lat="43.04044" lon="2.83273">
        <ele>80.8</ele>
        <time>2025-07-19T03:55:43Z</time>
      </trkpt>
      <trkpt lat="43.04063" lon="2.83324">
        <ele>80</ele>
        <time>2025-07-19T03:55:47Z</time>
      </trkpt>
      <trkpt lat="43.04074" lon="2.83354">
        <ele>79</ele>
        <time>2025-07-19T03:55:50Z</time>
      </trkpt>
      <trkpt lat="43.04077" lon="2.83362">
        <ele>78.8</ele>
        <time>2025-07-19T03:55:51Z</time>
      </trkpt>
      <trkpt lat="43.04087" lon="2.83381">
        <ele>78.2</ele>
        <time>2025-07-19T03:55:54Z</time>
      </trkpt>
      <trkpt lat="43.0409" lon="2.8339">
        <ele>78</ele>
        <time>2025-07-19T03:55:55Z</time>
      </trkpt>
      <trkpt lat="43.0409" lon="2.83396">
        <ele>77.6</ele>
        <time>2025-07-19T03:55:56Z</time>
      </trkpt>
      <trkpt lat="43.04084" lon="2.83408">
        <ele>77.2</ele>
        <time>2025-07-19T03:55:58Z</time>
      </trkpt>
      <trkpt lat="43.04073" lon="2.83414">
        <ele>77</ele>
        <time>2025-07-19T03:56:00Z</time>
      </trkpt>
      <trkpt lat="43.04064" lon="2.83416">
        <ele>76.8</ele>
        <time>2025-07-19T03:56:02Z</time>
      </trkpt>
      <trkpt lat="43.04054" lon="2.83419">
        <ele>76.8</ele>
        <time>2025-07-19T03:56:04Z</time>
      </trkpt>
      <trkpt lat="43.04045" lon="2.83422">
        <ele>76.8</ele>
        <time>2025-07-19T03:56:06Z</time>
      </trkpt>
      <trkpt lat="43.04022" lon="2.83442">
        <ele>76.8</ele>
        <time>2025-07-19T03:56:11Z</time>
      </trkpt>
      <trkpt lat="43.04016" lon="2.83453">
        <ele>77</ele>
        <time>2025-07-19T03:56:13Z</time>
      </trkpt>
      <trkpt lat="43.04008" lon="2.83471">
        <ele>77.2</ele>
        <time>2025-07-19T03:56:16Z</time>
      </trkpt>
      <trkpt lat="43.03992" lon="2.83504">
        <ele>78</ele>
        <time>2025-07-19T03:56:22Z</time>
      </trkpt>
      <trkpt lat="43.03988" lon="2.83508">
        <ele>78</ele>
        <time>2025-07-19T03:56:23Z</time>
      </trkpt>
      <trkpt lat="43.03959" lon="2.83537">
        <ele>78.8</ele>
        <time>2025-07-19T03:56:31Z</time>
      </trkpt>
      <trkpt lat="43.03955" lon="2.83541">
        <ele>79</ele>
        <time>2025-07-19T03:56:32Z</time>
      </trkpt>
      <trkpt lat="43.03928" lon="2.83568">
        <ele>79.6</ele>
        <time>2025-07-19T03:56:39Z</time>
      </trkpt>
      <trkpt lat="43.03919" lon="2.83574">
        <ele>79.6</ele>
        <time>2025-07-19T03:56:41Z</time>
      </trkpt>
      <trkpt lat="43.0391" lon="2.83578">
        <ele>79.6</ele>
        <time>2025-07-19T03:56:43Z</time>
      </trkpt>
      <trkpt lat="43.03905" lon="2.83579">
        <ele>79.6</ele>
        <time>2025-07-19T03:56:44Z</time>
      </trkpt>
      <trkpt lat="43.039" lon="2.83579">
        <ele>79.6</ele>
        <time>2025-07-19T03:56:45Z</time>
      </trkpt>
      <trkpt lat="43.03856" lon="2.83533">
        <ele>79.8</ele>
        <time>2025-07-19T03:56:57Z</time>
      </trkpt>
      <trkpt lat="43.03855" lon="2.83518">
        <ele>79.8</ele>
        <time>2025-07-19T03:56:59Z</time>
      </trkpt>
      <trkpt lat="43.03853" lon="2.83504">
        <ele>79.6</ele>
        <time>2025-07-19T03:57:01Z</time>
      </trkpt>
      <trkpt lat="43.03848" lon="2.83471">
        <ele>79.6</ele>
        <time>2025-07-19T03:57:05Z</time>
      </trkpt>
      <trkpt lat="43.03848" lon="2.83456">
        <ele>79.4</ele>
        <time>2025-07-19T03:57:07Z</time>
      </trkpt>
      <trkpt lat="43.03856" lon="2.83411">
        <ele>79.2</ele>
        <time>2025-07-19T03:57:13Z</time>
      </trkpt>
      <trkpt lat="43.03856" lon="2.83401">
        <ele>79.2</ele>
        <time>2025-07-19T03:57:14Z</time>
      </trkpt>
      <trkpt lat="43.03854" lon="2.83387">
        <ele>79.2</ele>
        <time>2025-07-19T03:57:16Z</time>
      </trkpt>
      <trkpt lat="43.03851" lon="2.83379">
        <ele>79.2</ele>
        <time>2025-07-19T03:57:17Z</time>
      </trkpt>
      <trkpt lat="43.03849" lon="2.83372">
        <ele>79.4</ele>
        <time>2025-07-19T03:57:18Z</time>
      </trkpt>
      <trkpt lat="43.03837" lon="2.83353">
        <ele>80</ele>
        <time>2025-07-19T03:57:21Z</time>
      </trkpt>
      <trkpt lat="43.03827" lon="2.83342">
        <ele>80.4</ele>
        <time>2025-07-19T03:57:23Z</time>
      </trkpt>
      <trkpt lat="43.03812" lon="2.83329">
        <ele>80.8</ele>
        <time>2025-07-19T03:57:26Z</time>
      </trkpt>
      <trkpt lat="43.03806" lon="2.83325">
        <ele>80.8</ele>
        <time>2025-07-19T03:57:27Z</time>
      </trkpt>
      <trkpt lat="43.03778" lon="2.83309">
        <ele>80.8</ele>
        <time>2025-07-19T03:57:32Z</time>
      </trkpt>
      <trkpt lat="43.0373" lon="2.83285">
        <ele>80.4</ele>
        <time>2025-07-19T03:57:40Z</time>
      </trkpt>
      <trkpt lat="43.03674" lon="2.83259">
        <ele>79.8</ele>
        <time>2025-07-19T03:57:49Z</time>
      </trkpt>
      <trkpt lat="43.03668" lon="2.83256">
        <ele>79.8</ele>
        <time>2025-07-19T03:57:50Z</time>
      </trkpt>
      <trkpt lat="43.03612" lon="2.83226">
        <ele>80</ele>
        <time>2025-07-19T03:57:59Z</time>
      </trkpt>
      <trkpt lat="43.03606" lon="2.83223">
        <ele>80</ele>
        <time>2025-07-19T03:58:00Z</time>
      </trkpt>
      <trkpt lat="43.03579" lon="2.83218">
        <ele>80.2</ele>
        <time>2025-07-19T03:58:04Z</time>
      </trkpt>
      <trkpt lat="43.03572" lon="2.83218">
        <ele>80.2</ele>
        <time>2025-07-19T03:58:05Z</time>
      </trkpt>
      <trkpt lat="43.03561" lon="2.8322">
        <ele>80.2</ele>
        <time>2025-07-19T03:58:07Z</time>
      </trkpt>
      <trkpt lat="43.03543" lon="2.83227">
        <ele>80</ele>
        <time>2025-07-19T03:58:10Z</time>
      </trkpt>
      <trkpt lat="43.03499" lon="2.83253">
        <ele>79.8</ele>
        <time>2025-07-19T03:58:18Z</time>
      </trkpt>
      <trkpt lat="43.03468" lon="2.83273">
        <ele>79.6</ele>
        <time>2025-07-19T03:58:24Z</time>
      </trkpt>
      <trkpt lat="43.0346" lon="2.83283">
        <ele>79.6</ele>
        <time>2025-07-19T03:58:26Z</time>
      </trkpt>
      <trkpt lat="43.03454" lon="2.83296">
        <ele>79.6</ele>
        <time>2025-07-19T03:58:28Z</time>
      </trkpt>
      <trkpt lat="43.03439" lon="2.8334">
        <ele>79.4</ele>
        <time>2025-07-19T03:58:34Z</time>
      </trkpt>
      <trkpt lat="43.03435" lon="2.83347">
        <ele>79.4</ele>
        <time>2025-07-19T03:58:35Z</time>
      </trkpt>
      <trkpt lat="43.03431" lon="2.83354">
        <ele>79.2</ele>
        <time>2025-07-19T03:58:36Z</time>
      </trkpt>
      <trkpt lat="43.03426" lon="2.83359">
        <ele>79</ele>
        <time>2025-07-19T03:58:37Z</time>
      </trkpt>
      <trkpt lat="43.03421" lon="2.83364">
        <ele>79</ele>
        <time>2025-07-19T03:58:38Z</time>
      </trkpt>
      <trkpt lat="43.03415" lon="2.83368">
        <ele>78.8</ele>
        <time>2025-07-19T03:58:39Z</time>
      </trkpt>
      <trkpt lat="43.03408" lon="2.83371">
        <ele>78.6</ele>
        <time>2025-07-19T03:58:40Z</time>
      </trkpt>
      <trkpt lat="43.03386" lon="2.83376">
        <ele>78.6</ele>
        <time>2025-07-19T03:58:44Z</time>
      </trkpt>
      <trkpt lat="43.03332" lon="2.83385">
        <ele>78.2</ele>
        <time>2025-07-19T03:58:53Z</time>
      </trkpt>
      <trkpt lat="43.03319" lon="2.83385">
        <ele>78</ele>
        <time>2025-07-19T03:58:55Z</time>
      </trkpt>
      <trkpt lat="43.03288" lon="2.83378">
        <ele>77.6</ele>
        <time>2025-07-19T03:59:00Z</time>
      </trkpt>
      <trkpt lat="43.03245" lon="2.83365">
        <ele>78.4</ele>
        <time>2025-07-19T03:59:07Z</time>
      </trkpt>
      <trkpt lat="43.03222" lon="2.83355">
        <ele>78.8</ele>
        <time>2025-07-19T03:59:11Z</time>
      </trkpt>
      <trkpt lat="43.03217" lon="2.8335">
        <ele>78.8</ele>
        <time>2025-07-19T03:59:12Z</time>
      </trkpt>
      <trkpt lat="43.03212" lon="2.83344">
        <ele>78.8</ele>
        <time>2025-07-19T03:59:13Z</time>
      </trkpt>
      <trkpt lat="43.03205" lon="2.8333">
        <ele>78.6</ele>
        <time>2025-07-19T03:59:15Z</time>
      </trkpt>
      <trkpt lat="43.032" lon="2.83313">
        <ele>78.2</ele>
        <time>2025-07-19T03:59:17Z</time>
      </trkpt>
      <trkpt lat="43.03199" lon="2.83295">
        <ele>78</ele>
        <time>2025-07-19T03:59:19Z</time>
      </trkpt>
      <trkpt lat="43.03201" lon="2.83235">
        <ele>77.8</ele>
        <time>2025-07-19T03:59:26Z</time>
      </trkpt>
      <trkpt lat="43.03203" lon="2.83178">
        <ele>78.4</ele>
        <time>2025-07-19T03:59:33Z</time>
      </trkpt>
      <trkpt lat="43.03207" lon="2.83128">
        <ele>79</ele>
        <time>2025-07-19T03:59:39Z</time>
      </trkpt>
      <trkpt lat="43.03208" lon="2.83106">
        <ele>79.2</ele>
        <time>2025-07-19T03:59:42Z</time>
      </trkpt>
      <trkpt lat="43.03202" lon="2.83042">
        <ele>78.6</ele>
        <time>2025-07-19T03:59:50Z</time>
      </trkpt>
      <trkpt lat="43.03189" lon="2.82996">
        <ele>78.6</ele>
        <time>2025-07-19T03:59:56Z</time>
      </trkpt>
      <trkpt lat="43.03181" lon="2.82974">
        <ele>78.6</ele>
        <time>2025-07-19T03:59:59Z</time>
      </trkpt>
      <trkpt lat="43.03173" lon="2.8296">
        <ele>78.8</ele>
        <time>2025-07-19T04:00:01Z</time>
      </trkpt>
      <trkpt lat="43.03169" lon="2.82954">
        <ele>78.8</ele>
        <time>2025-07-19T04:00:02Z</time>
      </trkpt>
      <trkpt lat="43.03164" lon="2.82949">
        <ele>78.8</ele>
        <time>2025-07-19T04:00:03Z</time>
      </trkpt>
      <trkpt lat="43.03153" lon="2.82943">
        <ele>78.6</ele>
        <time>2025-07-19T04:00:05Z</time>
      </trkpt>
      <trkpt lat="43.03147" lon="2.82941">
        <ele>78.8</ele>
        <time>2025-07-19T04:00:06Z</time>
      </trkpt>
      <trkpt lat="43.03141" lon="2.82939">
        <ele>78.8</ele>
        <time>2025-07-19T04:00:07Z</time>
      </trkpt>
      <trkpt lat="43.03115" lon="2.82939">
        <ele>78.8</ele>
        <time>2025-07-19T04:00:11Z</time>
      </trkpt>
      <trkpt lat="43.03096" lon="2.82942">
        <ele>78.8</ele>
        <time>2025-07-19T04:00:14Z</time>
      </trkpt>
      <trkpt lat="43.03078" lon="2.8295">
        <ele>79.2</ele>
        <time>2025-07-19T04:00:17Z</time>
      </trkpt>
      <trkpt lat="43.03041" lon="2.82981">
        <ele>79</ele>
        <time>2025-07-19T04:00:24Z</time>
      </trkpt>
      <trkpt lat="43.02995" lon="2.83026">
        <ele>79</ele>
        <time>2025-07-19T04:00:33Z</time>
      </trkpt>
      <trkpt lat="43.02989" lon="2.83031">
        <ele>79</ele>
        <time>2025-07-19T04:00:34Z</time>
      </trkpt>
      <trkpt lat="43.02979" lon="2.83042">
        <ele>79</ele>
        <time>2025-07-19T04:00:36Z</time>
      </trkpt>
      <trkpt lat="43.02968" lon="2.8305">
        <ele>79</ele>
        <time>2025-07-19T04:00:38Z</time>
      </trkpt>
      <trkpt lat="43.02962" lon="2.83052">
        <ele>79</ele>
        <time>2025-07-19T04:00:39Z</time>
      </trkpt>
      <trkpt lat="43.02931" lon="2.83053">
        <ele>79</ele>
        <time>2025-07-19T04:00:44Z</time>
      </trkpt>
      <trkpt lat="43.0288" lon="2.83044">
        <ele>79</ele>
        <time>2025-07-19T04:00:52Z</time>
      </trkpt>
      <trkpt lat="43.02839" lon="2.83023">
        <ele>79</ele>
        <time>2025-07-19T04:00:59Z</time>
      </trkpt>
      <trkpt lat="43.02795" lon="2.82989">
        <ele>79.4</ele>
        <time>2025-07-19T04:01:07Z</time>
      </trkpt>
      <trkpt lat="43.02762" lon="2.82966">
        <ele>79.6</ele>
        <time>2025-07-19T04:01:13Z</time>
      </trkpt>
      <trkpt lat="43.02715" lon="2.82945">
        <ele>79.6</ele>
        <time>2025-07-19T04:01:21Z</time>
      </trkpt>
      <trkpt lat="43.02702" lon="2.82947">
        <ele>79.6</ele>
        <time>2025-07-19T04:01:23Z</time>
      </trkpt>
      <trkpt lat="43.02695" lon="2.82951">
        <ele>79.6</ele>
        <time>2025-07-19T04:01:24Z</time>
      </trkpt>
      <trkpt lat="43.0269" lon="2.82954">
        <ele>79.8</ele>
        <time>2025-07-19T04:01:25Z</time>
      </trkpt>
      <trkpt lat="43.02681" lon="2.82967">
        <ele>79.8</ele>
        <time>2025-07-19T04:01:27Z</time>
      </trkpt>
      <trkpt lat="43.02676" lon="2.82974">
        <ele>79.8</ele>
        <time>2025-07-19T04:01:28Z</time>
      </trkpt>
      <trkpt lat="43.02673" lon="2.82982">
        <ele>79.8</ele>
        <time>2025-07-19T04:01:29Z</time>
      </trkpt>
      <trkpt lat="43.02669" lon="2.82989">
        <ele>79.8</ele>
        <time>2025-07-19T04:01:30Z</time>
      </trkpt>
      <trkpt lat="43.02654" lon="2.83009">
        <ele>79.8</ele>
        <time>2025-07-19T04:01:33Z</time>
      </trkpt>
      <trkpt lat="43.02641" lon="2.83018">
        <ele>79.8</ele>
        <time>2025-07-19T04:01:35Z</time>
      </trkpt>
      <trkpt lat="43.0263" lon="2.83023">
        <ele>79.8</ele>
        <time>2025-07-19T04:01:37Z</time>
      </trkpt>
      <trkpt lat="43.0258" lon="2.83034">
        <ele>80.2</ele>
        <time>2025-07-19T04:01:45Z</time>
      </trkpt>
      <trkpt lat="43.02568" lon="2.83033">
        <ele>80.4</ele>
        <time>2025-07-19T04:01:47Z</time>
      </trkpt>
      <trkpt lat="43.02556" lon="2.83027">
        <ele>80.4</ele>
        <time>2025-07-19T04:01:49Z</time>
      </trkpt>
      <trkpt lat="43.02525" lon="2.83005">
        <ele>81</ele>
        <time>2025-07-19T04:01:55Z</time>
      </trkpt>
      <trkpt lat="43.0252" lon="2.83002">
        <ele>81</ele>
        <time>2025-07-19T04:01:56Z</time>
      </trkpt>
      <trkpt lat="43.02484" lon="2.8299">
        <ele>81.8</ele>
        <time>2025-07-19T04:02:02Z</time>
      </trkpt>
      <trkpt lat="43.02426" lon="2.82978">
        <ele>81.8</ele>
        <time>2025-07-19T04:02:11Z</time>
      </trkpt>
      <trkpt lat="43.02394" lon="2.8297">
        <ele>82.2</ele>
        <time>2025-07-19T04:02:16Z</time>
      </trkpt>
      <trkpt lat="43.02369" lon="2.82965">
        <ele>82.6</ele>
        <time>2025-07-19T04:02:20Z</time>
      </trkpt>
      <trkpt lat="43.02362" lon="2.82963">
        <ele>83.2</ele>
        <time>2025-07-19T04:02:21Z</time>
      </trkpt>
      <trkpt lat="43.02336" lon="2.82961">
        <ele>84</ele>
        <time>2025-07-19T04:02:25Z</time>
      </trkpt>
      <trkpt lat="43.0233" lon="2.82962">
        <ele>84.6</ele>
        <time>2025-07-19T04:02:26Z</time>
      </trkpt>
      <trkpt lat="43.02323" lon="2.82964">
        <ele>84.6</ele>
        <time>2025-07-19T04:02:27Z</time>
      </trkpt>
      <trkpt lat="43.02292" lon="2.82984">
        <ele>85.2</ele>
        <time>2025-07-19T04:02:32Z</time>
      </trkpt>
      <trkpt lat="43.0227" lon="2.83006">
        <ele>85.2</ele>
        <time>2025-07-19T04:02:36Z</time>
      </trkpt>
      <trkpt lat="43.02265" lon="2.83012">
        <ele>85.2</ele>
        <time>2025-07-19T04:02:37Z</time>
      </trkpt>
      <trkpt lat="43.02235" lon="2.83051">
        <ele>85.4</ele>
        <time>2025-07-19T04:02:43Z</time>
      </trkpt>
      <trkpt lat="43.02229" lon="2.83056">
        <ele>85.4</ele>
        <time>2025-07-19T04:02:44Z</time>
      </trkpt>
      <trkpt lat="43.02181" lon="2.8309">
        <ele>84.8</ele>
        <time>2025-07-19T04:02:52Z</time>
      </trkpt>
      <trkpt lat="43.02144" lon="2.83113">
        <ele>84.6</ele>
        <time>2025-07-19T04:02:58Z</time>
      </trkpt>
      <trkpt lat="43.02137" lon="2.83115">
        <ele>84.6</ele>
        <time>2025-07-19T04:02:59Z</time>
      </trkpt>
      <trkpt lat="43.0211" lon="2.83116">
        <ele>84.4</ele>
        <time>2025-07-19T04:03:03Z</time>
      </trkpt>
      <trkpt lat="43.02063" lon="2.831">
        <ele>84.2</ele>
        <time>2025-07-19T04:03:10Z</time>
      </trkpt>
      <trkpt lat="43.0203" lon="2.83089">
        <ele>84.2</ele>
        <time>2025-07-19T04:03:15Z</time>
      </trkpt>
      <trkpt lat="43.02023" lon="2.83089">
        <ele>84</ele>
        <time>2025-07-19T04:03:16Z</time>
      </trkpt>
      <trkpt lat="43.01983" lon="2.83102">
        <ele>83.8</ele>
        <time>2025-07-19T04:03:22Z</time>
      </trkpt>
      <trkpt lat="43.01938" lon="2.83123">
        <ele>83.6</ele>
        <time>2025-07-19T04:03:29Z</time>
      </trkpt>
      <trkpt lat="43.01925" lon="2.83127">
        <ele>83.4</ele>
        <time>2025-07-19T04:03:31Z</time>
      </trkpt>
      <trkpt lat="43.0188" lon="2.83147">
        <ele>83.2</ele>
        <time>2025-07-19T04:03:38Z</time>
      </trkpt>
      <trkpt lat="43.01847" lon="2.8318">
        <ele>83.2</ele>
        <time>2025-07-19T04:03:44Z</time>
      </trkpt>
      <trkpt lat="43.01809" lon="2.83233">
        <ele>83.2</ele>
        <time>2025-07-19T04:03:52Z</time>
      </trkpt>
      <trkpt lat="43.01783" lon="2.83276">
        <ele>83</ele>
        <time>2025-07-19T04:03:58Z</time>
      </trkpt>
      <trkpt lat="43.01767" lon="2.83316">
        <ele>82.8</ele>
        <time>2025-07-19T04:04:03Z</time>
      </trkpt>
      <trkpt lat="43.01754" lon="2.83336">
        <ele>83</ele>
        <time>2025-07-19T04:04:06Z</time>
      </trkpt>
      <trkpt lat="43.01743" lon="2.83348">
        <ele>83</ele>
        <time>2025-07-19T04:04:08Z</time>
      </trkpt>
      <trkpt lat="43.01732" lon="2.83356">
        <ele>83</ele>
        <time>2025-07-19T04:04:10Z</time>
      </trkpt>
      <trkpt lat="43.01713" lon="2.83365">
        <ele>83</ele>
        <time>2025-07-19T04:04:13Z</time>
      </trkpt>
      <trkpt lat="43.01678" lon="2.83373">
        <ele>82.4</ele>
        <time>2025-07-19T04:04:18Z</time>
      </trkpt>
      <trkpt lat="43.01664" lon="2.83376">
        <ele>82.4</ele>
        <time>2025-07-19T04:04:20Z</time>
      </trkpt>
      <trkpt lat="43.01616" lon="2.83383">
        <ele>82.2</ele>
        <time>2025-07-19T04:04:27Z</time>
      </trkpt>
      <trkpt lat="43.01562" lon="2.83392">
        <ele>82</ele>
        <time>2025-07-19T04:04:35Z</time>
      </trkpt>
      <trkpt lat="43.01548" lon="2.83394">
        <ele>82</ele>
        <time>2025-07-19T04:04:37Z</time>
      </trkpt>
      <trkpt lat="43.01494" lon="2.83406">
        <ele>81.4</ele>
        <time>2025-07-19T04:04:45Z</time>
      </trkpt>
      <trkpt lat="43.01447" lon="2.83428">
        <ele>81.8</ele>
        <time>2025-07-19T04:04:52Z</time>
      </trkpt>
      <trkpt lat="43.01396" lon="2.83452">
        <ele>82</ele>
        <time>2025-07-19T04:05:00Z</time>
      </trkpt>
      <trkpt lat="43.01391" lon="2.83454">
        <ele>82</ele>
        <time>2025-07-19T04:05:01Z</time>
      </trkpt>
      <trkpt lat="43.01347" lon="2.83473">
        <ele>82.2</ele>
        <time>2025-07-19T04:05:08Z</time>
      </trkpt>
      <trkpt lat="43.01341" lon="2.83474">
        <ele>82.4</ele>
        <time>2025-07-19T04:05:09Z</time>
      </trkpt>
      <trkpt lat="43.01317" lon="2.83474">
        <ele>82.6</ele>
        <time>2025-07-19T04:05:13Z</time>
      </trkpt>
      <trkpt lat="43.01311" lon="2.83472">
        <ele>82.6</ele>
        <time>2025-07-19T04:05:14Z</time>
      </trkpt>
      <trkpt lat="43.01295" lon="2.83463">
        <ele>82.8</ele>
        <time>2025-07-19T04:05:17Z</time>
      </trkpt>
      <trkpt lat="43.01285" lon="2.83454">
        <ele>82.8</ele>
        <time>2025-07-19T04:05:19Z</time>
      </trkpt>
      <trkpt lat="43.01258" lon="2.83427">
        <ele>83.2</ele>
        <time>2025-07-19T04:05:25Z</time>
      </trkpt>
      <trkpt lat="43.01244" lon="2.83412">
        <ele>83.2</ele>
        <time>2025-07-19T04:05:28Z</time>
      </trkpt>
      <trkpt lat="43.01226" lon="2.83392">
        <ele>83.4</ele>
        <time>2025-07-19T04:05:32Z</time>
      </trkpt>
      <trkpt lat="43.01199" lon="2.83363">
        <ele>83.6</ele>
        <time>2025-07-19T04:05:38Z</time>
      </trkpt>
      <trkpt lat="43.01182" lon="2.83344">
        <ele>83.8</ele>
        <time>2025-07-19T04:05:42Z</time>
      </trkpt>
      <trkpt lat="43.01141" lon="2.83298">
        <ele>84.2</ele>
        <time>2025-07-19T04:05:51Z</time>
      </trkpt>
      <trkpt lat="43.011" lon="2.83254">
        <ele>84.6</ele>
        <time>2025-07-19T04:06:00Z</time>
      </trkpt>
      <trkpt lat="43.01089" lon="2.83242">
        <ele>84.8</ele>
        <time>2025-07-19T04:06:02Z</time>
      </trkpt>
      <trkpt lat="43.01053" lon="2.83199">
        <ele>85.4</ele>
        <time>2025-07-19T04:06:10Z</time>
      </trkpt>
      <trkpt lat="43.01028" lon="2.83151">
        <ele>85.2</ele>
        <time>2025-07-19T04:06:17Z</time>
      </trkpt>
      <trkpt lat="43.01007" lon="2.83082">
        <ele>85</ele>
        <time>2025-07-19T04:06:25Z</time>
      </trkpt>
      <trkpt lat="43.00998" lon="2.83019">
        <ele>85</ele>
        <time>2025-07-19T04:06:32Z</time>
      </trkpt>
      <trkpt lat="43.00997" lon="2.82949">
        <ele>84.8</ele>
        <time>2025-07-19T04:06:40Z</time>
      </trkpt>
      <trkpt lat="43.00998" lon="2.8288">
        <ele>85</ele>
        <time>2025-07-19T04:06:48Z</time>
      </trkpt>
      <trkpt lat="43.00991" lon="2.8283">
        <ele>85.2</ele>
        <time>2025-07-19T04:06:54Z</time>
      </trkpt>
      <trkpt lat="43.00987" lon="2.82814">
        <ele>85.2</ele>
        <time>2025-07-19T04:06:56Z</time>
      </trkpt>
      <trkpt lat="43.00977" lon="2.82792">
        <ele>85.2</ele>
        <time>2025-07-19T04:06:59Z</time>
      </trkpt>
      <trkpt lat="43.0097" lon="2.82779">
        <ele>85.2</ele>
        <time>2025-07-19T04:07:01Z</time>
      </trkpt>
      <trkpt lat="43.00947" lon="2.82742">
        <ele>85.6</ele>
        <time>2025-07-19T04:07:07Z</time>
      </trkpt>
      <trkpt lat="43.00908" lon="2.82687">
        <ele>85.2</ele>
        <time>2025-07-19T04:07:16Z</time>
      </trkpt>
      <trkpt lat="43.00904" lon="2.82681">
        <ele>85.2</ele>
        <time>2025-07-19T04:07:17Z</time>
      </trkpt>
      <trkpt lat="43.00866" lon="2.82624">
        <ele>85</ele>
        <time>2025-07-19T04:07:26Z</time>
      </trkpt>
      <trkpt lat="43.00823" lon="2.82574">
        <ele>85</ele>
        <time>2025-07-19T04:07:35Z</time>
      </trkpt>
      <trkpt lat="43.0078" lon="2.82525">
        <ele>85</ele>
        <time>2025-07-19T04:07:44Z</time>
      </trkpt>
      <trkpt lat="43.00771" lon="2.82515">
        <ele>85</ele>
        <time>2025-07-19T04:07:46Z</time>
      </trkpt>
      <trkpt lat="43.00748" lon="2.82496">
        <ele>85</ele>
        <time>2025-07-19T04:07:50Z</time>
      </trkpt>
      <trkpt lat="43.0073" lon="2.82488">
        <ele>85</ele>
        <time>2025-07-19T04:07:53Z</time>
      </trkpt>
      <trkpt lat="43.00724" lon="2.82486">
        <ele>85</ele>
        <time>2025-07-19T04:07:54Z</time>
      </trkpt>
      <trkpt lat="43.00696" lon="2.82485">
        <ele>85</ele>
        <time>2025-07-19T04:07:58Z</time>
      </trkpt>
      <trkpt lat="43.00675" lon="2.82489">
        <ele>85</ele>
        <time>2025-07-19T04:08:01Z</time>
      </trkpt>
      <trkpt lat="43.00662" lon="2.82496">
        <ele>84.8</ele>
        <time>2025-07-19T04:08:03Z</time>
      </trkpt>
      <trkpt lat="43.00633" lon="2.82525">
        <ele>84.8</ele>
        <time>2025-07-19T04:08:08Z</time>
      </trkpt>
      <trkpt lat="43.00599" lon="2.82566">
        <ele>84.8</ele>
        <time>2025-07-19T04:08:15Z</time>
      </trkpt>
      <trkpt lat="43.00558" lon="2.82614">
        <ele>85.6</ele>
        <time>2025-07-19T04:08:24Z</time>
      </trkpt>
      <trkpt lat="43.00518" lon="2.8266">
        <ele>86</ele>
        <time>2025-07-19T04:08:33Z</time>
      </trkpt>
      <trkpt lat="43.00514" lon="2.82665">
        <ele>86.2</ele>
        <time>2025-07-19T04:08:34Z</time>
      </trkpt>
      <trkpt lat="43.00487" lon="2.82695">
        <ele>86.4</ele>
        <time>2025-07-19T04:08:40Z</time>
      </trkpt>
      <trkpt lat="43.00476" lon="2.82703">
        <ele>86.6</ele>
        <time>2025-07-19T04:08:42Z</time>
      </trkpt>
      <trkpt lat="43.00465" lon="2.82709">
        <ele>86.6</ele>
        <time>2025-07-19T04:08:44Z</time>
      </trkpt>
      <trkpt lat="43.00447" lon="2.82715">
        <ele>86.8</ele>
        <time>2025-07-19T04:08:47Z</time>
      </trkpt>
      <trkpt lat="43.00441" lon="2.82715">
        <ele>86.8</ele>
        <time>2025-07-19T04:08:48Z</time>
      </trkpt>
      <trkpt lat="43.00392" lon="2.82718">
        <ele>86.6</ele>
        <time>2025-07-19T04:08:56Z</time>
      </trkpt>
      <trkpt lat="43.0034" lon="2.82722">
        <ele>86.6</ele>
        <time>2025-07-19T04:09:05Z</time>
      </trkpt>
      <trkpt lat="43.00297" lon="2.82726">
        <ele>86.8</ele>
        <time>2025-07-19T04:09:12Z</time>
      </trkpt>
      <trkpt lat="43.00261" lon="2.82718">
        <ele>86.6</ele>
        <time>2025-07-19T04:09:18Z</time>
      </trkpt>
      <trkpt lat="43.00256" lon="2.82714">
        <ele>86.6</ele>
        <time>2025-07-19T04:09:19Z</time>
      </trkpt>
      <trkpt lat="43.00227" lon="2.82696">
        <ele>86.6</ele>
        <time>2025-07-19T04:09:24Z</time>
      </trkpt>
      <trkpt lat="43.00174" lon="2.82663">
        <ele>86.8</ele>
        <time>2025-07-19T04:09:33Z</time>
      </trkpt>
      <trkpt lat="43.00161" lon="2.82657">
        <ele>86.6</ele>
        <time>2025-07-19T04:09:35Z</time>
      </trkpt>
      <trkpt lat="43.00117" lon="2.82638">
        <ele>86.8</ele>
        <time>2025-07-19T04:09:42Z</time>
      </trkpt>
      <trkpt lat="43.00075" lon="2.82621">
        <ele>86.2</ele>
        <time>2025-07-19T04:09:49Z</time>
      </trkpt>
      <trkpt lat="43.00022" lon="2.82599">
        <ele>86.2</ele>
        <time>2025-07-19T04:09:58Z</time>
      </trkpt>
      <trkpt lat="42.99967" lon="2.82577">
        <ele>86</ele>
        <time>2025-07-19T04:10:07Z</time>
      </trkpt>
      <trkpt lat="42.99961" lon="2.82575">
        <ele>86</ele>
        <time>2025-07-19T04:10:08Z</time>
      </trkpt>
      <trkpt lat="42.99927" lon="2.82561">
        <ele>85.6</ele>
        <time>2025-07-19T04:10:14Z</time>
      </trkpt>
      <trkpt lat="42.99922" lon="2.82558">
        <ele>85.6</ele>
        <time>2025-07-19T04:10:15Z</time>
      </trkpt>
      <trkpt lat="42.99906" lon="2.82549">
        <ele>85.4</ele>
        <time>2025-07-19T04:10:18Z</time>
      </trkpt>
      <trkpt lat="42.99894" lon="2.82549">
        <ele>85.2</ele>
        <time>2025-07-19T04:10:20Z</time>
      </trkpt>
      <trkpt lat="42.99888" lon="2.82551">
        <ele>85.2</ele>
        <time>2025-07-19T04:10:21Z</time>
      </trkpt>
      <trkpt lat="42.99851" lon="2.82566">
        <ele>84.8</ele>
        <time>2025-07-19T04:10:28Z</time>
      </trkpt>
      <trkpt lat="42.99818" lon="2.82582">
        <ele>85.4</ele>
        <time>2025-07-19T04:10:35Z</time>
      </trkpt>
      <trkpt lat="42.9978" lon="2.82599">
        <ele>86</ele>
        <time>2025-07-19T04:10:43Z</time>
      </trkpt>
      <trkpt lat="42.99743" lon="2.82615">
        <ele>86.6</ele>
        <time>2025-07-19T04:10:51Z</time>
      </trkpt>
      <trkpt lat="42.99739" lon="2.82617">
        <ele>86.8</ele>
        <time>2025-07-19T04:10:52Z</time>
      </trkpt>
      <trkpt lat="42.99696" lon="2.82635">
        <ele>87.6</ele>
        <time>2025-07-19T04:11:01Z</time>
      </trkpt>
      <trkpt lat="42.99692" lon="2.82636">
        <ele>87.8</ele>
        <time>2025-07-19T04:11:02Z</time>
      </trkpt>
      <trkpt lat="42.9966" lon="2.82649">
        <ele>88.8</ele>
        <time>2025-07-19T04:11:09Z</time>
      </trkpt>
      <trkpt lat="42.99656" lon="2.82652">
        <ele>88.8</ele>
        <time>2025-07-19T04:11:10Z</time>
      </trkpt>
      <trkpt lat="42.99609" lon="2.82681">
        <ele>89.4</ele>
        <time>2025-07-19T04:11:20Z</time>
      </trkpt>
      <trkpt lat="42.99572" lon="2.82709">
        <ele>89.6</ele>
        <time>2025-07-19T04:11:28Z</time>
      </trkpt>
      <trkpt lat="42.99546" lon="2.82721">
        <ele>89.8</ele>
        <time>2025-07-19T04:11:33Z</time>
      </trkpt>
      <trkpt lat="42.9954" lon="2.82723">
        <ele>89.8</ele>
        <time>2025-07-19T04:11:34Z</time>
      </trkpt>
      <trkpt lat="42.99514" lon="2.82722">
        <ele>90.2</ele>
        <time>2025-07-19T04:11:39Z</time>
      </trkpt>
      <trkpt lat="42.99509" lon="2.8272">
        <ele>90.2</ele>
        <time>2025-07-19T04:11:40Z</time>
      </trkpt>
      <trkpt lat="42.99464" lon="2.82702">
        <ele>90.6</ele>
        <time>2025-07-19T04:11:48Z</time>
      </trkpt>
      <trkpt lat="42.99412" lon="2.82683">
        <ele>90</ele>
        <time>2025-07-19T04:11:57Z</time>
      </trkpt>
      <trkpt lat="42.99406" lon="2.82681">
        <ele>90</ele>
        <time>2025-07-19T04:11:58Z</time>
      </trkpt>
      <trkpt lat="42.99353" lon="2.82662">
        <ele>90.2</ele>
        <time>2025-07-19T04:12:07Z</time>
      </trkpt>
      <trkpt lat="42.99307" lon="2.82651">
        <ele>90.6</ele>
        <time>2025-07-19T04:12:15Z</time>
      </trkpt>
      <trkpt lat="42.99284" lon="2.82649">
        <ele>91</ele>
        <time>2025-07-19T04:12:19Z</time>
      </trkpt>
      <trkpt lat="42.99261" lon="2.82651">
        <ele>91.4</ele>
        <time>2025-07-19T04:12:23Z</time>
      </trkpt>
      <trkpt lat="42.99224" lon="2.82666">
        <ele>91</ele>
        <time>2025-07-19T04:12:29Z</time>
      </trkpt>
      <trkpt lat="42.99171" lon="2.82694">
        <ele>90.6</ele>
        <time>2025-07-19T04:12:38Z</time>
      </trkpt>
      <trkpt lat="42.99147" lon="2.82706">
        <ele>90.6</ele>
        <time>2025-07-19T04:12:42Z</time>
      </trkpt>
      <trkpt lat="42.99095" lon="2.82734">
        <ele>91</ele>
        <time>2025-07-19T04:12:51Z</time>
      </trkpt>
      <trkpt lat="42.99072" lon="2.82746">
        <ele>91.6</ele>
        <time>2025-07-19T04:12:55Z</time>
      </trkpt>
      <trkpt lat="42.99067" lon="2.82749">
        <ele>91.8</ele>
        <time>2025-07-19T04:12:56Z</time>
      </trkpt>
      <trkpt lat="42.99015" lon="2.82771">
        <ele>92.4</ele>
        <time>2025-07-19T04:13:05Z</time>
      </trkpt>
      <trkpt lat="42.99004" lon="2.8277">
        <ele>92.4</ele>
        <time>2025-07-19T04:13:07Z</time>
      </trkpt>
      <trkpt lat="42.98988" lon="2.82765">
        <ele>92.6</ele>
        <time>2025-07-19T04:13:10Z</time>
      </trkpt>
      <trkpt lat="42.98952" lon="2.82748">
        <ele>93.6</ele>
        <time>2025-07-19T04:13:17Z</time>
      </trkpt>
      <trkpt lat="42.98946" lon="2.82746">
        <ele>93.6</ele>
        <time>2025-07-19T04:13:18Z</time>
      </trkpt>
      <trkpt lat="42.98941" lon="2.82745">
        <ele>93.8</ele>
        <time>2025-07-19T04:13:19Z</time>
      </trkpt>
      <trkpt lat="42.98929" lon="2.82745">
        <ele>94</ele>
        <time>2025-07-19T04:13:21Z</time>
      </trkpt>
      <trkpt lat="42.98918" lon="2.82747">
        <ele>94.4</ele>
        <time>2025-07-19T04:13:23Z</time>
      </trkpt>
      <trkpt lat="42.98912" lon="2.82748">
        <ele>94.6</ele>
        <time>2025-07-19T04:13:24Z</time>
      </trkpt>
      <trkpt lat="42.9886" lon="2.82759">
        <ele>95</ele>
        <time>2025-07-19T04:13:33Z</time>
      </trkpt>
      <trkpt lat="42.98824" lon="2.82767">
        <ele>95.2</ele>
        <time>2025-07-19T04:13:39Z</time>
      </trkpt>
      <trkpt lat="42.98813" lon="2.82772">
        <ele>95.4</ele>
        <time>2025-07-19T04:13:41Z</time>
      </trkpt>
      <trkpt lat="42.98803" lon="2.8278">
        <ele>95.4</ele>
        <time>2025-07-19T04:13:43Z</time>
      </trkpt>
      <trkpt lat="42.98794" lon="2.82793">
        <ele>95.6</ele>
        <time>2025-07-19T04:13:45Z</time>
      </trkpt>
      <trkpt lat="42.98787" lon="2.82808">
        <ele>95.6</ele>
        <time>2025-07-19T04:13:47Z</time>
      </trkpt>
      <trkpt lat="42.9878" lon="2.82832">
        <ele>95.6</ele>
        <time>2025-07-19T04:13:50Z</time>
      </trkpt>
      <trkpt lat="42.98775" lon="2.82882">
        <ele>95.6</ele>
        <time>2025-07-19T04:13:56Z</time>
      </trkpt>
      <trkpt lat="42.98778" lon="2.82953">
        <ele>96.2</ele>
        <time>2025-07-19T04:14:05Z</time>
      </trkpt>
      <trkpt lat="42.98777" lon="2.82969">
        <ele>96.6</ele>
        <time>2025-07-19T04:14:07Z</time>
      </trkpt>
      <trkpt lat="42.98772" lon="2.83009">
        <ele>96.8</ele>
        <time>2025-07-19T04:14:12Z</time>
      </trkpt>
      <trkpt lat="42.98754" lon="2.83086">
        <ele>97.2</ele>
        <time>2025-07-19T04:14:22Z</time>
      </trkpt>
      <trkpt lat="42.9874" lon="2.83148">
        <ele>97.6</ele>
        <time>2025-07-19T04:14:30Z</time>
      </trkpt>
      <trkpt lat="42.98739" lon="2.83156">
        <ele>97.6</ele>
        <time>2025-07-19T04:14:31Z</time>
      </trkpt>
      <trkpt lat="42.9873" lon="2.83185">
        <ele>97.8</ele>
        <time>2025-07-19T04:14:35Z</time>
      </trkpt>
      <trkpt lat="42.9872" lon="2.83206">
        <ele>97.8</ele>
        <time>2025-07-19T04:14:38Z</time>
      </trkpt>
      <trkpt lat="42.98686" lon="2.83266">
        <ele>98</ele>
        <time>2025-07-19T04:14:47Z</time>
      </trkpt>
      <trkpt lat="42.98677" lon="2.83277">
        <ele>98.2</ele>
        <time>2025-07-19T04:14:49Z</time>
      </trkpt>
      <trkpt lat="42.98661" lon="2.83288">
        <ele>98.4</ele>
        <time>2025-07-19T04:14:52Z</time>
      </trkpt>
      <trkpt lat="42.98626" lon="2.83297">
        <ele>98.6</ele>
        <time>2025-07-19T04:14:58Z</time>
      </trkpt>
      <trkpt lat="42.98572" lon="2.83306">
        <ele>99.2</ele>
        <time>2025-07-19T04:15:07Z</time>
      </trkpt>
      <trkpt lat="42.9856" lon="2.83308">
        <ele>99.2</ele>
        <time>2025-07-19T04:15:09Z</time>
      </trkpt>
      <trkpt lat="42.98512" lon="2.83324">
        <ele>99.2</ele>
        <time>2025-07-19T04:15:17Z</time>
      </trkpt>
      <trkpt lat="42.98494" lon="2.83331">
        <ele>99.4</ele>
        <time>2025-07-19T04:15:20Z</time>
      </trkpt>
      <trkpt lat="42.98458" lon="2.83347">
        <ele>99.2</ele>
        <time>2025-07-19T04:15:26Z</time>
      </trkpt>
      <trkpt lat="42.98432" lon="2.83372">
        <ele>99.2</ele>
        <time>2025-07-19T04:15:31Z</time>
      </trkpt>
      <trkpt lat="42.98429" lon="2.83377">
        <ele>99.2</ele>
        <time>2025-07-19T04:15:32Z</time>
      </trkpt>
      <trkpt lat="42.98406" lon="2.83419">
        <ele>99.6</ele>
        <time>2025-07-19T04:15:38Z</time>
      </trkpt>
      <trkpt lat="42.98394" lon="2.8343">
        <ele>99.4</ele>
        <time>2025-07-19T04:15:40Z</time>
      </trkpt>
      <trkpt lat="42.98388" lon="2.83432">
        <ele>99.4</ele>
        <time>2025-07-19T04:15:41Z</time>
      </trkpt>
      <trkpt lat="42.98382" lon="2.83432">
        <ele>99.2</ele>
        <time>2025-07-19T04:15:42Z</time>
      </trkpt>
      <trkpt lat="42.98352" lon="2.83432">
        <ele>99.4</ele>
        <time>2025-07-19T04:15:47Z</time>
      </trkpt>
      <trkpt lat="42.98323" lon="2.83439">
        <ele>99.8</ele>
        <time>2025-07-19T04:15:52Z</time>
      </trkpt>
      <trkpt lat="42.9829" lon="2.83461">
        <ele>100</ele>
        <time>2025-07-19T04:15:58Z</time>
      </trkpt>
      <trkpt lat="42.98249" lon="2.83489">
        <ele>99.8</ele>
        <time>2025-07-19T04:16:05Z</time>
      </trkpt>
      <trkpt lat="42.98216" lon="2.83495">
        <ele>99.8</ele>
        <time>2025-07-19T04:16:10Z</time>
      </trkpt>
      <trkpt lat="42.98209" lon="2.83494">
        <ele>99.8</ele>
        <time>2025-07-19T04:16:11Z</time>
      </trkpt>
      <trkpt lat="42.98184" lon="2.83488">
        <ele>100</ele>
        <time>2025-07-19T04:16:15Z</time>
      </trkpt>
      <trkpt lat="42.98148" lon="2.83472">
        <ele>100.2</ele>
        <time>2025-07-19T04:16:21Z</time>
      </trkpt>
      <trkpt lat="42.98135" lon="2.83467">
        <ele>100.2</ele>
        <time>2025-07-19T04:16:23Z</time>
      </trkpt>
      <trkpt lat="42.98079" lon="2.83445">
        <ele>99.8</ele>
        <time>2025-07-19T04:16:32Z</time>
      </trkpt>
      <trkpt lat="42.98073" lon="2.83442">
        <ele>99.8</ele>
        <time>2025-07-19T04:16:33Z</time>
      </trkpt>
      <trkpt lat="42.98027" lon="2.83425">
        <ele>100.4</ele>
        <time>2025-07-19T04:16:41Z</time>
      </trkpt>
      <trkpt lat="42.97982" lon="2.83406">
        <ele>101</ele>
        <time>2025-07-19T04:16:49Z</time>
      </trkpt>
      <trkpt lat="42.97933" lon="2.83386">
        <ele>102</ele>
        <time>2025-07-19T04:16:58Z</time>
      </trkpt>
      <trkpt lat="42.97916" lon="2.8338">
        <ele>102.2</ele>
        <time>2025-07-19T04:17:01Z</time>
      </trkpt>
      <trkpt lat="42.97888" lon="2.83371">
        <ele>102.6</ele>
        <time>2025-07-19T04:17:06Z</time>
      </trkpt>
      <trkpt lat="42.97869" lon="2.83371">
        <ele>102.6</ele>
        <time>2025-07-19T04:17:09Z</time>
      </trkpt>
      <trkpt lat="42.97859" lon="2.83374">
        <ele>102.6</ele>
        <time>2025-07-19T04:17:11Z</time>
      </trkpt>
      <trkpt lat="42.97848" lon="2.8338">
        <ele>102.6</ele>
        <time>2025-07-19T04:17:13Z</time>
      </trkpt>
      <trkpt lat="42.97832" lon="2.83394">
        <ele>102.6</ele>
        <time>2025-07-19T04:17:16Z</time>
      </trkpt>
      <trkpt lat="42.97827" lon="2.83401">
        <ele>102.8</ele>
        <time>2025-07-19T04:17:17Z</time>
      </trkpt>
      <trkpt lat="42.97806" lon="2.8343">
        <ele>103.2</ele>
        <time>2025-07-19T04:17:22Z</time>
      </trkpt>
      <trkpt lat="42.97773" lon="2.83477">
        <ele>103.8</ele>
        <time>2025-07-19T04:17:30Z</time>
      </trkpt>
      <trkpt lat="42.97755" lon="2.83494">
        <ele>104.4</ele>
        <time>2025-07-19T04:17:34Z</time>
      </trkpt>
      <trkpt lat="42.97745" lon="2.83504">
        <ele>104.8</ele>
        <time>2025-07-19T04:17:36Z</time>
      </trkpt>
      <trkpt lat="42.97733" lon="2.83517">
        <ele>105.6</ele>
        <time>2025-07-19T04:17:39Z</time>
      </trkpt>
      <trkpt lat="42.97714" lon="2.83541">
        <ele>106.2</ele>
        <time>2025-07-19T04:17:44Z</time>
      </trkpt>
      <trkpt lat="42.97688" lon="2.83573">
        <ele>106.6</ele>
        <time>2025-07-19T04:17:50Z</time>
      </trkpt>
      <trkpt lat="42.97685" lon="2.83577">
        <ele>106.8</ele>
        <time>2025-07-19T04:17:51Z</time>
      </trkpt>
      <trkpt lat="42.97657" lon="2.83617">
        <ele>107.6</ele>
        <time>2025-07-19T04:17:58Z</time>
      </trkpt>
      <trkpt lat="42.97648" lon="2.8363">
        <ele>107.8</ele>
        <time>2025-07-19T04:18:00Z</time>
      </trkpt>
      <trkpt lat="42.97615" lon="2.83674">
        <ele>108.2</ele>
        <time>2025-07-19T04:18:08Z</time>
      </trkpt>
      <trkpt lat="42.97572" lon="2.8372">
        <ele>108.6</ele>
        <time>2025-07-19T04:18:17Z</time>
      </trkpt>
      <trkpt lat="42.97562" lon="2.8373">
        <ele>108.8</ele>
        <time>2025-07-19T04:18:19Z</time>
      </trkpt>
      <trkpt lat="42.97537" lon="2.83754">
        <ele>109.6</ele>
        <time>2025-07-19T04:18:24Z</time>
      </trkpt>
      <trkpt lat="42.97503" lon="2.8379">
        <ele>109.4</ele>
        <time>2025-07-19T04:18:31Z</time>
      </trkpt>
      <trkpt lat="42.97469" lon="2.83823">
        <ele>109.8</ele>
        <time>2025-07-19T04:18:38Z</time>
      </trkpt>
      <trkpt lat="42.97464" lon="2.83828">
        <ele>109.8</ele>
        <time>2025-07-19T04:18:39Z</time>
      </trkpt>
      <trkpt lat="42.97436" lon="2.83858">
        <ele>110.2</ele>
        <time>2025-07-19T04:18:45Z</time>
      </trkpt>
      <trkpt lat="42.97428" lon="2.8387">
        <ele>110</ele>
        <time>2025-07-19T04:18:47Z</time>
      </trkpt>
      <trkpt lat="42.97413" lon="2.83895">
        <ele>110.2</ele>
        <time>2025-07-19T04:18:51Z</time>
      </trkpt>
      <trkpt lat="42.97402" lon="2.83914">
        <ele>110.6</ele>
        <time>2025-07-19T04:18:54Z</time>
      </trkpt>
      <trkpt lat="42.97386" lon="2.83937">
        <ele>111</ele>
        <time>2025-07-19T04:18:58Z</time>
      </trkpt>
      <trkpt lat="42.97381" lon="2.83941">
        <ele>111</ele>
        <time>2025-07-19T04:18:59Z</time>
      </trkpt>
      <trkpt lat="42.97362" lon="2.83956">
        <ele>111.4</ele>
        <time>2025-07-19T04:19:03Z</time>
      </trkpt>
      <trkpt lat="42.97351" lon="2.83963">
        <ele>111.6</ele>
        <time>2025-07-19T04:19:05Z</time>
      </trkpt>
      <trkpt lat="42.97321" lon="2.83981">
        <ele>112.2</ele>
        <time>2025-07-19T04:19:10Z</time>
      </trkpt>
      <trkpt lat="42.97293" lon="2.83998">
        <ele>112.8</ele>
        <time>2025-07-19T04:19:15Z</time>
      </trkpt>
      <trkpt lat="42.97259" lon="2.84019">
        <ele>112.8</ele>
        <time>2025-07-19T04:19:21Z</time>
      </trkpt>
      <trkpt lat="42.97207" lon="2.84052">
        <ele>113.2</ele>
        <time>2025-07-19T04:19:30Z</time>
      </trkpt>
      <trkpt lat="42.97166" lon="2.84075">
        <ele>113.8</ele>
        <time>2025-07-19T04:19:37Z</time>
      </trkpt>
      <trkpt lat="42.97114" lon="2.84094">
        <ele>114.2</ele>
        <time>2025-07-19T04:19:46Z</time>
      </trkpt>
      <trkpt lat="42.97055" lon="2.84114">
        <ele>114.6</ele>
        <time>2025-07-19T04:19:56Z</time>
      </trkpt>
      <trkpt lat="42.97049" lon="2.84115">
        <ele>114.6</ele>
        <time>2025-07-19T04:19:57Z</time>
      </trkpt>
      <trkpt lat="42.97044" lon="2.84116">
        <ele>114.8</ele>
        <time>2025-07-19T04:19:58Z</time>
      </trkpt>
      <trkpt lat="42.97011" lon="2.84131">
        <ele>115.4</ele>
        <time>2025-07-19T04:20:04Z</time>
      </trkpt>
      <trkpt lat="42.9698" lon="2.84152">
        <ele>115.8</ele>
        <time>2025-07-19T04:20:10Z</time>
      </trkpt>
      <trkpt lat="42.96961" lon="2.84166">
        <ele>116</ele>
        <time>2025-07-19T04:20:14Z</time>
      </trkpt>
      <trkpt lat="42.96919" lon="2.84194">
        <ele>116.4</ele>
        <time>2025-07-19T04:20:22Z</time>
      </trkpt>
      <trkpt lat="42.96876" lon="2.84215">
        <ele>116.4</ele>
        <time>2025-07-19T04:20:30Z</time>
      </trkpt>
      <trkpt lat="42.96834" lon="2.84237">
        <ele>116.6</ele>
        <time>2025-07-19T04:20:38Z</time>
      </trkpt>
      <trkpt lat="42.96828" lon="2.8424">
        <ele>116.8</ele>
        <time>2025-07-19T04:20:39Z</time>
      </trkpt>
      <trkpt lat="42.96786" lon="2.84261">
        <ele>117.6</ele>
        <time>2025-07-19T04:20:47Z</time>
      </trkpt>
      <trkpt lat="42.96782" lon="2.84263">
        <ele>117.8</ele>
        <time>2025-07-19T04:20:48Z</time>
      </trkpt>
      <trkpt lat="42.96739" lon="2.84283">
        <ele>118.2</ele>
        <time>2025-07-19T04:20:56Z</time>
      </trkpt>
      <trkpt lat="42.96734" lon="2.84284">
        <ele>118.4</ele>
        <time>2025-07-19T04:20:57Z</time>
      </trkpt>
      <trkpt lat="42.96698" lon="2.84285">
        <ele>118.4</ele>
        <time>2025-07-19T04:21:04Z</time>
      </trkpt>
      <trkpt lat="42.96652" lon="2.84281">
        <ele>118.4</ele>
        <time>2025-07-19T04:21:12Z</time>
      </trkpt>
      <trkpt lat="42.96641" lon="2.8428">
        <ele>118.8</ele>
        <time>2025-07-19T04:21:14Z</time>
      </trkpt>
      <trkpt lat="42.96591" lon="2.84276">
        <ele>119.4</ele>
        <time>2025-07-19T04:21:23Z</time>
      </trkpt>
      <trkpt lat="42.96569" lon="2.84274">
        <ele>119.6</ele>
        <time>2025-07-19T04:21:27Z</time>
      </trkpt>
      <trkpt lat="42.96548" lon="2.84275">
        <ele>120.4</ele>
        <time>2025-07-19T04:21:31Z</time>
      </trkpt>
      <trkpt lat="42.96537" lon="2.84277">
        <ele>120.6</ele>
        <time>2025-07-19T04:21:33Z</time>
      </trkpt>
      <trkpt lat="42.96508" lon="2.84284">
        <ele>121</ele>
        <time>2025-07-19T04:21:38Z</time>
      </trkpt>
      <trkpt lat="42.96468" lon="2.84287">
        <ele>121.4</ele>
        <time>2025-07-19T04:21:45Z</time>
      </trkpt>
      <trkpt lat="42.96455" lon="2.84286">
        <ele>121.6</ele>
        <time>2025-07-19T04:21:47Z</time>
      </trkpt>
      <trkpt lat="42.96431" lon="2.84276">
        <ele>121.8</ele>
        <time>2025-07-19T04:21:51Z</time>
      </trkpt>
      <trkpt lat="42.96382" lon="2.84251">
        <ele>122.4</ele>
        <time>2025-07-19T04:22:00Z</time>
      </trkpt>
      <trkpt lat="42.96372" lon="2.84246">
        <ele>122.6</ele>
        <time>2025-07-19T04:22:02Z</time>
      </trkpt>
      <trkpt lat="42.96341" lon="2.84229">
        <ele>122.8</ele>
        <time>2025-07-19T04:22:08Z</time>
      </trkpt>
      <trkpt lat="42.9629" lon="2.842">
        <ele>123.8</ele>
        <time>2025-07-19T04:22:18Z</time>
      </trkpt>
      <trkpt lat="42.96248" lon="2.8418">
        <ele>124.4</ele>
        <time>2025-07-19T04:22:26Z</time>
      </trkpt>
      <trkpt lat="42.96227" lon="2.84169">
        <ele>124.8</ele>
        <time>2025-07-19T04:22:30Z</time>
      </trkpt>
      <trkpt lat="42.96194" lon="2.84152">
        <ele>125.2</ele>
        <time>2025-07-19T04:22:36Z</time>
      </trkpt>
      <trkpt lat="42.96154" lon="2.84131">
        <ele>125.8</ele>
        <time>2025-07-19T04:22:44Z</time>
      </trkpt>
      <trkpt lat="42.96144" lon="2.84127">
        <ele>126</ele>
        <time>2025-07-19T04:22:46Z</time>
      </trkpt>
      <trkpt lat="42.96104" lon="2.84107">
        <ele>126.6</ele>
        <time>2025-07-19T04:22:54Z</time>
      </trkpt>
      <trkpt lat="42.96099" lon="2.84105">
        <ele>126.6</ele>
        <time>2025-07-19T04:22:55Z</time>
      </trkpt>
      <trkpt lat="42.96085" lon="2.84096">
        <ele>126.8</ele>
        <time>2025-07-19T04:22:58Z</time>
      </trkpt>
      <trkpt lat="42.96074" lon="2.84091">
        <ele>126.8</ele>
        <time>2025-07-19T04:23:00Z</time>
      </trkpt>
      <trkpt lat="42.96069" lon="2.84089">
        <ele>126.8</ele>
        <time>2025-07-19T04:23:01Z</time>
      </trkpt>
      <trkpt lat="42.96024" lon="2.8407">
        <ele>127.6</ele>
        <time>2025-07-19T04:23:10Z</time>
      </trkpt>
      <trkpt lat="42.96018" lon="2.84068">
        <ele>127.6</ele>
        <time>2025-07-19T04:23:11Z</time>
      </trkpt>
      <trkpt lat="42.96008" lon="2.84069">
        <ele>127.8</ele>
        <time>2025-07-19T04:23:13Z</time>
      </trkpt>
      <trkpt lat="42.96003" lon="2.8407">
        <ele>127.8</ele>
        <time>2025-07-19T04:23:14Z</time>
      </trkpt>
      <trkpt lat="42.95999" lon="2.84072">
        <ele>127.8</ele>
        <time>2025-07-19T04:23:15Z</time>
      </trkpt>
      <trkpt lat="42.95989" lon="2.84078">
        <ele>128.2</ele>
        <time>2025-07-19T04:23:18Z</time>
      </trkpt>
      <trkpt lat="42.95972" lon="2.84076">
        <ele>128.4</ele>
        <time>2025-07-19T04:23:23Z</time>
      </trkpt>
      <trkpt lat="42.95948" lon="2.84063">
        <ele>128.6</ele>
        <time>2025-07-19T04:23:29Z</time>
      </trkpt>
      <trkpt lat="42.95916" lon="2.84047">
        <ele>128.6</ele>
        <time>2025-07-19T04:23:37Z</time>
      </trkpt>
      <trkpt lat="42.95889" lon="2.84034">
        <ele>128.6</ele>
        <time>2025-07-19T04:23:43Z</time>
      </trkpt>
      <trkpt lat="42.95875" lon="2.84028">
        <ele>128.6</ele>
        <time>2025-07-19T04:23:46Z</time>
      </trkpt>
      <trkpt lat="42.95843" lon="2.8401">
        <ele>128.4</ele>
        <time>2025-07-19T04:23:53Z</time>
      </trkpt>
      <trkpt lat="42.95838" lon="2.84009">
        <ele>128.4</ele>
        <time>2025-07-19T04:23:54Z</time>
      </trkpt>
      <trkpt lat="42.95818" lon="2.83997">
        <ele>128.4</ele>
        <time>2025-07-19T04:23:59Z</time>
      </trkpt>
      <trkpt lat="42.9581" lon="2.83992">
        <ele>128.4</ele>
        <time>2025-07-19T04:24:01Z</time>
      </trkpt>
      <trkpt lat="42.95798" lon="2.83985">
        <ele>128.4</ele>
        <time>2025-07-19T04:24:04Z</time>
      </trkpt>
      <trkpt lat="42.95777" lon="2.83969">
        <ele>128.6</ele>
        <time>2025-07-19T04:24:11Z</time>
      </trkpt>
      <trkpt lat="42.95773" lon="2.83972">
        <ele>128.6</ele>
        <time>2025-07-19T04:24:13Z</time>
      </trkpt>
      <trkpt lat="42.9577" lon="2.83979">
        <ele>128.6</ele>
        <time>2025-07-19T04:24:15Z</time>
      </trkpt>
      <trkpt lat="42.95756" lon="2.84002">
        <ele>128.6</ele>
        <time>2025-07-19T04:24:20Z</time>
      </trkpt>
      <trkpt lat="42.95743" lon="2.84021">
        <ele>128.8</ele>
        <time>2025-07-19T04:24:24Z</time>
      </trkpt>
      <trkpt lat="42.95739" lon="2.84025">
        <ele>128.8</ele>
        <time>2025-07-19T04:24:25Z</time>
      </trkpt>
      <trkpt lat="42.9573" lon="2.84034">
        <ele>129</ele>
        <time>2025-07-19T04:24:28Z</time>
      </trkpt>
      <trkpt lat="42.95722" lon="2.8404">
        <ele>129.6</ele>
        <time>2025-07-19T04:24:31Z</time>
      </trkpt>
      <trkpt lat="42.95712" lon="2.84052">
        <ele>130.2</ele>
        <time>2025-07-19T04:24:35Z</time>
      </trkpt>
      <trkpt lat="42.95702" lon="2.84059">
        <ele>130.6</ele>
        <time>2025-07-19T04:24:38Z</time>
      </trkpt>
      <trkpt lat="42.95692" lon="2.84063">
        <ele>131</ele>
        <time>2025-07-19T04:24:41Z</time>
      </trkpt>
      <trkpt lat="42.9569" lon="2.84065">
        <ele>131.2</ele>
        <time>2025-07-19T04:24:42Z</time>
      </trkpt>
      <trkpt lat="42.95687" lon="2.84067">
        <ele>131.2</ele>
        <time>2025-07-19T04:24:43Z</time>
      </trkpt>
      <trkpt lat="42.95673" lon="2.84077">
        <ele>131.8</ele>
        <time>2025-07-19T04:24:49Z</time>
      </trkpt>
      <trkpt lat="42.95667" lon="2.8408">
        <ele>132</ele>
        <time>2025-07-19T04:24:51Z</time>
      </trkpt>
      <trkpt lat="42.95653" lon="2.84086">
        <ele>132.4</ele>
        <time>2025-07-19T04:24:55Z</time>
      </trkpt>
      <trkpt lat="42.95622" lon="2.84096">
        <ele>132</ele>
        <time>2025-07-19T04:25:03Z</time>
      </trkpt>
      <trkpt lat="42.95592" lon="2.841">
        <ele>131.8</ele>
        <time>2025-07-19T04:25:11Z</time>
      </trkpt>
      <trkpt lat="42.95569" lon="2.84102">
        <ele>132.4</ele>
        <time>2025-07-19T04:25:17Z</time>
      </trkpt>
      <trkpt lat="42.95546" lon="2.84102">
        <ele>133</ele>
        <time>2025-07-19T04:25:23Z</time>
      </trkpt>
      <trkpt lat="42.95543" lon="2.84102">
        <ele>133.2</ele>
        <time>2025-07-19T04:25:24Z</time>
      </trkpt>
      <trkpt lat="42.95509" lon="2.84109">
        <ele>134</ele>
        <time>2025-07-19T04:25:33Z</time>
      </trkpt>
      <trkpt lat="42.95506" lon="2.84112">
        <ele>134.2</ele>
        <time>2025-07-19T04:25:34Z</time>
      </trkpt>
      <trkpt lat="42.95497" lon="2.84127">
        <ele>134.6</ele>
        <time>2025-07-19T04:25:38Z</time>
      </trkpt>
      <trkpt lat="42.95499" lon="2.84145">
        <ele>134.8</ele>
        <time>2025-07-19T04:25:42Z</time>
      </trkpt>
      <trkpt lat="42.95508" lon="2.84165">
        <ele>135.4</ele>
        <time>2025-07-19T04:25:47Z</time>
      </trkpt>
      <trkpt lat="42.95516" lon="2.84202">
        <ele>136</ele>
        <time>2025-07-19T04:25:54Z</time>
      </trkpt>
      <trkpt lat="42.95512" lon="2.84235">
        <ele>136.2</ele>
        <time>2025-07-19T04:26:00Z</time>
      </trkpt>
      <trkpt lat="42.95509" lon="2.84245">
        <ele>136.4</ele>
        <time>2025-07-19T04:26:02Z</time>
      </trkpt>
      <trkpt lat="42.955" lon="2.84275">
        <ele>136.6</ele>
        <time>2025-07-19T04:26:08Z</time>
      </trkpt>
      <trkpt lat="42.95482" lon="2.84304">
        <ele>137.4</ele>
        <time>2025-07-19T04:26:15Z</time>
      </trkpt>
      <trkpt lat="42.95473" lon="2.84315">
        <ele>137.6</ele>
        <time>2025-07-19T04:26:18Z</time>
      </trkpt>
      <trkpt lat="42.95459" lon="2.84332">
        <ele>137.6</ele>
        <time>2025-07-19T04:26:22Z</time>
      </trkpt>
      <trkpt lat="42.95435" lon="2.8436">
        <ele>138</ele>
        <time>2025-07-19T04:26:29Z</time>
      </trkpt>
      <trkpt lat="42.95432" lon="2.84366">
        <ele>138</ele>
        <time>2025-07-19T04:26:30Z</time>
      </trkpt>
      <trkpt lat="42.95418" lon="2.84402">
        <ele>138.2</ele>
        <time>2025-07-19T04:26:37Z</time>
      </trkpt>
      <trkpt lat="42.95412" lon="2.84425">
        <ele>138.6</ele>
        <time>2025-07-19T04:26:41Z</time>
      </trkpt>
      <trkpt lat="42.95403" lon="2.84458">
        <ele>139</ele>
        <time>2025-07-19T04:26:47Z</time>
      </trkpt>
      <trkpt lat="42.95393" lon="2.84496">
        <ele>139.6</ele>
        <time>2025-07-19T04:26:54Z</time>
      </trkpt>
      <trkpt lat="42.95391" lon="2.84503">
        <ele>139.6</ele>
        <time>2025-07-19T04:26:55Z</time>
      </trkpt>
      <trkpt lat="42.9538" lon="2.84558">
        <ele>140.2</ele>
        <time>2025-07-19T04:27:05Z</time>
      </trkpt>
      <trkpt lat="42.95378" lon="2.84588">
        <ele>140.6</ele>
        <time>2025-07-19T04:27:10Z</time>
      </trkpt>
      <trkpt lat="42.95376" lon="2.8461">
        <ele>141</ele>
        <time>2025-07-19T04:27:14Z</time>
      </trkpt>
      <trkpt lat="42.9537" lon="2.84658">
        <ele>141.6</ele>
        <time>2025-07-19T04:27:22Z</time>
      </trkpt>
      <trkpt lat="42.95369" lon="2.84663">
        <ele>141.6</ele>
        <time>2025-07-19T04:27:23Z</time>
      </trkpt>
      <trkpt lat="42.95367" lon="2.84668">
        <ele>141.8</ele>
        <time>2025-07-19T04:27:24Z</time>
      </trkpt>
      <trkpt lat="42.95363" lon="2.84679">
        <ele>142</ele>
        <time>2025-07-19T04:27:26Z</time>
      </trkpt>
      <trkpt lat="42.95352" lon="2.84706">
        <ele>142.2</ele>
        <time>2025-07-19T04:27:31Z</time>
      </trkpt>
      <trkpt lat="42.95338" lon="2.84738">
        <ele>142.4</ele>
        <time>2025-07-19T04:27:37Z</time>
      </trkpt>
      <trkpt lat="42.95333" lon="2.84748">
        <ele>142.8</ele>
        <time>2025-07-19T04:27:39Z</time>
      </trkpt>
      <trkpt lat="42.95321" lon="2.84778">
        <ele>143.2</ele>
        <time>2025-07-19T04:27:45Z</time>
      </trkpt>
      <trkpt lat="42.95307" lon="2.84822">
        <ele>143.6</ele>
        <time>2025-07-19T04:27:53Z</time>
      </trkpt>
      <trkpt lat="42.95305" lon="2.84827">
        <ele>143.8</ele>
        <time>2025-07-19T04:27:54Z</time>
      </trkpt>
      <trkpt lat="42.95291" lon="2.84885">
        <ele>144.2</ele>
        <time>2025-07-19T04:28:04Z</time>
      </trkpt>
      <trkpt lat="42.95282" lon="2.84928">
        <ele>144.8</ele>
        <time>2025-07-19T04:28:11Z</time>
      </trkpt>
      <trkpt lat="42.95281" lon="2.84934">
        <ele>144.8</ele>
        <time>2025-07-19T04:28:12Z</time>
      </trkpt>
      <trkpt lat="42.95278" lon="2.84952">
        <ele>145</ele>
        <time>2025-07-19T04:28:15Z</time>
      </trkpt>
      <trkpt lat="42.95275" lon="2.8497">
        <ele>145</ele>
        <time>2025-07-19T04:28:18Z</time>
      </trkpt>
      <trkpt lat="42.95273" lon="2.84983">
        <ele>145</ele>
        <time>2025-07-19T04:28:20Z</time>
      </trkpt>
      <trkpt lat="42.95266" lon="2.85013">
        <ele>145.4</ele>
        <time>2025-07-19T04:28:25Z</time>
      </trkpt>
      <trkpt lat="42.9526" lon="2.85044">
        <ele>145.4</ele>
        <time>2025-07-19T04:28:30Z</time>
      </trkpt>
      <trkpt lat="42.95255" lon="2.85063">
        <ele>145.6</ele>
        <time>2025-07-19T04:28:33Z</time>
      </trkpt>
      <trkpt lat="42.95243" lon="2.85105">
        <ele>145.8</ele>
        <time>2025-07-19T04:28:40Z</time>
      </trkpt>
      <trkpt lat="42.9523" lon="2.8515">
        <ele>146.4</ele>
        <time>2025-07-19T04:28:47Z</time>
      </trkpt>
      <trkpt lat="42.95229" lon="2.85191">
        <ele>146.4</ele>
        <time>2025-07-19T04:28:53Z</time>
      </trkpt>
      <trkpt lat="42.95229" lon="2.8525">
        <ele>146.6</ele>
        <time>2025-07-19T04:29:02Z</time>
      </trkpt>
      <trkpt lat="42.95229" lon="2.85256">
        <ele>146.6</ele>
        <time>2025-07-19T04:29:03Z</time>
      </trkpt>
      <trkpt lat="42.9522" lon="2.85306">
        <ele>147</ele>
        <time>2025-07-19T04:29:11Z</time>
      </trkpt>
      <trkpt lat="42.95204" lon="2.85375">
        <ele>147.4</ele>
        <time>2025-07-19T04:29:22Z</time>
      </trkpt>
      <trkpt lat="42.95197" lon="2.85408">
        <ele>147.8</ele>
        <time>2025-07-19T04:29:27Z</time>
      </trkpt>
      <trkpt lat="42.95193" lon="2.85434">
        <ele>147.8</ele>
        <time>2025-07-19T04:29:31Z</time>
      </trkpt>
      <trkpt lat="42.95184" lon="2.8549">
        <ele>147.8</ele>
        <time>2025-07-19T04:29:39Z</time>
      </trkpt>
      <trkpt lat="42.9517" lon="2.85561">
        <ele>148.4</ele>
        <time>2025-07-19T04:29:50Z</time>
      </trkpt>
      <trkpt lat="42.95158" lon="2.85622">
        <ele>148.8</ele>
        <time>2025-07-19T04:30:00Z</time>
      </trkpt>
      <trkpt lat="42.95151" lon="2.85653">
        <ele>149.6</ele>
        <time>2025-07-19T04:30:05Z</time>
      </trkpt>
      <trkpt lat="42.95147" lon="2.85665">
        <ele>149.8</ele>
        <time>2025-07-19T04:30:07Z</time>
      </trkpt>
      <trkpt lat="42.95145" lon="2.8567">
        <ele>150</ele>
        <time>2025-07-19T04:30:08Z</time>
      </trkpt>
      <trkpt lat="42.95122" lon="2.8571">
        <ele>151</ele>
        <time>2025-07-19T04:30:16Z</time>
      </trkpt>
      <trkpt lat="42.95106" lon="2.85749">
        <ele>151.6</ele>
        <time>2025-07-19T04:30:23Z</time>
      </trkpt>
      <trkpt lat="42.95102" lon="2.85768">
        <ele>152</ele>
        <time>2025-07-19T04:30:26Z</time>
      </trkpt>
      <trkpt lat="42.951" lon="2.85791">
        <ele>152.4</ele>
        <time>2025-07-19T04:30:30Z</time>
      </trkpt>
      <trkpt lat="42.9509" lon="2.85826">
        <ele>153</ele>
        <time>2025-07-19T04:30:36Z</time>
      </trkpt>
      <trkpt lat="42.95088" lon="2.85831">
        <ele>153.2</ele>
        <time>2025-07-19T04:30:37Z</time>
      </trkpt>
      <trkpt lat="42.9507" lon="2.85858">
        <ele>153.6</ele>
        <time>2025-07-19T04:30:43Z</time>
      </trkpt>
      <trkpt lat="42.95048" lon="2.85886">
        <ele>154.4</ele>
        <time>2025-07-19T04:30:50Z</time>
      </trkpt>
      <trkpt lat="42.95041" lon="2.85894">
        <ele>154.6</ele>
        <time>2025-07-19T04:30:52Z</time>
      </trkpt>
      <trkpt lat="42.95016" lon="2.85926">
        <ele>155.4</ele>
        <time>2025-07-19T04:31:00Z</time>
      </trkpt>
      <trkpt lat="42.95003" lon="2.85944">
        <ele>155.8</ele>
        <time>2025-07-19T04:31:04Z</time>
      </trkpt>
      <trkpt lat="42.94977" lon="2.8599">
        <ele>156.4</ele>
        <time>2025-07-19T04:31:13Z</time>
      </trkpt>
      <trkpt lat="42.94974" lon="2.85995">
        <ele>156.6</ele>
        <time>2025-07-19T04:31:14Z</time>
      </trkpt>
      <trkpt lat="42.94958" lon="2.86025">
        <ele>157</ele>
        <time>2025-07-19T04:31:20Z</time>
      </trkpt>
      <trkpt lat="42.94953" lon="2.86044">
        <ele>157.4</ele>
        <time>2025-07-19T04:31:23Z</time>
      </trkpt>
      <trkpt lat="42.94949" lon="2.86062">
        <ele>157.4</ele>
        <time>2025-07-19T04:31:26Z</time>
      </trkpt>
      <trkpt lat="42.94949" lon="2.86068">
        <ele>157.6</ele>
        <time>2025-07-19T04:31:27Z</time>
      </trkpt>
      <trkpt lat="42.94946" lon="2.86106">
        <ele>158.2</ele>
        <time>2025-07-19T04:31:33Z</time>
      </trkpt>
      <trkpt lat="42.94945" lon="2.86133">
        <ele>158.6</ele>
        <time>2025-07-19T04:31:37Z</time>
      </trkpt>
      <trkpt lat="42.94943" lon="2.86176">
        <ele>158.6</ele>
        <time>2025-07-19T04:31:43Z</time>
      </trkpt>
      <trkpt lat="42.94938" lon="2.86242">
        <ele>158.6</ele>
        <time>2025-07-19T04:31:52Z</time>
      </trkpt>
      <trkpt lat="42.94928" lon="2.86299">
        <ele>158.2</ele>
        <time>2025-07-19T04:32:00Z</time>
      </trkpt>
      <trkpt lat="42.94924" lon="2.8632">
        <ele>158.4</ele>
        <time>2025-07-19T04:32:03Z</time>
      </trkpt>
      <trkpt lat="42.94923" lon="2.86334">
        <ele>158.4</ele>
        <time>2025-07-19T04:32:05Z</time>
      </trkpt>
      <trkpt lat="42.94927" lon="2.86361">
        <ele>158.8</ele>
        <time>2025-07-19T04:32:09Z</time>
      </trkpt>
      <trkpt lat="42.94929" lon="2.86372">
        <ele>159.2</ele>
        <time>2025-07-19T04:32:11Z</time>
      </trkpt>
      <trkpt lat="42.94932" lon="2.86389">
        <ele>159.8</ele>
        <time>2025-07-19T04:32:14Z</time>
      </trkpt>
      <trkpt lat="42.94933" lon="2.86394">
        <ele>160</ele>
        <time>2025-07-19T04:32:15Z</time>
      </trkpt>
      <trkpt lat="42.94932" lon="2.86405">
        <ele>160</ele>
        <time>2025-07-19T04:32:17Z</time>
      </trkpt>
      <trkpt lat="42.94925" lon="2.86439">
        <ele>160.8</ele>
        <time>2025-07-19T04:32:24Z</time>
      </trkpt>
      <trkpt lat="42.94924" lon="2.86443">
        <ele>160.8</ele>
        <time>2025-07-19T04:32:25Z</time>
      </trkpt>
      <trkpt lat="42.94917" lon="2.86461">
        <ele>162</ele>
        <time>2025-07-19T04:32:29Z</time>
      </trkpt>
      <trkpt lat="42.94914" lon="2.86475">
        <ele>162.4</ele>
        <time>2025-07-19T04:32:32Z</time>
      </trkpt>
      <trkpt lat="42.94908" lon="2.86493">
        <ele>163</ele>
        <time>2025-07-19T04:32:36Z</time>
      </trkpt>
      <trkpt lat="42.94902" lon="2.86514">
        <ele>164</ele>
        <time>2025-07-19T04:32:41Z</time>
      </trkpt>
      <trkpt lat="42.94899" lon="2.86523">
        <ele>164.2</ele>
        <time>2025-07-19T04:32:43Z</time>
      </trkpt>
      <trkpt lat="42.9489" lon="2.86553">
        <ele>165.4</ele>
        <time>2025-07-19T04:32:50Z</time>
      </trkpt>
      <trkpt lat="42.94878" lon="2.86594">
        <ele>166.2</ele>
        <time>2025-07-19T04:32:59Z</time>
      </trkpt>
      <trkpt lat="42.94876" lon="2.86598">
        <ele>166.6</ele>
        <time>2025-07-19T04:33:00Z</time>
      </trkpt>
      <trkpt lat="42.94857" lon="2.86627">
        <ele>167.6</ele>
        <time>2025-07-19T04:33:08Z</time>
      </trkpt>
      <trkpt lat="42.94855" lon="2.8663">
        <ele>167.6</ele>
        <time>2025-07-19T04:33:09Z</time>
      </trkpt>
      <trkpt lat="42.9484" lon="2.86642">
        <ele>168.6</ele>
        <time>2025-07-19T04:33:14Z</time>
      </trkpt>
      <trkpt lat="42.94835" lon="2.86646">
        <ele>168.8</ele>
        <time>2025-07-19T04:33:16Z</time>
      </trkpt>
      <trkpt lat="42.94815" lon="2.86662">
        <ele>169.8</ele>
        <time>2025-07-19T04:33:23Z</time>
      </trkpt>
      <trkpt lat="42.94812" lon="2.86664">
        <ele>170</ele>
        <time>2025-07-19T04:33:24Z</time>
      </trkpt>
      <trkpt lat="42.94794" lon="2.86679">
        <ele>171</ele>
        <time>2025-07-19T04:33:31Z</time>
      </trkpt>
      <trkpt lat="42.94779" lon="2.86701">
        <ele>171.8</ele>
        <time>2025-07-19T04:33:38Z</time>
      </trkpt>
      <trkpt lat="42.94778" lon="2.86705">
        <ele>172</ele>
        <time>2025-07-19T04:33:39Z</time>
      </trkpt>
      <trkpt lat="42.9477" lon="2.86728">
        <ele>172.8</ele>
        <time>2025-07-19T04:33:45Z</time>
      </trkpt>
      <trkpt lat="42.94768" lon="2.86735">
        <ele>173.2</ele>
        <time>2025-07-19T04:33:47Z</time>
      </trkpt>
      <trkpt lat="42.9476" lon="2.86758">
        <ele>173.8</ele>
        <time>2025-07-19T04:33:53Z</time>
      </trkpt>
      <trkpt lat="42.94759" lon="2.86762">
        <ele>174.2</ele>
        <time>2025-07-19T04:33:54Z</time>
      </trkpt>
      <trkpt lat="42.94751" lon="2.86784">
        <ele>174.6</ele>
        <time>2025-07-19T04:34:00Z</time>
      </trkpt>
      <trkpt lat="42.94747" lon="2.86796">
        <ele>175.2</ele>
        <time>2025-07-19T04:34:03Z</time>
      </trkpt>
      <trkpt lat="42.94738" lon="2.86819">
        <ele>176.2</ele>
        <time>2025-07-19T04:34:09Z</time>
      </trkpt>
      <trkpt lat="42.94736" lon="2.86822">
        <ele>176.4</ele>
        <time>2025-07-19T04:34:10Z</time>
      </trkpt>
      <trkpt lat="42.94724" lon="2.86846">
        <ele>177.2</ele>
        <time>2025-07-19T04:34:17Z</time>
      </trkpt>
      <trkpt lat="42.94709" lon="2.86877">
        <ele>178.2</ele>
        <time>2025-07-19T04:34:26Z</time>
      </trkpt>
      <trkpt lat="42.94697" lon="2.86898">
        <ele>179.6</ele>
        <time>2025-07-19T04:34:32Z</time>
      </trkpt>
      <trkpt lat="42.94695" lon="2.86901">
        <ele>179.6</ele>
        <time>2025-07-19T04:34:33Z</time>
      </trkpt>
      <trkpt lat="42.94684" lon="2.86915">
        <ele>180.6</ele>
        <time>2025-07-19T04:34:38Z</time>
      </trkpt>
      <trkpt lat="42.94675" lon="2.86927">
        <ele>181.2</ele>
        <time>2025-07-19T04:34:42Z</time>
      </trkpt>
      <trkpt lat="42.94668" lon="2.86935">
        <ele>181.6</ele>
        <time>2025-07-19T04:34:45Z</time>
      </trkpt>
      <trkpt lat="42.94655" lon="2.86946">
        <ele>181.8</ele>
        <time>2025-07-19T04:34:50Z</time>
      </trkpt>
      <trkpt lat="42.94644" lon="2.86955">
        <ele>182.4</ele>
        <time>2025-07-19T04:34:54Z</time>
      </trkpt>
      <trkpt lat="42.94629" lon="2.86966">
        <ele>183.2</ele>
        <time>2025-07-19T04:35:00Z</time>
      </trkpt>
      <trkpt lat="42.94623" lon="2.8697">
        <ele>183.6</ele>
        <time>2025-07-19T04:35:02Z</time>
      </trkpt>
      <trkpt lat="42.94605" lon="2.86983">
        <ele>184.6</ele>
        <time>2025-07-19T04:35:09Z</time>
      </trkpt>
      <trkpt lat="42.94602" lon="2.86985">
        <ele>184.8</ele>
        <time>2025-07-19T04:35:10Z</time>
      </trkpt>
      <trkpt lat="42.94583" lon="2.86999">
        <ele>185.4</ele>
        <time>2025-07-19T04:35:17Z</time>
      </trkpt>
      <trkpt lat="42.94579" lon="2.87003">
        <ele>185.8</ele>
        <time>2025-07-19T04:35:19Z</time>
      </trkpt>
      <trkpt lat="42.94571" lon="2.87009">
        <ele>186.2</ele>
        <time>2025-07-19T04:35:22Z</time>
      </trkpt>
      <trkpt lat="42.94553" lon="2.87026">
        <ele>186.6</ele>
        <time>2025-07-19T04:35:29Z</time>
      </trkpt>
      <trkpt lat="42.94549" lon="2.87031">
        <ele>187</ele>
        <time>2025-07-19T04:35:31Z</time>
      </trkpt>
      <trkpt lat="42.94538" lon="2.87045">
        <ele>187.8</ele>
        <time>2025-07-19T04:35:36Z</time>
      </trkpt>
      <trkpt lat="42.94529" lon="2.87058">
        <ele>188.4</ele>
        <time>2025-07-19T04:35:41Z</time>
      </trkpt>
      <trkpt lat="42.94525" lon="2.87064">
        <ele>188.8</ele>
        <time>2025-07-19T04:35:43Z</time>
      </trkpt>
      <trkpt lat="42.94511" lon="2.87091">
        <ele>190</ele>
        <time>2025-07-19T04:35:51Z</time>
      </trkpt>
      <trkpt lat="42.94509" lon="2.87095">
        <ele>190.2</ele>
        <time>2025-07-19T04:35:52Z</time>
      </trkpt>
      <trkpt lat="42.945" lon="2.87111">
        <ele>191</ele>
        <time>2025-07-19T04:35:57Z</time>
      </trkpt>
      <trkpt lat="42.94496" lon="2.87118">
        <ele>191.4</ele>
        <time>2025-07-19T04:35:59Z</time>
      </trkpt>
      <trkpt lat="42.94484" lon="2.87141">
        <ele>192</ele>
        <time>2025-07-19T04:36:06Z</time>
      </trkpt>
      <trkpt lat="42.94482" lon="2.87145">
        <ele>192.2</ele>
        <time>2025-07-19T04:36:07Z</time>
      </trkpt>
      <trkpt lat="42.94471" lon="2.87164">
        <ele>193</ele>
        <time>2025-07-19T04:36:13Z</time>
      </trkpt>
      <trkpt lat="42.94468" lon="2.87171">
        <ele>193.4</ele>
        <time>2025-07-19T04:36:15Z</time>
      </trkpt>
      <trkpt lat="42.94453" lon="2.87197">
        <ele>194.2</ele>
        <time>2025-07-19T04:36:23Z</time>
      </trkpt>
      <trkpt lat="42.9444" lon="2.87222">
        <ele>195</ele>
        <time>2025-07-19T04:36:30Z</time>
      </trkpt>
      <trkpt lat="42.94435" lon="2.87229">
        <ele>195.4</ele>
        <time>2025-07-19T04:36:32Z</time>
      </trkpt>
      <trkpt lat="42.94425" lon="2.87246">
        <ele>196</ele>
        <time>2025-07-19T04:36:37Z</time>
      </trkpt>
      <trkpt lat="42.94407" lon="2.87263">
        <ele>196.8</ele>
        <time>2025-07-19T04:36:44Z</time>
      </trkpt>
      <trkpt lat="42.94385" lon="2.87271">
        <ele>197.6</ele>
        <time>2025-07-19T04:36:51Z</time>
      </trkpt>
      <trkpt lat="42.94383" lon="2.87272">
        <ele>197.8</ele>
        <time>2025-07-19T04:36:52Z</time>
      </trkpt>
      <trkpt lat="42.94367" lon="2.87272">
        <ele>198.8</ele>
        <time>2025-07-19T04:36:57Z</time>
      </trkpt>
      <trkpt lat="42.94364" lon="2.87271">
        <ele>199</ele>
        <time>2025-07-19T04:36:58Z</time>
      </trkpt>
      <trkpt lat="42.94344" lon="2.87267">
        <ele>200</ele>
        <time>2025-07-19T04:37:05Z</time>
      </trkpt>
      <trkpt lat="42.9432" lon="2.87262">
        <ele>201</ele>
        <time>2025-07-19T04:37:13Z</time>
      </trkpt>
      <trkpt lat="42.94317" lon="2.87262">
        <ele>201.2</ele>
        <time>2025-07-19T04:37:14Z</time>
      </trkpt>
      <trkpt lat="42.94296" lon="2.87264">
        <ele>202</ele>
        <time>2025-07-19T04:37:22Z</time>
      </trkpt>
      <trkpt lat="42.94293" lon="2.87264">
        <ele>202.2</ele>
        <time>2025-07-19T04:37:23Z</time>
      </trkpt>
      <trkpt lat="42.94277" lon="2.87272">
        <ele>203.2</ele>
        <time>2025-07-19T04:37:29Z</time>
      </trkpt>
      <trkpt lat="42.94274" lon="2.87274">
        <ele>203.4</ele>
        <time>2025-07-19T04:37:30Z</time>
      </trkpt>
      <trkpt lat="42.94257" lon="2.87285">
        <ele>204.4</ele>
        <time>2025-07-19T04:37:36Z</time>
      </trkpt>
      <trkpt lat="42.94252" lon="2.87288">
        <ele>204.8</ele>
        <time>2025-07-19T04:37:38Z</time>
      </trkpt>
      <trkpt lat="42.94235" lon="2.87299">
        <ele>205.6</ele>
        <time>2025-07-19T04:37:44Z</time>
      </trkpt>
      <trkpt lat="42.94215" lon="2.8731">
        <ele>206.6</ele>
        <time>2025-07-19T04:37:51Z</time>
      </trkpt>
      <trkpt lat="42.94204" lon="2.87317">
        <ele>207.2</ele>
        <time>2025-07-19T04:37:55Z</time>
      </trkpt>
      <trkpt lat="42.94192" lon="2.87323">
        <ele>207.6</ele>
        <time>2025-07-19T04:37:59Z</time>
      </trkpt>
      <trkpt lat="42.94179" lon="2.87332">
        <ele>208.8</ele>
        <time>2025-07-19T04:38:04Z</time>
      </trkpt>
      <trkpt lat="42.94174" lon="2.87335">
        <ele>209.2</ele>
        <time>2025-07-19T04:38:06Z</time>
      </trkpt>
      <trkpt lat="42.94165" lon="2.8734">
        <ele>210</ele>
        <time>2025-07-19T04:38:09Z</time>
      </trkpt>
      <trkpt lat="42.94149" lon="2.87353">
        <ele>210.8</ele>
        <time>2025-07-19T04:38:15Z</time>
      </trkpt>
      <trkpt lat="42.94146" lon="2.87355">
        <ele>211.2</ele>
        <time>2025-07-19T04:38:16Z</time>
      </trkpt>
      <trkpt lat="42.94129" lon="2.87374">
        <ele>212.2</ele>
        <time>2025-07-19T04:38:23Z</time>
      </trkpt>
      <trkpt lat="42.94124" lon="2.87381">
        <ele>212.6</ele>
        <time>2025-07-19T04:38:25Z</time>
      </trkpt>
      <trkpt lat="42.94114" lon="2.87393">
        <ele>213.2</ele>
        <time>2025-07-19T04:38:29Z</time>
      </trkpt>
      <trkpt lat="42.94109" lon="2.87403">
        <ele>213.6</ele>
        <time>2025-07-19T04:38:32Z</time>
      </trkpt>
      <trkpt lat="42.94103" lon="2.87414">
        <ele>214.2</ele>
        <time>2025-07-19T04:38:35Z</time>
      </trkpt>
      <trkpt lat="42.94095" lon="2.87433">
        <ele>215.4</ele>
        <time>2025-07-19T04:38:40Z</time>
      </trkpt>
      <trkpt lat="42.94088" lon="2.87445">
        <ele>215.6</ele>
        <time>2025-07-19T04:38:43Z</time>
      </trkpt>
      <trkpt lat="42.94078" lon="2.87457">
        <ele>216.6</ele>
        <time>2025-07-19T04:38:47Z</time>
      </trkpt>
      <trkpt lat="42.94068" lon="2.87469">
        <ele>217.2</ele>
        <time>2025-07-19T04:38:51Z</time>
      </trkpt>
      <trkpt lat="42.9406" lon="2.87477">
        <ele>217.6</ele>
        <time>2025-07-19T04:38:54Z</time>
      </trkpt>
      <trkpt lat="42.94048" lon="2.8749">
        <ele>218.6</ele>
        <time>2025-07-19T04:38:59Z</time>
      </trkpt>
      <trkpt lat="42.94045" lon="2.87493">
        <ele>218.8</ele>
        <time>2025-07-19T04:39:00Z</time>
      </trkpt>
      <trkpt lat="42.94032" lon="2.87512">
        <ele>220</ele>
        <time>2025-07-19T04:39:06Z</time>
      </trkpt>
      <trkpt lat="42.9403" lon="2.87516">
        <ele>220</ele>
        <time>2025-07-19T04:39:07Z</time>
      </trkpt>
      <trkpt lat="42.94021" lon="2.87535">
        <ele>221.2</ele>
        <time>2025-07-19T04:39:12Z</time>
      </trkpt>
      <trkpt lat="42.94018" lon="2.87542">
        <ele>221.4</ele>
        <time>2025-07-19T04:39:14Z</time>
      </trkpt>
      <trkpt lat="42.94012" lon="2.87559">
        <ele>222.2</ele>
        <time>2025-07-19T04:39:18Z</time>
      </trkpt>
      <trkpt lat="42.94006" lon="2.8758">
        <ele>223.2</ele>
        <time>2025-07-19T04:39:23Z</time>
      </trkpt>
      <trkpt lat="42.94001" lon="2.87612">
        <ele>224.4</ele>
        <time>2025-07-19T04:39:30Z</time>
      </trkpt>
      <trkpt lat="42.94001" lon="2.87626">
        <ele>225</ele>
        <time>2025-07-19T04:39:33Z</time>
      </trkpt>
      <trkpt lat="42.94001" lon="2.87635">
        <ele>225.4</ele>
        <time>2025-07-19T04:39:35Z</time>
      </trkpt>
      <trkpt lat="42.94001" lon="2.87667">
        <ele>226.4</ele>
        <time>2025-07-19T04:39:42Z</time>
      </trkpt>
      <trkpt lat="42.94001" lon="2.87672">
        <ele>226.6</ele>
        <time>2025-07-19T04:39:43Z</time>
      </trkpt>
      <trkpt lat="42.93999" lon="2.87694">
        <ele>227.6</ele>
        <time>2025-07-19T04:39:48Z</time>
      </trkpt>
      <trkpt lat="42.93996" lon="2.87714">
        <ele>228.6</ele>
        <time>2025-07-19T04:39:53Z</time>
      </trkpt>
      <trkpt lat="42.93993" lon="2.87722">
        <ele>228.8</ele>
        <time>2025-07-19T04:39:55Z</time>
      </trkpt>
      <trkpt lat="42.93987" lon="2.87743">
        <ele>229.6</ele>
        <time>2025-07-19T04:40:00Z</time>
      </trkpt>
      <trkpt lat="42.93986" lon="2.87747">
        <ele>230</ele>
        <time>2025-07-19T04:40:01Z</time>
      </trkpt>
      <trkpt lat="42.93984" lon="2.87753">
        <ele>230.6</ele>
        <time>2025-07-19T04:40:05Z</time>
      </trkpt>
      <trkpt lat="42.93984" lon="2.87753">
        <ele>230.6</ele>
        <time>2025-07-19T04:40:06Z</time>
      </trkpt>
      <trkpt lat="42.93983" lon="2.87763">
        <ele>230</ele>
        <time>2025-07-19T04:42:28Z</time>
      </trkpt>
      <trkpt lat="42.93981" lon="2.87771">
        <ele>230</ele>
        <time>2025-07-19T04:42:30Z</time>
      </trkpt>
      <trkpt lat="42.93975" lon="2.87796">
        <ele>230.4</ele>
        <time>2025-07-19T04:42:37Z</time>
      </trkpt>
      <trkpt lat="42.93972" lon="2.87813">
        <ele>231.2</ele>
        <time>2025-07-19T04:42:43Z</time>
      </trkpt>
      <trkpt lat="42.93969" lon="2.87824">
        <ele>231.4</ele>
        <time>2025-07-19T04:42:49Z</time>
      </trkpt>
      <trkpt lat="42.93967" lon="2.87829">
        <ele>231.4</ele>
        <time>2025-07-19T04:42:51Z</time>
      </trkpt>
      <trkpt lat="42.93965" lon="2.87838">
        <ele>231.8</ele>
        <time>2025-07-19T04:42:54Z</time>
      </trkpt>
      <trkpt lat="42.93962" lon="2.87843">
        <ele>231.8</ele>
        <time>2025-07-19T04:42:56Z</time>
      </trkpt>
      <trkpt lat="42.93953" lon="2.87865">
        <ele>232.2</ele>
        <time>2025-07-19T04:43:03Z</time>
      </trkpt>
      <trkpt lat="42.9395" lon="2.87872">
        <ele>232.4</ele>
        <time>2025-07-19T04:43:05Z</time>
      </trkpt>
      <trkpt lat="42.93941" lon="2.87894">
        <ele>233.2</ele>
        <time>2025-07-19T04:43:11Z</time>
      </trkpt>
      <trkpt lat="42.93938" lon="2.87901">
        <ele>233.4</ele>
        <time>2025-07-19T04:43:13Z</time>
      </trkpt>
      <trkpt lat="42.93929" lon="2.87919">
        <ele>234.2</ele>
        <time>2025-07-19T04:43:18Z</time>
      </trkpt>
      <trkpt lat="42.93928" lon="2.87923">
        <ele>234.6</ele>
        <time>2025-07-19T04:43:19Z</time>
      </trkpt>
      <trkpt lat="42.93915" lon="2.87953">
        <ele>235.8</ele>
        <time>2025-07-19T04:43:27Z</time>
      </trkpt>
      <trkpt lat="42.93912" lon="2.87961">
        <ele>236</ele>
        <time>2025-07-19T04:43:29Z</time>
      </trkpt>
      <trkpt lat="42.93905" lon="2.8798">
        <ele>236.8</ele>
        <time>2025-07-19T04:43:34Z</time>
      </trkpt>
      <trkpt lat="42.939" lon="2.87991">
        <ele>237</ele>
        <time>2025-07-19T04:43:37Z</time>
      </trkpt>
      <trkpt lat="42.93893" lon="2.88006">
        <ele>237.8</ele>
        <time>2025-07-19T04:43:41Z</time>
      </trkpt>
      <trkpt lat="42.93885" lon="2.88025">
        <ele>238.6</ele>
        <time>2025-07-19T04:43:46Z</time>
      </trkpt>
      <trkpt lat="42.93875" lon="2.88049">
        <ele>239.8</ele>
        <time>2025-07-19T04:43:52Z</time>
      </trkpt>
      <trkpt lat="42.9387" lon="2.88061">
        <ele>240.2</ele>
        <time>2025-07-19T04:43:55Z</time>
      </trkpt>
      <trkpt lat="42.93865" lon="2.88072">
        <ele>240.8</ele>
        <time>2025-07-19T04:43:58Z</time>
      </trkpt>
      <trkpt lat="42.93856" lon="2.88095">
        <ele>241.8</ele>
        <time>2025-07-19T04:44:04Z</time>
      </trkpt>
      <trkpt lat="42.93854" lon="2.88099">
        <ele>242.2</ele>
        <time>2025-07-19T04:44:05Z</time>
      </trkpt>
      <trkpt lat="42.93847" lon="2.88123">
        <ele>243.4</ele>
        <time>2025-07-19T04:44:11Z</time>
      </trkpt>
      <trkpt lat="42.93843" lon="2.8813">
        <ele>243.6</ele>
        <time>2025-07-19T04:44:13Z</time>
      </trkpt>
      <trkpt lat="42.9384" lon="2.88136">
        <ele>244</ele>
        <time>2025-07-19T04:44:17Z</time>
      </trkpt>
      <trkpt lat="42.93839" lon="2.88136">
        <ele>244.2</ele>
        <time>2025-07-19T04:44:21Z</time>
      </trkpt>
      <trkpt lat="42.9384" lon="2.88141">
        <ele>243.8</ele>
        <time>2025-07-19T04:47:29Z</time>
      </trkpt>
      <trkpt lat="42.93838" lon="2.88149">
        <ele>243.8</ele>
        <time>2025-07-19T04:47:31Z</time>
      </trkpt>
      <trkpt lat="42.93828" lon="2.88179">
        <ele>243.4</ele>
        <time>2025-07-19T04:47:37Z</time>
      </trkpt>
      <trkpt lat="42.93809" lon="2.88214">
        <ele>242.8</ele>
        <time>2025-07-19T04:47:44Z</time>
      </trkpt>
      <trkpt lat="42.93787" lon="2.88248">
        <ele>242</ele>
        <time>2025-07-19T04:47:50Z</time>
      </trkpt>
      <trkpt lat="42.93782" lon="2.88253">
        <ele>242</ele>
        <time>2025-07-19T04:47:51Z</time>
      </trkpt>
      <trkpt lat="42.93777" lon="2.88258">
        <ele>241.8</ele>
        <time>2025-07-19T04:47:52Z</time>
      </trkpt>
      <trkpt lat="42.93754" lon="2.88286">
        <ele>241.2</ele>
        <time>2025-07-19T04:47:57Z</time>
      </trkpt>
      <trkpt lat="42.9374" lon="2.88303">
        <ele>240.6</ele>
        <time>2025-07-19T04:48:00Z</time>
      </trkpt>
      <trkpt lat="42.93734" lon="2.88309">
        <ele>240.8</ele>
        <time>2025-07-19T04:48:01Z</time>
      </trkpt>
      <trkpt lat="42.93722" lon="2.88321">
        <ele>240.6</ele>
        <time>2025-07-19T04:48:03Z</time>
      </trkpt>
      <trkpt lat="42.93692" lon="2.88361">
        <ele>239.4</ele>
        <time>2025-07-19T04:48:09Z</time>
      </trkpt>
      <trkpt lat="42.9366" lon="2.88414">
        <ele>238.4</ele>
        <time>2025-07-19T04:48:16Z</time>
      </trkpt>
      <trkpt lat="42.93655" lon="2.88422">
        <ele>238.2</ele>
        <time>2025-07-19T04:48:17Z</time>
      </trkpt>
      <trkpt lat="42.93641" lon="2.88446">
        <ele>237.2</ele>
        <time>2025-07-19T04:48:20Z</time>
      </trkpt>
      <trkpt lat="42.93625" lon="2.88468">
        <ele>236.4</ele>
        <time>2025-07-19T04:48:23Z</time>
      </trkpt>
      <trkpt lat="42.93619" lon="2.88474">
        <ele>236.4</ele>
        <time>2025-07-19T04:48:24Z</time>
      </trkpt>
      <trkpt lat="42.93613" lon="2.88479">
        <ele>236</ele>
        <time>2025-07-19T04:48:25Z</time>
      </trkpt>
      <trkpt lat="42.93589" lon="2.88503">
        <ele>235.6</ele>
        <time>2025-07-19T04:48:29Z</time>
      </trkpt>
      <trkpt lat="42.93573" lon="2.8852">
        <ele>235</ele>
        <time>2025-07-19T04:48:32Z</time>
      </trkpt>
      <trkpt lat="42.9355" lon="2.88541">
        <ele>234.4</ele>
        <time>2025-07-19T04:48:36Z</time>
      </trkpt>
      <trkpt lat="42.93533" lon="2.88558">
        <ele>233.8</ele>
        <time>2025-07-19T04:48:39Z</time>
      </trkpt>
      <trkpt lat="42.93514" lon="2.88575">
        <ele>233.2</ele>
        <time>2025-07-19T04:48:42Z</time>
      </trkpt>
      <trkpt lat="42.93509" lon="2.88579">
        <ele>233</ele>
        <time>2025-07-19T04:48:43Z</time>
      </trkpt>
      <trkpt lat="42.935" lon="2.88582">
        <ele>232.8</ele>
        <time>2025-07-19T04:48:44Z</time>
      </trkpt>
      <trkpt lat="42.93484" lon="2.88584">
        <ele>232.6</ele>
        <time>2025-07-19T04:48:46Z</time>
      </trkpt>
      <trkpt lat="42.93454" lon="2.88575">
        <ele>231.8</ele>
        <time>2025-07-19T04:48:50Z</time>
      </trkpt>
      <trkpt lat="42.93439" lon="2.88575">
        <ele>231.2</ele>
        <time>2025-07-19T04:48:52Z</time>
      </trkpt>
      <trkpt lat="42.93431" lon="2.88576">
        <ele>231</ele>
        <time>2025-07-19T04:48:53Z</time>
      </trkpt>
      <trkpt lat="42.93409" lon="2.88584">
        <ele>230.6</ele>
        <time>2025-07-19T04:48:56Z</time>
      </trkpt>
      <trkpt lat="42.93378" lon="2.88595">
        <ele>230.2</ele>
        <time>2025-07-19T04:49:00Z</time>
      </trkpt>
      <trkpt lat="42.93341" lon="2.88614">
        <ele>229.6</ele>
        <time>2025-07-19T04:49:05Z</time>
      </trkpt>
      <trkpt lat="42.93326" lon="2.88624">
        <ele>229</ele>
        <time>2025-07-19T04:49:07Z</time>
      </trkpt>
      <trkpt lat="42.9332" lon="2.88629">
        <ele>228.4</ele>
        <time>2025-07-19T04:49:08Z</time>
      </trkpt>
      <trkpt lat="42.93296" lon="2.88647">
        <ele>227</ele>
        <time>2025-07-19T04:49:11Z</time>
      </trkpt>
      <trkpt lat="42.93271" lon="2.88662">
        <ele>226</ele>
        <time>2025-07-19T04:49:14Z</time>
      </trkpt>
      <trkpt lat="42.93263" lon="2.88669">
        <ele>225.6</ele>
        <time>2025-07-19T04:49:15Z</time>
      </trkpt>
      <trkpt lat="42.93248" lon="2.8868">
        <ele>224.6</ele>
        <time>2025-07-19T04:49:17Z</time>
      </trkpt>
      <trkpt lat="42.93239" lon="2.88689">
        <ele>224.4</ele>
        <time>2025-07-19T04:49:18Z</time>
      </trkpt>
      <trkpt lat="42.93225" lon="2.88707">
        <ele>224</ele>
        <time>2025-07-19T04:49:20Z</time>
      </trkpt>
      <trkpt lat="42.93214" lon="2.88726">
        <ele>223.2</ele>
        <time>2025-07-19T04:49:22Z</time>
      </trkpt>
      <trkpt lat="42.93195" lon="2.8876">
        <ele>222</ele>
        <time>2025-07-19T04:49:25Z</time>
      </trkpt>
      <trkpt lat="42.93184" lon="2.88779">
        <ele>221.2</ele>
        <time>2025-07-19T04:49:27Z</time>
      </trkpt>
      <trkpt lat="42.93169" lon="2.88802">
        <ele>220.6</ele>
        <time>2025-07-19T04:49:29Z</time>
      </trkpt>
      <trkpt lat="42.93152" lon="2.88832">
        <ele>219.6</ele>
        <time>2025-07-19T04:49:32Z</time>
      </trkpt>
      <trkpt lat="42.93132" lon="2.88865">
        <ele>218.6</ele>
        <time>2025-07-19T04:49:35Z</time>
      </trkpt>
      <trkpt lat="42.93127" lon="2.88876">
        <ele>218</ele>
        <time>2025-07-19T04:49:36Z</time>
      </trkpt>
      <trkpt lat="42.93119" lon="2.88899">
        <ele>217.6</ele>
        <time>2025-07-19T04:49:38Z</time>
      </trkpt>
      <trkpt lat="42.93115" lon="2.88912">
        <ele>217.2</ele>
        <time>2025-07-19T04:49:39Z</time>
      </trkpt>
      <trkpt lat="42.93103" lon="2.88956">
        <ele>216</ele>
        <time>2025-07-19T04:49:42Z</time>
      </trkpt>
      <trkpt lat="42.93096" lon="2.88981">
        <ele>215</ele>
        <time>2025-07-19T04:49:44Z</time>
      </trkpt>
      <trkpt lat="42.93092" lon="2.88995">
        <ele>214.6</ele>
        <time>2025-07-19T04:49:45Z</time>
      </trkpt>
      <trkpt lat="42.93088" lon="2.89012">
        <ele>214</ele>
        <time>2025-07-19T04:49:46Z</time>
      </trkpt>
      <trkpt lat="42.9308" lon="2.8904">
        <ele>212.8</ele>
        <time>2025-07-19T04:49:48Z</time>
      </trkpt>
      <trkpt lat="42.93072" lon="2.89068">
        <ele>211.8</ele>
        <time>2025-07-19T04:49:50Z</time>
      </trkpt>
      <trkpt lat="42.93064" lon="2.89096">
        <ele>210.4</ele>
        <time>2025-07-19T04:49:52Z</time>
      </trkpt>
      <trkpt lat="42.93061" lon="2.89108">
        <ele>209.6</ele>
        <time>2025-07-19T04:49:53Z</time>
      </trkpt>
      <trkpt lat="42.93056" lon="2.89125">
        <ele>209.2</ele>
        <time>2025-07-19T04:49:54Z</time>
      </trkpt>
      <trkpt lat="42.93047" lon="2.89153">
        <ele>208</ele>
        <time>2025-07-19T04:49:56Z</time>
      </trkpt>
      <trkpt lat="42.93037" lon="2.89181">
        <ele>206.8</ele>
        <time>2025-07-19T04:49:58Z</time>
      </trkpt>
      <trkpt lat="42.93028" lon="2.89209">
        <ele>205.6</ele>
        <time>2025-07-19T04:50:00Z</time>
      </trkpt>
      <trkpt lat="42.93021" lon="2.89235">
        <ele>204.4</ele>
        <time>2025-07-19T04:50:02Z</time>
      </trkpt>
      <trkpt lat="42.93014" lon="2.89267">
        <ele>203.8</ele>
        <time>2025-07-19T04:50:04Z</time>
      </trkpt>
      <trkpt lat="42.93012" lon="2.89281">
        <ele>203.4</ele>
        <time>2025-07-19T04:50:05Z</time>
      </trkpt>
      <trkpt lat="42.93007" lon="2.8931">
        <ele>202</ele>
        <time>2025-07-19T04:50:07Z</time>
      </trkpt>
      <trkpt lat="42.93005" lon="2.89322">
        <ele>200.8</ele>
        <time>2025-07-19T04:50:08Z</time>
      </trkpt>
      <trkpt lat="42.93" lon="2.89354">
        <ele>199.4</ele>
        <time>2025-07-19T04:50:10Z</time>
      </trkpt>
      <trkpt lat="42.92995" lon="2.89383">
        <ele>197.8</ele>
        <time>2025-07-19T04:50:12Z</time>
      </trkpt>
      <trkpt lat="42.92992" lon="2.89426">
        <ele>196.6</ele>
        <time>2025-07-19T04:50:15Z</time>
      </trkpt>
      <trkpt lat="42.9299" lon="2.89465">
        <ele>195.6</ele>
        <time>2025-07-19T04:50:18Z</time>
      </trkpt>
      <trkpt lat="42.9299" lon="2.89478">
        <ele>195.2</ele>
        <time>2025-07-19T04:50:19Z</time>
      </trkpt>
      <trkpt lat="42.92988" lon="2.89508">
        <ele>193.8</ele>
        <time>2025-07-19T04:50:21Z</time>
      </trkpt>
      <trkpt lat="42.92987" lon="2.89533">
        <ele>192.6</ele>
        <time>2025-07-19T04:50:23Z</time>
      </trkpt>
      <trkpt lat="42.92988" lon="2.8956">
        <ele>191.8</ele>
        <time>2025-07-19T04:50:25Z</time>
      </trkpt>
      <trkpt lat="42.92991" lon="2.89575">
        <ele>191</ele>
        <time>2025-07-19T04:50:26Z</time>
      </trkpt>
      <trkpt lat="42.92996" lon="2.89609">
        <ele>189.6</ele>
        <time>2025-07-19T04:50:29Z</time>
      </trkpt>
      <trkpt lat="42.92997" lon="2.89624">
        <ele>189.4</ele>
        <time>2025-07-19T04:50:30Z</time>
      </trkpt>
      <trkpt lat="42.92992" lon="2.89643">
        <ele>188.8</ele>
        <time>2025-07-19T04:50:32Z</time>
      </trkpt>
      <trkpt lat="42.92986" lon="2.89653">
        <ele>188.2</ele>
        <time>2025-07-19T04:50:33Z</time>
      </trkpt>
      <trkpt lat="42.9298" lon="2.8966">
        <ele>187.6</ele>
        <time>2025-07-19T04:50:34Z</time>
      </trkpt>
      <trkpt lat="42.92972" lon="2.89668">
        <ele>187.4</ele>
        <time>2025-07-19T04:50:35Z</time>
      </trkpt>
      <trkpt lat="42.92965" lon="2.89674">
        <ele>187</ele>
        <time>2025-07-19T04:50:36Z</time>
      </trkpt>
      <trkpt lat="42.92934" lon="2.89711">
        <ele>185.8</ele>
        <time>2025-07-19T04:50:41Z</time>
      </trkpt>
      <trkpt lat="42.92913" lon="2.89755">
        <ele>184.8</ele>
        <time>2025-07-19T04:50:46Z</time>
      </trkpt>
      <trkpt lat="42.92899" lon="2.89806">
        <ele>184</ele>
        <time>2025-07-19T04:50:51Z</time>
      </trkpt>
      <trkpt lat="42.92897" lon="2.89817">
        <ele>183.6</ele>
        <time>2025-07-19T04:50:52Z</time>
      </trkpt>
      <trkpt lat="42.92887" lon="2.89871">
        <ele>182.6</ele>
        <time>2025-07-19T04:50:57Z</time>
      </trkpt>
      <trkpt lat="42.92881" lon="2.89889">
        <ele>182.2</ele>
        <time>2025-07-19T04:50:59Z</time>
      </trkpt>
      <trkpt lat="42.92865" lon="2.89933">
        <ele>181.2</ele>
        <time>2025-07-19T04:51:03Z</time>
      </trkpt>
      <trkpt lat="42.92862" lon="2.89943">
        <ele>181</ele>
        <time>2025-07-19T04:51:04Z</time>
      </trkpt>
      <trkpt lat="42.92858" lon="2.89964">
        <ele>180.8</ele>
        <time>2025-07-19T04:51:06Z</time>
      </trkpt>
      <trkpt lat="42.92857" lon="2.89986">
        <ele>180.6</ele>
        <time>2025-07-19T04:51:08Z</time>
      </trkpt>
      <trkpt lat="42.92857" lon="2.89995">
        <ele>180.2</ele>
        <time>2025-07-19T04:51:09Z</time>
      </trkpt>
      <trkpt lat="42.92859" lon="2.90061">
        <ele>179.2</ele>
        <time>2025-07-19T04:51:15Z</time>
      </trkpt>
      <trkpt lat="42.92859" lon="2.90072">
        <ele>179</ele>
        <time>2025-07-19T04:51:16Z</time>
      </trkpt>
      <trkpt lat="42.9286" lon="2.90116">
        <ele>178</ele>
        <time>2025-07-19T04:51:20Z</time>
      </trkpt>
      <trkpt lat="42.92862" lon="2.90163">
        <ele>176.8</ele>
        <time>2025-07-19T04:51:24Z</time>
      </trkpt>
      <trkpt lat="42.92862" lon="2.90208">
        <ele>176</ele>
        <time>2025-07-19T04:51:28Z</time>
      </trkpt>
      <trkpt lat="42.9286" lon="2.90228">
        <ele>175.6</ele>
        <time>2025-07-19T04:51:30Z</time>
      </trkpt>
      <trkpt lat="42.92843" lon="2.90294">
        <ele>174.8</ele>
        <time>2025-07-19T04:51:36Z</time>
      </trkpt>
      <trkpt lat="42.92835" lon="2.90315">
        <ele>174.4</ele>
        <time>2025-07-19T04:51:38Z</time>
      </trkpt>
      <trkpt lat="42.92817" lon="2.90354">
        <ele>173.6</ele>
        <time>2025-07-19T04:51:42Z</time>
      </trkpt>
      <trkpt lat="42.92812" lon="2.90363">
        <ele>173.4</ele>
        <time>2025-07-19T04:51:43Z</time>
      </trkpt>
      <trkpt lat="42.92782" lon="2.90424">
        <ele>172.4</ele>
        <time>2025-07-19T04:51:50Z</time>
      </trkpt>
      <trkpt lat="42.92778" lon="2.90433">
        <ele>172.4</ele>
        <time>2025-07-19T04:51:51Z</time>
      </trkpt>
      <trkpt lat="42.92773" lon="2.90441">
        <ele>172.4</ele>
        <time>2025-07-19T04:51:52Z</time>
      </trkpt>
      <trkpt lat="42.92747" lon="2.90498">
        <ele>171.4</ele>
        <time>2025-07-19T04:51:59Z</time>
      </trkpt>
      <trkpt lat="42.92744" lon="2.90506">
        <ele>171.2</ele>
        <time>2025-07-19T04:52:00Z</time>
      </trkpt>
      <trkpt lat="42.92737" lon="2.90519">
        <ele>170.8</ele>
        <time>2025-07-19T04:52:02Z</time>
      </trkpt>
      <trkpt lat="42.92727" lon="2.90525">
        <ele>170.6</ele>
        <time>2025-07-19T04:52:04Z</time>
      </trkpt>
      <trkpt lat="42.92717" lon="2.9052">
        <ele>170.4</ele>
        <time>2025-07-19T04:52:06Z</time>
      </trkpt>
      <trkpt lat="42.92705" lon="2.90503">
        <ele>170.4</ele>
        <time>2025-07-19T04:52:09Z</time>
      </trkpt>
      <trkpt lat="42.92698" lon="2.90495">
        <ele>170.6</ele>
        <time>2025-07-19T04:52:11Z</time>
      </trkpt>
      <trkpt lat="42.92694" lon="2.90492">
        <ele>170.6</ele>
        <time>2025-07-19T04:52:12Z</time>
      </trkpt>
      <trkpt lat="42.92684" lon="2.90489">
        <ele>170.6</ele>
        <time>2025-07-19T04:52:14Z</time>
      </trkpt>
      <trkpt lat="42.92679" lon="2.90488">
        <ele>170.6</ele>
        <time>2025-07-19T04:52:15Z</time>
      </trkpt>
      <trkpt lat="42.92655" lon="2.90494">
        <ele>171</ele>
        <time>2025-07-19T04:52:21Z</time>
      </trkpt>
      <trkpt lat="42.92651" lon="2.90495">
        <ele>171</ele>
        <time>2025-07-19T04:52:22Z</time>
      </trkpt>
      <trkpt lat="42.92637" lon="2.905">
        <ele>171.4</ele>
        <time>2025-07-19T04:52:26Z</time>
      </trkpt>
      <trkpt lat="42.92617" lon="2.90506">
        <ele>172.6</ele>
        <time>2025-07-19T04:52:32Z</time>
      </trkpt>
      <trkpt lat="42.92611" lon="2.90509">
        <ele>173</ele>
        <time>2025-07-19T04:52:34Z</time>
      </trkpt>
      <trkpt lat="42.92596" lon="2.90513">
        <ele>173.8</ele>
        <time>2025-07-19T04:52:39Z</time>
      </trkpt>
      <trkpt lat="42.9258" lon="2.90517">
        <ele>174.2</ele>
        <time>2025-07-19T04:52:44Z</time>
      </trkpt>
      <trkpt lat="42.92563" lon="2.90524">
        <ele>174.8</ele>
        <time>2025-07-19T04:52:50Z</time>
      </trkpt>
      <trkpt lat="42.92561" lon="2.90525">
        <ele>175</ele>
        <time>2025-07-19T04:52:51Z</time>
      </trkpt>
      <trkpt lat="42.92539" lon="2.90532">
        <ele>176</ele>
        <time>2025-07-19T04:52:58Z</time>
      </trkpt>
      <trkpt lat="42.92537" lon="2.90533">
        <ele>176</ele>
        <time>2025-07-19T04:52:59Z</time>
      </trkpt>
      <trkpt lat="42.92508" lon="2.90544">
        <ele>177</ele>
        <time>2025-07-19T04:53:08Z</time>
      </trkpt>
      <trkpt lat="42.92493" lon="2.90543">
        <ele>177.2</ele>
        <time>2025-07-19T04:53:13Z</time>
      </trkpt>
      <trkpt lat="42.92478" lon="2.90526">
        <ele>178</ele>
        <time>2025-07-19T04:53:19Z</time>
      </trkpt>
      <trkpt lat="42.92476" lon="2.90523">
        <ele>178</ele>
        <time>2025-07-19T04:53:20Z</time>
      </trkpt>
      <trkpt lat="42.92463" lon="2.90497">
        <ele>178.8</ele>
        <time>2025-07-19T04:53:27Z</time>
      </trkpt>
      <trkpt lat="42.92453" lon="2.90469">
        <ele>179</ele>
        <time>2025-07-19T04:53:35Z</time>
      </trkpt>
      <trkpt lat="42.92451" lon="2.90459">
        <ele>179.2</ele>
        <time>2025-07-19T04:53:38Z</time>
      </trkpt>
      <trkpt lat="42.92447" lon="2.90444">
        <ele>179.4</ele>
        <time>2025-07-19T04:53:42Z</time>
      </trkpt>
      <trkpt lat="42.92445" lon="2.90433">
        <ele>180</ele>
        <time>2025-07-19T04:53:45Z</time>
      </trkpt>
      <trkpt lat="42.92441" lon="2.9042">
        <ele>180.4</ele>
        <time>2025-07-19T04:53:49Z</time>
      </trkpt>
      <trkpt lat="42.92437" lon="2.90406">
        <ele>181</ele>
        <time>2025-07-19T04:53:53Z</time>
      </trkpt>
      <trkpt lat="42.92433" lon="2.90392">
        <ele>181.6</ele>
        <time>2025-07-19T04:53:57Z</time>
      </trkpt>
      <trkpt lat="42.92427" lon="2.90375">
        <ele>182.2</ele>
        <time>2025-07-19T04:54:02Z</time>
      </trkpt>
      <trkpt lat="42.92425" lon="2.90371">
        <ele>182.2</ele>
        <time>2025-07-19T04:54:03Z</time>
      </trkpt>
      <trkpt lat="42.92416" lon="2.90338">
        <ele>183.2</ele>
        <time>2025-07-19T04:54:11Z</time>
      </trkpt>
      <trkpt lat="42.92404" lon="2.90296">
        <ele>184</ele>
        <time>2025-07-19T04:54:21Z</time>
      </trkpt>
      <trkpt lat="42.92403" lon="2.90285">
        <ele>184.2</ele>
        <time>2025-07-19T04:54:24Z</time>
      </trkpt>
      <trkpt lat="42.92406" lon="2.90268">
        <ele>184.8</ele>
        <time>2025-07-19T04:54:28Z</time>
      </trkpt>
      <trkpt lat="42.92411" lon="2.90248">
        <ele>185.4</ele>
        <time>2025-07-19T04:54:33Z</time>
      </trkpt>
      <trkpt lat="42.92415" lon="2.90232">
        <ele>186</ele>
        <time>2025-07-19T04:54:37Z</time>
      </trkpt>
      <trkpt lat="42.9242" lon="2.90213">
        <ele>186.4</ele>
        <time>2025-07-19T04:54:42Z</time>
      </trkpt>
      <trkpt lat="42.92424" lon="2.90198">
        <ele>186.8</ele>
        <time>2025-07-19T04:54:46Z</time>
      </trkpt>
      <trkpt lat="42.92429" lon="2.90172">
        <ele>187.2</ele>
        <time>2025-07-19T04:54:52Z</time>
      </trkpt>
      <trkpt lat="42.9243" lon="2.90164">
        <ele>187.4</ele>
        <time>2025-07-19T04:54:54Z</time>
      </trkpt>
      <trkpt lat="42.92426" lon="2.90134">
        <ele>188</ele>
        <time>2025-07-19T04:55:01Z</time>
      </trkpt>
      <trkpt lat="42.9242" lon="2.90125">
        <ele>188.2</ele>
        <time>2025-07-19T04:55:04Z</time>
      </trkpt>
      <trkpt lat="42.92414" lon="2.9012">
        <ele>188.4</ele>
        <time>2025-07-19T04:55:06Z</time>
      </trkpt>
      <trkpt lat="42.92402" lon="2.90116">
        <ele>188.8</ele>
        <time>2025-07-19T04:55:10Z</time>
      </trkpt>
      <trkpt lat="42.92378" lon="2.90117">
        <ele>189.2</ele>
        <time>2025-07-19T04:55:18Z</time>
      </trkpt>
      <trkpt lat="42.92375" lon="2.9012">
        <ele>189.2</ele>
        <time>2025-07-19T04:55:19Z</time>
      </trkpt>
      <trkpt lat="42.92362" lon="2.90138">
        <ele>189.8</ele>
        <time>2025-07-19T04:55:25Z</time>
      </trkpt>
      <trkpt lat="42.9236" lon="2.90148">
        <ele>190.4</ele>
        <time>2025-07-19T04:55:28Z</time>
      </trkpt>
      <trkpt lat="42.92358" lon="2.90155">
        <ele>190.6</ele>
        <time>2025-07-19T04:55:30Z</time>
      </trkpt>
      <trkpt lat="42.92355" lon="2.9017">
        <ele>191.4</ele>
        <time>2025-07-19T04:55:34Z</time>
      </trkpt>
      <trkpt lat="42.92351" lon="2.90181">
        <ele>192.4</ele>
        <time>2025-07-19T04:55:37Z</time>
      </trkpt>
      <trkpt lat="42.9235" lon="2.90185">
        <ele>192.6</ele>
        <time>2025-07-19T04:55:38Z</time>
      </trkpt>
      <trkpt lat="42.92341" lon="2.90205">
        <ele>193.2</ele>
        <time>2025-07-19T04:55:44Z</time>
      </trkpt>
      <trkpt lat="42.92337" lon="2.90211">
        <ele>193.6</ele>
        <time>2025-07-19T04:55:46Z</time>
      </trkpt>
      <trkpt lat="42.92325" lon="2.90225">
        <ele>194.4</ele>
        <time>2025-07-19T04:55:52Z</time>
      </trkpt>
      <trkpt lat="42.92323" lon="2.90229">
        <ele>194.6</ele>
        <time>2025-07-19T04:55:53Z</time>
      </trkpt>
      <trkpt lat="42.92316" lon="2.90241">
        <ele>195.2</ele>
        <time>2025-07-19T04:55:57Z</time>
      </trkpt>
      <trkpt lat="42.92313" lon="2.90252">
        <ele>195.8</ele>
        <time>2025-07-19T04:56:00Z</time>
      </trkpt>
      <trkpt lat="42.92311" lon="2.90258">
        <ele>196.2</ele>
        <time>2025-07-19T04:56:02Z</time>
      </trkpt>
      <trkpt lat="42.9231" lon="2.90262">
        <ele>196.6</ele>
        <time>2025-07-19T04:56:03Z</time>
      </trkpt>
      <trkpt lat="42.923" lon="2.90281">
        <ele>197.2</ele>
        <time>2025-07-19T04:56:09Z</time>
      </trkpt>
      <trkpt lat="42.92294" lon="2.90289">
        <ele>197.6</ele>
        <time>2025-07-19T04:56:12Z</time>
      </trkpt>
      <trkpt lat="42.92285" lon="2.90303">
        <ele>198.4</ele>
        <time>2025-07-19T04:56:17Z</time>
      </trkpt>
      <trkpt lat="42.92282" lon="2.90309">
        <ele>198.8</ele>
        <time>2025-07-19T04:56:19Z</time>
      </trkpt>
      <trkpt lat="42.92275" lon="2.90326">
        <ele>199.4</ele>
        <time>2025-07-19T04:56:25Z</time>
      </trkpt>
      <trkpt lat="42.92274" lon="2.90333">
        <ele>199.8</ele>
        <time>2025-07-19T04:56:27Z</time>
      </trkpt>
      <trkpt lat="42.92269" lon="2.90363">
        <ele>200.8</ele>
        <time>2025-07-19T04:56:36Z</time>
      </trkpt>
      <trkpt lat="42.92269" lon="2.90373">
        <ele>201.6</ele>
        <time>2025-07-19T04:56:39Z</time>
      </trkpt>
      <trkpt lat="42.92267" lon="2.90379">
        <ele>202</ele>
        <time>2025-07-19T04:56:41Z</time>
      </trkpt>
      <trkpt lat="42.92261" lon="2.90394">
        <ele>203.2</ele>
        <time>2025-07-19T04:56:46Z</time>
      </trkpt>
      <trkpt lat="42.92257" lon="2.90405">
        <ele>203.8</ele>
        <time>2025-07-19T04:56:50Z</time>
      </trkpt>
      <trkpt lat="42.92252" lon="2.90413">
        <ele>204.2</ele>
        <time>2025-07-19T04:56:53Z</time>
      </trkpt>
      <trkpt lat="42.92247" lon="2.90423">
        <ele>204.8</ele>
        <time>2025-07-19T04:56:57Z</time>
      </trkpt>
      <trkpt lat="42.92241" lon="2.90431">
        <ele>205.2</ele>
        <time>2025-07-19T04:57:00Z</time>
      </trkpt>
      <trkpt lat="42.92236" lon="2.90438">
        <ele>205.6</ele>
        <time>2025-07-19T04:57:03Z</time>
      </trkpt>
      <trkpt lat="42.92233" lon="2.90444">
        <ele>206.2</ele>
        <time>2025-07-19T04:57:05Z</time>
      </trkpt>
      <trkpt lat="42.92223" lon="2.90459">
        <ele>207.2</ele>
        <time>2025-07-19T04:57:11Z</time>
      </trkpt>
      <trkpt lat="42.92221" lon="2.90461">
        <ele>207.2</ele>
        <time>2025-07-19T04:57:12Z</time>
      </trkpt>
      <trkpt lat="42.92207" lon="2.90478">
        <ele>208</ele>
        <time>2025-07-19T04:57:19Z</time>
      </trkpt>
      <trkpt lat="42.92202" lon="2.90481">
        <ele>208.4</ele>
        <time>2025-07-19T04:57:21Z</time>
      </trkpt>
      <trkpt lat="42.92188" lon="2.9049">
        <ele>209</ele>
        <time>2025-07-19T04:57:27Z</time>
      </trkpt>
      <trkpt lat="42.92181" lon="2.90494">
        <ele>209.6</ele>
        <time>2025-07-19T04:57:30Z</time>
      </trkpt>
      <trkpt lat="42.92172" lon="2.90499">
        <ele>210.6</ele>
        <time>2025-07-19T04:57:34Z</time>
      </trkpt>
      <trkpt lat="42.9217" lon="2.905">
        <ele>210.6</ele>
        <time>2025-07-19T04:57:35Z</time>
      </trkpt>
      <trkpt lat="42.92157" lon="2.90506">
        <ele>211.8</ele>
        <time>2025-07-19T04:57:40Z</time>
      </trkpt>
      <trkpt lat="42.92152" lon="2.90507">
        <ele>212</ele>
        <time>2025-07-19T04:57:42Z</time>
      </trkpt>
      <trkpt lat="42.92136" lon="2.90515">
        <ele>212.8</ele>
        <time>2025-07-19T04:57:49Z</time>
      </trkpt>
      <trkpt lat="42.92134" lon="2.90517">
        <ele>213</ele>
        <time>2025-07-19T04:57:50Z</time>
      </trkpt>
      <trkpt lat="42.92123" lon="2.90531">
        <ele>213.6</ele>
        <time>2025-07-19T04:57:56Z</time>
      </trkpt>
      <trkpt lat="42.92118" lon="2.90543">
        <ele>214.2</ele>
        <time>2025-07-19T04:58:00Z</time>
      </trkpt>
      <trkpt lat="42.92112" lon="2.90554">
        <ele>214.8</ele>
        <time>2025-07-19T04:58:04Z</time>
      </trkpt>
      <trkpt lat="42.92108" lon="2.90566">
        <ele>215.6</ele>
        <time>2025-07-19T04:58:08Z</time>
      </trkpt>
      <trkpt lat="42.92107" lon="2.9057">
        <ele>215.8</ele>
        <time>2025-07-19T04:58:09Z</time>
      </trkpt>
      <trkpt lat="42.92109" lon="2.90584">
        <ele>216.2</ele>
        <time>2025-07-19T04:58:13Z</time>
      </trkpt>
      <trkpt lat="42.92114" lon="2.90593">
        <ele>216.6</ele>
        <time>2025-07-19T04:58:16Z</time>
      </trkpt>
      <trkpt lat="42.92121" lon="2.90598">
        <ele>217.4</ele>
        <time>2025-07-19T04:58:19Z</time>
      </trkpt>
      <trkpt lat="42.92123" lon="2.90599">
        <ele>217.8</ele>
        <time>2025-07-19T04:58:20Z</time>
      </trkpt>
      <trkpt lat="42.92131" lon="2.90606">
        <ele>218.8</ele>
        <time>2025-07-19T04:58:24Z</time>
      </trkpt>
      <trkpt lat="42.92134" lon="2.90612">
        <ele>219.2</ele>
        <time>2025-07-19T04:58:26Z</time>
      </trkpt>
      <trkpt lat="42.92137" lon="2.90621">
        <ele>219.8</ele>
        <time>2025-07-19T04:58:29Z</time>
      </trkpt>
      <trkpt lat="42.9214" lon="2.90632">
        <ele>220.4</ele>
        <time>2025-07-19T04:58:32Z</time>
      </trkpt>
      <trkpt lat="42.92141" lon="2.90659">
        <ele>220.6</ele>
        <time>2025-07-19T04:58:40Z</time>
      </trkpt>
      <trkpt lat="42.92142" lon="2.90666">
        <ele>221</ele>
        <time>2025-07-19T04:58:42Z</time>
      </trkpt>
      <trkpt lat="42.92146" lon="2.90681">
        <ele>221.8</ele>
        <time>2025-07-19T04:58:47Z</time>
      </trkpt>
      <trkpt lat="42.92147" lon="2.90694">
        <ele>222.8</ele>
        <time>2025-07-19T04:58:51Z</time>
      </trkpt>
      <trkpt lat="42.92153" lon="2.90713">
        <ele>223.8</ele>
        <time>2025-07-19T04:58:57Z</time>
      </trkpt>
      <trkpt lat="42.92157" lon="2.90721">
        <ele>224.2</ele>
        <time>2025-07-19T04:59:00Z</time>
      </trkpt>
      <trkpt lat="42.92162" lon="2.90733">
        <ele>224.8</ele>
        <time>2025-07-19T04:59:04Z</time>
      </trkpt>
      <trkpt lat="42.92168" lon="2.9074">
        <ele>225.2</ele>
        <time>2025-07-19T04:59:07Z</time>
      </trkpt>
      <trkpt lat="42.92178" lon="2.9075">
        <ele>226</ele>
        <time>2025-07-19T04:59:12Z</time>
      </trkpt>
      <trkpt lat="42.92182" lon="2.90754">
        <ele>226.6</ele>
        <time>2025-07-19T04:59:14Z</time>
      </trkpt>
      <trkpt lat="42.92188" lon="2.9076">
        <ele>227.4</ele>
        <time>2025-07-19T04:59:17Z</time>
      </trkpt>
      <trkpt lat="42.92197" lon="2.90774">
        <ele>228</ele>
        <time>2025-07-19T04:59:22Z</time>
      </trkpt>
      <trkpt lat="42.92198" lon="2.90788">
        <ele>228.6</ele>
        <time>2025-07-19T04:59:26Z</time>
      </trkpt>
      <trkpt lat="42.92197" lon="2.90791">
        <ele>228.8</ele>
        <time>2025-07-19T04:59:27Z</time>
      </trkpt>
      <trkpt lat="42.92191" lon="2.90806">
        <ele>229.6</ele>
        <time>2025-07-19T04:59:32Z</time>
      </trkpt>
      <trkpt lat="42.92188" lon="2.90812">
        <ele>230.4</ele>
        <time>2025-07-19T04:59:34Z</time>
      </trkpt>
      <trkpt lat="42.92186" lon="2.90818">
        <ele>230.8</ele>
        <time>2025-07-19T04:59:36Z</time>
      </trkpt>
      <trkpt lat="42.92178" lon="2.9084">
        <ele>231.8</ele>
        <time>2025-07-19T04:59:43Z</time>
      </trkpt>
      <trkpt lat="42.92176" lon="2.90846">
        <ele>232.2</ele>
        <time>2025-07-19T04:59:45Z</time>
      </trkpt>
      <trkpt lat="42.92173" lon="2.90856">
        <ele>233.2</ele>
        <time>2025-07-19T04:59:48Z</time>
      </trkpt>
      <trkpt lat="42.9217" lon="2.90873">
        <ele>234</ele>
        <time>2025-07-19T04:59:53Z</time>
      </trkpt>
      <trkpt lat="42.9217" lon="2.90876">
        <ele>234.2</ele>
        <time>2025-07-19T04:59:54Z</time>
      </trkpt>
      <trkpt lat="42.92168" lon="2.90886">
        <ele>235.2</ele>
        <time>2025-07-19T04:59:57Z</time>
      </trkpt>
      <trkpt lat="42.92167" lon="2.90908">
        <ele>236.2</ele>
        <time>2025-07-19T05:00:03Z</time>
      </trkpt>
      <trkpt lat="42.92165" lon="2.9093">
        <ele>237.4</ele>
        <time>2025-07-19T05:00:09Z</time>
      </trkpt>
      <trkpt lat="42.92164" lon="2.90944">
        <ele>238</ele>
        <time>2025-07-19T05:00:13Z</time>
      </trkpt>
      <trkpt lat="42.92162" lon="2.90951">
        <ele>238.4</ele>
        <time>2025-07-19T05:00:15Z</time>
      </trkpt>
      <trkpt lat="42.92157" lon="2.90972">
        <ele>239.6</ele>
        <time>2025-07-19T05:00:21Z</time>
      </trkpt>
      <trkpt lat="42.92151" lon="2.90995">
        <ele>240.6</ele>
        <time>2025-07-19T05:00:28Z</time>
      </trkpt>
      <trkpt lat="42.92151" lon="2.90999">
        <ele>241</ele>
        <time>2025-07-19T05:00:29Z</time>
      </trkpt>
      <trkpt lat="42.9215" lon="2.9102">
        <ele>241.6</ele>
        <time>2025-07-19T05:00:35Z</time>
      </trkpt>
      <trkpt lat="42.92149" lon="2.91027">
        <ele>241.8</ele>
        <time>2025-07-19T05:00:37Z</time>
      </trkpt>
      <trkpt lat="42.92147" lon="2.91053">
        <ele>242.8</ele>
        <time>2025-07-19T05:00:44Z</time>
      </trkpt>
      <trkpt lat="42.92147" lon="2.91057">
        <ele>243</ele>
        <time>2025-07-19T05:00:45Z</time>
      </trkpt>
      <trkpt lat="42.92141" lon="2.91081">
        <ele>244</ele>
        <time>2025-07-19T05:00:52Z</time>
      </trkpt>
      <trkpt lat="42.92136" lon="2.91095">
        <ele>245</ele>
        <time>2025-07-19T05:00:56Z</time>
      </trkpt>
      <trkpt lat="42.92135" lon="2.91099">
        <ele>245.2</ele>
        <time>2025-07-19T05:00:57Z</time>
      </trkpt>
      <trkpt lat="42.92121" lon="2.91127">
        <ele>246.2</ele>
        <time>2025-07-19T05:01:06Z</time>
      </trkpt>
      <trkpt lat="42.92109" lon="2.91148">
        <ele>247.4</ele>
        <time>2025-07-19T05:01:13Z</time>
      </trkpt>
      <trkpt lat="42.92105" lon="2.91152">
        <ele>247.4</ele>
        <time>2025-07-19T05:01:15Z</time>
      </trkpt>
      <trkpt lat="42.92094" lon="2.91164">
        <ele>248.4</ele>
        <time>2025-07-19T05:01:20Z</time>
      </trkpt>
      <trkpt lat="42.9209" lon="2.91169">
        <ele>248.6</ele>
        <time>2025-07-19T05:01:22Z</time>
      </trkpt>
      <trkpt lat="42.92072" lon="2.9118">
        <ele>249.2</ele>
        <time>2025-07-19T05:01:29Z</time>
      </trkpt>
      <trkpt lat="42.92066" lon="2.91183">
        <ele>249.4</ele>
        <time>2025-07-19T05:01:31Z</time>
      </trkpt>
      <trkpt lat="42.9205" lon="2.91187">
        <ele>250.4</ele>
        <time>2025-07-19T05:01:37Z</time>
      </trkpt>
      <trkpt lat="42.92045" lon="2.91187">
        <ele>250.6</ele>
        <time>2025-07-19T05:01:39Z</time>
      </trkpt>
      <trkpt lat="42.92027" lon="2.91184">
        <ele>251.4</ele>
        <time>2025-07-19T05:01:46Z</time>
      </trkpt>
      <trkpt lat="42.9202" lon="2.9118">
        <ele>251.6</ele>
        <time>2025-07-19T05:01:49Z</time>
      </trkpt>
      <trkpt lat="42.92002" lon="2.91171">
        <ele>252</ele>
        <time>2025-07-19T05:01:55Z</time>
      </trkpt>
      <trkpt lat="42.91984" lon="2.91159">
        <ele>252.4</ele>
        <time>2025-07-19T05:02:03Z</time>
      </trkpt>
      <trkpt lat="42.91962" lon="2.91147">
        <ele>252.4</ele>
        <time>2025-07-19T05:02:11Z</time>
      </trkpt>
      <trkpt lat="42.91937" lon="2.91133">
        <ele>252.4</ele>
        <time>2025-07-19T05:02:20Z</time>
      </trkpt>
      <trkpt lat="42.91926" lon="2.91128">
        <ele>252.4</ele>
        <time>2025-07-19T05:02:26Z</time>
      </trkpt>
      <trkpt lat="42.91926" lon="2.91128">
        <ele>252.4</ele>
        <time>2025-07-19T05:02:29Z</time>
      </trkpt>
      <trkpt lat="42.9192" lon="2.91129">
        <ele>251.8</ele>
        <time>2025-07-19T05:05:50Z</time>
      </trkpt>
      <trkpt lat="42.91905" lon="2.91131">
        <ele>251.6</ele>
        <time>2025-07-19T05:05:55Z</time>
      </trkpt>
      <trkpt lat="42.91879" lon="2.9113">
        <ele>251.8</ele>
        <time>2025-07-19T05:06:03Z</time>
      </trkpt>
      <trkpt lat="42.91854" lon="2.91127">
        <ele>251.8</ele>
        <time>2025-07-19T05:06:11Z</time>
      </trkpt>
      <trkpt lat="42.91838" lon="2.91112">
        <ele>251.6</ele>
        <time>2025-07-19T05:06:16Z</time>
      </trkpt>
      <trkpt lat="42.91828" lon="2.911">
        <ele>251.6</ele>
        <time>2025-07-19T05:06:19Z</time>
      </trkpt>
      <trkpt lat="42.9182" lon="2.91094">
        <ele>251.6</ele>
        <time>2025-07-19T05:06:21Z</time>
      </trkpt>
      <trkpt lat="42.91814" lon="2.91091">
        <ele>251.4</ele>
        <time>2025-07-19T05:06:22Z</time>
      </trkpt>
      <trkpt lat="42.91809" lon="2.9109">
        <ele>251.4</ele>
        <time>2025-07-19T05:06:23Z</time>
      </trkpt>
      <trkpt lat="42.91795" lon="2.91092">
        <ele>251.2</ele>
        <time>2025-07-19T05:06:26Z</time>
      </trkpt>
      <trkpt lat="42.91768" lon="2.91093">
        <ele>250.8</ele>
        <time>2025-07-19T05:06:31Z</time>
      </trkpt>
      <trkpt lat="42.91755" lon="2.9109">
        <ele>250.4</ele>
        <time>2025-07-19T05:06:33Z</time>
      </trkpt>
      <trkpt lat="42.91744" lon="2.91086">
        <ele>250.2</ele>
        <time>2025-07-19T05:06:35Z</time>
      </trkpt>
      <trkpt lat="42.91724" lon="2.91073">
        <ele>249.8</ele>
        <time>2025-07-19T05:06:39Z</time>
      </trkpt>
      <trkpt lat="42.91711" lon="2.91063">
        <ele>249.8</ele>
        <time>2025-07-19T05:06:42Z</time>
      </trkpt>
      <trkpt lat="42.917" lon="2.91053">
        <ele>249.2</ele>
        <time>2025-07-19T05:06:44Z</time>
      </trkpt>
      <trkpt lat="42.91695" lon="2.91047">
        <ele>248.8</ele>
        <time>2025-07-19T05:06:45Z</time>
      </trkpt>
      <trkpt lat="42.91677" lon="2.91022">
        <ele>248</ele>
        <time>2025-07-19T05:06:49Z</time>
      </trkpt>
      <trkpt lat="42.91661" lon="2.91004">
        <ele>247.4</ele>
        <time>2025-07-19T05:06:52Z</time>
      </trkpt>
      <trkpt lat="42.91649" lon="2.90993">
        <ele>246.8</ele>
        <time>2025-07-19T05:06:54Z</time>
      </trkpt>
      <trkpt lat="42.91617" lon="2.90964">
        <ele>245.6</ele>
        <time>2025-07-19T05:06:59Z</time>
      </trkpt>
      <trkpt lat="42.91611" lon="2.90959">
        <ele>245.2</ele>
        <time>2025-07-19T05:07:00Z</time>
      </trkpt>
      <trkpt lat="42.91604" lon="2.90954">
        <ele>245</ele>
        <time>2025-07-19T05:07:01Z</time>
      </trkpt>
      <trkpt lat="42.9159" lon="2.90948">
        <ele>244.6</ele>
        <time>2025-07-19T05:07:03Z</time>
      </trkpt>
      <trkpt lat="42.91583" lon="2.90947">
        <ele>244.2</ele>
        <time>2025-07-19T05:07:04Z</time>
      </trkpt>
      <trkpt lat="42.91561" lon="2.90946">
        <ele>243.8</ele>
        <time>2025-07-19T05:07:07Z</time>
      </trkpt>
      <trkpt lat="42.91555" lon="2.90944">
        <ele>243.4</ele>
        <time>2025-07-19T05:07:08Z</time>
      </trkpt>
      <trkpt lat="42.91547" lon="2.90939">
        <ele>243.4</ele>
        <time>2025-07-19T05:07:09Z</time>
      </trkpt>
      <trkpt lat="42.9154" lon="2.90934">
        <ele>243.2</ele>
        <time>2025-07-19T05:07:10Z</time>
      </trkpt>
      <trkpt lat="42.91534" lon="2.9093">
        <ele>242.8</ele>
        <time>2025-07-19T05:07:11Z</time>
      </trkpt>
      <trkpt lat="42.9152" lon="2.90929">
        <ele>242.2</ele>
        <time>2025-07-19T05:07:13Z</time>
      </trkpt>
      <trkpt lat="42.91511" lon="2.90933">
        <ele>242</ele>
        <time>2025-07-19T05:07:14Z</time>
      </trkpt>
      <trkpt lat="42.91497" lon="2.90941">
        <ele>241.4</ele>
        <time>2025-07-19T05:07:16Z</time>
      </trkpt>
      <trkpt lat="42.91481" lon="2.90945">
        <ele>241</ele>
        <time>2025-07-19T05:07:18Z</time>
      </trkpt>
      <trkpt lat="42.91473" lon="2.90946">
        <ele>240.6</ele>
        <time>2025-07-19T05:07:19Z</time>
      </trkpt>
      <trkpt lat="42.91458" lon="2.90943">
        <ele>240.2</ele>
        <time>2025-07-19T05:07:21Z</time>
      </trkpt>
      <trkpt lat="42.91451" lon="2.90937">
        <ele>239.8</ele>
        <time>2025-07-19T05:07:22Z</time>
      </trkpt>
      <trkpt lat="42.91446" lon="2.90929">
        <ele>239.8</ele>
        <time>2025-07-19T05:07:23Z</time>
      </trkpt>
      <trkpt lat="42.91441" lon="2.90921">
        <ele>239.2</ele>
        <time>2025-07-19T05:07:24Z</time>
      </trkpt>
      <trkpt lat="42.91436" lon="2.90914">
        <ele>239</ele>
        <time>2025-07-19T05:07:25Z</time>
      </trkpt>
      <trkpt lat="42.9143" lon="2.9091">
        <ele>238.8</ele>
        <time>2025-07-19T05:07:26Z</time>
      </trkpt>
      <trkpt lat="42.91423" lon="2.9091">
        <ele>238.2</ele>
        <time>2025-07-19T05:07:27Z</time>
      </trkpt>
      <trkpt lat="42.91417" lon="2.90913">
        <ele>238.2</ele>
        <time>2025-07-19T05:07:28Z</time>
      </trkpt>
      <trkpt lat="42.91411" lon="2.90918">
        <ele>237.8</ele>
        <time>2025-07-19T05:07:29Z</time>
      </trkpt>
      <trkpt lat="42.91405" lon="2.90924">
        <ele>237.6</ele>
        <time>2025-07-19T05:07:30Z</time>
      </trkpt>
      <trkpt lat="42.91398" lon="2.90928">
        <ele>237.6</ele>
        <time>2025-07-19T05:07:31Z</time>
      </trkpt>
      <trkpt lat="42.91384" lon="2.90929">
        <ele>237.2</ele>
        <time>2025-07-19T05:07:33Z</time>
      </trkpt>
      <trkpt lat="42.91376" lon="2.90927">
        <ele>236.8</ele>
        <time>2025-07-19T05:07:34Z</time>
      </trkpt>
      <trkpt lat="42.91361" lon="2.90923">
        <ele>236.4</ele>
        <time>2025-07-19T05:07:36Z</time>
      </trkpt>
      <trkpt lat="42.91345" lon="2.90921">
        <ele>236</ele>
        <time>2025-07-19T05:07:38Z</time>
      </trkpt>
      <trkpt lat="42.91338" lon="2.90923">
        <ele>235.8</ele>
        <time>2025-07-19T05:07:39Z</time>
      </trkpt>
      <trkpt lat="42.91331" lon="2.90927">
        <ele>235.6</ele>
        <time>2025-07-19T05:07:40Z</time>
      </trkpt>
      <trkpt lat="42.91324" lon="2.90932">
        <ele>235.2</ele>
        <time>2025-07-19T05:07:41Z</time>
      </trkpt>
      <trkpt lat="42.91318" lon="2.90938">
        <ele>235</ele>
        <time>2025-07-19T05:07:42Z</time>
      </trkpt>
      <trkpt lat="42.91299" lon="2.90955">
        <ele>234.2</ele>
        <time>2025-07-19T05:07:45Z</time>
      </trkpt>
      <trkpt lat="42.91292" lon="2.9096">
        <ele>234</ele>
        <time>2025-07-19T05:07:46Z</time>
      </trkpt>
      <trkpt lat="42.91285" lon="2.90963">
        <ele>233.8</ele>
        <time>2025-07-19T05:07:47Z</time>
      </trkpt>
      <trkpt lat="42.91277" lon="2.90963">
        <ele>233.8</ele>
        <time>2025-07-19T05:07:48Z</time>
      </trkpt>
      <trkpt lat="42.91264" lon="2.90956">
        <ele>233.4</ele>
        <time>2025-07-19T05:07:50Z</time>
      </trkpt>
      <trkpt lat="42.91257" lon="2.90951">
        <ele>233</ele>
        <time>2025-07-19T05:07:51Z</time>
      </trkpt>
      <trkpt lat="42.91233" lon="2.90929">
        <ele>231.8</ele>
        <time>2025-07-19T05:07:55Z</time>
      </trkpt>
      <trkpt lat="42.91222" lon="2.90916">
        <ele>231.4</ele>
        <time>2025-07-19T05:07:57Z</time>
      </trkpt>
      <trkpt lat="42.9121" lon="2.90902">
        <ele>230.8</ele>
        <time>2025-07-19T05:07:59Z</time>
      </trkpt>
      <trkpt lat="42.91204" lon="2.90897">
        <ele>230.4</ele>
        <time>2025-07-19T05:08:00Z</time>
      </trkpt>
      <trkpt lat="42.9119" lon="2.9089">
        <ele>229.6</ele>
        <time>2025-07-19T05:08:02Z</time>
      </trkpt>
      <trkpt lat="42.91169" lon="2.90884">
        <ele>228</ele>
        <time>2025-07-19T05:08:05Z</time>
      </trkpt>
      <trkpt lat="42.91163" lon="2.90881">
        <ele>227.8</ele>
        <time>2025-07-19T05:08:06Z</time>
      </trkpt>
      <trkpt lat="42.91157" lon="2.90876">
        <ele>227.4</ele>
        <time>2025-07-19T05:08:07Z</time>
      </trkpt>
      <trkpt lat="42.91139" lon="2.9086">
        <ele>226.8</ele>
        <time>2025-07-19T05:08:10Z</time>
      </trkpt>
      <trkpt lat="42.91127" lon="2.90857">
        <ele>226.2</ele>
        <time>2025-07-19T05:08:12Z</time>
      </trkpt>
      <trkpt lat="42.91108" lon="2.90863">
        <ele>225.6</ele>
        <time>2025-07-19T05:08:15Z</time>
      </trkpt>
      <trkpt lat="42.91094" lon="2.90859">
        <ele>225.2</ele>
        <time>2025-07-19T05:08:17Z</time>
      </trkpt>
      <trkpt lat="42.91088" lon="2.90855">
        <ele>225.2</ele>
        <time>2025-07-19T05:08:18Z</time>
      </trkpt>
      <trkpt lat="42.91064" lon="2.90836">
        <ele>224.4</ele>
        <time>2025-07-19T05:08:22Z</time>
      </trkpt>
      <trkpt lat="42.91042" lon="2.90819">
        <ele>223.6</ele>
        <time>2025-07-19T05:08:26Z</time>
      </trkpt>
      <trkpt lat="42.91031" lon="2.90806">
        <ele>223.2</ele>
        <time>2025-07-19T05:08:28Z</time>
      </trkpt>
      <trkpt lat="42.91009" lon="2.90772">
        <ele>221.2</ele>
        <time>2025-07-19T05:08:33Z</time>
      </trkpt>
      <trkpt lat="42.91005" lon="2.90766">
        <ele>220.4</ele>
        <time>2025-07-19T05:08:34Z</time>
      </trkpt>
      <trkpt lat="42.90999" lon="2.90761">
        <ele>220.2</ele>
        <time>2025-07-19T05:08:35Z</time>
      </trkpt>
      <trkpt lat="42.90993" lon="2.90758">
        <ele>219.8</ele>
        <time>2025-07-19T05:08:36Z</time>
      </trkpt>
      <trkpt lat="42.9098" lon="2.90762">
        <ele>219.4</ele>
        <time>2025-07-19T05:08:38Z</time>
      </trkpt>
      <trkpt lat="42.90971" lon="2.90778">
        <ele>219.2</ele>
        <time>2025-07-19T05:08:40Z</time>
      </trkpt>
      <trkpt lat="42.90969" lon="2.90786">
        <ele>218.8</ele>
        <time>2025-07-19T05:08:41Z</time>
      </trkpt>
      <trkpt lat="42.90969" lon="2.90797">
        <ele>218.6</ele>
        <time>2025-07-19T05:08:42Z</time>
      </trkpt>
      <trkpt lat="42.90969" lon="2.9082">
        <ele>217.8</ele>
        <time>2025-07-19T05:08:45Z</time>
      </trkpt>
      <trkpt lat="42.90969" lon="2.90854">
        <ele>217.4</ele>
        <time>2025-07-19T05:08:50Z</time>
      </trkpt>
      <trkpt lat="42.90968" lon="2.9086">
        <ele>217.4</ele>
        <time>2025-07-19T05:08:51Z</time>
      </trkpt>
      <trkpt lat="42.90961" lon="2.90882">
        <ele>217.8</ele>
        <time>2025-07-19T05:08:55Z</time>
      </trkpt>
      <trkpt lat="42.90957" lon="2.90892">
        <ele>218.2</ele>
        <time>2025-07-19T05:08:57Z</time>
      </trkpt>
      <trkpt lat="42.90956" lon="2.90897">
        <ele>218.4</ele>
        <time>2025-07-19T05:08:58Z</time>
      </trkpt>
      <trkpt lat="42.90957" lon="2.90902">
        <ele>218.8</ele>
        <time>2025-07-19T05:08:59Z</time>
      </trkpt>
      <trkpt lat="42.90961" lon="2.90922">
        <ele>219.6</ele>
        <time>2025-07-19T05:09:03Z</time>
      </trkpt>
      <trkpt lat="42.90963" lon="2.90932">
        <ele>219.6</ele>
        <time>2025-07-19T05:09:05Z</time>
      </trkpt>
      <trkpt lat="42.90968" lon="2.90962">
        <ele>220.4</ele>
        <time>2025-07-19T05:09:11Z</time>
      </trkpt>
      <trkpt lat="42.90969" lon="2.9097">
        <ele>221.2</ele>
        <time>2025-07-19T05:09:13Z</time>
      </trkpt>
      <trkpt lat="42.9097" lon="2.90983">
        <ele>222.2</ele>
        <time>2025-07-19T05:09:16Z</time>
      </trkpt>
      <trkpt lat="42.90971" lon="2.90995">
        <ele>223</ele>
        <time>2025-07-19T05:09:19Z</time>
      </trkpt>
      <trkpt lat="42.90973" lon="2.91008">
        <ele>223.4</ele>
        <time>2025-07-19T05:09:22Z</time>
      </trkpt>
      <trkpt lat="42.90976" lon="2.91035">
        <ele>224</ele>
        <time>2025-07-19T05:09:28Z</time>
      </trkpt>
      <trkpt lat="42.90977" lon="2.91055">
        <ele>224.4</ele>
        <time>2025-07-19T05:09:33Z</time>
      </trkpt>
      <trkpt lat="42.90978" lon="2.91063">
        <ele>224.6</ele>
        <time>2025-07-19T05:09:35Z</time>
      </trkpt>
      <trkpt lat="42.90981" lon="2.91081">
        <ele>226</ele>
        <time>2025-07-19T05:09:40Z</time>
      </trkpt>
      <trkpt lat="42.90983" lon="2.91089">
        <ele>226.8</ele>
        <time>2025-07-19T05:09:42Z</time>
      </trkpt>
      <trkpt lat="42.90983" lon="2.91092">
        <ele>227</ele>
        <time>2025-07-19T05:09:43Z</time>
      </trkpt>
      <trkpt lat="42.90988" lon="2.91111">
        <ele>228</ele>
        <time>2025-07-19T05:09:48Z</time>
      </trkpt>
      <trkpt lat="42.90991" lon="2.91123">
        <ele>228.6</ele>
        <time>2025-07-19T05:09:51Z</time>
      </trkpt>
      <trkpt lat="42.90995" lon="2.9114">
        <ele>229</ele>
        <time>2025-07-19T05:09:55Z</time>
      </trkpt>
      <trkpt lat="42.90999" lon="2.91156">
        <ele>229.8</ele>
        <time>2025-07-19T05:09:59Z</time>
      </trkpt>
      <trkpt lat="42.91" lon="2.91164">
        <ele>230.4</ele>
        <time>2025-07-19T05:10:01Z</time>
      </trkpt>
      <trkpt lat="42.91003" lon="2.91179">
        <ele>231.4</ele>
        <time>2025-07-19T05:10:05Z</time>
      </trkpt>
      <trkpt lat="42.91006" lon="2.91192">
        <ele>232</ele>
        <time>2025-07-19T05:10:08Z</time>
      </trkpt>
      <trkpt lat="42.91011" lon="2.91211">
        <ele>232.6</ele>
        <time>2025-07-19T05:10:13Z</time>
      </trkpt>
      <trkpt lat="42.91014" lon="2.9123">
        <ele>233</ele>
        <time>2025-07-19T05:10:18Z</time>
      </trkpt>
      <trkpt lat="42.91025" lon="2.91273">
        <ele>233.4</ele>
        <time>2025-07-19T05:10:29Z</time>
      </trkpt>
      <trkpt lat="42.9103" lon="2.91291">
        <ele>233.6</ele>
        <time>2025-07-19T05:10:34Z</time>
      </trkpt>
      <trkpt lat="42.91033" lon="2.91308">
        <ele>234.2</ele>
        <time>2025-07-19T05:10:38Z</time>
      </trkpt>
      <trkpt lat="42.91034" lon="2.91321">
        <ele>234.8</ele>
        <time>2025-07-19T05:10:41Z</time>
      </trkpt>
      <trkpt lat="42.91036" lon="2.91342">
        <ele>235.6</ele>
        <time>2025-07-19T05:10:47Z</time>
      </trkpt>
      <trkpt lat="42.91035" lon="2.9135">
        <ele>235.8</ele>
        <time>2025-07-19T05:10:49Z</time>
      </trkpt>
      <trkpt lat="42.91035" lon="2.91358">
        <ele>236</ele>
        <time>2025-07-19T05:10:52Z</time>
      </trkpt>
      <trkpt lat="42.91035" lon="2.91359">
        <ele>236</ele>
        <time>2025-07-19T05:10:54Z</time>
      </trkpt>
      <trkpt lat="42.91035" lon="2.91362">
        <ele>237.4</ele>
        <time>2025-07-19T05:12:48Z</time>
      </trkpt>
      <trkpt lat="42.91032" lon="2.91389">
        <ele>238</ele>
        <time>2025-07-19T05:12:55Z</time>
      </trkpt>
      <trkpt lat="42.91035" lon="2.91408">
        <ele>238.6</ele>
        <time>2025-07-19T05:12:59Z</time>
      </trkpt>
      <trkpt lat="42.91038" lon="2.91419">
        <ele>239</ele>
        <time>2025-07-19T05:13:01Z</time>
      </trkpt>
      <trkpt lat="42.9104" lon="2.9143">
        <ele>239.6</ele>
        <time>2025-07-19T05:13:03Z</time>
      </trkpt>
      <trkpt lat="42.91041" lon="2.91436">
        <ele>239.8</ele>
        <time>2025-07-19T05:13:04Z</time>
      </trkpt>
      <trkpt lat="42.91042" lon="2.91457">
        <ele>240.2</ele>
        <time>2025-07-19T05:13:08Z</time>
      </trkpt>
      <trkpt lat="42.9104" lon="2.91472">
        <ele>241</ele>
        <time>2025-07-19T05:13:11Z</time>
      </trkpt>
      <trkpt lat="42.91036" lon="2.9149">
        <ele>241.8</ele>
        <time>2025-07-19T05:13:15Z</time>
      </trkpt>
      <trkpt lat="42.91033" lon="2.91499">
        <ele>242.4</ele>
        <time>2025-07-19T05:13:17Z</time>
      </trkpt>
      <trkpt lat="42.91025" lon="2.91521">
        <ele>243.4</ele>
        <time>2025-07-19T05:13:22Z</time>
      </trkpt>
      <trkpt lat="42.91021" lon="2.91529">
        <ele>243.6</ele>
        <time>2025-07-19T05:13:24Z</time>
      </trkpt>
      <trkpt lat="42.91012" lon="2.9155">
        <ele>245</ele>
        <time>2025-07-19T05:13:29Z</time>
      </trkpt>
      <trkpt lat="42.91004" lon="2.91567">
        <ele>245.6</ele>
        <time>2025-07-19T05:13:33Z</time>
      </trkpt>
      <trkpt lat="42.90997" lon="2.91578">
        <ele>246</ele>
        <time>2025-07-19T05:13:36Z</time>
      </trkpt>
      <trkpt lat="42.90983" lon="2.91604">
        <ele>246</ele>
        <time>2025-07-19T05:13:42Z</time>
      </trkpt>
      <trkpt lat="42.90969" lon="2.91618">
        <ele>246.2</ele>
        <time>2025-07-19T05:13:46Z</time>
      </trkpt>
      <trkpt lat="42.90964" lon="2.91618">
        <ele>246.2</ele>
        <time>2025-07-19T05:13:47Z</time>
      </trkpt>
      <trkpt lat="42.90959" lon="2.91618">
        <ele>246.2</ele>
        <time>2025-07-19T05:13:48Z</time>
      </trkpt>
      <trkpt lat="42.90936" lon="2.9161">
        <ele>246.2</ele>
        <time>2025-07-19T05:13:52Z</time>
      </trkpt>
      <trkpt lat="42.90892" lon="2.91597">
        <ele>245.6</ele>
        <time>2025-07-19T05:13:59Z</time>
      </trkpt>
      <trkpt lat="42.90865" lon="2.91589">
        <ele>244.6</ele>
        <time>2025-07-19T05:14:03Z</time>
      </trkpt>
      <trkpt lat="42.90837" lon="2.9158">
        <ele>243.4</ele>
        <time>2025-07-19T05:14:07Z</time>
      </trkpt>
      <trkpt lat="42.90816" lon="2.91574">
        <ele>242.2</ele>
        <time>2025-07-19T05:14:10Z</time>
      </trkpt>
      <trkpt lat="42.90781" lon="2.91563">
        <ele>241.2</ele>
        <time>2025-07-19T05:14:15Z</time>
      </trkpt>
      <trkpt lat="42.90773" lon="2.91561">
        <ele>240.8</ele>
        <time>2025-07-19T05:14:16Z</time>
      </trkpt>
      <trkpt lat="42.90759" lon="2.91557">
        <ele>240</ele>
        <time>2025-07-19T05:14:18Z</time>
      </trkpt>
      <trkpt lat="42.90746" lon="2.91552">
        <ele>239.6</ele>
        <time>2025-07-19T05:14:20Z</time>
      </trkpt>
      <trkpt lat="42.90734" lon="2.91545">
        <ele>239</ele>
        <time>2025-07-19T05:14:22Z</time>
      </trkpt>
      <trkpt lat="42.90718" lon="2.91524">
        <ele>239.2</ele>
        <time>2025-07-19T05:14:26Z</time>
      </trkpt>
      <trkpt lat="42.9071" lon="2.9151">
        <ele>239.2</ele>
        <time>2025-07-19T05:14:29Z</time>
      </trkpt>
      <trkpt lat="42.90704" lon="2.91499">
        <ele>239.6</ele>
        <time>2025-07-19T05:14:32Z</time>
      </trkpt>
      <trkpt lat="42.90695" lon="2.91483">
        <ele>241</ele>
        <time>2025-07-19T05:14:36Z</time>
      </trkpt>
      <trkpt lat="42.90685" lon="2.91469">
        <ele>241.6</ele>
        <time>2025-07-19T05:14:40Z</time>
      </trkpt>
      <trkpt lat="42.90673" lon="2.91452">
        <ele>242.2</ele>
        <time>2025-07-19T05:14:45Z</time>
      </trkpt>
      <trkpt lat="42.90667" lon="2.91443">
        <ele>243</ele>
        <time>2025-07-19T05:14:48Z</time>
      </trkpt>
      <trkpt lat="42.90664" lon="2.91439">
        <ele>243.2</ele>
        <time>2025-07-19T05:14:49Z</time>
      </trkpt>
      <trkpt lat="42.90652" lon="2.91425">
        <ele>244.4</ele>
        <time>2025-07-19T05:14:54Z</time>
      </trkpt>
      <trkpt lat="42.90647" lon="2.91419">
        <ele>245</ele>
        <time>2025-07-19T05:14:56Z</time>
      </trkpt>
      <trkpt lat="42.90644" lon="2.91417">
        <ele>245.4</ele>
        <time>2025-07-19T05:14:57Z</time>
      </trkpt>
      <trkpt lat="42.90622" lon="2.91406">
        <ele>246.4</ele>
        <time>2025-07-19T05:15:04Z</time>
      </trkpt>
      <trkpt lat="42.90619" lon="2.91405">
        <ele>246.4</ele>
        <time>2025-07-19T05:15:05Z</time>
      </trkpt>
      <trkpt lat="42.90599" lon="2.91402">
        <ele>247.4</ele>
        <time>2025-07-19T05:15:11Z</time>
      </trkpt>
      <trkpt lat="42.90586" lon="2.91404">
        <ele>248.8</ele>
        <time>2025-07-19T05:15:15Z</time>
      </trkpt>
      <trkpt lat="42.90576" lon="2.91406">
        <ele>249.4</ele>
        <time>2025-07-19T05:15:18Z</time>
      </trkpt>
      <trkpt lat="42.90569" lon="2.91407">
        <ele>249.6</ele>
        <time>2025-07-19T05:15:20Z</time>
      </trkpt>
      <trkpt lat="42.90553" lon="2.91408">
        <ele>250.8</ele>
        <time>2025-07-19T05:15:25Z</time>
      </trkpt>
      <trkpt lat="42.90546" lon="2.91408">
        <ele>251.2</ele>
        <time>2025-07-19T05:15:27Z</time>
      </trkpt>
      <trkpt lat="42.90537" lon="2.91407">
        <ele>251.8</ele>
        <time>2025-07-19T05:15:30Z</time>
      </trkpt>
      <trkpt lat="42.90522" lon="2.91406">
        <ele>252.8</ele>
        <time>2025-07-19T05:15:35Z</time>
      </trkpt>
      <trkpt lat="42.90499" lon="2.91404">
        <ele>253.8</ele>
        <time>2025-07-19T05:15:42Z</time>
      </trkpt>
      <trkpt lat="42.90495" lon="2.91403">
        <ele>254</ele>
        <time>2025-07-19T05:15:43Z</time>
      </trkpt>
      <trkpt lat="42.90481" lon="2.91405">
        <ele>255.2</ele>
        <time>2025-07-19T05:15:48Z</time>
      </trkpt>
      <trkpt lat="42.90473" lon="2.91406">
        <ele>256.2</ele>
        <time>2025-07-19T05:15:51Z</time>
      </trkpt>
      <trkpt lat="42.90462" lon="2.91406">
        <ele>257.2</ele>
        <time>2025-07-19T05:15:55Z</time>
      </trkpt>
      <trkpt lat="42.90454" lon="2.91407">
        <ele>258</ele>
        <time>2025-07-19T05:15:58Z</time>
      </trkpt>
      <trkpt lat="42.9044" lon="2.91408">
        <ele>258.4</ele>
        <time>2025-07-19T05:16:03Z</time>
      </trkpt>
      <trkpt lat="42.90428" lon="2.91409">
        <ele>258.6</ele>
        <time>2025-07-19T05:16:07Z</time>
      </trkpt>
      <trkpt lat="42.90398" lon="2.91411">
        <ele>259.4</ele>
        <time>2025-07-19T05:16:17Z</time>
      </trkpt>
      <trkpt lat="42.90386" lon="2.91411">
        <ele>260.6</ele>
        <time>2025-07-19T05:16:21Z</time>
      </trkpt>
      <trkpt lat="42.90374" lon="2.91411">
        <ele>261.4</ele>
        <time>2025-07-19T05:16:25Z</time>
      </trkpt>
      <trkpt lat="42.90367" lon="2.9141">
        <ele>261.8</ele>
        <time>2025-07-19T05:16:27Z</time>
      </trkpt>
      <trkpt lat="42.9035" lon="2.91411">
        <ele>262.6</ele>
        <time>2025-07-19T05:16:32Z</time>
      </trkpt>
      <trkpt lat="42.90344" lon="2.91411">
        <ele>262.8</ele>
        <time>2025-07-19T05:16:34Z</time>
      </trkpt>
      <trkpt lat="42.90328" lon="2.91415">
        <ele>263.2</ele>
        <time>2025-07-19T05:16:39Z</time>
      </trkpt>
      <trkpt lat="42.90312" lon="2.91423">
        <ele>264.2</ele>
        <time>2025-07-19T05:16:44Z</time>
      </trkpt>
      <trkpt lat="42.90299" lon="2.9143">
        <ele>265</ele>
        <time>2025-07-19T05:16:48Z</time>
      </trkpt>
      <trkpt lat="42.90278" lon="2.91444">
        <ele>266</ele>
        <time>2025-07-19T05:16:55Z</time>
      </trkpt>
      <trkpt lat="42.90271" lon="2.91446">
        <ele>266.2</ele>
        <time>2025-07-19T05:16:57Z</time>
      </trkpt>
      <trkpt lat="42.90251" lon="2.9145">
        <ele>266.4</ele>
        <time>2025-07-19T05:17:03Z</time>
      </trkpt>
      <trkpt lat="42.90214" lon="2.91457">
        <ele>267</ele>
        <time>2025-07-19T05:17:13Z</time>
      </trkpt>
      <trkpt lat="42.9021" lon="2.91458">
        <ele>267.2</ele>
        <time>2025-07-19T05:17:14Z</time>
      </trkpt>
      <trkpt lat="42.90187" lon="2.9146">
        <ele>267.6</ele>
        <time>2025-07-19T05:17:19Z</time>
      </trkpt>
      <trkpt lat="42.90182" lon="2.9146">
        <ele>267.6</ele>
        <time>2025-07-19T05:17:20Z</time>
      </trkpt>
      <trkpt lat="42.90144" lon="2.9146">
        <ele>266.8</ele>
        <time>2025-07-19T05:17:27Z</time>
      </trkpt>
      <trkpt lat="42.90124" lon="2.91461">
        <ele>266</ele>
        <time>2025-07-19T05:17:30Z</time>
      </trkpt>
      <trkpt lat="42.90111" lon="2.9146">
        <ele>265.6</ele>
        <time>2025-07-19T05:17:32Z</time>
      </trkpt>
      <trkpt lat="42.90104" lon="2.91458">
        <ele>265.6</ele>
        <time>2025-07-19T05:17:33Z</time>
      </trkpt>
      <trkpt lat="42.90098" lon="2.91454">
        <ele>265.2</ele>
        <time>2025-07-19T05:17:34Z</time>
      </trkpt>
      <trkpt lat="42.90093" lon="2.91449">
        <ele>265</ele>
        <time>2025-07-19T05:17:35Z</time>
      </trkpt>
      <trkpt lat="42.90087" lon="2.91442">
        <ele>264.6</ele>
        <time>2025-07-19T05:17:36Z</time>
      </trkpt>
      <trkpt lat="42.90071" lon="2.91424">
        <ele>264</ele>
        <time>2025-07-19T05:17:39Z</time>
      </trkpt>
      <trkpt lat="42.90064" lon="2.9142">
        <ele>263.8</ele>
        <time>2025-07-19T05:17:40Z</time>
      </trkpt>
      <trkpt lat="42.90057" lon="2.91417">
        <ele>263.6</ele>
        <time>2025-07-19T05:17:41Z</time>
      </trkpt>
      <trkpt lat="42.90042" lon="2.91417">
        <ele>263.2</ele>
        <time>2025-07-19T05:17:43Z</time>
      </trkpt>
      <trkpt lat="42.90034" lon="2.91418">
        <ele>263</ele>
        <time>2025-07-19T05:17:44Z</time>
      </trkpt>
      <trkpt lat="42.90026" lon="2.91419">
        <ele>262.4</ele>
        <time>2025-07-19T05:17:45Z</time>
      </trkpt>
      <trkpt lat="42.89986" lon="2.91424">
        <ele>261.2</ele>
        <time>2025-07-19T05:17:50Z</time>
      </trkpt>
      <trkpt lat="42.89978" lon="2.91423">
        <ele>261</ele>
        <time>2025-07-19T05:17:51Z</time>
      </trkpt>
      <trkpt lat="42.89971" lon="2.9142">
        <ele>260.4</ele>
        <time>2025-07-19T05:17:52Z</time>
      </trkpt>
      <trkpt lat="42.89958" lon="2.9141">
        <ele>259.8</ele>
        <time>2025-07-19T05:17:54Z</time>
      </trkpt>
      <trkpt lat="42.89949" lon="2.91395">
        <ele>259.2</ele>
        <time>2025-07-19T05:17:56Z</time>
      </trkpt>
      <trkpt lat="42.89945" lon="2.91386">
        <ele>259</ele>
        <time>2025-07-19T05:17:57Z</time>
      </trkpt>
      <trkpt lat="42.89938" lon="2.91368">
        <ele>258.4</ele>
        <time>2025-07-19T05:17:59Z</time>
      </trkpt>
      <trkpt lat="42.89921" lon="2.91324">
        <ele>257.4</ele>
        <time>2025-07-19T05:18:04Z</time>
      </trkpt>
      <trkpt lat="42.89914" lon="2.91308">
        <ele>256.8</ele>
        <time>2025-07-19T05:18:06Z</time>
      </trkpt>
      <trkpt lat="42.89909" lon="2.91298">
        <ele>256.2</ele>
        <time>2025-07-19T05:18:07Z</time>
      </trkpt>
      <trkpt lat="42.89898" lon="2.91283">
        <ele>255.6</ele>
        <time>2025-07-19T05:18:09Z</time>
      </trkpt>
      <trkpt lat="42.89893" lon="2.91275">
        <ele>255.2</ele>
        <time>2025-07-19T05:18:10Z</time>
      </trkpt>
      <trkpt lat="42.89879" lon="2.91253">
        <ele>254</ele>
        <time>2025-07-19T05:18:13Z</time>
      </trkpt>
      <trkpt lat="42.8987" lon="2.91237">
        <ele>253.4</ele>
        <time>2025-07-19T05:18:15Z</time>
      </trkpt>
      <trkpt lat="42.89867" lon="2.91229">
        <ele>253</ele>
        <time>2025-07-19T05:18:16Z</time>
      </trkpt>
      <trkpt lat="42.89865" lon="2.91221">
        <ele>252.8</ele>
        <time>2025-07-19T05:18:17Z</time>
      </trkpt>
      <trkpt lat="42.8986" lon="2.91194">
        <ele>252.2</ele>
        <time>2025-07-19T05:18:20Z</time>
      </trkpt>
      <trkpt lat="42.89855" lon="2.91168">
        <ele>251.8</ele>
        <time>2025-07-19T05:18:23Z</time>
      </trkpt>
      <trkpt lat="42.89852" lon="2.91134">
        <ele>251.6</ele>
        <time>2025-07-19T05:18:27Z</time>
      </trkpt>
      <trkpt lat="42.89852" lon="2.91092">
        <ele>250.8</ele>
        <time>2025-07-19T05:18:32Z</time>
      </trkpt>
      <trkpt lat="42.89853" lon="2.91075">
        <ele>250.4</ele>
        <time>2025-07-19T05:18:34Z</time>
      </trkpt>
      <trkpt lat="42.89858" lon="2.91059">
        <ele>250.2</ele>
        <time>2025-07-19T05:18:36Z</time>
      </trkpt>
      <trkpt lat="42.89862" lon="2.91053">
        <ele>250</ele>
        <time>2025-07-19T05:18:37Z</time>
      </trkpt>
      <trkpt lat="42.89866" lon="2.91047">
        <ele>250</ele>
        <time>2025-07-19T05:18:38Z</time>
      </trkpt>
      <trkpt lat="42.89875" lon="2.91037">
        <ele>249.8</ele>
        <time>2025-07-19T05:18:40Z</time>
      </trkpt>
      <trkpt lat="42.89882" lon="2.91024">
        <ele>249.4</ele>
        <time>2025-07-19T05:18:42Z</time>
      </trkpt>
      <trkpt lat="42.8989" lon="2.91003">
        <ele>248.8</ele>
        <time>2025-07-19T05:18:45Z</time>
      </trkpt>
      <trkpt lat="42.8989" lon="2.91003">
        <ele>248.4</ele>
        <time>2025-07-19T05:18:46Z</time>
      </trkpt>
      <trkpt lat="42.89892" lon="2.90989">
        <ele>248</ele>
        <time>2025-07-19T05:18:47Z</time>
      </trkpt>
      <trkpt lat="42.89895" lon="2.90975">
        <ele>247.8</ele>
        <time>2025-07-19T05:18:49Z</time>
      </trkpt>
      <trkpt lat="42.89895" lon="2.90961">
        <ele>247.6</ele>
        <time>2025-07-19T05:18:51Z</time>
      </trkpt>
      <trkpt lat="42.89894" lon="2.90954">
        <ele>247.6</ele>
        <time>2025-07-19T05:18:52Z</time>
      </trkpt>
      <trkpt lat="42.89892" lon="2.90947">
        <ele>247.6</ele>
        <time>2025-07-19T05:18:53Z</time>
      </trkpt>
      <trkpt lat="42.89886" lon="2.90936">
        <ele>247.6</ele>
        <time>2025-07-19T05:18:55Z</time>
      </trkpt>
      <trkpt lat="42.89883" lon="2.90931">
        <ele>247.6</ele>
        <time>2025-07-19T05:18:56Z</time>
      </trkpt>
      <trkpt lat="42.89857" lon="2.90909">
        <ele>247.6</ele>
        <time>2025-07-19T05:19:02Z</time>
      </trkpt>
      <trkpt lat="42.8982" lon="2.90882">
        <ele>247.4</ele>
        <time>2025-07-19T05:19:10Z</time>
      </trkpt>
      <trkpt lat="42.89811" lon="2.90876">
        <ele>247.2</ele>
        <time>2025-07-19T05:19:12Z</time>
      </trkpt>
      <trkpt lat="42.8977" lon="2.90849">
        <ele>247.6</ele>
        <time>2025-07-19T05:19:20Z</time>
      </trkpt>
      <trkpt lat="42.89729" lon="2.90819">
        <ele>247</ele>
        <time>2025-07-19T05:19:28Z</time>
      </trkpt>
      <trkpt lat="42.89708" lon="2.90804">
        <ele>246.6</ele>
        <time>2025-07-19T05:19:32Z</time>
      </trkpt>
      <trkpt lat="42.89691" lon="2.90792">
        <ele>245.8</ele>
        <time>2025-07-19T05:19:35Z</time>
      </trkpt>
      <trkpt lat="42.89685" lon="2.90788">
        <ele>245.4</ele>
        <time>2025-07-19T05:19:36Z</time>
      </trkpt>
      <trkpt lat="42.89661" lon="2.90771">
        <ele>244.4</ele>
        <time>2025-07-19T05:19:40Z</time>
      </trkpt>
      <trkpt lat="42.89655" lon="2.90766">
        <ele>244</ele>
        <time>2025-07-19T05:19:41Z</time>
      </trkpt>
      <trkpt lat="42.89621" lon="2.90743">
        <ele>243.4</ele>
        <time>2025-07-19T05:19:46Z</time>
      </trkpt>
      <trkpt lat="42.89614" lon="2.90738">
        <ele>243.2</ele>
        <time>2025-07-19T05:19:47Z</time>
      </trkpt>
      <trkpt lat="42.89594" lon="2.90723">
        <ele>241.6</ele>
        <time>2025-07-19T05:19:50Z</time>
      </trkpt>
      <trkpt lat="42.8958" lon="2.90713">
        <ele>240.4</ele>
        <time>2025-07-19T05:19:52Z</time>
      </trkpt>
      <trkpt lat="42.89572" lon="2.90708">
        <ele>239.8</ele>
        <time>2025-07-19T05:19:53Z</time>
      </trkpt>
      <trkpt lat="42.89558" lon="2.90696">
        <ele>239</ele>
        <time>2025-07-19T05:19:55Z</time>
      </trkpt>
      <trkpt lat="42.8954" lon="2.90674">
        <ele>237.8</ele>
        <time>2025-07-19T05:19:58Z</time>
      </trkpt>
      <trkpt lat="42.89519" lon="2.90641">
        <ele>236.2</ele>
        <time>2025-07-19T05:20:02Z</time>
      </trkpt>
      <trkpt lat="42.89499" lon="2.90608">
        <ele>235.2</ele>
        <time>2025-07-19T05:20:06Z</time>
      </trkpt>
      <trkpt lat="42.89484" lon="2.90584">
        <ele>233.6</ele>
        <time>2025-07-19T05:20:09Z</time>
      </trkpt>
      <trkpt lat="42.89469" lon="2.90561">
        <ele>232.2</ele>
        <time>2025-07-19T05:20:12Z</time>
      </trkpt>
      <trkpt lat="42.89464" lon="2.90553">
        <ele>232</ele>
        <time>2025-07-19T05:20:13Z</time>
      </trkpt>
      <trkpt lat="42.89448" lon="2.90532">
        <ele>231</ele>
        <time>2025-07-19T05:20:16Z</time>
      </trkpt>
      <trkpt lat="42.89433" lon="2.9051">
        <ele>229.6</ele>
        <time>2025-07-19T05:20:19Z</time>
      </trkpt>
      <trkpt lat="42.89422" lon="2.90496">
        <ele>229.2</ele>
        <time>2025-07-19T05:20:21Z</time>
      </trkpt>
      <trkpt lat="42.89412" lon="2.90481">
        <ele>228.4</ele>
        <time>2025-07-19T05:20:23Z</time>
      </trkpt>
      <trkpt lat="42.89397" lon="2.90459">
        <ele>227.4</ele>
        <time>2025-07-19T05:20:26Z</time>
      </trkpt>
      <trkpt lat="42.89387" lon="2.90444">
        <ele>227</ele>
        <time>2025-07-19T05:20:28Z</time>
      </trkpt>
      <trkpt lat="42.89382" lon="2.90437">
        <ele>226.4</ele>
        <time>2025-07-19T05:20:29Z</time>
      </trkpt>
      <trkpt lat="42.89361" lon="2.90408">
        <ele>225.2</ele>
        <time>2025-07-19T05:20:33Z</time>
      </trkpt>
      <trkpt lat="42.89343" lon="2.9039">
        <ele>224.2</ele>
        <time>2025-07-19T05:20:36Z</time>
      </trkpt>
      <trkpt lat="42.89336" lon="2.90384">
        <ele>223.8</ele>
        <time>2025-07-19T05:20:37Z</time>
      </trkpt>
      <trkpt lat="42.89324" lon="2.90372">
        <ele>222.6</ele>
        <time>2025-07-19T05:20:39Z</time>
      </trkpt>
      <trkpt lat="42.89305" lon="2.90355">
        <ele>221.4</ele>
        <time>2025-07-19T05:20:42Z</time>
      </trkpt>
      <trkpt lat="42.89287" lon="2.90342">
        <ele>221</ele>
        <time>2025-07-19T05:20:45Z</time>
      </trkpt>
      <trkpt lat="42.89268" lon="2.90329">
        <ele>220</ele>
        <time>2025-07-19T05:20:48Z</time>
      </trkpt>
      <trkpt lat="42.89241" lon="2.90311">
        <ele>218.8</ele>
        <time>2025-07-19T05:20:52Z</time>
      </trkpt>
      <trkpt lat="42.89212" lon="2.90292">
        <ele>217.8</ele>
        <time>2025-07-19T05:20:56Z</time>
      </trkpt>
      <trkpt lat="42.89177" lon="2.90267">
        <ele>216.4</ele>
        <time>2025-07-19T05:21:01Z</time>
      </trkpt>
      <trkpt lat="42.89155" lon="2.90252">
        <ele>215.2</ele>
        <time>2025-07-19T05:21:04Z</time>
      </trkpt>
      <trkpt lat="42.89146" lon="2.90247">
        <ele>215</ele>
        <time>2025-07-19T05:21:05Z</time>
      </trkpt>
      <trkpt lat="42.89138" lon="2.90243">
        <ele>214.6</ele>
        <time>2025-07-19T05:21:06Z</time>
      </trkpt>
      <trkpt lat="42.89113" lon="2.90236">
        <ele>214</ele>
        <time>2025-07-19T05:21:09Z</time>
      </trkpt>
      <trkpt lat="42.89088" lon="2.9023">
        <ele>213</ele>
        <time>2025-07-19T05:21:12Z</time>
      </trkpt>
      <trkpt lat="42.89047" lon="2.90221">
        <ele>211.8</ele>
        <time>2025-07-19T05:21:17Z</time>
      </trkpt>
      <trkpt lat="42.89033" lon="2.90213">
        <ele>210.8</ele>
        <time>2025-07-19T05:21:19Z</time>
      </trkpt>
      <trkpt lat="42.89028" lon="2.9021">
        <ele>210.6</ele>
        <time>2025-07-19T05:21:20Z</time>
      </trkpt>
      <trkpt lat="42.88994" lon="2.90187">
        <ele>210</ele>
        <time>2025-07-19T05:21:25Z</time>
      </trkpt>
      <trkpt lat="42.88959" lon="2.90166">
        <ele>209.4</ele>
        <time>2025-07-19T05:21:30Z</time>
      </trkpt>
      <trkpt lat="42.88938" lon="2.90152">
        <ele>209</ele>
        <time>2025-07-19T05:21:33Z</time>
      </trkpt>
      <trkpt lat="42.88893" lon="2.90129">
        <ele>208</ele>
        <time>2025-07-19T05:21:39Z</time>
      </trkpt>
      <trkpt lat="42.88886" lon="2.90126">
        <ele>207.8</ele>
        <time>2025-07-19T05:21:40Z</time>
      </trkpt>
      <trkpt lat="42.88855" lon="2.90116">
        <ele>207</ele>
        <time>2025-07-19T05:21:44Z</time>
      </trkpt>
      <trkpt lat="42.88839" lon="2.90114">
        <ele>206.4</ele>
        <time>2025-07-19T05:21:46Z</time>
      </trkpt>
      <trkpt lat="42.88831" lon="2.90112">
        <ele>205.8</ele>
        <time>2025-07-19T05:21:47Z</time>
      </trkpt>
      <trkpt lat="42.88822" lon="2.90109">
        <ele>205.4</ele>
        <time>2025-07-19T05:21:48Z</time>
      </trkpt>
      <trkpt lat="42.88807" lon="2.90099">
        <ele>205.2</ele>
        <time>2025-07-19T05:21:50Z</time>
      </trkpt>
      <trkpt lat="42.88783" lon="2.90071">
        <ele>204.6</ele>
        <time>2025-07-19T05:21:54Z</time>
      </trkpt>
      <trkpt lat="42.88777" lon="2.90064">
        <ele>204.6</ele>
        <time>2025-07-19T05:21:55Z</time>
      </trkpt>
      <trkpt lat="42.88743" lon="2.90022">
        <ele>203.8</ele>
        <time>2025-07-19T05:22:01Z</time>
      </trkpt>
      <trkpt lat="42.88727" lon="2.90002">
        <ele>203.2</ele>
        <time>2025-07-19T05:22:04Z</time>
      </trkpt>
      <trkpt lat="42.88714" lon="2.89988">
        <ele>202.6</ele>
        <time>2025-07-19T05:22:06Z</time>
      </trkpt>
      <trkpt lat="42.88696" lon="2.89976">
        <ele>202</ele>
        <time>2025-07-19T05:22:09Z</time>
      </trkpt>
      <trkpt lat="42.88673" lon="2.89967">
        <ele>201.4</ele>
        <time>2025-07-19T05:22:12Z</time>
      </trkpt>
      <trkpt lat="42.88646" lon="2.89957">
        <ele>200.8</ele>
        <time>2025-07-19T05:22:16Z</time>
      </trkpt>
      <trkpt lat="42.88619" lon="2.89947">
        <ele>200.4</ele>
        <time>2025-07-19T05:22:20Z</time>
      </trkpt>
      <trkpt lat="42.88583" lon="2.89934">
        <ele>199.6</ele>
        <time>2025-07-19T05:22:25Z</time>
      </trkpt>
      <trkpt lat="42.88568" lon="2.89929">
        <ele>199</ele>
        <time>2025-07-19T05:22:27Z</time>
      </trkpt>
      <trkpt lat="42.88525" lon="2.89914">
        <ele>198.2</ele>
        <time>2025-07-19T05:22:33Z</time>
      </trkpt>
      <trkpt lat="42.88518" lon="2.89912">
        <ele>197.8</ele>
        <time>2025-07-19T05:22:34Z</time>
      </trkpt>
      <trkpt lat="42.88493" lon="2.89907">
        <ele>197</ele>
        <time>2025-07-19T05:22:37Z</time>
      </trkpt>
      <trkpt lat="42.88477" lon="2.89905">
        <ele>196.4</ele>
        <time>2025-07-19T05:22:39Z</time>
      </trkpt>
      <trkpt lat="42.88461" lon="2.89903">
        <ele>195.8</ele>
        <time>2025-07-19T05:22:41Z</time>
      </trkpt>
      <trkpt lat="42.8843" lon="2.89899">
        <ele>194.6</ele>
        <time>2025-07-19T05:22:45Z</time>
      </trkpt>
      <trkpt lat="42.88415" lon="2.89894">
        <ele>194</ele>
        <time>2025-07-19T05:22:47Z</time>
      </trkpt>
      <trkpt lat="42.88402" lon="2.89886">
        <ele>193.8</ele>
        <time>2025-07-19T05:22:49Z</time>
      </trkpt>
      <trkpt lat="42.88388" lon="2.89874">
        <ele>193.6</ele>
        <time>2025-07-19T05:22:51Z</time>
      </trkpt>
      <trkpt lat="42.88364" lon="2.89847">
        <ele>193.4</ele>
        <time>2025-07-19T05:22:55Z</time>
      </trkpt>
      <trkpt lat="42.88348" lon="2.89827">
        <ele>192.8</ele>
        <time>2025-07-19T05:22:58Z</time>
      </trkpt>
      <trkpt lat="42.88337" lon="2.89812">
        <ele>192.4</ele>
        <time>2025-07-19T05:23:00Z</time>
      </trkpt>
      <trkpt lat="42.88313" lon="2.89781">
        <ele>191.2</ele>
        <time>2025-07-19T05:23:04Z</time>
      </trkpt>
      <trkpt lat="42.88292" lon="2.89755">
        <ele>190.4</ele>
        <time>2025-07-19T05:23:07Z</time>
      </trkpt>
      <trkpt lat="42.8828" lon="2.8974">
        <ele>190.2</ele>
        <time>2025-07-19T05:23:09Z</time>
      </trkpt>
      <trkpt lat="42.88253" lon="2.89705">
        <ele>189.2</ele>
        <time>2025-07-19T05:23:13Z</time>
      </trkpt>
      <trkpt lat="42.88246" lon="2.89697">
        <ele>188.2</ele>
        <time>2025-07-19T05:23:14Z</time>
      </trkpt>
      <trkpt lat="42.88233" lon="2.89681">
        <ele>186.8</ele>
        <time>2025-07-19T05:23:16Z</time>
      </trkpt>
      <trkpt lat="42.88215" lon="2.89657">
        <ele>185.2</ele>
        <time>2025-07-19T05:23:19Z</time>
      </trkpt>
      <trkpt lat="42.88203" lon="2.89641">
        <ele>184.2</ele>
        <time>2025-07-19T05:23:21Z</time>
      </trkpt>
      <trkpt lat="42.88191" lon="2.89627">
        <ele>183</ele>
        <time>2025-07-19T05:23:23Z</time>
      </trkpt>
      <trkpt lat="42.88171" lon="2.89609">
        <ele>182</ele>
        <time>2025-07-19T05:23:26Z</time>
      </trkpt>
      <trkpt lat="42.88148" lon="2.89597">
        <ele>180.6</ele>
        <time>2025-07-19T05:23:29Z</time>
      </trkpt>
      <trkpt lat="42.8814" lon="2.89594">
        <ele>180.6</ele>
        <time>2025-07-19T05:23:30Z</time>
      </trkpt>
      <trkpt lat="42.88122" lon="2.89588">
        <ele>179.4</ele>
        <time>2025-07-19T05:23:32Z</time>
      </trkpt>
      <trkpt lat="42.88105" lon="2.89581">
        <ele>178.2</ele>
        <time>2025-07-19T05:23:34Z</time>
      </trkpt>
      <trkpt lat="42.88088" lon="2.89573">
        <ele>177.4</ele>
        <time>2025-07-19T05:23:36Z</time>
      </trkpt>
      <trkpt lat="42.88072" lon="2.89563">
        <ele>177.2</ele>
        <time>2025-07-19T05:23:38Z</time>
      </trkpt>
      <trkpt lat="42.88058" lon="2.89549">
        <ele>176.8</ele>
        <time>2025-07-19T05:23:40Z</time>
      </trkpt>
      <trkpt lat="42.88028" lon="2.89511">
        <ele>176</ele>
        <time>2025-07-19T05:23:45Z</time>
      </trkpt>
      <trkpt lat="42.88011" lon="2.8949">
        <ele>175.4</ele>
        <time>2025-07-19T05:23:48Z</time>
      </trkpt>
      <trkpt lat="42.87993" lon="2.89467">
        <ele>175</ele>
        <time>2025-07-19T05:23:51Z</time>
      </trkpt>
      <trkpt lat="42.87978" lon="2.89447">
        <ele>173.8</ele>
        <time>2025-07-19T05:23:54Z</time>
      </trkpt>
      <trkpt lat="42.87967" lon="2.89433">
        <ele>173.4</ele>
        <time>2025-07-19T05:23:56Z</time>
      </trkpt>
      <trkpt lat="42.8795" lon="2.89412">
        <ele>172.8</ele>
        <time>2025-07-19T05:23:59Z</time>
      </trkpt>
      <trkpt lat="42.87938" lon="2.89399">
        <ele>172.2</ele>
        <time>2025-07-19T05:24:01Z</time>
      </trkpt>
      <trkpt lat="42.87931" lon="2.89394">
        <ele>171.8</ele>
        <time>2025-07-19T05:24:02Z</time>
      </trkpt>
      <trkpt lat="42.87917" lon="2.89385">
        <ele>171.6</ele>
        <time>2025-07-19T05:24:04Z</time>
      </trkpt>
      <trkpt lat="42.87886" lon="2.89369">
        <ele>170.8</ele>
        <time>2025-07-19T05:24:08Z</time>
      </trkpt>
      <trkpt lat="42.8788" lon="2.89366">
        <ele>170.4</ele>
        <time>2025-07-19T05:24:09Z</time>
      </trkpt>
      <trkpt lat="42.87856" lon="2.89353">
        <ele>169.8</ele>
        <time>2025-07-19T05:24:12Z</time>
      </trkpt>
      <trkpt lat="42.87842" lon="2.89341">
        <ele>169.2</ele>
        <time>2025-07-19T05:24:14Z</time>
      </trkpt>
      <trkpt lat="42.87829" lon="2.89325">
        <ele>168</ele>
        <time>2025-07-19T05:24:16Z</time>
      </trkpt>
      <trkpt lat="42.87818" lon="2.89306">
        <ele>167</ele>
        <time>2025-07-19T05:24:18Z</time>
      </trkpt>
      <trkpt lat="42.87812" lon="2.89296">
        <ele>166.8</ele>
        <time>2025-07-19T05:24:19Z</time>
      </trkpt>
      <trkpt lat="42.87801" lon="2.89275">
        <ele>166.2</ele>
        <time>2025-07-19T05:24:21Z</time>
      </trkpt>
      <trkpt lat="42.87794" lon="2.89254">
        <ele>165.8</ele>
        <time>2025-07-19T05:24:23Z</time>
      </trkpt>
      <trkpt lat="42.87791" lon="2.89246">
        <ele>165.8</ele>
        <time>2025-07-19T05:24:24Z</time>
      </trkpt>
      <trkpt lat="42.87781" lon="2.89216">
        <ele>164.8</ele>
        <time>2025-07-19T05:24:27Z</time>
      </trkpt>
      <trkpt lat="42.8777" lon="2.89177">
        <ele>163.8</ele>
        <time>2025-07-19T05:24:31Z</time>
      </trkpt>
      <trkpt lat="42.87757" lon="2.89139">
        <ele>162.6</ele>
        <time>2025-07-19T05:24:35Z</time>
      </trkpt>
      <trkpt lat="42.87743" lon="2.89094">
        <ele>161.8</ele>
        <time>2025-07-19T05:24:40Z</time>
      </trkpt>
      <trkpt lat="42.87738" lon="2.89071">
        <ele>161.4</ele>
        <time>2025-07-19T05:24:43Z</time>
      </trkpt>
      <trkpt lat="42.87737" lon="2.89068">
        <ele>161.2</ele>
        <time>2025-07-19T05:24:44Z</time>
      </trkpt>
      <trkpt lat="42.87735" lon="2.89067">
        <ele>160.8</ele>
        <time>2025-07-19T05:24:47Z</time>
      </trkpt>
      <trkpt lat="42.87735" lon="2.89067">
        <ele>160.8</ele>
        <time>2025-07-19T05:24:48Z</time>
      </trkpt>
      <trkpt lat="42.87735" lon="2.89064">
        <ele>160.8</ele>
        <time>2025-07-19T05:25:26Z</time>
      </trkpt>
      <trkpt lat="42.87735" lon="2.89056">
        <ele>160.8</ele>
        <time>2025-07-19T05:25:28Z</time>
      </trkpt>
      <trkpt lat="42.87732" lon="2.89029">
        <ele>161</ele>
        <time>2025-07-19T05:25:34Z</time>
      </trkpt>
      <trkpt lat="42.87725" lon="2.88996">
        <ele>161.2</ele>
        <time>2025-07-19T05:25:40Z</time>
      </trkpt>
      <trkpt lat="42.87715" lon="2.88951">
        <ele>161.2</ele>
        <time>2025-07-19T05:25:48Z</time>
      </trkpt>
      <trkpt lat="42.87704" lon="2.88909">
        <ele>162</ele>
        <time>2025-07-19T05:25:55Z</time>
      </trkpt>
      <trkpt lat="42.87693" lon="2.88857">
        <ele>161.8</ele>
        <time>2025-07-19T05:26:04Z</time>
      </trkpt>
      <trkpt lat="42.8768" lon="2.88802">
        <ele>162.6</ele>
        <time>2025-07-19T05:26:13Z</time>
      </trkpt>
      <trkpt lat="42.8767" lon="2.88765">
        <ele>162.8</ele>
        <time>2025-07-19T05:26:19Z</time>
      </trkpt>
      <trkpt lat="42.87664" lon="2.88741">
        <ele>162.8</ele>
        <time>2025-07-19T05:26:23Z</time>
      </trkpt>
      <trkpt lat="42.87657" lon="2.88688">
        <ele>163.2</ele>
        <time>2025-07-19T05:26:31Z</time>
      </trkpt>
      <trkpt lat="42.87651" lon="2.88637">
        <ele>163.2</ele>
        <time>2025-07-19T05:26:39Z</time>
      </trkpt>
      <trkpt lat="42.87644" lon="2.88613">
        <ele>163.2</ele>
        <time>2025-07-19T05:26:43Z</time>
      </trkpt>
      <trkpt lat="42.8764" lon="2.886">
        <ele>163</ele>
        <time>2025-07-19T05:26:45Z</time>
      </trkpt>
      <trkpt lat="42.87626" lon="2.88549">
        <ele>163.2</ele>
        <time>2025-07-19T05:26:53Z</time>
      </trkpt>
      <trkpt lat="42.8761" lon="2.88505">
        <ele>163.2</ele>
        <time>2025-07-19T05:27:00Z</time>
      </trkpt>
      <trkpt lat="42.87588" lon="2.88458">
        <ele>163</ele>
        <time>2025-07-19T05:27:08Z</time>
      </trkpt>
      <trkpt lat="42.87567" lon="2.88407">
        <ele>162.8</ele>
        <time>2025-07-19T05:27:16Z</time>
      </trkpt>
      <trkpt lat="42.87544" lon="2.88363">
        <ele>161.8</ele>
        <time>2025-07-19T05:27:23Z</time>
      </trkpt>
      <trkpt lat="42.87541" lon="2.88356">
        <ele>161.8</ele>
        <time>2025-07-19T05:27:24Z</time>
      </trkpt>
      <trkpt lat="42.87513" lon="2.88296">
        <ele>161</ele>
        <time>2025-07-19T05:27:33Z</time>
      </trkpt>
      <trkpt lat="42.8751" lon="2.88289">
        <ele>160.8</ele>
        <time>2025-07-19T05:27:34Z</time>
      </trkpt>
      <trkpt lat="42.87484" lon="2.88244">
        <ele>160</ele>
        <time>2025-07-19T05:27:41Z</time>
      </trkpt>
      <trkpt lat="42.87474" lon="2.88223">
        <ele>160</ele>
        <time>2025-07-19T05:27:44Z</time>
      </trkpt>
      <trkpt lat="42.8747" lon="2.88208">
        <ele>159.8</ele>
        <time>2025-07-19T05:27:46Z</time>
      </trkpt>
      <trkpt lat="42.87467" lon="2.88192">
        <ele>159.8</ele>
        <time>2025-07-19T05:27:48Z</time>
      </trkpt>
      <trkpt lat="42.87452" lon="2.88148">
        <ele>159.6</ele>
        <time>2025-07-19T05:27:54Z</time>
      </trkpt>
      <trkpt lat="42.87427" lon="2.88093">
        <ele>159.6</ele>
        <time>2025-07-19T05:28:02Z</time>
      </trkpt>
      <trkpt lat="42.87404" lon="2.88057">
        <ele>158.8</ele>
        <time>2025-07-19T05:28:08Z</time>
      </trkpt>
      <trkpt lat="42.87393" lon="2.8804">
        <ele>158.8</ele>
        <time>2025-07-19T05:28:11Z</time>
      </trkpt>
      <trkpt lat="42.87389" lon="2.88034">
        <ele>158.8</ele>
        <time>2025-07-19T05:28:12Z</time>
      </trkpt>
      <trkpt lat="42.8737" lon="2.88015">
        <ele>158.6</ele>
        <time>2025-07-19T05:28:16Z</time>
      </trkpt>
      <trkpt lat="42.87343" lon="2.87984">
        <ele>158.4</ele>
        <time>2025-07-19T05:28:22Z</time>
      </trkpt>
      <trkpt lat="42.87311" lon="2.87923">
        <ele>158</ele>
        <time>2025-07-19T05:28:31Z</time>
      </trkpt>
      <trkpt lat="42.87308" lon="2.87916">
        <ele>157.8</ele>
        <time>2025-07-19T05:28:32Z</time>
      </trkpt>
      <trkpt lat="42.87281" lon="2.87862">
        <ele>157.6</ele>
        <time>2025-07-19T05:28:40Z</time>
      </trkpt>
      <trkpt lat="42.87252" lon="2.87799">
        <ele>157.2</ele>
        <time>2025-07-19T05:28:49Z</time>
      </trkpt>
      <trkpt lat="42.8725" lon="2.87794">
        <ele>156.8</ele>
        <time>2025-07-19T05:28:50Z</time>
      </trkpt>
      <trkpt lat="42.87248" lon="2.87787">
        <ele>156.8</ele>
        <time>2025-07-19T05:28:51Z</time>
      </trkpt>
      <trkpt lat="42.87231" lon="2.87738">
        <ele>155.8</ele>
        <time>2025-07-19T05:28:58Z</time>
      </trkpt>
      <trkpt lat="42.87217" lon="2.87697">
        <ele>155.8</ele>
        <time>2025-07-19T05:29:04Z</time>
      </trkpt>
      <trkpt lat="42.87211" lon="2.87678">
        <ele>155.8</ele>
        <time>2025-07-19T05:29:07Z</time>
      </trkpt>
      <trkpt lat="42.87193" lon="2.87629">
        <ele>156</ele>
        <time>2025-07-19T05:29:16Z</time>
      </trkpt>
      <trkpt lat="42.87185" lon="2.87607">
        <ele>156.4</ele>
        <time>2025-07-19T05:29:20Z</time>
      </trkpt>
      <trkpt lat="42.87181" lon="2.87596">
        <ele>156.6</ele>
        <time>2025-07-19T05:29:22Z</time>
      </trkpt>
      <trkpt lat="42.87179" lon="2.8759">
        <ele>157</ele>
        <time>2025-07-19T05:29:23Z</time>
      </trkpt>
      <trkpt lat="42.87167" lon="2.87555">
        <ele>157.8</ele>
        <time>2025-07-19T05:29:30Z</time>
      </trkpt>
      <trkpt lat="42.87163" lon="2.87545">
        <ele>158</ele>
        <time>2025-07-19T05:29:32Z</time>
      </trkpt>
      <trkpt lat="42.8716" lon="2.87536">
        <ele>158.4</ele>
        <time>2025-07-19T05:29:34Z</time>
      </trkpt>
      <trkpt lat="42.87152" lon="2.87517">
        <ele>158.8</ele>
        <time>2025-07-19T05:29:38Z</time>
      </trkpt>
      <trkpt lat="42.8715" lon="2.87509">
        <ele>159.2</ele>
        <time>2025-07-19T05:29:40Z</time>
      </trkpt>
      <trkpt lat="42.87142" lon="2.87488">
        <ele>160</ele>
        <time>2025-07-19T05:29:45Z</time>
      </trkpt>
      <trkpt lat="42.87139" lon="2.8748">
        <ele>160.2</ele>
        <time>2025-07-19T05:29:47Z</time>
      </trkpt>
      <trkpt lat="42.87131" lon="2.87454">
        <ele>161.2</ele>
        <time>2025-07-19T05:29:53Z</time>
      </trkpt>
      <trkpt lat="42.8713" lon="2.87451">
        <ele>161.2</ele>
        <time>2025-07-19T05:29:54Z</time>
      </trkpt>
      <trkpt lat="42.87122" lon="2.87429">
        <ele>162.2</ele>
        <time>2025-07-19T05:30:00Z</time>
      </trkpt>
      <trkpt lat="42.87121" lon="2.87426">
        <ele>162.4</ele>
        <time>2025-07-19T05:30:01Z</time>
      </trkpt>
      <trkpt lat="42.87118" lon="2.87414">
        <ele>162.6</ele>
        <time>2025-07-19T05:30:04Z</time>
      </trkpt>
      <trkpt lat="42.87113" lon="2.87393">
        <ele>163.4</ele>
        <time>2025-07-19T05:30:09Z</time>
      </trkpt>
      <trkpt lat="42.87112" lon="2.87388">
        <ele>163.6</ele>
        <time>2025-07-19T05:30:10Z</time>
      </trkpt>
      <trkpt lat="42.87102" lon="2.87358">
        <ele>164.6</ele>
        <time>2025-07-19T05:30:17Z</time>
      </trkpt>
      <trkpt lat="42.87099" lon="2.87351">
        <ele>165</ele>
        <time>2025-07-19T05:30:19Z</time>
      </trkpt>
      <trkpt lat="42.87089" lon="2.87327">
        <ele>165.6</ele>
        <time>2025-07-19T05:30:25Z</time>
      </trkpt>
      <trkpt lat="42.8708" lon="2.87303">
        <ele>165.8</ele>
        <time>2025-07-19T05:30:31Z</time>
      </trkpt>
      <trkpt lat="42.87079" lon="2.87285">
        <ele>166</ele>
        <time>2025-07-19T05:30:35Z</time>
      </trkpt>
      <trkpt lat="42.87085" lon="2.87259">
        <ele>166.2</ele>
        <time>2025-07-19T05:30:41Z</time>
      </trkpt>
      <trkpt lat="42.87096" lon="2.87239">
        <ele>166.4</ele>
        <time>2025-07-19T05:30:47Z</time>
      </trkpt>
      <trkpt lat="42.87103" lon="2.87231">
        <ele>166.8</ele>
        <time>2025-07-19T05:30:50Z</time>
      </trkpt>
      <trkpt lat="42.87105" lon="2.87225">
        <ele>166.8</ele>
        <time>2025-07-19T05:30:52Z</time>
      </trkpt>
      <trkpt lat="42.87111" lon="2.87212">
        <ele>167.6</ele>
        <time>2025-07-19T05:30:56Z</time>
      </trkpt>
      <trkpt lat="42.87112" lon="2.8721">
        <ele>167.8</ele>
        <time>2025-07-19T05:30:57Z</time>
      </trkpt>
      <trkpt lat="42.87112" lon="2.87208">
        <ele>167.8</ele>
        <time>2025-07-19T05:30:58Z</time>
      </trkpt>
      <trkpt lat="42.87112" lon="2.87208">
        <ele>168</ele>
        <time>2025-07-19T05:30:59Z</time>
      </trkpt>
      <trkpt lat="42.87112" lon="2.87208">
        <ele>168</ele>
        <time>2025-07-19T05:31:01Z</time>
      </trkpt>
      <trkpt lat="42.87108" lon="2.87215">
        <ele>168.2</ele>
        <time>2025-07-19T05:31:13Z</time>
      </trkpt>
      <trkpt lat="42.87107" lon="2.87218">
        <ele>168.2</ele>
        <time>2025-07-19T05:31:14Z</time>
      </trkpt>
      <trkpt lat="42.87098" lon="2.8723">
        <ele>167.8</ele>
        <time>2025-07-19T05:31:20Z</time>
      </trkpt>
      <trkpt lat="42.87096" lon="2.8723">
        <ele>167.8</ele>
        <time>2025-07-19T05:31:21Z</time>
      </trkpt>
      <trkpt lat="42.87095" lon="2.8723">
        <ele>167.8</ele>
        <time>2025-07-19T05:31:22Z</time>
      </trkpt>
      <trkpt lat="42.87091" lon="2.87229">
        <ele>167.6</ele>
        <time>2025-07-19T05:31:24Z</time>
      </trkpt>
      <trkpt lat="42.87079" lon="2.87217">
        <ele>168</ele>
        <time>2025-07-19T05:31:30Z</time>
      </trkpt>
      <trkpt lat="42.87063" lon="2.87205">
        <ele>168.8</ele>
        <time>2025-07-19T05:31:37Z</time>
      </trkpt>
      <trkpt lat="42.87057" lon="2.87201">
        <ele>168.8</ele>
        <time>2025-07-19T05:31:39Z</time>
      </trkpt>
      <trkpt lat="42.87042" lon="2.87195">
        <ele>168.8</ele>
        <time>2025-07-19T05:31:44Z</time>
      </trkpt>
      <trkpt lat="42.87029" lon="2.87188">
        <ele>167.6</ele>
        <time>2025-07-19T05:31:49Z</time>
      </trkpt>
      <trkpt lat="42.87026" lon="2.8719">
        <ele>167.2</ele>
        <time>2025-07-19T05:31:50Z</time>
      </trkpt>
      <trkpt lat="42.87017" lon="2.872">
        <ele>166.6</ele>
        <time>2025-07-19T05:31:53Z</time>
      </trkpt>
      <trkpt lat="42.87014" lon="2.87203">
        <ele>166.2</ele>
        <time>2025-07-19T05:31:55Z</time>
      </trkpt>
      <trkpt lat="42.87005" lon="2.87212">
        <ele>165.4</ele>
        <time>2025-07-19T05:31:59Z</time>
      </trkpt>
      <trkpt lat="42.87003" lon="2.87214">
        <ele>165.4</ele>
        <time>2025-07-19T05:32:00Z</time>
      </trkpt>
      <trkpt lat="42.8699" lon="2.87231">
        <ele>164.6</ele>
        <time>2025-07-19T05:32:05Z</time>
      </trkpt>
      <trkpt lat="42.86987" lon="2.87235">
        <ele>164.4</ele>
        <time>2025-07-19T05:32:06Z</time>
      </trkpt>
      <trkpt lat="42.86981" lon="2.87248">
        <ele>164</ele>
        <time>2025-07-19T05:32:09Z</time>
      </trkpt>
      <trkpt lat="42.86978" lon="2.87252">
        <ele>163.6</ele>
        <time>2025-07-19T05:32:11Z</time>
      </trkpt>
      <trkpt lat="42.86977" lon="2.87252">
        <ele>163.4</ele>
        <time>2025-07-19T05:32:12Z</time>
      </trkpt>
      <trkpt lat="42.86973" lon="2.87249">
        <ele>163</ele>
        <time>2025-07-19T05:32:14Z</time>
      </trkpt>
      <trkpt lat="42.86968" lon="2.87248">
        <ele>162.8</ele>
        <time>2025-07-19T05:32:16Z</time>
      </trkpt>
      <trkpt lat="42.86954" lon="2.87245">
        <ele>162.4</ele>
        <time>2025-07-19T05:32:21Z</time>
      </trkpt>
      <trkpt lat="42.86941" lon="2.87243">
        <ele>161.8</ele>
        <time>2025-07-19T05:32:26Z</time>
      </trkpt>
      <trkpt lat="42.86939" lon="2.87243">
        <ele>161.2</ele>
        <time>2025-07-19T05:32:29Z</time>
      </trkpt>
      <trkpt lat="42.86939" lon="2.87244">
        <ele>161</ele>
        <time>2025-07-19T05:33:01Z</time>
      </trkpt>
      <trkpt lat="42.86932" lon="2.87244">
        <ele>161</ele>
        <time>2025-07-19T05:33:04Z</time>
      </trkpt>
      <trkpt lat="42.86914" lon="2.87247">
        <ele>160.6</ele>
        <time>2025-07-19T05:33:11Z</time>
      </trkpt>
      <trkpt lat="42.86912" lon="2.87247">
        <ele>160.4</ele>
        <time>2025-07-19T05:33:12Z</time>
      </trkpt>
      <trkpt lat="42.86906" lon="2.87249">
        <ele>160.4</ele>
        <time>2025-07-19T05:33:15Z</time>
      </trkpt>
      <trkpt lat="42.8689" lon="2.87257">
        <ele>160</ele>
        <time>2025-07-19T05:33:20Z</time>
      </trkpt>
      <trkpt lat="42.86879" lon="2.87262">
        <ele>159.6</ele>
        <time>2025-07-19T05:33:23Z</time>
      </trkpt>
      <trkpt lat="42.86863" lon="2.87271">
        <ele>159.2</ele>
        <time>2025-07-19T05:33:27Z</time>
      </trkpt>
      <trkpt lat="42.86858" lon="2.87274">
        <ele>159.2</ele>
        <time>2025-07-19T05:33:28Z</time>
      </trkpt>
      <trkpt lat="42.86844" lon="2.87281">
        <ele>159</ele>
        <time>2025-07-19T05:33:31Z</time>
      </trkpt>
      <trkpt lat="42.86816" lon="2.87298">
        <ele>158.2</ele>
        <time>2025-07-19T05:33:37Z</time>
      </trkpt>
      <trkpt lat="42.86811" lon="2.87301">
        <ele>158</ele>
        <time>2025-07-19T05:33:38Z</time>
      </trkpt>
      <trkpt lat="42.86781" lon="2.87316">
        <ele>157.2</ele>
        <time>2025-07-19T05:33:44Z</time>
      </trkpt>
      <trkpt lat="42.86771" lon="2.87321">
        <ele>156.6</ele>
        <time>2025-07-19T05:33:46Z</time>
      </trkpt>
      <trkpt lat="42.86736" lon="2.87339">
        <ele>155.8</ele>
        <time>2025-07-19T05:33:53Z</time>
      </trkpt>
      <trkpt lat="42.86731" lon="2.87342">
        <ele>155.6</ele>
        <time>2025-07-19T05:33:54Z</time>
      </trkpt>
      <trkpt lat="42.8669" lon="2.87363">
        <ele>154.8</ele>
        <time>2025-07-19T05:34:02Z</time>
      </trkpt>
      <trkpt lat="42.86684" lon="2.87366">
        <ele>154.6</ele>
        <time>2025-07-19T05:34:03Z</time>
      </trkpt>
      <trkpt lat="42.86653" lon="2.87382">
        <ele>154</ele>
        <time>2025-07-19T05:34:10Z</time>
      </trkpt>
      <trkpt lat="42.86646" lon="2.87386">
        <ele>153.8</ele>
        <time>2025-07-19T05:34:12Z</time>
      </trkpt>
      <trkpt lat="42.86635" lon="2.8739">
        <ele>153.4</ele>
        <time>2025-07-19T05:34:16Z</time>
      </trkpt>
      <trkpt lat="42.86627" lon="2.87385">
        <ele>153.2</ele>
        <time>2025-07-19T05:34:20Z</time>
      </trkpt>
      <trkpt lat="42.86621" lon="2.87381">
        <ele>153.2</ele>
        <time>2025-07-19T05:34:23Z</time>
      </trkpt>
      <trkpt lat="42.86616" lon="2.87383">
        <ele>153.2</ele>
        <time>2025-07-19T05:34:25Z</time>
      </trkpt>
      <trkpt lat="42.8661" lon="2.87384">
        <ele>153.2</ele>
        <time>2025-07-19T05:34:30Z</time>
      </trkpt>
      <trkpt lat="42.86609" lon="2.87384">
        <ele>153.2</ele>
        <time>2025-07-19T05:34:33Z</time>
      </trkpt>
      <trkpt lat="42.86609" lon="2.87384">
        <ele>154.6</ele>
        <time>2025-07-19T05:42:16Z</time>
      </trkpt>
      <trkpt lat="42.86609" lon="2.87386">
        <ele>154.6</ele>
        <time>2025-07-19T05:42:17Z</time>
      </trkpt>
      <trkpt lat="42.86608" lon="2.8739">
        <ele>154.4</ele>
        <time>2025-07-19T05:42:23Z</time>
      </trkpt>
      <trkpt lat="42.86608" lon="2.87391">
        <ele>154.4</ele>
        <time>2025-07-19T05:42:24Z</time>
      </trkpt>
      <trkpt lat="42.86607" lon="2.87395">
        <ele>154.2</ele>
        <time>2025-07-19T05:42:34Z</time>
      </trkpt>
      <trkpt lat="42.86606" lon="2.874">
        <ele>154.2</ele>
        <time>2025-07-19T05:42:36Z</time>
      </trkpt>
      <trkpt lat="42.86597" lon="2.87416">
        <ele>154</ele>
        <time>2025-07-19T05:42:42Z</time>
      </trkpt>
      <trkpt lat="42.86579" lon="2.87426">
        <ele>154</ele>
        <time>2025-07-19T05:42:47Z</time>
      </trkpt>
      <trkpt lat="42.86569" lon="2.8743">
        <ele>154.2</ele>
        <time>2025-07-19T05:42:51Z</time>
      </trkpt>
      <trkpt lat="42.86569" lon="2.8743">
        <ele>154.2</ele>
        <time>2025-07-19T05:42:55Z</time>
      </trkpt>
      <trkpt lat="42.86567" lon="2.87431">
        <ele>153.8</ele>
        <time>2025-07-19T05:44:13Z</time>
      </trkpt>
      <trkpt lat="42.86563" lon="2.87435">
        <ele>153.8</ele>
        <time>2025-07-19T05:44:15Z</time>
      </trkpt>
      <trkpt lat="42.8656" lon="2.87437">
        <ele>153.8</ele>
        <time>2025-07-19T05:44:16Z</time>
      </trkpt>
      <trkpt lat="42.86545" lon="2.87449">
        <ele>153.8</ele>
        <time>2025-07-19T05:44:21Z</time>
      </trkpt>
      <trkpt lat="42.86523" lon="2.87464">
        <ele>153.8</ele>
        <time>2025-07-19T05:44:27Z</time>
      </trkpt>
      <trkpt lat="42.86519" lon="2.87467">
        <ele>153.8</ele>
        <time>2025-07-19T05:44:28Z</time>
      </trkpt>
      <trkpt lat="42.86486" lon="2.87494">
        <ele>154</ele>
        <time>2025-07-19T05:44:35Z</time>
      </trkpt>
      <trkpt lat="42.86446" lon="2.87524">
        <ele>153.8</ele>
        <time>2025-07-19T05:44:43Z</time>
      </trkpt>
      <trkpt lat="42.86399" lon="2.87559">
        <ele>153.6</ele>
        <time>2025-07-19T05:44:52Z</time>
      </trkpt>
      <trkpt lat="42.86352" lon="2.87596">
        <ele>154</ele>
        <time>2025-07-19T05:45:01Z</time>
      </trkpt>
      <trkpt lat="42.86347" lon="2.87602">
        <ele>154</ele>
        <time>2025-07-19T05:45:02Z</time>
      </trkpt>
      <trkpt lat="42.8634" lon="2.87613">
        <ele>154.4</ele>
        <time>2025-07-19T05:45:04Z</time>
      </trkpt>
      <trkpt lat="42.86335" lon="2.87623">
        <ele>154.8</ele>
        <time>2025-07-19T05:45:06Z</time>
      </trkpt>
      <trkpt lat="42.86331" lon="2.87636">
        <ele>155.2</ele>
        <time>2025-07-19T05:45:08Z</time>
      </trkpt>
      <trkpt lat="42.86327" lon="2.87652">
        <ele>155.8</ele>
        <time>2025-07-19T05:45:11Z</time>
      </trkpt>
      <trkpt lat="42.86324" lon="2.87664">
        <ele>156.2</ele>
        <time>2025-07-19T05:45:13Z</time>
      </trkpt>
      <trkpt lat="42.8632" lon="2.87685">
        <ele>156.8</ele>
        <time>2025-07-19T05:45:17Z</time>
      </trkpt>
      <trkpt lat="42.86318" lon="2.87694">
        <ele>157.2</ele>
        <time>2025-07-19T05:45:19Z</time>
      </trkpt>
      <trkpt lat="42.86313" lon="2.87715">
        <ele>158.2</ele>
        <time>2025-07-19T05:45:23Z</time>
      </trkpt>
      <trkpt lat="42.86313" lon="2.8772">
        <ele>158.4</ele>
        <time>2025-07-19T05:45:24Z</time>
      </trkpt>
      <trkpt lat="42.86305" lon="2.87754">
        <ele>159</ele>
        <time>2025-07-19T05:45:31Z</time>
      </trkpt>
      <trkpt lat="42.86304" lon="2.87759">
        <ele>159.4</ele>
        <time>2025-07-19T05:45:32Z</time>
      </trkpt>
      <trkpt lat="42.86296" lon="2.87783">
        <ele>160.4</ele>
        <time>2025-07-19T05:45:38Z</time>
      </trkpt>
      <trkpt lat="42.86294" lon="2.87787">
        <ele>160.6</ele>
        <time>2025-07-19T05:45:39Z</time>
      </trkpt>
      <trkpt lat="42.86288" lon="2.87809">
        <ele>161.4</ele>
        <time>2025-07-19T05:45:44Z</time>
      </trkpt>
      <trkpt lat="42.86268" lon="2.87836">
        <ele>162.6</ele>
        <time>2025-07-19T05:45:52Z</time>
      </trkpt>
      <trkpt lat="42.86245" lon="2.87857">
        <ele>163.6</ele>
        <time>2025-07-19T05:46:00Z</time>
      </trkpt>
      <trkpt lat="42.86229" lon="2.87866">
        <ele>164.8</ele>
        <time>2025-07-19T05:46:05Z</time>
      </trkpt>
      <trkpt lat="42.86219" lon="2.87868">
        <ele>165</ele>
        <time>2025-07-19T05:46:08Z</time>
      </trkpt>
      <trkpt lat="42.86202" lon="2.8787">
        <ele>166</ele>
        <time>2025-07-19T05:46:13Z</time>
      </trkpt>
      <trkpt lat="42.86195" lon="2.87869">
        <ele>166.4</ele>
        <time>2025-07-19T05:46:15Z</time>
      </trkpt>
      <trkpt lat="42.86189" lon="2.87868">
        <ele>167</ele>
        <time>2025-07-19T05:46:17Z</time>
      </trkpt>
      <trkpt lat="42.86164" lon="2.87858">
        <ele>168</ele>
        <time>2025-07-19T05:46:24Z</time>
      </trkpt>
      <trkpt lat="42.86161" lon="2.87856">
        <ele>168</ele>
        <time>2025-07-19T05:46:25Z</time>
      </trkpt>
      <trkpt lat="42.86133" lon="2.87826">
        <ele>169</ele>
        <time>2025-07-19T05:46:34Z</time>
      </trkpt>
      <trkpt lat="42.86128" lon="2.87818">
        <ele>169.2</ele>
        <time>2025-07-19T05:46:36Z</time>
      </trkpt>
      <trkpt lat="42.86112" lon="2.87792">
        <ele>169.6</ele>
        <time>2025-07-19T05:46:41Z</time>
      </trkpt>
      <trkpt lat="42.86091" lon="2.87751">
        <ele>169.8</ele>
        <time>2025-07-19T05:46:48Z</time>
      </trkpt>
      <trkpt lat="42.86063" lon="2.87689">
        <ele>169.2</ele>
        <time>2025-07-19T05:46:57Z</time>
      </trkpt>
      <trkpt lat="42.8605" lon="2.87637">
        <ele>168</ele>
        <time>2025-07-19T05:47:03Z</time>
      </trkpt>
      <trkpt lat="42.86047" lon="2.87628">
        <ele>167.8</ele>
        <time>2025-07-19T05:47:04Z</time>
      </trkpt>
      <trkpt lat="42.86035" lon="2.87612">
        <ele>167.4</ele>
        <time>2025-07-19T05:47:06Z</time>
      </trkpt>
      <trkpt lat="42.86027" lon="2.87606">
        <ele>167</ele>
        <time>2025-07-19T05:47:07Z</time>
      </trkpt>
      <trkpt lat="42.86021" lon="2.87603">
        <ele>166.6</ele>
        <time>2025-07-19T05:47:08Z</time>
      </trkpt>
      <trkpt lat="42.86013" lon="2.87601">
        <ele>166.4</ele>
        <time>2025-07-19T05:47:09Z</time>
      </trkpt>
      <trkpt lat="42.86003" lon="2.87599">
        <ele>166.2</ele>
        <time>2025-07-19T05:47:10Z</time>
      </trkpt>
      <trkpt lat="42.85995" lon="2.876">
        <ele>165.8</ele>
        <time>2025-07-19T05:47:11Z</time>
      </trkpt>
      <trkpt lat="42.8598" lon="2.87601">
        <ele>164.8</ele>
        <time>2025-07-19T05:47:13Z</time>
      </trkpt>
      <trkpt lat="42.85962" lon="2.87603">
        <ele>164.6</ele>
        <time>2025-07-19T05:47:15Z</time>
      </trkpt>
      <trkpt lat="42.85917" lon="2.8761">
        <ele>163.8</ele>
        <time>2025-07-19T05:47:21Z</time>
      </trkpt>
      <trkpt lat="42.85872" lon="2.87618">
        <ele>163.6</ele>
        <time>2025-07-19T05:47:27Z</time>
      </trkpt>
      <trkpt lat="42.85857" lon="2.8762">
        <ele>163.8</ele>
        <time>2025-07-19T05:47:29Z</time>
      </trkpt>
      <trkpt lat="42.85824" lon="2.87625">
        <ele>164.6</ele>
        <time>2025-07-19T05:47:35Z</time>
      </trkpt>
      <trkpt lat="42.85819" lon="2.87626">
        <ele>164.8</ele>
        <time>2025-07-19T05:47:36Z</time>
      </trkpt>
      <trkpt lat="42.858" lon="2.87628">
        <ele>166</ele>
        <time>2025-07-19T05:47:40Z</time>
      </trkpt>
      <trkpt lat="42.85793" lon="2.87629">
        <ele>166.6</ele>
        <time>2025-07-19T05:47:42Z</time>
      </trkpt>
      <trkpt lat="42.85785" lon="2.87631">
        <ele>167</ele>
        <time>2025-07-19T05:47:44Z</time>
      </trkpt>
      <trkpt lat="42.85771" lon="2.87635">
        <ele>168</ele>
        <time>2025-07-19T05:47:48Z</time>
      </trkpt>
      <trkpt lat="42.85768" lon="2.87636">
        <ele>168.6</ele>
        <time>2025-07-19T05:47:49Z</time>
      </trkpt>
      <trkpt lat="42.8576" lon="2.87639">
        <ele>169.4</ele>
        <time>2025-07-19T05:47:51Z</time>
      </trkpt>
      <trkpt lat="42.85746" lon="2.87643">
        <ele>170.4</ele>
        <time>2025-07-19T05:47:55Z</time>
      </trkpt>
      <trkpt lat="42.85739" lon="2.87645">
        <ele>170.8</ele>
        <time>2025-07-19T05:47:57Z</time>
      </trkpt>
      <trkpt lat="42.85731" lon="2.87647">
        <ele>171.4</ele>
        <time>2025-07-19T05:47:59Z</time>
      </trkpt>
      <trkpt lat="42.85705" lon="2.87652">
        <ele>172.6</ele>
        <time>2025-07-19T05:48:06Z</time>
      </trkpt>
      <trkpt lat="42.85682" lon="2.8765">
        <ele>173.8</ele>
        <time>2025-07-19T05:48:12Z</time>
      </trkpt>
      <trkpt lat="42.85678" lon="2.87649">
        <ele>173.8</ele>
        <time>2025-07-19T05:48:13Z</time>
      </trkpt>
      <trkpt lat="42.85663" lon="2.87645">
        <ele>174.8</ele>
        <time>2025-07-19T05:48:17Z</time>
      </trkpt>
      <trkpt lat="42.85641" lon="2.8764">
        <ele>175.6</ele>
        <time>2025-07-19T05:48:23Z</time>
      </trkpt>
      <trkpt lat="42.85624" lon="2.87637">
        <ele>176</ele>
        <time>2025-07-19T05:48:27Z</time>
      </trkpt>
      <trkpt lat="42.85614" lon="2.87638">
        <ele>176.2</ele>
        <time>2025-07-19T05:48:30Z</time>
      </trkpt>
      <trkpt lat="42.85578" lon="2.87641">
        <ele>176.8</ele>
        <time>2025-07-19T05:48:38Z</time>
      </trkpt>
      <trkpt lat="42.85558" lon="2.8764">
        <ele>176.8</ele>
        <time>2025-07-19T05:48:42Z</time>
      </trkpt>
      <trkpt lat="42.85546" lon="2.87636">
        <ele>176.8</ele>
        <time>2025-07-19T05:48:44Z</time>
      </trkpt>
      <trkpt lat="42.85507" lon="2.87614">
        <ele>176.8</ele>
        <time>2025-07-19T05:48:52Z</time>
      </trkpt>
      <trkpt lat="42.85481" lon="2.87591">
        <ele>176.8</ele>
        <time>2025-07-19T05:48:57Z</time>
      </trkpt>
      <trkpt lat="42.85445" lon="2.87557">
        <ele>176.4</ele>
        <time>2025-07-19T05:49:03Z</time>
      </trkpt>
      <trkpt lat="42.85432" lon="2.87551">
        <ele>176.2</ele>
        <time>2025-07-19T05:49:05Z</time>
      </trkpt>
      <trkpt lat="42.85417" lon="2.87549">
        <ele>175.6</ele>
        <time>2025-07-19T05:49:07Z</time>
      </trkpt>
      <trkpt lat="42.854" lon="2.87551">
        <ele>175.2</ele>
        <time>2025-07-19T05:49:09Z</time>
      </trkpt>
      <trkpt lat="42.85374" lon="2.87555">
        <ele>174.6</ele>
        <time>2025-07-19T05:49:12Z</time>
      </trkpt>
      <trkpt lat="42.85356" lon="2.87558">
        <ele>174</ele>
        <time>2025-07-19T05:49:14Z</time>
      </trkpt>
      <trkpt lat="42.85326" lon="2.87562">
        <ele>173</ele>
        <time>2025-07-19T05:49:17Z</time>
      </trkpt>
      <trkpt lat="42.85315" lon="2.87563">
        <ele>172.4</ele>
        <time>2025-07-19T05:49:18Z</time>
      </trkpt>
      <trkpt lat="42.85296" lon="2.87566">
        <ele>171.8</ele>
        <time>2025-07-19T05:49:20Z</time>
      </trkpt>
      <trkpt lat="42.85262" lon="2.87569">
        <ele>170.4</ele>
        <time>2025-07-19T05:49:23Z</time>
      </trkpt>
      <trkpt lat="42.85232" lon="2.87571">
        <ele>169</ele>
        <time>2025-07-19T05:49:26Z</time>
      </trkpt>
      <trkpt lat="42.8522" lon="2.87571">
        <ele>168.8</ele>
        <time>2025-07-19T05:49:27Z</time>
      </trkpt>
      <trkpt lat="42.85192" lon="2.87565">
        <ele>167.8</ele>
        <time>2025-07-19T05:49:30Z</time>
      </trkpt>
      <trkpt lat="42.85138" lon="2.87551">
        <ele>166.8</ele>
        <time>2025-07-19T05:49:36Z</time>
      </trkpt>
      <trkpt lat="42.85127" lon="2.87548">
        <ele>166.6</ele>
        <time>2025-07-19T05:49:37Z</time>
      </trkpt>
      <trkpt lat="42.85088" lon="2.87549">
        <ele>166.2</ele>
        <time>2025-07-19T05:49:41Z</time>
      </trkpt>
      <trkpt lat="42.85079" lon="2.87552">
        <ele>165.6</ele>
        <time>2025-07-19T05:49:42Z</time>
      </trkpt>
      <trkpt lat="42.8504" lon="2.87562">
        <ele>164.2</ele>
        <time>2025-07-19T05:49:46Z</time>
      </trkpt>
      <trkpt lat="42.85029" lon="2.87563">
        <ele>163.2</ele>
        <time>2025-07-19T05:49:47Z</time>
      </trkpt>
      <trkpt lat="42.85021" lon="2.87562">
        <ele>162.8</ele>
        <time>2025-07-19T05:49:48Z</time>
      </trkpt>
      <trkpt lat="42.8501" lon="2.8756">
        <ele>162</ele>
        <time>2025-07-19T05:49:49Z</time>
      </trkpt>
      <trkpt lat="42.84987" lon="2.87555">
        <ele>161.2</ele>
        <time>2025-07-19T05:49:51Z</time>
      </trkpt>
      <trkpt lat="42.84976" lon="2.87552">
        <ele>161.2</ele>
        <time>2025-07-19T05:49:52Z</time>
      </trkpt>
      <trkpt lat="42.84945" lon="2.87543">
        <ele>159.8</ele>
        <time>2025-07-19T05:49:55Z</time>
      </trkpt>
      <trkpt lat="42.84932" lon="2.8754">
        <ele>158.8</ele>
        <time>2025-07-19T05:49:56Z</time>
      </trkpt>
      <trkpt lat="42.84921" lon="2.87541">
        <ele>158.4</ele>
        <time>2025-07-19T05:49:57Z</time>
      </trkpt>
      <trkpt lat="42.84912" lon="2.87543">
        <ele>157.6</ele>
        <time>2025-07-19T05:49:58Z</time>
      </trkpt>
      <trkpt lat="42.84901" lon="2.87546">
        <ele>157</ele>
        <time>2025-07-19T05:49:59Z</time>
      </trkpt>
      <trkpt lat="42.84879" lon="2.87553">
        <ele>155.8</ele>
        <time>2025-07-19T05:50:01Z</time>
      </trkpt>
      <trkpt lat="42.84853" lon="2.8756">
        <ele>155.2</ele>
        <time>2025-07-19T05:50:04Z</time>
      </trkpt>
      <trkpt lat="42.84842" lon="2.87564">
        <ele>154.8</ele>
        <time>2025-07-19T05:50:05Z</time>
      </trkpt>
      <trkpt lat="42.8479" lon="2.87577">
        <ele>154.4</ele>
        <time>2025-07-19T05:50:11Z</time>
      </trkpt>
      <trkpt lat="42.84736" lon="2.87587">
        <ele>154.8</ele>
        <time>2025-07-19T05:50:18Z</time>
      </trkpt>
      <trkpt lat="42.84689" lon="2.87595">
        <ele>155.4</ele>
        <time>2025-07-19T05:50:25Z</time>
      </trkpt>
      <trkpt lat="42.84636" lon="2.87605">
        <ele>155.6</ele>
        <time>2025-07-19T05:50:33Z</time>
      </trkpt>
      <trkpt lat="42.84629" lon="2.87609">
        <ele>155.6</ele>
        <time>2025-07-19T05:50:34Z</time>
      </trkpt>
      <trkpt lat="42.84591" lon="2.8764">
        <ele>155</ele>
        <time>2025-07-19T05:50:40Z</time>
      </trkpt>
      <trkpt lat="42.84584" lon="2.87645">
        <ele>154.6</ele>
        <time>2025-07-19T05:50:41Z</time>
      </trkpt>
      <trkpt lat="42.84567" lon="2.8765">
        <ele>154.4</ele>
        <time>2025-07-19T05:50:43Z</time>
      </trkpt>
      <trkpt lat="42.84553" lon="2.87645">
        <ele>154.2</ele>
        <time>2025-07-19T05:50:45Z</time>
      </trkpt>
      <trkpt lat="42.84547" lon="2.87639">
        <ele>154</ele>
        <time>2025-07-19T05:50:46Z</time>
      </trkpt>
      <trkpt lat="42.8454" lon="2.87629">
        <ele>153.8</ele>
        <time>2025-07-19T05:50:47Z</time>
      </trkpt>
      <trkpt lat="42.84534" lon="2.8761">
        <ele>153.2</ele>
        <time>2025-07-19T05:50:49Z</time>
      </trkpt>
      <trkpt lat="42.84529" lon="2.87593">
        <ele>152.8</ele>
        <time>2025-07-19T05:50:51Z</time>
      </trkpt>
      <trkpt lat="42.84522" lon="2.87573">
        <ele>152.8</ele>
        <time>2025-07-19T05:50:53Z</time>
      </trkpt>
      <trkpt lat="42.84519" lon="2.87567">
        <ele>152.6</ele>
        <time>2025-07-19T05:50:54Z</time>
      </trkpt>
      <trkpt lat="42.84514" lon="2.87559">
        <ele>152.6</ele>
        <time>2025-07-19T05:50:55Z</time>
      </trkpt>
      <trkpt lat="42.84497" lon="2.87542">
        <ele>152.2</ele>
        <time>2025-07-19T05:50:58Z</time>
      </trkpt>
      <trkpt lat="42.84484" lon="2.87535">
        <ele>151.8</ele>
        <time>2025-07-19T05:51:00Z</time>
      </trkpt>
      <trkpt lat="42.84468" lon="2.8753">
        <ele>151.4</ele>
        <time>2025-07-19T05:51:02Z</time>
      </trkpt>
      <trkpt lat="42.84446" lon="2.87524">
        <ele>150.8</ele>
        <time>2025-07-19T05:51:05Z</time>
      </trkpt>
      <trkpt lat="42.84397" lon="2.8751">
        <ele>150</ele>
        <time>2025-07-19T05:51:11Z</time>
      </trkpt>
      <trkpt lat="42.84381" lon="2.87505">
        <ele>149.6</ele>
        <time>2025-07-19T05:51:13Z</time>
      </trkpt>
      <trkpt lat="42.84349" lon="2.87492">
        <ele>149</ele>
        <time>2025-07-19T05:51:17Z</time>
      </trkpt>
      <trkpt lat="42.84343" lon="2.87488">
        <ele>148.8</ele>
        <time>2025-07-19T05:51:18Z</time>
      </trkpt>
      <trkpt lat="42.84328" lon="2.87474">
        <ele>148</ele>
        <time>2025-07-19T05:51:20Z</time>
      </trkpt>
      <trkpt lat="42.84315" lon="2.87458">
        <ele>147.8</ele>
        <time>2025-07-19T05:51:22Z</time>
      </trkpt>
      <trkpt lat="42.84311" lon="2.87451">
        <ele>147.4</ele>
        <time>2025-07-19T05:51:23Z</time>
      </trkpt>
      <trkpt lat="42.84291" lon="2.87426">
        <ele>146.4</ele>
        <time>2025-07-19T05:51:26Z</time>
      </trkpt>
      <trkpt lat="42.84283" lon="2.87419">
        <ele>146.4</ele>
        <time>2025-07-19T05:51:27Z</time>
      </trkpt>
      <trkpt lat="42.84276" lon="2.87415">
        <ele>146.2</ele>
        <time>2025-07-19T05:51:28Z</time>
      </trkpt>
      <trkpt lat="42.84268" lon="2.87412">
        <ele>146</ele>
        <time>2025-07-19T05:51:29Z</time>
      </trkpt>
      <trkpt lat="42.84258" lon="2.87411">
        <ele>145.6</ele>
        <time>2025-07-19T05:51:30Z</time>
      </trkpt>
      <trkpt lat="42.84238" lon="2.87414">
        <ele>145.2</ele>
        <time>2025-07-19T05:51:32Z</time>
      </trkpt>
      <trkpt lat="42.84193" lon="2.87424">
        <ele>144</ele>
        <time>2025-07-19T05:51:37Z</time>
      </trkpt>
      <trkpt lat="42.84163" lon="2.87432">
        <ele>142.8</ele>
        <time>2025-07-19T05:51:40Z</time>
      </trkpt>
      <trkpt lat="42.84118" lon="2.87454">
        <ele>141.8</ele>
        <time>2025-07-19T05:51:45Z</time>
      </trkpt>
      <trkpt lat="42.84102" lon="2.87462">
        <ele>141.4</ele>
        <time>2025-07-19T05:51:47Z</time>
      </trkpt>
      <trkpt lat="42.84065" lon="2.87479">
        <ele>141</ele>
        <time>2025-07-19T05:51:51Z</time>
      </trkpt>
      <trkpt lat="42.84058" lon="2.87479">
        <ele>140.6</ele>
        <time>2025-07-19T05:51:52Z</time>
      </trkpt>
      <trkpt lat="42.84049" lon="2.87476">
        <ele>140.6</ele>
        <time>2025-07-19T05:51:53Z</time>
      </trkpt>
      <trkpt lat="42.84031" lon="2.87467">
        <ele>140.2</ele>
        <time>2025-07-19T05:51:55Z</time>
      </trkpt>
      <trkpt lat="42.84015" lon="2.87458">
        <ele>139.6</ele>
        <time>2025-07-19T05:51:57Z</time>
      </trkpt>
      <trkpt lat="42.83996" lon="2.87456">
        <ele>139</ele>
        <time>2025-07-19T05:51:59Z</time>
      </trkpt>
      <trkpt lat="42.8398" lon="2.87464">
        <ele>138.6</ele>
        <time>2025-07-19T05:52:01Z</time>
      </trkpt>
      <trkpt lat="42.83973" lon="2.87472">
        <ele>138.4</ele>
        <time>2025-07-19T05:52:02Z</time>
      </trkpt>
      <trkpt lat="42.83965" lon="2.87482">
        <ele>138</ele>
        <time>2025-07-19T05:52:03Z</time>
      </trkpt>
      <trkpt lat="42.83956" lon="2.87501">
        <ele>137.6</ele>
        <time>2025-07-19T05:52:05Z</time>
      </trkpt>
      <trkpt lat="42.83944" lon="2.87516">
        <ele>137.2</ele>
        <time>2025-07-19T05:52:07Z</time>
      </trkpt>
      <trkpt lat="42.83935" lon="2.87522">
        <ele>136.8</ele>
        <time>2025-07-19T05:52:08Z</time>
      </trkpt>
      <trkpt lat="42.83926" lon="2.87525">
        <ele>136.6</ele>
        <time>2025-07-19T05:52:09Z</time>
      </trkpt>
      <trkpt lat="42.83919" lon="2.87525">
        <ele>136.4</ele>
        <time>2025-07-19T05:52:10Z</time>
      </trkpt>
      <trkpt lat="42.839" lon="2.87526">
        <ele>136</ele>
        <time>2025-07-19T05:52:12Z</time>
      </trkpt>
      <trkpt lat="42.83872" lon="2.87525">
        <ele>135.2</ele>
        <time>2025-07-19T05:52:15Z</time>
      </trkpt>
      <trkpt lat="42.83854" lon="2.87514">
        <ele>134.6</ele>
        <time>2025-07-19T05:52:17Z</time>
      </trkpt>
      <trkpt lat="42.83848" lon="2.87504">
        <ele>133.8</ele>
        <time>2025-07-19T05:52:18Z</time>
      </trkpt>
      <trkpt lat="42.83844" lon="2.87492">
        <ele>133.6</ele>
        <time>2025-07-19T05:52:19Z</time>
      </trkpt>
      <trkpt lat="42.83838" lon="2.87458">
        <ele>132.2</ele>
        <time>2025-07-19T05:52:22Z</time>
      </trkpt>
      <trkpt lat="42.83835" lon="2.87443">
        <ele>131.6</ele>
        <time>2025-07-19T05:52:23Z</time>
      </trkpt>
      <trkpt lat="42.83832" lon="2.8743">
        <ele>131.2</ele>
        <time>2025-07-19T05:52:24Z</time>
      </trkpt>
      <trkpt lat="42.83823" lon="2.87393">
        <ele>129.6</ele>
        <time>2025-07-19T05:52:27Z</time>
      </trkpt>
      <trkpt lat="42.83817" lon="2.87371">
        <ele>128</ele>
        <time>2025-07-19T05:52:29Z</time>
      </trkpt>
      <trkpt lat="42.83814" lon="2.87359">
        <ele>127.4</ele>
        <time>2025-07-19T05:52:30Z</time>
      </trkpt>
      <trkpt lat="42.83806" lon="2.87334">
        <ele>126.4</ele>
        <time>2025-07-19T05:52:32Z</time>
      </trkpt>
      <trkpt lat="42.83799" lon="2.87308">
        <ele>125.4</ele>
        <time>2025-07-19T05:52:34Z</time>
      </trkpt>
      <trkpt lat="42.8379" lon="2.87279">
        <ele>124.2</ele>
        <time>2025-07-19T05:52:36Z</time>
      </trkpt>
      <trkpt lat="42.83778" lon="2.87241">
        <ele>122.8</ele>
        <time>2025-07-19T05:52:39Z</time>
      </trkpt>
      <trkpt lat="42.83775" lon="2.87227">
        <ele>122.6</ele>
        <time>2025-07-19T05:52:40Z</time>
      </trkpt>
      <trkpt lat="42.83772" lon="2.87209">
        <ele>122.2</ele>
        <time>2025-07-19T05:52:41Z</time>
      </trkpt>
      <trkpt lat="42.83772" lon="2.87194">
        <ele>121.8</ele>
        <time>2025-07-19T05:52:42Z</time>
      </trkpt>
      <trkpt lat="42.83773" lon="2.87183">
        <ele>121.2</ele>
        <time>2025-07-19T05:52:43Z</time>
      </trkpt>
      <trkpt lat="42.83776" lon="2.8717">
        <ele>120.8</ele>
        <time>2025-07-19T05:52:44Z</time>
      </trkpt>
      <trkpt lat="42.83788" lon="2.87147">
        <ele>119.8</ele>
        <time>2025-07-19T05:52:46Z</time>
      </trkpt>
      <trkpt lat="42.83793" lon="2.87129">
        <ele>118.6</ele>
        <time>2025-07-19T05:52:48Z</time>
      </trkpt>
      <trkpt lat="42.83789" lon="2.8711">
        <ele>117.8</ele>
        <time>2025-07-19T05:52:50Z</time>
      </trkpt>
      <trkpt lat="42.83783" lon="2.87105">
        <ele>116.8</ele>
        <time>2025-07-19T05:52:51Z</time>
      </trkpt>
      <trkpt lat="42.83775" lon="2.87104">
        <ele>116.6</ele>
        <time>2025-07-19T05:52:52Z</time>
      </trkpt>
      <trkpt lat="42.83769" lon="2.87107">
        <ele>116</ele>
        <time>2025-07-19T05:52:53Z</time>
      </trkpt>
      <trkpt lat="42.83763" lon="2.87114">
        <ele>115.8</ele>
        <time>2025-07-19T05:52:54Z</time>
      </trkpt>
      <trkpt lat="42.83749" lon="2.87132">
        <ele>115</ele>
        <time>2025-07-19T05:52:56Z</time>
      </trkpt>
      <trkpt lat="42.83741" lon="2.8714">
        <ele>114.8</ele>
        <time>2025-07-19T05:52:57Z</time>
      </trkpt>
      <trkpt lat="42.83734" lon="2.87145">
        <ele>114.4</ele>
        <time>2025-07-19T05:52:58Z</time>
      </trkpt>
      <trkpt lat="42.83713" lon="2.87156">
        <ele>113.6</ele>
        <time>2025-07-19T05:53:00Z</time>
      </trkpt>
      <trkpt lat="42.83703" lon="2.87159">
        <ele>113.4</ele>
        <time>2025-07-19T05:53:01Z</time>
      </trkpt>
      <trkpt lat="42.83683" lon="2.87161">
        <ele>112</ele>
        <time>2025-07-19T05:53:03Z</time>
      </trkpt>
      <trkpt lat="42.8367" lon="2.8716">
        <ele>111.6</ele>
        <time>2025-07-19T05:53:04Z</time>
      </trkpt>
      <trkpt lat="42.8366" lon="2.87155">
        <ele>110.6</ele>
        <time>2025-07-19T05:53:05Z</time>
      </trkpt>
      <trkpt lat="42.83651" lon="2.87146">
        <ele>110.2</ele>
        <time>2025-07-19T05:53:06Z</time>
      </trkpt>
      <trkpt lat="42.83636" lon="2.87126">
        <ele>109.2</ele>
        <time>2025-07-19T05:53:08Z</time>
      </trkpt>
      <trkpt lat="42.8362" lon="2.87099">
        <ele>107.4</ele>
        <time>2025-07-19T05:53:10Z</time>
      </trkpt>
      <trkpt lat="42.83607" lon="2.87077">
        <ele>106.4</ele>
        <time>2025-07-19T05:53:12Z</time>
      </trkpt>
      <trkpt lat="42.8359" lon="2.8705">
        <ele>105.6</ele>
        <time>2025-07-19T05:53:14Z</time>
      </trkpt>
      <trkpt lat="42.83583" lon="2.8704">
        <ele>105</ele>
        <time>2025-07-19T05:53:15Z</time>
      </trkpt>
      <trkpt lat="42.83567" lon="2.87016">
        <ele>103.2</ele>
        <time>2025-07-19T05:53:17Z</time>
      </trkpt>
      <trkpt lat="42.83552" lon="2.86993">
        <ele>101.6</ele>
        <time>2025-07-19T05:53:19Z</time>
      </trkpt>
      <trkpt lat="42.83547" lon="2.86982">
        <ele>101.2</ele>
        <time>2025-07-19T05:53:20Z</time>
      </trkpt>
      <trkpt lat="42.83544" lon="2.86969">
        <ele>100.4</ele>
        <time>2025-07-19T05:53:21Z</time>
      </trkpt>
      <trkpt lat="42.83543" lon="2.86956">
        <ele>99.8</ele>
        <time>2025-07-19T05:53:22Z</time>
      </trkpt>
      <trkpt lat="42.83545" lon="2.8694">
        <ele>99.2</ele>
        <time>2025-07-19T05:53:23Z</time>
      </trkpt>
      <trkpt lat="42.83547" lon="2.8693">
        <ele>97.8</ele>
        <time>2025-07-19T05:53:24Z</time>
      </trkpt>
      <trkpt lat="42.83548" lon="2.86915">
        <ele>97.4</ele>
        <time>2025-07-19T05:53:25Z</time>
      </trkpt>
      <trkpt lat="42.83547" lon="2.86906">
        <ele>96.6</ele>
        <time>2025-07-19T05:53:26Z</time>
      </trkpt>
      <trkpt lat="42.83544" lon="2.86896">
        <ele>96.2</ele>
        <time>2025-07-19T05:53:27Z</time>
      </trkpt>
      <trkpt lat="42.83536" lon="2.86887">
        <ele>95.6</ele>
        <time>2025-07-19T05:53:28Z</time>
      </trkpt>
      <trkpt lat="42.83529" lon="2.86884">
        <ele>95.2</ele>
        <time>2025-07-19T05:53:29Z</time>
      </trkpt>
      <trkpt lat="42.83511" lon="2.86881">
        <ele>94</ele>
        <time>2025-07-19T05:53:31Z</time>
      </trkpt>
      <trkpt lat="42.83483" lon="2.8688">
        <ele>92.8</ele>
        <time>2025-07-19T05:53:34Z</time>
      </trkpt>
      <trkpt lat="42.83464" lon="2.8688">
        <ele>91.6</ele>
        <time>2025-07-19T05:53:36Z</time>
      </trkpt>
      <trkpt lat="42.83454" lon="2.86882">
        <ele>91.4</ele>
        <time>2025-07-19T05:53:37Z</time>
      </trkpt>
      <trkpt lat="42.83444" lon="2.86886">
        <ele>90.6</ele>
        <time>2025-07-19T05:53:38Z</time>
      </trkpt>
      <trkpt lat="42.83433" lon="2.86893">
        <ele>90.4</ele>
        <time>2025-07-19T05:53:39Z</time>
      </trkpt>
      <trkpt lat="42.83426" lon="2.869">
        <ele>89.8</ele>
        <time>2025-07-19T05:53:40Z</time>
      </trkpt>
      <trkpt lat="42.83418" lon="2.8691">
        <ele>89.4</ele>
        <time>2025-07-19T05:53:41Z</time>
      </trkpt>
      <trkpt lat="42.83401" lon="2.86932">
        <ele>88</ele>
        <time>2025-07-19T05:53:43Z</time>
      </trkpt>
      <trkpt lat="42.83378" lon="2.8696">
        <ele>87</ele>
        <time>2025-07-19T05:53:46Z</time>
      </trkpt>
      <trkpt lat="42.83369" lon="2.86972">
        <ele>85.8</ele>
        <time>2025-07-19T05:53:47Z</time>
      </trkpt>
      <trkpt lat="42.83354" lon="2.86992">
        <ele>84.6</ele>
        <time>2025-07-19T05:53:49Z</time>
      </trkpt>
      <trkpt lat="42.83325" lon="2.87033">
        <ele>83.6</ele>
        <time>2025-07-19T05:53:53Z</time>
      </trkpt>
      <trkpt lat="42.83298" lon="2.87075">
        <ele>82.6</ele>
        <time>2025-07-19T05:53:57Z</time>
      </trkpt>
      <trkpt lat="42.83282" lon="2.87107">
        <ele>82.2</ele>
        <time>2025-07-19T05:54:00Z</time>
      </trkpt>
      <trkpt lat="42.83257" lon="2.87178">
        <ele>81.4</ele>
        <time>2025-07-19T05:54:06Z</time>
      </trkpt>
      <trkpt lat="42.83237" lon="2.87234">
        <ele>80.4</ele>
        <time>2025-07-19T05:54:11Z</time>
      </trkpt>
      <trkpt lat="42.83225" lon="2.87267">
        <ele>79.8</ele>
        <time>2025-07-19T05:54:14Z</time>
      </trkpt>
      <trkpt lat="42.8321" lon="2.87309">
        <ele>79.2</ele>
        <time>2025-07-19T05:54:18Z</time>
      </trkpt>
      <trkpt lat="42.83193" lon="2.87361">
        <ele>78.2</ele>
        <time>2025-07-19T05:54:23Z</time>
      </trkpt>
      <trkpt lat="42.8317" lon="2.87421">
        <ele>77</ele>
        <time>2025-07-19T05:54:29Z</time>
      </trkpt>
      <trkpt lat="42.83165" lon="2.87433">
        <ele>77</ele>
        <time>2025-07-19T05:54:30Z</time>
      </trkpt>
      <trkpt lat="42.83134" lon="2.87495">
        <ele>76.4</ele>
        <time>2025-07-19T05:54:37Z</time>
      </trkpt>
      <trkpt lat="42.83129" lon="2.87502">
        <ele>76.4</ele>
        <time>2025-07-19T05:54:38Z</time>
      </trkpt>
      <trkpt lat="42.83116" lon="2.87513">
        <ele>76.4</ele>
        <time>2025-07-19T05:54:40Z</time>
      </trkpt>
      <trkpt lat="42.83102" lon="2.87517">
        <ele>76.4</ele>
        <time>2025-07-19T05:54:42Z</time>
      </trkpt>
      <trkpt lat="42.83094" lon="2.87517">
        <ele>76.4</ele>
        <time>2025-07-19T05:54:43Z</time>
      </trkpt>
      <trkpt lat="42.83039" lon="2.87521">
        <ele>76.6</ele>
        <time>2025-07-19T05:54:50Z</time>
      </trkpt>
      <trkpt lat="42.83033" lon="2.87522">
        <ele>76.6</ele>
        <time>2025-07-19T05:54:51Z</time>
      </trkpt>
      <trkpt lat="42.83009" lon="2.87528">
        <ele>76.4</ele>
        <time>2025-07-19T05:54:54Z</time>
      </trkpt>
      <trkpt lat="42.82996" lon="2.87535">
        <ele>76.4</ele>
        <time>2025-07-19T05:54:56Z</time>
      </trkpt>
      <trkpt lat="42.82957" lon="2.87562">
        <ele>76.4</ele>
        <time>2025-07-19T05:55:02Z</time>
      </trkpt>
      <trkpt lat="42.82944" lon="2.87571">
        <ele>76.4</ele>
        <time>2025-07-19T05:55:04Z</time>
      </trkpt>
      <trkpt lat="42.82909" lon="2.87599">
        <ele>76.2</ele>
        <time>2025-07-19T05:55:09Z</time>
      </trkpt>
      <trkpt lat="42.82873" lon="2.87628">
        <ele>75.4</ele>
        <time>2025-07-19T05:55:14Z</time>
      </trkpt>
      <trkpt lat="42.82865" lon="2.87635">
        <ele>74.8</ele>
        <time>2025-07-19T05:55:15Z</time>
      </trkpt>
      <trkpt lat="42.82848" lon="2.87648">
        <ele>74</ele>
        <time>2025-07-19T05:55:17Z</time>
      </trkpt>
      <trkpt lat="42.82821" lon="2.87668">
        <ele>72.8</ele>
        <time>2025-07-19T05:55:20Z</time>
      </trkpt>
      <trkpt lat="42.82812" lon="2.87675">
        <ele>72.4</ele>
        <time>2025-07-19T05:55:21Z</time>
      </trkpt>
      <trkpt lat="42.82793" lon="2.87689">
        <ele>71.4</ele>
        <time>2025-07-19T05:55:23Z</time>
      </trkpt>
      <trkpt lat="42.82765" lon="2.87711">
        <ele>70.2</ele>
        <time>2025-07-19T05:55:26Z</time>
      </trkpt>
      <trkpt lat="42.82746" lon="2.87725">
        <ele>69</ele>
        <time>2025-07-19T05:55:28Z</time>
      </trkpt>
      <trkpt lat="42.82736" lon="2.87732">
        <ele>68.2</ele>
        <time>2025-07-19T05:55:29Z</time>
      </trkpt>
      <trkpt lat="42.82727" lon="2.87739">
        <ele>68</ele>
        <time>2025-07-19T05:55:30Z</time>
      </trkpt>
      <trkpt lat="42.82681" lon="2.87774">
        <ele>67</ele>
        <time>2025-07-19T05:55:35Z</time>
      </trkpt>
      <trkpt lat="42.82644" lon="2.87802">
        <ele>66</ele>
        <time>2025-07-19T05:55:39Z</time>
      </trkpt>
      <trkpt lat="42.8261" lon="2.87828">
        <ele>64.8</ele>
        <time>2025-07-19T05:55:43Z</time>
      </trkpt>
      <trkpt lat="42.82568" lon="2.87858">
        <ele>64.4</ele>
        <time>2025-07-19T05:55:48Z</time>
      </trkpt>
      <trkpt lat="42.82552" lon="2.87866">
        <ele>64.2</ele>
        <time>2025-07-19T05:55:50Z</time>
      </trkpt>
      <trkpt lat="42.82534" lon="2.87871">
        <ele>63.8</ele>
        <time>2025-07-19T05:55:52Z</time>
      </trkpt>
      <trkpt lat="42.82523" lon="2.87873">
        <ele>63.6</ele>
        <time>2025-07-19T05:55:53Z</time>
      </trkpt>
      <trkpt lat="42.82488" lon="2.87875">
        <ele>63.2</ele>
        <time>2025-07-19T05:55:57Z</time>
      </trkpt>
      <trkpt lat="42.82429" lon="2.87879">
        <ele>62.6</ele>
        <time>2025-07-19T05:56:04Z</time>
      </trkpt>
      <trkpt lat="42.8242" lon="2.8788">
        <ele>62.6</ele>
        <time>2025-07-19T05:56:05Z</time>
      </trkpt>
      <trkpt lat="42.82367" lon="2.87888">
        <ele>61.6</ele>
        <time>2025-07-19T05:56:11Z</time>
      </trkpt>
      <trkpt lat="42.82349" lon="2.87893">
        <ele>61.4</ele>
        <time>2025-07-19T05:56:13Z</time>
      </trkpt>
      <trkpt lat="42.82301" lon="2.87907">
        <ele>60.4</ele>
        <time>2025-07-19T05:56:18Z</time>
      </trkpt>
      <trkpt lat="42.8227" lon="2.87914">
        <ele>59.8</ele>
        <time>2025-07-19T05:56:21Z</time>
      </trkpt>
      <trkpt lat="42.82252" lon="2.87914">
        <ele>59.2</ele>
        <time>2025-07-19T05:56:23Z</time>
      </trkpt>
      <trkpt lat="42.82233" lon="2.87911">
        <ele>58.8</ele>
        <time>2025-07-19T05:56:25Z</time>
      </trkpt>
      <trkpt lat="42.82175" lon="2.87896">
        <ele>58.2</ele>
        <time>2025-07-19T05:56:31Z</time>
      </trkpt>
      <trkpt lat="42.82166" lon="2.87894">
        <ele>58</ele>
        <time>2025-07-19T05:56:32Z</time>
      </trkpt>
      <trkpt lat="42.82129" lon="2.87884">
        <ele>57.4</ele>
        <time>2025-07-19T05:56:36Z</time>
      </trkpt>
      <trkpt lat="42.82113" lon="2.87878">
        <ele>57</ele>
        <time>2025-07-19T05:56:38Z</time>
      </trkpt>
      <trkpt lat="42.82078" lon="2.87861">
        <ele>56.4</ele>
        <time>2025-07-19T05:56:42Z</time>
      </trkpt>
      <trkpt lat="42.82052" lon="2.87848">
        <ele>56</ele>
        <time>2025-07-19T05:56:45Z</time>
      </trkpt>
      <trkpt lat="42.82016" lon="2.87837">
        <ele>55.4</ele>
        <time>2025-07-19T05:56:49Z</time>
      </trkpt>
      <trkpt lat="42.81989" lon="2.87833">
        <ele>54.8</ele>
        <time>2025-07-19T05:56:52Z</time>
      </trkpt>
      <trkpt lat="42.81953" lon="2.8783">
        <ele>54.8</ele>
        <time>2025-07-19T05:56:56Z</time>
      </trkpt>
      <trkpt lat="42.81905" lon="2.87828">
        <ele>54.8</ele>
        <time>2025-07-19T05:57:02Z</time>
      </trkpt>
      <trkpt lat="42.81866" lon="2.87822">
        <ele>55</ele>
        <time>2025-07-19T05:57:07Z</time>
      </trkpt>
      <trkpt lat="42.81857" lon="2.87818">
        <ele>55</ele>
        <time>2025-07-19T05:57:08Z</time>
      </trkpt>
      <trkpt lat="42.81805" lon="2.87791">
        <ele>54.6</ele>
        <time>2025-07-19T05:57:15Z</time>
      </trkpt>
      <trkpt lat="42.8176" lon="2.87772">
        <ele>54.2</ele>
        <time>2025-07-19T05:57:21Z</time>
      </trkpt>
      <trkpt lat="42.81752" lon="2.87771">
        <ele>54</ele>
        <time>2025-07-19T05:57:22Z</time>
      </trkpt>
      <trkpt lat="42.81706" lon="2.87766">
        <ele>54</ele>
        <time>2025-07-19T05:57:28Z</time>
      </trkpt>
      <trkpt lat="42.81645" lon="2.87761">
        <ele>54.2</ele>
        <time>2025-07-19T05:57:36Z</time>
      </trkpt>
      <trkpt lat="42.81623" lon="2.87758">
        <ele>54.4</ele>
        <time>2025-07-19T05:57:39Z</time>
      </trkpt>
      <trkpt lat="42.81566" lon="2.87738">
        <ele>54.4</ele>
        <time>2025-07-19T05:57:47Z</time>
      </trkpt>
      <trkpt lat="42.81559" lon="2.87735">
        <ele>54.4</ele>
        <time>2025-07-19T05:57:48Z</time>
      </trkpt>
      <trkpt lat="42.81503" lon="2.87713">
        <ele>54.6</ele>
        <time>2025-07-19T05:57:56Z</time>
      </trkpt>
      <trkpt lat="42.81483" lon="2.87705">
        <ele>54.6</ele>
        <time>2025-07-19T05:57:59Z</time>
      </trkpt>
      <trkpt lat="42.81426" lon="2.87684">
        <ele>54.6</ele>
        <time>2025-07-19T05:58:07Z</time>
      </trkpt>
      <trkpt lat="42.81397" lon="2.87672">
        <ele>54.6</ele>
        <time>2025-07-19T05:58:11Z</time>
      </trkpt>
      <trkpt lat="42.8134" lon="2.87651">
        <ele>54.6</ele>
        <time>2025-07-19T05:58:19Z</time>
      </trkpt>
      <trkpt lat="42.81326" lon="2.87646">
        <ele>54.6</ele>
        <time>2025-07-19T05:58:21Z</time>
      </trkpt>
      <trkpt lat="42.8127" lon="2.87631">
        <ele>54.6</ele>
        <time>2025-07-19T05:58:29Z</time>
      </trkpt>
      <trkpt lat="42.81211" lon="2.87619">
        <ele>54.6</ele>
        <time>2025-07-19T05:58:37Z</time>
      </trkpt>
      <trkpt lat="42.81196" lon="2.87616">
        <ele>54.6</ele>
        <time>2025-07-19T05:58:39Z</time>
      </trkpt>
      <trkpt lat="42.81144" lon="2.87613">
        <ele>54.6</ele>
        <time>2025-07-19T05:58:46Z</time>
      </trkpt>
      <trkpt lat="42.8109" lon="2.87627">
        <ele>54.2</ele>
        <time>2025-07-19T05:58:53Z</time>
      </trkpt>
      <trkpt lat="42.81035" lon="2.87657">
        <ele>53.8</ele>
        <time>2025-07-19T05:59:01Z</time>
      </trkpt>
      <trkpt lat="42.81028" lon="2.87662">
        <ele>53.8</ele>
        <time>2025-07-19T05:59:02Z</time>
      </trkpt>
      <trkpt lat="42.80976" lon="2.87694">
        <ele>53</ele>
        <time>2025-07-19T05:59:09Z</time>
      </trkpt>
      <trkpt lat="42.80954" lon="2.87709">
        <ele>52.6</ele>
        <time>2025-07-19T05:59:12Z</time>
      </trkpt>
      <trkpt lat="42.80915" lon="2.87729">
        <ele>52.2</ele>
        <time>2025-07-19T05:59:17Z</time>
      </trkpt>
      <trkpt lat="42.80873" lon="2.87747">
        <ele>51.6</ele>
        <time>2025-07-19T05:59:22Z</time>
      </trkpt>
      <trkpt lat="42.80827" lon="2.87766">
        <ele>51</ele>
        <time>2025-07-19T05:59:28Z</time>
      </trkpt>
      <trkpt lat="42.8081" lon="2.87773">
        <ele>50.8</ele>
        <time>2025-07-19T05:59:30Z</time>
      </trkpt>
      <trkpt lat="42.80753" lon="2.87796">
        <ele>49.8</ele>
        <time>2025-07-19T05:59:37Z</time>
      </trkpt>
      <trkpt lat="42.80737" lon="2.87803">
        <ele>49.6</ele>
        <time>2025-07-19T05:59:39Z</time>
      </trkpt>
      <trkpt lat="42.80681" lon="2.87832">
        <ele>49.2</ele>
        <time>2025-07-19T05:59:46Z</time>
      </trkpt>
      <trkpt lat="42.80673" lon="2.87837">
        <ele>49</ele>
        <time>2025-07-19T05:59:47Z</time>
      </trkpt>
      <trkpt lat="42.80633" lon="2.87857">
        <ele>48.6</ele>
        <time>2025-07-19T05:59:52Z</time>
      </trkpt>
      <trkpt lat="42.80608" lon="2.87867">
        <ele>48.2</ele>
        <time>2025-07-19T05:59:55Z</time>
      </trkpt>
      <trkpt lat="42.8055" lon="2.87882">
        <ele>48</ele>
        <time>2025-07-19T06:00:02Z</time>
      </trkpt>
      <trkpt lat="42.80509" lon="2.8788">
        <ele>47.8</ele>
        <time>2025-07-19T06:00:07Z</time>
      </trkpt>
      <trkpt lat="42.80453" lon="2.87869">
        <ele>47.2</ele>
        <time>2025-07-19T06:00:14Z</time>
      </trkpt>
      <trkpt lat="42.80429" lon="2.87864">
        <ele>46.8</ele>
        <time>2025-07-19T06:00:17Z</time>
      </trkpt>
      <trkpt lat="42.80413" lon="2.87861">
        <ele>46.6</ele>
        <time>2025-07-19T06:00:19Z</time>
      </trkpt>
      <trkpt lat="42.80356" lon="2.8785">
        <ele>45.6</ele>
        <time>2025-07-19T06:00:26Z</time>
      </trkpt>
      <trkpt lat="42.80348" lon="2.87848">
        <ele>45.6</ele>
        <time>2025-07-19T06:00:27Z</time>
      </trkpt>
      <trkpt lat="42.8031" lon="2.87833">
        <ele>45.8</ele>
        <time>2025-07-19T06:00:32Z</time>
      </trkpt>
      <trkpt lat="42.80253" lon="2.87802">
        <ele>45.2</ele>
        <time>2025-07-19T06:00:40Z</time>
      </trkpt>
      <trkpt lat="42.80239" lon="2.87794">
        <ele>45.2</ele>
        <time>2025-07-19T06:00:42Z</time>
      </trkpt>
      <trkpt lat="42.80181" lon="2.87767">
        <ele>45</ele>
        <time>2025-07-19T06:00:50Z</time>
      </trkpt>
      <trkpt lat="42.80166" lon="2.87763">
        <ele>44.6</ele>
        <time>2025-07-19T06:00:52Z</time>
      </trkpt>
      <trkpt lat="42.8012" lon="2.87754">
        <ele>44</ele>
        <time>2025-07-19T06:00:58Z</time>
      </trkpt>
      <trkpt lat="42.80098" lon="2.87749">
        <ele>43.6</ele>
        <time>2025-07-19T06:01:01Z</time>
      </trkpt>
      <trkpt lat="42.80052" lon="2.87741">
        <ele>43</ele>
        <time>2025-07-19T06:01:07Z</time>
      </trkpt>
      <trkpt lat="42.8002" lon="2.87738">
        <ele>42.6</ele>
        <time>2025-07-19T06:01:11Z</time>
      </trkpt>
      <trkpt lat="42.80004" lon="2.87737">
        <ele>42.4</ele>
        <time>2025-07-19T06:01:13Z</time>
      </trkpt>
      <trkpt lat="42.79949" lon="2.87734">
        <ele>42</ele>
        <time>2025-07-19T06:01:20Z</time>
      </trkpt>
      <trkpt lat="42.79925" lon="2.87731">
        <ele>41.6</ele>
        <time>2025-07-19T06:01:23Z</time>
      </trkpt>
      <trkpt lat="42.79917" lon="2.8773">
        <ele>41.4</ele>
        <time>2025-07-19T06:01:24Z</time>
      </trkpt>
      <trkpt lat="42.79878" lon="2.87719">
        <ele>41</ele>
        <time>2025-07-19T06:01:29Z</time>
      </trkpt>
      <trkpt lat="42.79824" lon="2.87701">
        <ele>40.6</ele>
        <time>2025-07-19T06:01:36Z</time>
      </trkpt>
      <trkpt lat="42.79817" lon="2.87699">
        <ele>40.4</ele>
        <time>2025-07-19T06:01:37Z</time>
      </trkpt>
      <trkpt lat="42.79795" lon="2.87691">
        <ele>40.2</ele>
        <time>2025-07-19T06:01:40Z</time>
      </trkpt>
      <trkpt lat="42.79752" lon="2.87675">
        <ele>39.4</ele>
        <time>2025-07-19T06:01:46Z</time>
      </trkpt>
      <trkpt lat="42.79733" lon="2.87668">
        <ele>39.2</ele>
        <time>2025-07-19T06:01:49Z</time>
      </trkpt>
      <trkpt lat="42.7969" lon="2.87653">
        <ele>38.8</ele>
        <time>2025-07-19T06:01:56Z</time>
      </trkpt>
      <trkpt lat="42.79665" lon="2.87636">
        <ele>38.6</ele>
        <time>2025-07-19T06:02:00Z</time>
      </trkpt>
      <trkpt lat="42.79637" lon="2.87624">
        <ele>38.2</ele>
        <time>2025-07-19T06:02:04Z</time>
      </trkpt>
      <trkpt lat="42.7963" lon="2.87622">
        <ele>38.2</ele>
        <time>2025-07-19T06:02:05Z</time>
      </trkpt>
      <trkpt lat="42.79573" lon="2.876">
        <ele>37.8</ele>
        <time>2025-07-19T06:02:13Z</time>
      </trkpt>
      <trkpt lat="42.79566" lon="2.87597">
        <ele>37.6</ele>
        <time>2025-07-19T06:02:14Z</time>
      </trkpt>
      <trkpt lat="42.79544" lon="2.87588">
        <ele>37.4</ele>
        <time>2025-07-19T06:02:17Z</time>
      </trkpt>
      <trkpt lat="42.79493" lon="2.87568">
        <ele>36.8</ele>
        <time>2025-07-19T06:02:24Z</time>
      </trkpt>
      <trkpt lat="42.79473" lon="2.87558">
        <ele>36.6</ele>
        <time>2025-07-19T06:02:27Z</time>
      </trkpt>
      <trkpt lat="42.79461" lon="2.87547">
        <ele>36.6</ele>
        <time>2025-07-19T06:02:29Z</time>
      </trkpt>
      <trkpt lat="42.79455" lon="2.87542">
        <ele>36.6</ele>
        <time>2025-07-19T06:02:30Z</time>
      </trkpt>
      <trkpt lat="42.79441" lon="2.8754">
        <ele>36.4</ele>
        <time>2025-07-19T06:02:32Z</time>
      </trkpt>
      <trkpt lat="42.79429" lon="2.87546">
        <ele>36.4</ele>
        <time>2025-07-19T06:02:34Z</time>
      </trkpt>
      <trkpt lat="42.79422" lon="2.87549">
        <ele>36.2</ele>
        <time>2025-07-19T06:02:35Z</time>
      </trkpt>
      <trkpt lat="42.79407" lon="2.87549">
        <ele>36.2</ele>
        <time>2025-07-19T06:02:37Z</time>
      </trkpt>
      <trkpt lat="42.794" lon="2.87547">
        <ele>36.2</ele>
        <time>2025-07-19T06:02:38Z</time>
      </trkpt>
      <trkpt lat="42.79339" lon="2.87535">
        <ele>35.6</ele>
        <time>2025-07-19T06:02:46Z</time>
      </trkpt>
      <trkpt lat="42.79323" lon="2.87532">
        <ele>35.2</ele>
        <time>2025-07-19T06:02:48Z</time>
      </trkpt>
      <trkpt lat="42.79267" lon="2.87523">
        <ele>34.6</ele>
        <time>2025-07-19T06:02:55Z</time>
      </trkpt>
      <trkpt lat="42.7922" lon="2.87516">
        <ele>34.2</ele>
        <time>2025-07-19T06:03:01Z</time>
      </trkpt>
      <trkpt lat="42.79198" lon="2.87511">
        <ele>34</ele>
        <time>2025-07-19T06:03:04Z</time>
      </trkpt>
      <trkpt lat="42.79143" lon="2.87507">
        <ele>33.4</ele>
        <time>2025-07-19T06:03:11Z</time>
      </trkpt>
      <trkpt lat="42.79127" lon="2.87508">
        <ele>33.2</ele>
        <time>2025-07-19T06:03:13Z</time>
      </trkpt>
      <trkpt lat="42.79072" lon="2.87515">
        <ele>33</ele>
        <time>2025-07-19T06:03:20Z</time>
      </trkpt>
      <trkpt lat="42.79048" lon="2.87518">
        <ele>32.6</ele>
        <time>2025-07-19T06:03:23Z</time>
      </trkpt>
      <trkpt lat="42.79008" lon="2.87525">
        <ele>32.4</ele>
        <time>2025-07-19T06:03:28Z</time>
      </trkpt>
      <trkpt lat="42.7896" lon="2.87533">
        <ele>32</ele>
        <time>2025-07-19T06:03:34Z</time>
      </trkpt>
      <trkpt lat="42.78913" lon="2.8754">
        <ele>31.4</ele>
        <time>2025-07-19T06:03:40Z</time>
      </trkpt>
      <trkpt lat="42.78905" lon="2.87541">
        <ele>31.2</ele>
        <time>2025-07-19T06:03:41Z</time>
      </trkpt>
      <trkpt lat="42.78849" lon="2.87546">
        <ele>30.8</ele>
        <time>2025-07-19T06:03:48Z</time>
      </trkpt>
      <trkpt lat="42.78825" lon="2.87546">
        <ele>30.8</ele>
        <time>2025-07-19T06:03:51Z</time>
      </trkpt>
      <trkpt lat="42.7877" lon="2.87543">
        <ele>30.4</ele>
        <time>2025-07-19T06:03:58Z</time>
      </trkpt>
      <trkpt lat="42.78754" lon="2.87542">
        <ele>30.2</ele>
        <time>2025-07-19T06:04:00Z</time>
      </trkpt>
      <trkpt lat="42.78731" lon="2.8754">
        <ele>30.2</ele>
        <time>2025-07-19T06:04:03Z</time>
      </trkpt>
      <trkpt lat="42.7867" lon="2.87537">
        <ele>29.8</ele>
        <time>2025-07-19T06:04:11Z</time>
      </trkpt>
      <trkpt lat="42.78639" lon="2.87533">
        <ele>29.8</ele>
        <time>2025-07-19T06:04:15Z</time>
      </trkpt>
      <trkpt lat="42.78578" lon="2.87528">
        <ele>29.6</ele>
        <time>2025-07-19T06:04:23Z</time>
      </trkpt>
      <trkpt lat="42.78563" lon="2.87526">
        <ele>29.4</ele>
        <time>2025-07-19T06:04:25Z</time>
      </trkpt>
      <trkpt lat="42.7854" lon="2.87522">
        <ele>29.2</ele>
        <time>2025-07-19T06:04:28Z</time>
      </trkpt>
      <trkpt lat="42.78495" lon="2.87514">
        <ele>29.2</ele>
        <time>2025-07-19T06:04:34Z</time>
      </trkpt>
      <trkpt lat="42.78435" lon="2.87516">
        <ele>28.8</ele>
        <time>2025-07-19T06:04:42Z</time>
      </trkpt>
      <trkpt lat="42.78375" lon="2.87513">
        <ele>28.2</ele>
        <time>2025-07-19T06:04:50Z</time>
      </trkpt>
      <trkpt lat="42.7836" lon="2.87509">
        <ele>28.2</ele>
        <time>2025-07-19T06:04:52Z</time>
      </trkpt>
      <trkpt lat="42.78339" lon="2.87499">
        <ele>28.2</ele>
        <time>2025-07-19T06:04:55Z</time>
      </trkpt>
      <trkpt lat="42.78291" lon="2.87478">
        <ele>28</ele>
        <time>2025-07-19T06:05:02Z</time>
      </trkpt>
      <trkpt lat="42.78284" lon="2.87473">
        <ele>28</ele>
        <time>2025-07-19T06:05:03Z</time>
      </trkpt>
      <trkpt lat="42.78273" lon="2.8746">
        <ele>28</ele>
        <time>2025-07-19T06:05:05Z</time>
      </trkpt>
      <trkpt lat="42.78259" lon="2.87438">
        <ele>27</ele>
        <time>2025-07-19T06:05:08Z</time>
      </trkpt>
      <trkpt lat="42.78238" lon="2.87402">
        <ele>26.4</ele>
        <time>2025-07-19T06:05:13Z</time>
      </trkpt>
      <trkpt lat="42.78231" lon="2.87387">
        <ele>25.6</ele>
        <time>2025-07-19T06:05:15Z</time>
      </trkpt>
      <trkpt lat="42.78225" lon="2.8738">
        <ele>25.4</ele>
        <time>2025-07-19T06:05:17Z</time>
      </trkpt>
      <trkpt lat="42.78221" lon="2.87379">
        <ele>25</ele>
        <time>2025-07-19T06:05:18Z</time>
      </trkpt>
      <trkpt lat="42.78214" lon="2.87384">
        <ele>24.6</ele>
        <time>2025-07-19T06:05:20Z</time>
      </trkpt>
      <trkpt lat="42.7819" lon="2.87402">
        <ele>23.6</ele>
        <time>2025-07-19T06:05:25Z</time>
      </trkpt>
      <trkpt lat="42.78185" lon="2.87405">
        <ele>23.4</ele>
        <time>2025-07-19T06:05:26Z</time>
      </trkpt>
      <trkpt lat="42.78158" lon="2.87415">
        <ele>23.2</ele>
        <time>2025-07-19T06:05:31Z</time>
      </trkpt>
      <trkpt lat="42.78147" lon="2.87419">
        <ele>23.2</ele>
        <time>2025-07-19T06:05:33Z</time>
      </trkpt>
      <trkpt lat="42.78131" lon="2.87425">
        <ele>23.2</ele>
        <time>2025-07-19T06:05:36Z</time>
      </trkpt>
      <trkpt lat="42.78125" lon="2.87428">
        <ele>23.2</ele>
        <time>2025-07-19T06:05:37Z</time>
      </trkpt>
      <trkpt lat="42.78115" lon="2.87436">
        <ele>23</ele>
        <time>2025-07-19T06:05:39Z</time>
      </trkpt>
      <trkpt lat="42.78111" lon="2.87442">
        <ele>23</ele>
        <time>2025-07-19T06:05:40Z</time>
      </trkpt>
      <trkpt lat="42.78107" lon="2.87448">
        <ele>22.8</ele>
        <time>2025-07-19T06:05:41Z</time>
      </trkpt>
      <trkpt lat="42.78098" lon="2.87469">
        <ele>22.6</ele>
        <time>2025-07-19T06:05:44Z</time>
      </trkpt>
      <trkpt lat="42.78092" lon="2.87482">
        <ele>22.4</ele>
        <time>2025-07-19T06:05:46Z</time>
      </trkpt>
      <trkpt lat="42.7808" lon="2.87513">
        <ele>22.2</ele>
        <time>2025-07-19T06:05:51Z</time>
      </trkpt>
      <trkpt lat="42.78077" lon="2.87519">
        <ele>22</ele>
        <time>2025-07-19T06:05:52Z</time>
      </trkpt>
      <trkpt lat="42.78073" lon="2.87523">
        <ele>22</ele>
        <time>2025-07-19T06:05:53Z</time>
      </trkpt>
      <trkpt lat="42.78063" lon="2.8753">
        <ele>22</ele>
        <time>2025-07-19T06:05:55Z</time>
      </trkpt>
      <trkpt lat="42.78057" lon="2.87532">
        <ele>22</ele>
        <time>2025-07-19T06:05:56Z</time>
      </trkpt>
      <trkpt lat="42.78016" lon="2.87537">
        <ele>22</ele>
        <time>2025-07-19T06:06:03Z</time>
      </trkpt>
      <trkpt lat="42.7797" lon="2.87543">
        <ele>21.6</ele>
        <time>2025-07-19T06:06:11Z</time>
      </trkpt>
      <trkpt lat="42.77961" lon="2.87548">
        <ele>21.4</ele>
        <time>2025-07-19T06:06:13Z</time>
      </trkpt>
      <trkpt lat="42.77958" lon="2.87551">
        <ele>21.6</ele>
        <time>2025-07-19T06:06:14Z</time>
      </trkpt>
      <trkpt lat="42.77953" lon="2.87554">
        <ele>21.6</ele>
        <time>2025-07-19T06:06:15Z</time>
      </trkpt>
      <trkpt lat="42.77943" lon="2.87555">
        <ele>21.4</ele>
        <time>2025-07-19T06:06:17Z</time>
      </trkpt>
      <trkpt lat="42.77938" lon="2.87551">
        <ele>21.6</ele>
        <time>2025-07-19T06:06:18Z</time>
      </trkpt>
      <trkpt lat="42.77933" lon="2.87546">
        <ele>21.6</ele>
        <time>2025-07-19T06:06:19Z</time>
      </trkpt>
      <trkpt lat="42.77924" lon="2.87536">
        <ele>21.6</ele>
        <time>2025-07-19T06:06:21Z</time>
      </trkpt>
      <trkpt lat="42.77913" lon="2.87527">
        <ele>21.6</ele>
        <time>2025-07-19T06:06:23Z</time>
      </trkpt>
      <trkpt lat="42.77896" lon="2.87518">
        <ele>21.6</ele>
        <time>2025-07-19T06:06:26Z</time>
      </trkpt>
      <trkpt lat="42.77872" lon="2.87508">
        <ele>21.6</ele>
        <time>2025-07-19T06:06:30Z</time>
      </trkpt>
      <trkpt lat="42.77819" lon="2.87484">
        <ele>21.2</ele>
        <time>2025-07-19T06:06:39Z</time>
      </trkpt>
      <trkpt lat="42.77801" lon="2.87476">
        <ele>21.2</ele>
        <time>2025-07-19T06:06:42Z</time>
      </trkpt>
      <trkpt lat="42.77764" lon="2.87456">
        <ele>21.4</ele>
        <time>2025-07-19T06:06:49Z</time>
      </trkpt>
      <trkpt lat="42.77736" lon="2.87432">
        <ele>21.6</ele>
        <time>2025-07-19T06:06:55Z</time>
      </trkpt>
      <trkpt lat="42.77705" lon="2.87403">
        <ele>21.4</ele>
        <time>2025-07-19T06:07:02Z</time>
      </trkpt>
      <trkpt lat="42.77667" lon="2.87372">
        <ele>21.4</ele>
        <time>2025-07-19T06:07:10Z</time>
      </trkpt>
      <trkpt lat="42.77617" lon="2.87335">
        <ele>21.4</ele>
        <time>2025-07-19T06:07:20Z</time>
      </trkpt>
      <trkpt lat="42.77578" lon="2.873">
        <ele>21.4</ele>
        <time>2025-07-19T06:07:28Z</time>
      </trkpt>
      <trkpt lat="42.77564" lon="2.87286">
        <ele>21.4</ele>
        <time>2025-07-19T06:07:31Z</time>
      </trkpt>
      <trkpt lat="42.77551" lon="2.87272">
        <ele>21.4</ele>
        <time>2025-07-19T06:07:34Z</time>
      </trkpt>
      <trkpt lat="42.77511" lon="2.87227">
        <ele>21.2</ele>
        <time>2025-07-19T06:07:43Z</time>
      </trkpt>
      <trkpt lat="42.77481" lon="2.87193">
        <ele>21</ele>
        <time>2025-07-19T06:07:50Z</time>
      </trkpt>
      <trkpt lat="42.77455" lon="2.87166">
        <ele>21</ele>
        <time>2025-07-19T06:07:56Z</time>
      </trkpt>
      <trkpt lat="42.7745" lon="2.87163">
        <ele>21</ele>
        <time>2025-07-19T06:07:57Z</time>
      </trkpt>
      <trkpt lat="42.77439" lon="2.87159">
        <ele>21</ele>
        <time>2025-07-19T06:07:59Z</time>
      </trkpt>
      <trkpt lat="42.77428" lon="2.87158">
        <ele>21</ele>
        <time>2025-07-19T06:08:01Z</time>
      </trkpt>
      <trkpt lat="42.77393" lon="2.87162">
        <ele>21.2</ele>
        <time>2025-07-19T06:08:07Z</time>
      </trkpt>
      <trkpt lat="42.7736" lon="2.87166">
        <ele>21.2</ele>
        <time>2025-07-19T06:08:13Z</time>
      </trkpt>
      <trkpt lat="42.77323" lon="2.87165">
        <ele>21.6</ele>
        <time>2025-07-19T06:08:20Z</time>
      </trkpt>
      <trkpt lat="42.77296" lon="2.87163">
        <ele>22.8</ele>
        <time>2025-07-19T06:08:25Z</time>
      </trkpt>
      <trkpt lat="42.77281" lon="2.8716">
        <ele>23.4</ele>
        <time>2025-07-19T06:08:28Z</time>
      </trkpt>
      <trkpt lat="42.77265" lon="2.87158">
        <ele>23.8</ele>
        <time>2025-07-19T06:08:31Z</time>
      </trkpt>
      <trkpt lat="42.77248" lon="2.87155">
        <ele>24.2</ele>
        <time>2025-07-19T06:08:34Z</time>
      </trkpt>
      <trkpt lat="42.77214" lon="2.87148">
        <ele>24.8</ele>
        <time>2025-07-19T06:08:40Z</time>
      </trkpt>
      <trkpt lat="42.77205" lon="2.87146">
        <ele>25</ele>
        <time>2025-07-19T06:08:42Z</time>
      </trkpt>
      <trkpt lat="42.77152" lon="2.87133">
        <ele>25.2</ele>
        <time>2025-07-19T06:08:52Z</time>
      </trkpt>
      <trkpt lat="42.7711" lon="2.87124">
        <ele>25</ele>
        <time>2025-07-19T06:09:00Z</time>
      </trkpt>
      <trkpt lat="42.77079" lon="2.87116">
        <ele>24.4</ele>
        <time>2025-07-19T06:09:06Z</time>
      </trkpt>
      <trkpt lat="42.7706" lon="2.87112">
        <ele>23.8</ele>
        <time>2025-07-19T06:09:10Z</time>
      </trkpt>
      <trkpt lat="42.77055" lon="2.87112">
        <ele>23.8</ele>
        <time>2025-07-19T06:09:11Z</time>
      </trkpt>
      <trkpt lat="42.77051" lon="2.87112">
        <ele>23.8</ele>
        <time>2025-07-19T06:09:12Z</time>
      </trkpt>
      <trkpt lat="42.77044" lon="2.8711">
        <ele>23.8</ele>
        <time>2025-07-19T06:09:14Z</time>
      </trkpt>
      <trkpt lat="42.7704" lon="2.87108">
        <ele>23.6</ele>
        <time>2025-07-19T06:09:15Z</time>
      </trkpt>
      <trkpt lat="42.77036" lon="2.87099">
        <ele>23.8</ele>
        <time>2025-07-19T06:09:17Z</time>
      </trkpt>
      <trkpt lat="42.77028" lon="2.87085">
        <ele>23.6</ele>
        <time>2025-07-19T06:09:21Z</time>
      </trkpt>
      <trkpt lat="42.77024" lon="2.87078">
        <ele>23.4</ele>
        <time>2025-07-19T06:09:25Z</time>
      </trkpt>
      <trkpt lat="42.77024" lon="2.87078">
        <ele>23.4</ele>
        <time>2025-07-19T06:09:27Z</time>
      </trkpt>
      <trkpt lat="42.77017" lon="2.87081">
        <ele>22.4</ele>
        <time>2025-07-19T06:11:05Z</time>
      </trkpt>
      <trkpt lat="42.77016" lon="2.87083">
        <ele>22.4</ele>
        <time>2025-07-19T06:11:06Z</time>
      </trkpt>
      <trkpt lat="42.77006" lon="2.87097">
        <ele>22.4</ele>
        <time>2025-07-19T06:11:13Z</time>
      </trkpt>
      <trkpt lat="42.76997" lon="2.87108">
        <ele>22.2</ele>
        <time>2025-07-19T06:11:20Z</time>
      </trkpt>
      <trkpt lat="42.76983" lon="2.87109">
        <ele>22</ele>
        <time>2025-07-19T06:11:24Z</time>
      </trkpt>
      <trkpt lat="42.76957" lon="2.87111">
        <ele>21.6</ele>
        <time>2025-07-19T06:11:31Z</time>
      </trkpt>
      <trkpt lat="42.76927" lon="2.87116">
        <ele>21.4</ele>
        <time>2025-07-19T06:11:38Z</time>
      </trkpt>
      <trkpt lat="42.76923" lon="2.87118">
        <ele>21.4</ele>
        <time>2025-07-19T06:11:39Z</time>
      </trkpt>
      <trkpt lat="42.7692" lon="2.87126">
        <ele>21.2</ele>
        <time>2025-07-19T06:11:41Z</time>
      </trkpt>
      <trkpt lat="42.76921" lon="2.8713">
        <ele>21.2</ele>
        <time>2025-07-19T06:11:42Z</time>
      </trkpt>
      <trkpt lat="42.76923" lon="2.87133">
        <ele>21</ele>
        <time>2025-07-19T06:11:43Z</time>
      </trkpt>
      <trkpt lat="42.76926" lon="2.87135">
        <ele>21</ele>
        <time>2025-07-19T06:11:44Z</time>
      </trkpt>
      <trkpt lat="42.76934" lon="2.87141">
        <ele>21</ele>
        <time>2025-07-19T06:11:48Z</time>
      </trkpt>
      <trkpt lat="42.76934" lon="2.87144">
        <ele>21.2</ele>
        <time>2025-07-19T06:11:49Z</time>
      </trkpt>
      <trkpt lat="42.76932" lon="2.87148">
        <ele>21.2</ele>
        <time>2025-07-19T06:11:53Z</time>
      </trkpt>
      <trkpt lat="42.76932" lon="2.87148">
        <ele>21.2</ele>
        <time>2025-07-19T06:11:54Z</time>
      </trkpt>
      <trkpt lat="42.76932" lon="2.87143">
        <ele>19.6</ele>
        <time>2025-07-19T06:50:44Z</time>
      </trkpt>
      <trkpt lat="42.76933" lon="2.87139">
        <ele>19.6</ele>
        <time>2025-07-19T06:50:46Z</time>
      </trkpt>
      <trkpt lat="42.76934" lon="2.87137">
        <ele>19.6</ele>
        <time>2025-07-19T06:50:47Z</time>
      </trkpt>
      <trkpt lat="42.76932" lon="2.87133">
        <ele>19.8</ele>
        <time>2025-07-19T06:50:49Z</time>
      </trkpt>
      <trkpt lat="42.76931" lon="2.87132">
        <ele>19.8</ele>
        <time>2025-07-19T06:50:50Z</time>
      </trkpt>
      <trkpt lat="42.76927" lon="2.87129">
        <ele>19.8</ele>
        <time>2025-07-19T06:50:52Z</time>
      </trkpt>
      <trkpt lat="42.76925" lon="2.87123">
        <ele>19.8</ele>
        <time>2025-07-19T06:50:55Z</time>
      </trkpt>
      <trkpt lat="42.76924" lon="2.87122">
        <ele>19.8</ele>
        <time>2025-07-19T06:50:59Z</time>
      </trkpt>
      <trkpt lat="42.76922" lon="2.87121">
        <ele>19.8</ele>
        <time>2025-07-19T06:51:13Z</time>
      </trkpt>
      <trkpt lat="42.76907" lon="2.87119">
        <ele>19.8</ele>
        <time>2025-07-19T06:51:17Z</time>
      </trkpt>
      <trkpt lat="42.76886" lon="2.87113">
        <ele>20</ele>
        <time>2025-07-19T06:51:23Z</time>
      </trkpt>
      <trkpt lat="42.76888" lon="2.87101">
        <ele>20</ele>
        <time>2025-07-19T06:51:26Z</time>
      </trkpt>
      <trkpt lat="42.76904" lon="2.87071">
        <ele>20.4</ele>
        <time>2025-07-19T06:51:33Z</time>
      </trkpt>
      <trkpt lat="42.76912" lon="2.87053">
        <ele>20.8</ele>
        <time>2025-07-19T06:51:37Z</time>
      </trkpt>
      <trkpt lat="42.76921" lon="2.87035">
        <ele>21</ele>
        <time>2025-07-19T06:51:41Z</time>
      </trkpt>
      <trkpt lat="42.7694" lon="2.86996">
        <ele>21.8</ele>
        <time>2025-07-19T06:51:50Z</time>
      </trkpt>
      <trkpt lat="42.76956" lon="2.86965">
        <ele>22.2</ele>
        <time>2025-07-19T06:51:57Z</time>
      </trkpt>
      <trkpt lat="42.76976" lon="2.86929">
        <ele>22.4</ele>
        <time>2025-07-19T06:52:05Z</time>
      </trkpt>
      <trkpt lat="42.76982" lon="2.86916">
        <ele>22.4</ele>
        <time>2025-07-19T06:52:08Z</time>
      </trkpt>
      <trkpt lat="42.76991" lon="2.86896">
        <ele>22.6</ele>
        <time>2025-07-19T06:52:12Z</time>
      </trkpt>
      <trkpt lat="42.77007" lon="2.86864">
        <ele>23</ele>
        <time>2025-07-19T06:52:19Z</time>
      </trkpt>
      <trkpt lat="42.77011" lon="2.86855">
        <ele>23</ele>
        <time>2025-07-19T06:52:21Z</time>
      </trkpt>
      <trkpt lat="42.77031" lon="2.86812">
        <ele>23.6</ele>
        <time>2025-07-19T06:52:30Z</time>
      </trkpt>
      <trkpt lat="42.77034" lon="2.86801">
        <ele>23.6</ele>
        <time>2025-07-19T06:52:32Z</time>
      </trkpt>
      <trkpt lat="42.77033" lon="2.86789">
        <ele>24</ele>
        <time>2025-07-19T06:52:34Z</time>
      </trkpt>
      <trkpt lat="42.77027" lon="2.86762">
        <ele>24</ele>
        <time>2025-07-19T06:52:39Z</time>
      </trkpt>
      <trkpt lat="42.77021" lon="2.86738">
        <ele>23.8</ele>
        <time>2025-07-19T06:52:43Z</time>
      </trkpt>
      <trkpt lat="42.77018" lon="2.86727">
        <ele>23.8</ele>
        <time>2025-07-19T06:52:45Z</time>
      </trkpt>
      <trkpt lat="42.77009" lon="2.86704">
        <ele>23.8</ele>
        <time>2025-07-19T06:52:49Z</time>
      </trkpt>
      <trkpt lat="42.76999" lon="2.86689">
        <ele>23.8</ele>
        <time>2025-07-19T06:52:52Z</time>
      </trkpt>
      <trkpt lat="42.76977" lon="2.86655">
        <ele>23.6</ele>
        <time>2025-07-19T06:52:58Z</time>
      </trkpt>
      <trkpt lat="42.76974" lon="2.86648">
        <ele>23.6</ele>
        <time>2025-07-19T06:52:59Z</time>
      </trkpt>
      <trkpt lat="42.76972" lon="2.86641">
        <ele>23.6</ele>
        <time>2025-07-19T06:53:00Z</time>
      </trkpt>
      <trkpt lat="42.76965" lon="2.86613">
        <ele>23.4</ele>
        <time>2025-07-19T06:53:04Z</time>
      </trkpt>
      <trkpt lat="42.76962" lon="2.86599">
        <ele>23.4</ele>
        <time>2025-07-19T06:53:06Z</time>
      </trkpt>
      <trkpt lat="42.76956" lon="2.86574">
        <ele>23.4</ele>
        <time>2025-07-19T06:53:10Z</time>
      </trkpt>
      <trkpt lat="42.76948" lon="2.86538">
        <ele>24.2</ele>
        <time>2025-07-19T06:53:16Z</time>
      </trkpt>
      <trkpt lat="42.76947" lon="2.86533">
        <ele>24.2</ele>
        <time>2025-07-19T06:53:17Z</time>
      </trkpt>
      <trkpt lat="42.76943" lon="2.86494">
        <ele>25.2</ele>
        <time>2025-07-19T06:53:24Z</time>
      </trkpt>
      <trkpt lat="42.76943" lon="2.86483">
        <ele>25.6</ele>
        <time>2025-07-19T06:53:26Z</time>
      </trkpt>
      <trkpt lat="42.76942" lon="2.86467">
        <ele>26.2</ele>
        <time>2025-07-19T06:53:29Z</time>
      </trkpt>
      <trkpt lat="42.76937" lon="2.86426">
        <ele>26.6</ele>
        <time>2025-07-19T06:53:35Z</time>
      </trkpt>
      <trkpt lat="42.76935" lon="2.86394">
        <ele>26.4</ele>
        <time>2025-07-19T06:53:40Z</time>
      </trkpt>
      <trkpt lat="42.76936" lon="2.86381">
        <ele>26.4</ele>
        <time>2025-07-19T06:53:42Z</time>
      </trkpt>
      <trkpt lat="42.7694" lon="2.86361">
        <ele>26.4</ele>
        <time>2025-07-19T06:53:47Z</time>
      </trkpt>
      <trkpt lat="42.7694" lon="2.8636">
        <ele>26.4</ele>
        <time>2025-07-19T06:53:51Z</time>
      </trkpt>
      <trkpt lat="42.76944" lon="2.86348">
        <ele>26.4</ele>
        <time>2025-07-19T07:03:06Z</time>
      </trkpt>
      <trkpt lat="42.76945" lon="2.8634">
        <ele>26.4</ele>
        <time>2025-07-19T07:03:08Z</time>
      </trkpt>
      <trkpt lat="42.76954" lon="2.86316">
        <ele>26.4</ele>
        <time>2025-07-19T07:03:13Z</time>
      </trkpt>
      <trkpt lat="42.76965" lon="2.86284">
        <ele>26.6</ele>
        <time>2025-07-19T07:03:19Z</time>
      </trkpt>
      <trkpt lat="42.76984" lon="2.8623">
        <ele>27.2</ele>
        <time>2025-07-19T07:03:29Z</time>
      </trkpt>
      <trkpt lat="42.77002" lon="2.86173">
        <ele>27.4</ele>
        <time>2025-07-19T07:03:39Z</time>
      </trkpt>
      <trkpt lat="42.77014" lon="2.86137">
        <ele>27.6</ele>
        <time>2025-07-19T07:03:45Z</time>
      </trkpt>
      <trkpt lat="42.77021" lon="2.86111">
        <ele>28</ele>
        <time>2025-07-19T07:03:49Z</time>
      </trkpt>
      <trkpt lat="42.77031" lon="2.86057">
        <ele>28.2</ele>
        <time>2025-07-19T07:03:57Z</time>
      </trkpt>
      <trkpt lat="42.77045" lon="2.85985">
        <ele>28.6</ele>
        <time>2025-07-19T07:04:07Z</time>
      </trkpt>
      <trkpt lat="42.77046" lon="2.85978">
        <ele>28.6</ele>
        <time>2025-07-19T07:04:08Z</time>
      </trkpt>
      <trkpt lat="42.77061" lon="2.85905">
        <ele>28.8</ele>
        <time>2025-07-19T07:04:18Z</time>
      </trkpt>
      <trkpt lat="42.77076" lon="2.85847">
        <ele>28.8</ele>
        <time>2025-07-19T07:04:26Z</time>
      </trkpt>
      <trkpt lat="42.77097" lon="2.85776">
        <ele>28.4</ele>
        <time>2025-07-19T07:04:36Z</time>
      </trkpt>
      <trkpt lat="42.77101" lon="2.85762">
        <ele>28.4</ele>
        <time>2025-07-19T07:04:38Z</time>
      </trkpt>
      <trkpt lat="42.77122" lon="2.85691">
        <ele>28.4</ele>
        <time>2025-07-19T07:04:48Z</time>
      </trkpt>
      <trkpt lat="42.77138" lon="2.85645">
        <ele>29</ele>
        <time>2025-07-19T07:04:56Z</time>
      </trkpt>
      <trkpt lat="42.77143" lon="2.85633">
        <ele>29</ele>
        <time>2025-07-19T07:04:57Z</time>
      </trkpt>
      <trkpt lat="42.77145" lon="2.85626">
        <ele>29</ele>
        <time>2025-07-19T07:04:58Z</time>
      </trkpt>
      <trkpt lat="42.77148" lon="2.85612">
        <ele>29</ele>
        <time>2025-07-19T07:05:00Z</time>
      </trkpt>
      <trkpt lat="42.77149" lon="2.85605">
        <ele>29</ele>
        <time>2025-07-19T07:05:01Z</time>
      </trkpt>
      <trkpt lat="42.77149" lon="2.85597">
        <ele>28.8</ele>
        <time>2025-07-19T07:05:02Z</time>
      </trkpt>
      <trkpt lat="42.77145" lon="2.85565">
        <ele>28.4</ele>
        <time>2025-07-19T07:05:06Z</time>
      </trkpt>
      <trkpt lat="42.77147" lon="2.85519">
        <ele>28</ele>
        <time>2025-07-19T07:05:12Z</time>
      </trkpt>
      <trkpt lat="42.77148" lon="2.85503">
        <ele>28.2</ele>
        <time>2025-07-19T07:05:14Z</time>
      </trkpt>
      <trkpt lat="42.77152" lon="2.85456">
        <ele>28</ele>
        <time>2025-07-19T07:05:20Z</time>
      </trkpt>
      <trkpt lat="42.77154" lon="2.85424">
        <ele>28</ele>
        <time>2025-07-19T07:05:24Z</time>
      </trkpt>
      <trkpt lat="42.77156" lon="2.85392">
        <ele>28.2</ele>
        <time>2025-07-19T07:05:28Z</time>
      </trkpt>
      <trkpt lat="42.77161" lon="2.85328">
        <ele>28</ele>
        <time>2025-07-19T07:05:36Z</time>
      </trkpt>
      <trkpt lat="42.77161" lon="2.85263">
        <ele>27.4</ele>
        <time>2025-07-19T07:05:44Z</time>
      </trkpt>
      <trkpt lat="42.77162" lon="2.85213">
        <ele>27.2</ele>
        <time>2025-07-19T07:05:50Z</time>
      </trkpt>
      <trkpt lat="42.77163" lon="2.85197">
        <ele>27</ele>
        <time>2025-07-19T07:05:52Z</time>
      </trkpt>
      <trkpt lat="42.77168" lon="2.85166">
        <ele>27</ele>
        <time>2025-07-19T07:05:56Z</time>
      </trkpt>
      <trkpt lat="42.77172" lon="2.85151">
        <ele>27</ele>
        <time>2025-07-19T07:05:58Z</time>
      </trkpt>
      <trkpt lat="42.77191" lon="2.85095">
        <ele>27.2</ele>
        <time>2025-07-19T07:06:06Z</time>
      </trkpt>
      <trkpt lat="42.77193" lon="2.85088">
        <ele>27.2</ele>
        <time>2025-07-19T07:06:08Z</time>
      </trkpt>
      <trkpt lat="42.77197" lon="2.85066">
        <ele>27.2</ele>
        <time>2025-07-19T07:06:10Z</time>
      </trkpt>
      <trkpt lat="42.77198" lon="2.85056">
        <ele>27</ele>
        <time>2025-07-19T07:06:12Z</time>
      </trkpt>
      <trkpt lat="42.77194" lon="2.85007">
        <ele>26.8</ele>
        <time>2025-07-19T07:06:18Z</time>
      </trkpt>
      <trkpt lat="42.77184" lon="2.84934">
        <ele>26.6</ele>
        <time>2025-07-19T07:06:26Z</time>
      </trkpt>
      <trkpt lat="42.77183" lon="2.84926">
        <ele>26.6</ele>
        <time>2025-07-19T07:06:27Z</time>
      </trkpt>
      <trkpt lat="42.77175" lon="2.84871">
        <ele>26.2</ele>
        <time>2025-07-19T07:06:34Z</time>
      </trkpt>
      <trkpt lat="42.77172" lon="2.84856">
        <ele>26.2</ele>
        <time>2025-07-19T07:06:36Z</time>
      </trkpt>
      <trkpt lat="42.77171" lon="2.84833">
        <ele>26.2</ele>
        <time>2025-07-19T07:06:39Z</time>
      </trkpt>
      <trkpt lat="42.77171" lon="2.84818">
        <ele>26</ele>
        <time>2025-07-19T07:06:41Z</time>
      </trkpt>
      <trkpt lat="42.77175" lon="2.84763">
        <ele>25.8</ele>
        <time>2025-07-19T07:06:48Z</time>
      </trkpt>
      <trkpt lat="42.77183" lon="2.8469">
        <ele>25.2</ele>
        <time>2025-07-19T07:06:57Z</time>
      </trkpt>
      <trkpt lat="42.77185" lon="2.84674">
        <ele>25.2</ele>
        <time>2025-07-19T07:06:59Z</time>
      </trkpt>
      <trkpt lat="42.77192" lon="2.84642">
        <ele>25</ele>
        <time>2025-07-19T07:07:03Z</time>
      </trkpt>
      <trkpt lat="42.77203" lon="2.8458">
        <ele>24.8</ele>
        <time>2025-07-19T07:07:11Z</time>
      </trkpt>
      <trkpt lat="42.77205" lon="2.84514">
        <ele>24.6</ele>
        <time>2025-07-19T07:07:19Z</time>
      </trkpt>
      <trkpt lat="42.77206" lon="2.84446">
        <ele>24.2</ele>
        <time>2025-07-19T07:07:27Z</time>
      </trkpt>
      <trkpt lat="42.77206" lon="2.84437">
        <ele>24</ele>
        <time>2025-07-19T07:07:28Z</time>
      </trkpt>
      <trkpt lat="42.77207" lon="2.8437">
        <ele>23.6</ele>
        <time>2025-07-19T07:07:36Z</time>
      </trkpt>
      <trkpt lat="42.77214" lon="2.84325">
        <ele>23.2</ele>
        <time>2025-07-19T07:07:42Z</time>
      </trkpt>
      <trkpt lat="42.77224" lon="2.84297">
        <ele>23.2</ele>
        <time>2025-07-19T07:07:46Z</time>
      </trkpt>
      <trkpt lat="42.77233" lon="2.84278">
        <ele>23</ele>
        <time>2025-07-19T07:07:49Z</time>
      </trkpt>
      <trkpt lat="42.77256" lon="2.8423">
        <ele>22.6</ele>
        <time>2025-07-19T07:07:57Z</time>
      </trkpt>
      <trkpt lat="42.77278" lon="2.84187">
        <ele>22.6</ele>
        <time>2025-07-19T07:08:05Z</time>
      </trkpt>
      <trkpt lat="42.77281" lon="2.84183">
        <ele>22.6</ele>
        <time>2025-07-19T07:08:06Z</time>
      </trkpt>
      <trkpt lat="42.77289" lon="2.84176">
        <ele>22.6</ele>
        <time>2025-07-19T07:08:08Z</time>
      </trkpt>
      <trkpt lat="42.77292" lon="2.84165">
        <ele>22.8</ele>
        <time>2025-07-19T07:08:10Z</time>
      </trkpt>
      <trkpt lat="42.77288" lon="2.84153">
        <ele>22.8</ele>
        <time>2025-07-19T07:08:12Z</time>
      </trkpt>
      <trkpt lat="42.77284" lon="2.8415">
        <ele>22.8</ele>
        <time>2025-07-19T07:08:13Z</time>
      </trkpt>
      <trkpt lat="42.77279" lon="2.8415">
        <ele>22.8</ele>
        <time>2025-07-19T07:08:14Z</time>
      </trkpt>
      <trkpt lat="42.77274" lon="2.84153">
        <ele>22.8</ele>
        <time>2025-07-19T07:08:15Z</time>
      </trkpt>
      <trkpt lat="42.77262" lon="2.84164">
        <ele>22.8</ele>
        <time>2025-07-19T07:08:18Z</time>
      </trkpt>
      <trkpt lat="42.77252" lon="2.84173">
        <ele>22.6</ele>
        <time>2025-07-19T07:08:21Z</time>
      </trkpt>
      <trkpt lat="42.77243" lon="2.84182">
        <ele>22.4</ele>
        <time>2025-07-19T07:08:25Z</time>
      </trkpt>
      <trkpt lat="42.77241" lon="2.84184">
        <ele>22.6</ele>
        <time>2025-07-19T07:08:27Z</time>
      </trkpt>
      <trkpt lat="42.77241" lon="2.84185">
        <ele>22.4</ele>
        <time>2025-07-19T07:08:29Z</time>
      </trkpt>
      <trkpt lat="42.77246" lon="2.8418">
        <ele>20.6</ele>
        <time>2025-07-19T07:11:20Z</time>
      </trkpt>
      <trkpt lat="42.77245" lon="2.84173">
        <ele>20.8</ele>
        <time>2025-07-19T07:11:22Z</time>
      </trkpt>
      <trkpt lat="42.77244" lon="2.84163">
        <ele>20.8</ele>
        <time>2025-07-19T07:11:25Z</time>
      </trkpt>
      <trkpt lat="42.7724" lon="2.84161">
        <ele>20.8</ele>
        <time>2025-07-19T07:11:27Z</time>
      </trkpt>
      <trkpt lat="42.77225" lon="2.84164">
        <ele>20.6</ele>
        <time>2025-07-19T07:11:32Z</time>
      </trkpt>
      <trkpt lat="42.77207" lon="2.84163">
        <ele>21</ele>
        <time>2025-07-19T07:11:37Z</time>
      </trkpt>
      <trkpt lat="42.77171" lon="2.84154">
        <ele>21.6</ele>
        <time>2025-07-19T07:11:45Z</time>
      </trkpt>
      <trkpt lat="42.77162" lon="2.84151">
        <ele>21.6</ele>
        <time>2025-07-19T07:11:47Z</time>
      </trkpt>
      <trkpt lat="42.77138" lon="2.84142">
        <ele>22</ele>
        <time>2025-07-19T07:11:52Z</time>
      </trkpt>
      <trkpt lat="42.7711" lon="2.84128">
        <ele>22.6</ele>
        <time>2025-07-19T07:11:59Z</time>
      </trkpt>
      <trkpt lat="42.77107" lon="2.84125">
        <ele>22.8</ele>
        <time>2025-07-19T07:12:00Z</time>
      </trkpt>
      <trkpt lat="42.771" lon="2.84118">
        <ele>23</ele>
        <time>2025-07-19T07:12:03Z</time>
      </trkpt>
      <trkpt lat="42.77098" lon="2.84117">
        <ele>23</ele>
        <time>2025-07-19T07:12:04Z</time>
      </trkpt>
      <trkpt lat="42.77092" lon="2.84118">
        <ele>23</ele>
        <time>2025-07-19T07:12:06Z</time>
      </trkpt>
      <trkpt lat="42.77082" lon="2.84125">
        <ele>23</ele>
        <time>2025-07-19T07:12:09Z</time>
      </trkpt>
      <trkpt lat="42.77078" lon="2.84123">
        <ele>23</ele>
        <time>2025-07-19T07:12:10Z</time>
      </trkpt>
      <trkpt lat="42.7705" lon="2.84103">
        <ele>23.6</ele>
        <time>2025-07-19T07:12:17Z</time>
      </trkpt>
      <trkpt lat="42.77033" lon="2.84093">
        <ele>23.8</ele>
        <time>2025-07-19T07:12:21Z</time>
      </trkpt>
      <trkpt lat="42.77012" lon="2.84079">
        <ele>24.2</ele>
        <time>2025-07-19T07:12:26Z</time>
      </trkpt>
      <trkpt lat="42.76997" lon="2.8407">
        <ele>25</ele>
        <time>2025-07-19T07:12:30Z</time>
      </trkpt>
      <trkpt lat="42.76978" lon="2.84058">
        <ele>25.8</ele>
        <time>2025-07-19T07:12:35Z</time>
      </trkpt>
      <trkpt lat="42.76974" lon="2.84055">
        <ele>26</ele>
        <time>2025-07-19T07:12:36Z</time>
      </trkpt>
      <trkpt lat="42.76946" lon="2.84041">
        <ele>27</ele>
        <time>2025-07-19T07:12:43Z</time>
      </trkpt>
      <trkpt lat="42.76937" lon="2.84038">
        <ele>27.2</ele>
        <time>2025-07-19T07:12:45Z</time>
      </trkpt>
      <trkpt lat="42.769" lon="2.84027">
        <ele>27.6</ele>
        <time>2025-07-19T07:12:53Z</time>
      </trkpt>
      <trkpt lat="42.76867" lon="2.84019">
        <ele>28</ele>
        <time>2025-07-19T07:13:00Z</time>
      </trkpt>
      <trkpt lat="42.76862" lon="2.84017">
        <ele>28</ele>
        <time>2025-07-19T07:13:01Z</time>
      </trkpt>
      <trkpt lat="42.76858" lon="2.84016">
        <ele>28.2</ele>
        <time>2025-07-19T07:13:02Z</time>
      </trkpt>
      <trkpt lat="42.76849" lon="2.84012">
        <ele>28.2</ele>
        <time>2025-07-19T07:13:04Z</time>
      </trkpt>
      <trkpt lat="42.7682" lon="2.83993">
        <ele>28.8</ele>
        <time>2025-07-19T07:13:11Z</time>
      </trkpt>
      <trkpt lat="42.76809" lon="2.83985">
        <ele>29</ele>
        <time>2025-07-19T07:13:14Z</time>
      </trkpt>
      <trkpt lat="42.76798" lon="2.83976">
        <ele>29.4</ele>
        <time>2025-07-19T07:13:17Z</time>
      </trkpt>
      <trkpt lat="42.76792" lon="2.83969">
        <ele>29.6</ele>
        <time>2025-07-19T07:13:19Z</time>
      </trkpt>
      <trkpt lat="42.76784" lon="2.8395">
        <ele>30.2</ele>
        <time>2025-07-19T07:13:23Z</time>
      </trkpt>
      <trkpt lat="42.76781" lon="2.83945">
        <ele>30.2</ele>
        <time>2025-07-19T07:13:24Z</time>
      </trkpt>
      <trkpt lat="42.76777" lon="2.83942">
        <ele>30.4</ele>
        <time>2025-07-19T07:13:25Z</time>
      </trkpt>
      <trkpt lat="42.7677" lon="2.8394">
        <ele>30.8</ele>
        <time>2025-07-19T07:13:27Z</time>
      </trkpt>
      <trkpt lat="42.76756" lon="2.83943">
        <ele>31.2</ele>
        <time>2025-07-19T07:13:30Z</time>
      </trkpt>
      <trkpt lat="42.76748" lon="2.83943">
        <ele>31.4</ele>
        <time>2025-07-19T07:13:32Z</time>
      </trkpt>
      <trkpt lat="42.76719" lon="2.83929">
        <ele>31.6</ele>
        <time>2025-07-19T07:13:39Z</time>
      </trkpt>
      <trkpt lat="42.76695" lon="2.83914">
        <ele>32.2</ele>
        <time>2025-07-19T07:13:47Z</time>
      </trkpt>
      <trkpt lat="42.76689" lon="2.8391">
        <ele>32.4</ele>
        <time>2025-07-19T07:13:48Z</time>
      </trkpt>
      <trkpt lat="42.76672" lon="2.83897">
        <ele>33.4</ele>
        <time>2025-07-19T07:13:55Z</time>
      </trkpt>
      <trkpt lat="42.76657" lon="2.83885">
        <ele>34.6</ele>
        <time>2025-07-19T07:14:02Z</time>
      </trkpt>
      <trkpt lat="42.76643" lon="2.83875">
        <ele>35.4</ele>
        <time>2025-07-19T07:14:09Z</time>
      </trkpt>
      <trkpt lat="42.76641" lon="2.83874">
        <ele>35.6</ele>
        <time>2025-07-19T07:14:10Z</time>
      </trkpt>
      <trkpt lat="42.76634" lon="2.83869">
        <ele>36.8</ele>
        <time>2025-07-19T07:14:14Z</time>
      </trkpt>
      <trkpt lat="42.7663" lon="2.83867">
        <ele>37.2</ele>
        <time>2025-07-19T07:14:16Z</time>
      </trkpt>
      <trkpt lat="42.76626" lon="2.83865">
        <ele>37.8</ele>
        <time>2025-07-19T07:14:18Z</time>
      </trkpt>
      <trkpt lat="42.76618" lon="2.83862">
        <ele>39</ele>
        <time>2025-07-19T07:14:23Z</time>
      </trkpt>
      <trkpt lat="42.7661" lon="2.83857">
        <ele>40.2</ele>
        <time>2025-07-19T07:14:28Z</time>
      </trkpt>
      <trkpt lat="42.76604" lon="2.83854">
        <ele>40.8</ele>
        <time>2025-07-19T07:14:31Z</time>
      </trkpt>
      <trkpt lat="42.76601" lon="2.83852">
        <ele>41.2</ele>
        <time>2025-07-19T07:14:33Z</time>
      </trkpt>
      <trkpt lat="42.76594" lon="2.83848">
        <ele>42.6</ele>
        <time>2025-07-19T07:14:37Z</time>
      </trkpt>
      <trkpt lat="42.7659" lon="2.83845">
        <ele>43.2</ele>
        <time>2025-07-19T07:14:39Z</time>
      </trkpt>
      <trkpt lat="42.76588" lon="2.83844">
        <ele>43.6</ele>
        <time>2025-07-19T07:14:40Z</time>
      </trkpt>
      <trkpt lat="42.7658" lon="2.83836">
        <ele>44.8</ele>
        <time>2025-07-19T07:14:45Z</time>
      </trkpt>
      <trkpt lat="42.76577" lon="2.83832">
        <ele>45.4</ele>
        <time>2025-07-19T07:14:47Z</time>
      </trkpt>
      <trkpt lat="42.76574" lon="2.8383">
        <ele>45.8</ele>
        <time>2025-07-19T07:14:49Z</time>
      </trkpt>
      <trkpt lat="42.76572" lon="2.83829">
        <ele>46</ele>
        <time>2025-07-19T07:14:50Z</time>
      </trkpt>
      <trkpt lat="42.76569" lon="2.83825">
        <ele>46.8</ele>
        <time>2025-07-19T07:14:52Z</time>
      </trkpt>
      <trkpt lat="42.76563" lon="2.83819">
        <ele>48.2</ele>
        <time>2025-07-19T07:14:56Z</time>
      </trkpt>
      <trkpt lat="42.76561" lon="2.83817">
        <ele>48.4</ele>
        <time>2025-07-19T07:14:57Z</time>
      </trkpt>
      <trkpt lat="42.76559" lon="2.83814">
        <ele>49.4</ele>
        <time>2025-07-19T07:14:59Z</time>
      </trkpt>
      <trkpt lat="42.76552" lon="2.83805">
        <ele>50.4</ele>
        <time>2025-07-19T07:15:04Z</time>
      </trkpt>
      <trkpt lat="42.76549" lon="2.83798">
        <ele>51.4</ele>
        <time>2025-07-19T07:15:07Z</time>
      </trkpt>
      <trkpt lat="42.76544" lon="2.8379">
        <ele>52.6</ele>
        <time>2025-07-19T07:15:10Z</time>
      </trkpt>
      <trkpt lat="42.76542" lon="2.83787">
        <ele>53</ele>
        <time>2025-07-19T07:15:11Z</time>
      </trkpt>
      <trkpt lat="42.76538" lon="2.83781">
        <ele>53.8</ele>
        <time>2025-07-19T07:15:14Z</time>
      </trkpt>
      <trkpt lat="42.76532" lon="2.83772">
        <ele>55</ele>
        <time>2025-07-19T07:15:18Z</time>
      </trkpt>
      <trkpt lat="42.76531" lon="2.8377">
        <ele>55</ele>
        <time>2025-07-19T07:15:19Z</time>
      </trkpt>
      <trkpt lat="42.76522" lon="2.83758">
        <ele>56</ele>
        <time>2025-07-19T07:15:26Z</time>
      </trkpt>
      <trkpt lat="42.76522" lon="2.83758">
        <ele>56</ele>
        <time>2025-07-19T07:15:27Z</time>
      </trkpt>
      <trkpt lat="42.76512" lon="2.83745">
        <ele>56.2</ele>
        <time>2025-07-19T07:15:33Z</time>
      </trkpt>
      <trkpt lat="42.76496" lon="2.83723">
        <ele>56.2</ele>
        <time>2025-07-19T07:15:42Z</time>
      </trkpt>
      <trkpt lat="42.76483" lon="2.83705">
        <ele>55.8</ele>
        <time>2025-07-19T07:15:47Z</time>
      </trkpt>
      <trkpt lat="42.76467" lon="2.83682">
        <ele>56</ele>
        <time>2025-07-19T07:15:54Z</time>
      </trkpt>
      <trkpt lat="42.76456" lon="2.83669">
        <ele>56</ele>
        <time>2025-07-19T07:15:58Z</time>
      </trkpt>
      <trkpt lat="42.76452" lon="2.83668">
        <ele>56</ele>
        <time>2025-07-19T07:15:59Z</time>
      </trkpt>
      <trkpt lat="42.76449" lon="2.83669">
        <ele>55.8</ele>
        <time>2025-07-19T07:16:00Z</time>
      </trkpt>
      <trkpt lat="42.76442" lon="2.83676">
        <ele>55.8</ele>
        <time>2025-07-19T07:16:02Z</time>
      </trkpt>
      <trkpt lat="42.76424" lon="2.83712">
        <ele>55.2</ele>
        <time>2025-07-19T07:16:08Z</time>
      </trkpt>
      <trkpt lat="42.76418" lon="2.83724">
        <ele>54.8</ele>
        <time>2025-07-19T07:16:10Z</time>
      </trkpt>
      <trkpt lat="42.76399" lon="2.83767">
        <ele>53.6</ele>
        <time>2025-07-19T07:16:16Z</time>
      </trkpt>
      <trkpt lat="42.76377" lon="2.83814">
        <ele>52.8</ele>
        <time>2025-07-19T07:16:23Z</time>
      </trkpt>
      <trkpt lat="42.76372" lon="2.83824">
        <ele>52.4</ele>
        <time>2025-07-19T07:16:25Z</time>
      </trkpt>
      <trkpt lat="42.76369" lon="2.83827">
        <ele>52.2</ele>
        <time>2025-07-19T07:16:26Z</time>
      </trkpt>
      <trkpt lat="42.76365" lon="2.83827">
        <ele>52</ele>
        <time>2025-07-19T07:16:27Z</time>
      </trkpt>
      <trkpt lat="42.76358" lon="2.83822">
        <ele>51.8</ele>
        <time>2025-07-19T07:16:29Z</time>
      </trkpt>
      <trkpt lat="42.76335" lon="2.83796">
        <ele>51.2</ele>
        <time>2025-07-19T07:16:35Z</time>
      </trkpt>
      <trkpt lat="42.76331" lon="2.83792">
        <ele>51.2</ele>
        <time>2025-07-19T07:16:36Z</time>
      </trkpt>
      <trkpt lat="42.76295" lon="2.83753">
        <ele>50.6</ele>
        <time>2025-07-19T07:16:44Z</time>
      </trkpt>
      <trkpt lat="42.76281" lon="2.83738">
        <ele>50.2</ele>
        <time>2025-07-19T07:16:47Z</time>
      </trkpt>
      <trkpt lat="42.7625" lon="2.8371">
        <ele>49.2</ele>
        <time>2025-07-19T07:16:53Z</time>
      </trkpt>
      <trkpt lat="42.7624" lon="2.83705">
        <ele>49.2</ele>
        <time>2025-07-19T07:16:55Z</time>
      </trkpt>
      <trkpt lat="42.76229" lon="2.83703">
        <ele>49.2</ele>
        <time>2025-07-19T07:16:57Z</time>
      </trkpt>
      <trkpt lat="42.76223" lon="2.83703">
        <ele>49</ele>
        <time>2025-07-19T07:16:58Z</time>
      </trkpt>
      <trkpt lat="42.76211" lon="2.83703">
        <ele>48.8</ele>
        <time>2025-07-19T07:17:00Z</time>
      </trkpt>
      <trkpt lat="42.76201" lon="2.83699">
        <ele>48.8</ele>
        <time>2025-07-19T07:17:02Z</time>
      </trkpt>
      <trkpt lat="42.76169" lon="2.8367">
        <ele>48.8</ele>
        <time>2025-07-19T07:17:09Z</time>
      </trkpt>
      <trkpt lat="42.76144" lon="2.83651">
        <ele>49</ele>
        <time>2025-07-19T07:17:15Z</time>
      </trkpt>
      <trkpt lat="42.76129" lon="2.83646">
        <ele>49.6</ele>
        <time>2025-07-19T07:17:19Z</time>
      </trkpt>
      <trkpt lat="42.76121" lon="2.83643">
        <ele>49.8</ele>
        <time>2025-07-19T07:17:21Z</time>
      </trkpt>
      <trkpt lat="42.76114" lon="2.83637">
        <ele>49.8</ele>
        <time>2025-07-19T07:17:23Z</time>
      </trkpt>
      <trkpt lat="42.76111" lon="2.83634">
        <ele>49.8</ele>
        <time>2025-07-19T07:17:24Z</time>
      </trkpt>
      <trkpt lat="42.76077" lon="2.83606">
        <ele>49.2</ele>
        <time>2025-07-19T07:17:32Z</time>
      </trkpt>
      <trkpt lat="42.76045" lon="2.83598">
        <ele>48.2</ele>
        <time>2025-07-19T07:17:38Z</time>
      </trkpt>
      <trkpt lat="42.76034" lon="2.83598">
        <ele>47.8</ele>
        <time>2025-07-19T07:17:40Z</time>
      </trkpt>
      <trkpt lat="42.76028" lon="2.83597">
        <ele>47.4</ele>
        <time>2025-07-19T07:17:41Z</time>
      </trkpt>
      <trkpt lat="42.76013" lon="2.83591">
        <ele>47</ele>
        <time>2025-07-19T07:17:44Z</time>
      </trkpt>
      <trkpt lat="42.76003" lon="2.83586">
        <ele>46.6</ele>
        <time>2025-07-19T07:17:46Z</time>
      </trkpt>
      <trkpt lat="42.75983" lon="2.83576">
        <ele>46</ele>
        <time>2025-07-19T07:17:50Z</time>
      </trkpt>
      <trkpt lat="42.75978" lon="2.83575">
        <ele>46</ele>
        <time>2025-07-19T07:17:51Z</time>
      </trkpt>
      <trkpt lat="42.75973" lon="2.83576">
        <ele>45.8</ele>
        <time>2025-07-19T07:17:52Z</time>
      </trkpt>
      <trkpt lat="42.75967" lon="2.83586">
        <ele>45.6</ele>
        <time>2025-07-19T07:17:54Z</time>
      </trkpt>
      <trkpt lat="42.75961" lon="2.83599">
        <ele>45.2</ele>
        <time>2025-07-19T07:17:56Z</time>
      </trkpt>
      <trkpt lat="42.75953" lon="2.83604">
        <ele>44.8</ele>
        <time>2025-07-19T07:17:58Z</time>
      </trkpt>
      <trkpt lat="42.75948" lon="2.83604">
        <ele>44.4</ele>
        <time>2025-07-19T07:17:59Z</time>
      </trkpt>
      <trkpt lat="42.75932" lon="2.83599">
        <ele>44</ele>
        <time>2025-07-19T07:18:02Z</time>
      </trkpt>
      <trkpt lat="42.75898" lon="2.83592">
        <ele>43.4</ele>
        <time>2025-07-19T07:18:08Z</time>
      </trkpt>
      <trkpt lat="42.75886" lon="2.83589">
        <ele>43.2</ele>
        <time>2025-07-19T07:18:10Z</time>
      </trkpt>
      <trkpt lat="42.75858" lon="2.83582">
        <ele>42.2</ele>
        <time>2025-07-19T07:18:16Z</time>
      </trkpt>
      <trkpt lat="42.75828" lon="2.83573">
        <ele>41.6</ele>
        <time>2025-07-19T07:18:24Z</time>
      </trkpt>
      <trkpt lat="42.75821" lon="2.8357">
        <ele>41.2</ele>
        <time>2025-07-19T07:18:26Z</time>
      </trkpt>
      <trkpt lat="42.75802" lon="2.83556">
        <ele>40.6</ele>
        <time>2025-07-19T07:18:31Z</time>
      </trkpt>
      <trkpt lat="42.75776" lon="2.8353">
        <ele>40.6</ele>
        <time>2025-07-19T07:18:39Z</time>
      </trkpt>
      <trkpt lat="42.75773" lon="2.83526">
        <ele>40.8</ele>
        <time>2025-07-19T07:18:40Z</time>
      </trkpt>
      <trkpt lat="42.75759" lon="2.83505">
        <ele>41</ele>
        <time>2025-07-19T07:18:45Z</time>
      </trkpt>
      <trkpt lat="42.75735" lon="2.83465">
        <ele>41</ele>
        <time>2025-07-19T07:18:54Z</time>
      </trkpt>
      <trkpt lat="42.75706" lon="2.83422">
        <ele>41.4</ele>
        <time>2025-07-19T07:19:04Z</time>
      </trkpt>
      <trkpt lat="42.7568" lon="2.83387">
        <ele>41.6</ele>
        <time>2025-07-19T07:19:13Z</time>
      </trkpt>
      <trkpt lat="42.75675" lon="2.83371">
        <ele>41.6</ele>
        <time>2025-07-19T07:19:17Z</time>
      </trkpt>
      <trkpt lat="42.75666" lon="2.8332">
        <ele>41.8</ele>
        <time>2025-07-19T07:19:27Z</time>
      </trkpt>
      <trkpt lat="42.75654" lon="2.83274">
        <ele>42</ele>
        <time>2025-07-19T07:19:34Z</time>
      </trkpt>
      <trkpt lat="42.75641" lon="2.83223">
        <ele>42.6</ele>
        <time>2025-07-19T07:19:42Z</time>
      </trkpt>
      <trkpt lat="42.75636" lon="2.83203">
        <ele>43.2</ele>
        <time>2025-07-19T07:19:45Z</time>
      </trkpt>
      <trkpt lat="42.7562" lon="2.83143">
        <ele>43.8</ele>
        <time>2025-07-19T07:19:54Z</time>
      </trkpt>
      <trkpt lat="42.75611" lon="2.83109">
        <ele>44.4</ele>
        <time>2025-07-19T07:19:59Z</time>
      </trkpt>
      <trkpt lat="42.75606" lon="2.83089">
        <ele>44.6</ele>
        <time>2025-07-19T07:20:02Z</time>
      </trkpt>
      <trkpt lat="42.75586" lon="2.83015">
        <ele>45.2</ele>
        <time>2025-07-19T07:20:13Z</time>
      </trkpt>
      <trkpt lat="42.75582" lon="2.83002">
        <ele>45.4</ele>
        <time>2025-07-19T07:20:15Z</time>
      </trkpt>
      <trkpt lat="42.75566" lon="2.82943">
        <ele>46.2</ele>
        <time>2025-07-19T07:20:24Z</time>
      </trkpt>
      <trkpt lat="42.75564" lon="2.82936">
        <ele>46.4</ele>
        <time>2025-07-19T07:20:25Z</time>
      </trkpt>
      <trkpt lat="42.7555" lon="2.82877">
        <ele>47.4</ele>
        <time>2025-07-19T07:20:34Z</time>
      </trkpt>
      <trkpt lat="42.75546" lon="2.82865">
        <ele>47.6</ele>
        <time>2025-07-19T07:20:36Z</time>
      </trkpt>
      <trkpt lat="42.75536" lon="2.82825">
        <ele>48.2</ele>
        <time>2025-07-19T07:20:42Z</time>
      </trkpt>
      <trkpt lat="42.75528" lon="2.82795">
        <ele>48.6</ele>
        <time>2025-07-19T07:20:47Z</time>
      </trkpt>
      <trkpt lat="42.75519" lon="2.82762">
        <ele>49</ele>
        <time>2025-07-19T07:20:52Z</time>
      </trkpt>
      <trkpt lat="42.75507" lon="2.82718">
        <ele>49.8</ele>
        <time>2025-07-19T07:21:00Z</time>
      </trkpt>
      <trkpt lat="42.75503" lon="2.82705">
        <ele>49.8</ele>
        <time>2025-07-19T07:21:02Z</time>
      </trkpt>
      <trkpt lat="42.75489" lon="2.82651">
        <ele>50.6</ele>
        <time>2025-07-19T07:21:11Z</time>
      </trkpt>
      <trkpt lat="42.75487" lon="2.82644">
        <ele>50.8</ele>
        <time>2025-07-19T07:21:12Z</time>
      </trkpt>
      <trkpt lat="42.75469" lon="2.82574">
        <ele>51.4</ele>
        <time>2025-07-19T07:21:23Z</time>
      </trkpt>
      <trkpt lat="42.75467" lon="2.82568">
        <ele>51.4</ele>
        <time>2025-07-19T07:21:24Z</time>
      </trkpt>
      <trkpt lat="42.75458" lon="2.82537">
        <ele>51.8</ele>
        <time>2025-07-19T07:21:29Z</time>
      </trkpt>
      <trkpt lat="42.75451" lon="2.82504">
        <ele>52.2</ele>
        <time>2025-07-19T07:21:34Z</time>
      </trkpt>
      <trkpt lat="42.75447" lon="2.82463">
        <ele>53</ele>
        <time>2025-07-19T07:21:40Z</time>
      </trkpt>
      <trkpt lat="42.75446" lon="2.8245">
        <ele>53</ele>
        <time>2025-07-19T07:21:42Z</time>
      </trkpt>
      <trkpt lat="42.75443" lon="2.82374">
        <ele>53.8</ele>
        <time>2025-07-19T07:21:53Z</time>
      </trkpt>
      <trkpt lat="42.75442" lon="2.82361">
        <ele>54</ele>
        <time>2025-07-19T07:21:55Z</time>
      </trkpt>
      <trkpt lat="42.7544" lon="2.82308">
        <ele>54.6</ele>
        <time>2025-07-19T07:22:03Z</time>
      </trkpt>
      <trkpt lat="42.75438" lon="2.82267">
        <ele>55</ele>
        <time>2025-07-19T07:22:09Z</time>
      </trkpt>
      <trkpt lat="42.75437" lon="2.82256">
        <ele>55.2</ele>
        <time>2025-07-19T07:22:11Z</time>
      </trkpt>
      <trkpt lat="42.75434" lon="2.82197">
        <ele>56</ele>
        <time>2025-07-19T07:22:20Z</time>
      </trkpt>
      <trkpt lat="42.75434" lon="2.8219">
        <ele>56.2</ele>
        <time>2025-07-19T07:22:21Z</time>
      </trkpt>
      <trkpt lat="42.75431" lon="2.82133">
        <ele>56.8</ele>
        <time>2025-07-19T07:22:30Z</time>
      </trkpt>
      <trkpt lat="42.75427" lon="2.82101">
        <ele>57.2</ele>
        <time>2025-07-19T07:22:35Z</time>
      </trkpt>
      <trkpt lat="42.75422" lon="2.8207">
        <ele>57.4</ele>
        <time>2025-07-19T07:22:40Z</time>
      </trkpt>
      <trkpt lat="42.75414" lon="2.82026">
        <ele>58.2</ele>
        <time>2025-07-19T07:22:47Z</time>
      </trkpt>
      <trkpt lat="42.75412" lon="2.82015">
        <ele>58.4</ele>
        <time>2025-07-19T07:22:49Z</time>
      </trkpt>
      <trkpt lat="42.75405" lon="2.81984">
        <ele>58.6</ele>
        <time>2025-07-19T07:22:54Z</time>
      </trkpt>
      <trkpt lat="42.75397" lon="2.81967">
        <ele>58.8</ele>
        <time>2025-07-19T07:22:57Z</time>
      </trkpt>
      <trkpt lat="42.7537" lon="2.81906">
        <ele>59.2</ele>
        <time>2025-07-19T07:23:07Z</time>
      </trkpt>
      <trkpt lat="42.75368" lon="2.819">
        <ele>59.2</ele>
        <time>2025-07-19T07:23:08Z</time>
      </trkpt>
      <trkpt lat="42.75348" lon="2.81858">
        <ele>59.8</ele>
        <time>2025-07-19T07:23:16Z</time>
      </trkpt>
      <trkpt lat="42.75329" lon="2.81823">
        <ele>60.4</ele>
        <time>2025-07-19T07:23:23Z</time>
      </trkpt>
      <trkpt lat="42.75326" lon="2.81819">
        <ele>60.4</ele>
        <time>2025-07-19T07:23:24Z</time>
      </trkpt>
      <trkpt lat="42.7531" lon="2.8179">
        <ele>60.8</ele>
        <time>2025-07-19T07:23:30Z</time>
      </trkpt>
      <trkpt lat="42.75308" lon="2.81785">
        <ele>60.8</ele>
        <time>2025-07-19T07:23:31Z</time>
      </trkpt>
      <trkpt lat="42.75307" lon="2.8178">
        <ele>60.8</ele>
        <time>2025-07-19T07:23:32Z</time>
      </trkpt>
      <trkpt lat="42.75304" lon="2.81766">
        <ele>61</ele>
        <time>2025-07-19T07:23:35Z</time>
      </trkpt>
      <trkpt lat="42.75302" lon="2.81752">
        <ele>61</ele>
        <time>2025-07-19T07:23:39Z</time>
      </trkpt>
      <trkpt lat="42.75299" lon="2.81748">
        <ele>61.2</ele>
        <time>2025-07-19T07:23:41Z</time>
      </trkpt>
      <trkpt lat="42.75295" lon="2.81748">
        <ele>61.4</ele>
        <time>2025-07-19T07:23:43Z</time>
      </trkpt>
      <trkpt lat="42.75288" lon="2.81736">
        <ele>61.6</ele>
        <time>2025-07-19T07:23:47Z</time>
      </trkpt>
      <trkpt lat="42.75276" lon="2.81725">
        <ele>61.8</ele>
        <time>2025-07-19T07:23:52Z</time>
      </trkpt>
      <trkpt lat="42.75264" lon="2.81712">
        <ele>62</ele>
        <time>2025-07-19T07:23:56Z</time>
      </trkpt>
      <trkpt lat="42.75251" lon="2.81682">
        <ele>62.2</ele>
        <time>2025-07-19T07:24:02Z</time>
      </trkpt>
      <trkpt lat="42.75237" lon="2.81648">
        <ele>62.6</ele>
        <time>2025-07-19T07:24:09Z</time>
      </trkpt>
      <trkpt lat="42.75233" lon="2.81634">
        <ele>62.6</ele>
        <time>2025-07-19T07:24:12Z</time>
      </trkpt>
      <trkpt lat="42.75221" lon="2.81595">
        <ele>63.4</ele>
        <time>2025-07-19T07:24:19Z</time>
      </trkpt>
      <trkpt lat="42.75215" lon="2.81578">
        <ele>63.6</ele>
        <time>2025-07-19T07:24:22Z</time>
      </trkpt>
      <trkpt lat="42.75201" lon="2.81533">
        <ele>64</ele>
        <time>2025-07-19T07:24:30Z</time>
      </trkpt>
      <trkpt lat="42.75182" lon="2.81479">
        <ele>64.4</ele>
        <time>2025-07-19T07:24:40Z</time>
      </trkpt>
      <trkpt lat="42.75181" lon="2.81474">
        <ele>64.6</ele>
        <time>2025-07-19T07:24:41Z</time>
      </trkpt>
      <trkpt lat="42.75173" lon="2.81453">
        <ele>64.8</ele>
        <time>2025-07-19T07:24:45Z</time>
      </trkpt>
      <trkpt lat="42.75169" lon="2.81446">
        <ele>64.8</ele>
        <time>2025-07-19T07:24:47Z</time>
      </trkpt>
      <trkpt lat="42.75158" lon="2.81412">
        <ele>65.4</ele>
        <time>2025-07-19T07:24:53Z</time>
      </trkpt>
      <trkpt lat="42.75152" lon="2.81394">
        <ele>65.6</ele>
        <time>2025-07-19T07:24:56Z</time>
      </trkpt>
      <trkpt lat="42.75145" lon="2.81372">
        <ele>65.8</ele>
        <time>2025-07-19T07:25:00Z</time>
      </trkpt>
      <trkpt lat="42.75143" lon="2.81366">
        <ele>65.8</ele>
        <time>2025-07-19T07:25:01Z</time>
      </trkpt>
      <trkpt lat="42.75137" lon="2.81316">
        <ele>66.2</ele>
        <time>2025-07-19T07:25:09Z</time>
      </trkpt>
      <trkpt lat="42.75136" lon="2.81258">
        <ele>66.4</ele>
        <time>2025-07-19T07:25:18Z</time>
      </trkpt>
      <trkpt lat="42.75136" lon="2.81233">
        <ele>66.6</ele>
        <time>2025-07-19T07:25:22Z</time>
      </trkpt>
      <trkpt lat="42.75137" lon="2.81201">
        <ele>67</ele>
        <time>2025-07-19T07:25:27Z</time>
      </trkpt>
      <trkpt lat="42.75135" lon="2.81159">
        <ele>67.6</ele>
        <time>2025-07-19T07:25:34Z</time>
      </trkpt>
      <trkpt lat="42.75133" lon="2.81153">
        <ele>67.6</ele>
        <time>2025-07-19T07:25:35Z</time>
      </trkpt>
      <trkpt lat="42.7513" lon="2.8115">
        <ele>67.6</ele>
        <time>2025-07-19T07:25:36Z</time>
      </trkpt>
      <trkpt lat="42.75126" lon="2.81146">
        <ele>67.8</ele>
        <time>2025-07-19T07:25:37Z</time>
      </trkpt>
      <trkpt lat="42.75121" lon="2.81144">
        <ele>67.8</ele>
        <time>2025-07-19T07:25:38Z</time>
      </trkpt>
      <trkpt lat="42.75106" lon="2.8114">
        <ele>67.8</ele>
        <time>2025-07-19T07:25:41Z</time>
      </trkpt>
      <trkpt lat="42.75096" lon="2.81139">
        <ele>68</ele>
        <time>2025-07-19T07:25:43Z</time>
      </trkpt>
      <trkpt lat="42.75082" lon="2.81137">
        <ele>68</ele>
        <time>2025-07-19T07:25:46Z</time>
      </trkpt>
      <trkpt lat="42.75073" lon="2.81135">
        <ele>68</ele>
        <time>2025-07-19T07:25:48Z</time>
      </trkpt>
      <trkpt lat="42.75059" lon="2.81132">
        <ele>68.2</ele>
        <time>2025-07-19T07:25:51Z</time>
      </trkpt>
      <trkpt lat="42.75045" lon="2.81129">
        <ele>68.8</ele>
        <time>2025-07-19T07:25:54Z</time>
      </trkpt>
      <trkpt lat="42.75037" lon="2.81127">
        <ele>69.2</ele>
        <time>2025-07-19T07:25:56Z</time>
      </trkpt>
      <trkpt lat="42.75028" lon="2.81124">
        <ele>69.4</ele>
        <time>2025-07-19T07:25:58Z</time>
      </trkpt>
      <trkpt lat="42.7502" lon="2.8112">
        <ele>69.8</ele>
        <time>2025-07-19T07:26:00Z</time>
      </trkpt>
      <trkpt lat="42.75012" lon="2.81115">
        <ele>70.2</ele>
        <time>2025-07-19T07:26:02Z</time>
      </trkpt>
      <trkpt lat="42.75004" lon="2.8111">
        <ele>70.6</ele>
        <time>2025-07-19T07:26:04Z</time>
      </trkpt>
      <trkpt lat="42.74988" lon="2.81099">
        <ele>71</ele>
        <time>2025-07-19T07:26:08Z</time>
      </trkpt>
      <trkpt lat="42.74985" lon="2.81096">
        <ele>71</ele>
        <time>2025-07-19T07:26:09Z</time>
      </trkpt>
      <trkpt lat="42.74947" lon="2.81069">
        <ele>71</ele>
        <time>2025-07-19T07:26:18Z</time>
      </trkpt>
      <trkpt lat="42.74918" lon="2.81049">
        <ele>70.6</ele>
        <time>2025-07-19T07:26:25Z</time>
      </trkpt>
      <trkpt lat="42.74908" lon="2.81048">
        <ele>70.6</ele>
        <time>2025-07-19T07:26:27Z</time>
      </trkpt>
      <trkpt lat="42.74904" lon="2.8105">
        <ele>70.4</ele>
        <time>2025-07-19T07:26:28Z</time>
      </trkpt>
      <trkpt lat="42.74894" lon="2.81055">
        <ele>70.2</ele>
        <time>2025-07-19T07:26:30Z</time>
      </trkpt>
      <trkpt lat="42.74876" lon="2.81066">
        <ele>70</ele>
        <time>2025-07-19T07:26:33Z</time>
      </trkpt>
      <trkpt lat="42.74859" lon="2.81077">
        <ele>69.4</ele>
        <time>2025-07-19T07:26:36Z</time>
      </trkpt>
      <trkpt lat="42.74841" lon="2.81089">
        <ele>68.8</ele>
        <time>2025-07-19T07:26:39Z</time>
      </trkpt>
      <trkpt lat="42.74827" lon="2.811">
        <ele>68.4</ele>
        <time>2025-07-19T07:26:42Z</time>
      </trkpt>
      <trkpt lat="42.74817" lon="2.81107">
        <ele>68.4</ele>
        <time>2025-07-19T07:26:44Z</time>
      </trkpt>
      <trkpt lat="42.74806" lon="2.81113">
        <ele>68.4</ele>
        <time>2025-07-19T07:26:46Z</time>
      </trkpt>
      <trkpt lat="42.74794" lon="2.81121">
        <ele>68.4</ele>
        <time>2025-07-19T07:26:48Z</time>
      </trkpt>
      <trkpt lat="42.74749" lon="2.8115">
        <ele>69</ele>
        <time>2025-07-19T07:26:57Z</time>
      </trkpt>
      <trkpt lat="42.74711" lon="2.81176">
        <ele>69.4</ele>
        <time>2025-07-19T07:27:05Z</time>
      </trkpt>
      <trkpt lat="42.74706" lon="2.81179">
        <ele>69.4</ele>
        <time>2025-07-19T07:27:06Z</time>
      </trkpt>
      <trkpt lat="42.74659" lon="2.81212">
        <ele>70</ele>
        <time>2025-07-19T07:27:16Z</time>
      </trkpt>
      <trkpt lat="42.7464" lon="2.81223">
        <ele>70.4</ele>
        <time>2025-07-19T07:27:20Z</time>
      </trkpt>
      <trkpt lat="42.74626" lon="2.81232">
        <ele>70.6</ele>
        <time>2025-07-19T07:27:23Z</time>
      </trkpt>
      <trkpt lat="42.74613" lon="2.81241">
        <ele>70.8</ele>
        <time>2025-07-19T07:27:26Z</time>
      </trkpt>
      <trkpt lat="42.74601" lon="2.81249">
        <ele>71.2</ele>
        <time>2025-07-19T07:27:29Z</time>
      </trkpt>
      <trkpt lat="42.74584" lon="2.8126">
        <ele>71.6</ele>
        <time>2025-07-19T07:27:33Z</time>
      </trkpt>
      <trkpt lat="42.74574" lon="2.81262">
        <ele>71.8</ele>
        <time>2025-07-19T07:27:35Z</time>
      </trkpt>
      <trkpt lat="42.74565" lon="2.81262">
        <ele>72.2</ele>
        <time>2025-07-19T07:27:37Z</time>
      </trkpt>
      <trkpt lat="42.74557" lon="2.81265">
        <ele>72.6</ele>
        <time>2025-07-19T07:27:39Z</time>
      </trkpt>
      <trkpt lat="42.74553" lon="2.8127">
        <ele>72.8</ele>
        <time>2025-07-19T07:27:40Z</time>
      </trkpt>
      <trkpt lat="42.7455" lon="2.81274">
        <ele>72.8</ele>
        <time>2025-07-19T07:27:41Z</time>
      </trkpt>
      <trkpt lat="42.74542" lon="2.81286">
        <ele>73</ele>
        <time>2025-07-19T07:27:44Z</time>
      </trkpt>
      <trkpt lat="42.74539" lon="2.81289">
        <ele>73.4</ele>
        <time>2025-07-19T07:27:45Z</time>
      </trkpt>
      <trkpt lat="42.74525" lon="2.81299">
        <ele>73.8</ele>
        <time>2025-07-19T07:27:49Z</time>
      </trkpt>
      <trkpt lat="42.74515" lon="2.81306">
        <ele>74.2</ele>
        <time>2025-07-19T07:27:52Z</time>
      </trkpt>
      <trkpt lat="42.74498" lon="2.81318">
        <ele>75</ele>
        <time>2025-07-19T07:27:57Z</time>
      </trkpt>
      <trkpt lat="42.74488" lon="2.81324">
        <ele>75.4</ele>
        <time>2025-07-19T07:28:00Z</time>
      </trkpt>
      <trkpt lat="42.74478" lon="2.81331">
        <ele>76</ele>
        <time>2025-07-19T07:28:03Z</time>
      </trkpt>
      <trkpt lat="42.74457" lon="2.81345">
        <ele>77.2</ele>
        <time>2025-07-19T07:28:09Z</time>
      </trkpt>
      <trkpt lat="42.74452" lon="2.81348">
        <ele>77.2</ele>
        <time>2025-07-19T07:28:10Z</time>
      </trkpt>
      <trkpt lat="42.74429" lon="2.81363">
        <ele>78.2</ele>
        <time>2025-07-19T07:28:17Z</time>
      </trkpt>
      <trkpt lat="42.74413" lon="2.81375">
        <ele>79</ele>
        <time>2025-07-19T07:28:22Z</time>
      </trkpt>
      <trkpt lat="42.74405" lon="2.8138">
        <ele>79.4</ele>
        <time>2025-07-19T07:28:24Z</time>
      </trkpt>
      <trkpt lat="42.74379" lon="2.81397">
        <ele>80.4</ele>
        <time>2025-07-19T07:28:32Z</time>
      </trkpt>
      <trkpt lat="42.74372" lon="2.81402">
        <ele>80.6</ele>
        <time>2025-07-19T07:28:34Z</time>
      </trkpt>
      <trkpt lat="42.74362" lon="2.81409">
        <ele>81.6</ele>
        <time>2025-07-19T07:28:37Z</time>
      </trkpt>
      <trkpt lat="42.74352" lon="2.81416">
        <ele>81.8</ele>
        <time>2025-07-19T07:28:40Z</time>
      </trkpt>
      <trkpt lat="42.74325" lon="2.81434">
        <ele>82.4</ele>
        <time>2025-07-19T07:28:48Z</time>
      </trkpt>
      <trkpt lat="42.74319" lon="2.81438">
        <ele>82.6</ele>
        <time>2025-07-19T07:28:50Z</time>
      </trkpt>
      <trkpt lat="42.74299" lon="2.81448">
        <ele>83.6</ele>
        <time>2025-07-19T07:28:56Z</time>
      </trkpt>
      <trkpt lat="42.74299" lon="2.81448">
        <ele>83.8</ele>
        <time>2025-07-19T07:28:57Z</time>
      </trkpt>
      <trkpt lat="42.74275" lon="2.8146">
        <ele>84.6</ele>
        <time>2025-07-19T07:29:03Z</time>
      </trkpt>
      <trkpt lat="42.74268" lon="2.81463">
        <ele>85</ele>
        <time>2025-07-19T07:29:05Z</time>
      </trkpt>
      <trkpt lat="42.74251" lon="2.81462">
        <ele>85.6</ele>
        <time>2025-07-19T07:29:10Z</time>
      </trkpt>
      <trkpt lat="42.74248" lon="2.81458">
        <ele>85.8</ele>
        <time>2025-07-19T07:29:11Z</time>
      </trkpt>
      <trkpt lat="42.74235" lon="2.81447">
        <ele>86.6</ele>
        <time>2025-07-19T07:29:15Z</time>
      </trkpt>
      <trkpt lat="42.74228" lon="2.81447">
        <ele>87</ele>
        <time>2025-07-19T07:29:17Z</time>
      </trkpt>
      <trkpt lat="42.74219" lon="2.81453">
        <ele>87.2</ele>
        <time>2025-07-19T07:29:19Z</time>
      </trkpt>
      <trkpt lat="42.74217" lon="2.81457">
        <ele>87.2</ele>
        <time>2025-07-19T07:29:20Z</time>
      </trkpt>
      <trkpt lat="42.74215" lon="2.8147">
        <ele>87.2</ele>
        <time>2025-07-19T07:29:22Z</time>
      </trkpt>
      <trkpt lat="42.74218" lon="2.81483">
        <ele>87.2</ele>
        <time>2025-07-19T07:29:24Z</time>
      </trkpt>
      <trkpt lat="42.74221" lon="2.81489">
        <ele>87.2</ele>
        <time>2025-07-19T07:29:25Z</time>
      </trkpt>
      <trkpt lat="42.74227" lon="2.815">
        <ele>87.2</ele>
        <time>2025-07-19T07:29:27Z</time>
      </trkpt>
      <trkpt lat="42.7423" lon="2.81513">
        <ele>87</ele>
        <time>2025-07-19T07:29:30Z</time>
      </trkpt>
      <trkpt lat="42.74236" lon="2.81523">
        <ele>86.8</ele>
        <time>2025-07-19T07:29:34Z</time>
      </trkpt>
      <trkpt lat="42.74238" lon="2.81522">
        <ele>86.8</ele>
        <time>2025-07-19T07:29:35Z</time>
      </trkpt>
      <trkpt lat="42.74241" lon="2.81509">
        <ele>86.6</ele>
        <time>2025-07-19T07:29:38Z</time>
      </trkpt>
      <trkpt lat="42.74245" lon="2.81489">
        <ele>86.6</ele>
        <time>2025-07-19T07:29:42Z</time>
      </trkpt>
      <trkpt lat="42.7425" lon="2.81467">
        <ele>86.8</ele>
        <time>2025-07-19T07:29:46Z</time>
      </trkpt>
      <trkpt lat="42.74248" lon="2.81461">
        <ele>87</ele>
        <time>2025-07-19T07:29:47Z</time>
      </trkpt>
      <trkpt lat="42.74242" lon="2.81453">
        <ele>87</ele>
        <time>2025-07-19T07:29:49Z</time>
      </trkpt>
      <trkpt lat="42.74234" lon="2.81449">
        <ele>87.2</ele>
        <time>2025-07-19T07:29:51Z</time>
      </trkpt>
      <trkpt lat="42.74225" lon="2.81449">
        <ele>87.4</ele>
        <time>2025-07-19T07:29:53Z</time>
      </trkpt>
      <trkpt lat="42.74209" lon="2.8146">
        <ele>87.4</ele>
        <time>2025-07-19T07:29:57Z</time>
      </trkpt>
      <trkpt lat="42.74205" lon="2.81461">
        <ele>87.4</ele>
        <time>2025-07-19T07:29:58Z</time>
      </trkpt>
      <trkpt lat="42.74194" lon="2.8146">
        <ele>87.2</ele>
        <time>2025-07-19T07:30:03Z</time>
      </trkpt>
      <trkpt lat="42.74194" lon="2.8146">
        <ele>87</ele>
        <time>2025-07-19T07:30:05Z</time>
      </trkpt>
      <trkpt lat="42.7419" lon="2.81461">
        <ele>87</ele>
        <time>2025-07-19T07:31:00Z</time>
      </trkpt>
      <trkpt lat="42.74188" lon="2.81461">
        <ele>87</ele>
        <time>2025-07-19T07:31:01Z</time>
      </trkpt>
      <trkpt lat="42.74185" lon="2.8146">
        <ele>87</ele>
        <time>2025-07-19T07:31:03Z</time>
      </trkpt>
      <trkpt lat="42.74185" lon="2.8146">
        <ele>87</ele>
        <time>2025-07-19T07:31:05Z</time>
      </trkpt>
      <trkpt lat="42.74181" lon="2.81459">
        <ele>87</ele>
        <time>2025-07-19T07:31:26Z</time>
      </trkpt>
      <trkpt lat="42.74176" lon="2.81457">
        <ele>87</ele>
        <time>2025-07-19T07:31:28Z</time>
      </trkpt>
      <trkpt lat="42.74156" lon="2.81448">
        <ele>87</ele>
        <time>2025-07-19T07:31:33Z</time>
      </trkpt>
      <trkpt lat="42.74121" lon="2.81427">
        <ele>87</ele>
        <time>2025-07-19T07:31:41Z</time>
      </trkpt>
      <trkpt lat="42.74078" lon="2.81401">
        <ele>87</ele>
        <time>2025-07-19T07:31:50Z</time>
      </trkpt>
      <trkpt lat="42.74029" lon="2.81371">
        <ele>87</ele>
        <time>2025-07-19T07:32:00Z</time>
      </trkpt>
      <trkpt lat="42.73987" lon="2.81345">
        <ele>87.4</ele>
        <time>2025-07-19T07:32:09Z</time>
      </trkpt>
      <trkpt lat="42.7396" lon="2.81328">
        <ele>88</ele>
        <time>2025-07-19T07:32:15Z</time>
      </trkpt>
      <trkpt lat="42.73946" lon="2.81319">
        <ele>88.2</ele>
        <time>2025-07-19T07:32:18Z</time>
      </trkpt>
      <trkpt lat="42.73932" lon="2.81312">
        <ele>88.4</ele>
        <time>2025-07-19T07:32:21Z</time>
      </trkpt>
      <trkpt lat="42.73914" lon="2.813">
        <ele>88.6</ele>
        <time>2025-07-19T07:32:25Z</time>
      </trkpt>
      <trkpt lat="42.73885" lon="2.81281">
        <ele>89</ele>
        <time>2025-07-19T07:32:31Z</time>
      </trkpt>
      <trkpt lat="42.73866" lon="2.8127">
        <ele>89</ele>
        <time>2025-07-19T07:32:35Z</time>
      </trkpt>
      <trkpt lat="42.73816" lon="2.81238">
        <ele>89</ele>
        <time>2025-07-19T07:32:45Z</time>
      </trkpt>
      <trkpt lat="42.73767" lon="2.81208">
        <ele>88.4</ele>
        <time>2025-07-19T07:32:54Z</time>
      </trkpt>
      <trkpt lat="42.73726" lon="2.81182">
        <ele>88</ele>
        <time>2025-07-19T07:33:01Z</time>
      </trkpt>
      <trkpt lat="42.73713" lon="2.81174">
        <ele>87.6</ele>
        <time>2025-07-19T07:33:03Z</time>
      </trkpt>
      <trkpt lat="42.73681" lon="2.81155">
        <ele>86.8</ele>
        <time>2025-07-19T07:33:08Z</time>
      </trkpt>
      <trkpt lat="42.73656" lon="2.8114">
        <ele>86.4</ele>
        <time>2025-07-19T07:33:12Z</time>
      </trkpt>
      <trkpt lat="42.73611" lon="2.81112">
        <ele>86.2</ele>
        <time>2025-07-19T07:33:20Z</time>
      </trkpt>
      <trkpt lat="42.73573" lon="2.81089">
        <ele>87.4</ele>
        <time>2025-07-19T07:33:28Z</time>
      </trkpt>
      <trkpt lat="42.73561" lon="2.81081">
        <ele>88</ele>
        <time>2025-07-19T07:33:31Z</time>
      </trkpt>
      <trkpt lat="42.73539" lon="2.81068">
        <ele>88.6</ele>
        <time>2025-07-19T07:33:36Z</time>
      </trkpt>
      <trkpt lat="42.73527" lon="2.8106">
        <ele>89</ele>
        <time>2025-07-19T07:33:39Z</time>
      </trkpt>
      <trkpt lat="42.73492" lon="2.8104">
        <ele>89.8</ele>
        <time>2025-07-19T07:33:47Z</time>
      </trkpt>
      <trkpt lat="42.73484" lon="2.81034">
        <ele>90.2</ele>
        <time>2025-07-19T07:33:49Z</time>
      </trkpt>
      <trkpt lat="42.7344" lon="2.81007">
        <ele>90.6</ele>
        <time>2025-07-19T07:33:59Z</time>
      </trkpt>
      <trkpt lat="42.73422" lon="2.80996">
        <ele>91</ele>
        <time>2025-07-19T07:34:03Z</time>
      </trkpt>
      <trkpt lat="42.73391" lon="2.80977">
        <ele>91.6</ele>
        <time>2025-07-19T07:34:10Z</time>
      </trkpt>
      <trkpt lat="42.73355" lon="2.80955">
        <ele>92</ele>
        <time>2025-07-19T07:34:18Z</time>
      </trkpt>
      <trkpt lat="42.7335" lon="2.80952">
        <ele>92.2</ele>
        <time>2025-07-19T07:34:19Z</time>
      </trkpt>
      <trkpt lat="42.73307" lon="2.80925">
        <ele>92.2</ele>
        <time>2025-07-19T07:34:28Z</time>
      </trkpt>
      <trkpt lat="42.73258" lon="2.80895">
        <ele>92.4</ele>
        <time>2025-07-19T07:34:38Z</time>
      </trkpt>
      <trkpt lat="42.73214" lon="2.80868">
        <ele>92.6</ele>
        <time>2025-07-19T07:34:47Z</time>
      </trkpt>
      <trkpt lat="42.73164" lon="2.80836">
        <ele>92.8</ele>
        <time>2025-07-19T07:34:57Z</time>
      </trkpt>
      <trkpt lat="42.73157" lon="2.80832">
        <ele>92.8</ele>
        <time>2025-07-19T07:34:58Z</time>
      </trkpt>
      <trkpt lat="42.73133" lon="2.80817">
        <ele>93</ele>
        <time>2025-07-19T07:35:03Z</time>
      </trkpt>
      <trkpt lat="42.73107" lon="2.80801">
        <ele>93</ele>
        <time>2025-07-19T07:35:08Z</time>
      </trkpt>
      <trkpt lat="42.73052" lon="2.80768">
        <ele>93.2</ele>
        <time>2025-07-19T07:35:18Z</time>
      </trkpt>
      <trkpt lat="42.73047" lon="2.80764">
        <ele>93.2</ele>
        <time>2025-07-19T07:35:19Z</time>
      </trkpt>
      <trkpt lat="42.72997" lon="2.80733">
        <ele>93.2</ele>
        <time>2025-07-19T07:35:28Z</time>
      </trkpt>
      <trkpt lat="42.72942" lon="2.807">
        <ele>93.2</ele>
        <time>2025-07-19T07:35:38Z</time>
      </trkpt>
      <trkpt lat="42.72931" lon="2.80693">
        <ele>93.2</ele>
        <time>2025-07-19T07:35:40Z</time>
      </trkpt>
      <trkpt lat="42.72887" lon="2.80665">
        <ele>93</ele>
        <time>2025-07-19T07:35:48Z</time>
      </trkpt>
      <trkpt lat="42.72837" lon="2.80635">
        <ele>93</ele>
        <time>2025-07-19T07:35:57Z</time>
      </trkpt>
      <trkpt lat="42.72832" lon="2.80631">
        <ele>93</ele>
        <time>2025-07-19T07:35:58Z</time>
      </trkpt>
      <trkpt lat="42.7278" lon="2.80599">
        <ele>92.6</ele>
        <time>2025-07-19T07:36:07Z</time>
      </trkpt>
      <trkpt lat="42.72768" lon="2.80592">
        <ele>92.6</ele>
        <time>2025-07-19T07:36:09Z</time>
      </trkpt>
      <trkpt lat="42.72722" lon="2.80564">
        <ele>92.4</ele>
        <time>2025-07-19T07:36:17Z</time>
      </trkpt>
      <trkpt lat="42.72674" lon="2.80535">
        <ele>92</ele>
        <time>2025-07-19T07:36:25Z</time>
      </trkpt>
      <trkpt lat="42.72655" lon="2.80523">
        <ele>91.4</ele>
        <time>2025-07-19T07:36:28Z</time>
      </trkpt>
      <trkpt lat="42.72605" lon="2.80492">
        <ele>91</ele>
        <time>2025-07-19T07:36:36Z</time>
      </trkpt>
      <trkpt lat="42.72599" lon="2.80488">
        <ele>91</ele>
        <time>2025-07-19T07:36:37Z</time>
      </trkpt>
      <trkpt lat="42.72592" lon="2.80484">
        <ele>91</ele>
        <time>2025-07-19T07:36:38Z</time>
      </trkpt>
      <trkpt lat="42.7256" lon="2.80459">
        <ele>90.8</ele>
        <time>2025-07-19T07:36:43Z</time>
      </trkpt>
      <trkpt lat="42.72555" lon="2.80451">
        <ele>90.4</ele>
        <time>2025-07-19T07:36:44Z</time>
      </trkpt>
      <trkpt lat="42.72539" lon="2.80427">
        <ele>89.6</ele>
        <time>2025-07-19T07:36:47Z</time>
      </trkpt>
      <trkpt lat="42.72521" lon="2.80391">
        <ele>88.6</ele>
        <time>2025-07-19T07:36:51Z</time>
      </trkpt>
      <trkpt lat="42.72517" lon="2.80382">
        <ele>88.4</ele>
        <time>2025-07-19T07:36:52Z</time>
      </trkpt>
      <trkpt lat="42.72498" lon="2.80346">
        <ele>87.4</ele>
        <time>2025-07-19T07:36:56Z</time>
      </trkpt>
      <trkpt lat="42.72492" lon="2.80338">
        <ele>87.2</ele>
        <time>2025-07-19T07:36:57Z</time>
      </trkpt>
      <trkpt lat="42.72486" lon="2.80331">
        <ele>87</ele>
        <time>2025-07-19T07:36:58Z</time>
      </trkpt>
      <trkpt lat="42.72479" lon="2.80324">
        <ele>86.6</ele>
        <time>2025-07-19T07:36:59Z</time>
      </trkpt>
      <trkpt lat="42.72471" lon="2.80318">
        <ele>86.4</ele>
        <time>2025-07-19T07:37:00Z</time>
      </trkpt>
      <trkpt lat="42.72463" lon="2.80313">
        <ele>86</ele>
        <time>2025-07-19T07:37:01Z</time>
      </trkpt>
      <trkpt lat="42.72455" lon="2.80309">
        <ele>85.8</ele>
        <time>2025-07-19T07:37:02Z</time>
      </trkpt>
      <trkpt lat="42.72437" lon="2.80305">
        <ele>85.2</ele>
        <time>2025-07-19T07:37:04Z</time>
      </trkpt>
      <trkpt lat="42.7241" lon="2.80303">
        <ele>84</ele>
        <time>2025-07-19T07:37:07Z</time>
      </trkpt>
      <trkpt lat="42.72385" lon="2.80302">
        <ele>82.8</ele>
        <time>2025-07-19T07:37:10Z</time>
      </trkpt>
      <trkpt lat="42.7235" lon="2.803">
        <ele>81.6</ele>
        <time>2025-07-19T07:37:14Z</time>
      </trkpt>
      <trkpt lat="42.72332" lon="2.80299">
        <ele>80.8</ele>
        <time>2025-07-19T07:37:16Z</time>
      </trkpt>
      <trkpt lat="42.72323" lon="2.80298">
        <ele>80.4</ele>
        <time>2025-07-19T07:37:17Z</time>
      </trkpt>
      <trkpt lat="42.72287" lon="2.80296">
        <ele>79.4</ele>
        <time>2025-07-19T07:37:21Z</time>
      </trkpt>
      <trkpt lat="42.72259" lon="2.80295">
        <ele>78.4</ele>
        <time>2025-07-19T07:37:24Z</time>
      </trkpt>
      <trkpt lat="42.7225" lon="2.80294">
        <ele>78.2</ele>
        <time>2025-07-19T07:37:25Z</time>
      </trkpt>
      <trkpt lat="42.72223" lon="2.80292">
        <ele>77.2</ele>
        <time>2025-07-19T07:37:28Z</time>
      </trkpt>
      <trkpt lat="42.72187" lon="2.8029">
        <ele>76</ele>
        <time>2025-07-19T07:37:32Z</time>
      </trkpt>
      <trkpt lat="42.72159" lon="2.80289">
        <ele>75.6</ele>
        <time>2025-07-19T07:37:35Z</time>
      </trkpt>
      <trkpt lat="42.72127" lon="2.80288">
        <ele>75</ele>
        <time>2025-07-19T07:37:39Z</time>
      </trkpt>
      <trkpt lat="42.72087" lon="2.80285">
        <ele>74.6</ele>
        <time>2025-07-19T07:37:44Z</time>
      </trkpt>
      <trkpt lat="42.72032" lon="2.80281">
        <ele>73.8</ele>
        <time>2025-07-19T07:37:51Z</time>
      </trkpt>
      <trkpt lat="42.72008" lon="2.80279">
        <ele>73.8</ele>
        <time>2025-07-19T07:37:54Z</time>
      </trkpt>
      <trkpt lat="42.71949" lon="2.80275">
        <ele>73.6</ele>
        <time>2025-07-19T07:38:02Z</time>
      </trkpt>
      <trkpt lat="42.71935" lon="2.80275">
        <ele>73.6</ele>
        <time>2025-07-19T07:38:04Z</time>
      </trkpt>
      <trkpt lat="42.71882" lon="2.80271">
        <ele>73.8</ele>
        <time>2025-07-19T07:38:12Z</time>
      </trkpt>
      <trkpt lat="42.71875" lon="2.80269">
        <ele>73.8</ele>
        <time>2025-07-19T07:38:13Z</time>
      </trkpt>
      <trkpt lat="42.71869" lon="2.80267">
        <ele>73.8</ele>
        <time>2025-07-19T07:38:14Z</time>
      </trkpt>
      <trkpt lat="42.71847" lon="2.80254">
        <ele>73.8</ele>
        <time>2025-07-19T07:38:17Z</time>
      </trkpt>
      <trkpt lat="42.718" lon="2.8021">
        <ele>73.4</ele>
        <time>2025-07-19T07:38:25Z</time>
      </trkpt>
      <trkpt lat="42.71793" lon="2.80203">
        <ele>73.2</ele>
        <time>2025-07-19T07:38:26Z</time>
      </trkpt>
      <trkpt lat="42.71745" lon="2.80153">
        <ele>73.4</ele>
        <time>2025-07-19T07:38:35Z</time>
      </trkpt>
      <trkpt lat="42.71733" lon="2.80141">
        <ele>73.4</ele>
        <time>2025-07-19T07:38:37Z</time>
      </trkpt>
      <trkpt lat="42.71695" lon="2.80107">
        <ele>73.6</ele>
        <time>2025-07-19T07:38:44Z</time>
      </trkpt>
      <trkpt lat="42.71648" lon="2.80067">
        <ele>74</ele>
        <time>2025-07-19T07:38:52Z</time>
      </trkpt>
      <trkpt lat="42.71599" lon="2.80028">
        <ele>74</ele>
        <time>2025-07-19T07:39:00Z</time>
      </trkpt>
      <trkpt lat="42.71594" lon="2.80024">
        <ele>74</ele>
        <time>2025-07-19T07:39:01Z</time>
      </trkpt>
      <trkpt lat="42.71544" lon="2.79978">
        <ele>74.4</ele>
        <time>2025-07-19T07:39:10Z</time>
      </trkpt>
      <trkpt lat="42.71538" lon="2.79973">
        <ele>74.4</ele>
        <time>2025-07-19T07:39:11Z</time>
      </trkpt>
      <trkpt lat="42.71505" lon="2.79944">
        <ele>75</ele>
        <time>2025-07-19T07:39:17Z</time>
      </trkpt>
      <trkpt lat="42.71476" lon="2.79918">
        <ele>75.4</ele>
        <time>2025-07-19T07:39:22Z</time>
      </trkpt>
      <trkpt lat="42.71456" lon="2.79899">
        <ele>76</ele>
        <time>2025-07-19T07:39:26Z</time>
      </trkpt>
      <trkpt lat="42.71423" lon="2.79869">
        <ele>76.4</ele>
        <time>2025-07-19T07:39:32Z</time>
      </trkpt>
      <trkpt lat="42.71383" lon="2.79834">
        <ele>77</ele>
        <time>2025-07-19T07:39:39Z</time>
      </trkpt>
      <trkpt lat="42.71379" lon="2.7983">
        <ele>77</ele>
        <time>2025-07-19T07:39:40Z</time>
      </trkpt>
      <trkpt lat="42.71333" lon="2.7979">
        <ele>77.8</ele>
        <time>2025-07-19T07:39:48Z</time>
      </trkpt>
      <trkpt lat="42.71322" lon="2.79781">
        <ele>78</ele>
        <time>2025-07-19T07:39:50Z</time>
      </trkpt>
      <trkpt lat="42.71284" lon="2.79758">
        <ele>78.6</ele>
        <time>2025-07-19T07:39:56Z</time>
      </trkpt>
      <trkpt lat="42.71266" lon="2.79748">
        <ele>79</ele>
        <time>2025-07-19T07:39:59Z</time>
      </trkpt>
      <trkpt lat="42.71253" lon="2.79742">
        <ele>79.2</ele>
        <time>2025-07-19T07:40:01Z</time>
      </trkpt>
      <trkpt lat="42.71233" lon="2.79733">
        <ele>79.2</ele>
        <time>2025-07-19T07:40:04Z</time>
      </trkpt>
      <trkpt lat="42.7118" lon="2.79711">
        <ele>79.6</ele>
        <time>2025-07-19T07:40:12Z</time>
      </trkpt>
      <trkpt lat="42.71166" lon="2.79706">
        <ele>79.6</ele>
        <time>2025-07-19T07:40:14Z</time>
      </trkpt>
      <trkpt lat="42.71151" lon="2.79702">
        <ele>79.6</ele>
        <time>2025-07-19T07:40:16Z</time>
      </trkpt>
      <trkpt lat="42.71123" lon="2.797">
        <ele>79.6</ele>
        <time>2025-07-19T07:40:20Z</time>
      </trkpt>
      <trkpt lat="42.71076" lon="2.79694">
        <ele>79.4</ele>
        <time>2025-07-19T07:40:26Z</time>
      </trkpt>
      <trkpt lat="42.71039" lon="2.7968">
        <ele>78.6</ele>
        <time>2025-07-19T07:40:31Z</time>
      </trkpt>
      <trkpt lat="42.70997" lon="2.79652">
        <ele>78.2</ele>
        <time>2025-07-19T07:40:37Z</time>
      </trkpt>
      <trkpt lat="42.7099" lon="2.79646">
        <ele>78</ele>
        <time>2025-07-19T07:40:38Z</time>
      </trkpt>
      <trkpt lat="42.70953" lon="2.79614">
        <ele>77</ele>
        <time>2025-07-19T07:40:43Z</time>
      </trkpt>
      <trkpt lat="42.70923" lon="2.79588">
        <ele>76</ele>
        <time>2025-07-19T07:40:47Z</time>
      </trkpt>
      <trkpt lat="42.709" lon="2.79568">
        <ele>75.2</ele>
        <time>2025-07-19T07:40:50Z</time>
      </trkpt>
      <trkpt lat="42.70892" lon="2.79561">
        <ele>74.8</ele>
        <time>2025-07-19T07:40:51Z</time>
      </trkpt>
      <trkpt lat="42.70855" lon="2.7952">
        <ele>74</ele>
        <time>2025-07-19T07:40:56Z</time>
      </trkpt>
      <trkpt lat="42.70834" lon="2.79487">
        <ele>73</ele>
        <time>2025-07-19T07:40:59Z</time>
      </trkpt>
      <trkpt lat="42.70823" lon="2.79467">
        <ele>72.4</ele>
        <time>2025-07-19T07:41:01Z</time>
      </trkpt>
      <trkpt lat="42.70812" lon="2.79443">
        <ele>71.8</ele>
        <time>2025-07-19T07:41:03Z</time>
      </trkpt>
      <trkpt lat="42.70798" lon="2.79405">
        <ele>70.8</ele>
        <time>2025-07-19T07:41:06Z</time>
      </trkpt>
      <trkpt lat="42.70794" lon="2.79391">
        <ele>70.8</ele>
        <time>2025-07-19T07:41:07Z</time>
      </trkpt>
      <trkpt lat="42.70784" lon="2.7935">
        <ele>69.6</ele>
        <time>2025-07-19T07:41:10Z</time>
      </trkpt>
      <trkpt lat="42.70779" lon="2.79323">
        <ele>69</ele>
        <time>2025-07-19T07:41:12Z</time>
      </trkpt>
      <trkpt lat="42.70772" lon="2.79282">
        <ele>68.4</ele>
        <time>2025-07-19T07:41:15Z</time>
      </trkpt>
      <trkpt lat="42.70767" lon="2.79255">
        <ele>68.2</ele>
        <time>2025-07-19T07:41:17Z</time>
      </trkpt>
      <trkpt lat="42.70762" lon="2.79231">
        <ele>68</ele>
        <time>2025-07-19T07:41:19Z</time>
      </trkpt>
      <trkpt lat="42.70752" lon="2.79201">
        <ele>68</ele>
        <time>2025-07-19T07:41:22Z</time>
      </trkpt>
      <trkpt lat="42.70728" lon="2.79133">
        <ele>68.2</ele>
        <time>2025-07-19T07:41:29Z</time>
      </trkpt>
      <trkpt lat="42.70707" lon="2.7908">
        <ele>68.6</ele>
        <time>2025-07-19T07:41:35Z</time>
      </trkpt>
      <trkpt lat="42.7068" lon="2.79013">
        <ele>69.6</ele>
        <time>2025-07-19T07:41:43Z</time>
      </trkpt>
      <trkpt lat="42.70678" lon="2.79006">
        <ele>69.6</ele>
        <time>2025-07-19T07:41:44Z</time>
      </trkpt>
      <trkpt lat="42.70662" lon="2.78967">
        <ele>70</ele>
        <time>2025-07-19T07:41:49Z</time>
      </trkpt>
      <trkpt lat="42.70643" lon="2.78918">
        <ele>70.6</ele>
        <time>2025-07-19T07:41:55Z</time>
      </trkpt>
      <trkpt lat="42.70637" lon="2.78901">
        <ele>70.8</ele>
        <time>2025-07-19T07:41:57Z</time>
      </trkpt>
      <trkpt lat="42.70625" lon="2.78867">
        <ele>70.8</ele>
        <time>2025-07-19T07:42:01Z</time>
      </trkpt>
      <trkpt lat="42.7062" lon="2.78852">
        <ele>71</ele>
        <time>2025-07-19T07:42:03Z</time>
      </trkpt>
      <trkpt lat="42.70616" lon="2.78835">
        <ele>71</ele>
        <time>2025-07-19T07:42:05Z</time>
      </trkpt>
      <trkpt lat="42.70601" lon="2.78771">
        <ele>71.2</ele>
        <time>2025-07-19T07:42:12Z</time>
      </trkpt>
      <trkpt lat="42.70586" lon="2.78705">
        <ele>71.4</ele>
        <time>2025-07-19T07:42:19Z</time>
      </trkpt>
      <trkpt lat="42.70584" lon="2.78694">
        <ele>71.4</ele>
        <time>2025-07-19T07:42:20Z</time>
      </trkpt>
      <trkpt lat="42.70571" lon="2.7863">
        <ele>71.4</ele>
        <time>2025-07-19T07:42:27Z</time>
      </trkpt>
      <trkpt lat="42.70555" lon="2.78574">
        <ele>71.4</ele>
        <time>2025-07-19T07:42:33Z</time>
      </trkpt>
      <trkpt lat="42.70529" lon="2.78517">
        <ele>71.8</ele>
        <time>2025-07-19T07:42:40Z</time>
      </trkpt>
      <trkpt lat="42.70519" lon="2.78503">
        <ele>71.8</ele>
        <time>2025-07-19T07:42:42Z</time>
      </trkpt>
      <trkpt lat="42.70504" lon="2.78481">
        <ele>72</ele>
        <time>2025-07-19T07:42:45Z</time>
      </trkpt>
      <trkpt lat="42.70493" lon="2.78465">
        <ele>72</ele>
        <time>2025-07-19T07:42:47Z</time>
      </trkpt>
      <trkpt lat="42.70467" lon="2.78431">
        <ele>72.6</ele>
        <time>2025-07-19T07:42:52Z</time>
      </trkpt>
      <trkpt lat="42.70449" lon="2.78406">
        <ele>73</ele>
        <time>2025-07-19T07:42:56Z</time>
      </trkpt>
      <trkpt lat="42.70425" lon="2.78374">
        <ele>73.4</ele>
        <time>2025-07-19T07:43:01Z</time>
      </trkpt>
      <trkpt lat="42.70396" lon="2.78334">
        <ele>74.2</ele>
        <time>2025-07-19T07:43:07Z</time>
      </trkpt>
      <trkpt lat="42.70376" lon="2.78306">
        <ele>74.4</ele>
        <time>2025-07-19T07:43:11Z</time>
      </trkpt>
      <trkpt lat="42.70338" lon="2.78253">
        <ele>74.4</ele>
        <time>2025-07-19T07:43:19Z</time>
      </trkpt>
      <trkpt lat="42.70333" lon="2.78247">
        <ele>74.4</ele>
        <time>2025-07-19T07:43:20Z</time>
      </trkpt>
      <trkpt lat="42.70297" lon="2.78197">
        <ele>74.6</ele>
        <time>2025-07-19T07:43:27Z</time>
      </trkpt>
      <trkpt lat="42.70256" lon="2.78139">
        <ele>74.6</ele>
        <time>2025-07-19T07:43:35Z</time>
      </trkpt>
      <trkpt lat="42.7025" lon="2.7813">
        <ele>74.2</ele>
        <time>2025-07-19T07:43:36Z</time>
      </trkpt>
      <trkpt lat="42.70218" lon="2.78086">
        <ele>73.6</ele>
        <time>2025-07-19T07:43:42Z</time>
      </trkpt>
      <trkpt lat="42.70212" lon="2.78078">
        <ele>73.4</ele>
        <time>2025-07-19T07:43:43Z</time>
      </trkpt>
      <trkpt lat="42.70195" lon="2.78054">
        <ele>73</ele>
        <time>2025-07-19T07:43:46Z</time>
      </trkpt>
      <trkpt lat="42.70185" lon="2.7804">
        <ele>73</ele>
        <time>2025-07-19T07:43:48Z</time>
      </trkpt>
      <trkpt lat="42.70158" lon="2.78002">
        <ele>73</ele>
        <time>2025-07-19T07:43:53Z</time>
      </trkpt>
      <trkpt lat="42.70151" lon="2.77995">
        <ele>73</ele>
        <time>2025-07-19T07:43:54Z</time>
      </trkpt>
      <trkpt lat="42.70121" lon="2.77958">
        <ele>72.8</ele>
        <time>2025-07-19T07:43:59Z</time>
      </trkpt>
      <trkpt lat="42.70099" lon="2.77927">
        <ele>72.4</ele>
        <time>2025-07-19T07:44:03Z</time>
      </trkpt>
      <trkpt lat="42.70086" lon="2.77907">
        <ele>72</ele>
        <time>2025-07-19T07:44:06Z</time>
      </trkpt>
      <trkpt lat="42.70054" lon="2.77863">
        <ele>71.8</ele>
        <time>2025-07-19T07:44:13Z</time>
      </trkpt>
      <trkpt lat="42.70027" lon="2.7783">
        <ele>71.8</ele>
        <time>2025-07-19T07:44:19Z</time>
      </trkpt>
      <trkpt lat="42.70024" lon="2.77824">
        <ele>71.8</ele>
        <time>2025-07-19T07:44:20Z</time>
      </trkpt>
      <trkpt lat="42.70022" lon="2.77817">
        <ele>72</ele>
        <time>2025-07-19T07:44:21Z</time>
      </trkpt>
      <trkpt lat="42.70015" lon="2.77803">
        <ele>72.2</ele>
        <time>2025-07-19T07:44:23Z</time>
      </trkpt>
      <trkpt lat="42.7" lon="2.7779">
        <ele>72</ele>
        <time>2025-07-19T07:44:26Z</time>
      </trkpt>
      <trkpt lat="42.6999" lon="2.77778">
        <ele>72</ele>
        <time>2025-07-19T07:44:28Z</time>
      </trkpt>
      <trkpt lat="42.69951" lon="2.77726">
        <ele>71.8</ele>
        <time>2025-07-19T07:44:36Z</time>
      </trkpt>
      <trkpt lat="42.69943" lon="2.77714">
        <ele>71.6</ele>
        <time>2025-07-19T07:44:38Z</time>
      </trkpt>
      <trkpt lat="42.69905" lon="2.77661">
        <ele>71.6</ele>
        <time>2025-07-19T07:44:46Z</time>
      </trkpt>
      <trkpt lat="42.69896" lon="2.7765">
        <ele>71.6</ele>
        <time>2025-07-19T07:44:48Z</time>
      </trkpt>
      <trkpt lat="42.69867" lon="2.77609">
        <ele>71.6</ele>
        <time>2025-07-19T07:44:54Z</time>
      </trkpt>
      <trkpt lat="42.69829" lon="2.77557">
        <ele>71.4</ele>
        <time>2025-07-19T07:45:02Z</time>
      </trkpt>
      <trkpt lat="42.69815" lon="2.77535">
        <ele>71.4</ele>
        <time>2025-07-19T07:45:05Z</time>
      </trkpt>
      <trkpt lat="42.69786" lon="2.77499">
        <ele>71.4</ele>
        <time>2025-07-19T07:45:11Z</time>
      </trkpt>
      <trkpt lat="42.69757" lon="2.77459">
        <ele>71.6</ele>
        <time>2025-07-19T07:45:18Z</time>
      </trkpt>
      <trkpt lat="42.69737" lon="2.77427">
        <ele>71.6</ele>
        <time>2025-07-19T07:45:23Z</time>
      </trkpt>
      <trkpt lat="42.69729" lon="2.77417">
        <ele>71.6</ele>
        <time>2025-07-19T07:45:25Z</time>
      </trkpt>
      <trkpt lat="42.69689" lon="2.77364">
        <ele>72.4</ele>
        <time>2025-07-19T07:45:34Z</time>
      </trkpt>
      <trkpt lat="42.69683" lon="2.77355">
        <ele>72.4</ele>
        <time>2025-07-19T07:45:36Z</time>
      </trkpt>
      <trkpt lat="42.6967" lon="2.77337">
        <ele>72.8</ele>
        <time>2025-07-19T07:45:39Z</time>
      </trkpt>
      <trkpt lat="42.69653" lon="2.77311">
        <ele>72.8</ele>
        <time>2025-07-19T07:45:43Z</time>
      </trkpt>
      <trkpt lat="42.6965" lon="2.77303">
        <ele>72.8</ele>
        <time>2025-07-19T07:45:44Z</time>
      </trkpt>
      <trkpt lat="42.69639" lon="2.7727">
        <ele>72.6</ele>
        <time>2025-07-19T07:45:48Z</time>
      </trkpt>
      <trkpt lat="42.69638" lon="2.77263">
        <ele>72.4</ele>
        <time>2025-07-19T07:45:49Z</time>
      </trkpt>
      <trkpt lat="42.69635" lon="2.77225">
        <ele>72.2</ele>
        <time>2025-07-19T07:45:53Z</time>
      </trkpt>
      <trkpt lat="42.69635" lon="2.77219">
        <ele>72.2</ele>
        <time>2025-07-19T07:45:54Z</time>
      </trkpt>
      <trkpt lat="42.69631" lon="2.77185">
        <ele>72.2</ele>
        <time>2025-07-19T07:45:58Z</time>
      </trkpt>
      <trkpt lat="42.69625" lon="2.77123">
        <ele>72.6</ele>
        <time>2025-07-19T07:46:06Z</time>
      </trkpt>
      <trkpt lat="42.69617" lon="2.77055">
        <ele>72.8</ele>
        <time>2025-07-19T07:46:14Z</time>
      </trkpt>
      <trkpt lat="42.69608" lon="2.76993">
        <ele>73</ele>
        <time>2025-07-19T07:46:21Z</time>
      </trkpt>
      <trkpt lat="42.69604" lon="2.76971">
        <ele>73</ele>
        <time>2025-07-19T07:46:24Z</time>
      </trkpt>
      <trkpt lat="42.69602" lon="2.76952">
        <ele>73.2</ele>
        <time>2025-07-19T07:46:26Z</time>
      </trkpt>
      <trkpt lat="42.69589" lon="2.76886">
        <ele>73.8</ele>
        <time>2025-07-19T07:46:34Z</time>
      </trkpt>
      <trkpt lat="42.69578" lon="2.76828">
        <ele>74.2</ele>
        <time>2025-07-19T07:46:41Z</time>
      </trkpt>
      <trkpt lat="42.69575" lon="2.7682">
        <ele>74.2</ele>
        <time>2025-07-19T07:46:42Z</time>
      </trkpt>
      <trkpt lat="42.69551" lon="2.76759">
        <ele>74.6</ele>
        <time>2025-07-19T07:46:50Z</time>
      </trkpt>
      <trkpt lat="42.69542" lon="2.76739">
        <ele>75</ele>
        <time>2025-07-19T07:46:53Z</time>
      </trkpt>
      <trkpt lat="42.69537" lon="2.76724">
        <ele>75</ele>
        <time>2025-07-19T07:46:55Z</time>
      </trkpt>
      <trkpt lat="42.6953" lon="2.76701">
        <ele>75</ele>
        <time>2025-07-19T07:46:58Z</time>
      </trkpt>
      <trkpt lat="42.69529" lon="2.76681">
        <ele>74.8</ele>
        <time>2025-07-19T07:47:00Z</time>
      </trkpt>
      <trkpt lat="42.69535" lon="2.76607">
        <ele>74.6</ele>
        <time>2025-07-19T07:47:08Z</time>
      </trkpt>
      <trkpt lat="42.69538" lon="2.7656">
        <ele>74.4</ele>
        <time>2025-07-19T07:47:13Z</time>
      </trkpt>
      <trkpt lat="42.69543" lon="2.76527">
        <ele>74.4</ele>
        <time>2025-07-19T07:47:17Z</time>
      </trkpt>
      <trkpt lat="42.6955" lon="2.76511">
        <ele>74.8</ele>
        <time>2025-07-19T07:47:19Z</time>
      </trkpt>
      <trkpt lat="42.69555" lon="2.76498">
        <ele>74.8</ele>
        <time>2025-07-19T07:47:21Z</time>
      </trkpt>
      <trkpt lat="42.69556" lon="2.76481">
        <ele>75</ele>
        <time>2025-07-19T07:47:23Z</time>
      </trkpt>
      <trkpt lat="42.69553" lon="2.76466">
        <ele>75.2</ele>
        <time>2025-07-19T07:47:25Z</time>
      </trkpt>
      <trkpt lat="42.69551" lon="2.76438">
        <ele>75.4</ele>
        <time>2025-07-19T07:47:28Z</time>
      </trkpt>
      <trkpt lat="42.69555" lon="2.76388">
        <ele>75.6</ele>
        <time>2025-07-19T07:47:35Z</time>
      </trkpt>
      <trkpt lat="42.6956" lon="2.76337">
        <ele>76.4</ele>
        <time>2025-07-19T07:47:42Z</time>
      </trkpt>
      <trkpt lat="42.6956" lon="2.76331">
        <ele>76.4</ele>
        <time>2025-07-19T07:47:43Z</time>
      </trkpt>
      <trkpt lat="42.69567" lon="2.76264">
        <ele>77</ele>
        <time>2025-07-19T07:47:51Z</time>
      </trkpt>
      <trkpt lat="42.69573" lon="2.76196">
        <ele>77.6</ele>
        <time>2025-07-19T07:47:59Z</time>
      </trkpt>
      <trkpt lat="42.69574" lon="2.76188">
        <ele>77.6</ele>
        <time>2025-07-19T07:48:00Z</time>
      </trkpt>
      <trkpt lat="42.69581" lon="2.76113">
        <ele>78.2</ele>
        <time>2025-07-19T07:48:09Z</time>
      </trkpt>
      <trkpt lat="42.69582" lon="2.76103">
        <ele>78.2</ele>
        <time>2025-07-19T07:48:10Z</time>
      </trkpt>
      <trkpt lat="42.69588" lon="2.76038">
        <ele>78.8</ele>
        <time>2025-07-19T07:48:18Z</time>
      </trkpt>
      <trkpt lat="42.69589" lon="2.7603">
        <ele>79</ele>
        <time>2025-07-19T07:48:19Z</time>
      </trkpt>
      <trkpt lat="42.69596" lon="2.75965">
        <ele>79.4</ele>
        <time>2025-07-19T07:48:27Z</time>
      </trkpt>
      <trkpt lat="42.69602" lon="2.75898">
        <ele>79.6</ele>
        <time>2025-07-19T07:48:35Z</time>
      </trkpt>
      <trkpt lat="42.69605" lon="2.7585">
        <ele>80</ele>
        <time>2025-07-19T07:48:41Z</time>
      </trkpt>
      <trkpt lat="42.69606" lon="2.75843">
        <ele>80.2</ele>
        <time>2025-07-19T07:48:42Z</time>
      </trkpt>
      <trkpt lat="42.69606" lon="2.75811">
        <ele>80.6</ele>
        <time>2025-07-19T07:48:46Z</time>
      </trkpt>
      <trkpt lat="42.69608" lon="2.75804">
        <ele>80.8</ele>
        <time>2025-07-19T07:48:47Z</time>
      </trkpt>
      <trkpt lat="42.69611" lon="2.75785">
        <ele>80.8</ele>
        <time>2025-07-19T07:48:50Z</time>
      </trkpt>
      <trkpt lat="42.69611" lon="2.7577">
        <ele>81</ele>
        <time>2025-07-19T07:48:52Z</time>
      </trkpt>
      <trkpt lat="42.6961" lon="2.7576">
        <ele>81.2</ele>
        <time>2025-07-19T07:48:53Z</time>
      </trkpt>
      <trkpt lat="42.69611" lon="2.75753">
        <ele>81.2</ele>
        <time>2025-07-19T07:48:54Z</time>
      </trkpt>
      <trkpt lat="42.69612" lon="2.7573">
        <ele>81.2</ele>
        <time>2025-07-19T07:48:57Z</time>
      </trkpt>
      <trkpt lat="42.69613" lon="2.75663">
        <ele>81.2</ele>
        <time>2025-07-19T07:49:05Z</time>
      </trkpt>
      <trkpt lat="42.69615" lon="2.75581">
        <ele>81.4</ele>
        <time>2025-07-19T07:49:15Z</time>
      </trkpt>
      <trkpt lat="42.69615" lon="2.75566">
        <ele>81.4</ele>
        <time>2025-07-19T07:49:17Z</time>
      </trkpt>
      <trkpt lat="42.69618" lon="2.75509">
        <ele>81.4</ele>
        <time>2025-07-19T07:49:24Z</time>
      </trkpt>
      <trkpt lat="42.6962" lon="2.75434">
        <ele>81.6</ele>
        <time>2025-07-19T07:49:33Z</time>
      </trkpt>
      <trkpt lat="42.69622" lon="2.75363">
        <ele>82</ele>
        <time>2025-07-19T07:49:41Z</time>
      </trkpt>
      <trkpt lat="42.69623" lon="2.75317">
        <ele>82</ele>
        <time>2025-07-19T07:49:47Z</time>
      </trkpt>
      <trkpt lat="42.69623" lon="2.7531">
        <ele>82</ele>
        <time>2025-07-19T07:49:48Z</time>
      </trkpt>
      <trkpt lat="42.69626" lon="2.75274">
        <ele>82.2</ele>
        <time>2025-07-19T07:49:52Z</time>
      </trkpt>
      <trkpt lat="42.69626" lon="2.75232">
        <ele>82.4</ele>
        <time>2025-07-19T07:49:57Z</time>
      </trkpt>
      <trkpt lat="42.69626" lon="2.75223">
        <ele>82.4</ele>
        <time>2025-07-19T07:49:58Z</time>
      </trkpt>
      <trkpt lat="42.69627" lon="2.7521">
        <ele>82.4</ele>
        <time>2025-07-19T07:50:00Z</time>
      </trkpt>
      <trkpt lat="42.69628" lon="2.75177">
        <ele>82.4</ele>
        <time>2025-07-19T07:50:04Z</time>
      </trkpt>
      <trkpt lat="42.69629" lon="2.75156">
        <ele>82.6</ele>
        <time>2025-07-19T07:50:07Z</time>
      </trkpt>
      <trkpt lat="42.69628" lon="2.75133">
        <ele>82.6</ele>
        <time>2025-07-19T07:50:10Z</time>
      </trkpt>
      <trkpt lat="42.69625" lon="2.75091">
        <ele>82.6</ele>
        <time>2025-07-19T07:50:16Z</time>
      </trkpt>
      <trkpt lat="42.69626" lon="2.75084">
        <ele>82.6</ele>
        <time>2025-07-19T07:50:17Z</time>
      </trkpt>
      <trkpt lat="42.69625" lon="2.75077">
        <ele>82.8</ele>
        <time>2025-07-19T07:50:18Z</time>
      </trkpt>
      <trkpt lat="42.69621" lon="2.75049">
        <ele>82.8</ele>
        <time>2025-07-19T07:50:21Z</time>
      </trkpt>
      <trkpt lat="42.6962" lon="2.75031">
        <ele>82.8</ele>
        <time>2025-07-19T07:50:23Z</time>
      </trkpt>
      <trkpt lat="42.69623" lon="2.75014">
        <ele>82.8</ele>
        <time>2025-07-19T07:50:25Z</time>
      </trkpt>
      <trkpt lat="42.69624" lon="2.75006">
        <ele>82.8</ele>
        <time>2025-07-19T07:50:26Z</time>
      </trkpt>
      <trkpt lat="42.69623" lon="2.74982">
        <ele>82.8</ele>
        <time>2025-07-19T07:50:29Z</time>
      </trkpt>
      <trkpt lat="42.69615" lon="2.74937">
        <ele>82.8</ele>
        <time>2025-07-19T07:50:34Z</time>
      </trkpt>
      <trkpt lat="42.69613" lon="2.74904">
        <ele>82.8</ele>
        <time>2025-07-19T07:50:38Z</time>
      </trkpt>
      <trkpt lat="42.69612" lon="2.74897">
        <ele>82.6</ele>
        <time>2025-07-19T07:50:39Z</time>
      </trkpt>
      <trkpt lat="42.69607" lon="2.74872">
        <ele>82.2</ele>
        <time>2025-07-19T07:50:42Z</time>
      </trkpt>
      <trkpt lat="42.69604" lon="2.74849">
        <ele>82</ele>
        <time>2025-07-19T07:50:45Z</time>
      </trkpt>
      <trkpt lat="42.69599" lon="2.74812">
        <ele>81.8</ele>
        <time>2025-07-19T07:50:50Z</time>
      </trkpt>
      <trkpt lat="42.69597" lon="2.74796">
        <ele>81.6</ele>
        <time>2025-07-19T07:50:52Z</time>
      </trkpt>
      <trkpt lat="42.69595" lon="2.74778">
        <ele>81.6</ele>
        <time>2025-07-19T07:50:54Z</time>
      </trkpt>
      <trkpt lat="42.69595" lon="2.7477">
        <ele>81.4</ele>
        <time>2025-07-19T07:50:55Z</time>
      </trkpt>
      <trkpt lat="42.69594" lon="2.7475">
        <ele>81.2</ele>
        <time>2025-07-19T07:50:57Z</time>
      </trkpt>
      <trkpt lat="42.69591" lon="2.74726">
        <ele>81.2</ele>
        <time>2025-07-19T07:51:00Z</time>
      </trkpt>
      <trkpt lat="42.69591" lon="2.74717">
        <ele>81.2</ele>
        <time>2025-07-19T07:51:01Z</time>
      </trkpt>
      <trkpt lat="42.6959" lon="2.74709">
        <ele>81.2</ele>
        <time>2025-07-19T07:51:02Z</time>
      </trkpt>
      <trkpt lat="42.69588" lon="2.74684">
        <ele>80.8</ele>
        <time>2025-07-19T07:51:05Z</time>
      </trkpt>
      <trkpt lat="42.69583" lon="2.74633">
        <ele>80.8</ele>
        <time>2025-07-19T07:51:11Z</time>
      </trkpt>
      <trkpt lat="42.69581" lon="2.74624">
        <ele>80.6</ele>
        <time>2025-07-19T07:51:12Z</time>
      </trkpt>
      <trkpt lat="42.69579" lon="2.746">
        <ele>80.4</ele>
        <time>2025-07-19T07:51:15Z</time>
      </trkpt>
      <trkpt lat="42.69575" lon="2.74585">
        <ele>80.4</ele>
        <time>2025-07-19T07:51:17Z</time>
      </trkpt>
      <trkpt lat="42.69573" lon="2.74577">
        <ele>80.4</ele>
        <time>2025-07-19T07:51:18Z</time>
      </trkpt>
      <trkpt lat="42.69572" lon="2.74537">
        <ele>80.2</ele>
        <time>2025-07-19T07:51:23Z</time>
      </trkpt>
      <trkpt lat="42.69575" lon="2.74481">
        <ele>80</ele>
        <time>2025-07-19T07:51:30Z</time>
      </trkpt>
      <trkpt lat="42.69579" lon="2.74442">
        <ele>79.8</ele>
        <time>2025-07-19T07:51:35Z</time>
      </trkpt>
      <trkpt lat="42.6958" lon="2.74428">
        <ele>79.8</ele>
        <time>2025-07-19T07:51:37Z</time>
      </trkpt>
      <trkpt lat="42.69582" lon="2.74411">
        <ele>79.6</ele>
        <time>2025-07-19T07:51:39Z</time>
      </trkpt>
      <trkpt lat="42.69585" lon="2.74391">
        <ele>79.6</ele>
        <time>2025-07-19T07:51:42Z</time>
      </trkpt>
      <trkpt lat="42.69593" lon="2.74329">
        <ele>79.2</ele>
        <time>2025-07-19T07:51:50Z</time>
      </trkpt>
      <trkpt lat="42.69601" lon="2.74269">
        <ele>78.8</ele>
        <time>2025-07-19T07:51:58Z</time>
      </trkpt>
      <trkpt lat="42.69605" lon="2.74239">
        <ele>78.6</ele>
        <time>2025-07-19T07:52:02Z</time>
      </trkpt>
      <trkpt lat="42.69605" lon="2.74232">
        <ele>78.6</ele>
        <time>2025-07-19T07:52:03Z</time>
      </trkpt>
      <trkpt lat="42.69607" lon="2.74216">
        <ele>78.6</ele>
        <time>2025-07-19T07:52:05Z</time>
      </trkpt>
      <trkpt lat="42.69617" lon="2.74148">
        <ele>78.2</ele>
        <time>2025-07-19T07:52:13Z</time>
      </trkpt>
      <trkpt lat="42.69624" lon="2.74095">
        <ele>77.8</ele>
        <time>2025-07-19T07:52:20Z</time>
      </trkpt>
      <trkpt lat="42.69627" lon="2.74069">
        <ele>77.6</ele>
        <time>2025-07-19T07:52:23Z</time>
      </trkpt>
      <trkpt lat="42.69631" lon="2.74039">
        <ele>77.4</ele>
        <time>2025-07-19T07:52:27Z</time>
      </trkpt>
      <trkpt lat="42.6964" lon="2.73966">
        <ele>77</ele>
        <time>2025-07-19T07:52:36Z</time>
      </trkpt>
      <trkpt lat="42.69646" lon="2.73904">
        <ele>76.8</ele>
        <time>2025-07-19T07:52:44Z</time>
      </trkpt>
      <trkpt lat="42.69651" lon="2.73875">
        <ele>76.6</ele>
        <time>2025-07-19T07:52:48Z</time>
      </trkpt>
      <trkpt lat="42.69655" lon="2.7386">
        <ele>76.4</ele>
        <time>2025-07-19T07:52:50Z</time>
      </trkpt>
      <trkpt lat="42.69662" lon="2.7382">
        <ele>76.2</ele>
        <time>2025-07-19T07:52:55Z</time>
      </trkpt>
      <trkpt lat="42.69672" lon="2.73757">
        <ele>76</ele>
        <time>2025-07-19T07:53:03Z</time>
      </trkpt>
      <trkpt lat="42.69677" lon="2.73693">
        <ele>76</ele>
        <time>2025-07-19T07:53:11Z</time>
      </trkpt>
      <trkpt lat="42.69683" lon="2.73626">
        <ele>75.8</ele>
        <time>2025-07-19T07:53:20Z</time>
      </trkpt>
      <trkpt lat="42.69689" lon="2.7357">
        <ele>75.6</ele>
        <time>2025-07-19T07:53:28Z</time>
      </trkpt>
      <trkpt lat="42.69693" lon="2.735">
        <ele>74.8</ele>
        <time>2025-07-19T07:53:38Z</time>
      </trkpt>
      <trkpt lat="42.69695" lon="2.7344">
        <ele>74.8</ele>
        <time>2025-07-19T07:53:46Z</time>
      </trkpt>
      <trkpt lat="42.69696" lon="2.73432">
        <ele>74.8</ele>
        <time>2025-07-19T07:53:47Z</time>
      </trkpt>
      <trkpt lat="42.697" lon="2.73401">
        <ele>74.4</ele>
        <time>2025-07-19T07:53:51Z</time>
      </trkpt>
      <trkpt lat="42.69702" lon="2.7337">
        <ele>74.4</ele>
        <time>2025-07-19T07:53:55Z</time>
      </trkpt>
      <trkpt lat="42.69703" lon="2.73355">
        <ele>74.4</ele>
        <time>2025-07-19T07:53:57Z</time>
      </trkpt>
      <trkpt lat="42.69713" lon="2.73295">
        <ele>74.4</ele>
        <time>2025-07-19T07:54:05Z</time>
      </trkpt>
      <trkpt lat="42.69723" lon="2.73245">
        <ele>74.6</ele>
        <time>2025-07-19T07:54:12Z</time>
      </trkpt>
      <trkpt lat="42.69726" lon="2.73232">
        <ele>74.8</ele>
        <time>2025-07-19T07:54:14Z</time>
      </trkpt>
      <trkpt lat="42.69736" lon="2.73197">
        <ele>74.8</ele>
        <time>2025-07-19T07:54:19Z</time>
      </trkpt>
      <trkpt lat="42.69739" lon="2.7319">
        <ele>74.8</ele>
        <time>2025-07-19T07:54:20Z</time>
      </trkpt>
      <trkpt lat="42.6975" lon="2.73153">
        <ele>74.6</ele>
        <time>2025-07-19T07:54:25Z</time>
      </trkpt>
      <trkpt lat="42.69752" lon="2.7314">
        <ele>74.6</ele>
        <time>2025-07-19T07:54:27Z</time>
      </trkpt>
      <trkpt lat="42.69764" lon="2.73089">
        <ele>74.2</ele>
        <time>2025-07-19T07:54:34Z</time>
      </trkpt>
      <trkpt lat="42.69768" lon="2.7306">
        <ele>74.2</ele>
        <time>2025-07-19T07:54:38Z</time>
      </trkpt>
      <trkpt lat="42.69772" lon="2.73048">
        <ele>74.4</ele>
        <time>2025-07-19T07:54:40Z</time>
      </trkpt>
      <trkpt lat="42.6979" lon="2.73012">
        <ele>74.4</ele>
        <time>2025-07-19T07:54:46Z</time>
      </trkpt>
      <trkpt lat="42.69792" lon="2.73007">
        <ele>74.4</ele>
        <time>2025-07-19T07:54:47Z</time>
      </trkpt>
      <trkpt lat="42.69797" lon="2.72996">
        <ele>74.4</ele>
        <time>2025-07-19T07:54:49Z</time>
      </trkpt>
      <trkpt lat="42.69799" lon="2.72992">
        <ele>74.4</ele>
        <time>2025-07-19T07:54:50Z</time>
      </trkpt>
      <trkpt lat="42.69799" lon="2.72988">
        <ele>74.4</ele>
        <time>2025-07-19T07:54:52Z</time>
      </trkpt>
      <trkpt lat="42.69798" lon="2.72987">
        <ele>74.4</ele>
        <time>2025-07-19T07:54:53Z</time>
      </trkpt>
      <trkpt lat="42.69788" lon="2.72984">
        <ele>74.4</ele>
        <time>2025-07-19T07:54:57Z</time>
      </trkpt>
      <trkpt lat="42.6977" lon="2.72974">
        <ele>74.2</ele>
        <time>2025-07-19T07:55:03Z</time>
      </trkpt>
      <trkpt lat="42.69769" lon="2.72968">
        <ele>74.2</ele>
        <time>2025-07-19T07:55:06Z</time>
      </trkpt>
      <trkpt lat="42.69769" lon="2.72966">
        <ele>74.2</ele>
        <time>2025-07-19T07:55:07Z</time>
      </trkpt>
      <trkpt lat="42.69769" lon="2.72963">
        <ele>74.2</ele>
        <time>2025-07-19T07:55:08Z</time>
      </trkpt>
      <trkpt lat="42.69771" lon="2.72957">
        <ele>74</ele>
        <time>2025-07-19T07:55:11Z</time>
      </trkpt>
      <trkpt lat="42.69772" lon="2.72955">
        <ele>74</ele>
        <time>2025-07-19T07:55:12Z</time>
      </trkpt>
      <trkpt lat="42.69772" lon="2.72937">
        <ele>73.6</ele>
        <time>2025-07-19T07:55:18Z</time>
      </trkpt>
      <trkpt lat="42.69768" lon="2.72929">
        <ele>73.6</ele>
        <time>2025-07-19T07:55:21Z</time>
      </trkpt>
      <trkpt lat="42.69762" lon="2.72924">
        <ele>73.6</ele>
        <time>2025-07-19T07:55:23Z</time>
      </trkpt>
      <trkpt lat="42.69742" lon="2.72914">
        <ele>73.8</ele>
        <time>2025-07-19T07:55:30Z</time>
      </trkpt>
      <trkpt lat="42.6973" lon="2.72906">
        <ele>73.8</ele>
        <time>2025-07-19T07:55:34Z</time>
      </trkpt>
      <trkpt lat="42.69727" lon="2.72905">
        <ele>73.8</ele>
        <time>2025-07-19T07:55:35Z</time>
      </trkpt>
      <trkpt lat="42.69714" lon="2.72907">
        <ele>74</ele>
        <time>2025-07-19T07:55:40Z</time>
      </trkpt>
      <trkpt lat="42.69707" lon="2.72913">
        <ele>74.2</ele>
        <time>2025-07-19T07:55:45Z</time>
      </trkpt>
      <trkpt lat="42.69704" lon="2.72927">
        <ele>74.4</ele>
        <time>2025-07-19T07:55:50Z</time>
      </trkpt>
      <trkpt lat="42.69696" lon="2.72942">
        <ele>74.6</ele>
        <time>2025-07-19T07:55:54Z</time>
      </trkpt>
      <trkpt lat="42.69689" lon="2.72961">
        <ele>74.8</ele>
        <time>2025-07-19T07:55:58Z</time>
      </trkpt>
      <trkpt lat="42.69688" lon="2.72975">
        <ele>74.8</ele>
        <time>2025-07-19T07:56:01Z</time>
      </trkpt>
      <trkpt lat="42.69697" lon="2.72985">
        <ele>74.8</ele>
        <time>2025-07-19T07:56:05Z</time>
      </trkpt>
      <trkpt lat="42.69725" lon="2.73005">
        <ele>74.6</ele>
        <time>2025-07-19T07:56:14Z</time>
      </trkpt>
      <trkpt lat="42.69731" lon="2.73007">
        <ele>74.6</ele>
        <time>2025-07-19T07:56:17Z</time>
      </trkpt>
      <trkpt lat="42.69732" lon="2.73007">
        <ele>74.6</ele>
        <time>2025-07-19T07:56:18Z</time>
      </trkpt>
      <trkpt lat="42.69733" lon="2.73006">
        <ele>74.4</ele>
        <time>2025-07-19T07:56:21Z</time>
      </trkpt>
      <trkpt lat="42.6974" lon="2.73011">
        <ele>74.4</ele>
        <time>2025-07-19T08:28:36Z</time>
      </trkpt>
      <trkpt lat="42.69742" lon="2.73013">
        <ele>74.6</ele>
        <time>2025-07-19T08:28:37Z</time>
      </trkpt>
      <trkpt lat="42.69762" lon="2.73028">
        <ele>74.4</ele>
        <time>2025-07-19T08:28:45Z</time>
      </trkpt>
      <trkpt lat="42.6977" lon="2.73036">
        <ele>74</ele>
        <time>2025-07-19T08:28:50Z</time>
      </trkpt>
      <trkpt lat="42.69773" lon="2.73033">
        <ele>73.8</ele>
        <time>2025-07-19T08:28:52Z</time>
      </trkpt>
      <trkpt lat="42.69781" lon="2.73017">
        <ele>73.8</ele>
        <time>2025-07-19T08:28:57Z</time>
      </trkpt>
      <trkpt lat="42.69789" lon="2.72995">
        <ele>73.8</ele>
        <time>2025-07-19T08:29:02Z</time>
      </trkpt>
      <trkpt lat="42.69799" lon="2.72968">
        <ele>74</ele>
        <time>2025-07-19T08:29:08Z</time>
      </trkpt>
      <trkpt lat="42.69809" lon="2.72947">
        <ele>74.4</ele>
        <time>2025-07-19T08:29:13Z</time>
      </trkpt>
      <trkpt lat="42.69834" lon="2.72906">
        <ele>74.6</ele>
        <time>2025-07-19T08:29:24Z</time>
      </trkpt>
      <trkpt lat="42.69853" lon="2.72867">
        <ele>75.2</ele>
        <time>2025-07-19T08:29:33Z</time>
      </trkpt>
      <trkpt lat="42.69865" lon="2.72827">
        <ele>75.4</ele>
        <time>2025-07-19T08:29:41Z</time>
      </trkpt>
      <trkpt lat="42.69869" lon="2.7281">
        <ele>75.4</ele>
        <time>2025-07-19T08:29:44Z</time>
      </trkpt>
      <trkpt lat="42.69875" lon="2.72784">
        <ele>75.4</ele>
        <time>2025-07-19T08:29:49Z</time>
      </trkpt>
      <trkpt lat="42.69887" lon="2.7273">
        <ele>75.6</ele>
        <time>2025-07-19T08:29:59Z</time>
      </trkpt>
      <trkpt lat="42.69902" lon="2.72674">
        <ele>76.2</ele>
        <time>2025-07-19T08:30:09Z</time>
      </trkpt>
      <trkpt lat="42.69907" lon="2.72656">
        <ele>76.2</ele>
        <time>2025-07-19T08:30:12Z</time>
      </trkpt>
      <trkpt lat="42.69912" lon="2.72631">
        <ele>76.6</ele>
        <time>2025-07-19T08:30:16Z</time>
      </trkpt>
      <trkpt lat="42.69913" lon="2.72625">
        <ele>76.6</ele>
        <time>2025-07-19T08:30:17Z</time>
      </trkpt>
      <trkpt lat="42.69915" lon="2.72619">
        <ele>77</ele>
        <time>2025-07-19T08:30:18Z</time>
      </trkpt>
      <trkpt lat="42.6992" lon="2.72599">
        <ele>77.4</ele>
        <time>2025-07-19T08:30:21Z</time>
      </trkpt>
      <trkpt lat="42.69922" lon="2.72587">
        <ele>77.6</ele>
        <time>2025-07-19T08:30:23Z</time>
      </trkpt>
      <trkpt lat="42.69936" lon="2.72532">
        <ele>78.4</ele>
        <time>2025-07-19T08:30:32Z</time>
      </trkpt>
      <trkpt lat="42.69937" lon="2.72526">
        <ele>78.6</ele>
        <time>2025-07-19T08:30:33Z</time>
      </trkpt>
      <trkpt lat="42.69948" lon="2.72483">
        <ele>79.2</ele>
        <time>2025-07-19T08:30:40Z</time>
      </trkpt>
      <trkpt lat="42.69956" lon="2.72444">
        <ele>79.6</ele>
        <time>2025-07-19T08:30:46Z</time>
      </trkpt>
      <trkpt lat="42.69957" lon="2.72439">
        <ele>79.8</ele>
        <time>2025-07-19T08:30:47Z</time>
      </trkpt>
      <trkpt lat="42.6996" lon="2.72427">
        <ele>80</ele>
        <time>2025-07-19T08:30:49Z</time>
      </trkpt>
      <trkpt lat="42.69966" lon="2.72401">
        <ele>80</ele>
        <time>2025-07-19T08:30:53Z</time>
      </trkpt>
      <trkpt lat="42.69967" lon="2.72394">
        <ele>80</ele>
        <time>2025-07-19T08:30:54Z</time>
      </trkpt>
      <trkpt lat="42.69971" lon="2.72372">
        <ele>80.2</ele>
        <time>2025-07-19T08:30:57Z</time>
      </trkpt>
      <trkpt lat="42.69976" lon="2.7235">
        <ele>80.2</ele>
        <time>2025-07-19T08:31:00Z</time>
      </trkpt>
      <trkpt lat="42.69987" lon="2.72305">
        <ele>80.6</ele>
        <time>2025-07-19T08:31:06Z</time>
      </trkpt>
      <trkpt lat="42.69988" lon="2.72298">
        <ele>80.6</ele>
        <time>2025-07-19T08:31:07Z</time>
      </trkpt>
      <trkpt lat="42.7" lon="2.72248">
        <ele>81.2</ele>
        <time>2025-07-19T08:31:14Z</time>
      </trkpt>
      <trkpt lat="42.70007" lon="2.72221">
        <ele>81.6</ele>
        <time>2025-07-19T08:31:18Z</time>
      </trkpt>
      <trkpt lat="42.70012" lon="2.72197">
        <ele>82.4</ele>
        <time>2025-07-19T08:31:22Z</time>
      </trkpt>
      <trkpt lat="42.70019" lon="2.72169">
        <ele>82.6</ele>
        <time>2025-07-19T08:31:26Z</time>
      </trkpt>
      <trkpt lat="42.70024" lon="2.72145">
        <ele>82.6</ele>
        <time>2025-07-19T08:31:29Z</time>
      </trkpt>
      <trkpt lat="42.70038" lon="2.72088">
        <ele>81.6</ele>
        <time>2025-07-19T08:31:36Z</time>
      </trkpt>
      <trkpt lat="42.7004" lon="2.7208">
        <ele>81.6</ele>
        <time>2025-07-19T08:31:37Z</time>
      </trkpt>
      <trkpt lat="42.70048" lon="2.72049">
        <ele>81.6</ele>
        <time>2025-07-19T08:31:41Z</time>
      </trkpt>
      <trkpt lat="42.70052" lon="2.72034">
        <ele>81.6</ele>
        <time>2025-07-19T08:31:43Z</time>
      </trkpt>
      <trkpt lat="42.70055" lon="2.72019">
        <ele>81.8</ele>
        <time>2025-07-19T08:31:45Z</time>
      </trkpt>
      <trkpt lat="42.70059" lon="2.72004">
        <ele>81.8</ele>
        <time>2025-07-19T08:31:47Z</time>
      </trkpt>
      <trkpt lat="42.70073" lon="2.71942">
        <ele>81.6</ele>
        <time>2025-07-19T08:31:55Z</time>
      </trkpt>
      <trkpt lat="42.70086" lon="2.71882">
        <ele>81.4</ele>
        <time>2025-07-19T08:32:03Z</time>
      </trkpt>
      <trkpt lat="42.70097" lon="2.71827">
        <ele>82.8</ele>
        <time>2025-07-19T08:32:11Z</time>
      </trkpt>
      <trkpt lat="42.701" lon="2.71786">
        <ele>83</ele>
        <time>2025-07-19T08:32:16Z</time>
      </trkpt>
      <trkpt lat="42.70103" lon="2.71718">
        <ele>83</ele>
        <time>2025-07-19T08:32:24Z</time>
      </trkpt>
      <trkpt lat="42.70106" lon="2.71644">
        <ele>83</ele>
        <time>2025-07-19T08:32:33Z</time>
      </trkpt>
      <trkpt lat="42.70107" lon="2.71591">
        <ele>83.2</ele>
        <time>2025-07-19T08:32:40Z</time>
      </trkpt>
      <trkpt lat="42.70109" lon="2.71536">
        <ele>83.6</ele>
        <time>2025-07-19T08:32:47Z</time>
      </trkpt>
      <trkpt lat="42.7011" lon="2.71505">
        <ele>83.6</ele>
        <time>2025-07-19T08:32:51Z</time>
      </trkpt>
      <trkpt lat="42.7011" lon="2.71481">
        <ele>83.6</ele>
        <time>2025-07-19T08:32:54Z</time>
      </trkpt>
      <trkpt lat="42.70111" lon="2.71414">
        <ele>83.2</ele>
        <time>2025-07-19T08:33:02Z</time>
      </trkpt>
      <trkpt lat="42.70113" lon="2.7134">
        <ele>83</ele>
        <time>2025-07-19T08:33:11Z</time>
      </trkpt>
      <trkpt lat="42.70114" lon="2.71277">
        <ele>83.4</ele>
        <time>2025-07-19T08:33:19Z</time>
      </trkpt>
      <trkpt lat="42.70115" lon="2.71269">
        <ele>83.4</ele>
        <time>2025-07-19T08:33:20Z</time>
      </trkpt>
      <trkpt lat="42.70115" lon="2.71253">
        <ele>83.8</ele>
        <time>2025-07-19T08:33:22Z</time>
      </trkpt>
      <trkpt lat="42.70116" lon="2.7123">
        <ele>84</ele>
        <time>2025-07-19T08:33:25Z</time>
      </trkpt>
      <trkpt lat="42.70118" lon="2.71185">
        <ele>84.6</ele>
        <time>2025-07-19T08:33:31Z</time>
      </trkpt>
      <trkpt lat="42.70118" lon="2.71124">
        <ele>85.4</ele>
        <time>2025-07-19T08:33:39Z</time>
      </trkpt>
      <trkpt lat="42.70119" lon="2.71102">
        <ele>85.8</ele>
        <time>2025-07-19T08:33:42Z</time>
      </trkpt>
      <trkpt lat="42.70119" lon="2.71058">
        <ele>86.8</ele>
        <time>2025-07-19T08:33:48Z</time>
      </trkpt>
      <trkpt lat="42.7012" lon="2.71044">
        <ele>87.2</ele>
        <time>2025-07-19T08:33:50Z</time>
      </trkpt>
      <trkpt lat="42.70121" lon="2.70994">
        <ele>88</ele>
        <time>2025-07-19T08:33:57Z</time>
      </trkpt>
      <trkpt lat="42.70121" lon="2.7098">
        <ele>88.2</ele>
        <time>2025-07-19T08:33:59Z</time>
      </trkpt>
      <trkpt lat="42.70122" lon="2.70945">
        <ele>89</ele>
        <time>2025-07-19T08:34:04Z</time>
      </trkpt>
      <trkpt lat="42.70123" lon="2.70896">
        <ele>89.6</ele>
        <time>2025-07-19T08:34:11Z</time>
      </trkpt>
      <trkpt lat="42.70123" lon="2.70862">
        <ele>90</ele>
        <time>2025-07-19T08:34:16Z</time>
      </trkpt>
      <trkpt lat="42.70123" lon="2.70828">
        <ele>90.4</ele>
        <time>2025-07-19T08:34:21Z</time>
      </trkpt>
      <trkpt lat="42.70125" lon="2.70771">
        <ele>91</ele>
        <time>2025-07-19T08:34:29Z</time>
      </trkpt>
      <trkpt lat="42.70125" lon="2.70765">
        <ele>91.2</ele>
        <time>2025-07-19T08:34:30Z</time>
      </trkpt>
      <trkpt lat="42.70126" lon="2.7073">
        <ele>91.4</ele>
        <time>2025-07-19T08:34:35Z</time>
      </trkpt>
      <trkpt lat="42.70126" lon="2.70716">
        <ele>91.6</ele>
        <time>2025-07-19T08:34:37Z</time>
      </trkpt>
      <trkpt lat="42.70122" lon="2.70656">
        <ele>92</ele>
        <time>2025-07-19T08:34:45Z</time>
      </trkpt>
      <trkpt lat="42.70106" lon="2.70595">
        <ele>91.4</ele>
        <time>2025-07-19T08:34:52Z</time>
      </trkpt>
      <trkpt lat="42.70085" lon="2.70522">
        <ele>90.2</ele>
        <time>2025-07-19T08:35:00Z</time>
      </trkpt>
      <trkpt lat="42.70082" lon="2.70513">
        <ele>90.2</ele>
        <time>2025-07-19T08:35:01Z</time>
      </trkpt>
      <trkpt lat="42.70062" lon="2.70442">
        <ele>89.6</ele>
        <time>2025-07-19T08:35:09Z</time>
      </trkpt>
      <trkpt lat="42.70042" lon="2.70373">
        <ele>89.6</ele>
        <time>2025-07-19T08:35:17Z</time>
      </trkpt>
      <trkpt lat="42.70039" lon="2.70365">
        <ele>89.6</ele>
        <time>2025-07-19T08:35:18Z</time>
      </trkpt>
      <trkpt lat="42.70017" lon="2.70292">
        <ele>90.4</ele>
        <time>2025-07-19T08:35:27Z</time>
      </trkpt>
      <trkpt lat="42.69995" lon="2.70221">
        <ele>91.2</ele>
        <time>2025-07-19T08:35:36Z</time>
      </trkpt>
      <trkpt lat="42.69977" lon="2.70158">
        <ele>92.2</ele>
        <time>2025-07-19T08:35:45Z</time>
      </trkpt>
      <trkpt lat="42.69975" lon="2.7015">
        <ele>92.2</ele>
        <time>2025-07-19T08:35:46Z</time>
      </trkpt>
      <trkpt lat="42.69967" lon="2.7009">
        <ele>92.4</ele>
        <time>2025-07-19T08:35:53Z</time>
      </trkpt>
      <trkpt lat="42.69965" lon="2.70016">
        <ele>91.8</ele>
        <time>2025-07-19T08:36:01Z</time>
      </trkpt>
      <trkpt lat="42.69965" lon="2.69969">
        <ele>91</ele>
        <time>2025-07-19T08:36:06Z</time>
      </trkpt>
      <trkpt lat="42.69965" lon="2.6995">
        <ele>90.8</ele>
        <time>2025-07-19T08:36:08Z</time>
      </trkpt>
      <trkpt lat="42.69964" lon="2.69869">
        <ele>90.2</ele>
        <time>2025-07-19T08:36:17Z</time>
      </trkpt>
      <trkpt lat="42.69964" lon="2.69852">
        <ele>90.2</ele>
        <time>2025-07-19T08:36:19Z</time>
      </trkpt>
      <trkpt lat="42.69961" lon="2.69776">
        <ele>90.2</ele>
        <time>2025-07-19T08:36:28Z</time>
      </trkpt>
      <trkpt lat="42.69959" lon="2.69759">
        <ele>90.2</ele>
        <time>2025-07-19T08:36:30Z</time>
      </trkpt>
      <trkpt lat="42.69961" lon="2.69743">
        <ele>90.2</ele>
        <time>2025-07-19T08:36:32Z</time>
      </trkpt>
      <trkpt lat="42.69963" lon="2.69736">
        <ele>90.2</ele>
        <time>2025-07-19T08:36:33Z</time>
      </trkpt>
      <trkpt lat="42.69964" lon="2.69728">
        <ele>90.2</ele>
        <time>2025-07-19T08:36:34Z</time>
      </trkpt>
      <trkpt lat="42.69962" lon="2.69713">
        <ele>90.2</ele>
        <time>2025-07-19T08:36:36Z</time>
      </trkpt>
      <trkpt lat="42.69954" lon="2.69702">
        <ele>90.2</ele>
        <time>2025-07-19T08:36:38Z</time>
      </trkpt>
      <trkpt lat="42.69948" lon="2.69699">
        <ele>90.2</ele>
        <time>2025-07-19T08:36:39Z</time>
      </trkpt>
      <trkpt lat="42.69942" lon="2.69699">
        <ele>90.2</ele>
        <time>2025-07-19T08:36:40Z</time>
      </trkpt>
      <trkpt lat="42.69928" lon="2.69703">
        <ele>90.2</ele>
        <time>2025-07-19T08:36:42Z</time>
      </trkpt>
      <trkpt lat="42.69894" lon="2.69708">
        <ele>90</ele>
        <time>2025-07-19T08:36:47Z</time>
      </trkpt>
      <trkpt lat="42.69887" lon="2.69709">
        <ele>89.8</ele>
        <time>2025-07-19T08:36:48Z</time>
      </trkpt>
      <trkpt lat="42.69828" lon="2.69708">
        <ele>89.4</ele>
        <time>2025-07-19T08:36:57Z</time>
      </trkpt>
      <trkpt lat="42.69821" lon="2.69707">
        <ele>89.4</ele>
        <time>2025-07-19T08:36:58Z</time>
      </trkpt>
      <trkpt lat="42.69773" lon="2.69703">
        <ele>90</ele>
        <time>2025-07-19T08:37:06Z</time>
      </trkpt>
      <trkpt lat="42.69735" lon="2.697">
        <ele>91</ele>
        <time>2025-07-19T08:37:13Z</time>
      </trkpt>
      <trkpt lat="42.69724" lon="2.69698">
        <ele>91.4</ele>
        <time>2025-07-19T08:37:15Z</time>
      </trkpt>
      <trkpt lat="42.6969" lon="2.69695">
        <ele>92.2</ele>
        <time>2025-07-19T08:37:21Z</time>
      </trkpt>
      <trkpt lat="42.69678" lon="2.69694">
        <ele>92.4</ele>
        <time>2025-07-19T08:37:23Z</time>
      </trkpt>
      <trkpt lat="42.69625" lon="2.69689">
        <ele>92.6</ele>
        <time>2025-07-19T08:37:32Z</time>
      </trkpt>
      <trkpt lat="42.69569" lon="2.69684">
        <ele>92.4</ele>
        <time>2025-07-19T08:37:41Z</time>
      </trkpt>
      <trkpt lat="42.69515" lon="2.6968">
        <ele>91.8</ele>
        <time>2025-07-19T08:37:49Z</time>
      </trkpt>
      <trkpt lat="42.69496" lon="2.69678">
        <ele>91</ele>
        <time>2025-07-19T08:37:52Z</time>
      </trkpt>
      <trkpt lat="42.69482" lon="2.69677">
        <ele>90.6</ele>
        <time>2025-07-19T08:37:54Z</time>
      </trkpt>
      <trkpt lat="42.69476" lon="2.69676">
        <ele>90.4</ele>
        <time>2025-07-19T08:37:55Z</time>
      </trkpt>
      <trkpt lat="42.69458" lon="2.69675">
        <ele>89.8</ele>
        <time>2025-07-19T08:37:58Z</time>
      </trkpt>
      <trkpt lat="42.69449" lon="2.69674">
        <ele>89.6</ele>
        <time>2025-07-19T08:38:00Z</time>
      </trkpt>
      <trkpt lat="42.69406" lon="2.6967">
        <ele>89</ele>
        <time>2025-07-19T08:38:08Z</time>
      </trkpt>
      <trkpt lat="42.69379" lon="2.69667">
        <ele>89.2</ele>
        <time>2025-07-19T08:38:13Z</time>
      </trkpt>
      <trkpt lat="42.69373" lon="2.69666">
        <ele>89.2</ele>
        <time>2025-07-19T08:38:14Z</time>
      </trkpt>
      <trkpt lat="42.69345" lon="2.69663">
        <ele>89.2</ele>
        <time>2025-07-19T08:38:19Z</time>
      </trkpt>
      <trkpt lat="42.69334" lon="2.69662">
        <ele>89.2</ele>
        <time>2025-07-19T08:38:21Z</time>
      </trkpt>
      <trkpt lat="42.69293" lon="2.69661">
        <ele>89.4</ele>
        <time>2025-07-19T08:38:29Z</time>
      </trkpt>
      <trkpt lat="42.69282" lon="2.6966">
        <ele>89.4</ele>
        <time>2025-07-19T08:38:31Z</time>
      </trkpt>
      <trkpt lat="42.69268" lon="2.69658">
        <ele>89.4</ele>
        <time>2025-07-19T08:38:34Z</time>
      </trkpt>
      <trkpt lat="42.69262" lon="2.69657">
        <ele>89.4</ele>
        <time>2025-07-19T08:38:35Z</time>
      </trkpt>
      <trkpt lat="42.69249" lon="2.6965">
        <ele>89.6</ele>
        <time>2025-07-19T08:38:38Z</time>
      </trkpt>
      <trkpt lat="42.69216" lon="2.69635">
        <ele>90</ele>
        <time>2025-07-19T08:38:45Z</time>
      </trkpt>
      <trkpt lat="42.69207" lon="2.69632">
        <ele>90.4</ele>
        <time>2025-07-19T08:38:47Z</time>
      </trkpt>
      <trkpt lat="42.69198" lon="2.6963">
        <ele>90.6</ele>
        <time>2025-07-19T08:38:49Z</time>
      </trkpt>
      <trkpt lat="42.69193" lon="2.69629">
        <ele>90.8</ele>
        <time>2025-07-19T08:38:50Z</time>
      </trkpt>
      <trkpt lat="42.69186" lon="2.69628">
        <ele>91.2</ele>
        <time>2025-07-19T08:38:53Z</time>
      </trkpt>
      <trkpt lat="42.69185" lon="2.69626">
        <ele>91.2</ele>
        <time>2025-07-19T08:38:54Z</time>
      </trkpt>
      <trkpt lat="42.69185" lon="2.69622">
        <ele>91.2</ele>
        <time>2025-07-19T08:38:55Z</time>
      </trkpt>
      <trkpt lat="42.69187" lon="2.69613">
        <ele>91.4</ele>
        <time>2025-07-19T08:38:57Z</time>
      </trkpt>
      <trkpt lat="42.69189" lon="2.69606">
        <ele>91.4</ele>
        <time>2025-07-19T08:38:58Z</time>
      </trkpt>
      <trkpt lat="42.69194" lon="2.69587">
        <ele>91.6</ele>
        <time>2025-07-19T08:39:01Z</time>
      </trkpt>
      <trkpt lat="42.69202" lon="2.69552">
        <ele>91.4</ele>
        <time>2025-07-19T08:39:06Z</time>
      </trkpt>
      <trkpt lat="42.69205" lon="2.69537">
        <ele>91.4</ele>
        <time>2025-07-19T08:39:08Z</time>
      </trkpt>
      <trkpt lat="42.6922" lon="2.69479">
        <ele>91.2</ele>
        <time>2025-07-19T08:39:16Z</time>
      </trkpt>
      <trkpt lat="42.69223" lon="2.69465">
        <ele>91.4</ele>
        <time>2025-07-19T08:39:18Z</time>
      </trkpt>
      <trkpt lat="42.69226" lon="2.69444">
        <ele>91.4</ele>
        <time>2025-07-19T08:39:21Z</time>
      </trkpt>
      <trkpt lat="42.69231" lon="2.69425">
        <ele>91.2</ele>
        <time>2025-07-19T08:39:24Z</time>
      </trkpt>
      <trkpt lat="42.69232" lon="2.69413">
        <ele>91.6</ele>
        <time>2025-07-19T08:39:26Z</time>
      </trkpt>
      <trkpt lat="42.69241" lon="2.69374">
        <ele>91.4</ele>
        <time>2025-07-19T08:39:32Z</time>
      </trkpt>
      <trkpt lat="42.69241" lon="2.69369">
        <ele>91.4</ele>
        <time>2025-07-19T08:39:33Z</time>
      </trkpt>
      <trkpt lat="42.69242" lon="2.69304">
        <ele>91.6</ele>
        <time>2025-07-19T08:39:42Z</time>
      </trkpt>
      <trkpt lat="42.69245" lon="2.69232">
        <ele>92</ele>
        <time>2025-07-19T08:39:52Z</time>
      </trkpt>
      <trkpt lat="42.69245" lon="2.69176">
        <ele>92.2</ele>
        <time>2025-07-19T08:40:00Z</time>
      </trkpt>
      <trkpt lat="42.69245" lon="2.69116">
        <ele>92.2</ele>
        <time>2025-07-19T08:40:08Z</time>
      </trkpt>
      <trkpt lat="42.69244" lon="2.69063">
        <ele>92.4</ele>
        <time>2025-07-19T08:40:15Z</time>
      </trkpt>
      <trkpt lat="42.69245" lon="2.68985">
        <ele>92.8</ele>
        <time>2025-07-19T08:40:25Z</time>
      </trkpt>
      <trkpt lat="42.69248" lon="2.68904">
        <ele>92.8</ele>
        <time>2025-07-19T08:40:35Z</time>
      </trkpt>
      <trkpt lat="42.69248" lon="2.68885">
        <ele>93</ele>
        <time>2025-07-19T08:40:37Z</time>
      </trkpt>
      <trkpt lat="42.6925" lon="2.6883">
        <ele>93</ele>
        <time>2025-07-19T08:40:44Z</time>
      </trkpt>
      <trkpt lat="42.6925" lon="2.68814">
        <ele>93</ele>
        <time>2025-07-19T08:40:46Z</time>
      </trkpt>
      <trkpt lat="42.69254" lon="2.68782">
        <ele>93.2</ele>
        <time>2025-07-19T08:40:50Z</time>
      </trkpt>
      <trkpt lat="42.69257" lon="2.68715">
        <ele>93.4</ele>
        <time>2025-07-19T08:40:58Z</time>
      </trkpt>
      <trkpt lat="42.69257" lon="2.68692">
        <ele>93.4</ele>
        <time>2025-07-19T08:41:01Z</time>
      </trkpt>
      <trkpt lat="42.69254" lon="2.68636">
        <ele>93.6</ele>
        <time>2025-07-19T08:41:08Z</time>
      </trkpt>
      <trkpt lat="42.69254" lon="2.6859">
        <ele>93.6</ele>
        <time>2025-07-19T08:41:14Z</time>
      </trkpt>
      <trkpt lat="42.69255" lon="2.68582">
        <ele>93.8</ele>
        <time>2025-07-19T08:41:15Z</time>
      </trkpt>
      <trkpt lat="42.69257" lon="2.68575">
        <ele>93.8</ele>
        <time>2025-07-19T08:41:16Z</time>
      </trkpt>
      <trkpt lat="42.69261" lon="2.68561">
        <ele>93.8</ele>
        <time>2025-07-19T08:41:18Z</time>
      </trkpt>
      <trkpt lat="42.69263" lon="2.68553">
        <ele>93.8</ele>
        <time>2025-07-19T08:41:19Z</time>
      </trkpt>
      <trkpt lat="42.69265" lon="2.68497">
        <ele>94</ele>
        <time>2025-07-19T08:41:26Z</time>
      </trkpt>
      <trkpt lat="42.69265" lon="2.68489">
        <ele>94</ele>
        <time>2025-07-19T08:41:27Z</time>
      </trkpt>
      <trkpt lat="42.69262" lon="2.68474">
        <ele>94.2</ele>
        <time>2025-07-19T08:41:29Z</time>
      </trkpt>
      <trkpt lat="42.69259" lon="2.68466">
        <ele>94.4</ele>
        <time>2025-07-19T08:41:30Z</time>
      </trkpt>
      <trkpt lat="42.69257" lon="2.68459">
        <ele>94.4</ele>
        <time>2025-07-19T08:41:31Z</time>
      </trkpt>
      <trkpt lat="42.69255" lon="2.68443">
        <ele>94.6</ele>
        <time>2025-07-19T08:41:33Z</time>
      </trkpt>
      <trkpt lat="42.69255" lon="2.68435">
        <ele>94.6</ele>
        <time>2025-07-19T08:41:34Z</time>
      </trkpt>
      <trkpt lat="42.69256" lon="2.68388">
        <ele>95</ele>
        <time>2025-07-19T08:41:40Z</time>
      </trkpt>
      <trkpt lat="42.69257" lon="2.6834">
        <ele>95.8</ele>
        <time>2025-07-19T08:41:46Z</time>
      </trkpt>
      <trkpt lat="42.69258" lon="2.68289">
        <ele>96</ele>
        <time>2025-07-19T08:41:53Z</time>
      </trkpt>
      <trkpt lat="42.69258" lon="2.68274">
        <ele>96.2</ele>
        <time>2025-07-19T08:41:55Z</time>
      </trkpt>
      <trkpt lat="42.6926" lon="2.68213">
        <ele>96.2</ele>
        <time>2025-07-19T08:42:03Z</time>
      </trkpt>
      <trkpt lat="42.6926" lon="2.68144">
        <ele>96.6</ele>
        <time>2025-07-19T08:42:12Z</time>
      </trkpt>
      <trkpt lat="42.69261" lon="2.68112">
        <ele>97.2</ele>
        <time>2025-07-19T08:42:16Z</time>
      </trkpt>
      <trkpt lat="42.69262" lon="2.68072">
        <ele>97.6</ele>
        <time>2025-07-19T08:42:21Z</time>
      </trkpt>
      <trkpt lat="42.69263" lon="2.67994">
        <ele>97.6</ele>
        <time>2025-07-19T08:42:31Z</time>
      </trkpt>
      <trkpt lat="42.69263" lon="2.67986">
        <ele>97.8</ele>
        <time>2025-07-19T08:42:32Z</time>
      </trkpt>
      <trkpt lat="42.69264" lon="2.6793">
        <ele>98.2</ele>
        <time>2025-07-19T08:42:39Z</time>
      </trkpt>
      <trkpt lat="42.69264" lon="2.67914">
        <ele>98.2</ele>
        <time>2025-07-19T08:42:41Z</time>
      </trkpt>
      <trkpt lat="42.69265" lon="2.67833">
        <ele>98.2</ele>
        <time>2025-07-19T08:42:51Z</time>
      </trkpt>
      <trkpt lat="42.69265" lon="2.67825">
        <ele>98.2</ele>
        <time>2025-07-19T08:42:52Z</time>
      </trkpt>
      <trkpt lat="42.69266" lon="2.67761">
        <ele>98.4</ele>
        <time>2025-07-19T08:43:00Z</time>
      </trkpt>
      <trkpt lat="42.69267" lon="2.67703">
        <ele>98.4</ele>
        <time>2025-07-19T08:43:07Z</time>
      </trkpt>
      <trkpt lat="42.69268" lon="2.67635">
        <ele>98.8</ele>
        <time>2025-07-19T08:43:15Z</time>
      </trkpt>
      <trkpt lat="42.69268" lon="2.6761">
        <ele>99</ele>
        <time>2025-07-19T08:43:18Z</time>
      </trkpt>
      <trkpt lat="42.69269" lon="2.67549">
        <ele>99.4</ele>
        <time>2025-07-19T08:43:26Z</time>
      </trkpt>
      <trkpt lat="42.69269" lon="2.67542">
        <ele>99.6</ele>
        <time>2025-07-19T08:43:27Z</time>
      </trkpt>
      <trkpt lat="42.6927" lon="2.67505">
        <ele>99.8</ele>
        <time>2025-07-19T08:43:32Z</time>
      </trkpt>
      <trkpt lat="42.69271" lon="2.67459">
        <ele>100</ele>
        <time>2025-07-19T08:43:38Z</time>
      </trkpt>
      <trkpt lat="42.69272" lon="2.67444">
        <ele>100</ele>
        <time>2025-07-19T08:43:40Z</time>
      </trkpt>
      <trkpt lat="42.69273" lon="2.67385">
        <ele>100.4</ele>
        <time>2025-07-19T08:43:48Z</time>
      </trkpt>
      <trkpt lat="42.69274" lon="2.67323">
        <ele>101</ele>
        <time>2025-07-19T08:43:56Z</time>
      </trkpt>
      <trkpt lat="42.69274" lon="2.67316">
        <ele>101</ele>
        <time>2025-07-19T08:43:57Z</time>
      </trkpt>
      <trkpt lat="42.69274" lon="2.67264">
        <ele>101.2</ele>
        <time>2025-07-19T08:44:04Z</time>
      </trkpt>
      <trkpt lat="42.69276" lon="2.67206">
        <ele>101.6</ele>
        <time>2025-07-19T08:44:12Z</time>
      </trkpt>
      <trkpt lat="42.69277" lon="2.67176">
        <ele>102</ele>
        <time>2025-07-19T08:44:16Z</time>
      </trkpt>
      <trkpt lat="42.69279" lon="2.67121">
        <ele>102.2</ele>
        <time>2025-07-19T08:44:23Z</time>
      </trkpt>
      <trkpt lat="42.69281" lon="2.67043">
        <ele>102.2</ele>
        <time>2025-07-19T08:44:33Z</time>
      </trkpt>
      <trkpt lat="42.69281" lon="2.66974">
        <ele>102.6</ele>
        <time>2025-07-19T08:44:41Z</time>
      </trkpt>
      <trkpt lat="42.69282" lon="2.66936">
        <ele>103.2</ele>
        <time>2025-07-19T08:44:46Z</time>
      </trkpt>
      <trkpt lat="42.69283" lon="2.66868">
        <ele>103.6</ele>
        <time>2025-07-19T08:44:55Z</time>
      </trkpt>
      <trkpt lat="42.69285" lon="2.66806">
        <ele>104.2</ele>
        <time>2025-07-19T08:45:03Z</time>
      </trkpt>
      <trkpt lat="42.69285" lon="2.66791">
        <ele>104.2</ele>
        <time>2025-07-19T08:45:05Z</time>
      </trkpt>
      <trkpt lat="42.69286" lon="2.66769">
        <ele>104.6</ele>
        <time>2025-07-19T08:45:09Z</time>
      </trkpt>
      <trkpt lat="42.6929" lon="2.66745">
        <ele>104.6</ele>
        <time>2025-07-19T08:45:12Z</time>
      </trkpt>
      <trkpt lat="42.6929" lon="2.66731">
        <ele>104.6</ele>
        <time>2025-07-19T08:45:14Z</time>
      </trkpt>
      <trkpt lat="42.6929" lon="2.66672">
        <ele>104.6</ele>
        <time>2025-07-19T08:45:22Z</time>
      </trkpt>
      <trkpt lat="42.6929" lon="2.66652">
        <ele>104.8</ele>
        <time>2025-07-19T08:45:25Z</time>
      </trkpt>
      <trkpt lat="42.69291" lon="2.66639">
        <ele>105.2</ele>
        <time>2025-07-19T08:45:28Z</time>
      </trkpt>
      <trkpt lat="42.69291" lon="2.66619">
        <ele>105.2</ele>
        <time>2025-07-19T08:45:30Z</time>
      </trkpt>
      <trkpt lat="42.69289" lon="2.66609">
        <ele>105.4</ele>
        <time>2025-07-19T08:45:32Z</time>
      </trkpt>
      <trkpt lat="42.69288" lon="2.66602">
        <ele>105.4</ele>
        <time>2025-07-19T08:45:33Z</time>
      </trkpt>
      <trkpt lat="42.69279" lon="2.66571">
        <ele>105.6</ele>
        <time>2025-07-19T08:45:38Z</time>
      </trkpt>
      <trkpt lat="42.69271" lon="2.66552">
        <ele>105.8</ele>
        <time>2025-07-19T08:45:41Z</time>
      </trkpt>
      <trkpt lat="42.69269" lon="2.66538">
        <ele>106</ele>
        <time>2025-07-19T08:45:43Z</time>
      </trkpt>
      <trkpt lat="42.69259" lon="2.66502">
        <ele>106</ele>
        <time>2025-07-19T08:45:48Z</time>
      </trkpt>
      <trkpt lat="42.69244" lon="2.66455">
        <ele>106.2</ele>
        <time>2025-07-19T08:45:55Z</time>
      </trkpt>
      <trkpt lat="42.6924" lon="2.66441">
        <ele>106.4</ele>
        <time>2025-07-19T08:45:57Z</time>
      </trkpt>
      <trkpt lat="42.69228" lon="2.66396">
        <ele>106.8</ele>
        <time>2025-07-19T08:46:03Z</time>
      </trkpt>
      <trkpt lat="42.69209" lon="2.66335">
        <ele>107.4</ele>
        <time>2025-07-19T08:46:11Z</time>
      </trkpt>
      <trkpt lat="42.69201" lon="2.66304">
        <ele>107.4</ele>
        <time>2025-07-19T08:46:15Z</time>
      </trkpt>
      <trkpt lat="42.69192" lon="2.66274">
        <ele>107.6</ele>
        <time>2025-07-19T08:46:19Z</time>
      </trkpt>
      <trkpt lat="42.69173" lon="2.66206">
        <ele>108.2</ele>
        <time>2025-07-19T08:46:28Z</time>
      </trkpt>
      <trkpt lat="42.69166" lon="2.66185">
        <ele>108.4</ele>
        <time>2025-07-19T08:46:31Z</time>
      </trkpt>
      <trkpt lat="42.69156" lon="2.66148">
        <ele>108.6</ele>
        <time>2025-07-19T08:46:36Z</time>
      </trkpt>
      <trkpt lat="42.69136" lon="2.66081">
        <ele>108.8</ele>
        <time>2025-07-19T08:46:45Z</time>
      </trkpt>
      <trkpt lat="42.6912" lon="2.66022">
        <ele>109.2</ele>
        <time>2025-07-19T08:46:53Z</time>
      </trkpt>
      <trkpt lat="42.6911" lon="2.65986">
        <ele>109.6</ele>
        <time>2025-07-19T08:46:58Z</time>
      </trkpt>
      <trkpt lat="42.69106" lon="2.65971">
        <ele>109.6</ele>
        <time>2025-07-19T08:47:00Z</time>
      </trkpt>
      <trkpt lat="42.69097" lon="2.65944">
        <ele>109.8</ele>
        <time>2025-07-19T08:47:04Z</time>
      </trkpt>
      <trkpt lat="42.69092" lon="2.65931">
        <ele>110</ele>
        <time>2025-07-19T08:47:06Z</time>
      </trkpt>
      <trkpt lat="42.69083" lon="2.65901">
        <ele>110.6</ele>
        <time>2025-07-19T08:47:10Z</time>
      </trkpt>
      <trkpt lat="42.69081" lon="2.65894">
        <ele>110.6</ele>
        <time>2025-07-19T08:47:12Z</time>
      </trkpt>
      <trkpt lat="42.69061" lon="2.65817">
        <ele>110</ele>
        <time>2025-07-19T08:47:21Z</time>
      </trkpt>
      <trkpt lat="42.69061" lon="2.65817">
        <ele>110</ele>
        <time>2025-07-19T08:47:22Z</time>
      </trkpt>
      <trkpt lat="42.6904" lon="2.65743">
        <ele>110.2</ele>
        <time>2025-07-19T08:47:31Z</time>
      </trkpt>
      <trkpt lat="42.69028" lon="2.65699">
        <ele>110</ele>
        <time>2025-07-19T08:47:37Z</time>
      </trkpt>
      <trkpt lat="42.69011" lon="2.6564">
        <ele>110</ele>
        <time>2025-07-19T08:47:45Z</time>
      </trkpt>
      <trkpt lat="42.68993" lon="2.65572">
        <ele>110.6</ele>
        <time>2025-07-19T08:47:54Z</time>
      </trkpt>
      <trkpt lat="42.68977" lon="2.6551">
        <ele>110.8</ele>
        <time>2025-07-19T08:48:02Z</time>
      </trkpt>
      <trkpt lat="42.68956" lon="2.65438">
        <ele>111</ele>
        <time>2025-07-19T08:48:12Z</time>
      </trkpt>
      <trkpt lat="42.68929" lon="2.65357">
        <ele>111.6</ele>
        <time>2025-07-19T08:48:23Z</time>
      </trkpt>
      <trkpt lat="42.68927" lon="2.6535">
        <ele>111.6</ele>
        <time>2025-07-19T08:48:24Z</time>
      </trkpt>
      <trkpt lat="42.68925" lon="2.65342">
        <ele>111.6</ele>
        <time>2025-07-19T08:48:25Z</time>
      </trkpt>
      <trkpt lat="42.68908" lon="2.65283">
        <ele>111.8</ele>
        <time>2025-07-19T08:48:33Z</time>
      </trkpt>
      <trkpt lat="42.68886" lon="2.65209">
        <ele>112.2</ele>
        <time>2025-07-19T08:48:43Z</time>
      </trkpt>
      <trkpt lat="42.68884" lon="2.65202">
        <ele>112.2</ele>
        <time>2025-07-19T08:48:44Z</time>
      </trkpt>
      <trkpt lat="42.68865" lon="2.65135">
        <ele>112.6</ele>
        <time>2025-07-19T08:48:53Z</time>
      </trkpt>
      <trkpt lat="42.68844" lon="2.65064">
        <ele>113</ele>
        <time>2025-07-19T08:49:03Z</time>
      </trkpt>
      <trkpt lat="42.68828" lon="2.6501">
        <ele>113</ele>
        <time>2025-07-19T08:49:11Z</time>
      </trkpt>
      <trkpt lat="42.68807" lon="2.64939">
        <ele>113.6</ele>
        <time>2025-07-19T08:49:21Z</time>
      </trkpt>
      <trkpt lat="42.68805" lon="2.64932">
        <ele>113.6</ele>
        <time>2025-07-19T08:49:22Z</time>
      </trkpt>
      <trkpt lat="42.68785" lon="2.64862">
        <ele>114.2</ele>
        <time>2025-07-19T08:49:32Z</time>
      </trkpt>
      <trkpt lat="42.6878" lon="2.64848">
        <ele>114.8</ele>
        <time>2025-07-19T08:49:35Z</time>
      </trkpt>
      <trkpt lat="42.68759" lon="2.64776">
        <ele>115</ele>
        <time>2025-07-19T08:49:44Z</time>
      </trkpt>
      <trkpt lat="42.6874" lon="2.64711">
        <ele>114.6</ele>
        <time>2025-07-19T08:49:53Z</time>
      </trkpt>
      <trkpt lat="42.68722" lon="2.64649">
        <ele>115</ele>
        <time>2025-07-19T08:50:01Z</time>
      </trkpt>
      <trkpt lat="42.68706" lon="2.64593">
        <ele>115.8</ele>
        <time>2025-07-19T08:50:08Z</time>
      </trkpt>
      <trkpt lat="42.68698" lon="2.64562">
        <ele>116</ele>
        <time>2025-07-19T08:50:12Z</time>
      </trkpt>
      <trkpt lat="42.68682" lon="2.64507">
        <ele>116.6</ele>
        <time>2025-07-19T08:50:19Z</time>
      </trkpt>
      <trkpt lat="42.68662" lon="2.64438">
        <ele>116.6</ele>
        <time>2025-07-19T08:50:28Z</time>
      </trkpt>
      <trkpt lat="42.68655" lon="2.64414">
        <ele>116.8</ele>
        <time>2025-07-19T08:50:31Z</time>
      </trkpt>
      <trkpt lat="42.68648" lon="2.64389">
        <ele>117</ele>
        <time>2025-07-19T08:50:34Z</time>
      </trkpt>
      <trkpt lat="42.68638" lon="2.64351">
        <ele>117.4</ele>
        <time>2025-07-19T08:50:39Z</time>
      </trkpt>
      <trkpt lat="42.68622" lon="2.64306">
        <ele>118</ele>
        <time>2025-07-19T08:50:45Z</time>
      </trkpt>
      <trkpt lat="42.68619" lon="2.64299">
        <ele>118.2</ele>
        <time>2025-07-19T08:50:46Z</time>
      </trkpt>
      <trkpt lat="42.68593" lon="2.64243">
        <ele>119.2</ele>
        <time>2025-07-19T08:50:54Z</time>
      </trkpt>
      <trkpt lat="42.6859" lon="2.64236">
        <ele>119.2</ele>
        <time>2025-07-19T08:50:55Z</time>
      </trkpt>
      <trkpt lat="42.68555" lon="2.64178">
        <ele>119.8</ele>
        <time>2025-07-19T08:51:04Z</time>
      </trkpt>
      <trkpt lat="42.6855" lon="2.64172">
        <ele>119.8</ele>
        <time>2025-07-19T08:51:05Z</time>
      </trkpt>
      <trkpt lat="42.68513" lon="2.64125">
        <ele>120.2</ele>
        <time>2025-07-19T08:51:13Z</time>
      </trkpt>
      <trkpt lat="42.68504" lon="2.64113">
        <ele>120.2</ele>
        <time>2025-07-19T08:51:15Z</time>
      </trkpt>
      <trkpt lat="42.68461" lon="2.64063">
        <ele>120.4</ele>
        <time>2025-07-19T08:51:24Z</time>
      </trkpt>
      <trkpt lat="42.68451" lon="2.64052">
        <ele>120.6</ele>
        <time>2025-07-19T08:51:26Z</time>
      </trkpt>
      <trkpt lat="42.68428" lon="2.64025">
        <ele>121.2</ele>
        <time>2025-07-19T08:51:31Z</time>
      </trkpt>
      <trkpt lat="42.68414" lon="2.64009">
        <ele>121.4</ele>
        <time>2025-07-19T08:51:34Z</time>
      </trkpt>
      <trkpt lat="42.68373" lon="2.6396">
        <ele>121.6</ele>
        <time>2025-07-19T08:51:43Z</time>
      </trkpt>
      <trkpt lat="42.68364" lon="2.63949">
        <ele>121.8</ele>
        <time>2025-07-19T08:51:45Z</time>
      </trkpt>
      <trkpt lat="42.68336" lon="2.63916">
        <ele>122.2</ele>
        <time>2025-07-19T08:51:51Z</time>
      </trkpt>
      <trkpt lat="42.68307" lon="2.63881">
        <ele>122.8</ele>
        <time>2025-07-19T08:51:57Z</time>
      </trkpt>
      <trkpt lat="42.68265" lon="2.63832">
        <ele>122.8</ele>
        <time>2025-07-19T08:52:06Z</time>
      </trkpt>
      <trkpt lat="42.68251" lon="2.63814">
        <ele>122.8</ele>
        <time>2025-07-19T08:52:09Z</time>
      </trkpt>
      <trkpt lat="42.68208" lon="2.63766">
        <ele>123.2</ele>
        <time>2025-07-19T08:52:18Z</time>
      </trkpt>
      <trkpt lat="42.68203" lon="2.63761">
        <ele>123.2</ele>
        <time>2025-07-19T08:52:19Z</time>
      </trkpt>
      <trkpt lat="42.68198" lon="2.63757">
        <ele>123.2</ele>
        <time>2025-07-19T08:52:20Z</time>
      </trkpt>
      <trkpt lat="42.68154" lon="2.63721">
        <ele>123.4</ele>
        <time>2025-07-19T08:52:28Z</time>
      </trkpt>
      <trkpt lat="42.68104" lon="2.63681">
        <ele>124.2</ele>
        <time>2025-07-19T08:52:37Z</time>
      </trkpt>
      <trkpt lat="42.68096" lon="2.63676">
        <ele>124.4</ele>
        <time>2025-07-19T08:52:38Z</time>
      </trkpt>
      <trkpt lat="42.68067" lon="2.63653">
        <ele>124.6</ele>
        <time>2025-07-19T08:52:43Z</time>
      </trkpt>
      <trkpt lat="42.68022" lon="2.63615">
        <ele>125.2</ele>
        <time>2025-07-19T08:52:51Z</time>
      </trkpt>
      <trkpt lat="42.67984" lon="2.63584">
        <ele>125.4</ele>
        <time>2025-07-19T08:52:58Z</time>
      </trkpt>
      <trkpt lat="42.67978" lon="2.63579">
        <ele>125.4</ele>
        <time>2025-07-19T08:52:59Z</time>
      </trkpt>
      <trkpt lat="42.67929" lon="2.6354">
        <ele>125.8</ele>
        <time>2025-07-19T08:53:08Z</time>
      </trkpt>
      <trkpt lat="42.67924" lon="2.63535">
        <ele>125.8</ele>
        <time>2025-07-19T08:53:09Z</time>
      </trkpt>
      <trkpt lat="42.6788" lon="2.63501">
        <ele>126</ele>
        <time>2025-07-19T08:53:17Z</time>
      </trkpt>
      <trkpt lat="42.67865" lon="2.63486">
        <ele>126</ele>
        <time>2025-07-19T08:53:20Z</time>
      </trkpt>
      <trkpt lat="42.67832" lon="2.63445">
        <ele>126</ele>
        <time>2025-07-19T08:53:27Z</time>
      </trkpt>
      <trkpt lat="42.67818" lon="2.63419">
        <ele>126.6</ele>
        <time>2025-07-19T08:53:31Z</time>
      </trkpt>
      <trkpt lat="42.67812" lon="2.63404">
        <ele>126.6</ele>
        <time>2025-07-19T08:53:33Z</time>
      </trkpt>
      <trkpt lat="42.67789" lon="2.6334">
        <ele>127</ele>
        <time>2025-07-19T08:53:42Z</time>
      </trkpt>
      <trkpt lat="42.67784" lon="2.63317">
        <ele>127.2</ele>
        <time>2025-07-19T08:53:45Z</time>
      </trkpt>
      <trkpt lat="42.67785" lon="2.6331">
        <ele>127.2</ele>
        <time>2025-07-19T08:53:46Z</time>
      </trkpt>
      <trkpt lat="42.67786" lon="2.63302">
        <ele>127.2</ele>
        <time>2025-07-19T08:53:47Z</time>
      </trkpt>
      <trkpt lat="42.67788" lon="2.63279">
        <ele>127.2</ele>
        <time>2025-07-19T08:53:50Z</time>
      </trkpt>
      <trkpt lat="42.67783" lon="2.63264">
        <ele>127.2</ele>
        <time>2025-07-19T08:53:52Z</time>
      </trkpt>
      <trkpt lat="42.67778" lon="2.63259">
        <ele>127.2</ele>
        <time>2025-07-19T08:53:53Z</time>
      </trkpt>
      <trkpt lat="42.67773" lon="2.63255">
        <ele>127.2</ele>
        <time>2025-07-19T08:53:54Z</time>
      </trkpt>
      <trkpt lat="42.67761" lon="2.6325">
        <ele>127.2</ele>
        <time>2025-07-19T08:53:56Z</time>
      </trkpt>
      <trkpt lat="42.67752" lon="2.63241">
        <ele>127.2</ele>
        <time>2025-07-19T08:53:58Z</time>
      </trkpt>
      <trkpt lat="42.67748" lon="2.63234">
        <ele>127.2</ele>
        <time>2025-07-19T08:53:59Z</time>
      </trkpt>
      <trkpt lat="42.6772" lon="2.63173">
        <ele>127.6</ele>
        <time>2025-07-19T08:54:08Z</time>
      </trkpt>
      <trkpt lat="42.67702" lon="2.63128">
        <ele>128.2</ele>
        <time>2025-07-19T08:54:15Z</time>
      </trkpt>
      <trkpt lat="42.67694" lon="2.63107">
        <ele>128.6</ele>
        <time>2025-07-19T08:54:19Z</time>
      </trkpt>
      <trkpt lat="42.67692" lon="2.63101">
        <ele>128.6</ele>
        <time>2025-07-19T08:54:20Z</time>
      </trkpt>
      <trkpt lat="42.67669" lon="2.63046">
        <ele>128.8</ele>
        <time>2025-07-19T08:54:29Z</time>
      </trkpt>
      <trkpt lat="42.67664" lon="2.63033">
        <ele>128.8</ele>
        <time>2025-07-19T08:54:31Z</time>
      </trkpt>
      <trkpt lat="42.67651" lon="2.63">
        <ele>128.6</ele>
        <time>2025-07-19T08:54:36Z</time>
      </trkpt>
      <trkpt lat="42.67627" lon="2.62941">
        <ele>129</ele>
        <time>2025-07-19T08:54:45Z</time>
      </trkpt>
      <trkpt lat="42.67608" lon="2.62888">
        <ele>129.6</ele>
        <time>2025-07-19T08:54:53Z</time>
      </trkpt>
      <trkpt lat="42.67605" lon="2.62874">
        <ele>129.6</ele>
        <time>2025-07-19T08:54:55Z</time>
      </trkpt>
      <trkpt lat="42.676" lon="2.6286">
        <ele>129.6</ele>
        <time>2025-07-19T08:54:57Z</time>
      </trkpt>
      <trkpt lat="42.67596" lon="2.62853">
        <ele>129.8</ele>
        <time>2025-07-19T08:54:58Z</time>
      </trkpt>
      <trkpt lat="42.67589" lon="2.62841">
        <ele>130</ele>
        <time>2025-07-19T08:55:00Z</time>
      </trkpt>
      <trkpt lat="42.6758" lon="2.6282">
        <ele>130.2</ele>
        <time>2025-07-19T08:55:03Z</time>
      </trkpt>
      <trkpt lat="42.67575" lon="2.62807">
        <ele>130.4</ele>
        <time>2025-07-19T08:55:05Z</time>
      </trkpt>
      <trkpt lat="42.67559" lon="2.62767">
        <ele>130.6</ele>
        <time>2025-07-19T08:55:11Z</time>
      </trkpt>
      <trkpt lat="42.67554" lon="2.62755">
        <ele>130.8</ele>
        <time>2025-07-19T08:55:13Z</time>
      </trkpt>
      <trkpt lat="42.67531" lon="2.62698">
        <ele>131.2</ele>
        <time>2025-07-19T08:55:22Z</time>
      </trkpt>
      <trkpt lat="42.6751" lon="2.62644">
        <ele>131.6</ele>
        <time>2025-07-19T08:55:29Z</time>
      </trkpt>
      <trkpt lat="42.67489" lon="2.62606">
        <ele>132</ele>
        <time>2025-07-19T08:55:35Z</time>
      </trkpt>
      <trkpt lat="42.67452" lon="2.62556">
        <ele>132.4</ele>
        <time>2025-07-19T08:55:44Z</time>
      </trkpt>
      <trkpt lat="42.67409" lon="2.625">
        <ele>132.6</ele>
        <time>2025-07-19T08:55:54Z</time>
      </trkpt>
      <trkpt lat="42.6738" lon="2.6246">
        <ele>132.6</ele>
        <time>2025-07-19T08:56:01Z</time>
      </trkpt>
      <trkpt lat="42.67371" lon="2.62448">
        <ele>132.8</ele>
        <time>2025-07-19T08:56:03Z</time>
      </trkpt>
      <trkpt lat="42.67337" lon="2.62401">
        <ele>133.2</ele>
        <time>2025-07-19T08:56:11Z</time>
      </trkpt>
      <trkpt lat="42.67298" lon="2.6235">
        <ele>133.4</ele>
        <time>2025-07-19T08:56:20Z</time>
      </trkpt>
      <trkpt lat="42.67294" lon="2.62344">
        <ele>133.4</ele>
        <time>2025-07-19T08:56:21Z</time>
      </trkpt>
      <trkpt lat="42.67255" lon="2.62295">
        <ele>133.6</ele>
        <time>2025-07-19T08:56:30Z</time>
      </trkpt>
      <trkpt lat="42.67251" lon="2.62289">
        <ele>133.8</ele>
        <time>2025-07-19T08:56:31Z</time>
      </trkpt>
      <trkpt lat="42.67238" lon="2.62273">
        <ele>134</ele>
        <time>2025-07-19T08:56:34Z</time>
      </trkpt>
      <trkpt lat="42.6723" lon="2.62263">
        <ele>134</ele>
        <time>2025-07-19T08:56:36Z</time>
      </trkpt>
      <trkpt lat="42.67225" lon="2.6226">
        <ele>134.2</ele>
        <time>2025-07-19T08:56:37Z</time>
      </trkpt>
      <trkpt lat="42.67214" lon="2.62256">
        <ele>134.2</ele>
        <time>2025-07-19T08:56:39Z</time>
      </trkpt>
      <trkpt lat="42.67191" lon="2.62251">
        <ele>134.6</ele>
        <time>2025-07-19T08:56:43Z</time>
      </trkpt>
      <trkpt lat="42.67169" lon="2.62247">
        <ele>134.6</ele>
        <time>2025-07-19T08:56:47Z</time>
      </trkpt>
      <trkpt lat="42.67164" lon="2.62244">
        <ele>134.8</ele>
        <time>2025-07-19T08:56:48Z</time>
      </trkpt>
      <trkpt lat="42.67159" lon="2.62241">
        <ele>134.8</ele>
        <time>2025-07-19T08:56:49Z</time>
      </trkpt>
      <trkpt lat="42.6714" lon="2.62224">
        <ele>135</ele>
        <time>2025-07-19T08:56:53Z</time>
      </trkpt>
      <trkpt lat="42.67135" lon="2.62221">
        <ele>135.2</ele>
        <time>2025-07-19T08:56:54Z</time>
      </trkpt>
      <trkpt lat="42.67122" lon="2.62212">
        <ele>135.6</ele>
        <time>2025-07-19T08:56:57Z</time>
      </trkpt>
      <trkpt lat="42.67114" lon="2.62204">
        <ele>135.8</ele>
        <time>2025-07-19T08:56:59Z</time>
      </trkpt>
      <trkpt lat="42.6711" lon="2.622">
        <ele>136</ele>
        <time>2025-07-19T08:57:00Z</time>
      </trkpt>
      <trkpt lat="42.67089" lon="2.62178">
        <ele>136.6</ele>
        <time>2025-07-19T08:57:05Z</time>
      </trkpt>
      <trkpt lat="42.67085" lon="2.62173">
        <ele>136.8</ele>
        <time>2025-07-19T08:57:06Z</time>
      </trkpt>
      <trkpt lat="42.67079" lon="2.62163">
        <ele>137.2</ele>
        <time>2025-07-19T08:57:08Z</time>
      </trkpt>
      <trkpt lat="42.67072" lon="2.62154">
        <ele>137.4</ele>
        <time>2025-07-19T08:57:10Z</time>
      </trkpt>
      <trkpt lat="42.67064" lon="2.62145">
        <ele>137.6</ele>
        <time>2025-07-19T08:57:12Z</time>
      </trkpt>
      <trkpt lat="42.6706" lon="2.62142">
        <ele>137.8</ele>
        <time>2025-07-19T08:57:13Z</time>
      </trkpt>
      <trkpt lat="42.67053" lon="2.62133">
        <ele>138</ele>
        <time>2025-07-19T08:57:15Z</time>
      </trkpt>
      <trkpt lat="42.67034" lon="2.62111">
        <ele>139</ele>
        <time>2025-07-19T08:57:20Z</time>
      </trkpt>
      <trkpt lat="42.6703" lon="2.62107">
        <ele>139.2</ele>
        <time>2025-07-19T08:57:21Z</time>
      </trkpt>
      <trkpt lat="42.67026" lon="2.62103">
        <ele>139.4</ele>
        <time>2025-07-19T08:57:22Z</time>
      </trkpt>
      <trkpt lat="42.67011" lon="2.62085">
        <ele>139.6</ele>
        <time>2025-07-19T08:57:26Z</time>
      </trkpt>
      <trkpt lat="42.67008" lon="2.62079">
        <ele>139.6</ele>
        <time>2025-07-19T08:57:27Z</time>
      </trkpt>
      <trkpt lat="42.66992" lon="2.62051">
        <ele>140.2</ele>
        <time>2025-07-19T08:57:32Z</time>
      </trkpt>
      <trkpt lat="42.66989" lon="2.62045">
        <ele>140.4</ele>
        <time>2025-07-19T08:57:33Z</time>
      </trkpt>
      <trkpt lat="42.66986" lon="2.62039">
        <ele>140.4</ele>
        <time>2025-07-19T08:57:34Z</time>
      </trkpt>
      <trkpt lat="42.66981" lon="2.62023">
        <ele>140.6</ele>
        <time>2025-07-19T08:57:37Z</time>
      </trkpt>
      <trkpt lat="42.66979" lon="2.62017">
        <ele>140.6</ele>
        <time>2025-07-19T08:57:38Z</time>
      </trkpt>
      <trkpt lat="42.66978" lon="2.62011">
        <ele>140.6</ele>
        <time>2025-07-19T08:57:39Z</time>
      </trkpt>
      <trkpt lat="42.66977" lon="2.61981">
        <ele>140.8</ele>
        <time>2025-07-19T08:57:43Z</time>
      </trkpt>
      <trkpt lat="42.66976" lon="2.61968">
        <ele>140.8</ele>
        <time>2025-07-19T08:57:45Z</time>
      </trkpt>
      <trkpt lat="42.66975" lon="2.61953">
        <ele>140.8</ele>
        <time>2025-07-19T08:57:47Z</time>
      </trkpt>
      <trkpt lat="42.66973" lon="2.61947">
        <ele>140.8</ele>
        <time>2025-07-19T08:57:48Z</time>
      </trkpt>
      <trkpt lat="42.66967" lon="2.61934">
        <ele>140.8</ele>
        <time>2025-07-19T08:57:50Z</time>
      </trkpt>
      <trkpt lat="42.66964" lon="2.61927">
        <ele>140.8</ele>
        <time>2025-07-19T08:57:51Z</time>
      </trkpt>
      <trkpt lat="42.66956" lon="2.61906">
        <ele>141</ele>
        <time>2025-07-19T08:57:54Z</time>
      </trkpt>
      <trkpt lat="42.66951" lon="2.61892">
        <ele>141</ele>
        <time>2025-07-19T08:57:56Z</time>
      </trkpt>
      <trkpt lat="42.66948" lon="2.61886">
        <ele>141</ele>
        <time>2025-07-19T08:57:57Z</time>
      </trkpt>
      <trkpt lat="42.66936" lon="2.61858">
        <ele>141.2</ele>
        <time>2025-07-19T08:58:01Z</time>
      </trkpt>
      <trkpt lat="42.6693" lon="2.61846">
        <ele>141.4</ele>
        <time>2025-07-19T08:58:03Z</time>
      </trkpt>
      <trkpt lat="42.66927" lon="2.6184">
        <ele>141.4</ele>
        <time>2025-07-19T08:58:04Z</time>
      </trkpt>
      <trkpt lat="42.66923" lon="2.61829">
        <ele>141.2</ele>
        <time>2025-07-19T08:58:06Z</time>
      </trkpt>
      <trkpt lat="42.66921" lon="2.61819">
        <ele>141.4</ele>
        <time>2025-07-19T08:58:08Z</time>
      </trkpt>
      <trkpt lat="42.66916" lon="2.61809">
        <ele>141.4</ele>
        <time>2025-07-19T08:58:11Z</time>
      </trkpt>
      <trkpt lat="42.66913" lon="2.61804">
        <ele>141.4</ele>
        <time>2025-07-19T08:58:15Z</time>
      </trkpt>
      <trkpt lat="42.66907" lon="2.61793">
        <ele>141.6</ele>
        <time>2025-07-19T08:58:20Z</time>
      </trkpt>
      <trkpt lat="42.66896" lon="2.61772">
        <ele>141.6</ele>
        <time>2025-07-19T08:58:25Z</time>
      </trkpt>
      <trkpt lat="42.66877" lon="2.61732">
        <ele>142</ele>
        <time>2025-07-19T08:58:34Z</time>
      </trkpt>
      <trkpt lat="42.66875" lon="2.61728">
        <ele>142.2</ele>
        <time>2025-07-19T08:58:35Z</time>
      </trkpt>
      <trkpt lat="42.66868" lon="2.6172">
        <ele>142.2</ele>
        <time>2025-07-19T08:58:38Z</time>
      </trkpt>
      <trkpt lat="42.66865" lon="2.61714">
        <ele>142.4</ele>
        <time>2025-07-19T08:58:42Z</time>
      </trkpt>
      <trkpt lat="42.66861" lon="2.61707">
        <ele>142.4</ele>
        <time>2025-07-19T08:58:49Z</time>
      </trkpt>
      <trkpt lat="42.66861" lon="2.61704">
        <ele>142</ele>
        <time>2025-07-19T08:59:03Z</time>
      </trkpt>
      <trkpt lat="42.6686" lon="2.61699">
        <ele>142</ele>
        <time>2025-07-19T08:59:05Z</time>
      </trkpt>
      <trkpt lat="42.6685" lon="2.61676">
        <ele>142.4</ele>
        <time>2025-07-19T08:59:10Z</time>
      </trkpt>
      <trkpt lat="42.66848" lon="2.61672">
        <ele>142.4</ele>
        <time>2025-07-19T08:59:11Z</time>
      </trkpt>
      <trkpt lat="42.66843" lon="2.61658">
        <ele>142.6</ele>
        <time>2025-07-19T08:59:15Z</time>
      </trkpt>
      <trkpt lat="42.66835" lon="2.61644">
        <ele>142.8</ele>
        <time>2025-07-19T08:59:20Z</time>
      </trkpt>
      <trkpt lat="42.6683" lon="2.61634">
        <ele>143.2</ele>
        <time>2025-07-19T08:59:22Z</time>
      </trkpt>
      <trkpt lat="42.66823" lon="2.61617">
        <ele>143.4</ele>
        <time>2025-07-19T08:59:25Z</time>
      </trkpt>
      <trkpt lat="42.66819" lon="2.61599">
        <ele>143.6</ele>
        <time>2025-07-19T08:59:28Z</time>
      </trkpt>
      <trkpt lat="42.66814" lon="2.61587">
        <ele>143.8</ele>
        <time>2025-07-19T08:59:30Z</time>
      </trkpt>
      <trkpt lat="42.66808" lon="2.61569">
        <ele>144.2</ele>
        <time>2025-07-19T08:59:33Z</time>
      </trkpt>
      <trkpt lat="42.66794" lon="2.6153">
        <ele>145</ele>
        <time>2025-07-19T08:59:39Z</time>
      </trkpt>
      <trkpt lat="42.66787" lon="2.61512">
        <ele>145.4</ele>
        <time>2025-07-19T08:59:42Z</time>
      </trkpt>
      <trkpt lat="42.66769" lon="2.61467">
        <ele>145.6</ele>
        <time>2025-07-19T08:59:49Z</time>
      </trkpt>
      <trkpt lat="42.6675" lon="2.61417">
        <ele>145.8</ele>
        <time>2025-07-19T08:59:57Z</time>
      </trkpt>
      <trkpt lat="42.66723" lon="2.61351">
        <ele>146.4</ele>
        <time>2025-07-19T09:00:07Z</time>
      </trkpt>
      <trkpt lat="42.6672" lon="2.61344">
        <ele>146.4</ele>
        <time>2025-07-19T09:00:08Z</time>
      </trkpt>
      <trkpt lat="42.66699" lon="2.61291">
        <ele>146.8</ele>
        <time>2025-07-19T09:00:16Z</time>
      </trkpt>
      <trkpt lat="42.66675" lon="2.61229">
        <ele>147.2</ele>
        <time>2025-07-19T09:00:25Z</time>
      </trkpt>
      <trkpt lat="42.66667" lon="2.61208">
        <ele>147.4</ele>
        <time>2025-07-19T09:00:28Z</time>
      </trkpt>
      <trkpt lat="42.66641" lon="2.61142">
        <ele>148</ele>
        <time>2025-07-19T09:00:37Z</time>
      </trkpt>
      <trkpt lat="42.66615" lon="2.61074">
        <ele>148.2</ele>
        <time>2025-07-19T09:00:46Z</time>
      </trkpt>
      <trkpt lat="42.66606" lon="2.6105">
        <ele>148.4</ele>
        <time>2025-07-19T09:00:49Z</time>
      </trkpt>
      <trkpt lat="42.66603" lon="2.61043">
        <ele>148.4</ele>
        <time>2025-07-19T09:00:50Z</time>
      </trkpt>
      <trkpt lat="42.66577" lon="2.60974">
        <ele>148.6</ele>
        <time>2025-07-19T09:00:59Z</time>
      </trkpt>
      <trkpt lat="42.66551" lon="2.60906">
        <ele>149</ele>
        <time>2025-07-19T09:01:08Z</time>
      </trkpt>
      <trkpt lat="42.66545" lon="2.60891">
        <ele>149</ele>
        <time>2025-07-19T09:01:10Z</time>
      </trkpt>
      <trkpt lat="42.66533" lon="2.60861">
        <ele>149.2</ele>
        <time>2025-07-19T09:01:14Z</time>
      </trkpt>
      <trkpt lat="42.66525" lon="2.60839">
        <ele>149.2</ele>
        <time>2025-07-19T09:01:17Z</time>
      </trkpt>
      <trkpt lat="42.66509" lon="2.60799">
        <ele>149.4</ele>
        <time>2025-07-19T09:01:23Z</time>
      </trkpt>
      <trkpt lat="42.66505" lon="2.60786">
        <ele>149.6</ele>
        <time>2025-07-19T09:01:25Z</time>
      </trkpt>
      <trkpt lat="42.66491" lon="2.60752">
        <ele>149.6</ele>
        <time>2025-07-19T09:01:30Z</time>
      </trkpt>
      <trkpt lat="42.66463" lon="2.60682">
        <ele>150</ele>
        <time>2025-07-19T09:01:40Z</time>
      </trkpt>
      <trkpt lat="42.66453" lon="2.60653">
        <ele>150.2</ele>
        <time>2025-07-19T09:01:44Z</time>
      </trkpt>
      <trkpt lat="42.66443" lon="2.60633">
        <ele>150.2</ele>
        <time>2025-07-19T09:01:47Z</time>
      </trkpt>
      <trkpt lat="42.66432" lon="2.60597">
        <ele>150.6</ele>
        <time>2025-07-19T09:01:52Z</time>
      </trkpt>
      <trkpt lat="42.6643" lon="2.60582">
        <ele>150.8</ele>
        <time>2025-07-19T09:01:54Z</time>
      </trkpt>
      <trkpt lat="42.66428" lon="2.60574">
        <ele>151</ele>
        <time>2025-07-19T09:01:55Z</time>
      </trkpt>
      <trkpt lat="42.6642" lon="2.60563">
        <ele>151.2</ele>
        <time>2025-07-19T09:01:57Z</time>
      </trkpt>
      <trkpt lat="42.66406" lon="2.60538">
        <ele>151.4</ele>
        <time>2025-07-19T09:02:01Z</time>
      </trkpt>
      <trkpt lat="42.66398" lon="2.60517">
        <ele>151.6</ele>
        <time>2025-07-19T09:02:04Z</time>
      </trkpt>
      <trkpt lat="42.66383" lon="2.60476">
        <ele>152</ele>
        <time>2025-07-19T09:02:10Z</time>
      </trkpt>
      <trkpt lat="42.66357" lon="2.60413">
        <ele>152.4</ele>
        <time>2025-07-19T09:02:20Z</time>
      </trkpt>
      <trkpt lat="42.66344" lon="2.6039">
        <ele>152.6</ele>
        <time>2025-07-19T09:02:24Z</time>
      </trkpt>
      <trkpt lat="42.66337" lon="2.60379">
        <ele>153</ele>
        <time>2025-07-19T09:02:26Z</time>
      </trkpt>
      <trkpt lat="42.66337" lon="2.60379">
        <ele>153</ele>
        <time>2025-07-19T09:02:27Z</time>
      </trkpt>
      <trkpt lat="42.66328" lon="2.60371">
        <ele>153.2</ele>
        <time>2025-07-19T09:02:28Z</time>
      </trkpt>
      <trkpt lat="42.66308" lon="2.60358">
        <ele>153.6</ele>
        <time>2025-07-19T09:02:32Z</time>
      </trkpt>
      <trkpt lat="42.66297" lon="2.60354">
        <ele>153.6</ele>
        <time>2025-07-19T09:02:34Z</time>
      </trkpt>
      <trkpt lat="42.66275" lon="2.60351">
        <ele>153.8</ele>
        <time>2025-07-19T09:02:38Z</time>
      </trkpt>
      <trkpt lat="42.66242" lon="2.60348">
        <ele>154</ele>
        <time>2025-07-19T09:02:44Z</time>
      </trkpt>
      <trkpt lat="42.66236" lon="2.60346">
        <ele>154</ele>
        <time>2025-07-19T09:02:45Z</time>
      </trkpt>
      <trkpt lat="42.66223" lon="2.60332">
        <ele>154.2</ele>
        <time>2025-07-19T09:02:48Z</time>
      </trkpt>
      <trkpt lat="42.66219" lon="2.60327">
        <ele>154.2</ele>
        <time>2025-07-19T09:02:49Z</time>
      </trkpt>
      <trkpt lat="42.66217" lon="2.6032">
        <ele>154.4</ele>
        <time>2025-07-19T09:02:50Z</time>
      </trkpt>
      <trkpt lat="42.66216" lon="2.60306">
        <ele>154.6</ele>
        <time>2025-07-19T09:02:52Z</time>
      </trkpt>
      <trkpt lat="42.66218" lon="2.60291">
        <ele>154.8</ele>
        <time>2025-07-19T09:02:54Z</time>
      </trkpt>
      <trkpt lat="42.66218" lon="2.60275">
        <ele>155</ele>
        <time>2025-07-19T09:02:56Z</time>
      </trkpt>
      <trkpt lat="42.66229" lon="2.60236">
        <ele>155.2</ele>
        <time>2025-07-19T09:03:01Z</time>
      </trkpt>
      <trkpt lat="42.66231" lon="2.60229">
        <ele>155.2</ele>
        <time>2025-07-19T09:03:02Z</time>
      </trkpt>
      <trkpt lat="42.66241" lon="2.602">
        <ele>155.2</ele>
        <time>2025-07-19T09:03:06Z</time>
      </trkpt>
      <trkpt lat="42.66247" lon="2.60187">
        <ele>155.2</ele>
        <time>2025-07-19T09:03:08Z</time>
      </trkpt>
      <trkpt lat="42.66255" lon="2.60176">
        <ele>155.4</ele>
        <time>2025-07-19T09:03:10Z</time>
      </trkpt>
      <trkpt lat="42.66257" lon="2.60162">
        <ele>155.4</ele>
        <time>2025-07-19T09:03:12Z</time>
      </trkpt>
      <trkpt lat="42.66256" lon="2.60155">
        <ele>155.6</ele>
        <time>2025-07-19T09:03:13Z</time>
      </trkpt>
      <trkpt lat="42.66248" lon="2.60135">
        <ele>155.8</ele>
        <time>2025-07-19T09:03:16Z</time>
      </trkpt>
      <trkpt lat="42.66237" lon="2.60104">
        <ele>156.6</ele>
        <time>2025-07-19T09:03:21Z</time>
      </trkpt>
      <trkpt lat="42.66236" lon="2.60099">
        <ele>156.8</ele>
        <time>2025-07-19T09:03:22Z</time>
      </trkpt>
      <trkpt lat="42.66228" lon="2.60078">
        <ele>157.6</ele>
        <time>2025-07-19T09:03:26Z</time>
      </trkpt>
      <trkpt lat="42.66223" lon="2.60067">
        <ele>157.8</ele>
        <time>2025-07-19T09:03:28Z</time>
      </trkpt>
      <trkpt lat="42.66212" lon="2.60041">
        <ele>158.6</ele>
        <time>2025-07-19T09:03:33Z</time>
      </trkpt>
      <trkpt lat="42.6621" lon="2.60036">
        <ele>158.6</ele>
        <time>2025-07-19T09:03:34Z</time>
      </trkpt>
      <trkpt lat="42.66204" lon="2.60026">
        <ele>159</ele>
        <time>2025-07-19T09:03:36Z</time>
      </trkpt>
      <trkpt lat="42.66183" lon="2.59995">
        <ele>159.8</ele>
        <time>2025-07-19T09:03:42Z</time>
      </trkpt>
      <trkpt lat="42.66171" lon="2.59979">
        <ele>160.2</ele>
        <time>2025-07-19T09:03:45Z</time>
      </trkpt>
      <trkpt lat="42.6614" lon="2.59937">
        <ele>160.6</ele>
        <time>2025-07-19T09:03:53Z</time>
      </trkpt>
      <trkpt lat="42.66124" lon="2.59915">
        <ele>161.2</ele>
        <time>2025-07-19T09:03:57Z</time>
      </trkpt>
      <trkpt lat="42.66111" lon="2.59891">
        <ele>161.6</ele>
        <time>2025-07-19T09:04:01Z</time>
      </trkpt>
      <trkpt lat="42.66089" lon="2.59845">
        <ele>162.2</ele>
        <time>2025-07-19T09:04:08Z</time>
      </trkpt>
      <trkpt lat="42.66085" lon="2.5983">
        <ele>162.4</ele>
        <time>2025-07-19T09:04:10Z</time>
      </trkpt>
      <trkpt lat="42.66079" lon="2.598">
        <ele>162.6</ele>
        <time>2025-07-19T09:04:14Z</time>
      </trkpt>
      <trkpt lat="42.6607" lon="2.59735">
        <ele>163.2</ele>
        <time>2025-07-19T09:04:22Z</time>
      </trkpt>
      <trkpt lat="42.66066" lon="2.59713">
        <ele>163.4</ele>
        <time>2025-07-19T09:04:25Z</time>
      </trkpt>
      <trkpt lat="42.66058" lon="2.59669">
        <ele>163.8</ele>
        <time>2025-07-19T09:04:31Z</time>
      </trkpt>
      <trkpt lat="42.66052" lon="2.59647">
        <ele>164.4</ele>
        <time>2025-07-19T09:04:34Z</time>
      </trkpt>
      <trkpt lat="42.6604" lon="2.59611">
        <ele>165</ele>
        <time>2025-07-19T09:04:39Z</time>
      </trkpt>
      <trkpt lat="42.66024" lon="2.5956">
        <ele>165.4</ele>
        <time>2025-07-19T09:04:46Z</time>
      </trkpt>
      <trkpt lat="42.6602" lon="2.59545">
        <ele>165.6</ele>
        <time>2025-07-19T09:04:48Z</time>
      </trkpt>
      <trkpt lat="42.6601" lon="2.59486">
        <ele>166.4</ele>
        <time>2025-07-19T09:04:56Z</time>
      </trkpt>
      <trkpt lat="42.66009" lon="2.59479">
        <ele>166.6</ele>
        <time>2025-07-19T09:04:57Z</time>
      </trkpt>
      <trkpt lat="42.66002" lon="2.59425">
        <ele>167.2</ele>
        <time>2025-07-19T09:05:04Z</time>
      </trkpt>
      <trkpt lat="42.65983" lon="2.59356">
        <ele>167.4</ele>
        <time>2025-07-19T09:05:13Z</time>
      </trkpt>
      <trkpt lat="42.65975" lon="2.59334">
        <ele>167.4</ele>
        <time>2025-07-19T09:05:16Z</time>
      </trkpt>
      <trkpt lat="42.65969" lon="2.5931">
        <ele>167.6</ele>
        <time>2025-07-19T09:05:19Z</time>
      </trkpt>
      <trkpt lat="42.65962" lon="2.59287">
        <ele>167.6</ele>
        <time>2025-07-19T09:05:22Z</time>
      </trkpt>
      <trkpt lat="42.65953" lon="2.59263">
        <ele>167.8</ele>
        <time>2025-07-19T09:05:25Z</time>
      </trkpt>
      <trkpt lat="42.65933" lon="2.59218">
        <ele>168.2</ele>
        <time>2025-07-19T09:05:31Z</time>
      </trkpt>
      <trkpt lat="42.65903" lon="2.59151">
        <ele>168.2</ele>
        <time>2025-07-19T09:05:40Z</time>
      </trkpt>
      <trkpt lat="42.65876" lon="2.59091">
        <ele>168.2</ele>
        <time>2025-07-19T09:05:48Z</time>
      </trkpt>
      <trkpt lat="42.65848" lon="2.59027">
        <ele>168.6</ele>
        <time>2025-07-19T09:05:57Z</time>
      </trkpt>
      <trkpt lat="42.6584" lon="2.59005">
        <ele>168.8</ele>
        <time>2025-07-19T09:06:00Z</time>
      </trkpt>
      <trkpt lat="42.65815" lon="2.5894">
        <ele>169.2</ele>
        <time>2025-07-19T09:06:09Z</time>
      </trkpt>
      <trkpt lat="42.65795" lon="2.58872">
        <ele>169.4</ele>
        <time>2025-07-19T09:06:18Z</time>
      </trkpt>
      <trkpt lat="42.65788" lon="2.58822">
        <ele>169.8</ele>
        <time>2025-07-19T09:06:24Z</time>
      </trkpt>
      <trkpt lat="42.65788" lon="2.58797">
        <ele>169.8</ele>
        <time>2025-07-19T09:06:27Z</time>
      </trkpt>
      <trkpt lat="42.65787" lon="2.58754">
        <ele>169.8</ele>
        <time>2025-07-19T09:06:32Z</time>
      </trkpt>
      <trkpt lat="42.65786" lon="2.58674">
        <ele>170</ele>
        <time>2025-07-19T09:06:41Z</time>
      </trkpt>
      <trkpt lat="42.65784" lon="2.58617">
        <ele>170.2</ele>
        <time>2025-07-19T09:06:48Z</time>
      </trkpt>
      <trkpt lat="42.65779" lon="2.58599">
        <ele>170.4</ele>
        <time>2025-07-19T09:06:50Z</time>
      </trkpt>
      <trkpt lat="42.65774" lon="2.58586">
        <ele>170.6</ele>
        <time>2025-07-19T09:06:52Z</time>
      </trkpt>
      <trkpt lat="42.65765" lon="2.58572">
        <ele>170.8</ele>
        <time>2025-07-19T09:06:54Z</time>
      </trkpt>
      <trkpt lat="42.6576" lon="2.58567">
        <ele>170.8</ele>
        <time>2025-07-19T09:06:55Z</time>
      </trkpt>
      <trkpt lat="42.65756" lon="2.58563">
        <ele>170.8</ele>
        <time>2025-07-19T09:06:56Z</time>
      </trkpt>
      <trkpt lat="42.65745" lon="2.58555">
        <ele>170.8</ele>
        <time>2025-07-19T09:06:58Z</time>
      </trkpt>
      <trkpt lat="42.65732" lon="2.5855">
        <ele>171</ele>
        <time>2025-07-19T09:07:00Z</time>
      </trkpt>
      <trkpt lat="42.65708" lon="2.58551">
        <ele>171</ele>
        <time>2025-07-19T09:07:04Z</time>
      </trkpt>
      <trkpt lat="42.65702" lon="2.58553">
        <ele>171</ele>
        <time>2025-07-19T09:07:05Z</time>
      </trkpt>
      <trkpt lat="42.65676" lon="2.58569">
        <ele>171</ele>
        <time>2025-07-19T09:07:10Z</time>
      </trkpt>
      <trkpt lat="42.65664" lon="2.58574">
        <ele>171</ele>
        <time>2025-07-19T09:07:14Z</time>
      </trkpt>
      <trkpt lat="42.65646" lon="2.5857">
        <ele>171</ele>
        <time>2025-07-19T09:07:20Z</time>
      </trkpt>
      <trkpt lat="42.65638" lon="2.58562">
        <ele>171.2</ele>
        <time>2025-07-19T09:07:22Z</time>
      </trkpt>
      <trkpt lat="42.65631" lon="2.58552">
        <ele>171.2</ele>
        <time>2025-07-19T09:07:24Z</time>
      </trkpt>
      <trkpt lat="42.65613" lon="2.58506">
        <ele>171.6</ele>
        <time>2025-07-19T09:07:31Z</time>
      </trkpt>
      <trkpt lat="42.65598" lon="2.58472">
        <ele>172</ele>
        <time>2025-07-19T09:07:36Z</time>
      </trkpt>
      <trkpt lat="42.65586" lon="2.58444">
        <ele>172.2</ele>
        <time>2025-07-19T09:07:40Z</time>
      </trkpt>
      <trkpt lat="42.6556" lon="2.58386">
        <ele>173</ele>
        <time>2025-07-19T09:07:49Z</time>
      </trkpt>
      <trkpt lat="42.65557" lon="2.58379">
        <ele>173</ele>
        <time>2025-07-19T09:07:50Z</time>
      </trkpt>
      <trkpt lat="42.65529" lon="2.58315">
        <ele>173.4</ele>
        <time>2025-07-19T09:08:00Z</time>
      </trkpt>
      <trkpt lat="42.65526" lon="2.58308">
        <ele>173.4</ele>
        <time>2025-07-19T09:08:01Z</time>
      </trkpt>
      <trkpt lat="42.65506" lon="2.58263">
        <ele>174</ele>
        <time>2025-07-19T09:08:08Z</time>
      </trkpt>
      <trkpt lat="42.655" lon="2.58249">
        <ele>174</ele>
        <time>2025-07-19T09:08:10Z</time>
      </trkpt>
      <trkpt lat="42.65472" lon="2.58187">
        <ele>174.4</ele>
        <time>2025-07-19T09:08:20Z</time>
      </trkpt>
      <trkpt lat="42.65461" lon="2.58162">
        <ele>174.6</ele>
        <time>2025-07-19T09:08:24Z</time>
      </trkpt>
      <trkpt lat="42.6545" lon="2.58138">
        <ele>175</ele>
        <time>2025-07-19T09:08:28Z</time>
      </trkpt>
      <trkpt lat="42.65448" lon="2.58132">
        <ele>175.2</ele>
        <time>2025-07-19T09:08:29Z</time>
      </trkpt>
      <trkpt lat="42.65433" lon="2.58101">
        <ele>176.2</ele>
        <time>2025-07-19T09:08:34Z</time>
      </trkpt>
      <trkpt lat="42.6542" lon="2.58074">
        <ele>177.2</ele>
        <time>2025-07-19T09:08:39Z</time>
      </trkpt>
      <trkpt lat="42.65413" lon="2.58056">
        <ele>177.6</ele>
        <time>2025-07-19T09:08:42Z</time>
      </trkpt>
      <trkpt lat="42.65385" lon="2.57992">
        <ele>178</ele>
        <time>2025-07-19T09:08:52Z</time>
      </trkpt>
      <trkpt lat="42.65379" lon="2.57979">
        <ele>178</ele>
        <time>2025-07-19T09:08:54Z</time>
      </trkpt>
      <trkpt lat="42.6535" lon="2.57915">
        <ele>178</ele>
        <time>2025-07-19T09:09:03Z</time>
      </trkpt>
      <trkpt lat="42.65324" lon="2.57858">
        <ele>178.2</ele>
        <time>2025-07-19T09:09:11Z</time>
      </trkpt>
      <trkpt lat="42.65318" lon="2.57843">
        <ele>178.4</ele>
        <time>2025-07-19T09:09:13Z</time>
      </trkpt>
      <trkpt lat="42.65304" lon="2.57813">
        <ele>178.4</ele>
        <time>2025-07-19T09:09:17Z</time>
      </trkpt>
      <trkpt lat="42.65291" lon="2.57785">
        <ele>178.8</ele>
        <time>2025-07-19T09:09:21Z</time>
      </trkpt>
      <trkpt lat="42.65273" lon="2.57745">
        <ele>179.2</ele>
        <time>2025-07-19T09:09:27Z</time>
      </trkpt>
      <trkpt lat="42.65262" lon="2.57721">
        <ele>179.6</ele>
        <time>2025-07-19T09:09:31Z</time>
      </trkpt>
      <trkpt lat="42.65242" lon="2.57678">
        <ele>180.4</ele>
        <time>2025-07-19T09:09:38Z</time>
      </trkpt>
      <trkpt lat="42.65236" lon="2.57664">
        <ele>180.8</ele>
        <time>2025-07-19T09:09:40Z</time>
      </trkpt>
      <trkpt lat="42.65222" lon="2.57631">
        <ele>181.6</ele>
        <time>2025-07-19T09:09:45Z</time>
      </trkpt>
      <trkpt lat="42.65207" lon="2.57599">
        <ele>182.2</ele>
        <time>2025-07-19T09:09:50Z</time>
      </trkpt>
      <trkpt lat="42.65181" lon="2.5754">
        <ele>182.6</ele>
        <time>2025-07-19T09:09:59Z</time>
      </trkpt>
      <trkpt lat="42.65174" lon="2.57522">
        <ele>183.2</ele>
        <time>2025-07-19T09:10:02Z</time>
      </trkpt>
      <trkpt lat="42.65153" lon="2.57477">
        <ele>183.8</ele>
        <time>2025-07-19T09:10:09Z</time>
      </trkpt>
      <trkpt lat="42.6514" lon="2.57447">
        <ele>184.6</ele>
        <time>2025-07-19T09:10:14Z</time>
      </trkpt>
      <trkpt lat="42.65138" lon="2.57441">
        <ele>184.6</ele>
        <time>2025-07-19T09:10:15Z</time>
      </trkpt>
      <trkpt lat="42.65133" lon="2.57432">
        <ele>184.8</ele>
        <time>2025-07-19T09:10:17Z</time>
      </trkpt>
      <trkpt lat="42.65119" lon="2.57404">
        <ele>185.4</ele>
        <time>2025-07-19T09:10:22Z</time>
      </trkpt>
      <trkpt lat="42.6511" lon="2.57387">
        <ele>185.8</ele>
        <time>2025-07-19T09:10:25Z</time>
      </trkpt>
      <trkpt lat="42.65088" lon="2.5735">
        <ele>187</ele>
        <time>2025-07-19T09:10:32Z</time>
      </trkpt>
      <trkpt lat="42.65065" lon="2.57313">
        <ele>187.8</ele>
        <time>2025-07-19T09:10:39Z</time>
      </trkpt>
      <trkpt lat="42.6506" lon="2.57303">
        <ele>188</ele>
        <time>2025-07-19T09:10:41Z</time>
      </trkpt>
      <trkpt lat="42.65051" lon="2.57288">
        <ele>188.6</ele>
        <time>2025-07-19T09:10:44Z</time>
      </trkpt>
      <trkpt lat="42.65036" lon="2.57264">
        <ele>189</ele>
        <time>2025-07-19T09:10:49Z</time>
      </trkpt>
      <trkpt lat="42.65027" lon="2.57249">
        <ele>189.6</ele>
        <time>2025-07-19T09:10:52Z</time>
      </trkpt>
      <trkpt lat="42.65022" lon="2.57239">
        <ele>190.2</ele>
        <time>2025-07-19T09:10:54Z</time>
      </trkpt>
      <trkpt lat="42.65005" lon="2.57206">
        <ele>191.2</ele>
        <time>2025-07-19T09:11:00Z</time>
      </trkpt>
      <trkpt lat="42.64986" lon="2.57154">
        <ele>192.2</ele>
        <time>2025-07-19T09:11:08Z</time>
      </trkpt>
      <trkpt lat="42.64983" lon="2.57148">
        <ele>192.4</ele>
        <time>2025-07-19T09:11:09Z</time>
      </trkpt>
      <trkpt lat="42.6496" lon="2.5708">
        <ele>193.2</ele>
        <time>2025-07-19T09:11:19Z</time>
      </trkpt>
      <trkpt lat="42.64957" lon="2.57072">
        <ele>193.4</ele>
        <time>2025-07-19T09:11:20Z</time>
      </trkpt>
      <trkpt lat="42.64934" lon="2.57011">
        <ele>193.8</ele>
        <time>2025-07-19T09:11:29Z</time>
      </trkpt>
      <trkpt lat="42.64923" lon="2.56979">
        <ele>194.4</ele>
        <time>2025-07-19T09:11:34Z</time>
      </trkpt>
      <trkpt lat="42.64917" lon="2.56963">
        <ele>195</ele>
        <time>2025-07-19T09:11:37Z</time>
      </trkpt>
      <trkpt lat="42.6491" lon="2.56945">
        <ele>195.2</ele>
        <time>2025-07-19T09:11:40Z</time>
      </trkpt>
      <trkpt lat="42.64908" lon="2.56941">
        <ele>195.4</ele>
        <time>2025-07-19T09:11:41Z</time>
      </trkpt>
      <trkpt lat="42.64897" lon="2.5692">
        <ele>196.2</ele>
        <time>2025-07-19T09:11:45Z</time>
      </trkpt>
      <trkpt lat="42.64894" lon="2.56916">
        <ele>196.4</ele>
        <time>2025-07-19T09:11:46Z</time>
      </trkpt>
      <trkpt lat="42.64874" lon="2.5689">
        <ele>197.2</ele>
        <time>2025-07-19T09:11:52Z</time>
      </trkpt>
      <trkpt lat="42.6487" lon="2.56885">
        <ele>197.4</ele>
        <time>2025-07-19T09:11:53Z</time>
      </trkpt>
      <trkpt lat="42.64842" lon="2.56864">
        <ele>198.2</ele>
        <time>2025-07-19T09:12:00Z</time>
      </trkpt>
      <trkpt lat="42.6483" lon="2.56857">
        <ele>198.4</ele>
        <time>2025-07-19T09:12:03Z</time>
      </trkpt>
      <trkpt lat="42.64799" lon="2.56844">
        <ele>199.4</ele>
        <time>2025-07-19T09:12:10Z</time>
      </trkpt>
      <trkpt lat="42.64784" lon="2.56837">
        <ele>199.6</ele>
        <time>2025-07-19T09:12:13Z</time>
      </trkpt>
      <trkpt lat="42.64762" lon="2.56824">
        <ele>199.8</ele>
        <time>2025-07-19T09:12:18Z</time>
      </trkpt>
      <trkpt lat="42.64754" lon="2.56818">
        <ele>200</ele>
        <time>2025-07-19T09:12:20Z</time>
      </trkpt>
      <trkpt lat="42.64734" lon="2.56799">
        <ele>200.4</ele>
        <time>2025-07-19T09:12:25Z</time>
      </trkpt>
      <trkpt lat="42.64727" lon="2.56791">
        <ele>200.6</ele>
        <time>2025-07-19T09:12:27Z</time>
      </trkpt>
      <trkpt lat="42.64712" lon="2.56767">
        <ele>200.8</ele>
        <time>2025-07-19T09:12:32Z</time>
      </trkpt>
      <trkpt lat="42.64704" lon="2.56747">
        <ele>201.4</ele>
        <time>2025-07-19T09:12:36Z</time>
      </trkpt>
      <trkpt lat="42.64696" lon="2.56718">
        <ele>202.2</ele>
        <time>2025-07-19T09:12:41Z</time>
      </trkpt>
      <trkpt lat="42.64692" lon="2.567">
        <ele>202.6</ele>
        <time>2025-07-19T09:12:44Z</time>
      </trkpt>
      <trkpt lat="42.6469" lon="2.5667">
        <ele>203.4</ele>
        <time>2025-07-19T09:12:49Z</time>
      </trkpt>
      <trkpt lat="42.64689" lon="2.56664">
        <ele>203.8</ele>
        <time>2025-07-19T09:12:50Z</time>
      </trkpt>
      <trkpt lat="42.64689" lon="2.56658">
        <ele>204</ele>
        <time>2025-07-19T09:12:51Z</time>
      </trkpt>
      <trkpt lat="42.64691" lon="2.56635">
        <ele>204.8</ele>
        <time>2025-07-19T09:12:55Z</time>
      </trkpt>
      <trkpt lat="42.64691" lon="2.56629">
        <ele>204.8</ele>
        <time>2025-07-19T09:12:56Z</time>
      </trkpt>
      <trkpt lat="42.64692" lon="2.56601">
        <ele>205.8</ele>
        <time>2025-07-19T09:13:01Z</time>
      </trkpt>
      <trkpt lat="42.64693" lon="2.5658">
        <ele>206.6</ele>
        <time>2025-07-19T09:13:05Z</time>
      </trkpt>
      <trkpt lat="42.64693" lon="2.56574">
        <ele>207</ele>
        <time>2025-07-19T09:13:06Z</time>
      </trkpt>
      <trkpt lat="42.6469" lon="2.56528">
        <ele>208</ele>
        <time>2025-07-19T09:13:14Z</time>
      </trkpt>
      <trkpt lat="42.64689" lon="2.56521">
        <ele>208.2</ele>
        <time>2025-07-19T09:13:15Z</time>
      </trkpt>
      <trkpt lat="42.64687" lon="2.5651">
        <ele>208.2</ele>
        <time>2025-07-19T09:13:17Z</time>
      </trkpt>
      <trkpt lat="42.64678" lon="2.56481">
        <ele>208.6</ele>
        <time>2025-07-19T09:13:22Z</time>
      </trkpt>
      <trkpt lat="42.64675" lon="2.56475">
        <ele>208.6</ele>
        <time>2025-07-19T09:13:23Z</time>
      </trkpt>
      <trkpt lat="42.64668" lon="2.56459">
        <ele>209</ele>
        <time>2025-07-19T09:13:26Z</time>
      </trkpt>
      <trkpt lat="42.6466" lon="2.56443">
        <ele>209.6</ele>
        <time>2025-07-19T09:13:29Z</time>
      </trkpt>
      <trkpt lat="42.64646" lon="2.56415">
        <ele>210.2</ele>
        <time>2025-07-19T09:13:35Z</time>
      </trkpt>
      <trkpt lat="42.64639" lon="2.56402">
        <ele>211</ele>
        <time>2025-07-19T09:13:38Z</time>
      </trkpt>
      <trkpt lat="42.64637" lon="2.56397">
        <ele>211.2</ele>
        <time>2025-07-19T09:13:39Z</time>
      </trkpt>
      <trkpt lat="42.64618" lon="2.56356">
        <ele>212</ele>
        <time>2025-07-19T09:13:48Z</time>
      </trkpt>
      <trkpt lat="42.64615" lon="2.56351">
        <ele>212</ele>
        <time>2025-07-19T09:13:49Z</time>
      </trkpt>
      <trkpt lat="42.64599" lon="2.56316">
        <ele>213.2</ele>
        <time>2025-07-19T09:13:57Z</time>
      </trkpt>
      <trkpt lat="42.64589" lon="2.56295">
        <ele>214.2</ele>
        <time>2025-07-19T09:14:02Z</time>
      </trkpt>
      <trkpt lat="42.64586" lon="2.56286">
        <ele>214.8</ele>
        <time>2025-07-19T09:14:04Z</time>
      </trkpt>
      <trkpt lat="42.64583" lon="2.56278">
        <ele>215.4</ele>
        <time>2025-07-19T09:14:06Z</time>
      </trkpt>
      <trkpt lat="42.64574" lon="2.56256">
        <ele>216.4</ele>
        <time>2025-07-19T09:14:11Z</time>
      </trkpt>
      <trkpt lat="42.6457" lon="2.56247">
        <ele>216.8</ele>
        <time>2025-07-19T09:14:13Z</time>
      </trkpt>
      <trkpt lat="42.64562" lon="2.56226">
        <ele>217.6</ele>
        <time>2025-07-19T09:14:18Z</time>
      </trkpt>
      <trkpt lat="42.64554" lon="2.56203">
        <ele>218.2</ele>
        <time>2025-07-19T09:14:23Z</time>
      </trkpt>
      <trkpt lat="42.64548" lon="2.56185">
        <ele>218.8</ele>
        <time>2025-07-19T09:14:27Z</time>
      </trkpt>
      <trkpt lat="42.64545" lon="2.56171">
        <ele>219.2</ele>
        <time>2025-07-19T09:14:30Z</time>
      </trkpt>
      <trkpt lat="42.64541" lon="2.56147">
        <ele>219.6</ele>
        <time>2025-07-19T09:14:35Z</time>
      </trkpt>
      <trkpt lat="42.64541" lon="2.56121">
        <ele>220.6</ele>
        <time>2025-07-19T09:14:40Z</time>
      </trkpt>
      <trkpt lat="42.64546" lon="2.56084">
        <ele>221.6</ele>
        <time>2025-07-19T09:14:47Z</time>
      </trkpt>
      <trkpt lat="42.64548" lon="2.56078">
        <ele>221.8</ele>
        <time>2025-07-19T09:14:48Z</time>
      </trkpt>
      <trkpt lat="42.64558" lon="2.56048">
        <ele>222</ele>
        <time>2025-07-19T09:14:53Z</time>
      </trkpt>
      <trkpt lat="42.64579" lon="2.56012">
        <ele>221.8</ele>
        <time>2025-07-19T09:14:59Z</time>
      </trkpt>
      <trkpt lat="42.64602" lon="2.55982">
        <ele>221.2</ele>
        <time>2025-07-19T09:15:04Z</time>
      </trkpt>
      <trkpt lat="42.64624" lon="2.55956">
        <ele>220.4</ele>
        <time>2025-07-19T09:15:08Z</time>
      </trkpt>
      <trkpt lat="42.64635" lon="2.55942">
        <ele>219.6</ele>
        <time>2025-07-19T09:15:10Z</time>
      </trkpt>
      <trkpt lat="42.6464" lon="2.55935">
        <ele>219.2</ele>
        <time>2025-07-19T09:15:11Z</time>
      </trkpt>
      <trkpt lat="42.64657" lon="2.55917">
        <ele>218.6</ele>
        <time>2025-07-19T09:15:14Z</time>
      </trkpt>
      <trkpt lat="42.64664" lon="2.55912">
        <ele>218.4</ele>
        <time>2025-07-19T09:15:15Z</time>
      </trkpt>
      <trkpt lat="42.64672" lon="2.55908">
        <ele>218.2</ele>
        <time>2025-07-19T09:15:16Z</time>
      </trkpt>
      <trkpt lat="42.64683" lon="2.559">
        <ele>217.8</ele>
        <time>2025-07-19T09:15:18Z</time>
      </trkpt>
      <trkpt lat="42.64688" lon="2.55893">
        <ele>217.6</ele>
        <time>2025-07-19T09:15:19Z</time>
      </trkpt>
      <trkpt lat="42.64692" lon="2.55885">
        <ele>217.2</ele>
        <time>2025-07-19T09:15:20Z</time>
      </trkpt>
      <trkpt lat="42.64695" lon="2.55876">
        <ele>217.2</ele>
        <time>2025-07-19T09:15:21Z</time>
      </trkpt>
      <trkpt lat="42.64699" lon="2.55868">
        <ele>216.8</ele>
        <time>2025-07-19T09:15:22Z</time>
      </trkpt>
      <trkpt lat="42.64721" lon="2.55839">
        <ele>216</ele>
        <time>2025-07-19T09:15:26Z</time>
      </trkpt>
      <trkpt lat="42.64733" lon="2.55825">
        <ele>215.4</ele>
        <time>2025-07-19T09:15:28Z</time>
      </trkpt>
      <trkpt lat="42.64753" lon="2.55802">
        <ele>214.8</ele>
        <time>2025-07-19T09:15:31Z</time>
      </trkpt>
      <trkpt lat="42.64775" lon="2.55778">
        <ele>213.6</ele>
        <time>2025-07-19T09:15:34Z</time>
      </trkpt>
      <trkpt lat="42.64798" lon="2.55754">
        <ele>212.4</ele>
        <time>2025-07-19T09:15:37Z</time>
      </trkpt>
      <trkpt lat="42.64822" lon="2.55731">
        <ele>211</ele>
        <time>2025-07-19T09:15:40Z</time>
      </trkpt>
      <trkpt lat="42.6483" lon="2.55724">
        <ele>210.2</ele>
        <time>2025-07-19T09:15:41Z</time>
      </trkpt>
      <trkpt lat="42.64846" lon="2.55709">
        <ele>209.4</ele>
        <time>2025-07-19T09:15:43Z</time>
      </trkpt>
      <trkpt lat="42.64869" lon="2.55687">
        <ele>208.4</ele>
        <time>2025-07-19T09:15:46Z</time>
      </trkpt>
      <trkpt lat="42.64884" lon="2.55673">
        <ele>207.4</ele>
        <time>2025-07-19T09:15:48Z</time>
      </trkpt>
      <trkpt lat="42.64899" lon="2.55659">
        <ele>206.2</ele>
        <time>2025-07-19T09:15:50Z</time>
      </trkpt>
      <trkpt lat="42.64915" lon="2.55645">
        <ele>204.8</ele>
        <time>2025-07-19T09:15:52Z</time>
      </trkpt>
      <trkpt lat="42.64936" lon="2.55626">
        <ele>203.6</ele>
        <time>2025-07-19T09:15:55Z</time>
      </trkpt>
      <trkpt lat="42.64951" lon="2.55613">
        <ele>202.6</ele>
        <time>2025-07-19T09:15:57Z</time>
      </trkpt>
      <trkpt lat="42.64959" lon="2.55606">
        <ele>202.2</ele>
        <time>2025-07-19T09:15:58Z</time>
      </trkpt>
      <trkpt lat="42.64978" lon="2.55589">
        <ele>201</ele>
        <time>2025-07-19T09:16:01Z</time>
      </trkpt>
      <trkpt lat="42.64998" lon="2.55571">
        <ele>200.2</ele>
        <time>2025-07-19T09:16:05Z</time>
      </trkpt>
      <trkpt lat="42.65001" lon="2.55568">
        <ele>200</ele>
        <time>2025-07-19T09:16:06Z</time>
      </trkpt>
      <trkpt lat="42.65005" lon="2.55564">
        <ele>199.6</ele>
        <time>2025-07-19T09:16:08Z</time>
      </trkpt>
      <trkpt lat="42.65012" lon="2.55558">
        <ele>199.6</ele>
        <time>2025-07-19T09:16:12Z</time>
      </trkpt>
      <trkpt lat="42.65022" lon="2.55548">
        <ele>199.4</ele>
        <time>2025-07-19T09:16:17Z</time>
      </trkpt>
      <trkpt lat="42.6504" lon="2.55534">
        <ele>199.6</ele>
        <time>2025-07-19T09:16:22Z</time>
      </trkpt>
      <trkpt lat="42.65063" lon="2.55512">
        <ele>199.6</ele>
        <time>2025-07-19T09:16:28Z</time>
      </trkpt>
      <trkpt lat="42.65103" lon="2.55476">
        <ele>199.4</ele>
        <time>2025-07-19T09:16:37Z</time>
      </trkpt>
      <trkpt lat="42.65135" lon="2.55445">
        <ele>199.8</ele>
        <time>2025-07-19T09:16:45Z</time>
      </trkpt>
      <trkpt lat="42.65164" lon="2.55411">
        <ele>200.8</ele>
        <time>2025-07-19T09:16:53Z</time>
      </trkpt>
      <trkpt lat="42.65173" lon="2.55398">
        <ele>201.2</ele>
        <time>2025-07-19T09:16:56Z</time>
      </trkpt>
      <trkpt lat="42.65181" lon="2.55384">
        <ele>201.4</ele>
        <time>2025-07-19T09:16:59Z</time>
      </trkpt>
      <trkpt lat="42.6519" lon="2.55369">
        <ele>201.6</ele>
        <time>2025-07-19T09:17:02Z</time>
      </trkpt>
      <trkpt lat="42.65203" lon="2.55342">
        <ele>202.2</ele>
        <time>2025-07-19T09:17:07Z</time>
      </trkpt>
      <trkpt lat="42.65211" lon="2.5532">
        <ele>202.6</ele>
        <time>2025-07-19T09:17:11Z</time>
      </trkpt>
      <trkpt lat="42.65229" lon="2.55264">
        <ele>203</ele>
        <time>2025-07-19T09:17:21Z</time>
      </trkpt>
      <trkpt lat="42.65231" lon="2.5525">
        <ele>203.2</ele>
        <time>2025-07-19T09:17:23Z</time>
      </trkpt>
      <trkpt lat="42.65239" lon="2.55195">
        <ele>203.6</ele>
        <time>2025-07-19T09:17:32Z</time>
      </trkpt>
      <trkpt lat="42.65241" lon="2.55146">
        <ele>204.2</ele>
        <time>2025-07-19T09:17:40Z</time>
      </trkpt>
      <trkpt lat="42.6524" lon="2.55134">
        <ele>204.4</ele>
        <time>2025-07-19T09:17:42Z</time>
      </trkpt>
      <trkpt lat="42.6524" lon="2.55094">
        <ele>205.4</ele>
        <time>2025-07-19T09:17:49Z</time>
      </trkpt>
      <trkpt lat="42.65238" lon="2.55083">
        <ele>205.8</ele>
        <time>2025-07-19T09:17:51Z</time>
      </trkpt>
      <trkpt lat="42.65237" lon="2.55053">
        <ele>206.6</ele>
        <time>2025-07-19T09:17:57Z</time>
      </trkpt>
      <trkpt lat="42.65236" lon="2.55039">
        <ele>206.8</ele>
        <time>2025-07-19T09:18:00Z</time>
      </trkpt>
      <trkpt lat="42.65235" lon="2.55029">
        <ele>207.8</ele>
        <time>2025-07-19T09:18:03Z</time>
      </trkpt>
      <trkpt lat="42.65235" lon="2.55013">
        <ele>208.4</ele>
        <time>2025-07-19T09:18:07Z</time>
      </trkpt>
      <trkpt lat="42.65234" lon="2.55009">
        <ele>208.6</ele>
        <time>2025-07-19T09:18:08Z</time>
      </trkpt>
      <trkpt lat="42.65234" lon="2.55001">
        <ele>208.8</ele>
        <time>2025-07-19T09:18:10Z</time>
      </trkpt>
      <trkpt lat="42.65232" lon="2.54982">
        <ele>210</ele>
        <time>2025-07-19T09:18:15Z</time>
      </trkpt>
      <trkpt lat="42.65232" lon="2.54979">
        <ele>210.2</ele>
        <time>2025-07-19T09:18:16Z</time>
      </trkpt>
      <trkpt lat="42.6523" lon="2.54957">
        <ele>211.2</ele>
        <time>2025-07-19T09:18:22Z</time>
      </trkpt>
      <trkpt lat="42.6523" lon="2.54944">
        <ele>211.6</ele>
        <time>2025-07-19T09:18:25Z</time>
      </trkpt>
      <trkpt lat="42.65229" lon="2.54922">
        <ele>212.4</ele>
        <time>2025-07-19T09:18:31Z</time>
      </trkpt>
      <trkpt lat="42.65228" lon="2.54904">
        <ele>213</ele>
        <time>2025-07-19T09:18:36Z</time>
      </trkpt>
      <trkpt lat="42.65228" lon="2.54898">
        <ele>213.6</ele>
        <time>2025-07-19T09:18:38Z</time>
      </trkpt>
      <trkpt lat="42.65228" lon="2.54876">
        <ele>214.8</ele>
        <time>2025-07-19T09:18:44Z</time>
      </trkpt>
      <trkpt lat="42.65228" lon="2.54869">
        <ele>215.2</ele>
        <time>2025-07-19T09:18:46Z</time>
      </trkpt>
      <trkpt lat="42.65229" lon="2.54851">
        <ele>215.8</ele>
        <time>2025-07-19T09:18:51Z</time>
      </trkpt>
      <trkpt lat="42.6523" lon="2.54834">
        <ele>216.8</ele>
        <time>2025-07-19T09:18:56Z</time>
      </trkpt>
      <trkpt lat="42.65231" lon="2.54818">
        <ele>217.8</ele>
        <time>2025-07-19T09:19:01Z</time>
      </trkpt>
      <trkpt lat="42.65232" lon="2.54807">
        <ele>218.2</ele>
        <time>2025-07-19T09:19:04Z</time>
      </trkpt>
      <trkpt lat="42.65233" lon="2.54794">
        <ele>218.8</ele>
        <time>2025-07-19T09:19:08Z</time>
      </trkpt>
      <trkpt lat="42.65236" lon="2.54781">
        <ele>219.6</ele>
        <time>2025-07-19T09:19:12Z</time>
      </trkpt>
      <trkpt lat="42.65238" lon="2.54771">
        <ele>219.8</ele>
        <time>2025-07-19T09:19:15Z</time>
      </trkpt>
      <trkpt lat="42.65239" lon="2.54753">
        <ele>221</ele>
        <time>2025-07-19T09:19:20Z</time>
      </trkpt>
      <trkpt lat="42.6524" lon="2.5475">
        <ele>221</ele>
        <time>2025-07-19T09:19:21Z</time>
      </trkpt>
      <trkpt lat="42.65243" lon="2.5473">
        <ele>222.2</ele>
        <time>2025-07-19T09:19:27Z</time>
      </trkpt>
      <trkpt lat="42.65244" lon="2.54723">
        <ele>222.6</ele>
        <time>2025-07-19T09:19:29Z</time>
      </trkpt>
      <trkpt lat="42.65245" lon="2.5471">
        <ele>223.2</ele>
        <time>2025-07-19T09:19:33Z</time>
      </trkpt>
      <trkpt lat="42.65248" lon="2.54697">
        <ele>224</ele>
        <time>2025-07-19T09:19:37Z</time>
      </trkpt>
      <trkpt lat="42.65249" lon="2.5469">
        <ele>224.2</ele>
        <time>2025-07-19T09:19:39Z</time>
      </trkpt>
      <trkpt lat="42.65253" lon="2.54666">
        <ele>225.2</ele>
        <time>2025-07-19T09:19:46Z</time>
      </trkpt>
      <trkpt lat="42.65253" lon="2.54662">
        <ele>225.6</ele>
        <time>2025-07-19T09:19:47Z</time>
      </trkpt>
      <trkpt lat="42.65257" lon="2.54638">
        <ele>226.4</ele>
        <time>2025-07-19T09:19:54Z</time>
      </trkpt>
      <trkpt lat="42.65257" lon="2.54635">
        <ele>226.6</ele>
        <time>2025-07-19T09:19:55Z</time>
      </trkpt>
      <trkpt lat="42.65258" lon="2.54621">
        <ele>227.6</ele>
        <time>2025-07-19T09:19:59Z</time>
      </trkpt>
      <trkpt lat="42.65258" lon="2.54612">
        <ele>227.8</ele>
        <time>2025-07-19T09:20:02Z</time>
      </trkpt>
      <trkpt lat="42.65259" lon="2.54604">
        <ele>228.2</ele>
        <time>2025-07-19T09:20:04Z</time>
      </trkpt>
      <trkpt lat="42.6526" lon="2.54597">
        <ele>228.6</ele>
        <time>2025-07-19T09:20:06Z</time>
      </trkpt>
      <trkpt lat="42.65262" lon="2.54573">
        <ele>229.6</ele>
        <time>2025-07-19T09:20:12Z</time>
      </trkpt>
      <trkpt lat="42.65262" lon="2.54569">
        <ele>229.8</ele>
        <time>2025-07-19T09:20:13Z</time>
      </trkpt>
      <trkpt lat="42.65262" lon="2.5454">
        <ele>230.8</ele>
        <time>2025-07-19T09:20:20Z</time>
      </trkpt>
      <trkpt lat="42.65261" lon="2.54535">
        <ele>231</ele>
        <time>2025-07-19T09:20:21Z</time>
      </trkpt>
      <trkpt lat="42.6526" lon="2.54509">
        <ele>231.8</ele>
        <time>2025-07-19T09:20:27Z</time>
      </trkpt>
      <trkpt lat="42.65258" lon="2.54496">
        <ele>232.4</ele>
        <time>2025-07-19T09:20:30Z</time>
      </trkpt>
      <trkpt lat="42.65258" lon="2.54486">
        <ele>233</ele>
        <time>2025-07-19T09:20:32Z</time>
      </trkpt>
      <trkpt lat="42.65253" lon="2.5446">
        <ele>234</ele>
        <time>2025-07-19T09:20:38Z</time>
      </trkpt>
      <trkpt lat="42.65248" lon="2.54433">
        <ele>234.6</ele>
        <time>2025-07-19T09:20:44Z</time>
      </trkpt>
      <trkpt lat="42.65243" lon="2.54415">
        <ele>235</ele>
        <time>2025-07-19T09:20:48Z</time>
      </trkpt>
      <trkpt lat="42.65235" lon="2.54384">
        <ele>235.2</ele>
        <time>2025-07-19T09:20:54Z</time>
      </trkpt>
      <trkpt lat="42.65218" lon="2.54332">
        <ele>236</ele>
        <time>2025-07-19T09:21:03Z</time>
      </trkpt>
      <trkpt lat="42.65202" lon="2.5429">
        <ele>236</ele>
        <time>2025-07-19T09:21:10Z</time>
      </trkpt>
      <trkpt lat="42.65177" lon="2.54226">
        <ele>236.4</ele>
        <time>2025-07-19T09:21:19Z</time>
      </trkpt>
      <trkpt lat="42.65153" lon="2.54162">
        <ele>236.2</ele>
        <time>2025-07-19T09:21:28Z</time>
      </trkpt>
      <trkpt lat="42.6513" lon="2.54094">
        <ele>236.4</ele>
        <time>2025-07-19T09:21:37Z</time>
      </trkpt>
      <trkpt lat="42.65128" lon="2.54086">
        <ele>236.4</ele>
        <time>2025-07-19T09:21:38Z</time>
      </trkpt>
      <trkpt lat="42.65112" lon="2.54015">
        <ele>236.2</ele>
        <time>2025-07-19T09:21:47Z</time>
      </trkpt>
      <trkpt lat="42.6511" lon="2.54005">
        <ele>236.2</ele>
        <time>2025-07-19T09:21:48Z</time>
      </trkpt>
      <trkpt lat="42.65103" lon="2.53926">
        <ele>236.4</ele>
        <time>2025-07-19T09:21:57Z</time>
      </trkpt>
      <trkpt lat="42.65104" lon="2.53847">
        <ele>236.6</ele>
        <time>2025-07-19T09:22:06Z</time>
      </trkpt>
      <trkpt lat="42.65105" lon="2.53811">
        <ele>236.8</ele>
        <time>2025-07-19T09:22:10Z</time>
      </trkpt>
      <trkpt lat="42.65106" lon="2.53793">
        <ele>237</ele>
        <time>2025-07-19T09:22:12Z</time>
      </trkpt>
      <trkpt lat="42.65108" lon="2.5372">
        <ele>236.8</ele>
        <time>2025-07-19T09:22:20Z</time>
      </trkpt>
      <trkpt lat="42.65108" lon="2.53692">
        <ele>236.8</ele>
        <time>2025-07-19T09:22:23Z</time>
      </trkpt>
      <trkpt lat="42.65106" lon="2.53613">
        <ele>236.8</ele>
        <time>2025-07-19T09:22:32Z</time>
      </trkpt>
      <trkpt lat="42.65105" lon="2.53605">
        <ele>236.8</ele>
        <time>2025-07-19T09:22:33Z</time>
      </trkpt>
      <trkpt lat="42.65102" lon="2.53571">
        <ele>237</ele>
        <time>2025-07-19T09:22:37Z</time>
      </trkpt>
      <trkpt lat="42.65094" lon="2.5352">
        <ele>237.4</ele>
        <time>2025-07-19T09:22:43Z</time>
      </trkpt>
      <trkpt lat="42.65077" lon="2.5345">
        <ele>237</ele>
        <time>2025-07-19T09:22:51Z</time>
      </trkpt>
      <trkpt lat="42.65071" lon="2.53423">
        <ele>237</ele>
        <time>2025-07-19T09:22:54Z</time>
      </trkpt>
      <trkpt lat="42.65054" lon="2.53353">
        <ele>236.6</ele>
        <time>2025-07-19T09:23:02Z</time>
      </trkpt>
      <trkpt lat="42.65043" lon="2.53309">
        <ele>236.2</ele>
        <time>2025-07-19T09:23:07Z</time>
      </trkpt>
      <trkpt lat="42.65024" lon="2.53232">
        <ele>236.4</ele>
        <time>2025-07-19T09:23:16Z</time>
      </trkpt>
      <trkpt lat="42.65019" lon="2.53207">
        <ele>236.6</ele>
        <time>2025-07-19T09:23:19Z</time>
      </trkpt>
      <trkpt lat="42.65004" lon="2.53136">
        <ele>237.4</ele>
        <time>2025-07-19T09:23:28Z</time>
      </trkpt>
      <trkpt lat="42.6499" lon="2.53066">
        <ele>238.6</ele>
        <time>2025-07-19T09:23:37Z</time>
      </trkpt>
      <trkpt lat="42.64988" lon="2.53059">
        <ele>238.6</ele>
        <time>2025-07-19T09:23:38Z</time>
      </trkpt>
      <trkpt lat="42.64969" lon="2.52998">
        <ele>239.8</ele>
        <time>2025-07-19T09:23:47Z</time>
      </trkpt>
      <trkpt lat="42.64966" lon="2.52993">
        <ele>239.8</ele>
        <time>2025-07-19T09:23:48Z</time>
      </trkpt>
      <trkpt lat="42.64954" lon="2.52972">
        <ele>240.2</ele>
        <time>2025-07-19T09:23:53Z</time>
      </trkpt>
      <trkpt lat="42.64948" lon="2.52958">
        <ele>240.4</ele>
        <time>2025-07-19T09:23:56Z</time>
      </trkpt>
      <trkpt lat="42.64944" lon="2.52943">
        <ele>240.4</ele>
        <time>2025-07-19T09:23:59Z</time>
      </trkpt>
      <trkpt lat="42.64943" lon="2.52934">
        <ele>240.6</ele>
        <time>2025-07-19T09:24:03Z</time>
      </trkpt>
      <trkpt lat="42.64943" lon="2.52934">
        <ele>240.6</ele>
        <time>2025-07-19T09:24:05Z</time>
      </trkpt>
      <trkpt lat="42.6494" lon="2.5293">
        <ele>240.6</ele>
        <time>2025-07-19T09:24:12Z</time>
      </trkpt>
      <trkpt lat="42.64937" lon="2.52928">
        <ele>240.4</ele>
        <time>2025-07-19T09:24:13Z</time>
      </trkpt>
      <trkpt lat="42.64926" lon="2.5291">
        <ele>240.6</ele>
        <time>2025-07-19T09:24:18Z</time>
      </trkpt>
      <trkpt lat="42.64915" lon="2.52875">
        <ele>240.6</ele>
        <time>2025-07-19T09:24:24Z</time>
      </trkpt>
      <trkpt lat="42.64898" lon="2.52834">
        <ele>240.8</ele>
        <time>2025-07-19T09:24:30Z</time>
      </trkpt>
      <trkpt lat="42.64877" lon="2.52782">
        <ele>241</ele>
        <time>2025-07-19T09:24:37Z</time>
      </trkpt>
      <trkpt lat="42.64873" lon="2.52775">
        <ele>241</ele>
        <time>2025-07-19T09:24:38Z</time>
      </trkpt>
      <trkpt lat="42.64844" lon="2.52711">
        <ele>240.2</ele>
        <time>2025-07-19T09:24:46Z</time>
      </trkpt>
      <trkpt lat="42.64841" lon="2.52703">
        <ele>239.8</ele>
        <time>2025-07-19T09:24:47Z</time>
      </trkpt>
      <trkpt lat="42.64816" lon="2.52651">
        <ele>238.8</ele>
        <time>2025-07-19T09:24:53Z</time>
      </trkpt>
      <trkpt lat="42.64808" lon="2.52633">
        <ele>238.4</ele>
        <time>2025-07-19T09:24:55Z</time>
      </trkpt>
      <trkpt lat="42.64787" lon="2.52591">
        <ele>237.8</ele>
        <time>2025-07-19T09:25:00Z</time>
      </trkpt>
      <trkpt lat="42.64763" lon="2.52542">
        <ele>236.8</ele>
        <time>2025-07-19T09:25:06Z</time>
      </trkpt>
      <trkpt lat="42.64759" lon="2.52533">
        <ele>236.6</ele>
        <time>2025-07-19T09:25:07Z</time>
      </trkpt>
      <trkpt lat="42.6473" lon="2.5247">
        <ele>236.6</ele>
        <time>2025-07-19T09:25:15Z</time>
      </trkpt>
      <trkpt lat="42.64723" lon="2.52455">
        <ele>236.8</ele>
        <time>2025-07-19T09:25:17Z</time>
      </trkpt>
      <trkpt lat="42.64696" lon="2.52391">
        <ele>236.8</ele>
        <time>2025-07-19T09:25:25Z</time>
      </trkpt>
      <trkpt lat="42.64672" lon="2.52325">
        <ele>236.6</ele>
        <time>2025-07-19T09:25:33Z</time>
      </trkpt>
      <trkpt lat="42.64667" lon="2.52307">
        <ele>236.6</ele>
        <time>2025-07-19T09:25:35Z</time>
      </trkpt>
      <trkpt lat="42.64654" lon="2.52246">
        <ele>236.6</ele>
        <time>2025-07-19T09:25:42Z</time>
      </trkpt>
      <trkpt lat="42.64651" lon="2.52197">
        <ele>236.8</ele>
        <time>2025-07-19T09:25:48Z</time>
      </trkpt>
      <trkpt lat="42.64652" lon="2.52156">
        <ele>237.6</ele>
        <time>2025-07-19T09:25:54Z</time>
      </trkpt>
      <trkpt lat="42.64653" lon="2.52144">
        <ele>238.2</ele>
        <time>2025-07-19T09:25:56Z</time>
      </trkpt>
      <trkpt lat="42.64655" lon="2.52122">
        <ele>239.2</ele>
        <time>2025-07-19T09:26:00Z</time>
      </trkpt>
      <trkpt lat="42.64656" lon="2.52117">
        <ele>239.6</ele>
        <time>2025-07-19T09:26:01Z</time>
      </trkpt>
      <trkpt lat="42.6466" lon="2.52098">
        <ele>240.2</ele>
        <time>2025-07-19T09:26:05Z</time>
      </trkpt>
      <trkpt lat="42.64662" lon="2.52084">
        <ele>241.2</ele>
        <time>2025-07-19T09:26:08Z</time>
      </trkpt>
      <trkpt lat="42.64663" lon="2.5208">
        <ele>241.4</ele>
        <time>2025-07-19T09:26:09Z</time>
      </trkpt>
      <trkpt lat="42.64668" lon="2.52055">
        <ele>242.4</ele>
        <time>2025-07-19T09:26:15Z</time>
      </trkpt>
      <trkpt lat="42.6467" lon="2.52051">
        <ele>242.6</ele>
        <time>2025-07-19T09:26:16Z</time>
      </trkpt>
      <trkpt lat="42.64674" lon="2.52033">
        <ele>243.6</ele>
        <time>2025-07-19T09:26:20Z</time>
      </trkpt>
      <trkpt lat="42.64678" lon="2.52016">
        <ele>244.4</ele>
        <time>2025-07-19T09:26:24Z</time>
      </trkpt>
      <trkpt lat="42.6468" lon="2.52011">
        <ele>244.6</ele>
        <time>2025-07-19T09:26:25Z</time>
      </trkpt>
      <trkpt lat="42.64684" lon="2.51991">
        <ele>245.8</ele>
        <time>2025-07-19T09:26:30Z</time>
      </trkpt>
      <trkpt lat="42.6469" lon="2.51971">
        <ele>247</ele>
        <time>2025-07-19T09:26:35Z</time>
      </trkpt>
      <trkpt lat="42.64691" lon="2.51967">
        <ele>247.2</ele>
        <time>2025-07-19T09:26:36Z</time>
      </trkpt>
      <trkpt lat="42.64693" lon="2.51954">
        <ele>247.8</ele>
        <time>2025-07-19T09:26:39Z</time>
      </trkpt>
      <trkpt lat="42.64695" lon="2.51946">
        <ele>248.2</ele>
        <time>2025-07-19T09:26:41Z</time>
      </trkpt>
      <trkpt lat="42.64699" lon="2.51929">
        <ele>249.2</ele>
        <time>2025-07-19T09:26:45Z</time>
      </trkpt>
      <trkpt lat="42.647" lon="2.51925">
        <ele>249.4</ele>
        <time>2025-07-19T09:26:46Z</time>
      </trkpt>
      <trkpt lat="42.64704" lon="2.51901">
        <ele>250.4</ele>
        <time>2025-07-19T09:26:52Z</time>
      </trkpt>
      <trkpt lat="42.64704" lon="2.51897">
        <ele>250.8</ele>
        <time>2025-07-19T09:26:53Z</time>
      </trkpt>
      <trkpt lat="42.64707" lon="2.51876">
        <ele>251.6</ele>
        <time>2025-07-19T09:26:58Z</time>
      </trkpt>
      <trkpt lat="42.64708" lon="2.51862">
        <ele>252.2</ele>
        <time>2025-07-19T09:27:01Z</time>
      </trkpt>
      <trkpt lat="42.6471" lon="2.51849">
        <ele>252.6</ele>
        <time>2025-07-19T09:27:04Z</time>
      </trkpt>
      <trkpt lat="42.64711" lon="2.51825">
        <ele>253.6</ele>
        <time>2025-07-19T09:27:09Z</time>
      </trkpt>
      <trkpt lat="42.64711" lon="2.51815">
        <ele>254</ele>
        <time>2025-07-19T09:27:11Z</time>
      </trkpt>
      <trkpt lat="42.64709" lon="2.51763">
        <ele>254.6</ele>
        <time>2025-07-19T09:27:21Z</time>
      </trkpt>
      <trkpt lat="42.64707" lon="2.51752">
        <ele>254.8</ele>
        <time>2025-07-19T09:27:23Z</time>
      </trkpt>
      <trkpt lat="42.64696" lon="2.5168">
        <ele>255.6</ele>
        <time>2025-07-19T09:27:36Z</time>
      </trkpt>
      <trkpt lat="42.64694" lon="2.51674">
        <ele>255.6</ele>
        <time>2025-07-19T09:27:37Z</time>
      </trkpt>
      <trkpt lat="42.64683" lon="2.51613">
        <ele>256</ele>
        <time>2025-07-19T09:27:46Z</time>
      </trkpt>
      <trkpt lat="42.64666" lon="2.51536">
        <ele>256</ele>
        <time>2025-07-19T09:27:56Z</time>
      </trkpt>
      <trkpt lat="42.6465" lon="2.51462">
        <ele>255</ele>
        <time>2025-07-19T09:28:05Z</time>
      </trkpt>
      <trkpt lat="42.64648" lon="2.51452">
        <ele>255</ele>
        <time>2025-07-19T09:28:06Z</time>
      </trkpt>
      <trkpt lat="42.64642" lon="2.51424">
        <ele>254.4</ele>
        <time>2025-07-19T09:28:09Z</time>
      </trkpt>
      <trkpt lat="42.64638" lon="2.51403">
        <ele>254.2</ele>
        <time>2025-07-19T09:28:11Z</time>
      </trkpt>
      <trkpt lat="42.64631" lon="2.51371">
        <ele>253.2</ele>
        <time>2025-07-19T09:28:14Z</time>
      </trkpt>
      <trkpt lat="42.6462" lon="2.51327">
        <ele>252</ele>
        <time>2025-07-19T09:28:18Z</time>
      </trkpt>
      <trkpt lat="42.64613" lon="2.51294">
        <ele>250.8</ele>
        <time>2025-07-19T09:28:21Z</time>
      </trkpt>
      <trkpt lat="42.64602" lon="2.51248">
        <ele>250</ele>
        <time>2025-07-19T09:28:25Z</time>
      </trkpt>
      <trkpt lat="42.64599" lon="2.51236">
        <ele>249.4</ele>
        <time>2025-07-19T09:28:26Z</time>
      </trkpt>
      <trkpt lat="42.64593" lon="2.51212">
        <ele>248.6</ele>
        <time>2025-07-19T09:28:28Z</time>
      </trkpt>
      <trkpt lat="42.64587" lon="2.51188">
        <ele>247.4</ele>
        <time>2025-07-19T09:28:30Z</time>
      </trkpt>
      <trkpt lat="42.64579" lon="2.51151">
        <ele>246.2</ele>
        <time>2025-07-19T09:28:33Z</time>
      </trkpt>
      <trkpt lat="42.64575" lon="2.51136">
        <ele>246.2</ele>
        <time>2025-07-19T09:28:34Z</time>
      </trkpt>
      <trkpt lat="42.64567" lon="2.51101">
        <ele>245</ele>
        <time>2025-07-19T09:28:37Z</time>
      </trkpt>
      <trkpt lat="42.64558" lon="2.51065">
        <ele>243.8</ele>
        <time>2025-07-19T09:28:40Z</time>
      </trkpt>
      <trkpt lat="42.64548" lon="2.51018">
        <ele>242.6</ele>
        <time>2025-07-19T09:28:44Z</time>
      </trkpt>
      <trkpt lat="42.64545" lon="2.51006">
        <ele>242.8</ele>
        <time>2025-07-19T09:28:45Z</time>
      </trkpt>
      <trkpt lat="42.64529" lon="2.50939">
        <ele>242</ele>
        <time>2025-07-19T09:28:51Z</time>
      </trkpt>
      <trkpt lat="42.64524" lon="2.50916">
        <ele>241.6</ele>
        <time>2025-07-19T09:28:53Z</time>
      </trkpt>
      <trkpt lat="42.64506" lon="2.5084">
        <ele>241</ele>
        <time>2025-07-19T09:29:00Z</time>
      </trkpt>
      <trkpt lat="42.64498" lon="2.50807">
        <ele>240.6</ele>
        <time>2025-07-19T09:29:03Z</time>
      </trkpt>
      <trkpt lat="42.64481" lon="2.50731">
        <ele>240.2</ele>
        <time>2025-07-19T09:29:11Z</time>
      </trkpt>
      <trkpt lat="42.64479" lon="2.50722">
        <ele>240.4</ele>
        <time>2025-07-19T09:29:12Z</time>
      </trkpt>
      <trkpt lat="42.64463" lon="2.50645">
        <ele>241.2</ele>
        <time>2025-07-19T09:29:21Z</time>
      </trkpt>
      <trkpt lat="42.64454" lon="2.50589">
        <ele>241.6</ele>
        <time>2025-07-19T09:29:28Z</time>
      </trkpt>
      <trkpt lat="42.64452" lon="2.50573">
        <ele>241.8</ele>
        <time>2025-07-19T09:29:30Z</time>
      </trkpt>
      <trkpt lat="42.64447" lon="2.50511">
        <ele>242.6</ele>
        <time>2025-07-19T09:29:38Z</time>
      </trkpt>
      <trkpt lat="42.64446" lon="2.50494">
        <ele>242.8</ele>
        <time>2025-07-19T09:29:40Z</time>
      </trkpt>
      <trkpt lat="42.64444" lon="2.50418">
        <ele>242.8</ele>
        <time>2025-07-19T09:29:49Z</time>
      </trkpt>
      <trkpt lat="42.64443" lon="2.50401">
        <ele>242.8</ele>
        <time>2025-07-19T09:29:51Z</time>
      </trkpt>
      <trkpt lat="42.6444" lon="2.50322">
        <ele>242.6</ele>
        <time>2025-07-19T09:30:00Z</time>
      </trkpt>
      <trkpt lat="42.64439" lon="2.50296">
        <ele>242.6</ele>
        <time>2025-07-19T09:30:03Z</time>
      </trkpt>
      <trkpt lat="42.64436" lon="2.50214">
        <ele>242.4</ele>
        <time>2025-07-19T09:30:12Z</time>
      </trkpt>
      <trkpt lat="42.64435" lon="2.50187">
        <ele>242.4</ele>
        <time>2025-07-19T09:30:15Z</time>
      </trkpt>
      <trkpt lat="42.64432" lon="2.50112">
        <ele>242.2</ele>
        <time>2025-07-19T09:30:23Z</time>
      </trkpt>
      <trkpt lat="42.64432" lon="2.50077">
        <ele>242</ele>
        <time>2025-07-19T09:30:27Z</time>
      </trkpt>
      <trkpt lat="42.64429" lon="2.49999">
        <ele>242.2</ele>
        <time>2025-07-19T09:30:36Z</time>
      </trkpt>
      <trkpt lat="42.64429" lon="2.49982">
        <ele>242.2</ele>
        <time>2025-07-19T09:30:38Z</time>
      </trkpt>
      <trkpt lat="42.64426" lon="2.49908">
        <ele>242.8</ele>
        <time>2025-07-19T09:30:47Z</time>
      </trkpt>
      <trkpt lat="42.64423" lon="2.49839">
        <ele>243.6</ele>
        <time>2025-07-19T09:30:56Z</time>
      </trkpt>
      <trkpt lat="42.64422" lon="2.49824">
        <ele>243.8</ele>
        <time>2025-07-19T09:30:58Z</time>
      </trkpt>
      <trkpt lat="42.64419" lon="2.49747">
        <ele>244.4</ele>
        <time>2025-07-19T09:31:08Z</time>
      </trkpt>
      <trkpt lat="42.64419" lon="2.49739">
        <ele>244.6</ele>
        <time>2025-07-19T09:31:09Z</time>
      </trkpt>
      <trkpt lat="42.64418" lon="2.49707">
        <ele>244.6</ele>
        <time>2025-07-19T09:31:13Z</time>
      </trkpt>
      <trkpt lat="42.64417" lon="2.49665">
        <ele>244.8</ele>
        <time>2025-07-19T09:31:18Z</time>
      </trkpt>
      <trkpt lat="42.64415" lon="2.49592">
        <ele>245.2</ele>
        <time>2025-07-19T09:31:27Z</time>
      </trkpt>
      <trkpt lat="42.64414" lon="2.49568">
        <ele>245.4</ele>
        <time>2025-07-19T09:31:31Z</time>
      </trkpt>
      <trkpt lat="42.64411" lon="2.4949">
        <ele>245.6</ele>
        <time>2025-07-19T09:31:40Z</time>
      </trkpt>
      <trkpt lat="42.6441" lon="2.49466">
        <ele>245.6</ele>
        <time>2025-07-19T09:31:43Z</time>
      </trkpt>
      <trkpt lat="42.64409" lon="2.49426">
        <ele>245.8</ele>
        <time>2025-07-19T09:31:49Z</time>
      </trkpt>
      <trkpt lat="42.64407" lon="2.49371">
        <ele>246</ele>
        <time>2025-07-19T09:31:55Z</time>
      </trkpt>
      <trkpt lat="42.64405" lon="2.4931">
        <ele>246.8</ele>
        <time>2025-07-19T09:32:03Z</time>
      </trkpt>
      <trkpt lat="42.64404" lon="2.49295">
        <ele>246.8</ele>
        <time>2025-07-19T09:32:05Z</time>
      </trkpt>
      <trkpt lat="42.64401" lon="2.49217">
        <ele>247.2</ele>
        <time>2025-07-19T09:32:15Z</time>
      </trkpt>
      <trkpt lat="42.644" lon="2.49194">
        <ele>247.2</ele>
        <time>2025-07-19T09:32:18Z</time>
      </trkpt>
      <trkpt lat="42.64398" lon="2.4914">
        <ele>247.6</ele>
        <time>2025-07-19T09:32:25Z</time>
      </trkpt>
      <trkpt lat="42.64396" lon="2.49125">
        <ele>247.8</ele>
        <time>2025-07-19T09:32:27Z</time>
      </trkpt>
      <trkpt lat="42.64391" lon="2.4909">
        <ele>248.6</ele>
        <time>2025-07-19T09:32:33Z</time>
      </trkpt>
      <trkpt lat="42.64386" lon="2.4907">
        <ele>248.8</ele>
        <time>2025-07-19T09:32:35Z</time>
      </trkpt>
      <trkpt lat="42.64369" lon="2.49005">
        <ele>249</ele>
        <time>2025-07-19T09:32:44Z</time>
      </trkpt>
      <trkpt lat="42.64354" lon="2.48947">
        <ele>249.2</ele>
        <time>2025-07-19T09:32:52Z</time>
      </trkpt>
      <trkpt lat="42.64333" lon="2.48872">
        <ele>249</ele>
        <time>2025-07-19T09:33:02Z</time>
      </trkpt>
      <trkpt lat="42.64313" lon="2.48798">
        <ele>249.4</ele>
        <time>2025-07-19T09:33:12Z</time>
      </trkpt>
      <trkpt lat="42.64309" lon="2.48784">
        <ele>249.6</ele>
        <time>2025-07-19T09:33:14Z</time>
      </trkpt>
      <trkpt lat="42.64302" lon="2.48757">
        <ele>249.6</ele>
        <time>2025-07-19T09:33:18Z</time>
      </trkpt>
      <trkpt lat="42.643" lon="2.4875">
        <ele>249.8</ele>
        <time>2025-07-19T09:33:19Z</time>
      </trkpt>
      <trkpt lat="42.64295" lon="2.48732">
        <ele>250.6</ele>
        <time>2025-07-19T09:33:22Z</time>
      </trkpt>
      <trkpt lat="42.64293" lon="2.48726">
        <ele>250.8</ele>
        <time>2025-07-19T09:33:23Z</time>
      </trkpt>
      <trkpt lat="42.64285" lon="2.48694">
        <ele>251.4</ele>
        <time>2025-07-19T09:33:28Z</time>
      </trkpt>
      <trkpt lat="42.6428" lon="2.48674">
        <ele>251.6</ele>
        <time>2025-07-19T09:33:31Z</time>
      </trkpt>
      <trkpt lat="42.6427" lon="2.48634">
        <ele>252.6</ele>
        <time>2025-07-19T09:33:37Z</time>
      </trkpt>
      <trkpt lat="42.64269" lon="2.48627">
        <ele>252.6</ele>
        <time>2025-07-19T09:33:38Z</time>
      </trkpt>
      <trkpt lat="42.64263" lon="2.48607">
        <ele>253.2</ele>
        <time>2025-07-19T09:33:41Z</time>
      </trkpt>
      <trkpt lat="42.64262" lon="2.48594">
        <ele>253.2</ele>
        <time>2025-07-19T09:33:44Z</time>
      </trkpt>
      <trkpt lat="42.64264" lon="2.48589">
        <ele>253.2</ele>
        <time>2025-07-19T09:33:48Z</time>
      </trkpt>
      <trkpt lat="42.64264" lon="2.48589">
        <ele>253.2</ele>
        <time>2025-07-19T09:33:50Z</time>
      </trkpt>
      <trkpt lat="42.64265" lon="2.4858">
        <ele>258.2</ele>
        <time>2025-07-19T11:02:42Z</time>
      </trkpt>
      <trkpt lat="42.64264" lon="2.48577">
        <ele>258</ele>
        <time>2025-07-19T11:02:43Z</time>
      </trkpt>
      <trkpt lat="42.64257" lon="2.48553">
        <ele>258</ele>
        <time>2025-07-19T11:02:50Z</time>
      </trkpt>
      <trkpt lat="42.64252" lon="2.48525">
        <ele>258</ele>
        <time>2025-07-19T11:02:57Z</time>
      </trkpt>
      <trkpt lat="42.64249" lon="2.48502">
        <ele>258</ele>
        <time>2025-07-19T11:03:03Z</time>
      </trkpt>
      <trkpt lat="42.64246" lon="2.48482">
        <ele>258.2</ele>
        <time>2025-07-19T11:03:09Z</time>
      </trkpt>
      <trkpt lat="42.64247" lon="2.4848">
        <ele>258.2</ele>
        <time>2025-07-19T11:03:10Z</time>
      </trkpt>
      <trkpt lat="42.64255" lon="2.48475">
        <ele>258.4</ele>
        <time>2025-07-19T11:03:13Z</time>
      </trkpt>
      <trkpt lat="42.64275" lon="2.48467">
        <ele>258.6</ele>
        <time>2025-07-19T11:03:19Z</time>
      </trkpt>
      <trkpt lat="42.64298" lon="2.48457">
        <ele>258.6</ele>
        <time>2025-07-19T11:03:24Z</time>
      </trkpt>
      <trkpt lat="42.64325" lon="2.48446">
        <ele>258</ele>
        <time>2025-07-19T11:03:29Z</time>
      </trkpt>
      <trkpt lat="42.64357" lon="2.48434">
        <ele>257</ele>
        <time>2025-07-19T11:03:34Z</time>
      </trkpt>
      <trkpt lat="42.64376" lon="2.48425">
        <ele>256.4</ele>
        <time>2025-07-19T11:03:37Z</time>
      </trkpt>
      <trkpt lat="42.64388" lon="2.4842">
        <ele>255.6</ele>
        <time>2025-07-19T11:03:39Z</time>
      </trkpt>
      <trkpt lat="42.64413" lon="2.4841">
        <ele>254.2</ele>
        <time>2025-07-19T11:03:43Z</time>
      </trkpt>
      <trkpt lat="42.64419" lon="2.48407">
        <ele>254.2</ele>
        <time>2025-07-19T11:03:44Z</time>
      </trkpt>
      <trkpt lat="42.64449" lon="2.48397">
        <ele>253.6</ele>
        <time>2025-07-19T11:03:50Z</time>
      </trkpt>
      <trkpt lat="42.64452" lon="2.48395">
        <ele>253.6</ele>
        <time>2025-07-19T11:03:51Z</time>
      </trkpt>
      <trkpt lat="42.64455" lon="2.48386">
        <ele>253.6</ele>
        <time>2025-07-19T11:03:53Z</time>
      </trkpt>
      <trkpt lat="42.64455" lon="2.4838">
        <ele>253.6</ele>
        <time>2025-07-19T11:03:54Z</time>
      </trkpt>
      <trkpt lat="42.6445" lon="2.48363">
        <ele>253.6</ele>
        <time>2025-07-19T11:03:57Z</time>
      </trkpt>
      <trkpt lat="42.64447" lon="2.48348">
        <ele>253.6</ele>
        <time>2025-07-19T11:04:00Z</time>
      </trkpt>
      <trkpt lat="42.64443" lon="2.48329">
        <ele>254</ele>
        <time>2025-07-19T11:04:04Z</time>
      </trkpt>
      <trkpt lat="42.64443" lon="2.48308">
        <ele>254.8</ele>
        <time>2025-07-19T11:04:09Z</time>
      </trkpt>
      <trkpt lat="42.64446" lon="2.48293">
        <ele>255.6</ele>
        <time>2025-07-19T11:04:13Z</time>
      </trkpt>
      <trkpt lat="42.64448" lon="2.48285">
        <ele>256</ele>
        <time>2025-07-19T11:04:15Z</time>
      </trkpt>
      <trkpt lat="42.6445" lon="2.48278">
        <ele>256.6</ele>
        <time>2025-07-19T11:04:17Z</time>
      </trkpt>
      <trkpt lat="42.64452" lon="2.48253">
        <ele>257.6</ele>
        <time>2025-07-19T11:04:23Z</time>
      </trkpt>
      <trkpt lat="42.6445" lon="2.48229">
        <ele>258.6</ele>
        <time>2025-07-19T11:04:29Z</time>
      </trkpt>
      <trkpt lat="42.64449" lon="2.48225">
        <ele>258.6</ele>
        <time>2025-07-19T11:04:30Z</time>
      </trkpt>
      <trkpt lat="42.64442" lon="2.482">
        <ele>259.2</ele>
        <time>2025-07-19T11:04:36Z</time>
      </trkpt>
      <trkpt lat="42.64431" lon="2.48171">
        <ele>259.4</ele>
        <time>2025-07-19T11:04:43Z</time>
      </trkpt>
      <trkpt lat="42.6442" lon="2.48148">
        <ele>259.4</ele>
        <time>2025-07-19T11:04:48Z</time>
      </trkpt>
      <trkpt lat="42.64416" lon="2.48139">
        <ele>259.4</ele>
        <time>2025-07-19T11:04:50Z</time>
      </trkpt>
      <trkpt lat="42.64393" lon="2.48093">
        <ele>260</ele>
        <time>2025-07-19T11:05:00Z</time>
      </trkpt>
      <trkpt lat="42.6438" lon="2.4808">
        <ele>260.6</ele>
        <time>2025-07-19T11:05:04Z</time>
      </trkpt>
      <trkpt lat="42.64377" lon="2.48077">
        <ele>260.4</ele>
        <time>2025-07-19T11:05:05Z</time>
      </trkpt>
      <trkpt lat="42.64356" lon="2.4805">
        <ele>261.2</ele>
        <time>2025-07-19T11:05:12Z</time>
      </trkpt>
      <trkpt lat="42.64341" lon="2.48036">
        <ele>261.2</ele>
        <time>2025-07-19T11:05:16Z</time>
      </trkpt>
      <trkpt lat="42.64338" lon="2.48031">
        <ele>261.2</ele>
        <time>2025-07-19T11:05:17Z</time>
      </trkpt>
      <trkpt lat="42.64333" lon="2.48019">
        <ele>261.2</ele>
        <time>2025-07-19T11:05:19Z</time>
      </trkpt>
      <trkpt lat="42.64325" lon="2.47995">
        <ele>261.2</ele>
        <time>2025-07-19T11:05:23Z</time>
      </trkpt>
      <trkpt lat="42.64313" lon="2.47949">
        <ele>261.6</ele>
        <time>2025-07-19T11:05:30Z</time>
      </trkpt>
      <trkpt lat="42.643" lon="2.47883">
        <ele>262.2</ele>
        <time>2025-07-19T11:05:40Z</time>
      </trkpt>
      <trkpt lat="42.64299" lon="2.47876">
        <ele>262.2</ele>
        <time>2025-07-19T11:05:41Z</time>
      </trkpt>
      <trkpt lat="42.6429" lon="2.4783">
        <ele>262.8</ele>
        <time>2025-07-19T11:05:48Z</time>
      </trkpt>
      <trkpt lat="42.64284" lon="2.478">
        <ele>263.2</ele>
        <time>2025-07-19T11:05:53Z</time>
      </trkpt>
      <trkpt lat="42.6428" lon="2.47781">
        <ele>263.6</ele>
        <time>2025-07-19T11:05:56Z</time>
      </trkpt>
      <trkpt lat="42.64274" lon="2.47737">
        <ele>264.2</ele>
        <time>2025-07-19T11:06:03Z</time>
      </trkpt>
      <trkpt lat="42.64271" lon="2.47725">
        <ele>264.2</ele>
        <time>2025-07-19T11:06:05Z</time>
      </trkpt>
      <trkpt lat="42.64261" lon="2.47682">
        <ele>265</ele>
        <time>2025-07-19T11:06:12Z</time>
      </trkpt>
      <trkpt lat="42.64258" lon="2.4767">
        <ele>265.2</ele>
        <time>2025-07-19T11:06:14Z</time>
      </trkpt>
      <trkpt lat="42.64252" lon="2.47653">
        <ele>265.4</ele>
        <time>2025-07-19T11:06:17Z</time>
      </trkpt>
      <trkpt lat="42.64247" lon="2.47642">
        <ele>265.8</ele>
        <time>2025-07-19T11:06:19Z</time>
      </trkpt>
      <trkpt lat="42.6423" lon="2.47595">
        <ele>266.4</ele>
        <time>2025-07-19T11:06:27Z</time>
      </trkpt>
      <trkpt lat="42.64229" lon="2.4759">
        <ele>266.4</ele>
        <time>2025-07-19T11:06:28Z</time>
      </trkpt>
      <trkpt lat="42.64217" lon="2.47539">
        <ele>266.8</ele>
        <time>2025-07-19T11:06:36Z</time>
      </trkpt>
      <trkpt lat="42.64209" lon="2.47506">
        <ele>267</ele>
        <time>2025-07-19T11:06:41Z</time>
      </trkpt>
      <trkpt lat="42.64204" lon="2.47494">
        <ele>267.2</ele>
        <time>2025-07-19T11:06:43Z</time>
      </trkpt>
      <trkpt lat="42.64201" lon="2.47489">
        <ele>267.4</ele>
        <time>2025-07-19T11:06:44Z</time>
      </trkpt>
      <trkpt lat="42.64197" lon="2.47477">
        <ele>267.4</ele>
        <time>2025-07-19T11:06:46Z</time>
      </trkpt>
      <trkpt lat="42.6419" lon="2.47457">
        <ele>267.4</ele>
        <time>2025-07-19T11:06:49Z</time>
      </trkpt>
      <trkpt lat="42.64177" lon="2.47394">
        <ele>267.4</ele>
        <time>2025-07-19T11:06:58Z</time>
      </trkpt>
      <trkpt lat="42.64167" lon="2.47343">
        <ele>267.8</ele>
        <time>2025-07-19T11:07:05Z</time>
      </trkpt>
      <trkpt lat="42.64164" lon="2.47321">
        <ele>267.8</ele>
        <time>2025-07-19T11:07:08Z</time>
      </trkpt>
      <trkpt lat="42.64159" lon="2.47284">
        <ele>268.2</ele>
        <time>2025-07-19T11:07:13Z</time>
      </trkpt>
      <trkpt lat="42.64154" lon="2.47234">
        <ele>268.4</ele>
        <time>2025-07-19T11:07:20Z</time>
      </trkpt>
      <trkpt lat="42.64153" lon="2.47219">
        <ele>268.4</ele>
        <time>2025-07-19T11:07:22Z</time>
      </trkpt>
      <trkpt lat="42.64152" lon="2.47144">
        <ele>268.6</ele>
        <time>2025-07-19T11:07:32Z</time>
      </trkpt>
      <trkpt lat="42.64146" lon="2.4708">
        <ele>269.2</ele>
        <time>2025-07-19T11:07:41Z</time>
      </trkpt>
      <trkpt lat="42.64146" lon="2.47074">
        <ele>269.4</ele>
        <time>2025-07-19T11:07:42Z</time>
      </trkpt>
      <trkpt lat="42.64142" lon="2.47036">
        <ele>270</ele>
        <time>2025-07-19T11:07:48Z</time>
      </trkpt>
      <trkpt lat="42.64142" lon="2.4703">
        <ele>270.2</ele>
        <time>2025-07-19T11:07:49Z</time>
      </trkpt>
      <trkpt lat="42.64144" lon="2.47018">
        <ele>270.4</ele>
        <time>2025-07-19T11:07:51Z</time>
      </trkpt>
      <trkpt lat="42.64146" lon="2.47013">
        <ele>270.4</ele>
        <time>2025-07-19T11:07:52Z</time>
      </trkpt>
      <trkpt lat="42.64148" lon="2.47008">
        <ele>270.6</ele>
        <time>2025-07-19T11:07:53Z</time>
      </trkpt>
      <trkpt lat="42.64159" lon="2.4699">
        <ele>271</ele>
        <time>2025-07-19T11:07:57Z</time>
      </trkpt>
      <trkpt lat="42.64169" lon="2.46977">
        <ele>271.4</ele>
        <time>2025-07-19T11:08:00Z</time>
      </trkpt>
      <trkpt lat="42.64174" lon="2.46962">
        <ele>272</ele>
        <time>2025-07-19T11:08:03Z</time>
      </trkpt>
      <trkpt lat="42.64176" lon="2.46957">
        <ele>272</ele>
        <time>2025-07-19T11:08:04Z</time>
      </trkpt>
      <trkpt lat="42.64178" lon="2.46945">
        <ele>272.6</ele>
        <time>2025-07-19T11:08:06Z</time>
      </trkpt>
      <trkpt lat="42.6418" lon="2.46928">
        <ele>273</ele>
        <time>2025-07-19T11:08:09Z</time>
      </trkpt>
      <trkpt lat="42.64183" lon="2.46903">
        <ele>273.6</ele>
        <time>2025-07-19T11:08:13Z</time>
      </trkpt>
      <trkpt lat="42.64184" lon="2.46876">
        <ele>274</ele>
        <time>2025-07-19T11:08:17Z</time>
      </trkpt>
      <trkpt lat="42.6418" lon="2.46824">
        <ele>274.8</ele>
        <time>2025-07-19T11:08:25Z</time>
      </trkpt>
      <trkpt lat="42.6418" lon="2.46818">
        <ele>274.8</ele>
        <time>2025-07-19T11:08:26Z</time>
      </trkpt>
      <trkpt lat="42.64177" lon="2.4679">
        <ele>275</ele>
        <time>2025-07-19T11:08:30Z</time>
      </trkpt>
      <trkpt lat="42.64176" lon="2.4673">
        <ele>275.6</ele>
        <time>2025-07-19T11:08:39Z</time>
      </trkpt>
      <trkpt lat="42.64176" lon="2.46717">
        <ele>275.8</ele>
        <time>2025-07-19T11:08:41Z</time>
      </trkpt>
      <trkpt lat="42.64176" lon="2.46669">
        <ele>276.2</ele>
        <time>2025-07-19T11:08:48Z</time>
      </trkpt>
      <trkpt lat="42.64176" lon="2.46628">
        <ele>276.8</ele>
        <time>2025-07-19T11:08:54Z</time>
      </trkpt>
      <trkpt lat="42.64177" lon="2.46614">
        <ele>277</ele>
        <time>2025-07-19T11:08:56Z</time>
      </trkpt>
      <trkpt lat="42.6418" lon="2.46539">
        <ele>277.2</ele>
        <time>2025-07-19T11:09:06Z</time>
      </trkpt>
      <trkpt lat="42.6418" lon="2.46508">
        <ele>277.2</ele>
        <time>2025-07-19T11:09:10Z</time>
      </trkpt>
      <trkpt lat="42.64176" lon="2.46485">
        <ele>277.2</ele>
        <time>2025-07-19T11:09:13Z</time>
      </trkpt>
      <trkpt lat="42.64174" lon="2.46476">
        <ele>277.2</ele>
        <time>2025-07-19T11:09:14Z</time>
      </trkpt>
      <trkpt lat="42.64173" lon="2.46446">
        <ele>277.4</ele>
        <time>2025-07-19T11:09:18Z</time>
      </trkpt>
      <trkpt lat="42.64171" lon="2.46391">
        <ele>277.8</ele>
        <time>2025-07-19T11:09:25Z</time>
      </trkpt>
      <trkpt lat="42.6417" lon="2.46376">
        <ele>278.2</ele>
        <time>2025-07-19T11:09:27Z</time>
      </trkpt>
      <trkpt lat="42.64167" lon="2.46298">
        <ele>278.6</ele>
        <time>2025-07-19T11:09:37Z</time>
      </trkpt>
      <trkpt lat="42.64167" lon="2.46285">
        <ele>279</ele>
        <time>2025-07-19T11:09:39Z</time>
      </trkpt>
      <trkpt lat="42.64164" lon="2.46242">
        <ele>279.8</ele>
        <time>2025-07-19T11:09:45Z</time>
      </trkpt>
      <trkpt lat="42.64163" lon="2.46229">
        <ele>280</ele>
        <time>2025-07-19T11:09:47Z</time>
      </trkpt>
      <trkpt lat="42.6416" lon="2.46173">
        <ele>281</ele>
        <time>2025-07-19T11:09:55Z</time>
      </trkpt>
      <trkpt lat="42.64157" lon="2.46152">
        <ele>281.2</ele>
        <time>2025-07-19T11:09:58Z</time>
      </trkpt>
      <trkpt lat="42.6415" lon="2.46118">
        <ele>281.4</ele>
        <time>2025-07-19T11:10:03Z</time>
      </trkpt>
      <trkpt lat="42.64141" lon="2.46082">
        <ele>282.4</ele>
        <time>2025-07-19T11:10:09Z</time>
      </trkpt>
      <trkpt lat="42.64139" lon="2.46071">
        <ele>282.6</ele>
        <time>2025-07-19T11:10:11Z</time>
      </trkpt>
      <trkpt lat="42.64138" lon="2.46065">
        <ele>282.8</ele>
        <time>2025-07-19T11:10:12Z</time>
      </trkpt>
      <trkpt lat="42.64138" lon="2.46059">
        <ele>283</ele>
        <time>2025-07-19T11:10:13Z</time>
      </trkpt>
      <trkpt lat="42.64138" lon="2.46047">
        <ele>283.2</ele>
        <time>2025-07-19T11:10:15Z</time>
      </trkpt>
      <trkpt lat="42.6414" lon="2.46037">
        <ele>283.4</ele>
        <time>2025-07-19T11:10:17Z</time>
      </trkpt>
      <trkpt lat="42.64145" lon="2.46028">
        <ele>283.6</ele>
        <time>2025-07-19T11:10:19Z</time>
      </trkpt>
      <trkpt lat="42.64153" lon="2.46016">
        <ele>284</ele>
        <time>2025-07-19T11:10:22Z</time>
      </trkpt>
      <trkpt lat="42.64154" lon="2.46012">
        <ele>284.4</ele>
        <time>2025-07-19T11:10:23Z</time>
      </trkpt>
      <trkpt lat="42.64159" lon="2.45984">
        <ele>285.6</ele>
        <time>2025-07-19T11:10:28Z</time>
      </trkpt>
      <trkpt lat="42.64159" lon="2.45977">
        <ele>285.6</ele>
        <time>2025-07-19T11:10:29Z</time>
      </trkpt>
      <trkpt lat="42.64159" lon="2.45959">
        <ele>286</ele>
        <time>2025-07-19T11:10:32Z</time>
      </trkpt>
      <trkpt lat="42.6416" lon="2.45948">
        <ele>286.2</ele>
        <time>2025-07-19T11:10:34Z</time>
      </trkpt>
      <trkpt lat="42.6416" lon="2.45927">
        <ele>286.6</ele>
        <time>2025-07-19T11:10:38Z</time>
      </trkpt>
      <trkpt lat="42.64161" lon="2.45913">
        <ele>287</ele>
        <time>2025-07-19T11:10:41Z</time>
      </trkpt>
      <trkpt lat="42.64165" lon="2.45893">
        <ele>287.6</ele>
        <time>2025-07-19T11:10:46Z</time>
      </trkpt>
      <trkpt lat="42.64167" lon="2.45889">
        <ele>288</ele>
        <time>2025-07-19T11:10:47Z</time>
      </trkpt>
      <trkpt lat="42.6417" lon="2.45882">
        <ele>288.6</ele>
        <time>2025-07-19T11:10:49Z</time>
      </trkpt>
      <trkpt lat="42.6418" lon="2.4587">
        <ele>289.2</ele>
        <time>2025-07-19T11:10:53Z</time>
      </trkpt>
      <trkpt lat="42.64188" lon="2.45857">
        <ele>289.6</ele>
        <time>2025-07-19T11:10:57Z</time>
      </trkpt>
      <trkpt lat="42.64193" lon="2.45847">
        <ele>290.2</ele>
        <time>2025-07-19T11:11:00Z</time>
      </trkpt>
      <trkpt lat="42.64201" lon="2.45823">
        <ele>290.8</ele>
        <time>2025-07-19T11:11:06Z</time>
      </trkpt>
      <trkpt lat="42.64203" lon="2.45815">
        <ele>291.2</ele>
        <time>2025-07-19T11:11:08Z</time>
      </trkpt>
      <trkpt lat="42.64204" lon="2.45793">
        <ele>291.8</ele>
        <time>2025-07-19T11:11:13Z</time>
      </trkpt>
      <trkpt lat="42.64202" lon="2.45784">
        <ele>292.4</ele>
        <time>2025-07-19T11:11:15Z</time>
      </trkpt>
      <trkpt lat="42.64196" lon="2.45767">
        <ele>292.8</ele>
        <time>2025-07-19T11:11:19Z</time>
      </trkpt>
      <trkpt lat="42.64192" lon="2.45757">
        <ele>293</ele>
        <time>2025-07-19T11:11:22Z</time>
      </trkpt>
      <trkpt lat="42.64182" lon="2.45733">
        <ele>294</ele>
        <time>2025-07-19T11:11:28Z</time>
      </trkpt>
      <trkpt lat="42.64179" lon="2.45726">
        <ele>294.2</ele>
        <time>2025-07-19T11:11:30Z</time>
      </trkpt>
      <trkpt lat="42.64175" lon="2.45711">
        <ele>295.2</ele>
        <time>2025-07-19T11:11:34Z</time>
      </trkpt>
      <trkpt lat="42.64172" lon="2.45704">
        <ele>295.6</ele>
        <time>2025-07-19T11:11:36Z</time>
      </trkpt>
      <trkpt lat="42.6417" lon="2.45697">
        <ele>296.2</ele>
        <time>2025-07-19T11:11:38Z</time>
      </trkpt>
      <trkpt lat="42.64165" lon="2.45677">
        <ele>297</ele>
        <time>2025-07-19T11:11:43Z</time>
      </trkpt>
      <trkpt lat="42.64164" lon="2.45674">
        <ele>297.2</ele>
        <time>2025-07-19T11:11:44Z</time>
      </trkpt>
      <trkpt lat="42.64161" lon="2.45663">
        <ele>297.6</ele>
        <time>2025-07-19T11:11:47Z</time>
      </trkpt>
      <trkpt lat="42.64154" lon="2.45646">
        <ele>298.4</ele>
        <time>2025-07-19T11:11:51Z</time>
      </trkpt>
      <trkpt lat="42.64151" lon="2.45638">
        <ele>298.6</ele>
        <time>2025-07-19T11:11:53Z</time>
      </trkpt>
      <trkpt lat="42.64137" lon="2.45604">
        <ele>299.4</ele>
        <time>2025-07-19T11:12:01Z</time>
      </trkpt>
      <trkpt lat="42.64129" lon="2.45575">
        <ele>299.8</ele>
        <time>2025-07-19T11:12:07Z</time>
      </trkpt>
      <trkpt lat="42.64116" lon="2.4553">
        <ele>300</ele>
        <time>2025-07-19T11:12:15Z</time>
      </trkpt>
      <trkpt lat="42.64109" lon="2.45506">
        <ele>300.4</ele>
        <time>2025-07-19T11:12:19Z</time>
      </trkpt>
      <trkpt lat="42.64105" lon="2.45496">
        <ele>300.4</ele>
        <time>2025-07-19T11:12:21Z</time>
      </trkpt>
      <trkpt lat="42.64103" lon="2.45492">
        <ele>300.4</ele>
        <time>2025-07-19T11:12:22Z</time>
      </trkpt>
      <trkpt lat="42.64098" lon="2.45482">
        <ele>300.6</ele>
        <time>2025-07-19T11:12:24Z</time>
      </trkpt>
      <trkpt lat="42.64093" lon="2.45469">
        <ele>300.6</ele>
        <time>2025-07-19T11:12:27Z</time>
      </trkpt>
      <trkpt lat="42.64089" lon="2.4546">
        <ele>300.6</ele>
        <time>2025-07-19T11:12:29Z</time>
      </trkpt>
      <trkpt lat="42.6408" lon="2.45445">
        <ele>300.4</ele>
        <time>2025-07-19T11:12:32Z</time>
      </trkpt>
      <trkpt lat="42.64058" lon="2.45409">
        <ele>300</ele>
        <time>2025-07-19T11:12:38Z</time>
      </trkpt>
      <trkpt lat="42.64047" lon="2.45388">
        <ele>299.8</ele>
        <time>2025-07-19T11:12:41Z</time>
      </trkpt>
      <trkpt lat="42.64041" lon="2.45372">
        <ele>299.4</ele>
        <time>2025-07-19T11:12:43Z</time>
      </trkpt>
      <trkpt lat="42.64037" lon="2.45364">
        <ele>299.4</ele>
        <time>2025-07-19T11:12:44Z</time>
      </trkpt>
      <trkpt lat="42.64029" lon="2.45348">
        <ele>299</ele>
        <time>2025-07-19T11:12:46Z</time>
      </trkpt>
      <trkpt lat="42.64024" lon="2.45329">
        <ele>298.6</ele>
        <time>2025-07-19T11:12:48Z</time>
      </trkpt>
      <trkpt lat="42.64024" lon="2.45318">
        <ele>298</ele>
        <time>2025-07-19T11:12:49Z</time>
      </trkpt>
      <trkpt lat="42.64024" lon="2.45308">
        <ele>297.8</ele>
        <time>2025-07-19T11:12:50Z</time>
      </trkpt>
      <trkpt lat="42.64026" lon="2.45297">
        <ele>297.2</ele>
        <time>2025-07-19T11:12:51Z</time>
      </trkpt>
      <trkpt lat="42.64029" lon="2.45288">
        <ele>297</ele>
        <time>2025-07-19T11:12:52Z</time>
      </trkpt>
      <trkpt lat="42.64039" lon="2.4527">
        <ele>295.8</ele>
        <time>2025-07-19T11:12:54Z</time>
      </trkpt>
      <trkpt lat="42.64044" lon="2.45261">
        <ele>295.6</ele>
        <time>2025-07-19T11:12:55Z</time>
      </trkpt>
      <trkpt lat="42.64048" lon="2.45241">
        <ele>294.8</ele>
        <time>2025-07-19T11:12:57Z</time>
      </trkpt>
      <trkpt lat="42.64045" lon="2.45219">
        <ele>293.8</ele>
        <time>2025-07-19T11:12:59Z</time>
      </trkpt>
      <trkpt lat="42.64042" lon="2.45209">
        <ele>293</ele>
        <time>2025-07-19T11:13:00Z</time>
      </trkpt>
      <trkpt lat="42.64037" lon="2.452">
        <ele>292.6</ele>
        <time>2025-07-19T11:13:01Z</time>
      </trkpt>
      <trkpt lat="42.64025" lon="2.45184">
        <ele>292.2</ele>
        <time>2025-07-19T11:13:03Z</time>
      </trkpt>
      <trkpt lat="42.64001" lon="2.45155">
        <ele>291.4</ele>
        <time>2025-07-19T11:13:07Z</time>
      </trkpt>
      <trkpt lat="42.6397" lon="2.45117">
        <ele>290.2</ele>
        <time>2025-07-19T11:13:12Z</time>
      </trkpt>
      <trkpt lat="42.63946" lon="2.45083">
        <ele>289.2</ele>
        <time>2025-07-19T11:13:16Z</time>
      </trkpt>
      <trkpt lat="42.63935" lon="2.45066">
        <ele>288.6</ele>
        <time>2025-07-19T11:13:18Z</time>
      </trkpt>
      <trkpt lat="42.63917" lon="2.45041">
        <ele>287.6</ele>
        <time>2025-07-19T11:13:21Z</time>
      </trkpt>
      <trkpt lat="42.63889" lon="2.45001">
        <ele>286.4</ele>
        <time>2025-07-19T11:13:26Z</time>
      </trkpt>
      <trkpt lat="42.63884" lon="2.44993">
        <ele>286.4</ele>
        <time>2025-07-19T11:13:27Z</time>
      </trkpt>
      <trkpt lat="42.63879" lon="2.44985">
        <ele>286</ele>
        <time>2025-07-19T11:13:28Z</time>
      </trkpt>
      <trkpt lat="42.63866" lon="2.44954">
        <ele>285.6</ele>
        <time>2025-07-19T11:13:32Z</time>
      </trkpt>
      <trkpt lat="42.63855" lon="2.44912">
        <ele>285.6</ele>
        <time>2025-07-19T11:13:37Z</time>
      </trkpt>
      <trkpt lat="42.6385" lon="2.44889">
        <ele>285.8</ele>
        <time>2025-07-19T11:13:40Z</time>
      </trkpt>
      <trkpt lat="42.63844" lon="2.44881">
        <ele>285.6</ele>
        <time>2025-07-19T11:13:42Z</time>
      </trkpt>
      <trkpt lat="42.6383" lon="2.44879">
        <ele>285.6</ele>
        <time>2025-07-19T11:13:45Z</time>
      </trkpt>
      <trkpt lat="42.63825" lon="2.44878">
        <ele>285.6</ele>
        <time>2025-07-19T11:13:46Z</time>
      </trkpt>
      <trkpt lat="42.63784" lon="2.44872">
        <ele>285.6</ele>
        <time>2025-07-19T11:13:54Z</time>
      </trkpt>
      <trkpt lat="42.63736" lon="2.44865">
        <ele>285.6</ele>
        <time>2025-07-19T11:14:02Z</time>
      </trkpt>
      <trkpt lat="42.63683" lon="2.44858">
        <ele>285.6</ele>
        <time>2025-07-19T11:14:10Z</time>
      </trkpt>
      <trkpt lat="42.63657" lon="2.44854">
        <ele>284.6</ele>
        <time>2025-07-19T11:14:14Z</time>
      </trkpt>
      <trkpt lat="42.6364" lon="2.4485">
        <ele>284.2</ele>
        <time>2025-07-19T11:14:17Z</time>
      </trkpt>
      <trkpt lat="42.63612" lon="2.44846">
        <ele>284.4</ele>
        <time>2025-07-19T11:14:23Z</time>
      </trkpt>
      <trkpt lat="42.63593" lon="2.44838">
        <ele>285.2</ele>
        <time>2025-07-19T11:14:28Z</time>
      </trkpt>
      <trkpt lat="42.63587" lon="2.44833">
        <ele>285.6</ele>
        <time>2025-07-19T11:14:30Z</time>
      </trkpt>
      <trkpt lat="42.63577" lon="2.44824">
        <ele>286.4</ele>
        <time>2025-07-19T11:14:34Z</time>
      </trkpt>
      <trkpt lat="42.63575" lon="2.44821">
        <ele>286.8</ele>
        <time>2025-07-19T11:14:35Z</time>
      </trkpt>
      <trkpt lat="42.63565" lon="2.44806">
        <ele>287.6</ele>
        <time>2025-07-19T11:14:40Z</time>
      </trkpt>
      <trkpt lat="42.63562" lon="2.44798">
        <ele>288</ele>
        <time>2025-07-19T11:14:42Z</time>
      </trkpt>
      <trkpt lat="42.63556" lon="2.44778">
        <ele>289</ele>
        <time>2025-07-19T11:14:47Z</time>
      </trkpt>
      <trkpt lat="42.63554" lon="2.44775">
        <ele>289</ele>
        <time>2025-07-19T11:14:48Z</time>
      </trkpt>
      <trkpt lat="42.63548" lon="2.44759">
        <ele>290</ele>
        <time>2025-07-19T11:14:52Z</time>
      </trkpt>
      <trkpt lat="42.63545" lon="2.44742">
        <ele>291</ele>
        <time>2025-07-19T11:14:56Z</time>
      </trkpt>
      <trkpt lat="42.63545" lon="2.44738">
        <ele>291.2</ele>
        <time>2025-07-19T11:14:57Z</time>
      </trkpt>
      <trkpt lat="42.63542" lon="2.44718">
        <ele>292</ele>
        <time>2025-07-19T11:15:02Z</time>
      </trkpt>
      <trkpt lat="42.63541" lon="2.44714">
        <ele>292.2</ele>
        <time>2025-07-19T11:15:03Z</time>
      </trkpt>
      <trkpt lat="42.63536" lon="2.44692">
        <ele>293.2</ele>
        <time>2025-07-19T11:15:09Z</time>
      </trkpt>
      <trkpt lat="42.63528" lon="2.44668">
        <ele>294.4</ele>
        <time>2025-07-19T11:15:15Z</time>
      </trkpt>
      <trkpt lat="42.63523" lon="2.44662">
        <ele>294.8</ele>
        <time>2025-07-19T11:15:17Z</time>
      </trkpt>
      <trkpt lat="42.63521" lon="2.44658">
        <ele>295</ele>
        <time>2025-07-19T11:15:18Z</time>
      </trkpt>
      <trkpt lat="42.63505" lon="2.44637">
        <ele>295.4</ele>
        <time>2025-07-19T11:15:24Z</time>
      </trkpt>
      <trkpt lat="42.63484" lon="2.44608">
        <ele>295.6</ele>
        <time>2025-07-19T11:15:32Z</time>
      </trkpt>
      <trkpt lat="42.63482" lon="2.44604">
        <ele>295.6</ele>
        <time>2025-07-19T11:15:33Z</time>
      </trkpt>
      <trkpt lat="42.63459" lon="2.4457">
        <ele>296.2</ele>
        <time>2025-07-19T11:15:42Z</time>
      </trkpt>
      <trkpt lat="42.63443" lon="2.44551">
        <ele>296.6</ele>
        <time>2025-07-19T11:15:47Z</time>
      </trkpt>
      <trkpt lat="42.63435" lon="2.44544">
        <ele>296.8</ele>
        <time>2025-07-19T11:15:49Z</time>
      </trkpt>
      <trkpt lat="42.6343" lon="2.44541">
        <ele>297</ele>
        <time>2025-07-19T11:15:50Z</time>
      </trkpt>
      <trkpt lat="42.63401" lon="2.44528">
        <ele>297.2</ele>
        <time>2025-07-19T11:15:56Z</time>
      </trkpt>
      <trkpt lat="42.6339" lon="2.44523">
        <ele>297.2</ele>
        <time>2025-07-19T11:15:58Z</time>
      </trkpt>
      <trkpt lat="42.63377" lon="2.44512">
        <ele>297</ele>
        <time>2025-07-19T11:16:01Z</time>
      </trkpt>
      <trkpt lat="42.63354" lon="2.44489">
        <ele>297.2</ele>
        <time>2025-07-19T11:16:07Z</time>
      </trkpt>
      <trkpt lat="42.6332" lon="2.44465">
        <ele>297.6</ele>
        <time>2025-07-19T11:16:15Z</time>
      </trkpt>
      <trkpt lat="42.6331" lon="2.44455">
        <ele>297.8</ele>
        <time>2025-07-19T11:16:18Z</time>
      </trkpt>
      <trkpt lat="42.63302" lon="2.44448">
        <ele>298</ele>
        <time>2025-07-19T11:16:20Z</time>
      </trkpt>
      <trkpt lat="42.63294" lon="2.44443">
        <ele>298.2</ele>
        <time>2025-07-19T11:16:22Z</time>
      </trkpt>
      <trkpt lat="42.63281" lon="2.44436">
        <ele>298.4</ele>
        <time>2025-07-19T11:16:25Z</time>
      </trkpt>
      <trkpt lat="42.6327" lon="2.44427">
        <ele>298.6</ele>
        <time>2025-07-19T11:16:28Z</time>
      </trkpt>
      <trkpt lat="42.63256" lon="2.44411">
        <ele>298.8</ele>
        <time>2025-07-19T11:16:32Z</time>
      </trkpt>
      <trkpt lat="42.63244" lon="2.44394">
        <ele>299.2</ele>
        <time>2025-07-19T11:16:36Z</time>
      </trkpt>
      <trkpt lat="42.6322" lon="2.44365">
        <ele>299.8</ele>
        <time>2025-07-19T11:16:43Z</time>
      </trkpt>
      <trkpt lat="42.63214" lon="2.44355">
        <ele>300.2</ele>
        <time>2025-07-19T11:16:45Z</time>
      </trkpt>
      <trkpt lat="42.63187" lon="2.44314">
        <ele>300.6</ele>
        <time>2025-07-19T11:16:54Z</time>
      </trkpt>
      <trkpt lat="42.63172" lon="2.44292">
        <ele>301.2</ele>
        <time>2025-07-19T11:16:59Z</time>
      </trkpt>
      <trkpt lat="42.63163" lon="2.44279">
        <ele>301.8</ele>
        <time>2025-07-19T11:17:02Z</time>
      </trkpt>
      <trkpt lat="42.63153" lon="2.44266">
        <ele>302</ele>
        <time>2025-07-19T11:17:05Z</time>
      </trkpt>
      <trkpt lat="42.63124" lon="2.4423">
        <ele>303</ele>
        <time>2025-07-19T11:17:13Z</time>
      </trkpt>
      <trkpt lat="42.63109" lon="2.44211">
        <ele>303.2</ele>
        <time>2025-07-19T11:17:17Z</time>
      </trkpt>
      <trkpt lat="42.6309" lon="2.44187">
        <ele>303.6</ele>
        <time>2025-07-19T11:17:22Z</time>
      </trkpt>
      <trkpt lat="42.63079" lon="2.44176">
        <ele>303.8</ele>
        <time>2025-07-19T11:17:25Z</time>
      </trkpt>
      <trkpt lat="42.63069" lon="2.44171">
        <ele>304</ele>
        <time>2025-07-19T11:17:27Z</time>
      </trkpt>
      <trkpt lat="42.63064" lon="2.4417">
        <ele>304</ele>
        <time>2025-07-19T11:17:28Z</time>
      </trkpt>
      <trkpt lat="42.63059" lon="2.44169">
        <ele>304.4</ele>
        <time>2025-07-19T11:17:29Z</time>
      </trkpt>
      <trkpt lat="42.63045" lon="2.44169">
        <ele>304.4</ele>
        <time>2025-07-19T11:17:32Z</time>
      </trkpt>
      <trkpt lat="42.6303" lon="2.44167">
        <ele>304.6</ele>
        <time>2025-07-19T11:17:35Z</time>
      </trkpt>
      <trkpt lat="42.63016" lon="2.44161">
        <ele>305</ele>
        <time>2025-07-19T11:17:38Z</time>
      </trkpt>
      <trkpt lat="42.6299" lon="2.44139">
        <ele>305.2</ele>
        <time>2025-07-19T11:17:44Z</time>
      </trkpt>
      <trkpt lat="42.62986" lon="2.44135">
        <ele>305.6</ele>
        <time>2025-07-19T11:17:45Z</time>
      </trkpt>
      <trkpt lat="42.6296" lon="2.44103">
        <ele>306.4</ele>
        <time>2025-07-19T11:17:52Z</time>
      </trkpt>
      <trkpt lat="42.62952" lon="2.44094">
        <ele>306.4</ele>
        <time>2025-07-19T11:17:54Z</time>
      </trkpt>
      <trkpt lat="42.62918" lon="2.44054">
        <ele>307.6</ele>
        <time>2025-07-19T11:18:03Z</time>
      </trkpt>
      <trkpt lat="42.62911" lon="2.44044">
        <ele>307.6</ele>
        <time>2025-07-19T11:18:05Z</time>
      </trkpt>
      <trkpt lat="42.62879" lon="2.43991">
        <ele>308</ele>
        <time>2025-07-19T11:18:15Z</time>
      </trkpt>
      <trkpt lat="42.62862" lon="2.43942">
        <ele>308.6</ele>
        <time>2025-07-19T11:18:23Z</time>
      </trkpt>
      <trkpt lat="42.62855" lon="2.43923">
        <ele>309</ele>
        <time>2025-07-19T11:18:26Z</time>
      </trkpt>
      <trkpt lat="42.62832" lon="2.43854">
        <ele>309.6</ele>
        <time>2025-07-19T11:18:37Z</time>
      </trkpt>
      <trkpt lat="42.62828" lon="2.43843">
        <ele>309.6</ele>
        <time>2025-07-19T11:18:39Z</time>
      </trkpt>
      <trkpt lat="42.62819" lon="2.43817">
        <ele>309.8</ele>
        <time>2025-07-19T11:18:43Z</time>
      </trkpt>
      <trkpt lat="42.62808" lon="2.43788">
        <ele>310</ele>
        <time>2025-07-19T11:18:48Z</time>
      </trkpt>
      <trkpt lat="42.62784" lon="2.43719">
        <ele>310.8</ele>
        <time>2025-07-19T11:18:59Z</time>
      </trkpt>
      <trkpt lat="42.62783" lon="2.43714">
        <ele>310.8</ele>
        <time>2025-07-19T11:19:00Z</time>
      </trkpt>
      <trkpt lat="42.62769" lon="2.43668">
        <ele>310.6</ele>
        <time>2025-07-19T11:19:08Z</time>
      </trkpt>
      <trkpt lat="42.62767" lon="2.43662">
        <ele>310.6</ele>
        <time>2025-07-19T11:19:09Z</time>
      </trkpt>
      <trkpt lat="42.62752" lon="2.43616">
        <ele>311</ele>
        <time>2025-07-19T11:19:17Z</time>
      </trkpt>
      <trkpt lat="42.62743" lon="2.43585">
        <ele>311.4</ele>
        <time>2025-07-19T11:19:22Z</time>
      </trkpt>
      <trkpt lat="42.6274" lon="2.43573">
        <ele>311.6</ele>
        <time>2025-07-19T11:19:24Z</time>
      </trkpt>
      <trkpt lat="42.62738" lon="2.43567">
        <ele>311.6</ele>
        <time>2025-07-19T11:19:25Z</time>
      </trkpt>
      <trkpt lat="42.62735" lon="2.4356">
        <ele>311.8</ele>
        <time>2025-07-19T11:19:26Z</time>
      </trkpt>
      <trkpt lat="42.62726" lon="2.43531">
        <ele>312.6</ele>
        <time>2025-07-19T11:19:31Z</time>
      </trkpt>
      <trkpt lat="42.62719" lon="2.43513">
        <ele>313</ele>
        <time>2025-07-19T11:19:34Z</time>
      </trkpt>
      <trkpt lat="42.62712" lon="2.43496">
        <ele>313.2</ele>
        <time>2025-07-19T11:19:37Z</time>
      </trkpt>
      <trkpt lat="42.6271" lon="2.43489">
        <ele>313.4</ele>
        <time>2025-07-19T11:19:38Z</time>
      </trkpt>
      <trkpt lat="42.62692" lon="2.43445">
        <ele>313.8</ele>
        <time>2025-07-19T11:19:45Z</time>
      </trkpt>
      <trkpt lat="42.62668" lon="2.43392">
        <ele>314</ele>
        <time>2025-07-19T11:19:54Z</time>
      </trkpt>
      <trkpt lat="42.6266" lon="2.43374">
        <ele>314.2</ele>
        <time>2025-07-19T11:19:57Z</time>
      </trkpt>
      <trkpt lat="42.62652" lon="2.43356">
        <ele>314.6</ele>
        <time>2025-07-19T11:20:00Z</time>
      </trkpt>
      <trkpt lat="42.62637" lon="2.4332">
        <ele>315</ele>
        <time>2025-07-19T11:20:06Z</time>
      </trkpt>
      <trkpt lat="42.62625" lon="2.43291">
        <ele>315.6</ele>
        <time>2025-07-19T11:20:11Z</time>
      </trkpt>
      <trkpt lat="42.62609" lon="2.43256">
        <ele>316.2</ele>
        <time>2025-07-19T11:20:17Z</time>
      </trkpt>
      <trkpt lat="42.62601" lon="2.43238">
        <ele>316.6</ele>
        <time>2025-07-19T11:20:20Z</time>
      </trkpt>
      <trkpt lat="42.62587" lon="2.43204">
        <ele>317.2</ele>
        <time>2025-07-19T11:20:26Z</time>
      </trkpt>
      <trkpt lat="42.6258" lon="2.43192">
        <ele>317.4</ele>
        <time>2025-07-19T11:20:28Z</time>
      </trkpt>
      <trkpt lat="42.62571" lon="2.43174">
        <ele>317.4</ele>
        <time>2025-07-19T11:20:32Z</time>
      </trkpt>
      <trkpt lat="42.62563" lon="2.43159">
        <ele>317.8</ele>
        <time>2025-07-19T11:20:35Z</time>
      </trkpt>
      <trkpt lat="42.62542" lon="2.43114">
        <ele>318.2</ele>
        <time>2025-07-19T11:20:43Z</time>
      </trkpt>
      <trkpt lat="42.6254" lon="2.43109">
        <ele>318.2</ele>
        <time>2025-07-19T11:20:44Z</time>
      </trkpt>
      <trkpt lat="42.62529" lon="2.43084">
        <ele>318.4</ele>
        <time>2025-07-19T11:20:48Z</time>
      </trkpt>
      <trkpt lat="42.62517" lon="2.43054">
        <ele>318.4</ele>
        <time>2025-07-19T11:20:53Z</time>
      </trkpt>
      <trkpt lat="42.62511" lon="2.43037">
        <ele>319</ele>
        <time>2025-07-19T11:20:57Z</time>
      </trkpt>
      <trkpt lat="42.6251" lon="2.43026">
        <ele>319.2</ele>
        <time>2025-07-19T11:21:00Z</time>
      </trkpt>
      <trkpt lat="42.62509" lon="2.43016">
        <ele>319.6</ele>
        <time>2025-07-19T11:21:02Z</time>
      </trkpt>
      <trkpt lat="42.62507" lon="2.43011">
        <ele>320</ele>
        <time>2025-07-19T11:21:03Z</time>
      </trkpt>
      <trkpt lat="42.625" lon="2.43002">
        <ele>320.2</ele>
        <time>2025-07-19T11:21:05Z</time>
      </trkpt>
      <trkpt lat="42.62497" lon="2.42997">
        <ele>320.4</ele>
        <time>2025-07-19T11:21:06Z</time>
      </trkpt>
      <trkpt lat="42.62495" lon="2.42992">
        <ele>320.6</ele>
        <time>2025-07-19T11:21:07Z</time>
      </trkpt>
      <trkpt lat="42.6249" lon="2.42979">
        <ele>320.6</ele>
        <time>2025-07-19T11:21:09Z</time>
      </trkpt>
      <trkpt lat="42.6248" lon="2.42941">
        <ele>320.8</ele>
        <time>2025-07-19T11:21:15Z</time>
      </trkpt>
      <trkpt lat="42.62479" lon="2.42934">
        <ele>321</ele>
        <time>2025-07-19T11:21:16Z</time>
      </trkpt>
      <trkpt lat="42.62477" lon="2.42921">
        <ele>321</ele>
        <time>2025-07-19T11:21:18Z</time>
      </trkpt>
      <trkpt lat="42.62472" lon="2.42873">
        <ele>321.6</ele>
        <time>2025-07-19T11:21:25Z</time>
      </trkpt>
      <trkpt lat="42.6247" lon="2.42859">
        <ele>321.8</ele>
        <time>2025-07-19T11:21:27Z</time>
      </trkpt>
      <trkpt lat="42.62463" lon="2.42799">
        <ele>322.2</ele>
        <time>2025-07-19T11:21:36Z</time>
      </trkpt>
      <trkpt lat="42.62461" lon="2.42793">
        <ele>322.2</ele>
        <time>2025-07-19T11:21:37Z</time>
      </trkpt>
      <trkpt lat="42.6246" lon="2.42787">
        <ele>322.4</ele>
        <time>2025-07-19T11:21:38Z</time>
      </trkpt>
      <trkpt lat="42.62458" lon="2.42782">
        <ele>322.6</ele>
        <time>2025-07-19T11:21:39Z</time>
      </trkpt>
      <trkpt lat="42.62455" lon="2.42777">
        <ele>322.8</ele>
        <time>2025-07-19T11:21:40Z</time>
      </trkpt>
      <trkpt lat="42.62451" lon="2.42772">
        <ele>322.8</ele>
        <time>2025-07-19T11:21:41Z</time>
      </trkpt>
      <trkpt lat="42.62448" lon="2.42769">
        <ele>323</ele>
        <time>2025-07-19T11:21:42Z</time>
      </trkpt>
      <trkpt lat="42.6244" lon="2.42761">
        <ele>323</ele>
        <time>2025-07-19T11:21:44Z</time>
      </trkpt>
      <trkpt lat="42.62434" lon="2.4275">
        <ele>323.2</ele>
        <time>2025-07-19T11:21:46Z</time>
      </trkpt>
      <trkpt lat="42.62433" lon="2.42729">
        <ele>323.4</ele>
        <time>2025-07-19T11:21:49Z</time>
      </trkpt>
      <trkpt lat="42.62431" lon="2.42721">
        <ele>323.6</ele>
        <time>2025-07-19T11:21:50Z</time>
      </trkpt>
      <trkpt lat="42.62425" lon="2.42698">
        <ele>323.6</ele>
        <time>2025-07-19T11:21:53Z</time>
      </trkpt>
      <trkpt lat="42.62425" lon="2.42681">
        <ele>323.6</ele>
        <time>2025-07-19T11:21:55Z</time>
      </trkpt>
      <trkpt lat="42.6243" lon="2.42603">
        <ele>323</ele>
        <time>2025-07-19T11:22:04Z</time>
      </trkpt>
      <trkpt lat="42.62425" lon="2.42544">
        <ele>322.2</ele>
        <time>2025-07-19T11:22:10Z</time>
      </trkpt>
      <trkpt lat="42.62411" lon="2.42483">
        <ele>321.8</ele>
        <time>2025-07-19T11:22:16Z</time>
      </trkpt>
      <trkpt lat="42.62408" lon="2.42472">
        <ele>321.4</ele>
        <time>2025-07-19T11:22:17Z</time>
      </trkpt>
      <trkpt lat="42.62391" lon="2.42406">
        <ele>320.4</ele>
        <time>2025-07-19T11:22:23Z</time>
      </trkpt>
      <trkpt lat="42.62375" lon="2.42349">
        <ele>319.4</ele>
        <time>2025-07-19T11:22:28Z</time>
      </trkpt>
      <trkpt lat="42.62365" lon="2.42314">
        <ele>318.6</ele>
        <time>2025-07-19T11:22:31Z</time>
      </trkpt>
      <trkpt lat="42.62356" lon="2.42279">
        <ele>318.2</ele>
        <time>2025-07-19T11:22:34Z</time>
      </trkpt>
      <trkpt lat="42.62338" lon="2.42211">
        <ele>317.2</ele>
        <time>2025-07-19T11:22:40Z</time>
      </trkpt>
      <trkpt lat="42.62318" lon="2.4214">
        <ele>317.2</ele>
        <time>2025-07-19T11:22:47Z</time>
      </trkpt>
      <trkpt lat="42.62298" lon="2.42079">
        <ele>317.6</ele>
        <time>2025-07-19T11:22:54Z</time>
      </trkpt>
      <trkpt lat="42.62282" lon="2.42033">
        <ele>318.2</ele>
        <time>2025-07-19T11:23:00Z</time>
      </trkpt>
      <trkpt lat="42.62274" lon="2.4201">
        <ele>318.4</ele>
        <time>2025-07-19T11:23:03Z</time>
      </trkpt>
      <trkpt lat="42.62248" lon="2.41941">
        <ele>319.2</ele>
        <time>2025-07-19T11:23:13Z</time>
      </trkpt>
      <trkpt lat="42.62244" lon="2.41933">
        <ele>319.2</ele>
        <time>2025-07-19T11:23:14Z</time>
      </trkpt>
      <trkpt lat="42.62241" lon="2.41926">
        <ele>319.4</ele>
        <time>2025-07-19T11:23:15Z</time>
      </trkpt>
      <trkpt lat="42.62219" lon="2.41874">
        <ele>320.4</ele>
        <time>2025-07-19T11:23:23Z</time>
      </trkpt>
      <trkpt lat="42.62213" lon="2.4186">
        <ele>320.4</ele>
        <time>2025-07-19T11:23:25Z</time>
      </trkpt>
      <trkpt lat="42.6219" lon="2.41806">
        <ele>321.4</ele>
        <time>2025-07-19T11:23:33Z</time>
      </trkpt>
      <trkpt lat="42.62179" lon="2.41779">
        <ele>321.6</ele>
        <time>2025-07-19T11:23:37Z</time>
      </trkpt>
      <trkpt lat="42.62166" lon="2.41747">
        <ele>322.4</ele>
        <time>2025-07-19T11:23:42Z</time>
      </trkpt>
      <trkpt lat="42.62163" lon="2.4174">
        <ele>322.4</ele>
        <time>2025-07-19T11:23:43Z</time>
      </trkpt>
      <trkpt lat="42.62152" lon="2.41711">
        <ele>323</ele>
        <time>2025-07-19T11:23:47Z</time>
      </trkpt>
      <trkpt lat="42.62144" lon="2.41683">
        <ele>323.2</ele>
        <time>2025-07-19T11:23:51Z</time>
      </trkpt>
      <trkpt lat="42.62144" lon="2.41666">
        <ele>323.4</ele>
        <time>2025-07-19T11:23:53Z</time>
      </trkpt>
      <trkpt lat="42.62144" lon="2.41652">
        <ele>323.6</ele>
        <time>2025-07-19T11:23:55Z</time>
      </trkpt>
      <trkpt lat="42.6214" lon="2.41636">
        <ele>324</ele>
        <time>2025-07-19T11:23:57Z</time>
      </trkpt>
      <trkpt lat="42.62131" lon="2.41624">
        <ele>324.2</ele>
        <time>2025-07-19T11:23:59Z</time>
      </trkpt>
      <trkpt lat="42.62126" lon="2.41622">
        <ele>324.2</ele>
        <time>2025-07-19T11:24:00Z</time>
      </trkpt>
      <trkpt lat="42.6212" lon="2.4162">
        <ele>324.2</ele>
        <time>2025-07-19T11:24:01Z</time>
      </trkpt>
      <trkpt lat="42.62102" lon="2.41618">
        <ele>324.2</ele>
        <time>2025-07-19T11:24:04Z</time>
      </trkpt>
      <trkpt lat="42.62091" lon="2.4161">
        <ele>324.2</ele>
        <time>2025-07-19T11:24:06Z</time>
      </trkpt>
      <trkpt lat="42.62086" lon="2.41604">
        <ele>324.2</ele>
        <time>2025-07-19T11:24:07Z</time>
      </trkpt>
      <trkpt lat="42.62077" lon="2.41592">
        <ele>324.2</ele>
        <time>2025-07-19T11:24:09Z</time>
      </trkpt>
      <trkpt lat="42.62055" lon="2.41555">
        <ele>324</ele>
        <time>2025-07-19T11:24:14Z</time>
      </trkpt>
      <trkpt lat="42.62024" lon="2.41493">
        <ele>323.6</ele>
        <time>2025-07-19T11:24:22Z</time>
      </trkpt>
      <trkpt lat="42.62018" lon="2.41485">
        <ele>323.6</ele>
        <time>2025-07-19T11:24:23Z</time>
      </trkpt>
      <trkpt lat="42.62015" lon="2.41479">
        <ele>323.6</ele>
        <time>2025-07-19T11:24:24Z</time>
      </trkpt>
      <trkpt lat="42.6201" lon="2.41466">
        <ele>324</ele>
        <time>2025-07-19T11:24:26Z</time>
      </trkpt>
      <trkpt lat="42.61999" lon="2.41441">
        <ele>324.8</ele>
        <time>2025-07-19T11:24:30Z</time>
      </trkpt>
      <trkpt lat="42.61991" lon="2.41423">
        <ele>325.6</ele>
        <time>2025-07-19T11:24:33Z</time>
      </trkpt>
      <trkpt lat="42.61987" lon="2.41413">
        <ele>326</ele>
        <time>2025-07-19T11:24:35Z</time>
      </trkpt>
      <trkpt lat="42.61975" lon="2.41382">
        <ele>327.2</ele>
        <time>2025-07-19T11:24:41Z</time>
      </trkpt>
      <trkpt lat="42.6196" lon="2.4135">
        <ele>328.2</ele>
        <time>2025-07-19T11:24:47Z</time>
      </trkpt>
      <trkpt lat="42.61957" lon="2.41344">
        <ele>328.6</ele>
        <time>2025-07-19T11:24:48Z</time>
      </trkpt>
      <trkpt lat="42.61949" lon="2.41328">
        <ele>329.2</ele>
        <time>2025-07-19T11:24:51Z</time>
      </trkpt>
      <trkpt lat="42.61932" lon="2.41303">
        <ele>329.6</ele>
        <time>2025-07-19T11:24:56Z</time>
      </trkpt>
      <trkpt lat="42.619" lon="2.41267">
        <ele>330</ele>
        <time>2025-07-19T11:25:04Z</time>
      </trkpt>
      <trkpt lat="42.61869" lon="2.41246">
        <ele>330.2</ele>
        <time>2025-07-19T11:25:10Z</time>
      </trkpt>
      <trkpt lat="42.61864" lon="2.41244">
        <ele>330.4</ele>
        <time>2025-07-19T11:25:11Z</time>
      </trkpt>
      <trkpt lat="42.61822" lon="2.4123">
        <ele>331</ele>
        <time>2025-07-19T11:25:19Z</time>
      </trkpt>
      <trkpt lat="42.61799" lon="2.41228">
        <ele>331.4</ele>
        <time>2025-07-19T11:25:23Z</time>
      </trkpt>
      <trkpt lat="42.61782" lon="2.41229">
        <ele>331.4</ele>
        <time>2025-07-19T11:25:26Z</time>
      </trkpt>
      <trkpt lat="42.61729" lon="2.41235">
        <ele>332</ele>
        <time>2025-07-19T11:25:35Z</time>
      </trkpt>
      <trkpt lat="42.61685" lon="2.41232">
        <ele>332.2</ele>
        <time>2025-07-19T11:25:43Z</time>
      </trkpt>
      <trkpt lat="42.61678" lon="2.4123">
        <ele>332.4</ele>
        <time>2025-07-19T11:25:44Z</time>
      </trkpt>
      <trkpt lat="42.61674" lon="2.41229">
        <ele>332.6</ele>
        <time>2025-07-19T11:25:45Z</time>
      </trkpt>
      <trkpt lat="42.61642" lon="2.41214">
        <ele>333</ele>
        <time>2025-07-19T11:25:51Z</time>
      </trkpt>
      <trkpt lat="42.61627" lon="2.41206">
        <ele>333.4</ele>
        <time>2025-07-19T11:25:54Z</time>
      </trkpt>
      <trkpt lat="42.616" lon="2.41191">
        <ele>334</ele>
        <time>2025-07-19T11:26:00Z</time>
      </trkpt>
      <trkpt lat="42.61589" lon="2.41185">
        <ele>334.6</ele>
        <time>2025-07-19T11:26:03Z</time>
      </trkpt>
      <trkpt lat="42.61573" lon="2.41178">
        <ele>335.2</ele>
        <time>2025-07-19T11:26:07Z</time>
      </trkpt>
      <trkpt lat="42.6156" lon="2.41173">
        <ele>335.6</ele>
        <time>2025-07-19T11:26:10Z</time>
      </trkpt>
      <trkpt lat="42.61543" lon="2.41169">
        <ele>336.4</ele>
        <time>2025-07-19T11:26:14Z</time>
      </trkpt>
      <trkpt lat="42.61535" lon="2.41168">
        <ele>337</ele>
        <time>2025-07-19T11:26:16Z</time>
      </trkpt>
      <trkpt lat="42.61507" lon="2.41164">
        <ele>338</ele>
        <time>2025-07-19T11:26:23Z</time>
      </trkpt>
      <trkpt lat="42.61496" lon="2.41161">
        <ele>338.4</ele>
        <time>2025-07-19T11:26:26Z</time>
      </trkpt>
      <trkpt lat="42.61488" lon="2.41159">
        <ele>338.8</ele>
        <time>2025-07-19T11:26:28Z</time>
      </trkpt>
      <trkpt lat="42.61473" lon="2.41154">
        <ele>339.2</ele>
        <time>2025-07-19T11:26:32Z</time>
      </trkpt>
      <trkpt lat="42.61463" lon="2.4115">
        <ele>339.6</ele>
        <time>2025-07-19T11:26:35Z</time>
      </trkpt>
      <trkpt lat="42.61442" lon="2.41142">
        <ele>340.4</ele>
        <time>2025-07-19T11:26:41Z</time>
      </trkpt>
      <trkpt lat="42.61424" lon="2.41136">
        <ele>340.8</ele>
        <time>2025-07-19T11:26:46Z</time>
      </trkpt>
      <trkpt lat="42.6141" lon="2.4113">
        <ele>341.4</ele>
        <time>2025-07-19T11:26:50Z</time>
      </trkpt>
      <trkpt lat="42.61382" lon="2.4112">
        <ele>342.4</ele>
        <time>2025-07-19T11:26:58Z</time>
      </trkpt>
      <trkpt lat="42.61355" lon="2.41105">
        <ele>343.6</ele>
        <time>2025-07-19T11:27:06Z</time>
      </trkpt>
      <trkpt lat="42.61352" lon="2.41104">
        <ele>343.6</ele>
        <time>2025-07-19T11:27:07Z</time>
      </trkpt>
      <trkpt lat="42.61329" lon="2.41088">
        <ele>344.6</ele>
        <time>2025-07-19T11:27:14Z</time>
      </trkpt>
      <trkpt lat="42.61316" lon="2.41078">
        <ele>345</ele>
        <time>2025-07-19T11:27:18Z</time>
      </trkpt>
      <trkpt lat="42.61293" lon="2.41058">
        <ele>345.6</ele>
        <time>2025-07-19T11:27:25Z</time>
      </trkpt>
      <trkpt lat="42.61279" lon="2.41046">
        <ele>346</ele>
        <time>2025-07-19T11:27:29Z</time>
      </trkpt>
      <trkpt lat="42.61257" lon="2.41028">
        <ele>346.8</ele>
        <time>2025-07-19T11:27:35Z</time>
      </trkpt>
      <trkpt lat="42.61234" lon="2.41011">
        <ele>347.6</ele>
        <time>2025-07-19T11:27:41Z</time>
      </trkpt>
      <trkpt lat="42.61232" lon="2.41009">
        <ele>347.8</ele>
        <time>2025-07-19T11:27:42Z</time>
      </trkpt>
      <trkpt lat="42.61203" lon="2.40987">
        <ele>348.8</ele>
        <time>2025-07-19T11:27:50Z</time>
      </trkpt>
      <trkpt lat="42.61192" lon="2.40978">
        <ele>349.2</ele>
        <time>2025-07-19T11:27:53Z</time>
      </trkpt>
      <trkpt lat="42.61173" lon="2.40962">
        <ele>350</ele>
        <time>2025-07-19T11:27:59Z</time>
      </trkpt>
      <trkpt lat="42.61159" lon="2.4095">
        <ele>350.8</ele>
        <time>2025-07-19T11:28:04Z</time>
      </trkpt>
      <trkpt lat="42.61156" lon="2.40948">
        <ele>351</ele>
        <time>2025-07-19T11:28:05Z</time>
      </trkpt>
      <trkpt lat="42.61139" lon="2.40933">
        <ele>352.2</ele>
        <time>2025-07-19T11:28:11Z</time>
      </trkpt>
      <trkpt lat="42.61131" lon="2.40927">
        <ele>353.2</ele>
        <time>2025-07-19T11:28:14Z</time>
      </trkpt>
      <trkpt lat="42.61128" lon="2.40924">
        <ele>353.4</ele>
        <time>2025-07-19T11:28:15Z</time>
      </trkpt>
      <trkpt lat="42.61115" lon="2.40912">
        <ele>354.6</ele>
        <time>2025-07-19T11:28:20Z</time>
      </trkpt>
      <trkpt lat="42.61108" lon="2.40904">
        <ele>355.4</ele>
        <time>2025-07-19T11:28:23Z</time>
      </trkpt>
      <trkpt lat="42.61104" lon="2.40899">
        <ele>355.8</ele>
        <time>2025-07-19T11:28:25Z</time>
      </trkpt>
      <trkpt lat="42.61092" lon="2.40888">
        <ele>356.8</ele>
        <time>2025-07-19T11:28:29Z</time>
      </trkpt>
      <trkpt lat="42.61087" lon="2.40882">
        <ele>357</ele>
        <time>2025-07-19T11:28:31Z</time>
      </trkpt>
      <trkpt lat="42.61073" lon="2.40867">
        <ele>357.8</ele>
        <time>2025-07-19T11:28:36Z</time>
      </trkpt>
      <trkpt lat="42.61068" lon="2.40861">
        <ele>358.4</ele>
        <time>2025-07-19T11:28:38Z</time>
      </trkpt>
      <trkpt lat="42.61058" lon="2.40848">
        <ele>358.8</ele>
        <time>2025-07-19T11:28:42Z</time>
      </trkpt>
      <trkpt lat="42.61049" lon="2.40834">
        <ele>359.6</ele>
        <time>2025-07-19T11:28:46Z</time>
      </trkpt>
      <trkpt lat="42.61043" lon="2.40823">
        <ele>360</ele>
        <time>2025-07-19T11:28:49Z</time>
      </trkpt>
      <trkpt lat="42.61031" lon="2.40802">
        <ele>360.2</ele>
        <time>2025-07-19T11:28:54Z</time>
      </trkpt>
      <trkpt lat="42.61007" lon="2.40767">
        <ele>361</ele>
        <time>2025-07-19T11:29:02Z</time>
      </trkpt>
      <trkpt lat="42.61004" lon="2.40764">
        <ele>361</ele>
        <time>2025-07-19T11:29:03Z</time>
      </trkpt>
      <trkpt lat="42.60996" lon="2.40759">
        <ele>361.2</ele>
        <time>2025-07-19T11:29:05Z</time>
      </trkpt>
      <trkpt lat="42.60987" lon="2.40755">
        <ele>361.6</ele>
        <time>2025-07-19T11:29:07Z</time>
      </trkpt>
      <trkpt lat="42.60955" lon="2.40743">
        <ele>362</ele>
        <time>2025-07-19T11:29:13Z</time>
      </trkpt>
      <trkpt lat="42.60951" lon="2.4074">
        <ele>362</ele>
        <time>2025-07-19T11:29:14Z</time>
      </trkpt>
      <trkpt lat="42.60945" lon="2.40734">
        <ele>362</ele>
        <time>2025-07-19T11:29:15Z</time>
      </trkpt>
      <trkpt lat="42.60931" lon="2.40717">
        <ele>362</ele>
        <time>2025-07-19T11:29:18Z</time>
      </trkpt>
      <trkpt lat="42.60905" lon="2.40672">
        <ele>361.8</ele>
        <time>2025-07-19T11:29:24Z</time>
      </trkpt>
      <trkpt lat="42.60901" lon="2.40662">
        <ele>361.6</ele>
        <time>2025-07-19T11:29:25Z</time>
      </trkpt>
      <trkpt lat="42.60895" lon="2.40634">
        <ele>361</ele>
        <time>2025-07-19T11:29:28Z</time>
      </trkpt>
      <trkpt lat="42.60885" lon="2.40581">
        <ele>360</ele>
        <time>2025-07-19T11:29:33Z</time>
      </trkpt>
      <trkpt lat="42.60883" lon="2.4057">
        <ele>359.8</ele>
        <time>2025-07-19T11:29:34Z</time>
      </trkpt>
      <trkpt lat="42.60868" lon="2.40516">
        <ele>358.8</ele>
        <time>2025-07-19T11:29:39Z</time>
      </trkpt>
      <trkpt lat="42.60865" lon="2.40506">
        <ele>358.4</ele>
        <time>2025-07-19T11:29:40Z</time>
      </trkpt>
      <trkpt lat="42.60854" lon="2.40477">
        <ele>357.6</ele>
        <time>2025-07-19T11:29:43Z</time>
      </trkpt>
      <trkpt lat="42.60844" lon="2.40447">
        <ele>356.8</ele>
        <time>2025-07-19T11:29:46Z</time>
      </trkpt>
      <trkpt lat="42.6082" lon="2.4039">
        <ele>356.6</ele>
        <time>2025-07-19T11:29:53Z</time>
      </trkpt>
      <trkpt lat="42.60815" lon="2.40381">
        <ele>356.6</ele>
        <time>2025-07-19T11:29:54Z</time>
      </trkpt>
      <trkpt lat="42.60804" lon="2.4036">
        <ele>356.8</ele>
        <time>2025-07-19T11:29:57Z</time>
      </trkpt>
      <trkpt lat="42.60779" lon="2.4031">
        <ele>357.4</ele>
        <time>2025-07-19T11:30:04Z</time>
      </trkpt>
      <trkpt lat="42.60749" lon="2.40245">
        <ele>358</ele>
        <time>2025-07-19T11:30:13Z</time>
      </trkpt>
      <trkpt lat="42.6072" lon="2.40183">
        <ele>358.2</ele>
        <time>2025-07-19T11:30:22Z</time>
      </trkpt>
      <trkpt lat="42.60717" lon="2.40177">
        <ele>358.2</ele>
        <time>2025-07-19T11:30:23Z</time>
      </trkpt>
      <trkpt lat="42.60712" lon="2.40164">
        <ele>358.6</ele>
        <time>2025-07-19T11:30:25Z</time>
      </trkpt>
      <trkpt lat="42.60709" lon="2.40158">
        <ele>358.8</ele>
        <time>2025-07-19T11:30:26Z</time>
      </trkpt>
      <trkpt lat="42.60702" lon="2.40141">
        <ele>359.6</ele>
        <time>2025-07-19T11:30:29Z</time>
      </trkpt>
      <trkpt lat="42.60691" lon="2.40108">
        <ele>360</ele>
        <time>2025-07-19T11:30:34Z</time>
      </trkpt>
      <trkpt lat="42.60687" lon="2.40095">
        <ele>360</ele>
        <time>2025-07-19T11:30:36Z</time>
      </trkpt>
      <trkpt lat="42.60677" lon="2.40064">
        <ele>360.6</ele>
        <time>2025-07-19T11:30:41Z</time>
      </trkpt>
      <trkpt lat="42.60674" lon="2.40052">
        <ele>361</ele>
        <time>2025-07-19T11:30:43Z</time>
      </trkpt>
      <trkpt lat="42.60672" lon="2.40046">
        <ele>361</ele>
        <time>2025-07-19T11:30:44Z</time>
      </trkpt>
      <trkpt lat="42.60665" lon="2.40024">
        <ele>362</ele>
        <time>2025-07-19T11:30:48Z</time>
      </trkpt>
      <trkpt lat="42.6066" lon="2.40009">
        <ele>362.4</ele>
        <time>2025-07-19T11:30:51Z</time>
      </trkpt>
      <trkpt lat="42.60655" lon="2.39995">
        <ele>363</ele>
        <time>2025-07-19T11:30:54Z</time>
      </trkpt>
      <trkpt lat="42.60654" lon="2.39991">
        <ele>363</ele>
        <time>2025-07-19T11:30:55Z</time>
      </trkpt>
      <trkpt lat="42.60652" lon="2.39986">
        <ele>363.2</ele>
        <time>2025-07-19T11:30:56Z</time>
      </trkpt>
      <trkpt lat="42.60644" lon="2.39956">
        <ele>364</ele>
        <time>2025-07-19T11:31:02Z</time>
      </trkpt>
      <trkpt lat="42.60643" lon="2.39952">
        <ele>364.2</ele>
        <time>2025-07-19T11:31:03Z</time>
      </trkpt>
      <trkpt lat="42.60637" lon="2.39933">
        <ele>364.6</ele>
        <time>2025-07-19T11:31:07Z</time>
      </trkpt>
      <trkpt lat="42.60634" lon="2.39925">
        <ele>365</ele>
        <time>2025-07-19T11:31:09Z</time>
      </trkpt>
      <trkpt lat="42.60631" lon="2.39916">
        <ele>365.2</ele>
        <time>2025-07-19T11:31:11Z</time>
      </trkpt>
      <trkpt lat="42.60626" lon="2.39903">
        <ele>366.2</ele>
        <time>2025-07-19T11:31:14Z</time>
      </trkpt>
      <trkpt lat="42.60621" lon="2.39887">
        <ele>367.2</ele>
        <time>2025-07-19T11:31:18Z</time>
      </trkpt>
      <trkpt lat="42.60619" lon="2.39883">
        <ele>367.4</ele>
        <time>2025-07-19T11:31:19Z</time>
      </trkpt>
      <trkpt lat="42.60614" lon="2.39866">
        <ele>368.2</ele>
        <time>2025-07-19T11:31:23Z</time>
      </trkpt>
      <trkpt lat="42.6061" lon="2.39853">
        <ele>368.6</ele>
        <time>2025-07-19T11:31:26Z</time>
      </trkpt>
      <trkpt lat="42.60607" lon="2.39844">
        <ele>369.2</ele>
        <time>2025-07-19T11:31:28Z</time>
      </trkpt>
      <trkpt lat="42.60602" lon="2.39825">
        <ele>369.8</ele>
        <time>2025-07-19T11:31:33Z</time>
      </trkpt>
      <trkpt lat="42.60598" lon="2.39813">
        <ele>370.4</ele>
        <time>2025-07-19T11:31:36Z</time>
      </trkpt>
      <trkpt lat="42.60594" lon="2.39801">
        <ele>371.2</ele>
        <time>2025-07-19T11:31:39Z</time>
      </trkpt>
      <trkpt lat="42.60591" lon="2.39793">
        <ele>371.8</ele>
        <time>2025-07-19T11:31:41Z</time>
      </trkpt>
      <trkpt lat="42.60582" lon="2.39766">
        <ele>372.6</ele>
        <time>2025-07-19T11:31:47Z</time>
      </trkpt>
      <trkpt lat="42.60581" lon="2.3976">
        <ele>372.8</ele>
        <time>2025-07-19T11:31:48Z</time>
      </trkpt>
      <trkpt lat="42.60582" lon="2.39731">
        <ele>373.4</ele>
        <time>2025-07-19T11:31:54Z</time>
      </trkpt>
      <trkpt lat="42.60585" lon="2.39722">
        <ele>374</ele>
        <time>2025-07-19T11:31:56Z</time>
      </trkpt>
      <trkpt lat="42.60593" lon="2.39698">
        <ele>375.2</ele>
        <time>2025-07-19T11:32:02Z</time>
      </trkpt>
      <trkpt lat="42.60593" lon="2.39694">
        <ele>375.4</ele>
        <time>2025-07-19T11:32:03Z</time>
      </trkpt>
      <trkpt lat="42.60594" lon="2.39671">
        <ele>376</ele>
        <time>2025-07-19T11:32:08Z</time>
      </trkpt>
      <trkpt lat="42.60594" lon="2.39663">
        <ele>376.4</ele>
        <time>2025-07-19T11:32:10Z</time>
      </trkpt>
      <trkpt lat="42.60596" lon="2.39638">
        <ele>377.4</ele>
        <time>2025-07-19T11:32:15Z</time>
      </trkpt>
      <trkpt lat="42.60596" lon="2.39628">
        <ele>377.6</ele>
        <time>2025-07-19T11:32:17Z</time>
      </trkpt>
      <trkpt lat="42.60594" lon="2.3961">
        <ele>378.4</ele>
        <time>2025-07-19T11:32:21Z</time>
      </trkpt>
      <trkpt lat="42.60593" lon="2.39605">
        <ele>378.6</ele>
        <time>2025-07-19T11:32:22Z</time>
      </trkpt>
      <trkpt lat="42.60588" lon="2.39578">
        <ele>379.4</ele>
        <time>2025-07-19T11:32:28Z</time>
      </trkpt>
      <trkpt lat="42.60585" lon="2.39564">
        <ele>379.8</ele>
        <time>2025-07-19T11:32:31Z</time>
      </trkpt>
      <trkpt lat="42.60574" lon="2.39532">
        <ele>380.6</ele>
        <time>2025-07-19T11:32:38Z</time>
      </trkpt>
      <trkpt lat="42.60571" lon="2.39522">
        <ele>380.8</ele>
        <time>2025-07-19T11:32:40Z</time>
      </trkpt>
      <trkpt lat="42.60557" lon="2.39494">
        <ele>381.4</ele>
        <time>2025-07-19T11:32:46Z</time>
      </trkpt>
      <trkpt lat="42.60544" lon="2.39465">
        <ele>381.8</ele>
        <time>2025-07-19T11:32:51Z</time>
      </trkpt>
      <trkpt lat="42.60542" lon="2.39459">
        <ele>382</ele>
        <time>2025-07-19T11:32:52Z</time>
      </trkpt>
      <trkpt lat="42.6054" lon="2.39453">
        <ele>382</ele>
        <time>2025-07-19T11:32:53Z</time>
      </trkpt>
      <trkpt lat="42.60513" lon="2.39392">
        <ele>382.6</ele>
        <time>2025-07-19T11:33:03Z</time>
      </trkpt>
      <trkpt lat="42.60493" lon="2.39346">
        <ele>383</ele>
        <time>2025-07-19T11:33:09Z</time>
      </trkpt>
      <trkpt lat="42.6048" lon="2.39315">
        <ele>383.2</ele>
        <time>2025-07-19T11:33:14Z</time>
      </trkpt>
      <trkpt lat="42.60453" lon="2.39248">
        <ele>383.8</ele>
        <time>2025-07-19T11:33:24Z</time>
      </trkpt>
      <trkpt lat="42.60448" lon="2.39234">
        <ele>383.8</ele>
        <time>2025-07-19T11:33:26Z</time>
      </trkpt>
      <trkpt lat="42.60446" lon="2.39226">
        <ele>384</ele>
        <time>2025-07-19T11:33:27Z</time>
      </trkpt>
      <trkpt lat="42.60424" lon="2.39155">
        <ele>385</ele>
        <time>2025-07-19T11:33:37Z</time>
      </trkpt>
      <trkpt lat="42.6042" lon="2.3914">
        <ele>385.2</ele>
        <time>2025-07-19T11:33:39Z</time>
      </trkpt>
      <trkpt lat="42.60398" lon="2.39065">
        <ele>385.6</ele>
        <time>2025-07-19T11:33:49Z</time>
      </trkpt>
      <trkpt lat="42.60393" lon="2.3905">
        <ele>385.6</ele>
        <time>2025-07-19T11:33:51Z</time>
      </trkpt>
      <trkpt lat="42.60373" lon="2.38986">
        <ele>385.6</ele>
        <time>2025-07-19T11:34:00Z</time>
      </trkpt>
      <trkpt lat="42.60357" lon="2.38938">
        <ele>385.6</ele>
        <time>2025-07-19T11:34:04Z</time>
      </trkpt>
      <trkpt lat="42.60332" lon="2.38866">
        <ele>384.6</ele>
        <time>2025-07-19T11:34:11Z</time>
      </trkpt>
      <trkpt lat="42.60324" lon="2.38841">
        <ele>384</ele>
        <time>2025-07-19T11:34:14Z</time>
      </trkpt>
      <trkpt lat="42.60308" lon="2.38797">
        <ele>383</ele>
        <time>2025-07-19T11:34:17Z</time>
      </trkpt>
      <trkpt lat="42.6029" lon="2.38745">
        <ele>382.2</ele>
        <time>2025-07-19T11:34:22Z</time>
      </trkpt>
      <trkpt lat="42.6027" lon="2.38686">
        <ele>382</ele>
        <time>2025-07-19T11:34:28Z</time>
      </trkpt>
      <trkpt lat="42.60251" lon="2.38634">
        <ele>382.4</ele>
        <time>2025-07-19T11:34:34Z</time>
      </trkpt>
      <trkpt lat="42.60229" lon="2.3857">
        <ele>383.2</ele>
        <time>2025-07-19T11:34:42Z</time>
      </trkpt>
      <trkpt lat="42.6021" lon="2.38517">
        <ele>384</ele>
        <time>2025-07-19T11:34:49Z</time>
      </trkpt>
      <trkpt lat="42.60206" lon="2.38502">
        <ele>384.4</ele>
        <time>2025-07-19T11:34:51Z</time>
      </trkpt>
      <trkpt lat="42.60193" lon="2.38466">
        <ele>385.2</ele>
        <time>2025-07-19T11:34:56Z</time>
      </trkpt>
      <trkpt lat="42.60186" lon="2.38443">
        <ele>385.4</ele>
        <time>2025-07-19T11:34:59Z</time>
      </trkpt>
      <trkpt lat="42.60171" lon="2.38395">
        <ele>386.2</ele>
        <time>2025-07-19T11:35:05Z</time>
      </trkpt>
      <trkpt lat="42.60154" lon="2.38349">
        <ele>386.8</ele>
        <time>2025-07-19T11:35:11Z</time>
      </trkpt>
      <trkpt lat="42.6014" lon="2.38314">
        <ele>387.4</ele>
        <time>2025-07-19T11:35:16Z</time>
      </trkpt>
      <trkpt lat="42.60126" lon="2.38282">
        <ele>388</ele>
        <time>2025-07-19T11:35:21Z</time>
      </trkpt>
      <trkpt lat="42.6011" lon="2.38251">
        <ele>388.4</ele>
        <time>2025-07-19T11:35:26Z</time>
      </trkpt>
      <trkpt lat="42.60095" lon="2.38226">
        <ele>388.8</ele>
        <time>2025-07-19T11:35:30Z</time>
      </trkpt>
      <trkpt lat="42.60059" lon="2.38174">
        <ele>389.2</ele>
        <time>2025-07-19T11:35:39Z</time>
      </trkpt>
      <trkpt lat="42.60042" lon="2.38151">
        <ele>389.4</ele>
        <time>2025-07-19T11:35:43Z</time>
      </trkpt>
      <trkpt lat="42.60009" lon="2.38109">
        <ele>389.8</ele>
        <time>2025-07-19T11:35:50Z</time>
      </trkpt>
      <trkpt lat="42.59979" lon="2.38069">
        <ele>390.2</ele>
        <time>2025-07-19T11:35:57Z</time>
      </trkpt>
      <trkpt lat="42.59965" lon="2.38051">
        <ele>390.6</ele>
        <time>2025-07-19T11:36:00Z</time>
      </trkpt>
      <trkpt lat="42.59938" lon="2.38017">
        <ele>391.4</ele>
        <time>2025-07-19T11:36:07Z</time>
      </trkpt>
      <trkpt lat="42.59921" lon="2.37995">
        <ele>391.8</ele>
        <time>2025-07-19T11:36:10Z</time>
      </trkpt>
      <trkpt lat="42.59896" lon="2.37964">
        <ele>392.4</ele>
        <time>2025-07-19T11:36:16Z</time>
      </trkpt>
      <trkpt lat="42.59875" lon="2.37937">
        <ele>393.2</ele>
        <time>2025-07-19T11:36:21Z</time>
      </trkpt>
      <trkpt lat="42.59867" lon="2.37928">
        <ele>393.6</ele>
        <time>2025-07-19T11:36:23Z</time>
      </trkpt>
      <trkpt lat="42.59825" lon="2.37874">
        <ele>394.6</ele>
        <time>2025-07-19T11:36:33Z</time>
      </trkpt>
      <trkpt lat="42.59782" lon="2.37823">
        <ele>395.4</ele>
        <time>2025-07-19T11:36:42Z</time>
      </trkpt>
      <trkpt lat="42.59757" lon="2.37794">
        <ele>395.6</ele>
        <time>2025-07-19T11:36:48Z</time>
      </trkpt>
      <trkpt lat="42.59737" lon="2.37769">
        <ele>395.8</ele>
        <time>2025-07-19T11:36:51Z</time>
      </trkpt>
      <trkpt lat="42.59721" lon="2.3775">
        <ele>395.8</ele>
        <time>2025-07-19T11:36:54Z</time>
      </trkpt>
      <trkpt lat="42.59693" lon="2.37711">
        <ele>396</ele>
        <time>2025-07-19T11:37:00Z</time>
      </trkpt>
      <trkpt lat="42.59664" lon="2.37661">
        <ele>396.4</ele>
        <time>2025-07-19T11:37:07Z</time>
      </trkpt>
      <trkpt lat="42.59655" lon="2.3765">
        <ele>396.6</ele>
        <time>2025-07-19T11:37:09Z</time>
      </trkpt>
      <trkpt lat="42.59644" lon="2.37644">
        <ele>396.6</ele>
        <time>2025-07-19T11:37:11Z</time>
      </trkpt>
      <trkpt lat="42.59644" lon="2.37644">
        <ele>397</ele>
        <time>2025-07-19T11:37:12Z</time>
      </trkpt>
      <trkpt lat="42.59632" lon="2.37643">
        <ele>397</ele>
        <time>2025-07-19T11:37:13Z</time>
      </trkpt>
      <trkpt lat="42.5962" lon="2.37645">
        <ele>397.6</ele>
        <time>2025-07-19T11:37:15Z</time>
      </trkpt>
      <trkpt lat="42.59607" lon="2.37646">
        <ele>397.8</ele>
        <time>2025-07-19T11:37:17Z</time>
      </trkpt>
      <trkpt lat="42.59595" lon="2.37645">
        <ele>398</ele>
        <time>2025-07-19T11:37:19Z</time>
      </trkpt>
      <trkpt lat="42.59589" lon="2.37642">
        <ele>398</ele>
        <time>2025-07-19T11:37:20Z</time>
      </trkpt>
      <trkpt lat="42.59583" lon="2.37637">
        <ele>398.2</ele>
        <time>2025-07-19T11:37:21Z</time>
      </trkpt>
      <trkpt lat="42.59574" lon="2.37624">
        <ele>398.4</ele>
        <time>2025-07-19T11:37:23Z</time>
      </trkpt>
      <trkpt lat="42.59571" lon="2.37616">
        <ele>398.6</ele>
        <time>2025-07-19T11:37:24Z</time>
      </trkpt>
      <trkpt lat="42.59566" lon="2.376">
        <ele>399</ele>
        <time>2025-07-19T11:37:26Z</time>
      </trkpt>
      <trkpt lat="42.59561" lon="2.37573">
        <ele>399.4</ele>
        <time>2025-07-19T11:37:29Z</time>
      </trkpt>
      <trkpt lat="42.59552" lon="2.3753">
        <ele>399.8</ele>
        <time>2025-07-19T11:37:34Z</time>
      </trkpt>
      <trkpt lat="42.59548" lon="2.37515">
        <ele>400.2</ele>
        <time>2025-07-19T11:37:37Z</time>
      </trkpt>
      <trkpt lat="42.59541" lon="2.37501">
        <ele>400.4</ele>
        <time>2025-07-19T11:37:38Z</time>
      </trkpt>
      <trkpt lat="42.59528" lon="2.37479">
        <ele>401</ele>
        <time>2025-07-19T11:37:41Z</time>
      </trkpt>
      <trkpt lat="42.59496" lon="2.37436">
        <ele>401.6</ele>
        <time>2025-07-19T11:37:48Z</time>
      </trkpt>
      <trkpt lat="42.59491" lon="2.3743">
        <ele>401.6</ele>
        <time>2025-07-19T11:37:49Z</time>
      </trkpt>
      <trkpt lat="42.59463" lon="2.37406">
        <ele>402</ele>
        <time>2025-07-19T11:37:54Z</time>
      </trkpt>
      <trkpt lat="42.59452" lon="2.37397">
        <ele>402.4</ele>
        <time>2025-07-19T11:37:57Z</time>
      </trkpt>
      <trkpt lat="42.59413" lon="2.37365">
        <ele>403.2</ele>
        <time>2025-07-19T11:38:03Z</time>
      </trkpt>
      <trkpt lat="42.59391" lon="2.37349">
        <ele>403.6</ele>
        <time>2025-07-19T11:38:07Z</time>
      </trkpt>
      <trkpt lat="42.59369" lon="2.37332">
        <ele>404.2</ele>
        <time>2025-07-19T11:38:11Z</time>
      </trkpt>
      <trkpt lat="42.59332" lon="2.37303">
        <ele>405</ele>
        <time>2025-07-19T11:38:18Z</time>
      </trkpt>
      <trkpt lat="42.59322" lon="2.37295">
        <ele>405.4</ele>
        <time>2025-07-19T11:38:20Z</time>
      </trkpt>
      <trkpt lat="42.59289" lon="2.3727">
        <ele>406.6</ele>
        <time>2025-07-19T11:38:27Z</time>
      </trkpt>
      <trkpt lat="42.59259" lon="2.37248">
        <ele>407.4</ele>
        <time>2025-07-19T11:38:34Z</time>
      </trkpt>
      <trkpt lat="42.59254" lon="2.37245">
        <ele>407.6</ele>
        <time>2025-07-19T11:38:36Z</time>
      </trkpt>
      <trkpt lat="42.59206" lon="2.37204">
        <ele>408</ele>
        <time>2025-07-19T11:38:45Z</time>
      </trkpt>
      <trkpt lat="42.59168" lon="2.37169">
        <ele>408</ele>
        <time>2025-07-19T11:38:52Z</time>
      </trkpt>
      <trkpt lat="42.59145" lon="2.37151">
        <ele>408</ele>
        <time>2025-07-19T11:38:56Z</time>
      </trkpt>
      <trkpt lat="42.59125" lon="2.3714">
        <ele>408</ele>
        <time>2025-07-19T11:38:59Z</time>
      </trkpt>
      <trkpt lat="42.591" lon="2.37131">
        <ele>408.2</ele>
        <time>2025-07-19T11:39:03Z</time>
      </trkpt>
      <trkpt lat="42.59075" lon="2.37125">
        <ele>408.6</ele>
        <time>2025-07-19T11:39:07Z</time>
      </trkpt>
      <trkpt lat="42.59069" lon="2.37124">
        <ele>408.6</ele>
        <time>2025-07-19T11:39:08Z</time>
      </trkpt>
      <trkpt lat="42.59042" lon="2.37121">
        <ele>409.2</ele>
        <time>2025-07-19T11:39:13Z</time>
      </trkpt>
      <trkpt lat="42.59027" lon="2.3712">
        <ele>410</ele>
        <time>2025-07-19T11:39:16Z</time>
      </trkpt>
      <trkpt lat="42.59022" lon="2.37119">
        <ele>410.2</ele>
        <time>2025-07-19T11:39:17Z</time>
      </trkpt>
      <trkpt lat="42.59002" lon="2.37118">
        <ele>411.4</ele>
        <time>2025-07-19T11:39:21Z</time>
      </trkpt>
      <trkpt lat="42.58997" lon="2.37117">
        <ele>411.4</ele>
        <time>2025-07-19T11:39:22Z</time>
      </trkpt>
      <trkpt lat="42.58992" lon="2.37117">
        <ele>411.4</ele>
        <time>2025-07-19T11:39:23Z</time>
      </trkpt>
      <trkpt lat="42.58966" lon="2.37115">
        <ele>412.4</ele>
        <time>2025-07-19T11:39:28Z</time>
      </trkpt>
      <trkpt lat="42.58956" lon="2.37115">
        <ele>412.6</ele>
        <time>2025-07-19T11:39:31Z</time>
      </trkpt>
      <trkpt lat="42.58941" lon="2.37115">
        <ele>412.8</ele>
        <time>2025-07-19T11:39:34Z</time>
      </trkpt>
      <trkpt lat="42.58915" lon="2.37109">
        <ele>413.2</ele>
        <time>2025-07-19T11:39:39Z</time>
      </trkpt>
      <trkpt lat="42.58894" lon="2.37103">
        <ele>413.4</ele>
        <time>2025-07-19T11:39:42Z</time>
      </trkpt>
      <trkpt lat="42.58865" lon="2.37087">
        <ele>413.8</ele>
        <time>2025-07-19T11:39:48Z</time>
      </trkpt>
      <trkpt lat="42.58842" lon="2.37074">
        <ele>414.4</ele>
        <time>2025-07-19T11:39:53Z</time>
      </trkpt>
      <trkpt lat="42.58837" lon="2.37071">
        <ele>414.4</ele>
        <time>2025-07-19T11:39:54Z</time>
      </trkpt>
      <trkpt lat="42.58828" lon="2.37064">
        <ele>414.6</ele>
        <time>2025-07-19T11:39:56Z</time>
      </trkpt>
      <trkpt lat="42.58802" lon="2.37043">
        <ele>415.4</ele>
        <time>2025-07-19T11:40:02Z</time>
      </trkpt>
      <trkpt lat="42.58793" lon="2.37035">
        <ele>415.8</ele>
        <time>2025-07-19T11:40:04Z</time>
      </trkpt>
      <trkpt lat="42.58775" lon="2.37021">
        <ele>416.4</ele>
        <time>2025-07-19T11:40:08Z</time>
      </trkpt>
      <trkpt lat="42.58752" lon="2.37009">
        <ele>417</ele>
        <time>2025-07-19T11:40:13Z</time>
      </trkpt>
      <trkpt lat="42.58732" lon="2.37003">
        <ele>417.4</ele>
        <time>2025-07-19T11:40:17Z</time>
      </trkpt>
      <trkpt lat="42.58719" lon="2.37001">
        <ele>418.2</ele>
        <time>2025-07-19T11:40:20Z</time>
      </trkpt>
      <trkpt lat="42.58696" lon="2.37">
        <ele>418.6</ele>
        <time>2025-07-19T11:40:25Z</time>
      </trkpt>
      <trkpt lat="42.58682" lon="2.37">
        <ele>419</ele>
        <time>2025-07-19T11:40:28Z</time>
      </trkpt>
      <trkpt lat="42.5867" lon="2.36989">
        <ele>419.6</ele>
        <time>2025-07-19T11:40:31Z</time>
      </trkpt>
      <trkpt lat="42.58664" lon="2.36978">
        <ele>420.4</ele>
        <time>2025-07-19T11:40:33Z</time>
      </trkpt>
      <trkpt lat="42.58662" lon="2.36972">
        <ele>420.8</ele>
        <time>2025-07-19T11:40:34Z</time>
      </trkpt>
      <trkpt lat="42.58661" lon="2.36966">
        <ele>421</ele>
        <time>2025-07-19T11:40:35Z</time>
      </trkpt>
      <trkpt lat="42.58657" lon="2.36931">
        <ele>421.8</ele>
        <time>2025-07-19T11:40:41Z</time>
      </trkpt>
      <trkpt lat="42.58657" lon="2.3692">
        <ele>422.2</ele>
        <time>2025-07-19T11:40:43Z</time>
      </trkpt>
      <trkpt lat="42.58655" lon="2.36895">
        <ele>422.8</ele>
        <time>2025-07-19T11:40:48Z</time>
      </trkpt>
      <trkpt lat="42.58654" lon="2.36881">
        <ele>423.2</ele>
        <time>2025-07-19T11:40:51Z</time>
      </trkpt>
      <trkpt lat="42.58652" lon="2.36847">
        <ele>424</ele>
        <time>2025-07-19T11:40:58Z</time>
      </trkpt>
      <trkpt lat="42.58649" lon="2.36822">
        <ele>424.6</ele>
        <time>2025-07-19T11:41:04Z</time>
      </trkpt>
      <trkpt lat="42.58648" lon="2.36807">
        <ele>425</ele>
        <time>2025-07-19T11:41:06Z</time>
      </trkpt>
      <trkpt lat="42.58647" lon="2.36768">
        <ele>426</ele>
        <time>2025-07-19T11:41:13Z</time>
      </trkpt>
      <trkpt lat="42.58646" lon="2.36763">
        <ele>426</ele>
        <time>2025-07-19T11:41:14Z</time>
      </trkpt>
      <trkpt lat="42.58646" lon="2.36757">
        <ele>426</ele>
        <time>2025-07-19T11:41:15Z</time>
      </trkpt>
      <trkpt lat="42.58643" lon="2.36712">
        <ele>426.8</ele>
        <time>2025-07-19T11:41:23Z</time>
      </trkpt>
      <trkpt lat="42.58643" lon="2.36705">
        <ele>427.2</ele>
        <time>2025-07-19T11:41:25Z</time>
      </trkpt>
      <trkpt lat="42.58638" lon="2.36657">
        <ele>427.6</ele>
        <time>2025-07-19T11:41:32Z</time>
      </trkpt>
      <trkpt lat="42.58633" lon="2.36631">
        <ele>427.8</ele>
        <time>2025-07-19T11:41:36Z</time>
      </trkpt>
      <trkpt lat="42.58623" lon="2.36589">
        <ele>428</ele>
        <time>2025-07-19T11:41:42Z</time>
      </trkpt>
      <trkpt lat="42.58618" lon="2.36567">
        <ele>428.2</ele>
        <time>2025-07-19T11:41:45Z</time>
      </trkpt>
      <trkpt lat="42.58617" lon="2.36561">
        <ele>428.2</ele>
        <time>2025-07-19T11:41:46Z</time>
      </trkpt>
      <trkpt lat="42.58613" lon="2.36539">
        <ele>428.4</ele>
        <time>2025-07-19T11:41:49Z</time>
      </trkpt>
      <trkpt lat="42.5861" lon="2.36524">
        <ele>428.6</ele>
        <time>2025-07-19T11:41:51Z</time>
      </trkpt>
      <trkpt lat="42.58609" lon="2.3651">
        <ele>428.8</ele>
        <time>2025-07-19T11:41:53Z</time>
      </trkpt>
      <trkpt lat="42.58608" lon="2.36502">
        <ele>429</ele>
        <time>2025-07-19T11:41:54Z</time>
      </trkpt>
      <trkpt lat="42.58604" lon="2.3645">
        <ele>429.2</ele>
        <time>2025-07-19T11:42:01Z</time>
      </trkpt>
      <trkpt lat="42.58602" lon="2.36442">
        <ele>429.2</ele>
        <time>2025-07-19T11:42:02Z</time>
      </trkpt>
      <trkpt lat="42.58584" lon="2.36404">
        <ele>429.6</ele>
        <time>2025-07-19T11:42:08Z</time>
      </trkpt>
      <trkpt lat="42.58562" lon="2.36376">
        <ele>430.4</ele>
        <time>2025-07-19T11:42:13Z</time>
      </trkpt>
      <trkpt lat="42.58557" lon="2.36371">
        <ele>430.6</ele>
        <time>2025-07-19T11:42:14Z</time>
      </trkpt>
      <trkpt lat="42.58545" lon="2.3636">
        <ele>431.2</ele>
        <time>2025-07-19T11:42:18Z</time>
      </trkpt>
      <trkpt lat="42.58521" lon="2.36342">
        <ele>431</ele>
        <time>2025-07-19T11:42:25Z</time>
      </trkpt>
      <trkpt lat="42.58489" lon="2.36314">
        <ele>431.4</ele>
        <time>2025-07-19T11:42:33Z</time>
      </trkpt>
      <trkpt lat="42.58484" lon="2.3631">
        <ele>431.6</ele>
        <time>2025-07-19T11:42:34Z</time>
      </trkpt>
      <trkpt lat="42.58461" lon="2.36283">
        <ele>432.6</ele>
        <time>2025-07-19T11:42:40Z</time>
      </trkpt>
      <trkpt lat="42.58458" lon="2.36279">
        <ele>432.8</ele>
        <time>2025-07-19T11:42:41Z</time>
      </trkpt>
      <trkpt lat="42.58447" lon="2.36265">
        <ele>433.8</ele>
        <time>2025-07-19T11:42:44Z</time>
      </trkpt>
      <trkpt lat="42.58434" lon="2.36246">
        <ele>434.4</ele>
        <time>2025-07-19T11:42:48Z</time>
      </trkpt>
      <trkpt lat="42.58418" lon="2.36212">
        <ele>434.8</ele>
        <time>2025-07-19T11:42:54Z</time>
      </trkpt>
      <trkpt lat="42.58416" lon="2.36206">
        <ele>434.8</ele>
        <time>2025-07-19T11:42:55Z</time>
      </trkpt>
      <trkpt lat="42.58411" lon="2.36178">
        <ele>434.8</ele>
        <time>2025-07-19T11:42:59Z</time>
      </trkpt>
      <trkpt lat="42.58411" lon="2.36172">
        <ele>435</ele>
        <time>2025-07-19T11:43:00Z</time>
      </trkpt>
      <trkpt lat="42.58411" lon="2.36172">
        <ele>435</ele>
        <time>2025-07-19T11:43:01Z</time>
      </trkpt>
      <trkpt lat="42.58412" lon="2.36143">
        <ele>435.2</ele>
        <time>2025-07-19T11:43:04Z</time>
      </trkpt>
      <trkpt lat="42.58416" lon="2.3612">
        <ele>435.2</ele>
        <time>2025-07-19T11:43:07Z</time>
      </trkpt>
      <trkpt lat="42.58426" lon="2.3607">
        <ele>435.8</ele>
        <time>2025-07-19T11:43:14Z</time>
      </trkpt>
      <trkpt lat="42.5843" lon="2.36049">
        <ele>436.4</ele>
        <time>2025-07-19T11:43:17Z</time>
      </trkpt>
      <trkpt lat="42.58436" lon="2.36014">
        <ele>436.8</ele>
        <time>2025-07-19T11:43:22Z</time>
      </trkpt>
      <trkpt lat="42.58438" lon="2.36007">
        <ele>437</ele>
        <time>2025-07-19T11:43:23Z</time>
      </trkpt>
      <trkpt lat="42.58439" lon="2.35999">
        <ele>437.2</ele>
        <time>2025-07-19T11:43:24Z</time>
      </trkpt>
      <trkpt lat="42.5844" lon="2.35992">
        <ele>437.4</ele>
        <time>2025-07-19T11:43:25Z</time>
      </trkpt>
      <trkpt lat="42.58441" lon="2.35968">
        <ele>437.6</ele>
        <time>2025-07-19T11:43:28Z</time>
      </trkpt>
      <trkpt lat="42.5844" lon="2.35961">
        <ele>437.8</ele>
        <time>2025-07-19T11:43:29Z</time>
      </trkpt>
      <trkpt lat="42.58437" lon="2.35945">
        <ele>438</ele>
        <time>2025-07-19T11:43:31Z</time>
      </trkpt>
      <trkpt lat="42.58429" lon="2.35915">
        <ele>438.4</ele>
        <time>2025-07-19T11:43:35Z</time>
      </trkpt>
      <trkpt lat="42.58419" lon="2.35858">
        <ele>438.8</ele>
        <time>2025-07-19T11:43:43Z</time>
      </trkpt>
      <trkpt lat="42.58417" lon="2.3583">
        <ele>439.2</ele>
        <time>2025-07-19T11:43:47Z</time>
      </trkpt>
      <trkpt lat="42.58415" lon="2.35786">
        <ele>439.6</ele>
        <time>2025-07-19T11:43:53Z</time>
      </trkpt>
      <trkpt lat="42.58413" lon="2.35736">
        <ele>440</ele>
        <time>2025-07-19T11:44:00Z</time>
      </trkpt>
      <trkpt lat="42.58412" lon="2.35721">
        <ele>440.2</ele>
        <time>2025-07-19T11:44:02Z</time>
      </trkpt>
      <trkpt lat="42.58406" lon="2.3566">
        <ele>441</ele>
        <time>2025-07-19T11:44:11Z</time>
      </trkpt>
      <trkpt lat="42.584" lon="2.35628">
        <ele>442</ele>
        <time>2025-07-19T11:44:16Z</time>
      </trkpt>
      <trkpt lat="42.58393" lon="2.35588">
        <ele>443</ele>
        <time>2025-07-19T11:44:22Z</time>
      </trkpt>
      <trkpt lat="42.58391" lon="2.35582">
        <ele>443.2</ele>
        <time>2025-07-19T11:44:24Z</time>
      </trkpt>
      <trkpt lat="42.58377" lon="2.35536">
        <ele>444</ele>
        <time>2025-07-19T11:44:30Z</time>
      </trkpt>
      <trkpt lat="42.58367" lon="2.35516">
        <ele>444.2</ele>
        <time>2025-07-19T11:44:33Z</time>
      </trkpt>
      <trkpt lat="42.58352" lon="2.35484">
        <ele>444.4</ele>
        <time>2025-07-19T11:44:38Z</time>
      </trkpt>
      <trkpt lat="42.58332" lon="2.35449">
        <ele>444.4</ele>
        <time>2025-07-19T11:44:43Z</time>
      </trkpt>
      <trkpt lat="42.58324" lon="2.3544">
        <ele>444.6</ele>
        <time>2025-07-19T11:44:45Z</time>
      </trkpt>
      <trkpt lat="42.58314" lon="2.35429">
        <ele>444.6</ele>
        <time>2025-07-19T11:44:47Z</time>
      </trkpt>
      <trkpt lat="42.58292" lon="2.35409">
        <ele>444.6</ele>
        <time>2025-07-19T11:44:51Z</time>
      </trkpt>
      <trkpt lat="42.58245" lon="2.35362">
        <ele>444.6</ele>
        <time>2025-07-19T11:45:00Z</time>
      </trkpt>
      <trkpt lat="42.58239" lon="2.35357">
        <ele>444.6</ele>
        <time>2025-07-19T11:45:01Z</time>
      </trkpt>
      <trkpt lat="42.58193" lon="2.35307">
        <ele>444.2</ele>
        <time>2025-07-19T11:45:10Z</time>
      </trkpt>
      <trkpt lat="42.58182" lon="2.35294">
        <ele>444.2</ele>
        <time>2025-07-19T11:45:12Z</time>
      </trkpt>
      <trkpt lat="42.58138" lon="2.35241">
        <ele>444.4</ele>
        <time>2025-07-19T11:45:21Z</time>
      </trkpt>
      <trkpt lat="42.58134" lon="2.35234">
        <ele>444.8</ele>
        <time>2025-07-19T11:45:22Z</time>
      </trkpt>
      <trkpt lat="42.58129" lon="2.35228">
        <ele>444.8</ele>
        <time>2025-07-19T11:45:23Z</time>
      </trkpt>
      <trkpt lat="42.58096" lon="2.35174">
        <ele>445.8</ele>
        <time>2025-07-19T11:45:31Z</time>
      </trkpt>
      <trkpt lat="42.58092" lon="2.35167">
        <ele>445.8</ele>
        <time>2025-07-19T11:45:32Z</time>
      </trkpt>
      <trkpt lat="42.58069" lon="2.35119">
        <ele>446.8</ele>
        <time>2025-07-19T11:45:39Z</time>
      </trkpt>
      <trkpt lat="42.58063" lon="2.35105">
        <ele>447</ele>
        <time>2025-07-19T11:45:41Z</time>
      </trkpt>
      <trkpt lat="42.5805" lon="2.35071">
        <ele>448</ele>
        <time>2025-07-19T11:45:46Z</time>
      </trkpt>
      <trkpt lat="42.58045" lon="2.35058">
        <ele>448.4</ele>
        <time>2025-07-19T11:45:48Z</time>
      </trkpt>
      <trkpt lat="42.58042" lon="2.35051">
        <ele>448.6</ele>
        <time>2025-07-19T11:45:49Z</time>
      </trkpt>
      <trkpt lat="42.58035" lon="2.35033">
        <ele>449</ele>
        <time>2025-07-19T11:45:52Z</time>
      </trkpt>
      <trkpt lat="42.58019" lon="2.34997">
        <ele>450</ele>
        <time>2025-07-19T11:45:58Z</time>
      </trkpt>
      <trkpt lat="42.58002" lon="2.34953">
        <ele>450.6</ele>
        <time>2025-07-19T11:46:05Z</time>
      </trkpt>
      <trkpt lat="42.57996" lon="2.3494">
        <ele>451</ele>
        <time>2025-07-19T11:46:07Z</time>
      </trkpt>
      <trkpt lat="42.57988" lon="2.34919">
        <ele>451.2</ele>
        <time>2025-07-19T11:46:10Z</time>
      </trkpt>
      <trkpt lat="42.57964" lon="2.34849">
        <ele>451.8</ele>
        <time>2025-07-19T11:46:20Z</time>
      </trkpt>
      <trkpt lat="42.57961" lon="2.34836">
        <ele>452</ele>
        <time>2025-07-19T11:46:22Z</time>
      </trkpt>
      <trkpt lat="42.57953" lon="2.34807">
        <ele>452.4</ele>
        <time>2025-07-19T11:46:26Z</time>
      </trkpt>
      <trkpt lat="42.57945" lon="2.34781">
        <ele>452.8</ele>
        <time>2025-07-19T11:46:30Z</time>
      </trkpt>
      <trkpt lat="42.57944" lon="2.34774">
        <ele>453.2</ele>
        <time>2025-07-19T11:46:31Z</time>
      </trkpt>
      <trkpt lat="42.57938" lon="2.34756">
        <ele>454.2</ele>
        <time>2025-07-19T11:46:34Z</time>
      </trkpt>
      <trkpt lat="42.57932" lon="2.34735">
        <ele>454.8</ele>
        <time>2025-07-19T11:46:38Z</time>
      </trkpt>
      <trkpt lat="42.5793" lon="2.34731">
        <ele>455.4</ele>
        <time>2025-07-19T11:46:39Z</time>
      </trkpt>
      <trkpt lat="42.57922" lon="2.34707">
        <ele>456.6</ele>
        <time>2025-07-19T11:46:44Z</time>
      </trkpt>
      <trkpt lat="42.5792" lon="2.34703">
        <ele>456.6</ele>
        <time>2025-07-19T11:46:45Z</time>
      </trkpt>
      <trkpt lat="42.57914" lon="2.34689">
        <ele>457.2</ele>
        <time>2025-07-19T11:46:48Z</time>
      </trkpt>
      <trkpt lat="42.5791" lon="2.3468">
        <ele>457.6</ele>
        <time>2025-07-19T11:46:50Z</time>
      </trkpt>
      <trkpt lat="42.579" lon="2.34658">
        <ele>458.2</ele>
        <time>2025-07-19T11:46:55Z</time>
      </trkpt>
      <trkpt lat="42.57889" lon="2.34637">
        <ele>458.8</ele>
        <time>2025-07-19T11:47:00Z</time>
      </trkpt>
      <trkpt lat="42.5788" lon="2.34621">
        <ele>459.4</ele>
        <time>2025-07-19T11:47:04Z</time>
      </trkpt>
      <trkpt lat="42.57876" lon="2.34612">
        <ele>459.6</ele>
        <time>2025-07-19T11:47:06Z</time>
      </trkpt>
      <trkpt lat="42.5786" lon="2.34587">
        <ele>460.8</ele>
        <time>2025-07-19T11:47:12Z</time>
      </trkpt>
      <trkpt lat="42.57858" lon="2.34583">
        <ele>461</ele>
        <time>2025-07-19T11:47:13Z</time>
      </trkpt>
      <trkpt lat="42.57852" lon="2.34575">
        <ele>461.2</ele>
        <time>2025-07-19T11:47:15Z</time>
      </trkpt>
      <trkpt lat="42.57844" lon="2.34563">
        <ele>461.8</ele>
        <time>2025-07-19T11:47:18Z</time>
      </trkpt>
      <trkpt lat="42.57827" lon="2.3454">
        <ele>463</ele>
        <time>2025-07-19T11:47:24Z</time>
      </trkpt>
      <trkpt lat="42.57814" lon="2.34523">
        <ele>463.4</ele>
        <time>2025-07-19T11:47:28Z</time>
      </trkpt>
      <trkpt lat="42.57793" lon="2.34499">
        <ele>464</ele>
        <time>2025-07-19T11:47:34Z</time>
      </trkpt>
      <trkpt lat="42.57778" lon="2.34482">
        <ele>464.4</ele>
        <time>2025-07-19T11:47:38Z</time>
      </trkpt>
      <trkpt lat="42.57775" lon="2.34479">
        <ele>464.6</ele>
        <time>2025-07-19T11:47:39Z</time>
      </trkpt>
      <trkpt lat="42.57759" lon="2.3446">
        <ele>465</ele>
        <time>2025-07-19T11:47:43Z</time>
      </trkpt>
      <trkpt lat="42.57739" lon="2.34435">
        <ele>465.2</ele>
        <time>2025-07-19T11:47:48Z</time>
      </trkpt>
      <trkpt lat="42.577" lon="2.34386">
        <ele>465.8</ele>
        <time>2025-07-19T11:47:57Z</time>
      </trkpt>
      <trkpt lat="42.57685" lon="2.34367">
        <ele>466</ele>
        <time>2025-07-19T11:48:00Z</time>
      </trkpt>
      <trkpt lat="42.5766" lon="2.34337">
        <ele>465.8</ele>
        <time>2025-07-19T11:48:05Z</time>
      </trkpt>
      <trkpt lat="42.57617" lon="2.34283">
        <ele>466.2</ele>
        <time>2025-07-19T11:48:14Z</time>
      </trkpt>
      <trkpt lat="42.57608" lon="2.34272">
        <ele>466.2</ele>
        <time>2025-07-19T11:48:16Z</time>
      </trkpt>
      <trkpt lat="42.57579" lon="2.34235">
        <ele>466.6</ele>
        <time>2025-07-19T11:48:23Z</time>
      </trkpt>
      <trkpt lat="42.57563" lon="2.34214">
        <ele>466.8</ele>
        <time>2025-07-19T11:48:27Z</time>
      </trkpt>
      <trkpt lat="42.5756" lon="2.34211">
        <ele>467</ele>
        <time>2025-07-19T11:48:28Z</time>
      </trkpt>
      <trkpt lat="42.57538" lon="2.34183">
        <ele>468.2</ele>
        <time>2025-07-19T11:48:34Z</time>
      </trkpt>
      <trkpt lat="42.57531" lon="2.34174">
        <ele>468.8</ele>
        <time>2025-07-19T11:48:36Z</time>
      </trkpt>
      <trkpt lat="42.57522" lon="2.34162">
        <ele>469.4</ele>
        <time>2025-07-19T11:48:39Z</time>
      </trkpt>
      <trkpt lat="42.57506" lon="2.34142">
        <ele>470.8</ele>
        <time>2025-07-19T11:48:44Z</time>
      </trkpt>
      <trkpt lat="42.575" lon="2.34134">
        <ele>471.2</ele>
        <time>2025-07-19T11:48:46Z</time>
      </trkpt>
      <trkpt lat="42.57498" lon="2.34131">
        <ele>471.4</ele>
        <time>2025-07-19T11:48:47Z</time>
      </trkpt>
      <trkpt lat="42.57488" lon="2.34117">
        <ele>472</ele>
        <time>2025-07-19T11:48:50Z</time>
      </trkpt>
      <trkpt lat="42.57472" lon="2.34096">
        <ele>473</ele>
        <time>2025-07-19T11:48:55Z</time>
      </trkpt>
      <trkpt lat="42.57463" lon="2.34082">
        <ele>473.6</ele>
        <time>2025-07-19T11:48:58Z</time>
      </trkpt>
      <trkpt lat="42.57454" lon="2.34068">
        <ele>474.2</ele>
        <time>2025-07-19T11:49:01Z</time>
      </trkpt>
      <trkpt lat="42.57432" lon="2.34032">
        <ele>474.6</ele>
        <time>2025-07-19T11:49:08Z</time>
      </trkpt>
      <trkpt lat="42.57423" lon="2.34015">
        <ele>474.6</ele>
        <time>2025-07-19T11:49:11Z</time>
      </trkpt>
      <trkpt lat="42.57417" lon="2.34004">
        <ele>475</ele>
        <time>2025-07-19T11:49:13Z</time>
      </trkpt>
      <trkpt lat="42.57405" lon="2.33982">
        <ele>475.6</ele>
        <time>2025-07-19T11:49:17Z</time>
      </trkpt>
      <trkpt lat="42.57399" lon="2.33971">
        <ele>476</ele>
        <time>2025-07-19T11:49:19Z</time>
      </trkpt>
      <trkpt lat="42.5738" lon="2.33933">
        <ele>477.2</ele>
        <time>2025-07-19T11:49:26Z</time>
      </trkpt>
      <trkpt lat="42.57375" lon="2.33922">
        <ele>477.6</ele>
        <time>2025-07-19T11:49:28Z</time>
      </trkpt>
      <trkpt lat="42.57367" lon="2.33908">
        <ele>478.4</ele>
        <time>2025-07-19T11:49:31Z</time>
      </trkpt>
      <trkpt lat="42.5735" lon="2.33872">
        <ele>479.6</ele>
        <time>2025-07-19T11:49:38Z</time>
      </trkpt>
      <trkpt lat="42.57337" lon="2.33844">
        <ele>480.8</ele>
        <time>2025-07-19T11:49:44Z</time>
      </trkpt>
      <trkpt lat="42.57328" lon="2.33825">
        <ele>481.2</ele>
        <time>2025-07-19T11:49:48Z</time>
      </trkpt>
      <trkpt lat="42.57317" lon="2.33803">
        <ele>481.8</ele>
        <time>2025-07-19T11:49:53Z</time>
      </trkpt>
      <trkpt lat="42.57306" lon="2.3378">
        <ele>482.6</ele>
        <time>2025-07-19T11:49:58Z</time>
      </trkpt>
      <trkpt lat="42.57296" lon="2.33763">
        <ele>483</ele>
        <time>2025-07-19T11:50:02Z</time>
      </trkpt>
      <trkpt lat="42.57283" lon="2.33744">
        <ele>483.8</ele>
        <time>2025-07-19T11:50:07Z</time>
      </trkpt>
      <trkpt lat="42.57277" lon="2.33737">
        <ele>484.2</ele>
        <time>2025-07-19T11:50:09Z</time>
      </trkpt>
      <trkpt lat="42.57263" lon="2.33724">
        <ele>485</ele>
        <time>2025-07-19T11:50:13Z</time>
      </trkpt>
      <trkpt lat="42.57259" lon="2.33722">
        <ele>485.2</ele>
        <time>2025-07-19T11:50:14Z</time>
      </trkpt>
      <trkpt lat="42.57255" lon="2.3372">
        <ele>485.4</ele>
        <time>2025-07-19T11:50:15Z</time>
      </trkpt>
      <trkpt lat="42.57222" lon="2.33701">
        <ele>486</ele>
        <time>2025-07-19T11:50:23Z</time>
      </trkpt>
      <trkpt lat="42.57215" lon="2.33696">
        <ele>486.2</ele>
        <time>2025-07-19T11:50:25Z</time>
      </trkpt>
      <trkpt lat="42.57211" lon="2.33694">
        <ele>486.4</ele>
        <time>2025-07-19T11:50:26Z</time>
      </trkpt>
      <trkpt lat="42.57196" lon="2.33682">
        <ele>487.6</ele>
        <time>2025-07-19T11:50:30Z</time>
      </trkpt>
      <trkpt lat="42.57189" lon="2.33675">
        <ele>488.2</ele>
        <time>2025-07-19T11:50:32Z</time>
      </trkpt>
      <trkpt lat="42.57184" lon="2.33667">
        <ele>488.6</ele>
        <time>2025-07-19T11:50:34Z</time>
      </trkpt>
      <trkpt lat="42.57181" lon="2.33662">
        <ele>488.6</ele>
        <time>2025-07-19T11:50:35Z</time>
      </trkpt>
      <trkpt lat="42.57171" lon="2.33643">
        <ele>489.2</ele>
        <time>2025-07-19T11:50:39Z</time>
      </trkpt>
      <trkpt lat="42.57166" lon="2.33633">
        <ele>489.8</ele>
        <time>2025-07-19T11:50:41Z</time>
      </trkpt>
      <trkpt lat="42.57156" lon="2.33614">
        <ele>490</ele>
        <time>2025-07-19T11:50:45Z</time>
      </trkpt>
      <trkpt lat="42.57154" lon="2.33609">
        <ele>490.2</ele>
        <time>2025-07-19T11:50:46Z</time>
      </trkpt>
      <trkpt lat="42.57147" lon="2.33596">
        <ele>490.6</ele>
        <time>2025-07-19T11:50:49Z</time>
      </trkpt>
      <trkpt lat="42.57131" lon="2.33565">
        <ele>491.8</ele>
        <time>2025-07-19T11:50:56Z</time>
      </trkpt>
      <trkpt lat="42.57124" lon="2.33553">
        <ele>492.4</ele>
        <time>2025-07-19T11:50:59Z</time>
      </trkpt>
      <trkpt lat="42.57116" lon="2.33541">
        <ele>492.8</ele>
        <time>2025-07-19T11:51:02Z</time>
      </trkpt>
      <trkpt lat="42.57104" lon="2.33526">
        <ele>494</ele>
        <time>2025-07-19T11:51:06Z</time>
      </trkpt>
      <trkpt lat="42.57101" lon="2.33523">
        <ele>494.2</ele>
        <time>2025-07-19T11:51:07Z</time>
      </trkpt>
      <trkpt lat="42.57089" lon="2.33508">
        <ele>495.2</ele>
        <time>2025-07-19T11:51:11Z</time>
      </trkpt>
      <trkpt lat="42.57087" lon="2.33504">
        <ele>495.8</ele>
        <time>2025-07-19T11:51:12Z</time>
      </trkpt>
      <trkpt lat="42.57083" lon="2.33494">
        <ele>496.2</ele>
        <time>2025-07-19T11:51:14Z</time>
      </trkpt>
      <trkpt lat="42.57071" lon="2.33461">
        <ele>497.6</ele>
        <time>2025-07-19T11:51:21Z</time>
      </trkpt>
      <trkpt lat="42.57069" lon="2.33457">
        <ele>497.6</ele>
        <time>2025-07-19T11:51:22Z</time>
      </trkpt>
      <trkpt lat="42.57058" lon="2.33423">
        <ele>498.6</ele>
        <time>2025-07-19T11:51:29Z</time>
      </trkpt>
      <trkpt lat="42.57057" lon="2.33419">
        <ele>498.8</ele>
        <time>2025-07-19T11:51:30Z</time>
      </trkpt>
      <trkpt lat="42.57059" lon="2.33395">
        <ele>499.8</ele>
        <time>2025-07-19T11:51:35Z</time>
      </trkpt>
      <trkpt lat="42.5706" lon="2.33371">
        <ele>500.8</ele>
        <time>2025-07-19T11:51:40Z</time>
      </trkpt>
      <trkpt lat="42.57059" lon="2.33361">
        <ele>501.2</ele>
        <time>2025-07-19T11:51:42Z</time>
      </trkpt>
      <trkpt lat="42.57056" lon="2.33351">
        <ele>501.6</ele>
        <time>2025-07-19T11:51:44Z</time>
      </trkpt>
      <trkpt lat="42.57046" lon="2.33328">
        <ele>502.2</ele>
        <time>2025-07-19T11:51:49Z</time>
      </trkpt>
      <trkpt lat="42.57033" lon="2.33306">
        <ele>502.8</ele>
        <time>2025-07-19T11:51:54Z</time>
      </trkpt>
      <trkpt lat="42.57024" lon="2.33294">
        <ele>503.2</ele>
        <time>2025-07-19T11:51:57Z</time>
      </trkpt>
      <trkpt lat="42.57012" lon="2.33278">
        <ele>503.8</ele>
        <time>2025-07-19T11:52:01Z</time>
      </trkpt>
      <trkpt lat="42.57003" lon="2.33266">
        <ele>504</ele>
        <time>2025-07-19T11:52:04Z</time>
      </trkpt>
      <trkpt lat="42.56991" lon="2.33246">
        <ele>504.2</ele>
        <time>2025-07-19T11:52:09Z</time>
      </trkpt>
      <trkpt lat="42.56986" lon="2.33238">
        <ele>504.6</ele>
        <time>2025-07-19T11:52:11Z</time>
      </trkpt>
      <trkpt lat="42.56978" lon="2.33223">
        <ele>505.8</ele>
        <time>2025-07-19T11:52:15Z</time>
      </trkpt>
      <trkpt lat="42.56974" lon="2.33215">
        <ele>506.4</ele>
        <time>2025-07-19T11:52:17Z</time>
      </trkpt>
      <trkpt lat="42.56971" lon="2.33208">
        <ele>507</ele>
        <time>2025-07-19T11:52:19Z</time>
      </trkpt>
      <trkpt lat="42.5696" lon="2.33185">
        <ele>508</ele>
        <time>2025-07-19T11:52:24Z</time>
      </trkpt>
      <trkpt lat="42.56955" lon="2.33175">
        <ele>508.2</ele>
        <time>2025-07-19T11:52:26Z</time>
      </trkpt>
      <trkpt lat="42.56947" lon="2.33153">
        <ele>509</ele>
        <time>2025-07-19T11:52:30Z</time>
      </trkpt>
      <trkpt lat="42.56946" lon="2.33147">
        <ele>509.2</ele>
        <time>2025-07-19T11:52:31Z</time>
      </trkpt>
      <trkpt lat="42.56942" lon="2.33136">
        <ele>509.4</ele>
        <time>2025-07-19T11:52:33Z</time>
      </trkpt>
      <trkpt lat="42.56934" lon="2.33116">
        <ele>510.2</ele>
        <time>2025-07-19T11:52:37Z</time>
      </trkpt>
      <trkpt lat="42.56933" lon="2.33111">
        <ele>510.2</ele>
        <time>2025-07-19T11:52:38Z</time>
      </trkpt>
      <trkpt lat="42.56931" lon="2.33105">
        <ele>510.6</ele>
        <time>2025-07-19T11:52:39Z</time>
      </trkpt>
      <trkpt lat="42.56924" lon="2.33092">
        <ele>511</ele>
        <time>2025-07-19T11:52:42Z</time>
      </trkpt>
      <trkpt lat="42.56919" lon="2.33083">
        <ele>511.2</ele>
        <time>2025-07-19T11:52:44Z</time>
      </trkpt>
      <trkpt lat="42.56916" lon="2.33079">
        <ele>511.2</ele>
        <time>2025-07-19T11:52:45Z</time>
      </trkpt>
      <trkpt lat="42.569" lon="2.3305">
        <ele>511.8</ele>
        <time>2025-07-19T11:52:51Z</time>
      </trkpt>
      <trkpt lat="42.56898" lon="2.33044">
        <ele>511.8</ele>
        <time>2025-07-19T11:52:52Z</time>
      </trkpt>
      <trkpt lat="42.56888" lon="2.32998">
        <ele>511.8</ele>
        <time>2025-07-19T11:52:59Z</time>
      </trkpt>
      <trkpt lat="42.56889" lon="2.32954">
        <ele>511.8</ele>
        <time>2025-07-19T11:53:05Z</time>
      </trkpt>
      <trkpt lat="42.56894" lon="2.32906">
        <ele>512.2</ele>
        <time>2025-07-19T11:53:12Z</time>
      </trkpt>
      <trkpt lat="42.56895" lon="2.32891">
        <ele>512.6</ele>
        <time>2025-07-19T11:53:14Z</time>
      </trkpt>
      <trkpt lat="42.56897" lon="2.32838">
        <ele>513.2</ele>
        <time>2025-07-19T11:53:21Z</time>
      </trkpt>
      <trkpt lat="42.56898" lon="2.3283">
        <ele>513.4</ele>
        <time>2025-07-19T11:53:22Z</time>
      </trkpt>
      <trkpt lat="42.56899" lon="2.32822">
        <ele>513.4</ele>
        <time>2025-07-19T11:53:23Z</time>
      </trkpt>
      <trkpt lat="42.56906" lon="2.328">
        <ele>513.6</ele>
        <time>2025-07-19T11:53:26Z</time>
      </trkpt>
      <trkpt lat="42.56911" lon="2.32786">
        <ele>513.6</ele>
        <time>2025-07-19T11:53:28Z</time>
      </trkpt>
      <trkpt lat="42.56914" lon="2.32771">
        <ele>513.6</ele>
        <time>2025-07-19T11:53:30Z</time>
      </trkpt>
      <trkpt lat="42.56915" lon="2.32763">
        <ele>513.6</ele>
        <time>2025-07-19T11:53:31Z</time>
      </trkpt>
      <trkpt lat="42.56915" lon="2.32755">
        <ele>513.8</ele>
        <time>2025-07-19T11:53:32Z</time>
      </trkpt>
      <trkpt lat="42.56912" lon="2.32705">
        <ele>514</ele>
        <time>2025-07-19T11:53:38Z</time>
      </trkpt>
      <trkpt lat="42.56909" lon="2.32657">
        <ele>514.4</ele>
        <time>2025-07-19T11:53:44Z</time>
      </trkpt>
      <trkpt lat="42.56907" lon="2.32626">
        <ele>514.6</ele>
        <time>2025-07-19T11:53:48Z</time>
      </trkpt>
      <trkpt lat="42.56902" lon="2.32556">
        <ele>515.6</ele>
        <time>2025-07-19T11:53:57Z</time>
      </trkpt>
      <trkpt lat="42.56901" lon="2.32542">
        <ele>515.8</ele>
        <time>2025-07-19T11:53:59Z</time>
      </trkpt>
      <trkpt lat="42.56897" lon="2.32511">
        <ele>516.6</ele>
        <time>2025-07-19T11:54:04Z</time>
      </trkpt>
      <trkpt lat="42.56895" lon="2.32505">
        <ele>516.8</ele>
        <time>2025-07-19T11:54:05Z</time>
      </trkpt>
      <trkpt lat="42.56886" lon="2.32479">
        <ele>517.8</ele>
        <time>2025-07-19T11:54:10Z</time>
      </trkpt>
      <trkpt lat="42.56868" lon="2.32438">
        <ele>518.8</ele>
        <time>2025-07-19T11:54:18Z</time>
      </trkpt>
      <trkpt lat="42.56867" lon="2.32432">
        <ele>519.2</ele>
        <time>2025-07-19T11:54:19Z</time>
      </trkpt>
      <trkpt lat="42.56866" lon="2.32426">
        <ele>519.2</ele>
        <time>2025-07-19T11:54:20Z</time>
      </trkpt>
      <trkpt lat="42.56865" lon="2.32415">
        <ele>519.6</ele>
        <time>2025-07-19T11:54:22Z</time>
      </trkpt>
      <trkpt lat="42.56866" lon="2.32409">
        <ele>519.6</ele>
        <time>2025-07-19T11:54:23Z</time>
      </trkpt>
      <trkpt lat="42.56868" lon="2.32404">
        <ele>519.8</ele>
        <time>2025-07-19T11:54:24Z</time>
      </trkpt>
      <trkpt lat="42.5687" lon="2.32399">
        <ele>520</ele>
        <time>2025-07-19T11:54:25Z</time>
      </trkpt>
      <trkpt lat="42.56873" lon="2.32394">
        <ele>520</ele>
        <time>2025-07-19T11:54:26Z</time>
      </trkpt>
      <trkpt lat="42.56877" lon="2.32391">
        <ele>520.2</ele>
        <time>2025-07-19T11:54:27Z</time>
      </trkpt>
      <trkpt lat="42.56881" lon="2.32388">
        <ele>520.2</ele>
        <time>2025-07-19T11:54:28Z</time>
      </trkpt>
      <trkpt lat="42.56897" lon="2.32378">
        <ele>521.2</ele>
        <time>2025-07-19T11:54:32Z</time>
      </trkpt>
      <trkpt lat="42.56901" lon="2.32375">
        <ele>521.4</ele>
        <time>2025-07-19T11:54:33Z</time>
      </trkpt>
      <trkpt lat="42.56905" lon="2.32371">
        <ele>521.6</ele>
        <time>2025-07-19T11:54:34Z</time>
      </trkpt>
      <trkpt lat="42.56911" lon="2.32363">
        <ele>521.8</ele>
        <time>2025-07-19T11:54:36Z</time>
      </trkpt>
      <trkpt lat="42.56914" lon="2.32354">
        <ele>522.4</ele>
        <time>2025-07-19T11:54:38Z</time>
      </trkpt>
      <trkpt lat="42.56914" lon="2.32344">
        <ele>522.6</ele>
        <time>2025-07-19T11:54:40Z</time>
      </trkpt>
      <trkpt lat="42.56912" lon="2.32338">
        <ele>522.8</ele>
        <time>2025-07-19T11:54:41Z</time>
      </trkpt>
      <trkpt lat="42.5691" lon="2.32333">
        <ele>523</ele>
        <time>2025-07-19T11:54:42Z</time>
      </trkpt>
      <trkpt lat="42.56904" lon="2.32326">
        <ele>523.4</ele>
        <time>2025-07-19T11:54:44Z</time>
      </trkpt>
      <trkpt lat="42.569" lon="2.32323">
        <ele>523.4</ele>
        <time>2025-07-19T11:54:45Z</time>
      </trkpt>
      <trkpt lat="42.56896" lon="2.32321">
        <ele>523.8</ele>
        <time>2025-07-19T11:54:46Z</time>
      </trkpt>
      <trkpt lat="42.56885" lon="2.32314">
        <ele>524.6</ele>
        <time>2025-07-19T11:54:49Z</time>
      </trkpt>
      <trkpt lat="42.56878" lon="2.32309">
        <ele>524.8</ele>
        <time>2025-07-19T11:54:51Z</time>
      </trkpt>
      <trkpt lat="42.56861" lon="2.32298">
        <ele>525.6</ele>
        <time>2025-07-19T11:54:56Z</time>
      </trkpt>
      <trkpt lat="42.56851" lon="2.32289">
        <ele>526.2</ele>
        <time>2025-07-19T11:54:59Z</time>
      </trkpt>
      <trkpt lat="42.56845" lon="2.32276">
        <ele>526.6</ele>
        <time>2025-07-19T11:55:02Z</time>
      </trkpt>
      <trkpt lat="42.56844" lon="2.32266">
        <ele>526.8</ele>
        <time>2025-07-19T11:55:04Z</time>
      </trkpt>
      <trkpt lat="42.56839" lon="2.32225">
        <ele>527.8</ele>
        <time>2025-07-19T11:55:12Z</time>
      </trkpt>
      <trkpt lat="42.56838" lon="2.3222">
        <ele>527.8</ele>
        <time>2025-07-19T11:55:13Z</time>
      </trkpt>
      <trkpt lat="42.56827" lon="2.32196">
        <ele>528.8</ele>
        <time>2025-07-19T11:55:18Z</time>
      </trkpt>
      <trkpt lat="42.5682" lon="2.32179">
        <ele>529.2</ele>
        <time>2025-07-19T11:55:21Z</time>
      </trkpt>
      <trkpt lat="42.5681" lon="2.32152">
        <ele>529.4</ele>
        <time>2025-07-19T11:55:25Z</time>
      </trkpt>
      <trkpt lat="42.56809" lon="2.32145">
        <ele>529.4</ele>
        <time>2025-07-19T11:55:26Z</time>
      </trkpt>
      <trkpt lat="42.56808" lon="2.32139">
        <ele>529.6</ele>
        <time>2025-07-19T11:55:27Z</time>
      </trkpt>
      <trkpt lat="42.56809" lon="2.32107">
        <ele>529.6</ele>
        <time>2025-07-19T11:55:31Z</time>
      </trkpt>
      <trkpt lat="42.56819" lon="2.32046">
        <ele>529.2</ele>
        <time>2025-07-19T11:55:39Z</time>
      </trkpt>
      <trkpt lat="42.56821" lon="2.32022">
        <ele>529.2</ele>
        <time>2025-07-19T11:55:42Z</time>
      </trkpt>
      <trkpt lat="42.5682" lon="2.31998">
        <ele>529</ele>
        <time>2025-07-19T11:55:45Z</time>
      </trkpt>
      <trkpt lat="42.56819" lon="2.3199">
        <ele>529</ele>
        <time>2025-07-19T11:55:46Z</time>
      </trkpt>
      <trkpt lat="42.56819" lon="2.31975">
        <ele>528.8</ele>
        <time>2025-07-19T11:55:48Z</time>
      </trkpt>
      <trkpt lat="42.5682" lon="2.3196">
        <ele>528.8</ele>
        <time>2025-07-19T11:55:50Z</time>
      </trkpt>
      <trkpt lat="42.56825" lon="2.31918">
        <ele>529.2</ele>
        <time>2025-07-19T11:55:56Z</time>
      </trkpt>
      <trkpt lat="42.56825" lon="2.31911">
        <ele>529.2</ele>
        <time>2025-07-19T11:55:57Z</time>
      </trkpt>
      <trkpt lat="42.56824" lon="2.31905">
        <ele>529.4</ele>
        <time>2025-07-19T11:55:58Z</time>
      </trkpt>
      <trkpt lat="42.56821" lon="2.31891">
        <ele>529.8</ele>
        <time>2025-07-19T11:56:00Z</time>
      </trkpt>
      <trkpt lat="42.56819" lon="2.31887">
        <ele>529.8</ele>
        <time>2025-07-19T11:56:01Z</time>
      </trkpt>
      <trkpt lat="42.56794" lon="2.31821">
        <ele>530.4</ele>
        <time>2025-07-19T11:56:12Z</time>
      </trkpt>
      <trkpt lat="42.56788" lon="2.31804">
        <ele>530.8</ele>
        <time>2025-07-19T11:56:15Z</time>
      </trkpt>
      <trkpt lat="42.56779" lon="2.3177">
        <ele>531.4</ele>
        <time>2025-07-19T11:56:21Z</time>
      </trkpt>
      <trkpt lat="42.56773" lon="2.31746">
        <ele>531.8</ele>
        <time>2025-07-19T11:56:25Z</time>
      </trkpt>
      <trkpt lat="42.56764" lon="2.31718">
        <ele>532</ele>
        <time>2025-07-19T11:56:30Z</time>
      </trkpt>
      <trkpt lat="42.56757" lon="2.31697">
        <ele>532.8</ele>
        <time>2025-07-19T11:56:34Z</time>
      </trkpt>
      <trkpt lat="42.56739" lon="2.31659">
        <ele>533.2</ele>
        <time>2025-07-19T11:56:41Z</time>
      </trkpt>
      <trkpt lat="42.56724" lon="2.31628">
        <ele>533.8</ele>
        <time>2025-07-19T11:56:47Z</time>
      </trkpt>
      <trkpt lat="42.56715" lon="2.31614">
        <ele>534.2</ele>
        <time>2025-07-19T11:56:50Z</time>
      </trkpt>
      <trkpt lat="42.56704" lon="2.31593">
        <ele>535</ele>
        <time>2025-07-19T11:56:54Z</time>
      </trkpt>
      <trkpt lat="42.56691" lon="2.31567">
        <ele>535.4</ele>
        <time>2025-07-19T11:56:59Z</time>
      </trkpt>
      <trkpt lat="42.56681" lon="2.31548">
        <ele>535.8</ele>
        <time>2025-07-19T11:57:03Z</time>
      </trkpt>
      <trkpt lat="42.5667" lon="2.31528">
        <ele>536.2</ele>
        <time>2025-07-19T11:57:07Z</time>
      </trkpt>
      <trkpt lat="42.56658" lon="2.31506">
        <ele>537</ele>
        <time>2025-07-19T11:57:12Z</time>
      </trkpt>
      <trkpt lat="42.56652" lon="2.31495">
        <ele>537.6</ele>
        <time>2025-07-19T11:57:15Z</time>
      </trkpt>
      <trkpt lat="42.56645" lon="2.31482">
        <ele>538.2</ele>
        <time>2025-07-19T11:57:18Z</time>
      </trkpt>
      <trkpt lat="42.56633" lon="2.31462">
        <ele>539.4</ele>
        <time>2025-07-19T11:57:23Z</time>
      </trkpt>
      <trkpt lat="42.56628" lon="2.31453">
        <ele>539.8</ele>
        <time>2025-07-19T11:57:25Z</time>
      </trkpt>
      <trkpt lat="42.56621" lon="2.31442">
        <ele>540.2</ele>
        <time>2025-07-19T11:57:28Z</time>
      </trkpt>
      <trkpt lat="42.56613" lon="2.31426">
        <ele>541</ele>
        <time>2025-07-19T11:57:32Z</time>
      </trkpt>
      <trkpt lat="42.56608" lon="2.31419">
        <ele>541.4</ele>
        <time>2025-07-19T11:57:34Z</time>
      </trkpt>
      <trkpt lat="42.56594" lon="2.31399">
        <ele>542.2</ele>
        <time>2025-07-19T11:57:40Z</time>
      </trkpt>
      <trkpt lat="42.5659" lon="2.31392">
        <ele>542.4</ele>
        <time>2025-07-19T11:57:42Z</time>
      </trkpt>
      <trkpt lat="42.56579" lon="2.3137">
        <ele>543.6</ele>
        <time>2025-07-19T11:57:48Z</time>
      </trkpt>
      <trkpt lat="42.56566" lon="2.31348">
        <ele>544.6</ele>
        <time>2025-07-19T11:57:54Z</time>
      </trkpt>
      <trkpt lat="42.56556" lon="2.3133">
        <ele>545.2</ele>
        <time>2025-07-19T11:57:59Z</time>
      </trkpt>
      <trkpt lat="42.56547" lon="2.31309">
        <ele>545.6</ele>
        <time>2025-07-19T11:58:04Z</time>
      </trkpt>
      <trkpt lat="42.56538" lon="2.31289">
        <ele>546.8</ele>
        <time>2025-07-19T11:58:09Z</time>
      </trkpt>
      <trkpt lat="42.56533" lon="2.31277">
        <ele>547.8</ele>
        <time>2025-07-19T11:58:12Z</time>
      </trkpt>
      <trkpt lat="42.56525" lon="2.31261">
        <ele>548.6</ele>
        <time>2025-07-19T11:58:16Z</time>
      </trkpt>
      <trkpt lat="42.5652" lon="2.31249">
        <ele>549.2</ele>
        <time>2025-07-19T11:58:19Z</time>
      </trkpt>
      <trkpt lat="42.56509" lon="2.31224">
        <ele>550.2</ele>
        <time>2025-07-19T11:58:25Z</time>
      </trkpt>
      <trkpt lat="42.56506" lon="2.31216">
        <ele>550.6</ele>
        <time>2025-07-19T11:58:27Z</time>
      </trkpt>
      <trkpt lat="42.565" lon="2.31203">
        <ele>551.2</ele>
        <time>2025-07-19T11:58:30Z</time>
      </trkpt>
      <trkpt lat="42.56493" lon="2.31187">
        <ele>552.2</ele>
        <time>2025-07-19T11:58:34Z</time>
      </trkpt>
      <trkpt lat="42.56484" lon="2.31168">
        <ele>553.4</ele>
        <time>2025-07-19T11:58:39Z</time>
      </trkpt>
      <trkpt lat="42.56482" lon="2.31164">
        <ele>553.4</ele>
        <time>2025-07-19T11:58:40Z</time>
      </trkpt>
      <trkpt lat="42.56471" lon="2.31139">
        <ele>554.6</ele>
        <time>2025-07-19T11:58:46Z</time>
      </trkpt>
      <trkpt lat="42.56463" lon="2.3112">
        <ele>555.6</ele>
        <time>2025-07-19T11:58:51Z</time>
      </trkpt>
      <trkpt lat="42.56461" lon="2.31115">
        <ele>555.8</ele>
        <time>2025-07-19T11:58:52Z</time>
      </trkpt>
      <trkpt lat="42.56455" lon="2.31104">
        <ele>556.8</ele>
        <time>2025-07-19T11:58:55Z</time>
      </trkpt>
      <trkpt lat="42.56446" lon="2.31089">
        <ele>557.6</ele>
        <time>2025-07-19T11:58:59Z</time>
      </trkpt>
      <trkpt lat="42.56439" lon="2.31078">
        <ele>557.8</ele>
        <time>2025-07-19T11:59:02Z</time>
      </trkpt>
      <trkpt lat="42.56429" lon="2.3106">
        <ele>559</ele>
        <time>2025-07-19T11:59:07Z</time>
      </trkpt>
      <trkpt lat="42.56417" lon="2.31042">
        <ele>559.6</ele>
        <time>2025-07-19T11:59:12Z</time>
      </trkpt>
      <trkpt lat="42.56412" lon="2.31035">
        <ele>560</ele>
        <time>2025-07-19T11:59:14Z</time>
      </trkpt>
      <trkpt lat="42.56398" lon="2.31014">
        <ele>560.8</ele>
        <time>2025-07-19T11:59:20Z</time>
      </trkpt>
      <trkpt lat="42.56393" lon="2.31007">
        <ele>561.4</ele>
        <time>2025-07-19T11:59:22Z</time>
      </trkpt>
      <trkpt lat="42.56388" lon="2.31">
        <ele>562</ele>
        <time>2025-07-19T11:59:24Z</time>
      </trkpt>
      <trkpt lat="42.56372" lon="2.30975">
        <ele>563</ele>
        <time>2025-07-19T11:59:31Z</time>
      </trkpt>
      <trkpt lat="42.56359" lon="2.30952">
        <ele>564.2</ele>
        <time>2025-07-19T11:59:37Z</time>
      </trkpt>
      <trkpt lat="42.56349" lon="2.30932">
        <ele>565.2</ele>
        <time>2025-07-19T11:59:42Z</time>
      </trkpt>
      <trkpt lat="42.56339" lon="2.30907">
        <ele>566.4</ele>
        <time>2025-07-19T11:59:48Z</time>
      </trkpt>
      <trkpt lat="42.56332" lon="2.30888">
        <ele>567.2</ele>
        <time>2025-07-19T11:59:52Z</time>
      </trkpt>
      <trkpt lat="42.56327" lon="2.30874">
        <ele>567.6</ele>
        <time>2025-07-19T11:59:55Z</time>
      </trkpt>
      <trkpt lat="42.56317" lon="2.30843">
        <ele>568.6</ele>
        <time>2025-07-19T12:00:02Z</time>
      </trkpt>
      <trkpt lat="42.56315" lon="2.30839">
        <ele>568.6</ele>
        <time>2025-07-19T12:00:03Z</time>
      </trkpt>
      <trkpt lat="42.56302" lon="2.308">
        <ele>570</ele>
        <time>2025-07-19T12:00:11Z</time>
      </trkpt>
      <trkpt lat="42.56285" lon="2.30752">
        <ele>571</ele>
        <time>2025-07-19T12:00:21Z</time>
      </trkpt>
      <trkpt lat="42.56284" lon="2.30747">
        <ele>571.2</ele>
        <time>2025-07-19T12:00:22Z</time>
      </trkpt>
      <trkpt lat="42.56268" lon="2.3071">
        <ele>571.8</ele>
        <time>2025-07-19T12:00:30Z</time>
      </trkpt>
      <trkpt lat="42.56259" lon="2.30693">
        <ele>572</ele>
        <time>2025-07-19T12:00:34Z</time>
      </trkpt>
      <trkpt lat="42.5625" lon="2.30673">
        <ele>572</ele>
        <time>2025-07-19T12:00:38Z</time>
      </trkpt>
      <trkpt lat="42.56226" lon="2.30627">
        <ele>572.2</ele>
        <time>2025-07-19T12:00:47Z</time>
      </trkpt>
      <trkpt lat="42.56223" lon="2.30621">
        <ele>572.2</ele>
        <time>2025-07-19T12:00:48Z</time>
      </trkpt>
      <trkpt lat="42.56213" lon="2.30599">
        <ele>572.4</ele>
        <time>2025-07-19T12:00:52Z</time>
      </trkpt>
      <trkpt lat="42.56192" lon="2.30544">
        <ele>572.6</ele>
        <time>2025-07-19T12:01:00Z</time>
      </trkpt>
      <trkpt lat="42.56172" lon="2.30486">
        <ele>572.4</ele>
        <time>2025-07-19T12:01:07Z</time>
      </trkpt>
      <trkpt lat="42.56156" lon="2.3043">
        <ele>572</ele>
        <time>2025-07-19T12:01:13Z</time>
      </trkpt>
      <trkpt lat="42.56141" lon="2.3036">
        <ele>570.6</ele>
        <time>2025-07-19T12:01:19Z</time>
      </trkpt>
      <trkpt lat="42.56139" lon="2.30348">
        <ele>570.4</ele>
        <time>2025-07-19T12:01:20Z</time>
      </trkpt>
      <trkpt lat="42.56133" lon="2.30294">
        <ele>569.6</ele>
        <time>2025-07-19T12:01:24Z</time>
      </trkpt>
      <trkpt lat="42.56131" lon="2.30263">
        <ele>568.8</ele>
        <time>2025-07-19T12:01:26Z</time>
      </trkpt>
      <trkpt lat="42.5613" lon="2.30233">
        <ele>568.4</ele>
        <time>2025-07-19T12:01:28Z</time>
      </trkpt>
      <trkpt lat="42.56131" lon="2.30187">
        <ele>566.8</ele>
        <time>2025-07-19T12:01:31Z</time>
      </trkpt>
      <trkpt lat="42.56134" lon="2.30139">
        <ele>565.4</ele>
        <time>2025-07-19T12:01:34Z</time>
      </trkpt>
      <trkpt lat="42.56136" lon="2.3011">
        <ele>564.2</ele>
        <time>2025-07-19T12:01:36Z</time>
      </trkpt>
      <trkpt lat="42.56138" lon="2.30075">
        <ele>563.4</ele>
        <time>2025-07-19T12:01:38Z</time>
      </trkpt>
      <trkpt lat="42.56139" lon="2.30059">
        <ele>563</ele>
        <time>2025-07-19T12:01:39Z</time>
      </trkpt>
      <trkpt lat="42.56141" lon="2.30017">
        <ele>561.6</ele>
        <time>2025-07-19T12:01:42Z</time>
      </trkpt>
      <trkpt lat="42.56141" lon="2.29986">
        <ele>561.2</ele>
        <time>2025-07-19T12:01:44Z</time>
      </trkpt>
      <trkpt lat="42.56137" lon="2.29909">
        <ele>561</ele>
        <time>2025-07-19T12:01:50Z</time>
      </trkpt>
      <trkpt lat="42.56128" lon="2.29847">
        <ele>562.2</ele>
        <time>2025-07-19T12:01:56Z</time>
      </trkpt>
      <trkpt lat="42.56123" lon="2.29806">
        <ele>562.8</ele>
        <time>2025-07-19T12:02:00Z</time>
      </trkpt>
      <trkpt lat="42.56122" lon="2.29777">
        <ele>563.6</ele>
        <time>2025-07-19T12:02:03Z</time>
      </trkpt>
      <trkpt lat="42.56123" lon="2.29768">
        <ele>563.8</ele>
        <time>2025-07-19T12:02:04Z</time>
      </trkpt>
      <trkpt lat="42.56124" lon="2.29759">
        <ele>564</ele>
        <time>2025-07-19T12:02:05Z</time>
      </trkpt>
      <trkpt lat="42.56129" lon="2.29734">
        <ele>564.2</ele>
        <time>2025-07-19T12:02:08Z</time>
      </trkpt>
      <trkpt lat="42.56137" lon="2.29682">
        <ele>564.8</ele>
        <time>2025-07-19T12:02:14Z</time>
      </trkpt>
      <trkpt lat="42.5614" lon="2.29667">
        <ele>564.8</ele>
        <time>2025-07-19T12:02:16Z</time>
      </trkpt>
      <trkpt lat="42.56143" lon="2.29659">
        <ele>564.8</ele>
        <time>2025-07-19T12:02:17Z</time>
      </trkpt>
      <trkpt lat="42.56145" lon="2.29652">
        <ele>565</ele>
        <time>2025-07-19T12:02:18Z</time>
      </trkpt>
      <trkpt lat="42.56159" lon="2.29607">
        <ele>566</ele>
        <time>2025-07-19T12:02:24Z</time>
      </trkpt>
      <trkpt lat="42.56161" lon="2.296">
        <ele>566.4</ele>
        <time>2025-07-19T12:02:25Z</time>
      </trkpt>
      <trkpt lat="42.56166" lon="2.29562">
        <ele>567</ele>
        <time>2025-07-19T12:02:30Z</time>
      </trkpt>
      <trkpt lat="42.56167" lon="2.29548">
        <ele>567.4</ele>
        <time>2025-07-19T12:02:32Z</time>
      </trkpt>
      <trkpt lat="42.56166" lon="2.29519">
        <ele>567.8</ele>
        <time>2025-07-19T12:02:36Z</time>
      </trkpt>
      <trkpt lat="42.56165" lon="2.29506">
        <ele>568</ele>
        <time>2025-07-19T12:02:38Z</time>
      </trkpt>
      <trkpt lat="42.56164" lon="2.29483">
        <ele>568.4</ele>
        <time>2025-07-19T12:02:41Z</time>
      </trkpt>
      <trkpt lat="42.56165" lon="2.29471">
        <ele>568.8</ele>
        <time>2025-07-19T12:02:43Z</time>
      </trkpt>
      <trkpt lat="42.56166" lon="2.29458">
        <ele>569</ele>
        <time>2025-07-19T12:02:45Z</time>
      </trkpt>
      <trkpt lat="42.56167" lon="2.29445">
        <ele>569.4</ele>
        <time>2025-07-19T12:02:47Z</time>
      </trkpt>
      <trkpt lat="42.56168" lon="2.29425">
        <ele>569.6</ele>
        <time>2025-07-19T12:02:50Z</time>
      </trkpt>
      <trkpt lat="42.56168" lon="2.29412">
        <ele>569.8</ele>
        <time>2025-07-19T12:02:52Z</time>
      </trkpt>
      <trkpt lat="42.56167" lon="2.29365">
        <ele>570.8</ele>
        <time>2025-07-19T12:02:59Z</time>
      </trkpt>
      <trkpt lat="42.56166" lon="2.29344">
        <ele>570.8</ele>
        <time>2025-07-19T12:03:02Z</time>
      </trkpt>
      <trkpt lat="42.56169" lon="2.29321">
        <ele>570.8</ele>
        <time>2025-07-19T12:03:05Z</time>
      </trkpt>
      <trkpt lat="42.56177" lon="2.29277">
        <ele>571</ele>
        <time>2025-07-19T12:03:11Z</time>
      </trkpt>
      <trkpt lat="42.56181" lon="2.29251">
        <ele>571</ele>
        <time>2025-07-19T12:03:14Z</time>
      </trkpt>
      <trkpt lat="42.56185" lon="2.29229">
        <ele>571.2</ele>
        <time>2025-07-19T12:03:17Z</time>
      </trkpt>
      <trkpt lat="42.56195" lon="2.29206">
        <ele>571.2</ele>
        <time>2025-07-19T12:03:20Z</time>
      </trkpt>
      <trkpt lat="42.56198" lon="2.29198">
        <ele>571.2</ele>
        <time>2025-07-19T12:03:21Z</time>
      </trkpt>
      <trkpt lat="42.56201" lon="2.29184">
        <ele>571.2</ele>
        <time>2025-07-19T12:03:23Z</time>
      </trkpt>
      <trkpt lat="42.562" lon="2.29175">
        <ele>571.2</ele>
        <time>2025-07-19T12:03:24Z</time>
      </trkpt>
      <trkpt lat="42.56198" lon="2.29166">
        <ele>571.4</ele>
        <time>2025-07-19T12:03:25Z</time>
      </trkpt>
      <trkpt lat="42.56193" lon="2.29154">
        <ele>571.8</ele>
        <time>2025-07-19T12:03:27Z</time>
      </trkpt>
      <trkpt lat="42.5619" lon="2.29147">
        <ele>572</ele>
        <time>2025-07-19T12:03:28Z</time>
      </trkpt>
      <trkpt lat="42.56183" lon="2.29125">
        <ele>572</ele>
        <time>2025-07-19T12:03:31Z</time>
      </trkpt>
      <trkpt lat="42.56182" lon="2.29119">
        <ele>572.2</ele>
        <time>2025-07-19T12:03:32Z</time>
      </trkpt>
      <trkpt lat="42.5618" lon="2.29088">
        <ele>572.8</ele>
        <time>2025-07-19T12:03:37Z</time>
      </trkpt>
      <trkpt lat="42.5618" lon="2.29084">
        <ele>572.8</ele>
        <time>2025-07-19T12:03:38Z</time>
      </trkpt>
      <trkpt lat="42.5618" lon="2.29067">
        <ele>573.8</ele>
        <time>2025-07-19T12:03:41Z</time>
      </trkpt>
      <trkpt lat="42.56179" lon="2.29057">
        <ele>574</ele>
        <time>2025-07-19T12:03:43Z</time>
      </trkpt>
      <trkpt lat="42.56179" lon="2.29052">
        <ele>574.2</ele>
        <time>2025-07-19T12:03:44Z</time>
      </trkpt>
      <trkpt lat="42.56176" lon="2.29035">
        <ele>574.6</ele>
        <time>2025-07-19T12:03:47Z</time>
      </trkpt>
      <trkpt lat="42.56172" lon="2.29001">
        <ele>575.2</ele>
        <time>2025-07-19T12:03:54Z</time>
      </trkpt>
      <trkpt lat="42.56171" lon="2.28996">
        <ele>575.4</ele>
        <time>2025-07-19T12:03:55Z</time>
      </trkpt>
      <trkpt lat="42.56168" lon="2.28962">
        <ele>576.4</ele>
        <time>2025-07-19T12:04:02Z</time>
      </trkpt>
      <trkpt lat="42.56169" lon="2.28937">
        <ele>577.6</ele>
        <time>2025-07-19T12:04:07Z</time>
      </trkpt>
      <trkpt lat="42.5617" lon="2.28932">
        <ele>577.8</ele>
        <time>2025-07-19T12:04:08Z</time>
      </trkpt>
      <trkpt lat="42.5617" lon="2.28905">
        <ele>578.6</ele>
        <time>2025-07-19T12:04:13Z</time>
      </trkpt>
      <trkpt lat="42.56169" lon="2.28899">
        <ele>578.8</ele>
        <time>2025-07-19T12:04:14Z</time>
      </trkpt>
      <trkpt lat="42.56166" lon="2.28882">
        <ele>579.2</ele>
        <time>2025-07-19T12:04:17Z</time>
      </trkpt>
      <trkpt lat="42.56159" lon="2.28866">
        <ele>579.4</ele>
        <time>2025-07-19T12:04:20Z</time>
      </trkpt>
      <trkpt lat="42.56157" lon="2.28861">
        <ele>579.4</ele>
        <time>2025-07-19T12:04:21Z</time>
      </trkpt>
      <trkpt lat="42.5615" lon="2.28849">
        <ele>579.6</ele>
        <time>2025-07-19T12:04:23Z</time>
      </trkpt>
      <trkpt lat="42.56139" lon="2.28827">
        <ele>580</ele>
        <time>2025-07-19T12:04:27Z</time>
      </trkpt>
      <trkpt lat="42.56112" lon="2.28774">
        <ele>580.6</ele>
        <time>2025-07-19T12:04:36Z</time>
      </trkpt>
      <trkpt lat="42.56109" lon="2.28768">
        <ele>580.6</ele>
        <time>2025-07-19T12:04:37Z</time>
      </trkpt>
      <trkpt lat="42.56089" lon="2.28725">
        <ele>581.4</ele>
        <time>2025-07-19T12:04:45Z</time>
      </trkpt>
      <trkpt lat="42.56086" lon="2.28721">
        <ele>581.6</ele>
        <time>2025-07-19T12:04:46Z</time>
      </trkpt>
      <trkpt lat="42.5607" lon="2.28697">
        <ele>582.8</ele>
        <time>2025-07-19T12:04:52Z</time>
      </trkpt>
      <trkpt lat="42.56065" lon="2.28688">
        <ele>583.2</ele>
        <time>2025-07-19T12:04:54Z</time>
      </trkpt>
      <trkpt lat="42.56057" lon="2.28675">
        <ele>583.8</ele>
        <time>2025-07-19T12:04:57Z</time>
      </trkpt>
      <trkpt lat="42.5604" lon="2.28644">
        <ele>585</ele>
        <time>2025-07-19T12:05:04Z</time>
      </trkpt>
      <trkpt lat="42.56025" lon="2.28612">
        <ele>586</ele>
        <time>2025-07-19T12:05:11Z</time>
      </trkpt>
      <trkpt lat="42.56022" lon="2.28608">
        <ele>586.2</ele>
        <time>2025-07-19T12:05:12Z</time>
      </trkpt>
      <trkpt lat="42.56005" lon="2.28584">
        <ele>587</ele>
        <time>2025-07-19T12:05:19Z</time>
      </trkpt>
      <trkpt lat="42.56003" lon="2.2858">
        <ele>587.2</ele>
        <time>2025-07-19T12:05:20Z</time>
      </trkpt>
      <trkpt lat="42.55989" lon="2.28562">
        <ele>588.2</ele>
        <time>2025-07-19T12:05:25Z</time>
      </trkpt>
      <trkpt lat="42.55976" lon="2.28544">
        <ele>588.4</ele>
        <time>2025-07-19T12:05:30Z</time>
      </trkpt>
      <trkpt lat="42.55959" lon="2.28524">
        <ele>589</ele>
        <time>2025-07-19T12:05:36Z</time>
      </trkpt>
      <trkpt lat="42.55947" lon="2.28511">
        <ele>589.6</ele>
        <time>2025-07-19T12:05:40Z</time>
      </trkpt>
      <trkpt lat="42.55934" lon="2.28499">
        <ele>590</ele>
        <time>2025-07-19T12:05:44Z</time>
      </trkpt>
      <trkpt lat="42.55915" lon="2.2848">
        <ele>590.8</ele>
        <time>2025-07-19T12:05:50Z</time>
      </trkpt>
      <trkpt lat="42.55912" lon="2.28477">
        <ele>591.2</ele>
        <time>2025-07-19T12:05:51Z</time>
      </trkpt>
      <trkpt lat="42.55895" lon="2.28458">
        <ele>592.2</ele>
        <time>2025-07-19T12:05:57Z</time>
      </trkpt>
      <trkpt lat="42.55879" lon="2.28441">
        <ele>593.4</ele>
        <time>2025-07-19T12:06:02Z</time>
      </trkpt>
      <trkpt lat="42.55862" lon="2.28418">
        <ele>594.2</ele>
        <time>2025-07-19T12:06:08Z</time>
      </trkpt>
      <trkpt lat="42.55859" lon="2.28414">
        <ele>594.4</ele>
        <time>2025-07-19T12:06:09Z</time>
      </trkpt>
      <trkpt lat="42.55835" lon="2.28381">
        <ele>595.6</ele>
        <time>2025-07-19T12:06:17Z</time>
      </trkpt>
      <trkpt lat="42.55833" lon="2.28376">
        <ele>595.8</ele>
        <time>2025-07-19T12:06:18Z</time>
      </trkpt>
      <trkpt lat="42.55817" lon="2.28334">
        <ele>596.6</ele>
        <time>2025-07-19T12:06:26Z</time>
      </trkpt>
      <trkpt lat="42.55815" lon="2.28328">
        <ele>596.8</ele>
        <time>2025-07-19T12:06:27Z</time>
      </trkpt>
      <trkpt lat="42.55812" lon="2.28305">
        <ele>597</ele>
        <time>2025-07-19T12:06:31Z</time>
      </trkpt>
      <trkpt lat="42.55812" lon="2.28288">
        <ele>597.4</ele>
        <time>2025-07-19T12:06:34Z</time>
      </trkpt>
      <trkpt lat="42.55815" lon="2.2827">
        <ele>597.6</ele>
        <time>2025-07-19T12:06:37Z</time>
      </trkpt>
      <trkpt lat="42.55818" lon="2.28249">
        <ele>598.4</ele>
        <time>2025-07-19T12:06:41Z</time>
      </trkpt>
      <trkpt lat="42.55819" lon="2.28242">
        <ele>598.6</ele>
        <time>2025-07-19T12:06:42Z</time>
      </trkpt>
      <trkpt lat="42.55818" lon="2.28236">
        <ele>598.8</ele>
        <time>2025-07-19T12:06:43Z</time>
      </trkpt>
      <trkpt lat="42.55817" lon="2.28221">
        <ele>599.6</ele>
        <time>2025-07-19T12:06:46Z</time>
      </trkpt>
      <trkpt lat="42.55816" lon="2.28214">
        <ele>599.6</ele>
        <time>2025-07-19T12:06:47Z</time>
      </trkpt>
      <trkpt lat="42.55815" lon="2.28208">
        <ele>600</ele>
        <time>2025-07-19T12:06:48Z</time>
      </trkpt>
      <trkpt lat="42.55813" lon="2.28203">
        <ele>600</ele>
        <time>2025-07-19T12:06:49Z</time>
      </trkpt>
      <trkpt lat="42.55808" lon="2.28188">
        <ele>600.6</ele>
        <time>2025-07-19T12:06:52Z</time>
      </trkpt>
      <trkpt lat="42.55797" lon="2.28163">
        <ele>601</ele>
        <time>2025-07-19T12:06:57Z</time>
      </trkpt>
      <trkpt lat="42.55786" lon="2.28144">
        <ele>601</ele>
        <time>2025-07-19T12:07:01Z</time>
      </trkpt>
      <trkpt lat="42.55775" lon="2.28127">
        <ele>601.4</ele>
        <time>2025-07-19T12:07:05Z</time>
      </trkpt>
      <trkpt lat="42.55767" lon="2.28117">
        <ele>602</ele>
        <time>2025-07-19T12:07:08Z</time>
      </trkpt>
      <trkpt lat="42.55763" lon="2.28113">
        <ele>602</ele>
        <time>2025-07-19T12:07:09Z</time>
      </trkpt>
      <trkpt lat="42.55749" lon="2.28101">
        <ele>602.4</ele>
        <time>2025-07-19T12:07:13Z</time>
      </trkpt>
      <trkpt lat="42.55733" lon="2.28086">
        <ele>602.6</ele>
        <time>2025-07-19T12:07:17Z</time>
      </trkpt>
      <trkpt lat="42.55721" lon="2.28068">
        <ele>603</ele>
        <time>2025-07-19T12:07:21Z</time>
      </trkpt>
      <trkpt lat="42.5571" lon="2.28048">
        <ele>603.6</ele>
        <time>2025-07-19T12:07:25Z</time>
      </trkpt>
      <trkpt lat="42.55701" lon="2.28026">
        <ele>604.2</ele>
        <time>2025-07-19T12:07:29Z</time>
      </trkpt>
      <trkpt lat="42.55688" lon="2.2799">
        <ele>604.8</ele>
        <time>2025-07-19T12:07:35Z</time>
      </trkpt>
      <trkpt lat="42.55683" lon="2.27979">
        <ele>605.2</ele>
        <time>2025-07-19T12:07:37Z</time>
      </trkpt>
      <trkpt lat="42.55667" lon="2.27935">
        <ele>605.4</ele>
        <time>2025-07-19T12:07:44Z</time>
      </trkpt>
      <trkpt lat="42.55649" lon="2.27887">
        <ele>605.6</ele>
        <time>2025-07-19T12:07:51Z</time>
      </trkpt>
      <trkpt lat="42.55638" lon="2.27859">
        <ele>606.2</ele>
        <time>2025-07-19T12:07:55Z</time>
      </trkpt>
      <trkpt lat="42.55625" lon="2.27823">
        <ele>606.6</ele>
        <time>2025-07-19T12:08:00Z</time>
      </trkpt>
      <trkpt lat="42.55618" lon="2.278">
        <ele>607</ele>
        <time>2025-07-19T12:08:03Z</time>
      </trkpt>
      <trkpt lat="42.55615" lon="2.27784">
        <ele>607.2</ele>
        <time>2025-07-19T12:08:05Z</time>
      </trkpt>
      <trkpt lat="42.55614" lon="2.27777">
        <ele>607.4</ele>
        <time>2025-07-19T12:08:06Z</time>
      </trkpt>
      <trkpt lat="42.55614" lon="2.27759">
        <ele>607.4</ele>
        <time>2025-07-19T12:08:08Z</time>
      </trkpt>
      <trkpt lat="42.55616" lon="2.27738">
        <ele>607.4</ele>
        <time>2025-07-19T12:08:11Z</time>
      </trkpt>
      <trkpt lat="42.55621" lon="2.27691">
        <ele>607.2</ele>
        <time>2025-07-19T12:08:18Z</time>
      </trkpt>
      <trkpt lat="42.55623" lon="2.27681">
        <ele>607.2</ele>
        <time>2025-07-19T12:08:21Z</time>
      </trkpt>
      <trkpt lat="42.55623" lon="2.2768">
        <ele>607.2</ele>
        <time>2025-07-19T12:08:22Z</time>
      </trkpt>
      <trkpt lat="42.55624" lon="2.27678">
        <ele>607.6</ele>
        <time>2025-07-19T12:08:27Z</time>
      </trkpt>
      <trkpt lat="42.55624" lon="2.27675">
        <ele>607.6</ele>
        <time>2025-07-19T12:08:32Z</time>
      </trkpt>
      <trkpt lat="42.55628" lon="2.2766">
        <ele>606.8</ele>
        <time>2025-07-19T12:15:24Z</time>
      </trkpt>
      <trkpt lat="42.55628" lon="2.2766">
        <ele>606.8</ele>
        <time>2025-07-19T12:15:25Z</time>
      </trkpt>
      <trkpt lat="42.55626" lon="2.27655">
        <ele>606</ele>
        <time>2025-07-19T12:16:58Z</time>
      </trkpt>
      <trkpt lat="42.5562" lon="2.2763">
        <ele>605.8</ele>
        <time>2025-07-19T12:17:03Z</time>
      </trkpt>
      <trkpt lat="42.55607" lon="2.27587">
        <ele>605.8</ele>
        <time>2025-07-19T12:17:10Z</time>
      </trkpt>
      <trkpt lat="42.55593" lon="2.27535">
        <ele>606</ele>
        <time>2025-07-19T12:17:18Z</time>
      </trkpt>
      <trkpt lat="42.55587" lon="2.27508">
        <ele>606.6</ele>
        <time>2025-07-19T12:17:22Z</time>
      </trkpt>
      <trkpt lat="42.55584" lon="2.27481">
        <ele>606.8</ele>
        <time>2025-07-19T12:17:26Z</time>
      </trkpt>
      <trkpt lat="42.55582" lon="2.27459">
        <ele>606.8</ele>
        <time>2025-07-19T12:17:29Z</time>
      </trkpt>
      <trkpt lat="42.55579" lon="2.27426">
        <ele>606.8</ele>
        <time>2025-07-19T12:17:34Z</time>
      </trkpt>
      <trkpt lat="42.55578" lon="2.27406">
        <ele>606.8</ele>
        <time>2025-07-19T12:17:37Z</time>
      </trkpt>
      <trkpt lat="42.55573" lon="2.27353">
        <ele>607.4</ele>
        <time>2025-07-19T12:17:45Z</time>
      </trkpt>
      <trkpt lat="42.55573" lon="2.27347">
        <ele>607.4</ele>
        <time>2025-07-19T12:17:46Z</time>
      </trkpt>
      <trkpt lat="42.55571" lon="2.27333">
        <ele>607.4</ele>
        <time>2025-07-19T12:17:48Z</time>
      </trkpt>
      <trkpt lat="42.5557" lon="2.27314">
        <ele>607.6</ele>
        <time>2025-07-19T12:17:51Z</time>
      </trkpt>
      <trkpt lat="42.5557" lon="2.27307">
        <ele>607.6</ele>
        <time>2025-07-19T12:17:52Z</time>
      </trkpt>
      <trkpt lat="42.5557" lon="2.27301">
        <ele>607.8</ele>
        <time>2025-07-19T12:17:53Z</time>
      </trkpt>
      <trkpt lat="42.55572" lon="2.27272">
        <ele>608.2</ele>
        <time>2025-07-19T12:17:57Z</time>
      </trkpt>
      <trkpt lat="42.55573" lon="2.27251">
        <ele>608.2</ele>
        <time>2025-07-19T12:18:00Z</time>
      </trkpt>
      <trkpt lat="42.5557" lon="2.27235">
        <ele>608</ele>
        <time>2025-07-19T12:18:02Z</time>
      </trkpt>
      <trkpt lat="42.55564" lon="2.27213">
        <ele>607.2</ele>
        <time>2025-07-19T12:18:05Z</time>
      </trkpt>
      <trkpt lat="42.55562" lon="2.27198">
        <ele>606.4</ele>
        <time>2025-07-19T12:18:07Z</time>
      </trkpt>
      <trkpt lat="42.5556" lon="2.2719">
        <ele>606</ele>
        <time>2025-07-19T12:18:08Z</time>
      </trkpt>
      <trkpt lat="42.55556" lon="2.27174">
        <ele>605.4</ele>
        <time>2025-07-19T12:18:10Z</time>
      </trkpt>
      <trkpt lat="42.55551" lon="2.27162">
        <ele>604.8</ele>
        <time>2025-07-19T12:18:12Z</time>
      </trkpt>
      <trkpt lat="42.55545" lon="2.27147">
        <ele>604.4</ele>
        <time>2025-07-19T12:18:14Z</time>
      </trkpt>
      <trkpt lat="42.55542" lon="2.2714">
        <ele>604.2</ele>
        <time>2025-07-19T12:18:15Z</time>
      </trkpt>
      <trkpt lat="42.55539" lon="2.27127">
        <ele>603.8</ele>
        <time>2025-07-19T12:18:17Z</time>
      </trkpt>
      <trkpt lat="42.55536" lon="2.27112">
        <ele>603</ele>
        <time>2025-07-19T12:18:19Z</time>
      </trkpt>
      <trkpt lat="42.55532" lon="2.27094">
        <ele>602</ele>
        <time>2025-07-19T12:18:22Z</time>
      </trkpt>
      <trkpt lat="42.5553" lon="2.27088">
        <ele>601.8</ele>
        <time>2025-07-19T12:18:23Z</time>
      </trkpt>
      <trkpt lat="42.55527" lon="2.27081">
        <ele>601.6</ele>
        <time>2025-07-19T12:18:24Z</time>
      </trkpt>
      <trkpt lat="42.55519" lon="2.2706">
        <ele>600.8</ele>
        <time>2025-07-19T12:18:28Z</time>
      </trkpt>
      <trkpt lat="42.55513" lon="2.27045">
        <ele>600.6</ele>
        <time>2025-07-19T12:18:31Z</time>
      </trkpt>
      <trkpt lat="42.55498" lon="2.27007">
        <ele>601.2</ele>
        <time>2025-07-19T12:18:39Z</time>
      </trkpt>
      <trkpt lat="42.55488" lon="2.26981">
        <ele>601.4</ele>
        <time>2025-07-19T12:18:45Z</time>
      </trkpt>
      <trkpt lat="42.55478" lon="2.26948">
        <ele>601.8</ele>
        <time>2025-07-19T12:18:52Z</time>
      </trkpt>
      <trkpt lat="42.55476" lon="2.26943">
        <ele>601.8</ele>
        <time>2025-07-19T12:18:53Z</time>
      </trkpt>
      <trkpt lat="42.55472" lon="2.26921">
        <ele>602</ele>
        <time>2025-07-19T12:18:57Z</time>
      </trkpt>
      <trkpt lat="42.55471" lon="2.26903">
        <ele>602</ele>
        <time>2025-07-19T12:19:00Z</time>
      </trkpt>
      <trkpt lat="42.55468" lon="2.26887">
        <ele>602.2</ele>
        <time>2025-07-19T12:19:03Z</time>
      </trkpt>
      <trkpt lat="42.55457" lon="2.26872">
        <ele>602.4</ele>
        <time>2025-07-19T12:19:07Z</time>
      </trkpt>
      <trkpt lat="42.55452" lon="2.26866">
        <ele>602.6</ele>
        <time>2025-07-19T12:19:09Z</time>
      </trkpt>
      <trkpt lat="42.55439" lon="2.26854">
        <ele>603</ele>
        <time>2025-07-19T12:19:14Z</time>
      </trkpt>
      <trkpt lat="42.55436" lon="2.26852">
        <ele>603</ele>
        <time>2025-07-19T12:19:15Z</time>
      </trkpt>
      <trkpt lat="42.55427" lon="2.26846">
        <ele>603.2</ele>
        <time>2025-07-19T12:19:19Z</time>
      </trkpt>
      <trkpt lat="42.55426" lon="2.26844">
        <ele>603.2</ele>
        <time>2025-07-19T12:19:22Z</time>
      </trkpt>
      <trkpt lat="42.55433" lon="2.26853">
        <ele>604</ele>
        <time>2025-07-19T12:19:34Z</time>
      </trkpt>
      <trkpt lat="42.55447" lon="2.26868">
        <ele>604.2</ele>
        <time>2025-07-19T12:19:39Z</time>
      </trkpt>
      <trkpt lat="42.55465" lon="2.26888">
        <ele>603.8</ele>
        <time>2025-07-19T12:19:44Z</time>
      </trkpt>
      <trkpt lat="42.55469" lon="2.26899">
        <ele>603.6</ele>
        <time>2025-07-19T12:19:46Z</time>
      </trkpt>
      <trkpt lat="42.55471" lon="2.26913">
        <ele>603.6</ele>
        <time>2025-07-19T12:19:48Z</time>
      </trkpt>
      <trkpt lat="42.55473" lon="2.26927">
        <ele>603.4</ele>
        <time>2025-07-19T12:19:50Z</time>
      </trkpt>
      <trkpt lat="42.55477" lon="2.2694">
        <ele>603.6</ele>
        <time>2025-07-19T12:19:52Z</time>
      </trkpt>
      <trkpt lat="42.55484" lon="2.26973">
        <ele>603.6</ele>
        <time>2025-07-19T12:19:57Z</time>
      </trkpt>
      <trkpt lat="42.55489" lon="2.26984">
        <ele>603.6</ele>
        <time>2025-07-19T12:19:59Z</time>
      </trkpt>
      <trkpt lat="42.55503" lon="2.27017">
        <ele>603.4</ele>
        <time>2025-07-19T12:20:05Z</time>
      </trkpt>
      <trkpt lat="42.55517" lon="2.27057">
        <ele>603.2</ele>
        <time>2025-07-19T12:20:12Z</time>
      </trkpt>
      <trkpt lat="42.55526" lon="2.27079">
        <ele>602.8</ele>
        <time>2025-07-19T12:20:16Z</time>
      </trkpt>
      <trkpt lat="42.55529" lon="2.27093">
        <ele>602.6</ele>
        <time>2025-07-19T12:20:19Z</time>
      </trkpt>
      <trkpt lat="42.55529" lon="2.27102">
        <ele>602</ele>
        <time>2025-07-19T12:20:23Z</time>
      </trkpt>
      <trkpt lat="42.55529" lon="2.27102">
        <ele>601.8</ele>
        <time>2025-07-19T12:20:25Z</time>
      </trkpt>
      <trkpt lat="42.55532" lon="2.27103">
        <ele>601</ele>
        <time>2025-07-19T12:23:15Z</time>
      </trkpt>
      <trkpt lat="42.55533" lon="2.27102">
        <ele>601</ele>
        <time>2025-07-19T12:23:16Z</time>
      </trkpt>
      <trkpt lat="42.55534" lon="2.27091">
        <ele>601</ele>
        <time>2025-07-19T12:23:23Z</time>
      </trkpt>
      <trkpt lat="42.55536" lon="2.27087">
        <ele>601</ele>
        <time>2025-07-19T12:23:26Z</time>
      </trkpt>
      <trkpt lat="42.55536" lon="2.27085">
        <ele>601</ele>
        <time>2025-07-19T12:23:29Z</time>
      </trkpt>
      <trkpt lat="42.55536" lon="2.27085">
        <ele>601</ele>
        <time>2025-07-19T12:23:30Z</time>
      </trkpt>
      <trkpt lat="42.55531" lon="2.27083">
        <ele>600.6</ele>
        <time>2025-07-19T12:25:59Z</time>
      </trkpt>
      <trkpt lat="42.55528" lon="2.27079">
        <ele>600.6</ele>
        <time>2025-07-19T12:26:01Z</time>
      </trkpt>
      <trkpt lat="42.55517" lon="2.27062">
        <ele>600.6</ele>
        <time>2025-07-19T12:26:06Z</time>
      </trkpt>
      <trkpt lat="42.55507" lon="2.27036">
        <ele>600.6</ele>
        <time>2025-07-19T12:26:12Z</time>
      </trkpt>
      <trkpt lat="42.55497" lon="2.27009">
        <ele>601.8</ele>
        <time>2025-07-19T12:26:18Z</time>
      </trkpt>
      <trkpt lat="42.55494" lon="2.27001">
        <ele>602.2</ele>
        <time>2025-07-19T12:26:20Z</time>
      </trkpt>
      <trkpt lat="42.55482" lon="2.26963">
        <ele>602.6</ele>
        <time>2025-07-19T12:26:28Z</time>
      </trkpt>
      <trkpt lat="42.55475" lon="2.26934">
        <ele>603</ele>
        <time>2025-07-19T12:26:34Z</time>
      </trkpt>
      <trkpt lat="42.55473" lon="2.26923">
        <ele>603.2</ele>
        <time>2025-07-19T12:26:36Z</time>
      </trkpt>
      <trkpt lat="42.55473" lon="2.2691">
        <ele>603.2</ele>
        <time>2025-07-19T12:26:38Z</time>
      </trkpt>
      <trkpt lat="42.5547" lon="2.26894">
        <ele>603.2</ele>
        <time>2025-07-19T12:26:41Z</time>
      </trkpt>
      <trkpt lat="42.55467" lon="2.26884">
        <ele>603.4</ele>
        <time>2025-07-19T12:26:43Z</time>
      </trkpt>
      <trkpt lat="42.55458" lon="2.2687">
        <ele>603.6</ele>
        <time>2025-07-19T12:26:46Z</time>
      </trkpt>
      <trkpt lat="42.55436" lon="2.26851">
        <ele>603.8</ele>
        <time>2025-07-19T12:26:52Z</time>
      </trkpt>
      <trkpt lat="42.55431" lon="2.26847">
        <ele>604</ele>
        <time>2025-07-19T12:26:53Z</time>
      </trkpt>
      <trkpt lat="42.55424" lon="2.26841">
        <ele>604</ele>
        <time>2025-07-19T12:26:55Z</time>
      </trkpt>
      <trkpt lat="42.55412" lon="2.26829">
        <ele>604</ele>
        <time>2025-07-19T12:26:58Z</time>
      </trkpt>
      <trkpt lat="42.55407" lon="2.2682">
        <ele>604.2</ele>
        <time>2025-07-19T12:27:00Z</time>
      </trkpt>
      <trkpt lat="42.55402" lon="2.26809">
        <ele>604.4</ele>
        <time>2025-07-19T12:27:02Z</time>
      </trkpt>
      <trkpt lat="42.55399" lon="2.26805">
        <ele>604.4</ele>
        <time>2025-07-19T12:27:03Z</time>
      </trkpt>
      <trkpt lat="42.55397" lon="2.26801">
        <ele>604.6</ele>
        <time>2025-07-19T12:27:04Z</time>
      </trkpt>
      <trkpt lat="42.55389" lon="2.26793">
        <ele>604.6</ele>
        <time>2025-07-19T12:27:06Z</time>
      </trkpt>
      <trkpt lat="42.55372" lon="2.26785">
        <ele>604.6</ele>
        <time>2025-07-19T12:27:10Z</time>
      </trkpt>
      <trkpt lat="42.55367" lon="2.26782">
        <ele>604.8</ele>
        <time>2025-07-19T12:27:11Z</time>
      </trkpt>
      <trkpt lat="42.55344" lon="2.2676">
        <ele>605.2</ele>
        <time>2025-07-19T12:27:18Z</time>
      </trkpt>
      <trkpt lat="42.55341" lon="2.26752">
        <ele>605.8</ele>
        <time>2025-07-19T12:27:20Z</time>
      </trkpt>
      <trkpt lat="42.55341" lon="2.26748">
        <ele>605.8</ele>
        <time>2025-07-19T12:27:21Z</time>
      </trkpt>
      <trkpt lat="42.55343" lon="2.26735">
        <ele>606.4</ele>
        <time>2025-07-19T12:27:24Z</time>
      </trkpt>
      <trkpt lat="42.55345" lon="2.26722">
        <ele>606.8</ele>
        <time>2025-07-19T12:27:27Z</time>
      </trkpt>
      <trkpt lat="42.55346" lon="2.26712">
        <ele>607.6</ele>
        <time>2025-07-19T12:27:30Z</time>
      </trkpt>
      <trkpt lat="42.55347" lon="2.2671">
        <ele>608</ele>
        <time>2025-07-19T12:27:31Z</time>
      </trkpt>
      <trkpt lat="42.5535" lon="2.267">
        <ele>608.6</ele>
        <time>2025-07-19T12:27:34Z</time>
      </trkpt>
      <trkpt lat="42.55352" lon="2.26692">
        <ele>609.2</ele>
        <time>2025-07-19T12:27:36Z</time>
      </trkpt>
      <trkpt lat="42.55355" lon="2.26686">
        <ele>609.4</ele>
        <time>2025-07-19T12:27:38Z</time>
      </trkpt>
      <trkpt lat="42.55361" lon="2.26659">
        <ele>610.2</ele>
        <time>2025-07-19T12:27:45Z</time>
      </trkpt>
      <trkpt lat="42.55365" lon="2.26636">
        <ele>610.8</ele>
        <time>2025-07-19T12:27:51Z</time>
      </trkpt>
      <trkpt lat="42.55368" lon="2.2662">
        <ele>611.2</ele>
        <time>2025-07-19T12:27:55Z</time>
      </trkpt>
      <trkpt lat="42.55371" lon="2.26599">
        <ele>611.6</ele>
        <time>2025-07-19T12:28:00Z</time>
      </trkpt>
      <trkpt lat="42.55381" lon="2.26575">
        <ele>612</ele>
        <time>2025-07-19T12:28:06Z</time>
      </trkpt>
      <trkpt lat="42.55385" lon="2.26568">
        <ele>612.4</ele>
        <time>2025-07-19T12:28:08Z</time>
      </trkpt>
      <trkpt lat="42.55393" lon="2.26551">
        <ele>612.4</ele>
        <time>2025-07-19T12:28:12Z</time>
      </trkpt>
      <trkpt lat="42.55401" lon="2.26515">
        <ele>613</ele>
        <time>2025-07-19T12:28:19Z</time>
      </trkpt>
      <trkpt lat="42.55406" lon="2.26481">
        <ele>613</ele>
        <time>2025-07-19T12:28:26Z</time>
      </trkpt>
      <trkpt lat="42.5541" lon="2.26449">
        <ele>612.4</ele>
        <time>2025-07-19T12:28:32Z</time>
      </trkpt>
      <trkpt lat="42.55412" lon="2.26405">
        <ele>612</ele>
        <time>2025-07-19T12:28:38Z</time>
      </trkpt>
      <trkpt lat="42.55415" lon="2.26392">
        <ele>612</ele>
        <time>2025-07-19T12:28:40Z</time>
      </trkpt>
      <trkpt lat="42.5542" lon="2.26381">
        <ele>611.8</ele>
        <time>2025-07-19T12:28:42Z</time>
      </trkpt>
      <trkpt lat="42.55431" lon="2.26366">
        <ele>612</ele>
        <time>2025-07-19T12:28:46Z</time>
      </trkpt>
      <trkpt lat="42.55444" lon="2.26349">
        <ele>612.8</ele>
        <time>2025-07-19T12:28:52Z</time>
      </trkpt>
      <trkpt lat="42.55447" lon="2.26347">
        <ele>613</ele>
        <time>2025-07-19T12:28:53Z</time>
      </trkpt>
      <trkpt lat="42.5546" lon="2.26335">
        <ele>614</ele>
        <time>2025-07-19T12:28:59Z</time>
      </trkpt>
      <trkpt lat="42.55466" lon="2.26326">
        <ele>615</ele>
        <time>2025-07-19T12:29:03Z</time>
      </trkpt>
      <trkpt lat="42.55469" lon="2.26317">
        <ele>615.6</ele>
        <time>2025-07-19T12:29:06Z</time>
      </trkpt>
      <trkpt lat="42.55471" lon="2.2631">
        <ele>616</ele>
        <time>2025-07-19T12:29:08Z</time>
      </trkpt>
      <trkpt lat="42.55473" lon="2.26292">
        <ele>616.4</ele>
        <time>2025-07-19T12:29:13Z</time>
      </trkpt>
      <trkpt lat="42.55474" lon="2.26279">
        <ele>616.8</ele>
        <time>2025-07-19T12:29:17Z</time>
      </trkpt>
      <trkpt lat="42.55476" lon="2.26261">
        <ele>617.2</ele>
        <time>2025-07-19T12:29:22Z</time>
      </trkpt>
      <trkpt lat="42.55483" lon="2.26236">
        <ele>617.8</ele>
        <time>2025-07-19T12:29:30Z</time>
      </trkpt>
      <trkpt lat="42.555" lon="2.2622">
        <ele>618.4</ele>
        <time>2025-07-19T12:29:38Z</time>
      </trkpt>
      <trkpt lat="42.55518" lon="2.26211">
        <ele>618.4</ele>
        <time>2025-07-19T12:29:46Z</time>
      </trkpt>
      <trkpt lat="42.55523" lon="2.2621">
        <ele>618.6</ele>
        <time>2025-07-19T12:29:48Z</time>
      </trkpt>
      <trkpt lat="42.55536" lon="2.26208">
        <ele>619.6</ele>
        <time>2025-07-19T12:29:53Z</time>
      </trkpt>
      <trkpt lat="42.55555" lon="2.26201">
        <ele>620.8</ele>
        <time>2025-07-19T12:30:01Z</time>
      </trkpt>
      <trkpt lat="42.55566" lon="2.26195">
        <ele>621.8</ele>
        <time>2025-07-19T12:30:06Z</time>
      </trkpt>
      <trkpt lat="42.55573" lon="2.2619">
        <ele>622.4</ele>
        <time>2025-07-19T12:30:09Z</time>
      </trkpt>
      <trkpt lat="42.5558" lon="2.26186">
        <ele>622.8</ele>
        <time>2025-07-19T12:30:12Z</time>
      </trkpt>
      <trkpt lat="42.55595" lon="2.26175">
        <ele>623.4</ele>
        <time>2025-07-19T12:30:18Z</time>
      </trkpt>
      <trkpt lat="42.55599" lon="2.26172">
        <ele>623.8</ele>
        <time>2025-07-19T12:30:20Z</time>
      </trkpt>
      <trkpt lat="42.55613" lon="2.26164">
        <ele>624.6</ele>
        <time>2025-07-19T12:30:26Z</time>
      </trkpt>
      <trkpt lat="42.55615" lon="2.26162">
        <ele>624.8</ele>
        <time>2025-07-19T12:30:27Z</time>
      </trkpt>
      <trkpt lat="42.55635" lon="2.26141">
        <ele>625.8</ele>
        <time>2025-07-19T12:30:37Z</time>
      </trkpt>
      <trkpt lat="42.55652" lon="2.26131">
        <ele>626</ele>
        <time>2025-07-19T12:30:44Z</time>
      </trkpt>
      <trkpt lat="42.55657" lon="2.2613">
        <ele>626</ele>
        <time>2025-07-19T12:30:46Z</time>
      </trkpt>
      <trkpt lat="42.55676" lon="2.26126">
        <ele>626.4</ele>
        <time>2025-07-19T12:30:53Z</time>
      </trkpt>
      <trkpt lat="42.55682" lon="2.26123">
        <ele>626.6</ele>
        <time>2025-07-19T12:30:55Z</time>
      </trkpt>
      <trkpt lat="42.55697" lon="2.26114">
        <ele>627</ele>
        <time>2025-07-19T12:31:01Z</time>
      </trkpt>
      <trkpt lat="42.5571" lon="2.26105">
        <ele>627.4</ele>
        <time>2025-07-19T12:31:06Z</time>
      </trkpt>
      <trkpt lat="42.55715" lon="2.26102">
        <ele>627.8</ele>
        <time>2025-07-19T12:31:08Z</time>
      </trkpt>
      <trkpt lat="42.55726" lon="2.261">
        <ele>628.6</ele>
        <time>2025-07-19T12:31:13Z</time>
      </trkpt>
      <trkpt lat="42.55733" lon="2.26101">
        <ele>629.2</ele>
        <time>2025-07-19T12:31:16Z</time>
      </trkpt>
      <trkpt lat="42.55738" lon="2.26102">
        <ele>629.8</ele>
        <time>2025-07-19T12:31:18Z</time>
      </trkpt>
      <trkpt lat="42.55748" lon="2.26098">
        <ele>630.4</ele>
        <time>2025-07-19T12:31:22Z</time>
      </trkpt>
      <trkpt lat="42.55751" lon="2.26097">
        <ele>630.6</ele>
        <time>2025-07-19T12:31:23Z</time>
      </trkpt>
      <trkpt lat="42.55766" lon="2.26088">
        <ele>631.4</ele>
        <time>2025-07-19T12:31:29Z</time>
      </trkpt>
      <trkpt lat="42.5577" lon="2.26085">
        <ele>631.6</ele>
        <time>2025-07-19T12:31:31Z</time>
      </trkpt>
      <trkpt lat="42.55782" lon="2.26072">
        <ele>632.8</ele>
        <time>2025-07-19T12:31:36Z</time>
      </trkpt>
      <trkpt lat="42.55784" lon="2.2607">
        <ele>632.8</ele>
        <time>2025-07-19T12:31:37Z</time>
      </trkpt>
      <trkpt lat="42.55798" lon="2.26051">
        <ele>633.6</ele>
        <time>2025-07-19T12:31:44Z</time>
      </trkpt>
      <trkpt lat="42.55802" lon="2.26047">
        <ele>633.8</ele>
        <time>2025-07-19T12:31:46Z</time>
      </trkpt>
      <trkpt lat="42.55812" lon="2.26034">
        <ele>634.8</ele>
        <time>2025-07-19T12:31:51Z</time>
      </trkpt>
      <trkpt lat="42.55816" lon="2.26029">
        <ele>635.2</ele>
        <time>2025-07-19T12:31:53Z</time>
      </trkpt>
      <trkpt lat="42.55825" lon="2.26019">
        <ele>635.8</ele>
        <time>2025-07-19T12:31:57Z</time>
      </trkpt>
      <trkpt lat="42.55836" lon="2.26008">
        <ele>636.2</ele>
        <time>2025-07-19T12:32:02Z</time>
      </trkpt>
      <trkpt lat="42.55843" lon="2.26004">
        <ele>636.8</ele>
        <time>2025-07-19T12:32:05Z</time>
      </trkpt>
      <trkpt lat="42.55851" lon="2.26">
        <ele>637.2</ele>
        <time>2025-07-19T12:32:08Z</time>
      </trkpt>
      <trkpt lat="42.55869" lon="2.25992">
        <ele>637.8</ele>
        <time>2025-07-19T12:32:15Z</time>
      </trkpt>
      <trkpt lat="42.55882" lon="2.25992">
        <ele>638.8</ele>
        <time>2025-07-19T12:32:20Z</time>
      </trkpt>
      <trkpt lat="42.55884" lon="2.25992">
        <ele>639</ele>
        <time>2025-07-19T12:32:21Z</time>
      </trkpt>
      <trkpt lat="42.55893" lon="2.25996">
        <ele>639.8</ele>
        <time>2025-07-19T12:32:25Z</time>
      </trkpt>
      <trkpt lat="42.55899" lon="2.25997">
        <ele>640.4</ele>
        <time>2025-07-19T12:32:27Z</time>
      </trkpt>
      <trkpt lat="42.55907" lon="2.25996">
        <ele>640.8</ele>
        <time>2025-07-19T12:32:30Z</time>
      </trkpt>
      <trkpt lat="42.55911" lon="2.25994">
        <ele>641</ele>
        <time>2025-07-19T12:32:32Z</time>
      </trkpt>
      <trkpt lat="42.55915" lon="2.25991">
        <ele>641</ele>
        <time>2025-07-19T12:32:34Z</time>
      </trkpt>
      <trkpt lat="42.55926" lon="2.25986">
        <ele>641.8</ele>
        <time>2025-07-19T12:32:38Z</time>
      </trkpt>
      <trkpt lat="42.55929" lon="2.25984">
        <ele>642</ele>
        <time>2025-07-19T12:32:39Z</time>
      </trkpt>
      <trkpt lat="42.55936" lon="2.2598">
        <ele>643</ele>
        <time>2025-07-19T12:32:42Z</time>
      </trkpt>
      <trkpt lat="42.55945" lon="2.25975">
        <ele>643.8</ele>
        <time>2025-07-19T12:32:46Z</time>
      </trkpt>
      <trkpt lat="42.55958" lon="2.25966">
        <ele>644.6</ele>
        <time>2025-07-19T12:32:51Z</time>
      </trkpt>
      <trkpt lat="42.55962" lon="2.25964">
        <ele>644.8</ele>
        <time>2025-07-19T12:32:52Z</time>
      </trkpt>
      <trkpt lat="42.55976" lon="2.25958">
        <ele>645.2</ele>
        <time>2025-07-19T12:32:57Z</time>
      </trkpt>
      <trkpt lat="42.5599" lon="2.25955">
        <ele>645.6</ele>
        <time>2025-07-19T12:33:02Z</time>
      </trkpt>
      <trkpt lat="42.55992" lon="2.25956">
        <ele>645.6</ele>
        <time>2025-07-19T12:33:03Z</time>
      </trkpt>
      <trkpt lat="42.56006" lon="2.25958">
        <ele>646.6</ele>
        <time>2025-07-19T12:33:09Z</time>
      </trkpt>
      <trkpt lat="42.56008" lon="2.25958">
        <ele>646.8</ele>
        <time>2025-07-19T12:33:10Z</time>
      </trkpt>
      <trkpt lat="42.56021" lon="2.25953">
        <ele>648</ele>
        <time>2025-07-19T12:33:15Z</time>
      </trkpt>
      <trkpt lat="42.56024" lon="2.25951">
        <ele>648.2</ele>
        <time>2025-07-19T12:33:16Z</time>
      </trkpt>
      <trkpt lat="42.56034" lon="2.25947">
        <ele>648.8</ele>
        <time>2025-07-19T12:33:20Z</time>
      </trkpt>
      <trkpt lat="42.56049" lon="2.25942">
        <ele>649.6</ele>
        <time>2025-07-19T12:33:25Z</time>
      </trkpt>
      <trkpt lat="42.5606" lon="2.25936">
        <ele>650.2</ele>
        <time>2025-07-19T12:33:29Z</time>
      </trkpt>
      <trkpt lat="42.56065" lon="2.25934">
        <ele>650.6</ele>
        <time>2025-07-19T12:33:31Z</time>
      </trkpt>
      <trkpt lat="42.5607" lon="2.25936">
        <ele>651.2</ele>
        <time>2025-07-19T12:33:33Z</time>
      </trkpt>
      <trkpt lat="42.56075" lon="2.25936">
        <ele>651.6</ele>
        <time>2025-07-19T12:33:35Z</time>
      </trkpt>
      <trkpt lat="42.56077" lon="2.25937">
        <ele>651.8</ele>
        <time>2025-07-19T12:33:36Z</time>
      </trkpt>
      <trkpt lat="42.56083" lon="2.25938">
        <ele>652.2</ele>
        <time>2025-07-19T12:33:38Z</time>
      </trkpt>
      <trkpt lat="42.56091" lon="2.25937">
        <ele>652.8</ele>
        <time>2025-07-19T12:33:41Z</time>
      </trkpt>
      <trkpt lat="42.561" lon="2.2593">
        <ele>653.2</ele>
        <time>2025-07-19T12:33:45Z</time>
      </trkpt>
      <trkpt lat="42.56103" lon="2.25928">
        <ele>653.2</ele>
        <time>2025-07-19T12:33:46Z</time>
      </trkpt>
      <trkpt lat="42.56118" lon="2.25917">
        <ele>654.2</ele>
        <time>2025-07-19T12:33:53Z</time>
      </trkpt>
      <trkpt lat="42.5612" lon="2.25916">
        <ele>654.4</ele>
        <time>2025-07-19T12:33:54Z</time>
      </trkpt>
      <trkpt lat="42.56135" lon="2.25914">
        <ele>655.2</ele>
        <time>2025-07-19T12:34:00Z</time>
      </trkpt>
      <trkpt lat="42.56145" lon="2.25913">
        <ele>655.8</ele>
        <time>2025-07-19T12:34:04Z</time>
      </trkpt>
      <trkpt lat="42.56153" lon="2.25909">
        <ele>656.2</ele>
        <time>2025-07-19T12:34:07Z</time>
      </trkpt>
      <trkpt lat="42.56156" lon="2.25905">
        <ele>656.6</ele>
        <time>2025-07-19T12:34:09Z</time>
      </trkpt>
      <trkpt lat="42.5616" lon="2.259">
        <ele>657.4</ele>
        <time>2025-07-19T12:34:11Z</time>
      </trkpt>
      <trkpt lat="42.56169" lon="2.25886">
        <ele>658.4</ele>
        <time>2025-07-19T12:34:16Z</time>
      </trkpt>
      <trkpt lat="42.56171" lon="2.25883">
        <ele>658.6</ele>
        <time>2025-07-19T12:34:17Z</time>
      </trkpt>
      <trkpt lat="42.56177" lon="2.25867">
        <ele>659.6</ele>
        <time>2025-07-19T12:34:22Z</time>
      </trkpt>
      <trkpt lat="42.56181" lon="2.25858">
        <ele>660</ele>
        <time>2025-07-19T12:34:25Z</time>
      </trkpt>
      <trkpt lat="42.5619" lon="2.25847">
        <ele>660.6</ele>
        <time>2025-07-19T12:34:30Z</time>
      </trkpt>
      <trkpt lat="42.56195" lon="2.25844">
        <ele>660.8</ele>
        <time>2025-07-19T12:34:32Z</time>
      </trkpt>
      <trkpt lat="42.56204" lon="2.2584">
        <ele>661.8</ele>
        <time>2025-07-19T12:34:36Z</time>
      </trkpt>
      <trkpt lat="42.56215" lon="2.25835">
        <ele>663</ele>
        <time>2025-07-19T12:34:41Z</time>
      </trkpt>
      <trkpt lat="42.56227" lon="2.25828">
        <ele>664</ele>
        <time>2025-07-19T12:34:46Z</time>
      </trkpt>
      <trkpt lat="42.56236" lon="2.25822">
        <ele>664.4</ele>
        <time>2025-07-19T12:34:50Z</time>
      </trkpt>
      <trkpt lat="42.56242" lon="2.25818">
        <ele>665.2</ele>
        <time>2025-07-19T12:34:53Z</time>
      </trkpt>
      <trkpt lat="42.56256" lon="2.25809">
        <ele>666</ele>
        <time>2025-07-19T12:35:00Z</time>
      </trkpt>
      <trkpt lat="42.56258" lon="2.25808">
        <ele>666.2</ele>
        <time>2025-07-19T12:35:01Z</time>
      </trkpt>
      <trkpt lat="42.56273" lon="2.25803">
        <ele>666.8</ele>
        <time>2025-07-19T12:35:08Z</time>
      </trkpt>
      <trkpt lat="42.56277" lon="2.25801">
        <ele>667.2</ele>
        <time>2025-07-19T12:35:10Z</time>
      </trkpt>
      <trkpt lat="42.5629" lon="2.25795">
        <ele>668.2</ele>
        <time>2025-07-19T12:35:16Z</time>
      </trkpt>
      <trkpt lat="42.56292" lon="2.25794">
        <ele>668.4</ele>
        <time>2025-07-19T12:35:17Z</time>
      </trkpt>
      <trkpt lat="42.56309" lon="2.2578">
        <ele>669.2</ele>
        <time>2025-07-19T12:35:26Z</time>
      </trkpt>
      <trkpt lat="42.56311" lon="2.25778">
        <ele>669.4</ele>
        <time>2025-07-19T12:35:27Z</time>
      </trkpt>
      <trkpt lat="42.56319" lon="2.25771">
        <ele>670.2</ele>
        <time>2025-07-19T12:35:31Z</time>
      </trkpt>
      <trkpt lat="42.56323" lon="2.25766">
        <ele>670.4</ele>
        <time>2025-07-19T12:35:33Z</time>
      </trkpt>
      <trkpt lat="42.56329" lon="2.25761">
        <ele>671.2</ele>
        <time>2025-07-19T12:35:36Z</time>
      </trkpt>
      <trkpt lat="42.56336" lon="2.25751">
        <ele>671.8</ele>
        <time>2025-07-19T12:35:40Z</time>
      </trkpt>
      <trkpt lat="42.56341" lon="2.25745">
        <ele>672.2</ele>
        <time>2025-07-19T12:35:43Z</time>
      </trkpt>
      <trkpt lat="42.56353" lon="2.25735">
        <ele>673.2</ele>
        <time>2025-07-19T12:35:49Z</time>
      </trkpt>
      <trkpt lat="42.56355" lon="2.25734">
        <ele>673.4</ele>
        <time>2025-07-19T12:35:50Z</time>
      </trkpt>
      <trkpt lat="42.56365" lon="2.25727">
        <ele>674</ele>
        <time>2025-07-19T12:35:54Z</time>
      </trkpt>
      <trkpt lat="42.56369" lon="2.25726">
        <ele>674.4</ele>
        <time>2025-07-19T12:35:56Z</time>
      </trkpt>
      <trkpt lat="42.56378" lon="2.25724">
        <ele>675.6</ele>
        <time>2025-07-19T12:36:00Z</time>
      </trkpt>
      <trkpt lat="42.56384" lon="2.2572">
        <ele>676</ele>
        <time>2025-07-19T12:36:03Z</time>
      </trkpt>
      <trkpt lat="42.5639" lon="2.25708">
        <ele>676.4</ele>
        <time>2025-07-19T12:36:07Z</time>
      </trkpt>
      <trkpt lat="42.56392" lon="2.25702">
        <ele>676.6</ele>
        <time>2025-07-19T12:36:09Z</time>
      </trkpt>
      <trkpt lat="42.5639" lon="2.2569">
        <ele>676.6</ele>
        <time>2025-07-19T12:36:12Z</time>
      </trkpt>
      <trkpt lat="42.56388" lon="2.25687">
        <ele>676.8</ele>
        <time>2025-07-19T12:36:13Z</time>
      </trkpt>
      <trkpt lat="42.56378" lon="2.25679">
        <ele>677.4</ele>
        <time>2025-07-19T12:36:17Z</time>
      </trkpt>
      <trkpt lat="42.56372" lon="2.25676">
        <ele>677.8</ele>
        <time>2025-07-19T12:36:19Z</time>
      </trkpt>
      <trkpt lat="42.56362" lon="2.25674">
        <ele>678.4</ele>
        <time>2025-07-19T12:36:23Z</time>
      </trkpt>
      <trkpt lat="42.56359" lon="2.25675">
        <ele>678.6</ele>
        <time>2025-07-19T12:36:24Z</time>
      </trkpt>
      <trkpt lat="42.56346" lon="2.25686">
        <ele>679.4</ele>
        <time>2025-07-19T12:36:30Z</time>
      </trkpt>
      <trkpt lat="42.56343" lon="2.25688">
        <ele>679.6</ele>
        <time>2025-07-19T12:36:31Z</time>
      </trkpt>
      <trkpt lat="42.56334" lon="2.25696">
        <ele>680.6</ele>
        <time>2025-07-19T12:36:35Z</time>
      </trkpt>
      <trkpt lat="42.56327" lon="2.257">
        <ele>681</ele>
        <time>2025-07-19T12:36:38Z</time>
      </trkpt>
      <trkpt lat="42.56321" lon="2.25703">
        <ele>681.6</ele>
        <time>2025-07-19T12:36:41Z</time>
      </trkpt>
      <trkpt lat="42.56314" lon="2.25708">
        <ele>682.2</ele>
        <time>2025-07-19T12:36:44Z</time>
      </trkpt>
      <trkpt lat="42.56306" lon="2.25715">
        <ele>682.6</ele>
        <time>2025-07-19T12:36:48Z</time>
      </trkpt>
      <trkpt lat="42.56299" lon="2.2572">
        <ele>682.8</ele>
        <time>2025-07-19T12:36:51Z</time>
      </trkpt>
      <trkpt lat="42.56282" lon="2.25726">
        <ele>683.6</ele>
        <time>2025-07-19T12:36:58Z</time>
      </trkpt>
      <trkpt lat="42.56263" lon="2.25732">
        <ele>684.4</ele>
        <time>2025-07-19T12:37:06Z</time>
      </trkpt>
      <trkpt lat="42.56257" lon="2.25736">
        <ele>684.6</ele>
        <time>2025-07-19T12:37:09Z</time>
      </trkpt>
      <trkpt lat="42.56245" lon="2.25743">
        <ele>685.2</ele>
        <time>2025-07-19T12:37:14Z</time>
      </trkpt>
      <trkpt lat="42.56226" lon="2.25747">
        <ele>685.6</ele>
        <time>2025-07-19T12:37:21Z</time>
      </trkpt>
      <trkpt lat="42.56205" lon="2.25753">
        <ele>686.8</ele>
        <time>2025-07-19T12:37:29Z</time>
      </trkpt>
      <trkpt lat="42.562" lon="2.25755">
        <ele>687</ele>
        <time>2025-07-19T12:37:31Z</time>
      </trkpt>
      <trkpt lat="42.56185" lon="2.25762">
        <ele>687.8</ele>
        <time>2025-07-19T12:37:37Z</time>
      </trkpt>
      <trkpt lat="42.56178" lon="2.25765">
        <ele>688.2</ele>
        <time>2025-07-19T12:37:40Z</time>
      </trkpt>
      <trkpt lat="42.56167" lon="2.25764">
        <ele>688.8</ele>
        <time>2025-07-19T12:37:44Z</time>
      </trkpt>
      <trkpt lat="42.56159" lon="2.25763">
        <ele>689.6</ele>
        <time>2025-07-19T12:37:47Z</time>
      </trkpt>
      <trkpt lat="42.56151" lon="2.25763">
        <ele>690</ele>
        <time>2025-07-19T12:37:50Z</time>
      </trkpt>
      <trkpt lat="42.56147" lon="2.25765">
        <ele>690.2</ele>
        <time>2025-07-19T12:37:52Z</time>
      </trkpt>
      <trkpt lat="42.56133" lon="2.25773">
        <ele>691</ele>
        <time>2025-07-19T12:37:58Z</time>
      </trkpt>
      <trkpt lat="42.56124" lon="2.25781">
        <ele>691.8</ele>
        <time>2025-07-19T12:38:02Z</time>
      </trkpt>
      <trkpt lat="42.56123" lon="2.25783">
        <ele>692</ele>
        <time>2025-07-19T12:38:03Z</time>
      </trkpt>
      <trkpt lat="42.56121" lon="2.25784">
        <ele>692.2</ele>
        <time>2025-07-19T12:38:04Z</time>
      </trkpt>
      <trkpt lat="42.56113" lon="2.2579">
        <ele>693</ele>
        <time>2025-07-19T12:38:08Z</time>
      </trkpt>
      <trkpt lat="42.56108" lon="2.25795">
        <ele>693.6</ele>
        <time>2025-07-19T12:38:11Z</time>
      </trkpt>
      <trkpt lat="42.56102" lon="2.25797">
        <ele>694</ele>
        <time>2025-07-19T12:38:14Z</time>
      </trkpt>
      <trkpt lat="42.56094" lon="2.25798">
        <ele>694.6</ele>
        <time>2025-07-19T12:38:18Z</time>
      </trkpt>
      <trkpt lat="42.56087" lon="2.25799">
        <ele>695.2</ele>
        <time>2025-07-19T12:38:21Z</time>
      </trkpt>
      <trkpt lat="42.56076" lon="2.25799">
        <ele>696.2</ele>
        <time>2025-07-19T12:38:26Z</time>
      </trkpt>
      <trkpt lat="42.56074" lon="2.25799">
        <ele>696.4</ele>
        <time>2025-07-19T12:38:27Z</time>
      </trkpt>
      <trkpt lat="42.56059" lon="2.25798">
        <ele>697.4</ele>
        <time>2025-07-19T12:38:34Z</time>
      </trkpt>
      <trkpt lat="42.56052" lon="2.25798">
        <ele>697.8</ele>
        <time>2025-07-19T12:38:37Z</time>
      </trkpt>
      <trkpt lat="42.56045" lon="2.25798">
        <ele>698.4</ele>
        <time>2025-07-19T12:38:40Z</time>
      </trkpt>
      <trkpt lat="42.56035" lon="2.25795">
        <ele>699.6</ele>
        <time>2025-07-19T12:38:45Z</time>
      </trkpt>
      <trkpt lat="42.56033" lon="2.25794">
        <ele>699.6</ele>
        <time>2025-07-19T12:38:46Z</time>
      </trkpt>
      <trkpt lat="42.56027" lon="2.2579">
        <ele>700.2</ele>
        <time>2025-07-19T12:38:49Z</time>
      </trkpt>
      <trkpt lat="42.56017" lon="2.25784">
        <ele>700.6</ele>
        <time>2025-07-19T12:38:54Z</time>
      </trkpt>
      <trkpt lat="42.56002" lon="2.25776">
        <ele>701.2</ele>
        <time>2025-07-19T12:39:01Z</time>
      </trkpt>
      <trkpt lat="42.55993" lon="2.25773">
        <ele>701.6</ele>
        <time>2025-07-19T12:39:05Z</time>
      </trkpt>
      <trkpt lat="42.55987" lon="2.2577">
        <ele>702</ele>
        <time>2025-07-19T12:39:08Z</time>
      </trkpt>
      <trkpt lat="42.55985" lon="2.2577">
        <ele>702</ele>
        <time>2025-07-19T12:39:09Z</time>
      </trkpt>
      <trkpt lat="42.55975" lon="2.25774">
        <ele>702.4</ele>
        <time>2025-07-19T12:39:13Z</time>
      </trkpt>
      <trkpt lat="42.55971" lon="2.25778">
        <ele>702.6</ele>
        <time>2025-07-19T12:39:15Z</time>
      </trkpt>
      <trkpt lat="42.55962" lon="2.25787">
        <ele>703</ele>
        <time>2025-07-19T12:39:19Z</time>
      </trkpt>
      <trkpt lat="42.55949" lon="2.25797">
        <ele>703.6</ele>
        <time>2025-07-19T12:39:26Z</time>
      </trkpt>
      <trkpt lat="42.55947" lon="2.25797">
        <ele>703.8</ele>
        <time>2025-07-19T12:39:27Z</time>
      </trkpt>
      <trkpt lat="42.55943" lon="2.25795">
        <ele>704</ele>
        <time>2025-07-19T12:39:29Z</time>
      </trkpt>
      <trkpt lat="42.5594" lon="2.25792">
        <ele>704.2</ele>
        <time>2025-07-19T12:39:31Z</time>
      </trkpt>
      <trkpt lat="42.55935" lon="2.25787">
        <ele>704.6</ele>
        <time>2025-07-19T12:39:34Z</time>
      </trkpt>
      <trkpt lat="42.55925" lon="2.2578">
        <ele>705.6</ele>
        <time>2025-07-19T12:39:40Z</time>
      </trkpt>
      <trkpt lat="42.55924" lon="2.25779">
        <ele>705.6</ele>
        <time>2025-07-19T12:39:41Z</time>
      </trkpt>
      <trkpt lat="42.55914" lon="2.25777">
        <ele>706.8</ele>
        <time>2025-07-19T12:39:46Z</time>
      </trkpt>
      <trkpt lat="42.55904" lon="2.25784">
        <ele>707.6</ele>
        <time>2025-07-19T12:39:51Z</time>
      </trkpt>
      <trkpt lat="42.559" lon="2.25788">
        <ele>707.8</ele>
        <time>2025-07-19T12:39:53Z</time>
      </trkpt>
      <trkpt lat="42.55899" lon="2.2579">
        <ele>707.8</ele>
        <time>2025-07-19T12:39:54Z</time>
      </trkpt>
      <trkpt lat="42.55896" lon="2.25795">
        <ele>708.2</ele>
        <time>2025-07-19T12:39:56Z</time>
      </trkpt>
      <trkpt lat="42.55894" lon="2.25801">
        <ele>708.4</ele>
        <time>2025-07-19T12:39:58Z</time>
      </trkpt>
      <trkpt lat="42.55892" lon="2.25806">
        <ele>709</ele>
        <time>2025-07-19T12:40:00Z</time>
      </trkpt>
      <trkpt lat="42.55885" lon="2.25816">
        <ele>709.6</ele>
        <time>2025-07-19T12:40:04Z</time>
      </trkpt>
      <trkpt lat="42.55881" lon="2.25822">
        <ele>710</ele>
        <time>2025-07-19T12:40:07Z</time>
      </trkpt>
      <trkpt lat="42.55874" lon="2.25825">
        <ele>710.4</ele>
        <time>2025-07-19T12:40:11Z</time>
      </trkpt>
      <trkpt lat="42.55867" lon="2.25825">
        <ele>711</ele>
        <time>2025-07-19T12:40:14Z</time>
      </trkpt>
      <trkpt lat="42.55863" lon="2.25827">
        <ele>711.4</ele>
        <time>2025-07-19T12:40:16Z</time>
      </trkpt>
      <trkpt lat="42.55857" lon="2.25829">
        <ele>712</ele>
        <time>2025-07-19T12:40:19Z</time>
      </trkpt>
      <trkpt lat="42.55855" lon="2.25831">
        <ele>712.2</ele>
        <time>2025-07-19T12:40:20Z</time>
      </trkpt>
      <trkpt lat="42.55846" lon="2.25843">
        <ele>713.2</ele>
        <time>2025-07-19T12:40:26Z</time>
      </trkpt>
      <trkpt lat="42.55843" lon="2.25846">
        <ele>713.4</ele>
        <time>2025-07-19T12:40:28Z</time>
      </trkpt>
      <trkpt lat="42.55831" lon="2.25854">
        <ele>714.2</ele>
        <time>2025-07-19T12:40:34Z</time>
      </trkpt>
      <trkpt lat="42.55829" lon="2.25854">
        <ele>714.4</ele>
        <time>2025-07-19T12:40:35Z</time>
      </trkpt>
      <trkpt lat="42.55813" lon="2.25858">
        <ele>715.4</ele>
        <time>2025-07-19T12:40:42Z</time>
      </trkpt>
      <trkpt lat="42.55801" lon="2.25861">
        <ele>715.8</ele>
        <time>2025-07-19T12:40:47Z</time>
      </trkpt>
      <trkpt lat="42.55792" lon="2.25862">
        <ele>716.4</ele>
        <time>2025-07-19T12:40:51Z</time>
      </trkpt>
      <trkpt lat="42.5579" lon="2.25863">
        <ele>716.4</ele>
        <time>2025-07-19T12:40:52Z</time>
      </trkpt>
      <trkpt lat="42.55778" lon="2.25871">
        <ele>717.4</ele>
        <time>2025-07-19T12:40:58Z</time>
      </trkpt>
      <trkpt lat="42.55777" lon="2.25873">
        <ele>717.6</ele>
        <time>2025-07-19T12:40:59Z</time>
      </trkpt>
      <trkpt lat="42.55768" lon="2.25883">
        <ele>718.6</ele>
        <time>2025-07-19T12:41:04Z</time>
      </trkpt>
      <trkpt lat="42.55762" lon="2.25887">
        <ele>719</ele>
        <time>2025-07-19T12:41:07Z</time>
      </trkpt>
      <trkpt lat="42.55755" lon="2.2589">
        <ele>719.8</ele>
        <time>2025-07-19T12:41:11Z</time>
      </trkpt>
      <trkpt lat="42.55744" lon="2.25891">
        <ele>720.6</ele>
        <time>2025-07-19T12:41:16Z</time>
      </trkpt>
      <trkpt lat="42.55742" lon="2.25891">
        <ele>720.6</ele>
        <time>2025-07-19T12:41:17Z</time>
      </trkpt>
      <trkpt lat="42.5574" lon="2.2589">
        <ele>720.8</ele>
        <time>2025-07-19T12:41:18Z</time>
      </trkpt>
      <trkpt lat="42.55733" lon="2.25888">
        <ele>721.2</ele>
        <time>2025-07-19T12:41:21Z</time>
      </trkpt>
      <trkpt lat="42.55729" lon="2.25886">
        <ele>721.4</ele>
        <time>2025-07-19T12:41:23Z</time>
      </trkpt>
      <trkpt lat="42.55726" lon="2.25885">
        <ele>721.8</ele>
        <time>2025-07-19T12:41:25Z</time>
      </trkpt>
      <trkpt lat="42.55724" lon="2.25884">
        <ele>722</ele>
        <time>2025-07-19T12:41:26Z</time>
      </trkpt>
      <trkpt lat="42.55718" lon="2.2588">
        <ele>722.2</ele>
        <time>2025-07-19T12:41:29Z</time>
      </trkpt>
      <trkpt lat="42.55716" lon="2.2588">
        <ele>722.6</ele>
        <time>2025-07-19T12:41:30Z</time>
      </trkpt>
      <trkpt lat="42.55712" lon="2.2588">
        <ele>723</ele>
        <time>2025-07-19T12:41:32Z</time>
      </trkpt>
      <trkpt lat="42.55706" lon="2.2588">
        <ele>723.6</ele>
        <time>2025-07-19T12:41:35Z</time>
      </trkpt>
      <trkpt lat="42.55702" lon="2.25881">
        <ele>723.8</ele>
        <time>2025-07-19T12:41:37Z</time>
      </trkpt>
      <trkpt lat="42.55701" lon="2.2588">
        <ele>724</ele>
        <time>2025-07-19T12:41:38Z</time>
      </trkpt>
      <trkpt lat="42.55698" lon="2.2588">
        <ele>724.2</ele>
        <time>2025-07-19T12:41:39Z</time>
      </trkpt>
      <trkpt lat="42.55684" lon="2.25882">
        <ele>725</ele>
        <time>2025-07-19T12:41:45Z</time>
      </trkpt>
      <trkpt lat="42.55682" lon="2.25883">
        <ele>725.2</ele>
        <time>2025-07-19T12:41:46Z</time>
      </trkpt>
      <trkpt lat="42.55668" lon="2.25893">
        <ele>726</ele>
        <time>2025-07-19T12:41:53Z</time>
      </trkpt>
      <trkpt lat="42.55666" lon="2.25895">
        <ele>726</ele>
        <time>2025-07-19T12:41:54Z</time>
      </trkpt>
      <trkpt lat="42.55662" lon="2.25902">
        <ele>726.6</ele>
        <time>2025-07-19T12:41:57Z</time>
      </trkpt>
      <trkpt lat="42.55658" lon="2.25907">
        <ele>727</ele>
        <time>2025-07-19T12:41:59Z</time>
      </trkpt>
      <trkpt lat="42.55651" lon="2.25915">
        <ele>728</ele>
        <time>2025-07-19T12:42:03Z</time>
      </trkpt>
      <trkpt lat="42.55647" lon="2.25919">
        <ele>728.4</ele>
        <time>2025-07-19T12:42:06Z</time>
      </trkpt>
      <trkpt lat="42.55637" lon="2.25925">
        <ele>729</ele>
        <time>2025-07-19T12:42:11Z</time>
      </trkpt>
      <trkpt lat="42.55633" lon="2.25925">
        <ele>729.2</ele>
        <time>2025-07-19T12:42:13Z</time>
      </trkpt>
      <trkpt lat="42.55623" lon="2.25922">
        <ele>729.8</ele>
        <time>2025-07-19T12:42:18Z</time>
      </trkpt>
      <trkpt lat="42.55617" lon="2.25919">
        <ele>730.2</ele>
        <time>2025-07-19T12:42:21Z</time>
      </trkpt>
      <trkpt lat="42.55605" lon="2.25916">
        <ele>730.6</ele>
        <time>2025-07-19T12:42:26Z</time>
      </trkpt>
      <trkpt lat="42.55595" lon="2.25916">
        <ele>731</ele>
        <time>2025-07-19T12:42:31Z</time>
      </trkpt>
      <trkpt lat="42.55593" lon="2.25915">
        <ele>731.4</ele>
        <time>2025-07-19T12:42:32Z</time>
      </trkpt>
      <trkpt lat="42.55583" lon="2.25917">
        <ele>732.2</ele>
        <time>2025-07-19T12:42:37Z</time>
      </trkpt>
      <trkpt lat="42.55579" lon="2.25918">
        <ele>732.4</ele>
        <time>2025-07-19T12:42:39Z</time>
      </trkpt>
      <trkpt lat="42.55569" lon="2.25921">
        <ele>733.2</ele>
        <time>2025-07-19T12:42:44Z</time>
      </trkpt>
      <trkpt lat="42.55561" lon="2.25923">
        <ele>733.4</ele>
        <time>2025-07-19T12:42:47Z</time>
      </trkpt>
      <trkpt lat="42.55549" lon="2.25922">
        <ele>734.2</ele>
        <time>2025-07-19T12:42:53Z</time>
      </trkpt>
      <trkpt lat="42.55544" lon="2.2592">
        <ele>734.4</ele>
        <time>2025-07-19T12:42:55Z</time>
      </trkpt>
      <trkpt lat="42.55534" lon="2.25911">
        <ele>735.4</ele>
        <time>2025-07-19T12:43:01Z</time>
      </trkpt>
      <trkpt lat="42.55532" lon="2.25909">
        <ele>735.4</ele>
        <time>2025-07-19T12:43:02Z</time>
      </trkpt>
      <trkpt lat="42.55525" lon="2.25895">
        <ele>736.6</ele>
        <time>2025-07-19T12:43:08Z</time>
      </trkpt>
      <trkpt lat="42.55522" lon="2.2589">
        <ele>737.2</ele>
        <time>2025-07-19T12:43:10Z</time>
      </trkpt>
      <trkpt lat="42.55517" lon="2.25882">
        <ele>737.6</ele>
        <time>2025-07-19T12:43:14Z</time>
      </trkpt>
      <trkpt lat="42.55513" lon="2.25876">
        <ele>738</ele>
        <time>2025-07-19T12:43:17Z</time>
      </trkpt>
      <trkpt lat="42.55506" lon="2.25862">
        <ele>739</ele>
        <time>2025-07-19T12:43:23Z</time>
      </trkpt>
      <trkpt lat="42.55505" lon="2.25857">
        <ele>739.4</ele>
        <time>2025-07-19T12:43:25Z</time>
      </trkpt>
      <trkpt lat="42.55504" lon="2.25848">
        <ele>740.2</ele>
        <time>2025-07-19T12:43:28Z</time>
      </trkpt>
      <trkpt lat="42.55502" lon="2.25834">
        <ele>741</ele>
        <time>2025-07-19T12:43:33Z</time>
      </trkpt>
      <trkpt lat="42.55503" lon="2.25828">
        <ele>741.4</ele>
        <time>2025-07-19T12:43:35Z</time>
      </trkpt>
      <trkpt lat="42.55501" lon="2.25817">
        <ele>742.2</ele>
        <time>2025-07-19T12:43:39Z</time>
      </trkpt>
      <trkpt lat="42.55501" lon="2.25814">
        <ele>742.4</ele>
        <time>2025-07-19T12:43:40Z</time>
      </trkpt>
      <trkpt lat="42.55497" lon="2.25793">
        <ele>743.4</ele>
        <time>2025-07-19T12:43:48Z</time>
      </trkpt>
      <trkpt lat="42.55496" lon="2.2579">
        <ele>743.6</ele>
        <time>2025-07-19T12:43:49Z</time>
      </trkpt>
      <trkpt lat="42.55494" lon="2.25772">
        <ele>744.8</ele>
        <time>2025-07-19T12:43:56Z</time>
      </trkpt>
      <trkpt lat="42.55492" lon="2.25753">
        <ele>745.8</ele>
        <time>2025-07-19T12:44:03Z</time>
      </trkpt>
      <trkpt lat="42.55492" lon="2.25748">
        <ele>746.2</ele>
        <time>2025-07-19T12:44:05Z</time>
      </trkpt>
      <trkpt lat="42.55489" lon="2.25733">
        <ele>747</ele>
        <time>2025-07-19T12:44:10Z</time>
      </trkpt>
      <trkpt lat="42.55483" lon="2.2572">
        <ele>747.8</ele>
        <time>2025-07-19T12:44:15Z</time>
      </trkpt>
      <trkpt lat="42.55482" lon="2.25718">
        <ele>748</ele>
        <time>2025-07-19T12:44:16Z</time>
      </trkpt>
      <trkpt lat="42.55476" lon="2.25708">
        <ele>749</ele>
        <time>2025-07-19T12:44:21Z</time>
      </trkpt>
      <trkpt lat="42.5547" lon="2.257">
        <ele>749.8</ele>
        <time>2025-07-19T12:44:25Z</time>
      </trkpt>
      <trkpt lat="42.55466" lon="2.25695">
        <ele>750.2</ele>
        <time>2025-07-19T12:44:28Z</time>
      </trkpt>
      <trkpt lat="42.55462" lon="2.25691">
        <ele>750.4</ele>
        <time>2025-07-19T12:44:31Z</time>
      </trkpt>
      <trkpt lat="42.55453" lon="2.25684">
        <ele>750.8</ele>
        <time>2025-07-19T12:44:36Z</time>
      </trkpt>
      <trkpt lat="42.55451" lon="2.25682">
        <ele>751</ele>
        <time>2025-07-19T12:44:37Z</time>
      </trkpt>
      <trkpt lat="42.55443" lon="2.25678">
        <ele>752</ele>
        <time>2025-07-19T12:44:42Z</time>
      </trkpt>
      <trkpt lat="42.55441" lon="2.25677">
        <ele>752.2</ele>
        <time>2025-07-19T12:44:43Z</time>
      </trkpt>
      <trkpt lat="42.55433" lon="2.25675">
        <ele>753</ele>
        <time>2025-07-19T12:44:47Z</time>
      </trkpt>
      <trkpt lat="42.55429" lon="2.25672">
        <ele>753.2</ele>
        <time>2025-07-19T12:44:49Z</time>
      </trkpt>
      <trkpt lat="42.55419" lon="2.2567">
        <ele>753.6</ele>
        <time>2025-07-19T12:44:54Z</time>
      </trkpt>
      <trkpt lat="42.55411" lon="2.25667">
        <ele>754.4</ele>
        <time>2025-07-19T12:44:58Z</time>
      </trkpt>
      <trkpt lat="42.55409" lon="2.25666">
        <ele>754.4</ele>
        <time>2025-07-19T12:44:59Z</time>
      </trkpt>
      <trkpt lat="42.55407" lon="2.25664">
        <ele>754.6</ele>
        <time>2025-07-19T12:45:00Z</time>
      </trkpt>
      <trkpt lat="42.55402" lon="2.25657">
        <ele>755.4</ele>
        <time>2025-07-19T12:45:03Z</time>
      </trkpt>
      <trkpt lat="42.554" lon="2.25648">
        <ele>756.2</ele>
        <time>2025-07-19T12:45:06Z</time>
      </trkpt>
      <trkpt lat="42.55399" lon="2.25645">
        <ele>756.6</ele>
        <time>2025-07-19T12:45:07Z</time>
      </trkpt>
      <trkpt lat="42.55395" lon="2.25625">
        <ele>757.4</ele>
        <time>2025-07-19T12:45:14Z</time>
      </trkpt>
      <trkpt lat="42.55393" lon="2.2562">
        <ele>757.8</ele>
        <time>2025-07-19T12:45:16Z</time>
      </trkpt>
      <trkpt lat="42.55387" lon="2.25609">
        <ele>758.4</ele>
        <time>2025-07-19T12:45:21Z</time>
      </trkpt>
      <trkpt lat="42.55384" lon="2.25604">
        <ele>758.8</ele>
        <time>2025-07-19T12:45:23Z</time>
      </trkpt>
      <trkpt lat="42.55376" lon="2.256">
        <ele>759.2</ele>
        <time>2025-07-19T12:45:27Z</time>
      </trkpt>
      <trkpt lat="42.55368" lon="2.25594">
        <ele>759.8</ele>
        <time>2025-07-19T12:45:31Z</time>
      </trkpt>
      <trkpt lat="42.55362" lon="2.25587">
        <ele>761</ele>
        <time>2025-07-19T12:45:35Z</time>
      </trkpt>
      <trkpt lat="42.55359" lon="2.25576">
        <ele>762</ele>
        <time>2025-07-19T12:45:39Z</time>
      </trkpt>
      <trkpt lat="42.55359" lon="2.25571">
        <ele>762.2</ele>
        <time>2025-07-19T12:45:41Z</time>
      </trkpt>
      <trkpt lat="42.55359" lon="2.25552">
        <ele>763</ele>
        <time>2025-07-19T12:45:47Z</time>
      </trkpt>
      <trkpt lat="42.55359" lon="2.25549">
        <ele>763.2</ele>
        <time>2025-07-19T12:45:48Z</time>
      </trkpt>
      <trkpt lat="42.55364" lon="2.25529">
        <ele>764.2</ele>
        <time>2025-07-19T12:45:55Z</time>
      </trkpt>
      <trkpt lat="42.55365" lon="2.25526">
        <ele>764.4</ele>
        <time>2025-07-19T12:45:56Z</time>
      </trkpt>
      <trkpt lat="42.55372" lon="2.25511">
        <ele>765.4</ele>
        <time>2025-07-19T12:46:02Z</time>
      </trkpt>
      <trkpt lat="42.55375" lon="2.25505">
        <ele>766</ele>
        <time>2025-07-19T12:46:05Z</time>
      </trkpt>
      <trkpt lat="42.5538" lon="2.25492">
        <ele>766.6</ele>
        <time>2025-07-19T12:46:10Z</time>
      </trkpt>
      <trkpt lat="42.55382" lon="2.25481">
        <ele>767</ele>
        <time>2025-07-19T12:46:14Z</time>
      </trkpt>
      <trkpt lat="42.55382" lon="2.25472">
        <ele>767.6</ele>
        <time>2025-07-19T12:46:17Z</time>
      </trkpt>
      <trkpt lat="42.55381" lon="2.25459">
        <ele>768.2</ele>
        <time>2025-07-19T12:46:22Z</time>
      </trkpt>
      <trkpt lat="42.55379" lon="2.25455">
        <ele>768.4</ele>
        <time>2025-07-19T12:46:24Z</time>
      </trkpt>
      <trkpt lat="42.55376" lon="2.25442">
        <ele>769.4</ele>
        <time>2025-07-19T12:46:29Z</time>
      </trkpt>
      <trkpt lat="42.55375" lon="2.25439">
        <ele>769.6</ele>
        <time>2025-07-19T12:46:30Z</time>
      </trkpt>
      <trkpt lat="42.55369" lon="2.25426">
        <ele>770.8</ele>
        <time>2025-07-19T12:46:35Z</time>
      </trkpt>
      <trkpt lat="42.55368" lon="2.25423">
        <ele>770.8</ele>
        <time>2025-07-19T12:46:36Z</time>
      </trkpt>
      <trkpt lat="42.55361" lon="2.2541">
        <ele>771.6</ele>
        <time>2025-07-19T12:46:42Z</time>
      </trkpt>
      <trkpt lat="42.55358" lon="2.25406">
        <ele>772</ele>
        <time>2025-07-19T12:46:44Z</time>
      </trkpt>
      <trkpt lat="42.5535" lon="2.25394">
        <ele>772.8</ele>
        <time>2025-07-19T12:46:50Z</time>
      </trkpt>
      <trkpt lat="42.55349" lon="2.25392">
        <ele>773</ele>
        <time>2025-07-19T12:46:51Z</time>
      </trkpt>
      <trkpt lat="42.55342" lon="2.2538">
        <ele>773.2</ele>
        <time>2025-07-19T12:46:56Z</time>
      </trkpt>
      <trkpt lat="42.55337" lon="2.25361">
        <ele>773.8</ele>
        <time>2025-07-19T12:47:03Z</time>
      </trkpt>
      <trkpt lat="42.55336" lon="2.25344">
        <ele>775.2</ele>
        <time>2025-07-19T12:47:09Z</time>
      </trkpt>
      <trkpt lat="42.55336" lon="2.25336">
        <ele>776</ele>
        <time>2025-07-19T12:47:12Z</time>
      </trkpt>
      <trkpt lat="42.55335" lon="2.25331">
        <ele>776.2</ele>
        <time>2025-07-19T12:47:14Z</time>
      </trkpt>
      <trkpt lat="42.55331" lon="2.25315">
        <ele>776.6</ele>
        <time>2025-07-19T12:47:20Z</time>
      </trkpt>
      <trkpt lat="42.55326" lon="2.25301">
        <ele>777.2</ele>
        <time>2025-07-19T12:47:26Z</time>
      </trkpt>
      <trkpt lat="42.55325" lon="2.25299">
        <ele>777.4</ele>
        <time>2025-07-19T12:47:27Z</time>
      </trkpt>
      <trkpt lat="42.55318" lon="2.25284">
        <ele>778.4</ele>
        <time>2025-07-19T12:47:33Z</time>
      </trkpt>
      <trkpt lat="42.55316" lon="2.2528">
        <ele>778.8</ele>
        <time>2025-07-19T12:47:35Z</time>
      </trkpt>
      <trkpt lat="42.55313" lon="2.25267">
        <ele>779.4</ele>
        <time>2025-07-19T12:47:40Z</time>
      </trkpt>
      <trkpt lat="42.5531" lon="2.25255">
        <ele>780</ele>
        <time>2025-07-19T12:47:44Z</time>
      </trkpt>
      <trkpt lat="42.55308" lon="2.25245">
        <ele>780.6</ele>
        <time>2025-07-19T12:47:47Z</time>
      </trkpt>
      <trkpt lat="42.55308" lon="2.25234">
        <ele>782</ele>
        <time>2025-07-19T12:47:51Z</time>
      </trkpt>
      <trkpt lat="42.55309" lon="2.25228">
        <ele>782.2</ele>
        <time>2025-07-19T12:47:53Z</time>
      </trkpt>
      <trkpt lat="42.5531" lon="2.25217">
        <ele>783.2</ele>
        <time>2025-07-19T12:47:57Z</time>
      </trkpt>
      <trkpt lat="42.55312" lon="2.25207">
        <ele>784.4</ele>
        <time>2025-07-19T12:48:01Z</time>
      </trkpt>
      <trkpt lat="42.55313" lon="2.25204">
        <ele>784.6</ele>
        <time>2025-07-19T12:48:02Z</time>
      </trkpt>
      <trkpt lat="42.5532" lon="2.25183">
        <ele>785.2</ele>
        <time>2025-07-19T12:48:10Z</time>
      </trkpt>
      <trkpt lat="42.55321" lon="2.25178">
        <ele>785.4</ele>
        <time>2025-07-19T12:48:12Z</time>
      </trkpt>
      <trkpt lat="42.55325" lon="2.25156">
        <ele>786</ele>
        <time>2025-07-19T12:48:20Z</time>
      </trkpt>
      <trkpt lat="42.55326" lon="2.25141">
        <ele>786.4</ele>
        <time>2025-07-19T12:48:25Z</time>
      </trkpt>
      <trkpt lat="42.55326" lon="2.25132">
        <ele>787</ele>
        <time>2025-07-19T12:48:28Z</time>
      </trkpt>
      <trkpt lat="42.55326" lon="2.25122">
        <ele>787.6</ele>
        <time>2025-07-19T12:48:31Z</time>
      </trkpt>
      <trkpt lat="42.55326" lon="2.25096">
        <ele>788.2</ele>
        <time>2025-07-19T12:48:40Z</time>
      </trkpt>
      <trkpt lat="42.55326" lon="2.25089">
        <ele>788.4</ele>
        <time>2025-07-19T12:48:42Z</time>
      </trkpt>
      <trkpt lat="42.55325" lon="2.25069">
        <ele>789.4</ele>
        <time>2025-07-19T12:48:49Z</time>
      </trkpt>
      <trkpt lat="42.55325" lon="2.25063">
        <ele>789.8</ele>
        <time>2025-07-19T12:48:51Z</time>
      </trkpt>
      <trkpt lat="42.55329" lon="2.25046">
        <ele>790.6</ele>
        <time>2025-07-19T12:48:58Z</time>
      </trkpt>
      <trkpt lat="42.5533" lon="2.25043">
        <ele>790.8</ele>
        <time>2025-07-19T12:48:59Z</time>
      </trkpt>
      <trkpt lat="42.55338" lon="2.25025">
        <ele>791.8</ele>
        <time>2025-07-19T12:49:06Z</time>
      </trkpt>
      <trkpt lat="42.55344" lon="2.25009">
        <ele>792.2</ele>
        <time>2025-07-19T12:49:12Z</time>
      </trkpt>
      <trkpt lat="42.55347" lon="2.25002">
        <ele>792.8</ele>
        <time>2025-07-19T12:49:15Z</time>
      </trkpt>
      <trkpt lat="42.55352" lon="2.24989">
        <ele>793.4</ele>
        <time>2025-07-19T12:49:20Z</time>
      </trkpt>
      <trkpt lat="42.55356" lon="2.24978">
        <ele>793.8</ele>
        <time>2025-07-19T12:49:24Z</time>
      </trkpt>
      <trkpt lat="42.55359" lon="2.24968">
        <ele>794.2</ele>
        <time>2025-07-19T12:49:28Z</time>
      </trkpt>
      <trkpt lat="42.5536" lon="2.24959">
        <ele>794.8</ele>
        <time>2025-07-19T12:49:31Z</time>
      </trkpt>
      <trkpt lat="42.55362" lon="2.24941">
        <ele>795.8</ele>
        <time>2025-07-19T12:49:37Z</time>
      </trkpt>
      <trkpt lat="42.55362" lon="2.24938">
        <ele>796</ele>
        <time>2025-07-19T12:49:38Z</time>
      </trkpt>
      <trkpt lat="42.55361" lon="2.2492">
        <ele>796.8</ele>
        <time>2025-07-19T12:49:44Z</time>
      </trkpt>
      <trkpt lat="42.55362" lon="2.24909">
        <ele>797.2</ele>
        <time>2025-07-19T12:49:48Z</time>
      </trkpt>
      <trkpt lat="42.55363" lon="2.24888">
        <ele>797.8</ele>
        <time>2025-07-19T12:49:57Z</time>
      </trkpt>
      <trkpt lat="42.55364" lon="2.24879">
        <ele>798.6</ele>
        <time>2025-07-19T12:50:00Z</time>
      </trkpt>
      <trkpt lat="42.55364" lon="2.24871">
        <ele>799</ele>
        <time>2025-07-19T12:50:03Z</time>
      </trkpt>
      <trkpt lat="42.55366" lon="2.24852">
        <ele>800.2</ele>
        <time>2025-07-19T12:50:10Z</time>
      </trkpt>
      <trkpt lat="42.55368" lon="2.24834">
        <ele>801.2</ele>
        <time>2025-07-19T12:50:16Z</time>
      </trkpt>
      <trkpt lat="42.55369" lon="2.24825">
        <ele>801.6</ele>
        <time>2025-07-19T12:50:19Z</time>
      </trkpt>
      <trkpt lat="42.5537" lon="2.24817">
        <ele>802.2</ele>
        <time>2025-07-19T12:50:22Z</time>
      </trkpt>
      <trkpt lat="42.55371" lon="2.248">
        <ele>803</ele>
        <time>2025-07-19T12:50:28Z</time>
      </trkpt>
      <trkpt lat="42.55371" lon="2.24797">
        <ele>803</ele>
        <time>2025-07-19T12:50:29Z</time>
      </trkpt>
      <trkpt lat="42.55372" lon="2.2478">
        <ele>804.2</ele>
        <time>2025-07-19T12:50:35Z</time>
      </trkpt>
      <trkpt lat="42.55373" lon="2.24774">
        <ele>804.8</ele>
        <time>2025-07-19T12:50:37Z</time>
      </trkpt>
      <trkpt lat="42.55372" lon="2.24759">
        <ele>805.2</ele>
        <time>2025-07-19T12:50:42Z</time>
      </trkpt>
      <trkpt lat="42.55373" lon="2.24744">
        <ele>806.2</ele>
        <time>2025-07-19T12:50:47Z</time>
      </trkpt>
      <trkpt lat="42.55372" lon="2.24741">
        <ele>806.4</ele>
        <time>2025-07-19T12:50:48Z</time>
      </trkpt>
      <trkpt lat="42.55371" lon="2.24714">
        <ele>807.6</ele>
        <time>2025-07-19T12:50:57Z</time>
      </trkpt>
      <trkpt lat="42.55376" lon="2.24704">
        <ele>808.6</ele>
        <time>2025-07-19T12:51:01Z</time>
      </trkpt>
      <trkpt lat="42.55378" lon="2.24702">
        <ele>809</ele>
        <time>2025-07-19T12:51:02Z</time>
      </trkpt>
      <trkpt lat="42.55383" lon="2.24701">
        <ele>809.8</ele>
        <time>2025-07-19T12:51:04Z</time>
      </trkpt>
      <trkpt lat="42.55392" lon="2.24701">
        <ele>810.8</ele>
        <time>2025-07-19T12:51:08Z</time>
      </trkpt>
      <trkpt lat="42.55395" lon="2.24701">
        <ele>811.2</ele>
        <time>2025-07-19T12:51:09Z</time>
      </trkpt>
      <trkpt lat="42.5541" lon="2.24696">
        <ele>812.2</ele>
        <time>2025-07-19T12:51:16Z</time>
      </trkpt>
      <trkpt lat="42.55415" lon="2.24693">
        <ele>812.4</ele>
        <time>2025-07-19T12:51:18Z</time>
      </trkpt>
      <trkpt lat="42.55425" lon="2.2469">
        <ele>813.2</ele>
        <time>2025-07-19T12:51:23Z</time>
      </trkpt>
      <trkpt lat="42.5543" lon="2.24688">
        <ele>813.8</ele>
        <time>2025-07-19T12:51:25Z</time>
      </trkpt>
      <trkpt lat="42.55437" lon="2.24685">
        <ele>814.4</ele>
        <time>2025-07-19T12:51:29Z</time>
      </trkpt>
      <trkpt lat="42.5544" lon="2.24685">
        <ele>814.6</ele>
        <time>2025-07-19T12:51:30Z</time>
      </trkpt>
      <trkpt lat="42.55442" lon="2.24685">
        <ele>814.8</ele>
        <time>2025-07-19T12:51:31Z</time>
      </trkpt>
      <trkpt lat="42.55453" lon="2.24684">
        <ele>815.6</ele>
        <time>2025-07-19T12:51:36Z</time>
      </trkpt>
      <trkpt lat="42.55455" lon="2.24684">
        <ele>816</ele>
        <time>2025-07-19T12:51:37Z</time>
      </trkpt>
      <trkpt lat="42.55469" lon="2.24675">
        <ele>816.8</ele>
        <time>2025-07-19T12:51:43Z</time>
      </trkpt>
      <trkpt lat="42.55473" lon="2.24672">
        <ele>817</ele>
        <time>2025-07-19T12:51:45Z</time>
      </trkpt>
      <trkpt lat="42.55485" lon="2.24666">
        <ele>818</ele>
        <time>2025-07-19T12:51:51Z</time>
      </trkpt>
      <trkpt lat="42.55501" lon="2.24651">
        <ele>819</ele>
        <time>2025-07-19T12:52:00Z</time>
      </trkpt>
      <trkpt lat="42.55502" lon="2.24648">
        <ele>819.2</ele>
        <time>2025-07-19T12:52:01Z</time>
      </trkpt>
      <trkpt lat="42.55507" lon="2.24628">
        <ele>820.2</ele>
        <time>2025-07-19T12:52:08Z</time>
      </trkpt>
      <trkpt lat="42.55514" lon="2.24619">
        <ele>821.6</ele>
        <time>2025-07-19T12:52:13Z</time>
      </trkpt>
      <trkpt lat="42.55516" lon="2.24618">
        <ele>821.8</ele>
        <time>2025-07-19T12:52:14Z</time>
      </trkpt>
      <trkpt lat="42.55525" lon="2.24617">
        <ele>822.8</ele>
        <time>2025-07-19T12:52:18Z</time>
      </trkpt>
      <trkpt lat="42.55538" lon="2.24612">
        <ele>823.6</ele>
        <time>2025-07-19T12:52:24Z</time>
      </trkpt>
      <trkpt lat="42.55544" lon="2.24609">
        <ele>824.2</ele>
        <time>2025-07-19T12:52:27Z</time>
      </trkpt>
      <trkpt lat="42.55546" lon="2.24608">
        <ele>824.2</ele>
        <time>2025-07-19T12:52:28Z</time>
      </trkpt>
      <trkpt lat="42.55556" lon="2.24607">
        <ele>825</ele>
        <time>2025-07-19T12:52:33Z</time>
      </trkpt>
      <trkpt lat="42.55563" lon="2.24607">
        <ele>825.2</ele>
        <time>2025-07-19T12:52:36Z</time>
      </trkpt>
      <trkpt lat="42.55575" lon="2.24607">
        <ele>826.4</ele>
        <time>2025-07-19T12:52:42Z</time>
      </trkpt>
      <trkpt lat="42.55577" lon="2.24608">
        <ele>826.6</ele>
        <time>2025-07-19T12:52:43Z</time>
      </trkpt>
      <trkpt lat="42.55587" lon="2.24608">
        <ele>827.6</ele>
        <time>2025-07-19T12:52:48Z</time>
      </trkpt>
      <trkpt lat="42.55593" lon="2.24608">
        <ele>828.6</ele>
        <time>2025-07-19T12:52:51Z</time>
      </trkpt>
      <trkpt lat="42.55595" lon="2.24608">
        <ele>829.2</ele>
        <time>2025-07-19T12:52:52Z</time>
      </trkpt>
      <trkpt lat="42.55602" lon="2.24608">
        <ele>829.8</ele>
        <time>2025-07-19T12:52:55Z</time>
      </trkpt>
      <trkpt lat="42.55611" lon="2.24609">
        <ele>830.8</ele>
        <time>2025-07-19T12:52:59Z</time>
      </trkpt>
      <trkpt lat="42.55617" lon="2.24611">
        <ele>831.4</ele>
        <time>2025-07-19T12:53:02Z</time>
      </trkpt>
      <trkpt lat="42.5563" lon="2.24616">
        <ele>832.2</ele>
        <time>2025-07-19T12:53:09Z</time>
      </trkpt>
      <trkpt lat="42.55643" lon="2.24624">
        <ele>833</ele>
        <time>2025-07-19T12:53:16Z</time>
      </trkpt>
      <trkpt lat="42.55647" lon="2.24625">
        <ele>833.2</ele>
        <time>2025-07-19T12:53:18Z</time>
      </trkpt>
      <trkpt lat="42.55662" lon="2.24628">
        <ele>834.2</ele>
        <time>2025-07-19T12:53:25Z</time>
      </trkpt>
      <trkpt lat="42.55676" lon="2.24623">
        <ele>835.2</ele>
        <time>2025-07-19T12:53:32Z</time>
      </trkpt>
      <trkpt lat="42.55681" lon="2.24623">
        <ele>835.6</ele>
        <time>2025-07-19T12:53:34Z</time>
      </trkpt>
      <trkpt lat="42.55693" lon="2.2462">
        <ele>836.2</ele>
        <time>2025-07-19T12:53:40Z</time>
      </trkpt>
      <trkpt lat="42.55695" lon="2.24619">
        <ele>836.6</ele>
        <time>2025-07-19T12:53:41Z</time>
      </trkpt>
      <trkpt lat="42.55706" lon="2.24612">
        <ele>837.6</ele>
        <time>2025-07-19T12:53:47Z</time>
      </trkpt>
      <trkpt lat="42.55708" lon="2.2461">
        <ele>837.8</ele>
        <time>2025-07-19T12:53:48Z</time>
      </trkpt>
      <trkpt lat="42.55715" lon="2.24594">
        <ele>838.6</ele>
        <time>2025-07-19T12:53:54Z</time>
      </trkpt>
      <trkpt lat="42.55712" lon="2.24575">
        <ele>839.2</ele>
        <time>2025-07-19T12:54:00Z</time>
      </trkpt>
      <trkpt lat="42.55708" lon="2.24567">
        <ele>839.6</ele>
        <time>2025-07-19T12:54:03Z</time>
      </trkpt>
      <trkpt lat="42.55702" lon="2.24557">
        <ele>840.2</ele>
        <time>2025-07-19T12:54:07Z</time>
      </trkpt>
      <trkpt lat="42.55701" lon="2.24554">
        <ele>840.6</ele>
        <time>2025-07-19T12:54:08Z</time>
      </trkpt>
      <trkpt lat="42.55692" lon="2.24535">
        <ele>841.4</ele>
        <time>2025-07-19T12:54:15Z</time>
      </trkpt>
      <trkpt lat="42.55689" lon="2.24527">
        <ele>841.6</ele>
        <time>2025-07-19T12:54:18Z</time>
      </trkpt>
      <trkpt lat="42.55689" lon="2.24515">
        <ele>842</ele>
        <time>2025-07-19T12:54:22Z</time>
      </trkpt>
      <trkpt lat="42.5569" lon="2.24504">
        <ele>842.4</ele>
        <time>2025-07-19T12:54:26Z</time>
      </trkpt>
      <trkpt lat="42.55692" lon="2.24489">
        <ele>843.4</ele>
        <time>2025-07-19T12:54:31Z</time>
      </trkpt>
      <trkpt lat="42.55692" lon="2.24486">
        <ele>843.4</ele>
        <time>2025-07-19T12:54:32Z</time>
      </trkpt>
      <trkpt lat="42.55692" lon="2.24466">
        <ele>844.2</ele>
        <time>2025-07-19T12:54:39Z</time>
      </trkpt>
      <trkpt lat="42.55692" lon="2.24463">
        <ele>844.4</ele>
        <time>2025-07-19T12:54:40Z</time>
      </trkpt>
      <trkpt lat="42.55691" lon="2.24458">
        <ele>844.6</ele>
        <time>2025-07-19T12:54:42Z</time>
      </trkpt>
      <trkpt lat="42.5569" lon="2.24443">
        <ele>845.4</ele>
        <time>2025-07-19T12:54:47Z</time>
      </trkpt>
      <trkpt lat="42.55689" lon="2.24438">
        <ele>845.6</ele>
        <time>2025-07-19T12:54:49Z</time>
      </trkpt>
      <trkpt lat="42.55688" lon="2.24428">
        <ele>846.4</ele>
        <time>2025-07-19T12:54:53Z</time>
      </trkpt>
      <trkpt lat="42.55688" lon="2.24419">
        <ele>846.8</ele>
        <time>2025-07-19T12:54:56Z</time>
      </trkpt>
      <trkpt lat="42.55689" lon="2.24401">
        <ele>847.6</ele>
        <time>2025-07-19T12:55:02Z</time>
      </trkpt>
      <trkpt lat="42.55689" lon="2.24398">
        <ele>847.8</ele>
        <time>2025-07-19T12:55:03Z</time>
      </trkpt>
      <trkpt lat="42.55691" lon="2.24383">
        <ele>848.8</ele>
        <time>2025-07-19T12:55:09Z</time>
      </trkpt>
      <trkpt lat="42.55691" lon="2.24381">
        <ele>849</ele>
        <time>2025-07-19T12:55:10Z</time>
      </trkpt>
      <trkpt lat="42.55693" lon="2.24367">
        <ele>850</ele>
        <time>2025-07-19T12:55:15Z</time>
      </trkpt>
      <trkpt lat="42.55695" lon="2.24354">
        <ele>850.2</ele>
        <time>2025-07-19T12:55:20Z</time>
      </trkpt>
      <trkpt lat="42.55697" lon="2.24336">
        <ele>851</ele>
        <time>2025-07-19T12:55:27Z</time>
      </trkpt>
      <trkpt lat="42.55698" lon="2.24333">
        <ele>851.2</ele>
        <time>2025-07-19T12:55:28Z</time>
      </trkpt>
      <trkpt lat="42.55701" lon="2.24319">
        <ele>852</ele>
        <time>2025-07-19T12:55:33Z</time>
      </trkpt>
      <trkpt lat="42.557" lon="2.24314">
        <ele>852.2</ele>
        <time>2025-07-19T12:55:35Z</time>
      </trkpt>
      <trkpt lat="42.55699" lon="2.24298">
        <ele>853.2</ele>
        <time>2025-07-19T12:55:40Z</time>
      </trkpt>
      <trkpt lat="42.55699" lon="2.24293">
        <ele>853.6</ele>
        <time>2025-07-19T12:55:42Z</time>
      </trkpt>
      <trkpt lat="42.55698" lon="2.24287">
        <ele>853.6</ele>
        <time>2025-07-19T12:55:44Z</time>
      </trkpt>
      <trkpt lat="42.55696" lon="2.24272">
        <ele>854.2</ele>
        <time>2025-07-19T12:55:49Z</time>
      </trkpt>
      <trkpt lat="42.55696" lon="2.24269">
        <ele>854.2</ele>
        <time>2025-07-19T12:55:50Z</time>
      </trkpt>
      <trkpt lat="42.55694" lon="2.24257">
        <ele>855.2</ele>
        <time>2025-07-19T12:55:54Z</time>
      </trkpt>
      <trkpt lat="42.55693" lon="2.24249">
        <ele>855.8</ele>
        <time>2025-07-19T12:55:57Z</time>
      </trkpt>
      <trkpt lat="42.55689" lon="2.24235">
        <ele>856.4</ele>
        <time>2025-07-19T12:56:02Z</time>
      </trkpt>
      <trkpt lat="42.55687" lon="2.24227">
        <ele>856.8</ele>
        <time>2025-07-19T12:56:05Z</time>
      </trkpt>
      <trkpt lat="42.55685" lon="2.24219">
        <ele>857.4</ele>
        <time>2025-07-19T12:56:08Z</time>
      </trkpt>
      <trkpt lat="42.55683" lon="2.24206">
        <ele>858.2</ele>
        <time>2025-07-19T12:56:13Z</time>
      </trkpt>
      <trkpt lat="42.55682" lon="2.24201">
        <ele>858.4</ele>
        <time>2025-07-19T12:56:15Z</time>
      </trkpt>
      <trkpt lat="42.55675" lon="2.24178">
        <ele>859</ele>
        <time>2025-07-19T12:56:23Z</time>
      </trkpt>
      <trkpt lat="42.55675" lon="2.24176">
        <ele>859</ele>
        <time>2025-07-19T12:56:24Z</time>
      </trkpt>
      <trkpt lat="42.55674" lon="2.24162">
        <ele>859.4</ele>
        <time>2025-07-19T12:56:29Z</time>
      </trkpt>
      <trkpt lat="42.55673" lon="2.24151">
        <ele>860</ele>
        <time>2025-07-19T12:56:33Z</time>
      </trkpt>
      <trkpt lat="42.55672" lon="2.24145">
        <ele>860.4</ele>
        <time>2025-07-19T12:56:35Z</time>
      </trkpt>
      <trkpt lat="42.5567" lon="2.24134">
        <ele>861.6</ele>
        <time>2025-07-19T12:56:39Z</time>
      </trkpt>
      <trkpt lat="42.55668" lon="2.24129">
        <ele>862</ele>
        <time>2025-07-19T12:56:41Z</time>
      </trkpt>
      <trkpt lat="42.55663" lon="2.24114">
        <ele>862.6</ele>
        <time>2025-07-19T12:56:47Z</time>
      </trkpt>
      <trkpt lat="42.55663" lon="2.24111">
        <ele>862.6</ele>
        <time>2025-07-19T12:56:48Z</time>
      </trkpt>
      <trkpt lat="42.55661" lon="2.24085">
        <ele>863.2</ele>
        <time>2025-07-19T12:56:57Z</time>
      </trkpt>
      <trkpt lat="42.55661" lon="2.24079">
        <ele>864</ele>
        <time>2025-07-19T12:56:59Z</time>
      </trkpt>
      <trkpt lat="42.55662" lon="2.24063">
        <ele>865</ele>
        <time>2025-07-19T12:57:04Z</time>
      </trkpt>
      <trkpt lat="42.55662" lon="2.24057">
        <ele>865.4</ele>
        <time>2025-07-19T12:57:06Z</time>
      </trkpt>
      <trkpt lat="42.55662" lon="2.24054">
        <ele>865.4</ele>
        <time>2025-07-19T12:57:07Z</time>
      </trkpt>
      <trkpt lat="42.55659" lon="2.2403">
        <ele>866</ele>
        <time>2025-07-19T12:57:15Z</time>
      </trkpt>
      <trkpt lat="42.55658" lon="2.24024">
        <ele>866.2</ele>
        <time>2025-07-19T12:57:17Z</time>
      </trkpt>
      <trkpt lat="42.55653" lon="2.24007">
        <ele>867</ele>
        <time>2025-07-19T12:57:23Z</time>
      </trkpt>
      <trkpt lat="42.55652" lon="2.24005">
        <ele>867.4</ele>
        <time>2025-07-19T12:57:24Z</time>
      </trkpt>
      <trkpt lat="42.55645" lon="2.23989">
        <ele>868.4</ele>
        <time>2025-07-19T12:57:30Z</time>
      </trkpt>
      <trkpt lat="42.55644" lon="2.23983">
        <ele>869</ele>
        <time>2025-07-19T12:57:32Z</time>
      </trkpt>
      <trkpt lat="42.55644" lon="2.2398">
        <ele>869.6</ele>
        <time>2025-07-19T12:57:33Z</time>
      </trkpt>
      <trkpt lat="42.55646" lon="2.23963">
        <ele>870.6</ele>
        <time>2025-07-19T12:57:39Z</time>
      </trkpt>
      <trkpt lat="42.55647" lon="2.2396">
        <ele>870.8</ele>
        <time>2025-07-19T12:57:40Z</time>
      </trkpt>
      <trkpt lat="42.55658" lon="2.23942">
        <ele>871</ele>
        <time>2025-07-19T12:57:48Z</time>
      </trkpt>
      <trkpt lat="42.55666" lon="2.23931">
        <ele>871.6</ele>
        <time>2025-07-19T12:57:53Z</time>
      </trkpt>
      <trkpt lat="42.55672" lon="2.23923">
        <ele>872</ele>
        <time>2025-07-19T12:57:57Z</time>
      </trkpt>
      <trkpt lat="42.55678" lon="2.23915">
        <ele>872.8</ele>
        <time>2025-07-19T12:58:01Z</time>
      </trkpt>
      <trkpt lat="42.55685" lon="2.23907">
        <ele>873.6</ele>
        <time>2025-07-19T12:58:05Z</time>
      </trkpt>
      <trkpt lat="42.55688" lon="2.23902">
        <ele>874</ele>
        <time>2025-07-19T12:58:07Z</time>
      </trkpt>
      <trkpt lat="42.55695" lon="2.2389">
        <ele>875</ele>
        <time>2025-07-19T12:58:12Z</time>
      </trkpt>
      <trkpt lat="42.55697" lon="2.23886">
        <ele>875.6</ele>
        <time>2025-07-19T12:58:14Z</time>
      </trkpt>
      <trkpt lat="42.557" lon="2.23879">
        <ele>876</ele>
        <time>2025-07-19T12:58:17Z</time>
      </trkpt>
      <trkpt lat="42.55705" lon="2.23866">
        <ele>877</ele>
        <time>2025-07-19T12:58:22Z</time>
      </trkpt>
      <trkpt lat="42.55706" lon="2.23861">
        <ele>877.4</ele>
        <time>2025-07-19T12:58:24Z</time>
      </trkpt>
      <trkpt lat="42.55708" lon="2.23855">
        <ele>877.6</ele>
        <time>2025-07-19T12:58:26Z</time>
      </trkpt>
      <trkpt lat="42.55711" lon="2.23842">
        <ele>878.6</ele>
        <time>2025-07-19T12:58:31Z</time>
      </trkpt>
      <trkpt lat="42.55717" lon="2.23821">
        <ele>879.6</ele>
        <time>2025-07-19T12:58:39Z</time>
      </trkpt>
      <trkpt lat="42.55719" lon="2.23816">
        <ele>880</ele>
        <time>2025-07-19T12:58:41Z</time>
      </trkpt>
      <trkpt lat="42.55731" lon="2.23792">
        <ele>880.6</ele>
        <time>2025-07-19T12:58:51Z</time>
      </trkpt>
      <trkpt lat="42.55733" lon="2.23787">
        <ele>880.6</ele>
        <time>2025-07-19T12:58:53Z</time>
      </trkpt>
      <trkpt lat="42.55736" lon="2.23782">
        <ele>880.8</ele>
        <time>2025-07-19T12:58:55Z</time>
      </trkpt>
      <trkpt lat="42.55744" lon="2.23774">
        <ele>881.2</ele>
        <time>2025-07-19T12:58:59Z</time>
      </trkpt>
      <trkpt lat="42.55755" lon="2.23771">
        <ele>881.6</ele>
        <time>2025-07-19T12:59:04Z</time>
      </trkpt>
      <trkpt lat="42.55757" lon="2.2377">
        <ele>881.8</ele>
        <time>2025-07-19T12:59:05Z</time>
      </trkpt>
      <trkpt lat="42.55765" lon="2.23765">
        <ele>882.6</ele>
        <time>2025-07-19T12:59:09Z</time>
      </trkpt>
      <trkpt lat="42.55769" lon="2.23758">
        <ele>883.2</ele>
        <time>2025-07-19T12:59:12Z</time>
      </trkpt>
      <trkpt lat="42.55773" lon="2.23743">
        <ele>883.8</ele>
        <time>2025-07-19T12:59:17Z</time>
      </trkpt>
      <trkpt lat="42.55774" lon="2.23735">
        <ele>884.6</ele>
        <time>2025-07-19T12:59:20Z</time>
      </trkpt>
      <trkpt lat="42.55775" lon="2.23732">
        <ele>884.8</ele>
        <time>2025-07-19T12:59:21Z</time>
      </trkpt>
      <trkpt lat="42.55776" lon="2.23723">
        <ele>885.2</ele>
        <time>2025-07-19T12:59:24Z</time>
      </trkpt>
      <trkpt lat="42.55778" lon="2.23707">
        <ele>885.8</ele>
        <time>2025-07-19T12:59:29Z</time>
      </trkpt>
      <trkpt lat="42.5577" lon="2.23685">
        <ele>887</ele>
        <time>2025-07-19T12:59:37Z</time>
      </trkpt>
      <trkpt lat="42.55769" lon="2.23682">
        <ele>887.4</ele>
        <time>2025-07-19T12:59:38Z</time>
      </trkpt>
      <trkpt lat="42.55767" lon="2.23677">
        <ele>888</ele>
        <time>2025-07-19T12:59:40Z</time>
      </trkpt>
      <trkpt lat="42.5576" lon="2.23658">
        <ele>888.6</ele>
        <time>2025-07-19T12:59:47Z</time>
      </trkpt>
      <trkpt lat="42.55759" lon="2.23652">
        <ele>888.8</ele>
        <time>2025-07-19T12:59:49Z</time>
      </trkpt>
      <trkpt lat="42.55755" lon="2.23634">
        <ele>889.2</ele>
        <time>2025-07-19T12:59:55Z</time>
      </trkpt>
      <trkpt lat="42.55754" lon="2.23631">
        <ele>889.4</ele>
        <time>2025-07-19T12:59:56Z</time>
      </trkpt>
      <trkpt lat="42.55751" lon="2.23626">
        <ele>889.8</ele>
        <time>2025-07-19T12:59:58Z</time>
      </trkpt>
      <trkpt lat="42.55744" lon="2.23607">
        <ele>890.8</ele>
        <time>2025-07-19T13:00:05Z</time>
      </trkpt>
      <trkpt lat="42.55743" lon="2.23604">
        <ele>890.8</ele>
        <time>2025-07-19T13:00:06Z</time>
      </trkpt>
      <trkpt lat="42.5574" lon="2.23587">
        <ele>892</ele>
        <time>2025-07-19T13:00:12Z</time>
      </trkpt>
      <trkpt lat="42.55739" lon="2.23581">
        <ele>892.4</ele>
        <time>2025-07-19T13:00:14Z</time>
      </trkpt>
      <trkpt lat="42.55742" lon="2.23566">
        <ele>893.2</ele>
        <time>2025-07-19T13:00:19Z</time>
      </trkpt>
      <trkpt lat="42.55745" lon="2.23562">
        <ele>893.6</ele>
        <time>2025-07-19T13:00:21Z</time>
      </trkpt>
      <trkpt lat="42.5575" lon="2.23557">
        <ele>894.2</ele>
        <time>2025-07-19T13:00:24Z</time>
      </trkpt>
      <trkpt lat="42.55756" lon="2.2355">
        <ele>894.8</ele>
        <time>2025-07-19T13:00:28Z</time>
      </trkpt>
      <trkpt lat="42.55758" lon="2.23549">
        <ele>895.2</ele>
        <time>2025-07-19T13:00:29Z</time>
      </trkpt>
      <trkpt lat="42.5576" lon="2.23547">
        <ele>895.8</ele>
        <time>2025-07-19T13:00:30Z</time>
      </trkpt>
      <trkpt lat="42.55773" lon="2.23535">
        <ele>896.6</ele>
        <time>2025-07-19T13:00:37Z</time>
      </trkpt>
      <trkpt lat="42.55778" lon="2.23529">
        <ele>896.8</ele>
        <time>2025-07-19T13:00:40Z</time>
      </trkpt>
      <trkpt lat="42.55789" lon="2.23517">
        <ele>897.8</ele>
        <time>2025-07-19T13:00:46Z</time>
      </trkpt>
      <trkpt lat="42.55801" lon="2.23501">
        <ele>898.8</ele>
        <time>2025-07-19T13:00:54Z</time>
      </trkpt>
      <trkpt lat="42.55806" lon="2.23495">
        <ele>899.6</ele>
        <time>2025-07-19T13:00:57Z</time>
      </trkpt>
      <trkpt lat="42.55812" lon="2.23491">
        <ele>900</ele>
        <time>2025-07-19T13:01:00Z</time>
      </trkpt>
      <trkpt lat="42.55823" lon="2.23485">
        <ele>900.8</ele>
        <time>2025-07-19T13:01:06Z</time>
      </trkpt>
      <trkpt lat="42.55825" lon="2.23484">
        <ele>901</ele>
        <time>2025-07-19T13:01:07Z</time>
      </trkpt>
      <trkpt lat="42.55835" lon="2.2348">
        <ele>902.4</ele>
        <time>2025-07-19T13:01:12Z</time>
      </trkpt>
      <trkpt lat="42.55839" lon="2.23478">
        <ele>902.6</ele>
        <time>2025-07-19T13:01:14Z</time>
      </trkpt>
      <trkpt lat="42.55854" lon="2.23475">
        <ele>903.6</ele>
        <time>2025-07-19T13:01:21Z</time>
      </trkpt>
      <trkpt lat="42.55856" lon="2.23475">
        <ele>903.6</ele>
        <time>2025-07-19T13:01:22Z</time>
      </trkpt>
      <trkpt lat="42.55865" lon="2.23472">
        <ele>904.8</ele>
        <time>2025-07-19T13:01:26Z</time>
      </trkpt>
      <trkpt lat="42.55871" lon="2.23468">
        <ele>905</ele>
        <time>2025-07-19T13:01:29Z</time>
      </trkpt>
      <trkpt lat="42.55882" lon="2.23455">
        <ele>905.8</ele>
        <time>2025-07-19T13:01:36Z</time>
      </trkpt>
      <trkpt lat="42.55883" lon="2.23452">
        <ele>905.6</ele>
        <time>2025-07-19T13:01:37Z</time>
      </trkpt>
      <trkpt lat="42.55892" lon="2.23442">
        <ele>906.4</ele>
        <time>2025-07-19T13:01:42Z</time>
      </trkpt>
      <trkpt lat="42.559" lon="2.23436">
        <ele>906.8</ele>
        <time>2025-07-19T13:01:46Z</time>
      </trkpt>
      <trkpt lat="42.55906" lon="2.23433">
        <ele>907.2</ele>
        <time>2025-07-19T13:01:49Z</time>
      </trkpt>
      <trkpt lat="42.55915" lon="2.2343">
        <ele>907.8</ele>
        <time>2025-07-19T13:01:53Z</time>
      </trkpt>
      <trkpt lat="42.55924" lon="2.23428">
        <ele>909</ele>
        <time>2025-07-19T13:01:57Z</time>
      </trkpt>
      <trkpt lat="42.55939" lon="2.23426">
        <ele>910</ele>
        <time>2025-07-19T13:02:04Z</time>
      </trkpt>
      <trkpt lat="42.55941" lon="2.23424">
        <ele>910.2</ele>
        <time>2025-07-19T13:02:05Z</time>
      </trkpt>
      <trkpt lat="42.55947" lon="2.23414">
        <ele>911</ele>
        <time>2025-07-19T13:02:09Z</time>
      </trkpt>
      <trkpt lat="42.55947" lon="2.23411">
        <ele>911.2</ele>
        <time>2025-07-19T13:02:10Z</time>
      </trkpt>
      <trkpt lat="42.55946" lon="2.23396">
        <ele>912</ele>
        <time>2025-07-19T13:02:15Z</time>
      </trkpt>
      <trkpt lat="42.55945" lon="2.23394">
        <ele>912.2</ele>
        <time>2025-07-19T13:02:16Z</time>
      </trkpt>
      <trkpt lat="42.55941" lon="2.23383">
        <ele>913.2</ele>
        <time>2025-07-19T13:02:20Z</time>
      </trkpt>
      <trkpt lat="42.55939" lon="2.23373">
        <ele>914</ele>
        <time>2025-07-19T13:02:24Z</time>
      </trkpt>
      <trkpt lat="42.55937" lon="2.23364">
        <ele>914.2</ele>
        <time>2025-07-19T13:02:27Z</time>
      </trkpt>
      <trkpt lat="42.55935" lon="2.23348">
        <ele>915</ele>
        <time>2025-07-19T13:02:33Z</time>
      </trkpt>
      <trkpt lat="42.55936" lon="2.23342">
        <ele>915.4</ele>
        <time>2025-07-19T13:02:35Z</time>
      </trkpt>
      <trkpt lat="42.5594" lon="2.23326">
        <ele>916.4</ele>
        <time>2025-07-19T13:02:41Z</time>
      </trkpt>
      <trkpt lat="42.55941" lon="2.23324">
        <ele>916.4</ele>
        <time>2025-07-19T13:02:42Z</time>
      </trkpt>
      <trkpt lat="42.55947" lon="2.23302">
        <ele>917.4</ele>
        <time>2025-07-19T13:02:50Z</time>
      </trkpt>
      <trkpt lat="42.55948" lon="2.23299">
        <ele>917.4</ele>
        <time>2025-07-19T13:02:51Z</time>
      </trkpt>
      <trkpt lat="42.55945" lon="2.23278">
        <ele>917.8</ele>
        <time>2025-07-19T13:02:58Z</time>
      </trkpt>
      <trkpt lat="42.55943" lon="2.23266">
        <ele>918.2</ele>
        <time>2025-07-19T13:03:02Z</time>
      </trkpt>
      <trkpt lat="42.55942" lon="2.2326">
        <ele>918.6</ele>
        <time>2025-07-19T13:03:04Z</time>
      </trkpt>
      <trkpt lat="42.55944" lon="2.23243">
        <ele>919.4</ele>
        <time>2025-07-19T13:03:10Z</time>
      </trkpt>
      <trkpt lat="42.55944" lon="2.2324">
        <ele>919.6</ele>
        <time>2025-07-19T13:03:11Z</time>
      </trkpt>
      <trkpt lat="42.55945" lon="2.23229">
        <ele>920.4</ele>
        <time>2025-07-19T13:03:15Z</time>
      </trkpt>
      <trkpt lat="42.55942" lon="2.23218">
        <ele>921.2</ele>
        <time>2025-07-19T13:03:19Z</time>
      </trkpt>
      <trkpt lat="42.55939" lon="2.2321">
        <ele>921.6</ele>
        <time>2025-07-19T13:03:22Z</time>
      </trkpt>
      <trkpt lat="42.55935" lon="2.23199">
        <ele>922.2</ele>
        <time>2025-07-19T13:03:26Z</time>
      </trkpt>
      <trkpt lat="42.55934" lon="2.23185">
        <ele>922.6</ele>
        <time>2025-07-19T13:03:31Z</time>
      </trkpt>
      <trkpt lat="42.55934" lon="2.23182">
        <ele>923</ele>
        <time>2025-07-19T13:03:32Z</time>
      </trkpt>
      <trkpt lat="42.55933" lon="2.23165">
        <ele>923.8</ele>
        <time>2025-07-19T13:03:38Z</time>
      </trkpt>
      <trkpt lat="42.55932" lon="2.23157">
        <ele>924.6</ele>
        <time>2025-07-19T13:03:41Z</time>
      </trkpt>
      <trkpt lat="42.55931" lon="2.23151">
        <ele>925</ele>
        <time>2025-07-19T13:03:43Z</time>
      </trkpt>
      <trkpt lat="42.5593" lon="2.23132">
        <ele>926</ele>
        <time>2025-07-19T13:03:50Z</time>
      </trkpt>
      <trkpt lat="42.55929" lon="2.23123">
        <ele>926</ele>
        <time>2025-07-19T13:03:53Z</time>
      </trkpt>
      <trkpt lat="42.55927" lon="2.23107">
        <ele>927</ele>
        <time>2025-07-19T13:03:59Z</time>
      </trkpt>
      <trkpt lat="42.55927" lon="2.23101">
        <ele>927.2</ele>
        <time>2025-07-19T13:04:01Z</time>
      </trkpt>
      <trkpt lat="42.55923" lon="2.23082">
        <ele>928.4</ele>
        <time>2025-07-19T13:04:08Z</time>
      </trkpt>
      <trkpt lat="42.55918" lon="2.23062">
        <ele>929.4</ele>
        <time>2025-07-19T13:04:15Z</time>
      </trkpt>
      <trkpt lat="42.55918" lon="2.23059">
        <ele>929.4</ele>
        <time>2025-07-19T13:04:16Z</time>
      </trkpt>
      <trkpt lat="42.55916" lon="2.23041">
        <ele>930.2</ele>
        <time>2025-07-19T13:04:22Z</time>
      </trkpt>
      <trkpt lat="42.55919" lon="2.23032">
        <ele>930.8</ele>
        <time>2025-07-19T13:04:25Z</time>
      </trkpt>
      <trkpt lat="42.55923" lon="2.23026">
        <ele>931.2</ele>
        <time>2025-07-19T13:04:28Z</time>
      </trkpt>
      <trkpt lat="42.55927" lon="2.23022">
        <ele>931.8</ele>
        <time>2025-07-19T13:04:30Z</time>
      </trkpt>
      <trkpt lat="42.55936" lon="2.23019">
        <ele>932.4</ele>
        <time>2025-07-19T13:04:34Z</time>
      </trkpt>
      <trkpt lat="42.5594" lon="2.23019">
        <ele>932.8</ele>
        <time>2025-07-19T13:04:36Z</time>
      </trkpt>
      <trkpt lat="42.5595" lon="2.23023">
        <ele>933.4</ele>
        <time>2025-07-19T13:04:40Z</time>
      </trkpt>
      <trkpt lat="42.55959" lon="2.23033">
        <ele>934</ele>
        <time>2025-07-19T13:04:45Z</time>
      </trkpt>
      <trkpt lat="42.55967" lon="2.23042">
        <ele>934.6</ele>
        <time>2025-07-19T13:04:49Z</time>
      </trkpt>
      <trkpt lat="42.55971" lon="2.23047">
        <ele>935</ele>
        <time>2025-07-19T13:04:51Z</time>
      </trkpt>
      <trkpt lat="42.55986" lon="2.23064">
        <ele>936</ele>
        <time>2025-07-19T13:04:59Z</time>
      </trkpt>
      <trkpt lat="42.55991" lon="2.2307">
        <ele>936.4</ele>
        <time>2025-07-19T13:05:02Z</time>
      </trkpt>
      <trkpt lat="42.55998" lon="2.23077">
        <ele>936.8</ele>
        <time>2025-07-19T13:05:06Z</time>
      </trkpt>
      <trkpt lat="42.56" lon="2.23081">
        <ele>937.2</ele>
        <time>2025-07-19T13:05:08Z</time>
      </trkpt>
      <trkpt lat="42.56003" lon="2.23085">
        <ele>937.6</ele>
        <time>2025-07-19T13:05:10Z</time>
      </trkpt>
      <trkpt lat="42.56013" lon="2.2309">
        <ele>938.8</ele>
        <time>2025-07-19T13:05:15Z</time>
      </trkpt>
      <trkpt lat="42.56029" lon="2.23083">
        <ele>940</ele>
        <time>2025-07-19T13:05:22Z</time>
      </trkpt>
      <trkpt lat="42.56031" lon="2.23081">
        <ele>940</ele>
        <time>2025-07-19T13:05:23Z</time>
      </trkpt>
      <trkpt lat="42.56043" lon="2.23074">
        <ele>940.6</ele>
        <time>2025-07-19T13:05:29Z</time>
      </trkpt>
      <trkpt lat="42.56052" lon="2.23072">
        <ele>941</ele>
        <time>2025-07-19T13:05:33Z</time>
      </trkpt>
      <trkpt lat="42.56062" lon="2.23074">
        <ele>941.6</ele>
        <time>2025-07-19T13:05:37Z</time>
      </trkpt>
      <trkpt lat="42.56074" lon="2.23077">
        <ele>942.2</ele>
        <time>2025-07-19T13:05:42Z</time>
      </trkpt>
      <trkpt lat="42.56076" lon="2.23076">
        <ele>942.2</ele>
        <time>2025-07-19T13:05:43Z</time>
      </trkpt>
      <trkpt lat="42.56094" lon="2.23072">
        <ele>943.2</ele>
        <time>2025-07-19T13:05:50Z</time>
      </trkpt>
      <trkpt lat="42.56097" lon="2.23071">
        <ele>943.4</ele>
        <time>2025-07-19T13:05:51Z</time>
      </trkpt>
      <trkpt lat="42.56116" lon="2.23068">
        <ele>944</ele>
        <time>2025-07-19T13:05:58Z</time>
      </trkpt>
      <trkpt lat="42.56121" lon="2.23069">
        <ele>944.4</ele>
        <time>2025-07-19T13:06:00Z</time>
      </trkpt>
      <trkpt lat="42.5614" lon="2.2307">
        <ele>944.8</ele>
        <time>2025-07-19T13:06:07Z</time>
      </trkpt>
      <trkpt lat="42.56156" lon="2.23071">
        <ele>945.2</ele>
        <time>2025-07-19T13:06:12Z</time>
      </trkpt>
      <trkpt lat="42.56162" lon="2.23071">
        <ele>945.4</ele>
        <time>2025-07-19T13:06:14Z</time>
      </trkpt>
      <trkpt lat="42.56175" lon="2.23069">
        <ele>946.4</ele>
        <time>2025-07-19T13:06:18Z</time>
      </trkpt>
      <trkpt lat="42.56187" lon="2.23063">
        <ele>946.6</ele>
        <time>2025-07-19T13:06:22Z</time>
      </trkpt>
      <trkpt lat="42.56208" lon="2.23044">
        <ele>947.6</ele>
        <time>2025-07-19T13:06:30Z</time>
      </trkpt>
      <trkpt lat="42.56225" lon="2.23032">
        <ele>948.4</ele>
        <time>2025-07-19T13:06:36Z</time>
      </trkpt>
      <trkpt lat="42.56228" lon="2.23032">
        <ele>948.8</ele>
        <time>2025-07-19T13:06:37Z</time>
      </trkpt>
      <trkpt lat="42.56244" lon="2.2304">
        <ele>949.4</ele>
        <time>2025-07-19T13:06:42Z</time>
      </trkpt>
      <trkpt lat="42.56258" lon="2.23048">
        <ele>950</ele>
        <time>2025-07-19T13:06:47Z</time>
      </trkpt>
      <trkpt lat="42.56267" lon="2.23052">
        <ele>950.6</ele>
        <time>2025-07-19T13:06:50Z</time>
      </trkpt>
      <trkpt lat="42.5628" lon="2.23049">
        <ele>951</ele>
        <time>2025-07-19T13:06:54Z</time>
      </trkpt>
      <trkpt lat="42.56283" lon="2.23046">
        <ele>951.2</ele>
        <time>2025-07-19T13:06:55Z</time>
      </trkpt>
      <trkpt lat="42.56287" lon="2.23035">
        <ele>951.8</ele>
        <time>2025-07-19T13:06:58Z</time>
      </trkpt>
      <trkpt lat="42.56288" lon="2.23019">
        <ele>952</ele>
        <time>2025-07-19T13:07:02Z</time>
      </trkpt>
      <trkpt lat="42.56288" lon="2.23007">
        <ele>952.4</ele>
        <time>2025-07-19T13:07:05Z</time>
      </trkpt>
      <trkpt lat="42.5629" lon="2.22987">
        <ele>953.2</ele>
        <time>2025-07-19T13:07:10Z</time>
      </trkpt>
      <trkpt lat="42.56291" lon="2.22979">
        <ele>953.4</ele>
        <time>2025-07-19T13:07:12Z</time>
      </trkpt>
      <trkpt lat="42.56294" lon="2.22955">
        <ele>954.2</ele>
        <time>2025-07-19T13:07:18Z</time>
      </trkpt>
      <trkpt lat="42.56297" lon="2.22948">
        <ele>954.6</ele>
        <time>2025-07-19T13:07:20Z</time>
      </trkpt>
      <trkpt lat="42.56311" lon="2.22939">
        <ele>955.2</ele>
        <time>2025-07-19T13:07:25Z</time>
      </trkpt>
      <trkpt lat="42.56325" lon="2.22935">
        <ele>956.4</ele>
        <time>2025-07-19T13:07:30Z</time>
      </trkpt>
      <trkpt lat="42.56334" lon="2.2293">
        <ele>956.8</ele>
        <time>2025-07-19T13:07:33Z</time>
      </trkpt>
      <trkpt lat="42.56348" lon="2.22926">
        <ele>957.2</ele>
        <time>2025-07-19T13:07:38Z</time>
      </trkpt>
      <trkpt lat="42.56357" lon="2.2293">
        <ele>957.4</ele>
        <time>2025-07-19T13:07:41Z</time>
      </trkpt>
      <trkpt lat="42.5637" lon="2.22934">
        <ele>957.6</ele>
        <time>2025-07-19T13:07:45Z</time>
      </trkpt>
      <trkpt lat="42.5639" lon="2.22932">
        <ele>958.2</ele>
        <time>2025-07-19T13:07:52Z</time>
      </trkpt>
      <trkpt lat="42.56404" lon="2.22927">
        <ele>958.6</ele>
        <time>2025-07-19T13:07:57Z</time>
      </trkpt>
      <trkpt lat="42.56407" lon="2.22924">
        <ele>958.8</ele>
        <time>2025-07-19T13:07:59Z</time>
      </trkpt>
      <trkpt lat="42.56414" lon="2.22918">
        <ele>959</ele>
        <time>2025-07-19T13:08:03Z</time>
      </trkpt>
      <trkpt lat="42.56415" lon="2.22917">
        <ele>959.2</ele>
        <time>2025-07-19T13:08:04Z</time>
      </trkpt>
      <trkpt lat="42.56415" lon="2.22915">
        <ele>959.4</ele>
        <time>2025-07-19T13:08:05Z</time>
      </trkpt>
      <trkpt lat="42.56415" lon="2.22914">
        <ele>959.8</ele>
        <time>2025-07-19T13:08:09Z</time>
      </trkpt>
      <trkpt lat="42.56413" lon="2.22921">
        <ele>958.8</ele>
        <time>2025-07-19T13:47:31Z</time>
      </trkpt>
      <trkpt lat="42.56423" lon="2.22912">
        <ele>959.2</ele>
        <time>2025-07-19T13:47:37Z</time>
      </trkpt>
      <trkpt lat="42.56433" lon="2.22902">
        <ele>959.8</ele>
        <time>2025-07-19T13:47:42Z</time>
      </trkpt>
      <trkpt lat="42.56434" lon="2.22898">
        <ele>959.8</ele>
        <time>2025-07-19T13:47:43Z</time>
      </trkpt>
      <trkpt lat="42.56434" lon="2.22889">
        <ele>960</ele>
        <time>2025-07-19T13:47:46Z</time>
      </trkpt>
      <trkpt lat="42.56431" lon="2.22883">
        <ele>960</ele>
        <time>2025-07-19T13:47:48Z</time>
      </trkpt>
      <trkpt lat="42.56429" lon="2.22881">
        <ele>960.2</ele>
        <time>2025-07-19T13:47:49Z</time>
      </trkpt>
      <trkpt lat="42.56421" lon="2.2288">
        <ele>960.4</ele>
        <time>2025-07-19T13:47:52Z</time>
      </trkpt>
      <trkpt lat="42.56415" lon="2.22879">
        <ele>960.8</ele>
        <time>2025-07-19T13:47:54Z</time>
      </trkpt>
      <trkpt lat="42.56407" lon="2.2288">
        <ele>961.2</ele>
        <time>2025-07-19T13:47:57Z</time>
      </trkpt>
      <trkpt lat="42.56396" lon="2.22879">
        <ele>961.8</ele>
        <time>2025-07-19T13:48:01Z</time>
      </trkpt>
      <trkpt lat="42.56388" lon="2.22875">
        <ele>962</ele>
        <time>2025-07-19T13:48:04Z</time>
      </trkpt>
      <trkpt lat="42.56375" lon="2.2286">
        <ele>962.6</ele>
        <time>2025-07-19T13:48:10Z</time>
      </trkpt>
      <trkpt lat="42.5637" lon="2.22855">
        <ele>963</ele>
        <time>2025-07-19T13:48:12Z</time>
      </trkpt>
      <trkpt lat="42.56357" lon="2.22836">
        <ele>963.4</ele>
        <time>2025-07-19T13:48:19Z</time>
      </trkpt>
      <trkpt lat="42.56338" lon="2.22822">
        <ele>963.6</ele>
        <time>2025-07-19T13:48:27Z</time>
      </trkpt>
      <trkpt lat="42.56334" lon="2.22819">
        <ele>964</ele>
        <time>2025-07-19T13:48:29Z</time>
      </trkpt>
      <trkpt lat="42.56324" lon="2.22806">
        <ele>964.6</ele>
        <time>2025-07-19T13:48:35Z</time>
      </trkpt>
      <trkpt lat="42.5632" lon="2.22797">
        <ele>965</ele>
        <time>2025-07-19T13:48:38Z</time>
      </trkpt>
      <trkpt lat="42.56315" lon="2.22786">
        <ele>965</ele>
        <time>2025-07-19T13:48:42Z</time>
      </trkpt>
      <trkpt lat="42.563" lon="2.22775">
        <ele>964.8</ele>
        <time>2025-07-19T13:48:47Z</time>
      </trkpt>
      <trkpt lat="42.56284" lon="2.22772">
        <ele>965</ele>
        <time>2025-07-19T13:48:52Z</time>
      </trkpt>
      <trkpt lat="42.5626" lon="2.22768">
        <ele>965.8</ele>
        <time>2025-07-19T13:48:59Z</time>
      </trkpt>
      <trkpt lat="42.56253" lon="2.22766">
        <ele>966.2</ele>
        <time>2025-07-19T13:49:01Z</time>
      </trkpt>
      <trkpt lat="42.56236" lon="2.22761">
        <ele>966.8</ele>
        <time>2025-07-19T13:49:06Z</time>
      </trkpt>
      <trkpt lat="42.56214" lon="2.22748">
        <ele>967.2</ele>
        <time>2025-07-19T13:49:13Z</time>
      </trkpt>
      <trkpt lat="42.56192" lon="2.22736">
        <ele>967.4</ele>
        <time>2025-07-19T13:49:20Z</time>
      </trkpt>
      <trkpt lat="42.56188" lon="2.22735">
        <ele>967.4</ele>
        <time>2025-07-19T13:49:21Z</time>
      </trkpt>
      <trkpt lat="42.56165" lon="2.2273">
        <ele>967.8</ele>
        <time>2025-07-19T13:49:28Z</time>
      </trkpt>
      <trkpt lat="42.56156" lon="2.2273">
        <ele>968</ele>
        <time>2025-07-19T13:49:31Z</time>
      </trkpt>
      <trkpt lat="42.56144" lon="2.2273">
        <ele>968.6</ele>
        <time>2025-07-19T13:49:35Z</time>
      </trkpt>
      <trkpt lat="42.56131" lon="2.22726">
        <ele>969.2</ele>
        <time>2025-07-19T13:49:40Z</time>
      </trkpt>
      <trkpt lat="42.56125" lon="2.22721">
        <ele>969.8</ele>
        <time>2025-07-19T13:49:43Z</time>
      </trkpt>
      <trkpt lat="42.56121" lon="2.22714">
        <ele>970</ele>
        <time>2025-07-19T13:49:46Z</time>
      </trkpt>
      <trkpt lat="42.56113" lon="2.22692">
        <ele>970.4</ele>
        <time>2025-07-19T13:49:52Z</time>
      </trkpt>
      <trkpt lat="42.56112" lon="2.22663">
        <ele>971</ele>
        <time>2025-07-19T13:49:59Z</time>
      </trkpt>
      <trkpt lat="42.56113" lon="2.22658">
        <ele>971.2</ele>
        <time>2025-07-19T13:50:00Z</time>
      </trkpt>
      <trkpt lat="42.5611" lon="2.22631">
        <ele>971.4</ele>
        <time>2025-07-19T13:50:06Z</time>
      </trkpt>
      <trkpt lat="42.56106" lon="2.22603">
        <ele>971.8</ele>
        <time>2025-07-19T13:50:12Z</time>
      </trkpt>
      <trkpt lat="42.56108" lon="2.22588">
        <ele>972.2</ele>
        <time>2025-07-19T13:50:15Z</time>
      </trkpt>
      <trkpt lat="42.56112" lon="2.22568">
        <ele>972.6</ele>
        <time>2025-07-19T13:50:19Z</time>
      </trkpt>
      <trkpt lat="42.56118" lon="2.22547">
        <ele>973.2</ele>
        <time>2025-07-19T13:50:24Z</time>
      </trkpt>
      <trkpt lat="42.56129" lon="2.22534">
        <ele>973.4</ele>
        <time>2025-07-19T13:50:28Z</time>
      </trkpt>
      <trkpt lat="42.56132" lon="2.22531">
        <ele>973.4</ele>
        <time>2025-07-19T13:50:29Z</time>
      </trkpt>
      <trkpt lat="42.56137" lon="2.22513">
        <ele>974</ele>
        <time>2025-07-19T13:50:33Z</time>
      </trkpt>
      <trkpt lat="42.56132" lon="2.22495">
        <ele>974.4</ele>
        <time>2025-07-19T13:50:37Z</time>
      </trkpt>
      <trkpt lat="42.56127" lon="2.22489">
        <ele>974.8</ele>
        <time>2025-07-19T13:50:39Z</time>
      </trkpt>
      <trkpt lat="42.56119" lon="2.22481">
        <ele>975.4</ele>
        <time>2025-07-19T13:50:42Z</time>
      </trkpt>
      <trkpt lat="42.56107" lon="2.22451">
        <ele>976</ele>
        <time>2025-07-19T13:50:49Z</time>
      </trkpt>
      <trkpt lat="42.56102" lon="2.22428">
        <ele>976.2</ele>
        <time>2025-07-19T13:50:54Z</time>
      </trkpt>
      <trkpt lat="42.56107" lon="2.22404">
        <ele>977</ele>
        <time>2025-07-19T13:50:59Z</time>
      </trkpt>
      <trkpt lat="42.56109" lon="2.224">
        <ele>977.2</ele>
        <time>2025-07-19T13:51:00Z</time>
      </trkpt>
      <trkpt lat="42.56112" lon="2.2239">
        <ele>977.2</ele>
        <time>2025-07-19T13:51:02Z</time>
      </trkpt>
      <trkpt lat="42.56112" lon="2.22375">
        <ele>977.4</ele>
        <time>2025-07-19T13:51:05Z</time>
      </trkpt>
      <trkpt lat="42.56104" lon="2.22361">
        <ele>977.6</ele>
        <time>2025-07-19T13:51:09Z</time>
      </trkpt>
      <trkpt lat="42.56098" lon="2.22355">
        <ele>978</ele>
        <time>2025-07-19T13:51:11Z</time>
      </trkpt>
      <trkpt lat="42.56088" lon="2.22343">
        <ele>978.8</ele>
        <time>2025-07-19T13:51:15Z</time>
      </trkpt>
      <trkpt lat="42.56081" lon="2.22332">
        <ele>979.2</ele>
        <time>2025-07-19T13:51:18Z</time>
      </trkpt>
      <trkpt lat="42.56072" lon="2.22315">
        <ele>979.8</ele>
        <time>2025-07-19T13:51:22Z</time>
      </trkpt>
      <trkpt lat="42.5607" lon="2.22292">
        <ele>980</ele>
        <time>2025-07-19T13:51:27Z</time>
      </trkpt>
      <trkpt lat="42.56071" lon="2.22271">
        <ele>980.4</ele>
        <time>2025-07-19T13:51:31Z</time>
      </trkpt>
      <trkpt lat="42.56072" lon="2.2226">
        <ele>980.8</ele>
        <time>2025-07-19T13:51:34Z</time>
      </trkpt>
      <trkpt lat="42.56076" lon="2.22239">
        <ele>981.2</ele>
        <time>2025-07-19T13:51:39Z</time>
      </trkpt>
      <trkpt lat="42.56077" lon="2.22234">
        <ele>981.4</ele>
        <time>2025-07-19T13:51:40Z</time>
      </trkpt>
      <trkpt lat="42.56085" lon="2.22208">
        <ele>982</ele>
        <time>2025-07-19T13:51:46Z</time>
      </trkpt>
      <trkpt lat="42.56083" lon="2.22194">
        <ele>982.6</ele>
        <time>2025-07-19T13:51:49Z</time>
      </trkpt>
      <trkpt lat="42.56081" lon="2.2219">
        <ele>982.8</ele>
        <time>2025-07-19T13:51:50Z</time>
      </trkpt>
      <trkpt lat="42.56061" lon="2.22168">
        <ele>983.4</ele>
        <time>2025-07-19T13:51:57Z</time>
      </trkpt>
      <trkpt lat="42.56051" lon="2.2216">
        <ele>983.6</ele>
        <time>2025-07-19T13:52:00Z</time>
      </trkpt>
      <trkpt lat="42.56033" lon="2.22151">
        <ele>984.2</ele>
        <time>2025-07-19T13:52:05Z</time>
      </trkpt>
      <trkpt lat="42.5603" lon="2.22149">
        <ele>984.4</ele>
        <time>2025-07-19T13:52:06Z</time>
      </trkpt>
      <trkpt lat="42.56008" lon="2.22137">
        <ele>985.6</ele>
        <time>2025-07-19T13:52:13Z</time>
      </trkpt>
      <trkpt lat="42.56002" lon="2.22133">
        <ele>985.8</ele>
        <time>2025-07-19T13:52:15Z</time>
      </trkpt>
      <trkpt lat="42.55985" lon="2.22109">
        <ele>986.4</ele>
        <time>2025-07-19T13:52:22Z</time>
      </trkpt>
      <trkpt lat="42.55982" lon="2.221">
        <ele>986.6</ele>
        <time>2025-07-19T13:52:24Z</time>
      </trkpt>
      <trkpt lat="42.55981" lon="2.22086">
        <ele>987.4</ele>
        <time>2025-07-19T13:52:27Z</time>
      </trkpt>
      <trkpt lat="42.55991" lon="2.22063">
        <ele>987.8</ele>
        <time>2025-07-19T13:52:32Z</time>
      </trkpt>
      <trkpt lat="42.55995" lon="2.22041">
        <ele>988.4</ele>
        <time>2025-07-19T13:52:37Z</time>
      </trkpt>
      <trkpt lat="42.5599" lon="2.22023">
        <ele>989</ele>
        <time>2025-07-19T13:52:41Z</time>
      </trkpt>
      <trkpt lat="42.55986" lon="2.22014">
        <ele>989</ele>
        <time>2025-07-19T13:52:43Z</time>
      </trkpt>
      <trkpt lat="42.55976" lon="2.21977">
        <ele>990</ele>
        <time>2025-07-19T13:52:51Z</time>
      </trkpt>
      <trkpt lat="42.55978" lon="2.21947">
        <ele>991.4</ele>
        <time>2025-07-19T13:52:57Z</time>
      </trkpt>
      <trkpt lat="42.5599" lon="2.21929">
        <ele>992</ele>
        <time>2025-07-19T13:53:02Z</time>
      </trkpt>
      <trkpt lat="42.56006" lon="2.21918">
        <ele>992.4</ele>
        <time>2025-07-19T13:53:07Z</time>
      </trkpt>
      <trkpt lat="42.5602" lon="2.21907">
        <ele>993</ele>
        <time>2025-07-19T13:53:12Z</time>
      </trkpt>
      <trkpt lat="42.56028" lon="2.21889">
        <ele>993.8</ele>
        <time>2025-07-19T13:53:17Z</time>
      </trkpt>
      <trkpt lat="42.56036" lon="2.21867">
        <ele>994.6</ele>
        <time>2025-07-19T13:53:23Z</time>
      </trkpt>
      <trkpt lat="42.56037" lon="2.21863">
        <ele>994.8</ele>
        <time>2025-07-19T13:53:24Z</time>
      </trkpt>
      <trkpt lat="42.56047" lon="2.2184">
        <ele>995.6</ele>
        <time>2025-07-19T13:53:30Z</time>
      </trkpt>
      <trkpt lat="42.56049" lon="2.21837">
        <ele>995.8</ele>
        <time>2025-07-19T13:53:31Z</time>
      </trkpt>
      <trkpt lat="42.56056" lon="2.21831">
        <ele>996.2</ele>
        <time>2025-07-19T13:53:34Z</time>
      </trkpt>
      <trkpt lat="42.56073" lon="2.21819">
        <ele>997.4</ele>
        <time>2025-07-19T13:53:40Z</time>
      </trkpt>
      <trkpt lat="42.56077" lon="2.21817">
        <ele>997.4</ele>
        <time>2025-07-19T13:53:41Z</time>
      </trkpt>
      <trkpt lat="42.56094" lon="2.21813">
        <ele>998.4</ele>
        <time>2025-07-19T13:53:47Z</time>
      </trkpt>
      <trkpt lat="42.56097" lon="2.21813">
        <ele>998.6</ele>
        <time>2025-07-19T13:53:48Z</time>
      </trkpt>
      <trkpt lat="42.56123" lon="2.21814">
        <ele>999.8</ele>
        <time>2025-07-19T13:53:56Z</time>
      </trkpt>
      <trkpt lat="42.5614" lon="2.21813">
        <ele>1000.4</ele>
        <time>2025-07-19T13:54:01Z</time>
      </trkpt>
      <trkpt lat="42.56161" lon="2.21805">
        <ele>1001.2</ele>
        <time>2025-07-19T13:54:08Z</time>
      </trkpt>
      <trkpt lat="42.5618" lon="2.21807">
        <ele>1001.6</ele>
        <time>2025-07-19T13:54:15Z</time>
      </trkpt>
      <trkpt lat="42.56196" lon="2.21799">
        <ele>1001.8</ele>
        <time>2025-07-19T13:54:21Z</time>
      </trkpt>
      <trkpt lat="42.56215" lon="2.21779">
        <ele>1002.2</ele>
        <time>2025-07-19T13:54:28Z</time>
      </trkpt>
      <trkpt lat="42.56229" lon="2.21766">
        <ele>1002.4</ele>
        <time>2025-07-19T13:54:33Z</time>
      </trkpt>
      <trkpt lat="42.56238" lon="2.21762">
        <ele>1002.6</ele>
        <time>2025-07-19T13:54:36Z</time>
      </trkpt>
      <trkpt lat="42.56256" lon="2.21753">
        <ele>1002.6</ele>
        <time>2025-07-19T13:54:42Z</time>
      </trkpt>
      <trkpt lat="42.56279" lon="2.21734">
        <ele>1003.4</ele>
        <time>2025-07-19T13:54:50Z</time>
      </trkpt>
      <trkpt lat="42.5628" lon="2.2173">
        <ele>1003.6</ele>
        <time>2025-07-19T13:54:51Z</time>
      </trkpt>
      <trkpt lat="42.5628" lon="2.21719">
        <ele>1003.8</ele>
        <time>2025-07-19T13:54:53Z</time>
      </trkpt>
      <trkpt lat="42.5628" lon="2.21716">
        <ele>1003.8</ele>
        <time>2025-07-19T13:54:54Z</time>
      </trkpt>
      <trkpt lat="42.56274" lon="2.21703">
        <ele>1004</ele>
        <time>2025-07-19T13:54:57Z</time>
      </trkpt>
      <trkpt lat="42.56263" lon="2.21684">
        <ele>1004.6</ele>
        <time>2025-07-19T13:55:02Z</time>
      </trkpt>
      <trkpt lat="42.56261" lon="2.21681">
        <ele>1004.6</ele>
        <time>2025-07-19T13:55:03Z</time>
      </trkpt>
      <trkpt lat="42.56247" lon="2.21656">
        <ele>1004.6</ele>
        <time>2025-07-19T13:55:10Z</time>
      </trkpt>
      <trkpt lat="42.56235" lon="2.21632">
        <ele>1005</ele>
        <time>2025-07-19T13:55:16Z</time>
      </trkpt>
      <trkpt lat="42.56234" lon="2.21628">
        <ele>1005</ele>
        <time>2025-07-19T13:55:17Z</time>
      </trkpt>
      <trkpt lat="42.5622" lon="2.21608">
        <ele>1004.8</ele>
        <time>2025-07-19T13:55:24Z</time>
      </trkpt>
      <trkpt lat="42.562" lon="2.21591">
        <ele>1005.2</ele>
        <time>2025-07-19T13:55:31Z</time>
      </trkpt>
      <trkpt lat="42.56198" lon="2.21577">
        <ele>1005.4</ele>
        <time>2025-07-19T13:55:34Z</time>
      </trkpt>
      <trkpt lat="42.562" lon="2.21573">
        <ele>1005.4</ele>
        <time>2025-07-19T13:55:35Z</time>
      </trkpt>
      <trkpt lat="42.56208" lon="2.21563">
        <ele>1005.6</ele>
        <time>2025-07-19T13:55:38Z</time>
      </trkpt>
      <trkpt lat="42.56214" lon="2.21557">
        <ele>1005.6</ele>
        <time>2025-07-19T13:55:40Z</time>
      </trkpt>
      <trkpt lat="42.5624" lon="2.21535">
        <ele>1006</ele>
        <time>2025-07-19T13:55:48Z</time>
      </trkpt>
      <trkpt lat="42.56261" lon="2.21518">
        <ele>1006.4</ele>
        <time>2025-07-19T13:55:55Z</time>
      </trkpt>
      <trkpt lat="42.56273" lon="2.21508">
        <ele>1006.8</ele>
        <time>2025-07-19T13:55:59Z</time>
      </trkpt>
      <trkpt lat="42.56279" lon="2.21501">
        <ele>1007.2</ele>
        <time>2025-07-19T13:56:01Z</time>
      </trkpt>
      <trkpt lat="42.56303" lon="2.21466">
        <ele>1007.4</ele>
        <time>2025-07-19T13:56:10Z</time>
      </trkpt>
      <trkpt lat="42.56313" lon="2.21438">
        <ele>1008</ele>
        <time>2025-07-19T13:56:16Z</time>
      </trkpt>
      <trkpt lat="42.56314" lon="2.21433">
        <ele>1008</ele>
        <time>2025-07-19T13:56:17Z</time>
      </trkpt>
      <trkpt lat="42.56318" lon="2.2139">
        <ele>1008.4</ele>
        <time>2025-07-19T13:56:25Z</time>
      </trkpt>
      <trkpt lat="42.56322" lon="2.21367">
        <ele>1008.4</ele>
        <time>2025-07-19T13:56:29Z</time>
      </trkpt>
      <trkpt lat="42.56326" lon="2.21352">
        <ele>1008.6</ele>
        <time>2025-07-19T13:56:32Z</time>
      </trkpt>
      <trkpt lat="42.56331" lon="2.2133">
        <ele>1009</ele>
        <time>2025-07-19T13:56:37Z</time>
      </trkpt>
      <trkpt lat="42.56331" lon="2.21325">
        <ele>1009.2</ele>
        <time>2025-07-19T13:56:38Z</time>
      </trkpt>
      <trkpt lat="42.56328" lon="2.213">
        <ele>1010</ele>
        <time>2025-07-19T13:56:43Z</time>
      </trkpt>
      <trkpt lat="42.56325" lon="2.21289">
        <ele>1010.2</ele>
        <time>2025-07-19T13:56:45Z</time>
      </trkpt>
      <trkpt lat="42.56323" lon="2.21274">
        <ele>1010.4</ele>
        <time>2025-07-19T13:56:48Z</time>
      </trkpt>
      <trkpt lat="42.56323" lon="2.21247">
        <ele>1010.6</ele>
        <time>2025-07-19T13:56:53Z</time>
      </trkpt>
      <trkpt lat="42.56311" lon="2.21227">
        <ele>1011.2</ele>
        <time>2025-07-19T13:56:58Z</time>
      </trkpt>
      <trkpt lat="42.56299" lon="2.21196">
        <ele>1012.2</ele>
        <time>2025-07-19T13:57:05Z</time>
      </trkpt>
      <trkpt lat="42.563" lon="2.21192">
        <ele>1012.2</ele>
        <time>2025-07-19T13:57:06Z</time>
      </trkpt>
      <trkpt lat="42.56304" lon="2.21184">
        <ele>1012.8</ele>
        <time>2025-07-19T13:57:08Z</time>
      </trkpt>
      <trkpt lat="42.56308" lon="2.21181">
        <ele>1013.6</ele>
        <time>2025-07-19T13:57:09Z</time>
      </trkpt>
      <trkpt lat="42.56321" lon="2.2117">
        <ele>1014.8</ele>
        <time>2025-07-19T13:57:13Z</time>
      </trkpt>
      <trkpt lat="42.56329" lon="2.21159">
        <ele>1015.2</ele>
        <time>2025-07-19T13:57:16Z</time>
      </trkpt>
      <trkpt lat="42.56343" lon="2.21128">
        <ele>1015.6</ele>
        <time>2025-07-19T13:57:23Z</time>
      </trkpt>
      <trkpt lat="42.56343" lon="2.21107">
        <ele>1016</ele>
        <time>2025-07-19T13:57:27Z</time>
      </trkpt>
      <trkpt lat="42.56343" lon="2.211">
        <ele>1016.2</ele>
        <time>2025-07-19T13:57:28Z</time>
      </trkpt>
      <trkpt lat="42.56341" lon="2.21052">
        <ele>1017</ele>
        <time>2025-07-19T13:57:37Z</time>
      </trkpt>
      <trkpt lat="42.56341" lon="2.21037">
        <ele>1017.2</ele>
        <time>2025-07-19T13:57:40Z</time>
      </trkpt>
      <trkpt lat="42.56338" lon="2.21016">
        <ele>1017.2</ele>
        <time>2025-07-19T13:57:44Z</time>
      </trkpt>
      <trkpt lat="42.56335" lon="2.20983">
        <ele>1017.8</ele>
        <time>2025-07-19T13:57:51Z</time>
      </trkpt>
      <trkpt lat="42.56345" lon="2.20967">
        <ele>1018.4</ele>
        <time>2025-07-19T13:57:55Z</time>
      </trkpt>
      <trkpt lat="42.56348" lon="2.20963">
        <ele>1018.6</ele>
        <time>2025-07-19T13:57:56Z</time>
      </trkpt>
      <trkpt lat="42.56358" lon="2.20948">
        <ele>1019</ele>
        <time>2025-07-19T13:58:00Z</time>
      </trkpt>
      <trkpt lat="42.56358" lon="2.20943">
        <ele>1019</ele>
        <time>2025-07-19T13:58:01Z</time>
      </trkpt>
      <trkpt lat="42.56357" lon="2.20915">
        <ele>1019.4</ele>
        <time>2025-07-19T13:58:06Z</time>
      </trkpt>
      <trkpt lat="42.56358" lon="2.20887">
        <ele>1020</ele>
        <time>2025-07-19T13:58:11Z</time>
      </trkpt>
      <trkpt lat="42.56361" lon="2.20871">
        <ele>1020.2</ele>
        <time>2025-07-19T13:58:14Z</time>
      </trkpt>
      <trkpt lat="42.56362" lon="2.20854">
        <ele>1020.6</ele>
        <time>2025-07-19T13:58:17Z</time>
      </trkpt>
      <trkpt lat="42.56362" lon="2.20849">
        <ele>1020.6</ele>
        <time>2025-07-19T13:58:18Z</time>
      </trkpt>
      <trkpt lat="42.56359" lon="2.20808">
        <ele>1021.6</ele>
        <time>2025-07-19T13:58:26Z</time>
      </trkpt>
      <trkpt lat="42.56358" lon="2.20799">
        <ele>1022</ele>
        <time>2025-07-19T13:58:28Z</time>
      </trkpt>
      <trkpt lat="42.5636" lon="2.20779">
        <ele>1023</ele>
        <time>2025-07-19T13:58:32Z</time>
      </trkpt>
      <trkpt lat="42.56361" lon="2.20774">
        <ele>1023.6</ele>
        <time>2025-07-19T13:58:33Z</time>
      </trkpt>
      <trkpt lat="42.56366" lon="2.20762">
        <ele>1025</ele>
        <time>2025-07-19T13:58:36Z</time>
      </trkpt>
      <trkpt lat="42.56373" lon="2.20751">
        <ele>1025.4</ele>
        <time>2025-07-19T13:58:39Z</time>
      </trkpt>
      <trkpt lat="42.56387" lon="2.20745">
        <ele>1026</ele>
        <time>2025-07-19T13:58:44Z</time>
      </trkpt>
      <trkpt lat="42.5639" lon="2.20746">
        <ele>1026.2</ele>
        <time>2025-07-19T13:58:45Z</time>
      </trkpt>
      <trkpt lat="42.56399" lon="2.20755">
        <ele>1027</ele>
        <time>2025-07-19T13:58:49Z</time>
      </trkpt>
      <trkpt lat="42.56401" lon="2.20758">
        <ele>1027.2</ele>
        <time>2025-07-19T13:58:50Z</time>
      </trkpt>
      <trkpt lat="42.56405" lon="2.20763">
        <ele>1027.6</ele>
        <time>2025-07-19T13:58:52Z</time>
      </trkpt>
      <trkpt lat="42.56409" lon="2.20773">
        <ele>1028</ele>
        <time>2025-07-19T13:58:55Z</time>
      </trkpt>
      <trkpt lat="42.56415" lon="2.20785">
        <ele>1028.8</ele>
        <time>2025-07-19T13:58:59Z</time>
      </trkpt>
      <trkpt lat="42.56421" lon="2.20796">
        <ele>1029.8</ele>
        <time>2025-07-19T13:59:03Z</time>
      </trkpt>
      <trkpt lat="42.56426" lon="2.20807">
        <ele>1030.4</ele>
        <time>2025-07-19T13:59:07Z</time>
      </trkpt>
      <trkpt lat="42.56428" lon="2.20814">
        <ele>1031</ele>
        <time>2025-07-19T13:59:09Z</time>
      </trkpt>
      <trkpt lat="42.56434" lon="2.20832">
        <ele>1031.6</ele>
        <time>2025-07-19T13:59:15Z</time>
      </trkpt>
      <trkpt lat="42.56438" lon="2.20846">
        <ele>1032.2</ele>
        <time>2025-07-19T13:59:20Z</time>
      </trkpt>
      <trkpt lat="42.56443" lon="2.20861">
        <ele>1033</ele>
        <time>2025-07-19T13:59:25Z</time>
      </trkpt>
      <trkpt lat="42.56447" lon="2.20873">
        <ele>1033.4</ele>
        <time>2025-07-19T13:59:29Z</time>
      </trkpt>
      <trkpt lat="42.56453" lon="2.20887">
        <ele>1034.2</ele>
        <time>2025-07-19T13:59:34Z</time>
      </trkpt>
      <trkpt lat="42.56456" lon="2.20892">
        <ele>1034.6</ele>
        <time>2025-07-19T13:59:36Z</time>
      </trkpt>
      <trkpt lat="42.56464" lon="2.20905">
        <ele>1035.2</ele>
        <time>2025-07-19T13:59:41Z</time>
      </trkpt>
      <trkpt lat="42.56474" lon="2.20915">
        <ele>1035.6</ele>
        <time>2025-07-19T13:59:46Z</time>
      </trkpt>
      <trkpt lat="42.5648" lon="2.2092">
        <ele>1036.2</ele>
        <time>2025-07-19T13:59:49Z</time>
      </trkpt>
      <trkpt lat="42.56487" lon="2.20923">
        <ele>1036.8</ele>
        <time>2025-07-19T13:59:52Z</time>
      </trkpt>
      <trkpt lat="42.56494" lon="2.20925">
        <ele>1037.4</ele>
        <time>2025-07-19T13:59:55Z</time>
      </trkpt>
      <trkpt lat="42.56508" lon="2.20927">
        <ele>1037.8</ele>
        <time>2025-07-19T14:00:00Z</time>
      </trkpt>
      <trkpt lat="42.56512" lon="2.20926">
        <ele>1038</ele>
        <time>2025-07-19T14:00:02Z</time>
      </trkpt>
      <trkpt lat="42.56525" lon="2.20927">
        <ele>1038.8</ele>
        <time>2025-07-19T14:00:07Z</time>
      </trkpt>
      <trkpt lat="42.56533" lon="2.20925">
        <ele>1039.4</ele>
        <time>2025-07-19T14:00:10Z</time>
      </trkpt>
      <trkpt lat="42.56543" lon="2.20916">
        <ele>1039.8</ele>
        <time>2025-07-19T14:00:14Z</time>
      </trkpt>
      <trkpt lat="42.56545" lon="2.20909">
        <ele>1040.2</ele>
        <time>2025-07-19T14:00:16Z</time>
      </trkpt>
      <trkpt lat="42.56543" lon="2.2089">
        <ele>1041</ele>
        <time>2025-07-19T14:00:21Z</time>
      </trkpt>
      <trkpt lat="42.56542" lon="2.20886">
        <ele>1041</ele>
        <time>2025-07-19T14:00:22Z</time>
      </trkpt>
      <trkpt lat="42.56545" lon="2.20863">
        <ele>1041.8</ele>
        <time>2025-07-19T14:00:28Z</time>
      </trkpt>
      <trkpt lat="42.56548" lon="2.2085">
        <ele>1042</ele>
        <time>2025-07-19T14:00:31Z</time>
      </trkpt>
      <trkpt lat="42.56553" lon="2.20825">
        <ele>1042</ele>
        <time>2025-07-19T14:00:37Z</time>
      </trkpt>
      <trkpt lat="42.56558" lon="2.20801">
        <ele>1042.4</ele>
        <time>2025-07-19T14:00:43Z</time>
      </trkpt>
      <trkpt lat="42.5656" lon="2.20788">
        <ele>1042.8</ele>
        <time>2025-07-19T14:00:46Z</time>
      </trkpt>
      <trkpt lat="42.56562" lon="2.20775">
        <ele>1043</ele>
        <time>2025-07-19T14:00:49Z</time>
      </trkpt>
      <trkpt lat="42.56565" lon="2.20754">
        <ele>1043.2</ele>
        <time>2025-07-19T14:00:54Z</time>
      </trkpt>
      <trkpt lat="42.56573" lon="2.20718">
        <ele>1044</ele>
        <time>2025-07-19T14:01:03Z</time>
      </trkpt>
      <trkpt lat="42.56585" lon="2.20705">
        <ele>1044.2</ele>
        <time>2025-07-19T14:01:08Z</time>
      </trkpt>
      <trkpt lat="42.56594" lon="2.20703">
        <ele>1044.2</ele>
        <time>2025-07-19T14:01:11Z</time>
      </trkpt>
      <trkpt lat="42.56603" lon="2.20704">
        <ele>1044.6</ele>
        <time>2025-07-19T14:01:14Z</time>
      </trkpt>
      <trkpt lat="42.5662" lon="2.2071">
        <ele>1045.6</ele>
        <time>2025-07-19T14:01:20Z</time>
      </trkpt>
      <trkpt lat="42.56626" lon="2.20713">
        <ele>1045.8</ele>
        <time>2025-07-19T14:01:22Z</time>
      </trkpt>
      <trkpt lat="42.56644" lon="2.20725">
        <ele>1046.6</ele>
        <time>2025-07-19T14:01:29Z</time>
      </trkpt>
      <trkpt lat="42.56653" lon="2.20727">
        <ele>1047.2</ele>
        <time>2025-07-19T14:01:32Z</time>
      </trkpt>
      <trkpt lat="42.56659" lon="2.20724">
        <ele>1047.2</ele>
        <time>2025-07-19T14:01:34Z</time>
      </trkpt>
      <trkpt lat="42.56671" lon="2.20716">
        <ele>1047.6</ele>
        <time>2025-07-19T14:01:38Z</time>
      </trkpt>
      <trkpt lat="42.56681" lon="2.20709">
        <ele>1047.8</ele>
        <time>2025-07-19T14:01:41Z</time>
      </trkpt>
      <trkpt lat="42.5671" lon="2.207">
        <ele>1048.8</ele>
        <time>2025-07-19T14:01:50Z</time>
      </trkpt>
      <trkpt lat="42.56714" lon="2.20699">
        <ele>1048.8</ele>
        <time>2025-07-19T14:01:51Z</time>
      </trkpt>
      <trkpt lat="42.56738" lon="2.20686">
        <ele>1049.8</ele>
        <time>2025-07-19T14:01:59Z</time>
      </trkpt>
      <trkpt lat="42.56764" lon="2.20681">
        <ele>1050.8</ele>
        <time>2025-07-19T14:02:07Z</time>
      </trkpt>
      <trkpt lat="42.56767" lon="2.20679">
        <ele>1051</ele>
        <time>2025-07-19T14:02:08Z</time>
      </trkpt>
      <trkpt lat="42.56775" lon="2.20671">
        <ele>1051.4</ele>
        <time>2025-07-19T14:02:11Z</time>
      </trkpt>
      <trkpt lat="42.56787" lon="2.20647">
        <ele>1052.2</ele>
        <time>2025-07-19T14:02:17Z</time>
      </trkpt>
      <trkpt lat="42.56789" lon="2.20643">
        <ele>1052.4</ele>
        <time>2025-07-19T14:02:18Z</time>
      </trkpt>
      <trkpt lat="42.56801" lon="2.20629">
        <ele>1052.8</ele>
        <time>2025-07-19T14:02:23Z</time>
      </trkpt>
      <trkpt lat="42.56814" lon="2.20628">
        <ele>1053.2</ele>
        <time>2025-07-19T14:02:27Z</time>
      </trkpt>
      <trkpt lat="42.56817" lon="2.20628">
        <ele>1053.6</ele>
        <time>2025-07-19T14:02:28Z</time>
      </trkpt>
      <trkpt lat="42.5682" lon="2.20629">
        <ele>1053.6</ele>
        <time>2025-07-19T14:02:29Z</time>
      </trkpt>
      <trkpt lat="42.56846" lon="2.20634">
        <ele>1054.6</ele>
        <time>2025-07-19T14:02:37Z</time>
      </trkpt>
      <trkpt lat="42.56875" lon="2.20636">
        <ele>1055.6</ele>
        <time>2025-07-19T14:02:46Z</time>
      </trkpt>
      <trkpt lat="42.56878" lon="2.20635">
        <ele>1055.6</ele>
        <time>2025-07-19T14:02:47Z</time>
      </trkpt>
      <trkpt lat="42.56902" lon="2.20634">
        <ele>1056.6</ele>
        <time>2025-07-19T14:02:54Z</time>
      </trkpt>
      <trkpt lat="42.56905" lon="2.20632">
        <ele>1056.8</ele>
        <time>2025-07-19T14:02:55Z</time>
      </trkpt>
      <trkpt lat="42.56912" lon="2.20613">
        <ele>1057.2</ele>
        <time>2025-07-19T14:02:59Z</time>
      </trkpt>
      <trkpt lat="42.5692" lon="2.20581">
        <ele>1057.8</ele>
        <time>2025-07-19T14:03:06Z</time>
      </trkpt>
      <trkpt lat="42.56936" lon="2.20557">
        <ele>1058.4</ele>
        <time>2025-07-19T14:03:13Z</time>
      </trkpt>
      <trkpt lat="42.56945" lon="2.20542">
        <ele>1058.8</ele>
        <time>2025-07-19T14:03:17Z</time>
      </trkpt>
      <trkpt lat="42.56957" lon="2.20529">
        <ele>1059.4</ele>
        <time>2025-07-19T14:03:21Z</time>
      </trkpt>
      <trkpt lat="42.56969" lon="2.20518">
        <ele>1060.2</ele>
        <time>2025-07-19T14:03:25Z</time>
      </trkpt>
      <trkpt lat="42.56983" lon="2.20508">
        <ele>1060.6</ele>
        <time>2025-07-19T14:03:29Z</time>
      </trkpt>
      <trkpt lat="42.56993" lon="2.20501">
        <ele>1060.8</ele>
        <time>2025-07-19T14:03:32Z</time>
      </trkpt>
      <trkpt lat="42.57011" lon="2.20483">
        <ele>1061.4</ele>
        <time>2025-07-19T14:03:38Z</time>
      </trkpt>
      <trkpt lat="42.57014" lon="2.2048">
        <ele>1061.4</ele>
        <time>2025-07-19T14:03:39Z</time>
      </trkpt>
      <trkpt lat="42.57031" lon="2.20464">
        <ele>1062.4</ele>
        <time>2025-07-19T14:03:45Z</time>
      </trkpt>
      <trkpt lat="42.57038" lon="2.20461">
        <ele>1062.8</ele>
        <time>2025-07-19T14:03:47Z</time>
      </trkpt>
      <trkpt lat="42.57052" lon="2.2046">
        <ele>1063.4</ele>
        <time>2025-07-19T14:03:51Z</time>
      </trkpt>
      <trkpt lat="42.57059" lon="2.20463">
        <ele>1063.6</ele>
        <time>2025-07-19T14:03:53Z</time>
      </trkpt>
      <trkpt lat="42.57076" lon="2.20482">
        <ele>1064</ele>
        <time>2025-07-19T14:03:59Z</time>
      </trkpt>
      <trkpt lat="42.57094" lon="2.20512">
        <ele>1064.8</ele>
        <time>2025-07-19T14:04:07Z</time>
      </trkpt>
      <trkpt lat="42.57102" lon="2.20512">
        <ele>1065</ele>
        <time>2025-07-19T14:04:09Z</time>
      </trkpt>
      <trkpt lat="42.57109" lon="2.20509">
        <ele>1065.2</ele>
        <time>2025-07-19T14:04:11Z</time>
      </trkpt>
      <trkpt lat="42.57129" lon="2.20499">
        <ele>1066</ele>
        <time>2025-07-19T14:04:17Z</time>
      </trkpt>
      <trkpt lat="42.57146" lon="2.20489">
        <ele>1066.2</ele>
        <time>2025-07-19T14:04:22Z</time>
      </trkpt>
      <trkpt lat="42.57161" lon="2.20473">
        <ele>1066.4</ele>
        <time>2025-07-19T14:04:27Z</time>
      </trkpt>
      <trkpt lat="42.57172" lon="2.20444">
        <ele>1066.4</ele>
        <time>2025-07-19T14:04:33Z</time>
      </trkpt>
      <trkpt lat="42.57182" lon="2.20421">
        <ele>1066.8</ele>
        <time>2025-07-19T14:04:38Z</time>
      </trkpt>
      <trkpt lat="42.57188" lon="2.20415">
        <ele>1066.8</ele>
        <time>2025-07-19T14:04:40Z</time>
      </trkpt>
      <trkpt lat="42.57199" lon="2.2041">
        <ele>1067</ele>
        <time>2025-07-19T14:04:43Z</time>
      </trkpt>
      <trkpt lat="42.5721" lon="2.20406">
        <ele>1067.4</ele>
        <time>2025-07-19T14:04:46Z</time>
      </trkpt>
      <trkpt lat="42.57229" lon="2.20409">
        <ele>1067.8</ele>
        <time>2025-07-19T14:04:51Z</time>
      </trkpt>
      <trkpt lat="42.57246" lon="2.20422">
        <ele>1068.2</ele>
        <time>2025-07-19T14:04:56Z</time>
      </trkpt>
      <trkpt lat="42.57257" lon="2.20428">
        <ele>1068.2</ele>
        <time>2025-07-19T14:04:58Z</time>
      </trkpt>
      <trkpt lat="42.57284" lon="2.20432">
        <ele>1068.8</ele>
        <time>2025-07-19T14:05:05Z</time>
      </trkpt>
      <trkpt lat="42.57311" lon="2.2044">
        <ele>1069.2</ele>
        <time>2025-07-19T14:05:12Z</time>
      </trkpt>
      <trkpt lat="42.57315" lon="2.20441">
        <ele>1069.4</ele>
        <time>2025-07-19T14:05:14Z</time>
      </trkpt>
      <trkpt lat="42.57331" lon="2.20438">
        <ele>1069.6</ele>
        <time>2025-07-19T14:05:17Z</time>
      </trkpt>
      <trkpt lat="42.57337" lon="2.20419">
        <ele>1070.2</ele>
        <time>2025-07-19T14:05:21Z</time>
      </trkpt>
      <trkpt lat="42.57338" lon="2.20393">
        <ele>1070.4</ele>
        <time>2025-07-19T14:05:26Z</time>
      </trkpt>
      <trkpt lat="42.5734" lon="2.20382">
        <ele>1070.8</ele>
        <time>2025-07-19T14:05:28Z</time>
      </trkpt>
      <trkpt lat="42.57356" lon="2.20359">
        <ele>1071.2</ele>
        <time>2025-07-19T14:05:34Z</time>
      </trkpt>
      <trkpt lat="42.57359" lon="2.20358">
        <ele>1071.6</ele>
        <time>2025-07-19T14:05:36Z</time>
      </trkpt>
      <trkpt lat="42.5737" lon="2.20359">
        <ele>1072</ele>
        <time>2025-07-19T14:05:39Z</time>
      </trkpt>
      <trkpt lat="42.57398" lon="2.20367">
        <ele>1072.4</ele>
        <time>2025-07-19T14:05:46Z</time>
      </trkpt>
      <trkpt lat="42.5741" lon="2.20361">
        <ele>1072.6</ele>
        <time>2025-07-19T14:05:48Z</time>
      </trkpt>
      <trkpt lat="42.57412" lon="2.20357">
        <ele>1072.8</ele>
        <time>2025-07-19T14:05:50Z</time>
      </trkpt>
      <trkpt lat="42.57416" lon="2.20341">
        <ele>1072.8</ele>
        <time>2025-07-19T14:05:52Z</time>
      </trkpt>
      <trkpt lat="42.57417" lon="2.20336">
        <ele>1073.2</ele>
        <time>2025-07-19T14:05:54Z</time>
      </trkpt>
      <trkpt lat="42.57419" lon="2.20318">
        <ele>1073.6</ele>
        <time>2025-07-19T14:05:56Z</time>
      </trkpt>
      <trkpt lat="42.57423" lon="2.20309">
        <ele>1074</ele>
        <time>2025-07-19T14:05:58Z</time>
      </trkpt>
      <trkpt lat="42.57423" lon="2.20309">
        <ele>1074.2</ele>
        <time>2025-07-19T14:05:59Z</time>
      </trkpt>
      <trkpt lat="42.57429" lon="2.20301">
        <ele>1074.4</ele>
        <time>2025-07-19T14:06:00Z</time>
      </trkpt>
      <trkpt lat="42.57441" lon="2.20288">
        <ele>1074.6</ele>
        <time>2025-07-19T14:06:04Z</time>
      </trkpt>
      <trkpt lat="42.5747" lon="2.20258">
        <ele>1075</ele>
        <time>2025-07-19T14:06:13Z</time>
      </trkpt>
      <trkpt lat="42.57479" lon="2.20247">
        <ele>1075.2</ele>
        <time>2025-07-19T14:06:16Z</time>
      </trkpt>
      <trkpt lat="42.57499" lon="2.20234">
        <ele>1076.2</ele>
        <time>2025-07-19T14:06:22Z</time>
      </trkpt>
      <trkpt lat="42.57503" lon="2.20233">
        <ele>1076.4</ele>
        <time>2025-07-19T14:06:23Z</time>
      </trkpt>
      <trkpt lat="42.57531" lon="2.20222">
        <ele>1077.4</ele>
        <time>2025-07-19T14:06:32Z</time>
      </trkpt>
      <trkpt lat="42.57535" lon="2.20221">
        <ele>1077.4</ele>
        <time>2025-07-19T14:06:33Z</time>
      </trkpt>
      <trkpt lat="42.57563" lon="2.2022">
        <ele>1078.2</ele>
        <time>2025-07-19T14:06:39Z</time>
      </trkpt>
      <trkpt lat="42.57569" lon="2.2022">
        <ele>1078.6</ele>
        <time>2025-07-19T14:06:42Z</time>
      </trkpt>
      <trkpt lat="42.57587" lon="2.20226">
        <ele>1078.8</ele>
        <time>2025-07-19T14:06:46Z</time>
      </trkpt>
      <trkpt lat="42.57604" lon="2.2023">
        <ele>1079</ele>
        <time>2025-07-19T14:06:49Z</time>
      </trkpt>
      <trkpt lat="42.57617" lon="2.2023">
        <ele>1079</ele>
        <time>2025-07-19T14:06:52Z</time>
      </trkpt>
      <trkpt lat="42.57622" lon="2.20229">
        <ele>1079</ele>
        <time>2025-07-19T14:06:54Z</time>
      </trkpt>
      <trkpt lat="42.57649" lon="2.20221">
        <ele>1079.4</ele>
        <time>2025-07-19T14:06:59Z</time>
      </trkpt>
      <trkpt lat="42.57681" lon="2.20222">
        <ele>1079.6</ele>
        <time>2025-07-19T14:07:06Z</time>
      </trkpt>
      <trkpt lat="42.57689" lon="2.20224">
        <ele>1079.8</ele>
        <time>2025-07-19T14:07:08Z</time>
      </trkpt>
      <trkpt lat="42.57694" lon="2.20225">
        <ele>1080</ele>
        <time>2025-07-19T14:07:10Z</time>
      </trkpt>
      <trkpt lat="42.57708" lon="2.20232">
        <ele>1080.2</ele>
        <time>2025-07-19T14:07:14Z</time>
      </trkpt>
      <trkpt lat="42.57723" lon="2.20241">
        <ele>1080.6</ele>
        <time>2025-07-19T14:07:17Z</time>
      </trkpt>
      <trkpt lat="42.57726" lon="2.20245">
        <ele>1080.8</ele>
        <time>2025-07-19T14:07:19Z</time>
      </trkpt>
      <trkpt lat="42.5773" lon="2.20255">
        <ele>1080.8</ele>
        <time>2025-07-19T14:07:20Z</time>
      </trkpt>
      <trkpt lat="42.57741" lon="2.20289">
        <ele>1081.6</ele>
        <time>2025-07-19T14:07:28Z</time>
      </trkpt>
      <trkpt lat="42.57753" lon="2.20306">
        <ele>1081.8</ele>
        <time>2025-07-19T14:07:31Z</time>
      </trkpt>
      <trkpt lat="42.57756" lon="2.20309">
        <ele>1081.8</ele>
        <time>2025-07-19T14:07:33Z</time>
      </trkpt>
      <trkpt lat="42.57765" lon="2.20321">
        <ele>1082</ele>
        <time>2025-07-19T14:07:35Z</time>
      </trkpt>
      <trkpt lat="42.5777" lon="2.20329">
        <ele>1082.2</ele>
        <time>2025-07-19T14:07:37Z</time>
      </trkpt>
      <trkpt lat="42.57778" lon="2.20342">
        <ele>1082.2</ele>
        <time>2025-07-19T14:07:40Z</time>
      </trkpt>
      <trkpt lat="42.57785" lon="2.20349">
        <ele>1082.4</ele>
        <time>2025-07-19T14:07:43Z</time>
      </trkpt>
      <trkpt lat="42.57794" lon="2.2036">
        <ele>1082.4</ele>
        <time>2025-07-19T14:07:46Z</time>
      </trkpt>
      <trkpt lat="42.57815" lon="2.20387">
        <ele>1082.6</ele>
        <time>2025-07-19T14:07:52Z</time>
      </trkpt>
      <trkpt lat="42.57822" lon="2.20393">
        <ele>1082.6</ele>
        <time>2025-07-19T14:07:54Z</time>
      </trkpt>
      <trkpt lat="42.5783" lon="2.20392">
        <ele>1082.6</ele>
        <time>2025-07-19T14:07:56Z</time>
      </trkpt>
      <trkpt lat="42.57833" lon="2.20389">
        <ele>1082.6</ele>
        <time>2025-07-19T14:07:57Z</time>
      </trkpt>
      <trkpt lat="42.57836" lon="2.20384">
        <ele>1082.6</ele>
        <time>2025-07-19T14:07:59Z</time>
      </trkpt>
      <trkpt lat="42.57834" lon="2.20369">
        <ele>1082.8</ele>
        <time>2025-07-19T14:08:01Z</time>
      </trkpt>
      <trkpt lat="42.57831" lon="2.20359">
        <ele>1082.8</ele>
        <time>2025-07-19T14:08:03Z</time>
      </trkpt>
      <trkpt lat="42.57821" lon="2.2032">
        <ele>1083</ele>
        <time>2025-07-19T14:08:11Z</time>
      </trkpt>
      <trkpt lat="42.57818" lon="2.20292">
        <ele>1083.2</ele>
        <time>2025-07-19T14:08:15Z</time>
      </trkpt>
      <trkpt lat="42.57818" lon="2.20288">
        <ele>1083.4</ele>
        <time>2025-07-19T14:08:17Z</time>
      </trkpt>
      <trkpt lat="42.5782" lon="2.20277">
        <ele>1083.4</ele>
        <time>2025-07-19T14:08:18Z</time>
      </trkpt>
      <trkpt lat="42.57824" lon="2.2025">
        <ele>1083.2</ele>
        <time>2025-07-19T14:08:24Z</time>
      </trkpt>
      <trkpt lat="42.57828" lon="2.20215">
        <ele>1083.2</ele>
        <time>2025-07-19T14:08:31Z</time>
      </trkpt>
      <trkpt lat="42.5783" lon="2.20201">
        <ele>1083.6</ele>
        <time>2025-07-19T14:08:33Z</time>
      </trkpt>
      <trkpt lat="42.57836" lon="2.20166">
        <ele>1084</ele>
        <time>2025-07-19T14:08:40Z</time>
      </trkpt>
      <trkpt lat="42.57835" lon="2.2015">
        <ele>1084.4</ele>
        <time>2025-07-19T14:08:44Z</time>
      </trkpt>
      <trkpt lat="42.57835" lon="2.20134">
        <ele>1084.6</ele>
        <time>2025-07-19T14:08:46Z</time>
      </trkpt>
      <trkpt lat="42.57833" lon="2.20129">
        <ele>1084.8</ele>
        <time>2025-07-19T14:08:47Z</time>
      </trkpt>
      <trkpt lat="42.57825" lon="2.20089">
        <ele>1085.6</ele>
        <time>2025-07-19T14:08:55Z</time>
      </trkpt>
      <trkpt lat="42.57825" lon="2.20089">
        <ele>1085.8</ele>
        <time>2025-07-19T14:08:56Z</time>
      </trkpt>
      <trkpt lat="42.5783" lon="2.20082">
        <ele>1086</ele>
        <time>2025-07-19T14:08:57Z</time>
      </trkpt>
      <trkpt lat="42.57837" lon="2.20076">
        <ele>1086</ele>
        <time>2025-07-19T14:08:59Z</time>
      </trkpt>
      <trkpt lat="42.57863" lon="2.2005">
        <ele>1086.2</ele>
        <time>2025-07-19T14:09:07Z</time>
      </trkpt>
      <trkpt lat="42.57886" lon="2.20004">
        <ele>1086.8</ele>
        <time>2025-07-19T14:09:16Z</time>
      </trkpt>
      <trkpt lat="42.57896" lon="2.1999">
        <ele>1087</ele>
        <time>2025-07-19T14:09:19Z</time>
      </trkpt>
      <trkpt lat="42.57916" lon="2.19965">
        <ele>1087.8</ele>
        <time>2025-07-19T14:09:25Z</time>
      </trkpt>
      <trkpt lat="42.57936" lon="2.19938">
        <ele>1088</ele>
        <time>2025-07-19T14:09:31Z</time>
      </trkpt>
      <trkpt lat="42.57941" lon="2.19929">
        <ele>1088.2</ele>
        <time>2025-07-19T14:09:33Z</time>
      </trkpt>
      <trkpt lat="42.5796" lon="2.19897">
        <ele>1088.4</ele>
        <time>2025-07-19T14:09:39Z</time>
      </trkpt>
      <trkpt lat="42.5797" lon="2.19889">
        <ele>1088.6</ele>
        <time>2025-07-19T14:09:41Z</time>
      </trkpt>
      <trkpt lat="42.5798" lon="2.19889">
        <ele>1089</ele>
        <time>2025-07-19T14:09:43Z</time>
      </trkpt>
      <trkpt lat="42.57984" lon="2.1989">
        <ele>1089.2</ele>
        <time>2025-07-19T14:09:44Z</time>
      </trkpt>
      <trkpt lat="42.58024" lon="2.199">
        <ele>1089.8</ele>
        <time>2025-07-19T14:09:52Z</time>
      </trkpt>
      <trkpt lat="42.58029" lon="2.199">
        <ele>1089.8</ele>
        <time>2025-07-19T14:09:53Z</time>
      </trkpt>
      <trkpt lat="42.58052" lon="2.19898">
        <ele>1090.4</ele>
        <time>2025-07-19T14:09:58Z</time>
      </trkpt>
      <trkpt lat="42.58066" lon="2.19895">
        <ele>1090.6</ele>
        <time>2025-07-19T14:10:01Z</time>
      </trkpt>
      <trkpt lat="42.58085" lon="2.19891">
        <ele>1091</ele>
        <time>2025-07-19T14:10:05Z</time>
      </trkpt>
      <trkpt lat="42.58089" lon="2.19888">
        <ele>1091</ele>
        <time>2025-07-19T14:10:07Z</time>
      </trkpt>
      <trkpt lat="42.58121" lon="2.19869">
        <ele>1091.2</ele>
        <time>2025-07-19T14:10:13Z</time>
      </trkpt>
      <trkpt lat="42.58121" lon="2.19869">
        <ele>1091.2</ele>
        <time>2025-07-19T14:10:14Z</time>
      </trkpt>
      <trkpt lat="42.58164" lon="2.19859">
        <ele>1091</ele>
        <time>2025-07-19T14:10:22Z</time>
      </trkpt>
      <trkpt lat="42.58175" lon="2.19859">
        <ele>1091</ele>
        <time>2025-07-19T14:10:24Z</time>
      </trkpt>
      <trkpt lat="42.58184" lon="2.19861">
        <ele>1091</ele>
        <time>2025-07-19T14:10:26Z</time>
      </trkpt>
      <trkpt lat="42.5819" lon="2.19861">
        <ele>1091</ele>
        <time>2025-07-19T14:10:27Z</time>
      </trkpt>
      <trkpt lat="42.58199" lon="2.19863">
        <ele>1091</ele>
        <time>2025-07-19T14:10:29Z</time>
      </trkpt>
      <trkpt lat="42.58207" lon="2.19868">
        <ele>1091</ele>
        <time>2025-07-19T14:10:31Z</time>
      </trkpt>
      <trkpt lat="42.58217" lon="2.19868">
        <ele>1091</ele>
        <time>2025-07-19T14:10:33Z</time>
      </trkpt>
      <trkpt lat="42.5822" lon="2.19865">
        <ele>1091</ele>
        <time>2025-07-19T14:10:34Z</time>
      </trkpt>
      <trkpt lat="42.58223" lon="2.1986">
        <ele>1091</ele>
        <time>2025-07-19T14:10:35Z</time>
      </trkpt>
      <trkpt lat="42.58226" lon="2.19847">
        <ele>1091.2</ele>
        <time>2025-07-19T14:10:37Z</time>
      </trkpt>
      <trkpt lat="42.58225" lon="2.19833">
        <ele>1091.2</ele>
        <time>2025-07-19T14:10:39Z</time>
      </trkpt>
      <trkpt lat="42.5822" lon="2.19821">
        <ele>1091.2</ele>
        <time>2025-07-19T14:10:41Z</time>
      </trkpt>
      <trkpt lat="42.58211" lon="2.19804">
        <ele>1091.4</ele>
        <time>2025-07-19T14:10:44Z</time>
      </trkpt>
      <trkpt lat="42.58204" lon="2.19786">
        <ele>1091.4</ele>
        <time>2025-07-19T14:10:47Z</time>
      </trkpt>
      <trkpt lat="42.58189" lon="2.19741">
        <ele>1091.6</ele>
        <time>2025-07-19T14:10:54Z</time>
      </trkpt>
      <trkpt lat="42.58186" lon="2.19736">
        <ele>1091.6</ele>
        <time>2025-07-19T14:10:55Z</time>
      </trkpt>
      <trkpt lat="42.58162" lon="2.19702">
        <ele>1092</ele>
        <time>2025-07-19T14:11:03Z</time>
      </trkpt>
      <trkpt lat="42.58157" lon="2.19692">
        <ele>1092.2</ele>
        <time>2025-07-19T14:11:04Z</time>
      </trkpt>
      <trkpt lat="42.58157" lon="2.19692">
        <ele>1092.2</ele>
        <time>2025-07-19T14:11:05Z</time>
      </trkpt>
      <trkpt lat="42.58157" lon="2.1968">
        <ele>1092.4</ele>
        <time>2025-07-19T14:11:06Z</time>
      </trkpt>
      <trkpt lat="42.58161" lon="2.19668">
        <ele>1092.6</ele>
        <time>2025-07-19T14:11:08Z</time>
      </trkpt>
      <trkpt lat="42.58164" lon="2.19664">
        <ele>1092.6</ele>
        <time>2025-07-19T14:11:10Z</time>
      </trkpt>
      <trkpt lat="42.58175" lon="2.1965">
        <ele>1092.8</ele>
        <time>2025-07-19T14:11:12Z</time>
      </trkpt>
      <trkpt lat="42.58182" lon="2.19641">
        <ele>1093</ele>
        <time>2025-07-19T14:11:14Z</time>
      </trkpt>
      <trkpt lat="42.58189" lon="2.19631">
        <ele>1093</ele>
        <time>2025-07-19T14:11:16Z</time>
      </trkpt>
      <trkpt lat="42.58213" lon="2.19604">
        <ele>1093.6</ele>
        <time>2025-07-19T14:11:22Z</time>
      </trkpt>
      <trkpt lat="42.58217" lon="2.19602">
        <ele>1093.6</ele>
        <time>2025-07-19T14:11:23Z</time>
      </trkpt>
      <trkpt lat="42.58223" lon="2.196">
        <ele>1093.6</ele>
        <time>2025-07-19T14:11:24Z</time>
      </trkpt>
      <trkpt lat="42.58238" lon="2.196">
        <ele>1094</ele>
        <time>2025-07-19T14:11:27Z</time>
      </trkpt>
      <trkpt lat="42.58247" lon="2.19593">
        <ele>1094.2</ele>
        <time>2025-07-19T14:11:29Z</time>
      </trkpt>
      <trkpt lat="42.5825" lon="2.19588">
        <ele>1094.2</ele>
        <time>2025-07-19T14:11:30Z</time>
      </trkpt>
      <trkpt lat="42.58257" lon="2.19576">
        <ele>1094.2</ele>
        <time>2025-07-19T14:11:32Z</time>
      </trkpt>
      <trkpt lat="42.58264" lon="2.19567">
        <ele>1094.2</ele>
        <time>2025-07-19T14:11:34Z</time>
      </trkpt>
      <trkpt lat="42.58269" lon="2.19563">
        <ele>1094.4</ele>
        <time>2025-07-19T14:11:35Z</time>
      </trkpt>
      <trkpt lat="42.58274" lon="2.1956">
        <ele>1094.4</ele>
        <time>2025-07-19T14:11:36Z</time>
      </trkpt>
      <trkpt lat="42.58293" lon="2.19551">
        <ele>1094.4</ele>
        <time>2025-07-19T14:11:40Z</time>
      </trkpt>
      <trkpt lat="42.58298" lon="2.19548">
        <ele>1094.6</ele>
        <time>2025-07-19T14:11:41Z</time>
      </trkpt>
      <trkpt lat="42.58308" lon="2.19542">
        <ele>1094.6</ele>
        <time>2025-07-19T14:11:43Z</time>
      </trkpt>
      <trkpt lat="42.58318" lon="2.1954">
        <ele>1094.8</ele>
        <time>2025-07-19T14:11:45Z</time>
      </trkpt>
      <trkpt lat="42.58323" lon="2.1954">
        <ele>1095</ele>
        <time>2025-07-19T14:11:46Z</time>
      </trkpt>
      <trkpt lat="42.58328" lon="2.19542">
        <ele>1095.2</ele>
        <time>2025-07-19T14:11:47Z</time>
      </trkpt>
      <trkpt lat="42.58337" lon="2.19548">
        <ele>1095.4</ele>
        <time>2025-07-19T14:11:49Z</time>
      </trkpt>
      <trkpt lat="42.58341" lon="2.19552">
        <ele>1095.6</ele>
        <time>2025-07-19T14:11:50Z</time>
      </trkpt>
      <trkpt lat="42.58349" lon="2.19559">
        <ele>1095.8</ele>
        <time>2025-07-19T14:11:52Z</time>
      </trkpt>
      <trkpt lat="42.58353" lon="2.19562">
        <ele>1096</ele>
        <time>2025-07-19T14:11:53Z</time>
      </trkpt>
      <trkpt lat="42.5836" lon="2.19572">
        <ele>1096.2</ele>
        <time>2025-07-19T14:11:55Z</time>
      </trkpt>
      <trkpt lat="42.58366" lon="2.19583">
        <ele>1096.2</ele>
        <time>2025-07-19T14:11:57Z</time>
      </trkpt>
      <trkpt lat="42.5837" lon="2.19595">
        <ele>1096.4</ele>
        <time>2025-07-19T14:11:59Z</time>
      </trkpt>
      <trkpt lat="42.58371" lon="2.19602">
        <ele>1096.4</ele>
        <time>2025-07-19T14:12:00Z</time>
      </trkpt>
      <trkpt lat="42.58376" lon="2.19634">
        <ele>1097</ele>
        <time>2025-07-19T14:12:05Z</time>
      </trkpt>
      <trkpt lat="42.58378" lon="2.19646">
        <ele>1097.2</ele>
        <time>2025-07-19T14:12:07Z</time>
      </trkpt>
      <trkpt lat="42.58384" lon="2.19655">
        <ele>1097.4</ele>
        <time>2025-07-19T14:12:09Z</time>
      </trkpt>
      <trkpt lat="42.58388" lon="2.19657">
        <ele>1097.4</ele>
        <time>2025-07-19T14:12:10Z</time>
      </trkpt>
      <trkpt lat="42.58393" lon="2.19655">
        <ele>1097.6</ele>
        <time>2025-07-19T14:12:11Z</time>
      </trkpt>
      <trkpt lat="42.58395" lon="2.19652">
        <ele>1097.8</ele>
        <time>2025-07-19T14:12:12Z</time>
      </trkpt>
      <trkpt lat="42.58397" lon="2.19646">
        <ele>1097.8</ele>
        <time>2025-07-19T14:12:13Z</time>
      </trkpt>
      <trkpt lat="42.58397" lon="2.19646">
        <ele>1098</ele>
        <time>2025-07-19T14:12:14Z</time>
      </trkpt>
      <trkpt lat="42.58398" lon="2.19633">
        <ele>1098</ele>
        <time>2025-07-19T14:12:15Z</time>
      </trkpt>
      <trkpt lat="42.58398" lon="2.19627">
        <ele>1098.2</ele>
        <time>2025-07-19T14:12:16Z</time>
      </trkpt>
      <trkpt lat="42.58404" lon="2.19577">
        <ele>1098.4</ele>
        <time>2025-07-19T14:12:24Z</time>
      </trkpt>
      <trkpt lat="42.58407" lon="2.19508">
        <ele>1097.8</ele>
        <time>2025-07-19T14:12:35Z</time>
      </trkpt>
      <trkpt lat="42.58412" lon="2.19477">
        <ele>1097.8</ele>
        <time>2025-07-19T14:12:40Z</time>
      </trkpt>
      <trkpt lat="42.58415" lon="2.19474">
        <ele>1097.8</ele>
        <time>2025-07-19T14:12:41Z</time>
      </trkpt>
      <trkpt lat="42.5842" lon="2.1947">
        <ele>1098</ele>
        <time>2025-07-19T14:12:42Z</time>
      </trkpt>
      <trkpt lat="42.5843" lon="2.19466">
        <ele>1098</ele>
        <time>2025-07-19T14:12:44Z</time>
      </trkpt>
      <trkpt lat="42.58434" lon="2.19464">
        <ele>1098</ele>
        <time>2025-07-19T14:12:45Z</time>
      </trkpt>
      <trkpt lat="42.58463" lon="2.19446">
        <ele>1098.4</ele>
        <time>2025-07-19T14:12:52Z</time>
      </trkpt>
      <trkpt lat="42.58467" lon="2.19442">
        <ele>1098.4</ele>
        <time>2025-07-19T14:12:53Z</time>
      </trkpt>
      <trkpt lat="42.58482" lon="2.19417">
        <ele>1098.8</ele>
        <time>2025-07-19T14:12:58Z</time>
      </trkpt>
      <trkpt lat="42.58484" lon="2.19412">
        <ele>1098.8</ele>
        <time>2025-07-19T14:12:59Z</time>
      </trkpt>
      <trkpt lat="42.58486" lon="2.19405">
        <ele>1098.8</ele>
        <time>2025-07-19T14:13:00Z</time>
      </trkpt>
      <trkpt lat="42.5849" lon="2.19394">
        <ele>1099</ele>
        <time>2025-07-19T14:13:02Z</time>
      </trkpt>
      <trkpt lat="42.58502" lon="2.19365">
        <ele>1099.4</ele>
        <time>2025-07-19T14:13:07Z</time>
      </trkpt>
      <trkpt lat="42.58512" lon="2.1932">
        <ele>1099.8</ele>
        <time>2025-07-19T14:13:15Z</time>
      </trkpt>
      <trkpt lat="42.58512" lon="2.19302">
        <ele>1100.4</ele>
        <time>2025-07-19T14:13:19Z</time>
      </trkpt>
      <trkpt lat="42.58511" lon="2.19298">
        <ele>1100.8</ele>
        <time>2025-07-19T14:13:20Z</time>
      </trkpt>
      <trkpt lat="42.58505" lon="2.19273">
        <ele>1101.8</ele>
        <time>2025-07-19T14:13:27Z</time>
      </trkpt>
      <trkpt lat="42.58506" lon="2.19257">
        <ele>1103</ele>
        <time>2025-07-19T14:13:32Z</time>
      </trkpt>
      <trkpt lat="42.58508" lon="2.19251">
        <ele>1103.4</ele>
        <time>2025-07-19T14:13:34Z</time>
      </trkpt>
      <trkpt lat="42.58513" lon="2.19242">
        <ele>1104.2</ele>
        <time>2025-07-19T14:13:37Z</time>
      </trkpt>
      <trkpt lat="42.58522" lon="2.19232">
        <ele>1105.4</ele>
        <time>2025-07-19T14:13:42Z</time>
      </trkpt>
      <trkpt lat="42.58539" lon="2.19224">
        <ele>1106.6</ele>
        <time>2025-07-19T14:13:49Z</time>
      </trkpt>
      <trkpt lat="42.58539" lon="2.19224">
        <ele>1106.8</ele>
        <time>2025-07-19T14:13:50Z</time>
      </trkpt>
      <trkpt lat="42.58554" lon="2.19213">
        <ele>1107.8</ele>
        <time>2025-07-19T14:13:56Z</time>
      </trkpt>
      <trkpt lat="42.58559" lon="2.19207">
        <ele>1108.4</ele>
        <time>2025-07-19T14:13:59Z</time>
      </trkpt>
      <trkpt lat="42.58568" lon="2.19195">
        <ele>1109</ele>
        <time>2025-07-19T14:14:04Z</time>
      </trkpt>
      <trkpt lat="42.58569" lon="2.19192">
        <ele>1109</ele>
        <time>2025-07-19T14:14:05Z</time>
      </trkpt>
      <trkpt lat="42.58576" lon="2.19173">
        <ele>1110</ele>
        <time>2025-07-19T14:14:11Z</time>
      </trkpt>
      <trkpt lat="42.58579" lon="2.19164">
        <ele>1110.4</ele>
        <time>2025-07-19T14:14:14Z</time>
      </trkpt>
      <trkpt lat="42.58585" lon="2.1915">
        <ele>1111</ele>
        <time>2025-07-19T14:14:19Z</time>
      </trkpt>
      <trkpt lat="42.58587" lon="2.19145">
        <ele>1111.6</ele>
        <time>2025-07-19T14:14:22Z</time>
      </trkpt>
      <trkpt lat="42.58592" lon="2.19133">
        <ele>1112.2</ele>
        <time>2025-07-19T14:14:25Z</time>
      </trkpt>
      <trkpt lat="42.58593" lon="2.19122">
        <ele>1112.6</ele>
        <time>2025-07-19T14:14:29Z</time>
      </trkpt>
      <trkpt lat="42.58593" lon="2.19112">
        <ele>1113.2</ele>
        <time>2025-07-19T14:14:32Z</time>
      </trkpt>
      <trkpt lat="42.58593" lon="2.19092">
        <ele>1114</ele>
        <time>2025-07-19T14:14:38Z</time>
      </trkpt>
      <trkpt lat="42.58594" lon="2.19086">
        <ele>1114.4</ele>
        <time>2025-07-19T14:14:40Z</time>
      </trkpt>
      <trkpt lat="42.58594" lon="2.19064">
        <ele>1115.2</ele>
        <time>2025-07-19T14:14:47Z</time>
      </trkpt>
      <trkpt lat="42.58594" lon="2.19061">
        <ele>1115.4</ele>
        <time>2025-07-19T14:14:48Z</time>
      </trkpt>
      <trkpt lat="42.58592" lon="2.19036">
        <ele>1116.6</ele>
        <time>2025-07-19T14:14:56Z</time>
      </trkpt>
      <trkpt lat="42.5859" lon="2.19017">
        <ele>1117.4</ele>
        <time>2025-07-19T14:15:02Z</time>
      </trkpt>
      <trkpt lat="42.5859" lon="2.19014">
        <ele>1117.8</ele>
        <time>2025-07-19T14:15:03Z</time>
      </trkpt>
      <trkpt lat="42.58589" lon="2.18989">
        <ele>1118.6</ele>
        <time>2025-07-19T14:15:11Z</time>
      </trkpt>
      <trkpt lat="42.5859" lon="2.18986">
        <ele>1118.8</ele>
        <time>2025-07-19T14:15:12Z</time>
      </trkpt>
      <trkpt lat="42.58596" lon="2.18977">
        <ele>1120</ele>
        <time>2025-07-19T14:15:16Z</time>
      </trkpt>
      <trkpt lat="42.58605" lon="2.18977">
        <ele>1121</ele>
        <time>2025-07-19T14:15:21Z</time>
      </trkpt>
      <trkpt lat="42.58615" lon="2.18985">
        <ele>1122.2</ele>
        <time>2025-07-19T14:15:25Z</time>
      </trkpt>
      <trkpt lat="42.58617" lon="2.18987">
        <ele>1122.2</ele>
        <time>2025-07-19T14:15:26Z</time>
      </trkpt>
      <trkpt lat="42.5863" lon="2.18998">
        <ele>1123.4</ele>
        <time>2025-07-19T14:15:33Z</time>
      </trkpt>
      <trkpt lat="42.58632" lon="2.18999">
        <ele>1123.4</ele>
        <time>2025-07-19T14:15:34Z</time>
      </trkpt>
      <trkpt lat="42.58645" lon="2.19002">
        <ele>1124.4</ele>
        <time>2025-07-19T14:15:40Z</time>
      </trkpt>
      <trkpt lat="42.58654" lon="2.19003">
        <ele>1125</ele>
        <time>2025-07-19T14:15:44Z</time>
      </trkpt>
      <trkpt lat="42.58661" lon="2.19003">
        <ele>1125.4</ele>
        <time>2025-07-19T14:15:47Z</time>
      </trkpt>
      <trkpt lat="42.58674" lon="2.19003">
        <ele>1126.4</ele>
        <time>2025-07-19T14:15:53Z</time>
      </trkpt>
      <trkpt lat="42.58676" lon="2.19002">
        <ele>1126.6</ele>
        <time>2025-07-19T14:15:54Z</time>
      </trkpt>
      <trkpt lat="42.58687" lon="2.18994">
        <ele>1127.6</ele>
        <time>2025-07-19T14:15:59Z</time>
      </trkpt>
      <trkpt lat="42.58691" lon="2.18991">
        <ele>1128.2</ele>
        <time>2025-07-19T14:16:01Z</time>
      </trkpt>
      <trkpt lat="42.58698" lon="2.18983">
        <ele>1128.6</ele>
        <time>2025-07-19T14:16:05Z</time>
      </trkpt>
      <trkpt lat="42.58702" lon="2.1898">
        <ele>1129</ele>
        <time>2025-07-19T14:16:08Z</time>
      </trkpt>
      <trkpt lat="42.58709" lon="2.18968">
        <ele>1129.8</ele>
        <time>2025-07-19T14:16:12Z</time>
      </trkpt>
      <trkpt lat="42.58712" lon="2.18963">
        <ele>1130</ele>
        <time>2025-07-19T14:16:14Z</time>
      </trkpt>
      <trkpt lat="42.5872" lon="2.18952">
        <ele>1131</ele>
        <time>2025-07-19T14:16:19Z</time>
      </trkpt>
      <trkpt lat="42.58723" lon="2.18947">
        <ele>1131.2</ele>
        <time>2025-07-19T14:16:21Z</time>
      </trkpt>
      <trkpt lat="42.5873" lon="2.18934">
        <ele>1132</ele>
        <time>2025-07-19T14:16:26Z</time>
      </trkpt>
      <trkpt lat="42.58736" lon="2.18924">
        <ele>1132.4</ele>
        <time>2025-07-19T14:16:30Z</time>
      </trkpt>
      <trkpt lat="42.58742" lon="2.18919">
        <ele>1133.2</ele>
        <time>2025-07-19T14:16:33Z</time>
      </trkpt>
      <trkpt lat="42.58751" lon="2.18909">
        <ele>1133.8</ele>
        <time>2025-07-19T14:16:38Z</time>
      </trkpt>
      <trkpt lat="42.58757" lon="2.18903">
        <ele>1134.2</ele>
        <time>2025-07-19T14:16:41Z</time>
      </trkpt>
      <trkpt lat="42.58765" lon="2.18897">
        <ele>1134.8</ele>
        <time>2025-07-19T14:16:45Z</time>
      </trkpt>
      <trkpt lat="42.58773" lon="2.1889">
        <ele>1135.4</ele>
        <time>2025-07-19T14:16:49Z</time>
      </trkpt>
      <trkpt lat="42.58777" lon="2.18887">
        <ele>1135.6</ele>
        <time>2025-07-19T14:16:51Z</time>
      </trkpt>
      <trkpt lat="42.58793" lon="2.18876">
        <ele>1136.4</ele>
        <time>2025-07-19T14:16:59Z</time>
      </trkpt>
      <trkpt lat="42.58795" lon="2.18874">
        <ele>1136.6</ele>
        <time>2025-07-19T14:17:00Z</time>
      </trkpt>
      <trkpt lat="42.58813" lon="2.18863">
        <ele>1137.6</ele>
        <time>2025-07-19T14:17:08Z</time>
      </trkpt>
      <trkpt lat="42.58815" lon="2.18862">
        <ele>1137.8</ele>
        <time>2025-07-19T14:17:09Z</time>
      </trkpt>
      <trkpt lat="42.58826" lon="2.1886">
        <ele>1138.8</ele>
        <time>2025-07-19T14:17:14Z</time>
      </trkpt>
      <trkpt lat="42.58828" lon="2.18861">
        <ele>1139</ele>
        <time>2025-07-19T14:17:15Z</time>
      </trkpt>
      <trkpt lat="42.5884" lon="2.18877">
        <ele>1140</ele>
        <time>2025-07-19T14:17:22Z</time>
      </trkpt>
      <trkpt lat="42.58841" lon="2.1888">
        <ele>1140.2</ele>
        <time>2025-07-19T14:17:23Z</time>
      </trkpt>
      <trkpt lat="42.58848" lon="2.18889">
        <ele>1141</ele>
        <time>2025-07-19T14:17:27Z</time>
      </trkpt>
      <trkpt lat="42.58857" lon="2.18906">
        <ele>1141.8</ele>
        <time>2025-07-19T14:17:33Z</time>
      </trkpt>
      <trkpt lat="42.58858" lon="2.18909">
        <ele>1142</ele>
        <time>2025-07-19T14:17:34Z</time>
      </trkpt>
      <trkpt lat="42.58868" lon="2.18929">
        <ele>1143.2</ele>
        <time>2025-07-19T14:17:41Z</time>
      </trkpt>
      <trkpt lat="42.58879" lon="2.18945">
        <ele>1144.4</ele>
        <time>2025-07-19T14:17:48Z</time>
      </trkpt>
      <trkpt lat="42.58881" lon="2.18963">
        <ele>1145.4</ele>
        <time>2025-07-19T14:17:53Z</time>
      </trkpt>
      <trkpt lat="42.58881" lon="2.18967">
        <ele>1145.4</ele>
        <time>2025-07-19T14:17:54Z</time>
      </trkpt>
      <trkpt lat="42.58881" lon="2.18984">
        <ele>1146.6</ele>
        <time>2025-07-19T14:17:59Z</time>
      </trkpt>
      <trkpt lat="42.58883" lon="2.18993">
        <ele>1147.2</ele>
        <time>2025-07-19T14:18:02Z</time>
      </trkpt>
      <trkpt lat="42.58885" lon="2.19002">
        <ele>1147.4</ele>
        <time>2025-07-19T14:18:05Z</time>
      </trkpt>
      <trkpt lat="42.58888" lon="2.19015">
        <ele>1148.2</ele>
        <time>2025-07-19T14:18:09Z</time>
      </trkpt>
      <trkpt lat="42.58891" lon="2.19024">
        <ele>1148.6</ele>
        <time>2025-07-19T14:18:12Z</time>
      </trkpt>
      <trkpt lat="42.58895" lon="2.19032">
        <ele>1149.4</ele>
        <time>2025-07-19T14:18:15Z</time>
      </trkpt>
      <trkpt lat="42.58897" lon="2.19035">
        <ele>1149.8</ele>
        <time>2025-07-19T14:18:16Z</time>
      </trkpt>
      <trkpt lat="42.58907" lon="2.19044">
        <ele>1150.6</ele>
        <time>2025-07-19T14:18:21Z</time>
      </trkpt>
      <trkpt lat="42.5891" lon="2.19047">
        <ele>1150.6</ele>
        <time>2025-07-19T14:18:23Z</time>
      </trkpt>
      <trkpt lat="42.58919" lon="2.19052">
        <ele>1151.4</ele>
        <time>2025-07-19T14:18:28Z</time>
      </trkpt>
      <trkpt lat="42.58921" lon="2.19052">
        <ele>1151.8</ele>
        <time>2025-07-19T14:18:29Z</time>
      </trkpt>
      <trkpt lat="42.58935" lon="2.19053">
        <ele>1152.4</ele>
        <time>2025-07-19T14:18:35Z</time>
      </trkpt>
      <trkpt lat="42.58949" lon="2.1905">
        <ele>1152.8</ele>
        <time>2025-07-19T14:18:41Z</time>
      </trkpt>
      <trkpt lat="42.58951" lon="2.19049">
        <ele>1152.8</ele>
        <time>2025-07-19T14:18:42Z</time>
      </trkpt>
      <trkpt lat="42.58969" lon="2.1904">
        <ele>1153.6</ele>
        <time>2025-07-19T14:18:50Z</time>
      </trkpt>
      <trkpt lat="42.58985" lon="2.1903">
        <ele>1154.6</ele>
        <time>2025-07-19T14:18:58Z</time>
      </trkpt>
      <trkpt lat="42.58987" lon="2.19029">
        <ele>1155</ele>
        <time>2025-07-19T14:18:59Z</time>
      </trkpt>
      <trkpt lat="42.58996" lon="2.1902">
        <ele>1155.6</ele>
        <time>2025-07-19T14:19:04Z</time>
      </trkpt>
      <trkpt lat="42.59" lon="2.19017">
        <ele>1155.8</ele>
        <time>2025-07-19T14:19:06Z</time>
      </trkpt>
      <trkpt lat="42.5901" lon="2.19003">
        <ele>1157</ele>
        <time>2025-07-19T14:19:12Z</time>
      </trkpt>
      <trkpt lat="42.59013" lon="2.18998">
        <ele>1157.4</ele>
        <time>2025-07-19T14:19:14Z</time>
      </trkpt>
      <trkpt lat="42.59024" lon="2.18982">
        <ele>1158.2</ele>
        <time>2025-07-19T14:19:21Z</time>
      </trkpt>
      <trkpt lat="42.59028" lon="2.18977">
        <ele>1158.4</ele>
        <time>2025-07-19T14:19:23Z</time>
      </trkpt>
      <trkpt lat="42.59042" lon="2.1897">
        <ele>1159.2</ele>
        <time>2025-07-19T14:19:29Z</time>
      </trkpt>
      <trkpt lat="42.59064" lon="2.18969">
        <ele>1160.4</ele>
        <time>2025-07-19T14:19:38Z</time>
      </trkpt>
      <trkpt lat="42.59079" lon="2.18969">
        <ele>1161.4</ele>
        <time>2025-07-19T14:19:45Z</time>
      </trkpt>
      <trkpt lat="42.59084" lon="2.18969">
        <ele>1161.8</ele>
        <time>2025-07-19T14:19:47Z</time>
      </trkpt>
      <trkpt lat="42.59095" lon="2.18965">
        <ele>1162.4</ele>
        <time>2025-07-19T14:19:52Z</time>
      </trkpt>
      <trkpt lat="42.59106" lon="2.18961">
        <ele>1163.2</ele>
        <time>2025-07-19T14:19:57Z</time>
      </trkpt>
      <trkpt lat="42.59111" lon="2.18962">
        <ele>1163.6</ele>
        <time>2025-07-19T14:19:59Z</time>
      </trkpt>
      <trkpt lat="42.59127" lon="2.18958">
        <ele>1164.6</ele>
        <time>2025-07-19T14:20:06Z</time>
      </trkpt>
      <trkpt lat="42.59131" lon="2.18955">
        <ele>1165</ele>
        <time>2025-07-19T14:20:08Z</time>
      </trkpt>
      <trkpt lat="42.59138" lon="2.18946">
        <ele>1165.8</ele>
        <time>2025-07-19T14:20:12Z</time>
      </trkpt>
      <trkpt lat="42.59141" lon="2.18941">
        <ele>1165.8</ele>
        <time>2025-07-19T14:20:14Z</time>
      </trkpt>
      <trkpt lat="42.59147" lon="2.18931">
        <ele>1166.6</ele>
        <time>2025-07-19T14:20:18Z</time>
      </trkpt>
      <trkpt lat="42.5915" lon="2.18925">
        <ele>1167</ele>
        <time>2025-07-19T14:20:20Z</time>
      </trkpt>
      <trkpt lat="42.5916" lon="2.18912">
        <ele>1167.6</ele>
        <time>2025-07-19T14:20:26Z</time>
      </trkpt>
      <trkpt lat="42.59162" lon="2.18909">
        <ele>1167.8</ele>
        <time>2025-07-19T14:20:27Z</time>
      </trkpt>
      <trkpt lat="42.59174" lon="2.18898">
        <ele>1168.8</ele>
        <time>2025-07-19T14:20:33Z</time>
      </trkpt>
      <trkpt lat="42.59184" lon="2.1889">
        <ele>1169.2</ele>
        <time>2025-07-19T14:20:38Z</time>
      </trkpt>
      <trkpt lat="42.59191" lon="2.18882">
        <ele>1169.8</ele>
        <time>2025-07-19T14:20:42Z</time>
      </trkpt>
      <trkpt lat="42.59196" lon="2.18877">
        <ele>1170.2</ele>
        <time>2025-07-19T14:20:45Z</time>
      </trkpt>
      <trkpt lat="42.59199" lon="2.18872">
        <ele>1170.6</ele>
        <time>2025-07-19T14:20:47Z</time>
      </trkpt>
      <trkpt lat="42.59201" lon="2.18865">
        <ele>1171</ele>
        <time>2025-07-19T14:20:49Z</time>
      </trkpt>
      <trkpt lat="42.59203" lon="2.18859">
        <ele>1171.4</ele>
        <time>2025-07-19T14:20:51Z</time>
      </trkpt>
      <trkpt lat="42.59206" lon="2.18847">
        <ele>1172</ele>
        <time>2025-07-19T14:20:55Z</time>
      </trkpt>
      <trkpt lat="42.59208" lon="2.18832">
        <ele>1173.2</ele>
        <time>2025-07-19T14:21:00Z</time>
      </trkpt>
      <trkpt lat="42.5921" lon="2.18807">
        <ele>1174.2</ele>
        <time>2025-07-19T14:21:07Z</time>
      </trkpt>
      <trkpt lat="42.5921" lon="2.18804">
        <ele>1174.4</ele>
        <time>2025-07-19T14:21:08Z</time>
      </trkpt>
      <trkpt lat="42.59209" lon="2.18785">
        <ele>1175.2</ele>
        <time>2025-07-19T14:21:14Z</time>
      </trkpt>
      <trkpt lat="42.59208" lon="2.18772">
        <ele>1175.8</ele>
        <time>2025-07-19T14:21:18Z</time>
      </trkpt>
      <trkpt lat="42.59207" lon="2.18763">
        <ele>1176.2</ele>
        <time>2025-07-19T14:21:21Z</time>
      </trkpt>
      <trkpt lat="42.59205" lon="2.18745">
        <ele>1177</ele>
        <time>2025-07-19T14:21:27Z</time>
      </trkpt>
      <trkpt lat="42.59203" lon="2.1874">
        <ele>1177.2</ele>
        <time>2025-07-19T14:21:29Z</time>
      </trkpt>
      <trkpt lat="42.59195" lon="2.18717">
        <ele>1178.2</ele>
        <time>2025-07-19T14:21:37Z</time>
      </trkpt>
      <trkpt lat="42.59195" lon="2.18713">
        <ele>1178.2</ele>
        <time>2025-07-19T14:21:38Z</time>
      </trkpt>
      <trkpt lat="42.59198" lon="2.187">
        <ele>1179</ele>
        <time>2025-07-19T14:21:42Z</time>
      </trkpt>
      <trkpt lat="42.59201" lon="2.18695">
        <ele>1179.4</ele>
        <time>2025-07-19T14:21:44Z</time>
      </trkpt>
      <trkpt lat="42.59208" lon="2.18691">
        <ele>1179.8</ele>
        <time>2025-07-19T14:21:47Z</time>
      </trkpt>
      <trkpt lat="42.5922" lon="2.1869">
        <ele>1180.4</ele>
        <time>2025-07-19T14:21:51Z</time>
      </trkpt>
      <trkpt lat="42.59231" lon="2.1869">
        <ele>1180.8</ele>
        <time>2025-07-19T14:21:55Z</time>
      </trkpt>
      <trkpt lat="42.59248" lon="2.18689">
        <ele>1181.6</ele>
        <time>2025-07-19T14:22:01Z</time>
      </trkpt>
      <trkpt lat="42.59251" lon="2.18689">
        <ele>1181.6</ele>
        <time>2025-07-19T14:22:02Z</time>
      </trkpt>
      <trkpt lat="42.59268" lon="2.18684">
        <ele>1182.2</ele>
        <time>2025-07-19T14:22:08Z</time>
      </trkpt>
      <trkpt lat="42.59274" lon="2.18682">
        <ele>1182.4</ele>
        <time>2025-07-19T14:22:10Z</time>
      </trkpt>
      <trkpt lat="42.59293" lon="2.18676">
        <ele>1183.2</ele>
        <time>2025-07-19T14:22:17Z</time>
      </trkpt>
      <trkpt lat="42.59296" lon="2.18674">
        <ele>1183.4</ele>
        <time>2025-07-19T14:22:18Z</time>
      </trkpt>
      <trkpt lat="42.59316" lon="2.18665">
        <ele>1184</ele>
        <time>2025-07-19T14:22:25Z</time>
      </trkpt>
      <trkpt lat="42.59328" lon="2.1866">
        <ele>1184.4</ele>
        <time>2025-07-19T14:22:29Z</time>
      </trkpt>
      <trkpt lat="42.59343" lon="2.18654">
        <ele>1184.8</ele>
        <time>2025-07-19T14:22:34Z</time>
      </trkpt>
      <trkpt lat="42.59364" lon="2.1865">
        <ele>1185.4</ele>
        <time>2025-07-19T14:22:40Z</time>
      </trkpt>
      <trkpt lat="42.5937" lon="2.1865">
        <ele>1185.6</ele>
        <time>2025-07-19T14:22:42Z</time>
      </trkpt>
      <trkpt lat="42.59389" lon="2.18647">
        <ele>1186.2</ele>
        <time>2025-07-19T14:22:48Z</time>
      </trkpt>
      <trkpt lat="42.59407" lon="2.18636">
        <ele>1187.4</ele>
        <time>2025-07-19T14:22:54Z</time>
      </trkpt>
      <trkpt lat="42.59409" lon="2.18632">
        <ele>1187.6</ele>
        <time>2025-07-19T14:22:55Z</time>
      </trkpt>
      <trkpt lat="42.5941" lon="2.18623">
        <ele>1187.8</ele>
        <time>2025-07-19T14:22:57Z</time>
      </trkpt>
      <trkpt lat="42.59404" lon="2.18606">
        <ele>1188</ele>
        <time>2025-07-19T14:23:01Z</time>
      </trkpt>
      <trkpt lat="42.59388" lon="2.18602">
        <ele>1188.2</ele>
        <time>2025-07-19T14:23:06Z</time>
      </trkpt>
      <trkpt lat="42.59362" lon="2.186">
        <ele>1189.2</ele>
        <time>2025-07-19T14:23:14Z</time>
      </trkpt>
      <trkpt lat="42.59359" lon="2.18599">
        <ele>1189.4</ele>
        <time>2025-07-19T14:23:15Z</time>
      </trkpt>
      <trkpt lat="42.59339" lon="2.18593">
        <ele>1190.2</ele>
        <time>2025-07-19T14:23:22Z</time>
      </trkpt>
      <trkpt lat="42.59333" lon="2.18592">
        <ele>1190.6</ele>
        <time>2025-07-19T14:23:24Z</time>
      </trkpt>
      <trkpt lat="42.59323" lon="2.18592">
        <ele>1191.4</ele>
        <time>2025-07-19T14:23:28Z</time>
      </trkpt>
      <trkpt lat="42.59311" lon="2.18592">
        <ele>1192.2</ele>
        <time>2025-07-19T14:23:33Z</time>
      </trkpt>
      <trkpt lat="42.59308" lon="2.18592">
        <ele>1192.4</ele>
        <time>2025-07-19T14:23:34Z</time>
      </trkpt>
      <trkpt lat="42.59302" lon="2.18592">
        <ele>1192.8</ele>
        <time>2025-07-19T14:23:37Z</time>
      </trkpt>
      <trkpt lat="42.59297" lon="2.18591">
        <ele>1193</ele>
        <time>2025-07-19T14:23:39Z</time>
      </trkpt>
      <trkpt lat="42.59286" lon="2.18589">
        <ele>1193.8</ele>
        <time>2025-07-19T14:23:44Z</time>
      </trkpt>
      <trkpt lat="42.5928" lon="2.18585">
        <ele>1194.2</ele>
        <time>2025-07-19T14:23:47Z</time>
      </trkpt>
      <trkpt lat="42.59271" lon="2.18572">
        <ele>1195</ele>
        <time>2025-07-19T14:23:52Z</time>
      </trkpt>
      <trkpt lat="42.59266" lon="2.18563">
        <ele>1195.6</ele>
        <time>2025-07-19T14:23:55Z</time>
      </trkpt>
      <trkpt lat="42.59261" lon="2.18555">
        <ele>1196</ele>
        <time>2025-07-19T14:23:58Z</time>
      </trkpt>
      <trkpt lat="42.59251" lon="2.18542">
        <ele>1196.6</ele>
        <time>2025-07-19T14:24:04Z</time>
      </trkpt>
      <trkpt lat="42.59248" lon="2.18537">
        <ele>1197.2</ele>
        <time>2025-07-19T14:24:06Z</time>
      </trkpt>
      <trkpt lat="42.59243" lon="2.18527">
        <ele>1198</ele>
        <time>2025-07-19T14:24:10Z</time>
      </trkpt>
      <trkpt lat="42.59242" lon="2.18524">
        <ele>1198.2</ele>
        <time>2025-07-19T14:24:11Z</time>
      </trkpt>
      <trkpt lat="42.59243" lon="2.18508">
        <ele>1198.8</ele>
        <time>2025-07-19T14:24:16Z</time>
      </trkpt>
      <trkpt lat="42.59246" lon="2.18503">
        <ele>1199.2</ele>
        <time>2025-07-19T14:24:18Z</time>
      </trkpt>
      <trkpt lat="42.59256" lon="2.18494">
        <ele>1200.2</ele>
        <time>2025-07-19T14:24:23Z</time>
      </trkpt>
      <trkpt lat="42.59257" lon="2.18492">
        <ele>1200.2</ele>
        <time>2025-07-19T14:24:24Z</time>
      </trkpt>
      <trkpt lat="42.59269" lon="2.18483">
        <ele>1201</ele>
        <time>2025-07-19T14:24:30Z</time>
      </trkpt>
      <trkpt lat="42.59273" lon="2.18479">
        <ele>1201.2</ele>
        <time>2025-07-19T14:24:32Z</time>
      </trkpt>
      <trkpt lat="42.59285" lon="2.18474">
        <ele>1202.2</ele>
        <time>2025-07-19T14:24:38Z</time>
      </trkpt>
      <trkpt lat="42.59288" lon="2.18474">
        <ele>1202.4</ele>
        <time>2025-07-19T14:24:39Z</time>
      </trkpt>
      <trkpt lat="42.593" lon="2.18471">
        <ele>1203.6</ele>
        <time>2025-07-19T14:24:44Z</time>
      </trkpt>
      <trkpt lat="42.59304" lon="2.18467">
        <ele>1203.8</ele>
        <time>2025-07-19T14:24:46Z</time>
      </trkpt>
      <trkpt lat="42.59316" lon="2.1845">
        <ele>1204.8</ele>
        <time>2025-07-19T14:24:53Z</time>
      </trkpt>
      <trkpt lat="42.5932" lon="2.18434">
        <ele>1206</ele>
        <time>2025-07-19T14:24:58Z</time>
      </trkpt>
      <trkpt lat="42.59322" lon="2.18423">
        <ele>1206.6</ele>
        <time>2025-07-19T14:25:01Z</time>
      </trkpt>
      <trkpt lat="42.59322" lon="2.18412">
        <ele>1207</ele>
        <time>2025-07-19T14:25:04Z</time>
      </trkpt>
      <trkpt lat="42.59322" lon="2.18396">
        <ele>1208</ele>
        <time>2025-07-19T14:25:09Z</time>
      </trkpt>
      <trkpt lat="42.59322" lon="2.18393">
        <ele>1208.2</ele>
        <time>2025-07-19T14:25:10Z</time>
      </trkpt>
      <trkpt lat="42.59319" lon="2.18374">
        <ele>1209.2</ele>
        <time>2025-07-19T14:25:16Z</time>
      </trkpt>
      <trkpt lat="42.59317" lon="2.18362">
        <ele>1209.8</ele>
        <time>2025-07-19T14:25:20Z</time>
      </trkpt>
      <trkpt lat="42.59313" lon="2.18353">
        <ele>1210.2</ele>
        <time>2025-07-19T14:25:23Z</time>
      </trkpt>
      <trkpt lat="42.59312" lon="2.1834">
        <ele>1210.8</ele>
        <time>2025-07-19T14:25:27Z</time>
      </trkpt>
      <trkpt lat="42.59316" lon="2.18332">
        <ele>1211</ele>
        <time>2025-07-19T14:25:30Z</time>
      </trkpt>
      <trkpt lat="42.59319" lon="2.18331">
        <ele>1211.2</ele>
        <time>2025-07-19T14:25:31Z</time>
      </trkpt>
      <trkpt lat="42.59333" lon="2.18328">
        <ele>1212.4</ele>
        <time>2025-07-19T14:25:37Z</time>
      </trkpt>
      <trkpt lat="42.59337" lon="2.18329">
        <ele>1212.8</ele>
        <time>2025-07-19T14:25:39Z</time>
      </trkpt>
      <trkpt lat="42.59345" lon="2.18328">
        <ele>1213.4</ele>
        <time>2025-07-19T14:25:42Z</time>
      </trkpt>
      <trkpt lat="42.59358" lon="2.18325">
        <ele>1214.4</ele>
        <time>2025-07-19T14:25:48Z</time>
      </trkpt>
      <trkpt lat="42.5936" lon="2.18324">
        <ele>1214.6</ele>
        <time>2025-07-19T14:25:49Z</time>
      </trkpt>
      <trkpt lat="42.59379" lon="2.18317">
        <ele>1215.6</ele>
        <time>2025-07-19T14:25:57Z</time>
      </trkpt>
      <trkpt lat="42.59381" lon="2.18316">
        <ele>1215.8</ele>
        <time>2025-07-19T14:25:58Z</time>
      </trkpt>
      <trkpt lat="42.59393" lon="2.18309">
        <ele>1216.8</ele>
        <time>2025-07-19T14:26:04Z</time>
      </trkpt>
      <trkpt lat="42.59396" lon="2.18308">
        <ele>1217</ele>
        <time>2025-07-19T14:26:05Z</time>
      </trkpt>
      <trkpt lat="42.59411" lon="2.18301">
        <ele>1217.6</ele>
        <time>2025-07-19T14:26:12Z</time>
      </trkpt>
      <trkpt lat="42.59413" lon="2.183">
        <ele>1217.8</ele>
        <time>2025-07-19T14:26:13Z</time>
      </trkpt>
      <trkpt lat="42.59426" lon="2.18292">
        <ele>1218.4</ele>
        <time>2025-07-19T14:26:19Z</time>
      </trkpt>
      <trkpt lat="42.59434" lon="2.18287">
        <ele>1219</ele>
        <time>2025-07-19T14:26:23Z</time>
      </trkpt>
      <trkpt lat="42.59442" lon="2.1828">
        <ele>1219.6</ele>
        <time>2025-07-19T14:26:27Z</time>
      </trkpt>
      <trkpt lat="42.59447" lon="2.18277">
        <ele>1220.2</ele>
        <time>2025-07-19T14:26:30Z</time>
      </trkpt>
      <trkpt lat="42.59451" lon="2.18273">
        <ele>1220.6</ele>
        <time>2025-07-19T14:26:32Z</time>
      </trkpt>
      <trkpt lat="42.59458" lon="2.18264">
        <ele>1221.2</ele>
        <time>2025-07-19T14:26:36Z</time>
      </trkpt>
      <trkpt lat="42.59468" lon="2.18256">
        <ele>1222</ele>
        <time>2025-07-19T14:26:41Z</time>
      </trkpt>
      <trkpt lat="42.59469" lon="2.18254">
        <ele>1222.2</ele>
        <time>2025-07-19T14:26:42Z</time>
      </trkpt>
      <trkpt lat="42.59479" lon="2.18245">
        <ele>1223.2</ele>
        <time>2025-07-19T14:26:47Z</time>
      </trkpt>
      <trkpt lat="42.59483" lon="2.18241">
        <ele>1223.4</ele>
        <time>2025-07-19T14:26:49Z</time>
      </trkpt>
      <trkpt lat="42.59498" lon="2.18229">
        <ele>1224.2</ele>
        <time>2025-07-19T14:26:56Z</time>
      </trkpt>
      <trkpt lat="42.59501" lon="2.18228">
        <ele>1224.4</ele>
        <time>2025-07-19T14:26:57Z</time>
      </trkpt>
      <trkpt lat="42.59503" lon="2.18228">
        <ele>1224.4</ele>
        <time>2025-07-19T14:26:58Z</time>
      </trkpt>
      <trkpt lat="42.59514" lon="2.18226">
        <ele>1225.2</ele>
        <time>2025-07-19T14:27:03Z</time>
      </trkpt>
      <trkpt lat="42.59516" lon="2.18225">
        <ele>1225.4</ele>
        <time>2025-07-19T14:27:04Z</time>
      </trkpt>
      <trkpt lat="42.59526" lon="2.1822">
        <ele>1226</ele>
        <time>2025-07-19T14:27:09Z</time>
      </trkpt>
      <trkpt lat="42.59528" lon="2.18218">
        <ele>1226.4</ele>
        <time>2025-07-19T14:27:10Z</time>
      </trkpt>
      <trkpt lat="42.59543" lon="2.18206">
        <ele>1227.6</ele>
        <time>2025-07-19T14:27:17Z</time>
      </trkpt>
      <trkpt lat="42.59553" lon="2.182">
        <ele>1228.6</ele>
        <time>2025-07-19T14:27:23Z</time>
      </trkpt>
      <trkpt lat="42.59559" lon="2.18195">
        <ele>1229</ele>
        <time>2025-07-19T14:27:25Z</time>
      </trkpt>
      <trkpt lat="42.59567" lon="2.18186">
        <ele>1229.8</ele>
        <time>2025-07-19T14:27:29Z</time>
      </trkpt>
      <trkpt lat="42.59572" lon="2.18177">
        <ele>1229.8</ele>
        <time>2025-07-19T14:27:32Z</time>
      </trkpt>
      <trkpt lat="42.59584" lon="2.1816">
        <ele>1230.6</ele>
        <time>2025-07-19T14:27:39Z</time>
      </trkpt>
      <trkpt lat="42.59593" lon="2.18144">
        <ele>1231.8</ele>
        <time>2025-07-19T14:27:46Z</time>
      </trkpt>
      <trkpt lat="42.59598" lon="2.18119">
        <ele>1232.6</ele>
        <time>2025-07-19T14:27:53Z</time>
      </trkpt>
      <trkpt lat="42.59606" lon="2.18092">
        <ele>1232.4</ele>
        <time>2025-07-19T14:27:59Z</time>
      </trkpt>
      <trkpt lat="42.59615" lon="2.18069">
        <ele>1231.8</ele>
        <time>2025-07-19T14:28:03Z</time>
      </trkpt>
      <trkpt lat="42.59621" lon="2.18055">
        <ele>1231.8</ele>
        <time>2025-07-19T14:28:05Z</time>
      </trkpt>
      <trkpt lat="42.59623" lon="2.18048">
        <ele>1231.6</ele>
        <time>2025-07-19T14:28:06Z</time>
      </trkpt>
      <trkpt lat="42.59627" lon="2.18035">
        <ele>1231.2</ele>
        <time>2025-07-19T14:28:08Z</time>
      </trkpt>
      <trkpt lat="42.59628" lon="2.18025">
        <ele>1231</ele>
        <time>2025-07-19T14:28:09Z</time>
      </trkpt>
      <trkpt lat="42.59627" lon="2.18017">
        <ele>1231</ele>
        <time>2025-07-19T14:28:10Z</time>
      </trkpt>
      <trkpt lat="42.59622" lon="2.18002">
        <ele>1230.8</ele>
        <time>2025-07-19T14:28:12Z</time>
      </trkpt>
      <trkpt lat="42.59619" lon="2.17995">
        <ele>1230.4</ele>
        <time>2025-07-19T14:28:13Z</time>
      </trkpt>
      <trkpt lat="42.59607" lon="2.17978">
        <ele>1230</ele>
        <time>2025-07-19T14:28:16Z</time>
      </trkpt>
      <trkpt lat="42.59601" lon="2.17975">
        <ele>1229.6</ele>
        <time>2025-07-19T14:28:17Z</time>
      </trkpt>
      <trkpt lat="42.59596" lon="2.17973">
        <ele>1229.2</ele>
        <time>2025-07-19T14:28:18Z</time>
      </trkpt>
      <trkpt lat="42.59591" lon="2.17974">
        <ele>1229.2</ele>
        <time>2025-07-19T14:28:19Z</time>
      </trkpt>
      <trkpt lat="42.59586" lon="2.17975">
        <ele>1229.2</ele>
        <time>2025-07-19T14:28:20Z</time>
      </trkpt>
      <trkpt lat="42.59574" lon="2.17981">
        <ele>1229</ele>
        <time>2025-07-19T14:28:23Z</time>
      </trkpt>
      <trkpt lat="42.59564" lon="2.17989">
        <ele>1229.4</ele>
        <time>2025-07-19T14:28:27Z</time>
      </trkpt>
      <trkpt lat="42.59558" lon="2.17994">
        <ele>1229.8</ele>
        <time>2025-07-19T14:28:30Z</time>
      </trkpt>
      <trkpt lat="42.59552" lon="2.18">
        <ele>1230.2</ele>
        <time>2025-07-19T14:28:32Z</time>
      </trkpt>
      <trkpt lat="42.59547" lon="2.18008">
        <ele>1230.4</ele>
        <time>2025-07-19T14:28:34Z</time>
      </trkpt>
      <trkpt lat="42.59543" lon="2.18013">
        <ele>1230.8</ele>
        <time>2025-07-19T14:28:37Z</time>
      </trkpt>
      <trkpt lat="42.59531" lon="2.18028">
        <ele>1231.4</ele>
        <time>2025-07-19T14:28:40Z</time>
      </trkpt>
      <trkpt lat="42.59523" lon="2.18043">
        <ele>1232.4</ele>
        <time>2025-07-19T14:28:44Z</time>
      </trkpt>
      <trkpt lat="42.5952" lon="2.18048">
        <ele>1232.6</ele>
        <time>2025-07-19T14:28:45Z</time>
      </trkpt>
      <trkpt lat="42.59511" lon="2.18069">
        <ele>1233.4</ele>
        <time>2025-07-19T14:28:51Z</time>
      </trkpt>
      <trkpt lat="42.59507" lon="2.18075">
        <ele>1233.4</ele>
        <time>2025-07-19T14:28:53Z</time>
      </trkpt>
      <trkpt lat="42.59498" lon="2.18084">
        <ele>1234.2</ele>
        <time>2025-07-19T14:28:57Z</time>
      </trkpt>
      <trkpt lat="42.59493" lon="2.18086">
        <ele>1234.6</ele>
        <time>2025-07-19T14:28:59Z</time>
      </trkpt>
      <trkpt lat="42.59482" lon="2.18091">
        <ele>1235.4</ele>
        <time>2025-07-19T14:29:03Z</time>
      </trkpt>
      <trkpt lat="42.59474" lon="2.18092">
        <ele>1236</ele>
        <time>2025-07-19T14:29:06Z</time>
      </trkpt>
      <trkpt lat="42.5946" lon="2.18096">
        <ele>1236.6</ele>
        <time>2025-07-19T14:29:11Z</time>
      </trkpt>
      <trkpt lat="42.59452" lon="2.18098">
        <ele>1237</ele>
        <time>2025-07-19T14:29:14Z</time>
      </trkpt>
      <trkpt lat="42.59449" lon="2.18099">
        <ele>1237.2</ele>
        <time>2025-07-19T14:29:15Z</time>
      </trkpt>
      <trkpt lat="42.59438" lon="2.18102">
        <ele>1237.8</ele>
        <time>2025-07-19T14:29:19Z</time>
      </trkpt>
      <trkpt lat="42.5943" lon="2.18104">
        <ele>1238</ele>
        <time>2025-07-19T14:29:22Z</time>
      </trkpt>
      <trkpt lat="42.59419" lon="2.18109">
        <ele>1238.6</ele>
        <time>2025-07-19T14:29:26Z</time>
      </trkpt>
      <trkpt lat="42.59411" lon="2.18113">
        <ele>1239.2</ele>
        <time>2025-07-19T14:29:29Z</time>
      </trkpt>
      <trkpt lat="42.59399" lon="2.18117">
        <ele>1239.8</ele>
        <time>2025-07-19T14:29:33Z</time>
      </trkpt>
      <trkpt lat="42.59394" lon="2.18121">
        <ele>1240.2</ele>
        <time>2025-07-19T14:29:35Z</time>
      </trkpt>
      <trkpt lat="42.59382" lon="2.18129">
        <ele>1241</ele>
        <time>2025-07-19T14:29:40Z</time>
      </trkpt>
      <trkpt lat="42.59375" lon="2.18134">
        <ele>1241.4</ele>
        <time>2025-07-19T14:29:43Z</time>
      </trkpt>
      <trkpt lat="42.59362" lon="2.18147">
        <ele>1242.2</ele>
        <time>2025-07-19T14:29:49Z</time>
      </trkpt>
      <trkpt lat="42.59357" lon="2.1815">
        <ele>1242.4</ele>
        <time>2025-07-19T14:29:51Z</time>
      </trkpt>
      <trkpt lat="42.59344" lon="2.18162">
        <ele>1243.2</ele>
        <time>2025-07-19T14:29:58Z</time>
      </trkpt>
      <trkpt lat="42.59342" lon="2.18165">
        <ele>1243.4</ele>
        <time>2025-07-19T14:29:59Z</time>
      </trkpt>
      <trkpt lat="42.59334" lon="2.18171">
        <ele>1244.2</ele>
        <time>2025-07-19T14:30:03Z</time>
      </trkpt>
      <trkpt lat="42.5933" lon="2.18176">
        <ele>1244.4</ele>
        <time>2025-07-19T14:30:05Z</time>
      </trkpt>
      <trkpt lat="42.59328" lon="2.18177">
        <ele>1244.4</ele>
        <time>2025-07-19T14:30:06Z</time>
      </trkpt>
      <trkpt lat="42.59326" lon="2.1818">
        <ele>1244.6</ele>
        <time>2025-07-19T14:30:07Z</time>
      </trkpt>
      <trkpt lat="42.59315" lon="2.18187">
        <ele>1245</ele>
        <time>2025-07-19T14:30:11Z</time>
      </trkpt>
      <trkpt lat="42.59313" lon="2.18188">
        <ele>1245.4</ele>
        <time>2025-07-19T14:30:12Z</time>
      </trkpt>
      <trkpt lat="42.5931" lon="2.18189">
        <ele>1245.6</ele>
        <time>2025-07-19T14:30:13Z</time>
      </trkpt>
      <trkpt lat="42.59292" lon="2.18196">
        <ele>1246.4</ele>
        <time>2025-07-19T14:30:20Z</time>
      </trkpt>
      <trkpt lat="42.59287" lon="2.18197">
        <ele>1246.8</ele>
        <time>2025-07-19T14:30:22Z</time>
      </trkpt>
      <trkpt lat="42.59273" lon="2.18203">
        <ele>1247.6</ele>
        <time>2025-07-19T14:30:27Z</time>
      </trkpt>
      <trkpt lat="42.59268" lon="2.18205">
        <ele>1248</ele>
        <time>2025-07-19T14:30:29Z</time>
      </trkpt>
      <trkpt lat="42.59251" lon="2.18213">
        <ele>1248.6</ele>
        <time>2025-07-19T14:30:35Z</time>
      </trkpt>
      <trkpt lat="42.59247" lon="2.18217">
        <ele>1249</ele>
        <time>2025-07-19T14:30:37Z</time>
      </trkpt>
      <trkpt lat="42.59241" lon="2.18226">
        <ele>1249.6</ele>
        <time>2025-07-19T14:30:41Z</time>
      </trkpt>
      <trkpt lat="42.59233" lon="2.18237">
        <ele>1250</ele>
        <time>2025-07-19T14:30:46Z</time>
      </trkpt>
      <trkpt lat="42.59231" lon="2.1824">
        <ele>1250.2</ele>
        <time>2025-07-19T14:30:47Z</time>
      </trkpt>
      <trkpt lat="42.59222" lon="2.18258">
        <ele>1251</ele>
        <time>2025-07-19T14:30:53Z</time>
      </trkpt>
      <trkpt lat="42.59222" lon="2.18262">
        <ele>1251.2</ele>
        <time>2025-07-19T14:30:54Z</time>
      </trkpt>
      <trkpt lat="42.59214" lon="2.18289">
        <ele>1252</ele>
        <time>2025-07-19T14:31:02Z</time>
      </trkpt>
      <trkpt lat="42.59202" lon="2.18303">
        <ele>1253</ele>
        <time>2025-07-19T14:31:08Z</time>
      </trkpt>
      <trkpt lat="42.59196" lon="2.18311">
        <ele>1253.2</ele>
        <time>2025-07-19T14:31:11Z</time>
      </trkpt>
      <trkpt lat="42.59193" lon="2.1832">
        <ele>1253.6</ele>
        <time>2025-07-19T14:31:14Z</time>
      </trkpt>
      <trkpt lat="42.59191" lon="2.18332">
        <ele>1254.2</ele>
        <time>2025-07-19T14:31:18Z</time>
      </trkpt>
      <trkpt lat="42.59188" lon="2.18338">
        <ele>1254.8</ele>
        <time>2025-07-19T14:31:20Z</time>
      </trkpt>
      <trkpt lat="42.59178" lon="2.18353">
        <ele>1255.2</ele>
        <time>2025-07-19T14:31:26Z</time>
      </trkpt>
      <trkpt lat="42.59176" lon="2.18355">
        <ele>1255.4</ele>
        <time>2025-07-19T14:31:27Z</time>
      </trkpt>
      <trkpt lat="42.59159" lon="2.1837">
        <ele>1256.2</ele>
        <time>2025-07-19T14:31:35Z</time>
      </trkpt>
      <trkpt lat="42.59145" lon="2.18387">
        <ele>1257.4</ele>
        <time>2025-07-19T14:31:42Z</time>
      </trkpt>
      <trkpt lat="42.59145" lon="2.18387">
        <ele>1257.4</ele>
        <time>2025-07-19T14:31:43Z</time>
      </trkpt>
      <trkpt lat="42.59134" lon="2.18408">
        <ele>1258.4</ele>
        <time>2025-07-19T14:31:50Z</time>
      </trkpt>
      <trkpt lat="42.59132" lon="2.18412">
        <ele>1258.6</ele>
        <time>2025-07-19T14:31:51Z</time>
      </trkpt>
      <trkpt lat="42.59125" lon="2.18425">
        <ele>1259.4</ele>
        <time>2025-07-19T14:31:56Z</time>
      </trkpt>
      <trkpt lat="42.59119" lon="2.18435">
        <ele>1260</ele>
        <time>2025-07-19T14:32:00Z</time>
      </trkpt>
      <trkpt lat="42.59113" lon="2.18442">
        <ele>1260.6</ele>
        <time>2025-07-19T14:32:03Z</time>
      </trkpt>
      <trkpt lat="42.591" lon="2.18456">
        <ele>1261.6</ele>
        <time>2025-07-19T14:32:10Z</time>
      </trkpt>
      <trkpt lat="42.59098" lon="2.18458">
        <ele>1261.8</ele>
        <time>2025-07-19T14:32:11Z</time>
      </trkpt>
      <trkpt lat="42.59085" lon="2.18465">
        <ele>1262.4</ele>
        <time>2025-07-19T14:32:16Z</time>
      </trkpt>
      <trkpt lat="42.5908" lon="2.18466">
        <ele>1262.8</ele>
        <time>2025-07-19T14:32:18Z</time>
      </trkpt>
      <trkpt lat="42.59076" lon="2.18469">
        <ele>1263</ele>
        <time>2025-07-19T14:32:20Z</time>
      </trkpt>
      <trkpt lat="42.5907" lon="2.18475">
        <ele>1263.2</ele>
        <time>2025-07-19T14:32:23Z</time>
      </trkpt>
      <trkpt lat="42.59063" lon="2.18485">
        <ele>1264</ele>
        <time>2025-07-19T14:32:27Z</time>
      </trkpt>
      <trkpt lat="42.59055" lon="2.18497">
        <ele>1264.8</ele>
        <time>2025-07-19T14:32:32Z</time>
      </trkpt>
      <trkpt lat="42.59049" lon="2.18503">
        <ele>1265</ele>
        <time>2025-07-19T14:32:34Z</time>
      </trkpt>
      <trkpt lat="42.59041" lon="2.18521">
        <ele>1265.6</ele>
        <time>2025-07-19T14:32:40Z</time>
      </trkpt>
      <trkpt lat="42.59037" lon="2.18525">
        <ele>1266</ele>
        <time>2025-07-19T14:32:42Z</time>
      </trkpt>
      <trkpt lat="42.59028" lon="2.18529">
        <ele>1266.6</ele>
        <time>2025-07-19T14:32:46Z</time>
      </trkpt>
      <trkpt lat="42.5902" lon="2.18532">
        <ele>1267.2</ele>
        <time>2025-07-19T14:32:49Z</time>
      </trkpt>
      <trkpt lat="42.59011" lon="2.18538">
        <ele>1267.6</ele>
        <time>2025-07-19T14:32:53Z</time>
      </trkpt>
      <trkpt lat="42.59004" lon="2.18552">
        <ele>1267.8</ele>
        <time>2025-07-19T14:32:58Z</time>
      </trkpt>
      <trkpt lat="42.59" lon="2.18563">
        <ele>1268.2</ele>
        <time>2025-07-19T14:33:01Z</time>
      </trkpt>
      <trkpt lat="42.58995" lon="2.18571">
        <ele>1268.4</ele>
        <time>2025-07-19T14:33:04Z</time>
      </trkpt>
      <trkpt lat="42.58983" lon="2.18578">
        <ele>1269</ele>
        <time>2025-07-19T14:33:09Z</time>
      </trkpt>
      <trkpt lat="42.58973" lon="2.18574">
        <ele>1269.2</ele>
        <time>2025-07-19T14:33:12Z</time>
      </trkpt>
      <trkpt lat="42.58968" lon="2.1857">
        <ele>1269.4</ele>
        <time>2025-07-19T14:33:14Z</time>
      </trkpt>
      <trkpt lat="42.58958" lon="2.18561">
        <ele>1269.8</ele>
        <time>2025-07-19T14:33:20Z</time>
      </trkpt>
      <trkpt lat="42.58951" lon="2.18556">
        <ele>1270.2</ele>
        <time>2025-07-19T14:33:26Z</time>
      </trkpt>
      <trkpt lat="42.58951" lon="2.18556">
        <ele>1270.2</ele>
        <time>2025-07-19T14:33:28Z</time>
      </trkpt>
      <trkpt lat="42.58949" lon="2.18554">
        <ele>1270.2</ele>
        <time>2025-07-19T14:35:11Z</time>
      </trkpt>
      <trkpt lat="42.58947" lon="2.18551">
        <ele>1270.2</ele>
        <time>2025-07-19T14:35:12Z</time>
      </trkpt>
      <trkpt lat="42.58933" lon="2.18534">
        <ele>1270.6</ele>
        <time>2025-07-19T14:35:18Z</time>
      </trkpt>
      <trkpt lat="42.58927" lon="2.18529">
        <ele>1270.8</ele>
        <time>2025-07-19T14:35:20Z</time>
      </trkpt>
      <trkpt lat="42.58913" lon="2.18513">
        <ele>1271.4</ele>
        <time>2025-07-19T14:35:26Z</time>
      </trkpt>
      <trkpt lat="42.58908" lon="2.18508">
        <ele>1271.8</ele>
        <time>2025-07-19T14:35:28Z</time>
      </trkpt>
      <trkpt lat="42.58894" lon="2.18492">
        <ele>1272.8</ele>
        <time>2025-07-19T14:35:34Z</time>
      </trkpt>
      <trkpt lat="42.58891" lon="2.18489">
        <ele>1272.8</ele>
        <time>2025-07-19T14:35:35Z</time>
      </trkpt>
      <trkpt lat="42.58876" lon="2.1847">
        <ele>1274</ele>
        <time>2025-07-19T14:35:42Z</time>
      </trkpt>
      <trkpt lat="42.58862" lon="2.18447">
        <ele>1274.8</ele>
        <time>2025-07-19T14:35:49Z</time>
      </trkpt>
      <trkpt lat="42.58859" lon="2.18441">
        <ele>1275</ele>
        <time>2025-07-19T14:35:51Z</time>
      </trkpt>
      <trkpt lat="42.58848" lon="2.18421">
        <ele>1276</ele>
        <time>2025-07-19T14:35:57Z</time>
      </trkpt>
      <trkpt lat="42.58844" lon="2.18414">
        <ele>1276.2</ele>
        <time>2025-07-19T14:35:59Z</time>
      </trkpt>
      <trkpt lat="42.58834" lon="2.18391">
        <ele>1277</ele>
        <time>2025-07-19T14:36:05Z</time>
      </trkpt>
      <trkpt lat="42.58832" lon="2.18383">
        <ele>1277.2</ele>
        <time>2025-07-19T14:36:07Z</time>
      </trkpt>
      <trkpt lat="42.58828" lon="2.1836">
        <ele>1278</ele>
        <time>2025-07-19T14:36:13Z</time>
      </trkpt>
      <trkpt lat="42.58827" lon="2.18348">
        <ele>1278.2</ele>
        <time>2025-07-19T14:36:16Z</time>
      </trkpt>
      <trkpt lat="42.58826" lon="2.18332">
        <ele>1279</ele>
        <time>2025-07-19T14:36:20Z</time>
      </trkpt>
      <trkpt lat="42.58823" lon="2.18311">
        <ele>1279.6</ele>
        <time>2025-07-19T14:36:25Z</time>
      </trkpt>
      <trkpt lat="42.58815" lon="2.18293">
        <ele>1280.2</ele>
        <time>2025-07-19T14:36:30Z</time>
      </trkpt>
      <trkpt lat="42.58813" lon="2.1829">
        <ele>1280.4</ele>
        <time>2025-07-19T14:36:31Z</time>
      </trkpt>
      <trkpt lat="42.58794" lon="2.18277">
        <ele>1281</ele>
        <time>2025-07-19T14:36:38Z</time>
      </trkpt>
      <trkpt lat="42.58772" lon="2.18277">
        <ele>1281.8</ele>
        <time>2025-07-19T14:36:45Z</time>
      </trkpt>
      <trkpt lat="42.58769" lon="2.18278">
        <ele>1282</ele>
        <time>2025-07-19T14:36:46Z</time>
      </trkpt>
      <trkpt lat="42.58748" lon="2.18288">
        <ele>1283</ele>
        <time>2025-07-19T14:36:53Z</time>
      </trkpt>
      <trkpt lat="42.58745" lon="2.1829">
        <ele>1283.2</ele>
        <time>2025-07-19T14:36:54Z</time>
      </trkpt>
      <trkpt lat="42.58723" lon="2.18298">
        <ele>1284</ele>
        <time>2025-07-19T14:37:02Z</time>
      </trkpt>
      <trkpt lat="42.5872" lon="2.18297">
        <ele>1284</ele>
        <time>2025-07-19T14:37:03Z</time>
      </trkpt>
      <trkpt lat="42.58707" lon="2.18289">
        <ele>1284.8</ele>
        <time>2025-07-19T14:37:08Z</time>
      </trkpt>
      <trkpt lat="42.58701" lon="2.18286">
        <ele>1285</ele>
        <time>2025-07-19T14:37:10Z</time>
      </trkpt>
      <trkpt lat="42.58678" lon="2.18276">
        <ele>1286</ele>
        <time>2025-07-19T14:37:18Z</time>
      </trkpt>
      <trkpt lat="42.58676" lon="2.18275">
        <ele>1286</ele>
        <time>2025-07-19T14:37:19Z</time>
      </trkpt>
      <trkpt lat="42.58654" lon="2.18264">
        <ele>1287</ele>
        <time>2025-07-19T14:37:27Z</time>
      </trkpt>
      <trkpt lat="42.58649" lon="2.18262">
        <ele>1287.2</ele>
        <time>2025-07-19T14:37:29Z</time>
      </trkpt>
      <trkpt lat="42.58641" lon="2.18253">
        <ele>1287.8</ele>
        <time>2025-07-19T14:37:33Z</time>
      </trkpt>
      <trkpt lat="42.58635" lon="2.18244">
        <ele>1288.2</ele>
        <time>2025-07-19T14:37:37Z</time>
      </trkpt>
      <trkpt lat="42.58633" lon="2.18241">
        <ele>1288.2</ele>
        <time>2025-07-19T14:37:38Z</time>
      </trkpt>
      <trkpt lat="42.58622" lon="2.18225">
        <ele>1288.8</ele>
        <time>2025-07-19T14:37:44Z</time>
      </trkpt>
      <trkpt lat="42.58609" lon="2.18199">
        <ele>1289.2</ele>
        <time>2025-07-19T14:37:51Z</time>
      </trkpt>
      <trkpt lat="42.58605" lon="2.1819">
        <ele>1289.4</ele>
        <time>2025-07-19T14:37:53Z</time>
      </trkpt>
      <trkpt lat="42.58593" lon="2.18158">
        <ele>1290.4</ele>
        <time>2025-07-19T14:38:02Z</time>
      </trkpt>
      <trkpt lat="42.58591" lon="2.18155">
        <ele>1290.6</ele>
        <time>2025-07-19T14:38:03Z</time>
      </trkpt>
      <trkpt lat="42.58581" lon="2.18143">
        <ele>1291.4</ele>
        <time>2025-07-19T14:38:08Z</time>
      </trkpt>
      <trkpt lat="42.58568" lon="2.18137">
        <ele>1292.4</ele>
        <time>2025-07-19T14:38:13Z</time>
      </trkpt>
      <trkpt lat="42.58563" lon="2.18136">
        <ele>1293.2</ele>
        <time>2025-07-19T14:38:16Z</time>
      </trkpt>
      <trkpt lat="42.58561" lon="2.18136">
        <ele>1293.6</ele>
        <time>2025-07-19T14:38:17Z</time>
      </trkpt>
      <trkpt lat="42.58561" lon="2.18137">
        <ele>1293.8</ele>
        <time>2025-07-19T14:38:19Z</time>
      </trkpt>
      <trkpt lat="42.58554" lon="2.18138">
        <ele>1294.4</ele>
        <time>2025-07-19T14:38:32Z</time>
      </trkpt>
      <trkpt lat="42.58551" lon="2.18136">
        <ele>1294.6</ele>
        <time>2025-07-19T14:38:34Z</time>
      </trkpt>
      <trkpt lat="42.5855" lon="2.18134">
        <ele>1294.6</ele>
        <time>2025-07-19T14:38:35Z</time>
      </trkpt>
      <trkpt lat="42.58542" lon="2.18119">
        <ele>1295.4</ele>
        <time>2025-07-19T14:38:41Z</time>
      </trkpt>
      <trkpt lat="42.58542" lon="2.18116">
        <ele>1295.6</ele>
        <time>2025-07-19T14:38:42Z</time>
      </trkpt>
      <trkpt lat="42.58537" lon="2.18104">
        <ele>1296.6</ele>
        <time>2025-07-19T14:38:46Z</time>
      </trkpt>
      <trkpt lat="42.58537" lon="2.18102">
        <ele>1297</ele>
        <time>2025-07-19T14:38:47Z</time>
      </trkpt>
      <trkpt lat="42.58534" lon="2.18088">
        <ele>1297.8</ele>
        <time>2025-07-19T14:38:52Z</time>
      </trkpt>
      <trkpt lat="42.58533" lon="2.18086">
        <ele>1297.8</ele>
        <time>2025-07-19T14:38:53Z</time>
      </trkpt>
      <trkpt lat="42.58529" lon="2.18073">
        <ele>1299</ele>
        <time>2025-07-19T14:38:58Z</time>
      </trkpt>
      <trkpt lat="42.58528" lon="2.1807">
        <ele>1298.8</ele>
        <time>2025-07-19T14:38:59Z</time>
      </trkpt>
      <trkpt lat="42.58525" lon="2.1806">
        <ele>1299.6</ele>
        <time>2025-07-19T14:39:04Z</time>
      </trkpt>
      <trkpt lat="42.58525" lon="2.18059">
        <ele>1299.8</ele>
        <time>2025-07-19T14:39:05Z</time>
      </trkpt>
      <trkpt lat="42.58525" lon="2.18059">
        <ele>1300.2</ele>
        <time>2025-07-19T14:39:08Z</time>
      </trkpt>
      <trkpt lat="42.58524" lon="2.18056">
        <ele>1300.6</ele>
        <time>2025-07-19T14:39:46Z</time>
      </trkpt>
      <trkpt lat="42.58522" lon="2.18052">
        <ele>1300.6</ele>
        <time>2025-07-19T14:39:48Z</time>
      </trkpt>
      <trkpt lat="42.58518" lon="2.18044">
        <ele>1300.6</ele>
        <time>2025-07-19T14:39:51Z</time>
      </trkpt>
      <trkpt lat="42.58514" lon="2.18035">
        <ele>1300.8</ele>
        <time>2025-07-19T14:39:54Z</time>
      </trkpt>
      <trkpt lat="42.5851" lon="2.18025">
        <ele>1301</ele>
        <time>2025-07-19T14:39:57Z</time>
      </trkpt>
      <trkpt lat="42.58507" lon="2.18011">
        <ele>1301.8</ele>
        <time>2025-07-19T14:40:01Z</time>
      </trkpt>
      <trkpt lat="42.58506" lon="2.18004">
        <ele>1302.2</ele>
        <time>2025-07-19T14:40:03Z</time>
      </trkpt>
      <trkpt lat="42.58505" lon="2.17992">
        <ele>1302.6</ele>
        <time>2025-07-19T14:40:07Z</time>
      </trkpt>
      <trkpt lat="42.58505" lon="2.17988">
        <ele>1303</ele>
        <time>2025-07-19T14:40:08Z</time>
      </trkpt>
      <trkpt lat="42.58505" lon="2.17975">
        <ele>1304</ele>
        <time>2025-07-19T14:40:12Z</time>
      </trkpt>
      <trkpt lat="42.58505" lon="2.17969">
        <ele>1304.6</ele>
        <time>2025-07-19T14:40:14Z</time>
      </trkpt>
      <trkpt lat="42.58503" lon="2.17963">
        <ele>1304.8</ele>
        <time>2025-07-19T14:40:16Z</time>
      </trkpt>
      <trkpt lat="42.58497" lon="2.17943">
        <ele>1305.8</ele>
        <time>2025-07-19T14:40:22Z</time>
      </trkpt>
      <trkpt lat="42.58496" lon="2.17941">
        <ele>1305.8</ele>
        <time>2025-07-19T14:40:23Z</time>
      </trkpt>
      <trkpt lat="42.58491" lon="2.17932">
        <ele>1306.4</ele>
        <time>2025-07-19T14:40:26Z</time>
      </trkpt>
      <trkpt lat="42.58491" lon="2.17929">
        <ele>1306.6</ele>
        <time>2025-07-19T14:40:27Z</time>
      </trkpt>
      <trkpt lat="42.58491" lon="2.17926">
        <ele>1307</ele>
        <time>2025-07-19T14:40:28Z</time>
      </trkpt>
      <trkpt lat="42.58493" lon="2.1792">
        <ele>1307.2</ele>
        <time>2025-07-19T14:40:30Z</time>
      </trkpt>
      <trkpt lat="42.58495" lon="2.17918">
        <ele>1307.2</ele>
        <time>2025-07-19T14:40:31Z</time>
      </trkpt>
      <trkpt lat="42.58501" lon="2.1792">
        <ele>1307.8</ele>
        <time>2025-07-19T14:40:34Z</time>
      </trkpt>
      <trkpt lat="42.58502" lon="2.17922">
        <ele>1308</ele>
        <time>2025-07-19T14:40:35Z</time>
      </trkpt>
      <trkpt lat="42.58507" lon="2.17946">
        <ele>1309.2</ele>
        <time>2025-07-19T14:40:42Z</time>
      </trkpt>
      <trkpt lat="42.58513" lon="2.17968">
        <ele>1310.2</ele>
        <time>2025-07-19T14:40:49Z</time>
      </trkpt>
      <trkpt lat="42.58514" lon="2.17971">
        <ele>1310.2</ele>
        <time>2025-07-19T14:40:50Z</time>
      </trkpt>
      <trkpt lat="42.58519" lon="2.17984">
        <ele>1310.6</ele>
        <time>2025-07-19T14:40:54Z</time>
      </trkpt>
      <trkpt lat="42.5852" lon="2.17989">
        <ele>1310.8</ele>
        <time>2025-07-19T14:40:56Z</time>
      </trkpt>
      <trkpt lat="42.58522" lon="2.17997">
        <ele>1311.2</ele>
        <time>2025-07-19T14:40:59Z</time>
      </trkpt>
      <trkpt lat="42.58525" lon="2.18005">
        <ele>1311.6</ele>
        <time>2025-07-19T14:41:02Z</time>
      </trkpt>
      <trkpt lat="42.5853" lon="2.18014">
        <ele>1312.2</ele>
        <time>2025-07-19T14:41:06Z</time>
      </trkpt>
      <trkpt lat="42.58535" lon="2.18023">
        <ele>1312.6</ele>
        <time>2025-07-19T14:41:09Z</time>
      </trkpt>
      <trkpt lat="42.58548" lon="2.18047">
        <ele>1313</ele>
        <time>2025-07-19T14:41:17Z</time>
      </trkpt>
      <trkpt lat="42.58553" lon="2.18057">
        <ele>1313.2</ele>
        <time>2025-07-19T14:41:20Z</time>
      </trkpt>
      <trkpt lat="42.58564" lon="2.18068">
        <ele>1313.6</ele>
        <time>2025-07-19T14:41:25Z</time>
      </trkpt>
      <trkpt lat="42.58575" lon="2.1808">
        <ele>1314</ele>
        <time>2025-07-19T14:41:32Z</time>
      </trkpt>
      <trkpt lat="42.5858" lon="2.18083">
        <ele>1314.2</ele>
        <time>2025-07-19T14:41:33Z</time>
      </trkpt>
      <trkpt lat="42.58602" lon="2.18093">
        <ele>1315.2</ele>
        <time>2025-07-19T14:41:42Z</time>
      </trkpt>
      <trkpt lat="42.58608" lon="2.18095">
        <ele>1315.2</ele>
        <time>2025-07-19T14:41:44Z</time>
      </trkpt>
      <trkpt lat="42.58622" lon="2.18097">
        <ele>1315.8</ele>
        <time>2025-07-19T14:41:50Z</time>
      </trkpt>
      <trkpt lat="42.58632" lon="2.18095">
        <ele>1316.4</ele>
        <time>2025-07-19T14:41:54Z</time>
      </trkpt>
      <trkpt lat="42.58643" lon="2.18093">
        <ele>1316.8</ele>
        <time>2025-07-19T14:41:58Z</time>
      </trkpt>
      <trkpt lat="42.58659" lon="2.18091">
        <ele>1317.4</ele>
        <time>2025-07-19T14:42:04Z</time>
      </trkpt>
      <trkpt lat="42.58672" lon="2.1809">
        <ele>1318.4</ele>
        <time>2025-07-19T14:42:09Z</time>
      </trkpt>
      <trkpt lat="42.58675" lon="2.1809">
        <ele>1318.6</ele>
        <time>2025-07-19T14:42:10Z</time>
      </trkpt>
      <trkpt lat="42.58683" lon="2.18089">
        <ele>1318.8</ele>
        <time>2025-07-19T14:42:13Z</time>
      </trkpt>
      <trkpt lat="42.58698" lon="2.18086">
        <ele>1319</ele>
        <time>2025-07-19T14:42:18Z</time>
      </trkpt>
      <trkpt lat="42.58703" lon="2.18086">
        <ele>1319.6</ele>
        <time>2025-07-19T14:42:20Z</time>
      </trkpt>
      <trkpt lat="42.5872" lon="2.18083">
        <ele>1320.6</ele>
        <time>2025-07-19T14:42:26Z</time>
      </trkpt>
      <trkpt lat="42.58725" lon="2.18082">
        <ele>1321</ele>
        <time>2025-07-19T14:42:28Z</time>
      </trkpt>
      <trkpt lat="42.58738" lon="2.18079">
        <ele>1321.8</ele>
        <time>2025-07-19T14:42:33Z</time>
      </trkpt>
      <trkpt lat="42.58755" lon="2.18072">
        <ele>1322.8</ele>
        <time>2025-07-19T14:42:40Z</time>
      </trkpt>
      <trkpt lat="42.58755" lon="2.18072">
        <ele>1323</ele>
        <time>2025-07-19T14:42:41Z</time>
      </trkpt>
      <trkpt lat="42.58776" lon="2.18064">
        <ele>1324.2</ele>
        <time>2025-07-19T14:42:48Z</time>
      </trkpt>
      <trkpt lat="42.5878" lon="2.18063">
        <ele>1324.6</ele>
        <time>2025-07-19T14:42:50Z</time>
      </trkpt>
      <trkpt lat="42.58794" lon="2.18067">
        <ele>1325.2</ele>
        <time>2025-07-19T14:42:55Z</time>
      </trkpt>
      <trkpt lat="42.58798" lon="2.18068">
        <ele>1325.6</ele>
        <time>2025-07-19T14:42:57Z</time>
      </trkpt>
      <trkpt lat="42.58807" lon="2.18071">
        <ele>1326.2</ele>
        <time>2025-07-19T14:43:01Z</time>
      </trkpt>
      <trkpt lat="42.58809" lon="2.18072">
        <ele>1326.4</ele>
        <time>2025-07-19T14:43:02Z</time>
      </trkpt>
      <trkpt lat="42.58823" lon="2.18078">
        <ele>1327.2</ele>
        <time>2025-07-19T14:43:07Z</time>
      </trkpt>
      <trkpt lat="42.58834" lon="2.1808">
        <ele>1327.8</ele>
        <time>2025-07-19T14:43:11Z</time>
      </trkpt>
      <trkpt lat="42.58839" lon="2.18076">
        <ele>1328.2</ele>
        <time>2025-07-19T14:43:13Z</time>
      </trkpt>
      <trkpt lat="42.5884" lon="2.18073">
        <ele>1328.4</ele>
        <time>2025-07-19T14:43:14Z</time>
      </trkpt>
      <trkpt lat="42.5884" lon="2.1807">
        <ele>1328.4</ele>
        <time>2025-07-19T14:43:15Z</time>
      </trkpt>
      <trkpt lat="42.58838" lon="2.18063">
        <ele>1329</ele>
        <time>2025-07-19T14:43:17Z</time>
      </trkpt>
      <trkpt lat="42.58832" lon="2.1806">
        <ele>1329.4</ele>
        <time>2025-07-19T14:43:19Z</time>
      </trkpt>
      <trkpt lat="42.58811" lon="2.18058">
        <ele>1330.4</ele>
        <time>2025-07-19T14:43:26Z</time>
      </trkpt>
      <trkpt lat="42.58809" lon="2.18057">
        <ele>1330.6</ele>
        <time>2025-07-19T14:43:27Z</time>
      </trkpt>
      <trkpt lat="42.58791" lon="2.18049">
        <ele>1331.6</ele>
        <time>2025-07-19T14:43:34Z</time>
      </trkpt>
      <trkpt lat="42.58779" lon="2.18044">
        <ele>1332.2</ele>
        <time>2025-07-19T14:43:39Z</time>
      </trkpt>
      <trkpt lat="42.58774" lon="2.18043">
        <ele>1332.6</ele>
        <time>2025-07-19T14:43:41Z</time>
      </trkpt>
      <trkpt lat="42.58758" lon="2.18043">
        <ele>1333.2</ele>
        <time>2025-07-19T14:43:47Z</time>
      </trkpt>
      <trkpt lat="42.58752" lon="2.18043">
        <ele>1333.4</ele>
        <time>2025-07-19T14:43:49Z</time>
      </trkpt>
      <trkpt lat="42.58739" lon="2.18046">
        <ele>1334.4</ele>
        <time>2025-07-19T14:43:54Z</time>
      </trkpt>
      <trkpt lat="42.58737" lon="2.18046">
        <ele>1334.6</ele>
        <time>2025-07-19T14:43:55Z</time>
      </trkpt>
      <trkpt lat="42.58724" lon="2.18046">
        <ele>1335.6</ele>
        <time>2025-07-19T14:44:00Z</time>
      </trkpt>
      <trkpt lat="42.58719" lon="2.18045">
        <ele>1335.8</ele>
        <time>2025-07-19T14:44:02Z</time>
      </trkpt>
      <trkpt lat="42.58707" lon="2.18041">
        <ele>1336.8</ele>
        <time>2025-07-19T14:44:07Z</time>
      </trkpt>
      <trkpt lat="42.58697" lon="2.18038">
        <ele>1337.4</ele>
        <time>2025-07-19T14:44:11Z</time>
      </trkpt>
      <trkpt lat="42.58693" lon="2.18036">
        <ele>1337.8</ele>
        <time>2025-07-19T14:44:13Z</time>
      </trkpt>
      <trkpt lat="42.58678" lon="2.18031">
        <ele>1339</ele>
        <time>2025-07-19T14:44:19Z</time>
      </trkpt>
      <trkpt lat="42.58668" lon="2.18029">
        <ele>1339.6</ele>
        <time>2025-07-19T14:44:23Z</time>
      </trkpt>
      <trkpt lat="42.58659" lon="2.18026">
        <ele>1340</ele>
        <time>2025-07-19T14:44:27Z</time>
      </trkpt>
      <trkpt lat="42.58639" lon="2.18022">
        <ele>1341.2</ele>
        <time>2025-07-19T14:44:35Z</time>
      </trkpt>
      <trkpt lat="42.58622" lon="2.18018">
        <ele>1342.2</ele>
        <time>2025-07-19T14:44:42Z</time>
      </trkpt>
      <trkpt lat="42.58617" lon="2.18017">
        <ele>1342.8</ele>
        <time>2025-07-19T14:44:44Z</time>
      </trkpt>
      <trkpt lat="42.58608" lon="2.18014">
        <ele>1343.4</ele>
        <time>2025-07-19T14:44:48Z</time>
      </trkpt>
      <trkpt lat="42.58601" lon="2.18007">
        <ele>1343.8</ele>
        <time>2025-07-19T14:44:51Z</time>
      </trkpt>
      <trkpt lat="42.58597" lon="2.17998">
        <ele>1344.4</ele>
        <time>2025-07-19T14:44:55Z</time>
      </trkpt>
      <trkpt lat="42.58597" lon="2.17992">
        <ele>1344.6</ele>
        <time>2025-07-19T14:44:56Z</time>
      </trkpt>
      <trkpt lat="42.58598" lon="2.17972">
        <ele>1345.4</ele>
        <time>2025-07-19T14:45:02Z</time>
      </trkpt>
      <trkpt lat="42.58599" lon="2.17966">
        <ele>1345.8</ele>
        <time>2025-07-19T14:45:04Z</time>
      </trkpt>
      <trkpt lat="42.58601" lon="2.17957">
        <ele>1346.6</ele>
        <time>2025-07-19T14:45:07Z</time>
      </trkpt>
      <trkpt lat="42.58602" lon="2.17945">
        <ele>1347.6</ele>
        <time>2025-07-19T14:45:11Z</time>
      </trkpt>
      <trkpt lat="42.58603" lon="2.17935">
        <ele>1348</ele>
        <time>2025-07-19T14:45:14Z</time>
      </trkpt>
      <trkpt lat="42.58606" lon="2.17906">
        <ele>1349</ele>
        <time>2025-07-19T14:45:22Z</time>
      </trkpt>
      <trkpt lat="42.58607" lon="2.17885">
        <ele>1350</ele>
        <time>2025-07-19T14:45:28Z</time>
      </trkpt>
      <trkpt lat="42.58607" lon="2.17882">
        <ele>1350.2</ele>
        <time>2025-07-19T14:45:29Z</time>
      </trkpt>
      <trkpt lat="42.58603" lon="2.17862">
        <ele>1351.2</ele>
        <time>2025-07-19T14:45:35Z</time>
      </trkpt>
      <trkpt lat="42.58601" lon="2.17856">
        <ele>1351.6</ele>
        <time>2025-07-19T14:45:37Z</time>
      </trkpt>
      <trkpt lat="42.58598" lon="2.17835">
        <ele>1352.4</ele>
        <time>2025-07-19T14:45:43Z</time>
      </trkpt>
      <trkpt lat="42.58597" lon="2.17814">
        <ele>1353.4</ele>
        <time>2025-07-19T14:45:49Z</time>
      </trkpt>
      <trkpt lat="42.58598" lon="2.17811">
        <ele>1353.6</ele>
        <time>2025-07-19T14:45:50Z</time>
      </trkpt>
      <trkpt lat="42.586" lon="2.17791">
        <ele>1354.4</ele>
        <time>2025-07-19T14:45:56Z</time>
      </trkpt>
      <trkpt lat="42.58601" lon="2.17788">
        <ele>1354.6</ele>
        <time>2025-07-19T14:45:57Z</time>
      </trkpt>
      <trkpt lat="42.58599" lon="2.17767">
        <ele>1355.4</ele>
        <time>2025-07-19T14:46:03Z</time>
      </trkpt>
      <trkpt lat="42.58598" lon="2.17763">
        <ele>1355.6</ele>
        <time>2025-07-19T14:46:04Z</time>
      </trkpt>
      <trkpt lat="42.58592" lon="2.17741">
        <ele>1356.6</ele>
        <time>2025-07-19T14:46:11Z</time>
      </trkpt>
      <trkpt lat="42.58589" lon="2.17721">
        <ele>1357.8</ele>
        <time>2025-07-19T14:46:17Z</time>
      </trkpt>
      <trkpt lat="42.58584" lon="2.17698">
        <ele>1358.8</ele>
        <time>2025-07-19T14:46:24Z</time>
      </trkpt>
      <trkpt lat="42.58582" lon="2.17688">
        <ele>1359.4</ele>
        <time>2025-07-19T14:46:27Z</time>
      </trkpt>
      <trkpt lat="42.58577" lon="2.17675">
        <ele>1360</ele>
        <time>2025-07-19T14:46:31Z</time>
      </trkpt>
      <trkpt lat="42.58575" lon="2.17659">
        <ele>1360.6</ele>
        <time>2025-07-19T14:46:36Z</time>
      </trkpt>
      <trkpt lat="42.58575" lon="2.17649">
        <ele>1361</ele>
        <time>2025-07-19T14:46:39Z</time>
      </trkpt>
      <trkpt lat="42.58575" lon="2.17626">
        <ele>1362.2</ele>
        <time>2025-07-19T14:46:46Z</time>
      </trkpt>
      <trkpt lat="42.58575" lon="2.17623">
        <ele>1362.2</ele>
        <time>2025-07-19T14:46:47Z</time>
      </trkpt>
      <trkpt lat="42.58575" lon="2.17604">
        <ele>1363.2</ele>
        <time>2025-07-19T14:46:53Z</time>
      </trkpt>
      <trkpt lat="42.58576" lon="2.17593">
        <ele>1363.6</ele>
        <time>2025-07-19T14:46:56Z</time>
      </trkpt>
      <trkpt lat="42.58581" lon="2.1757">
        <ele>1364.2</ele>
        <time>2025-07-19T14:47:03Z</time>
      </trkpt>
      <trkpt lat="42.58583" lon="2.17564">
        <ele>1364.6</ele>
        <time>2025-07-19T14:47:05Z</time>
      </trkpt>
      <trkpt lat="42.5859" lon="2.17547">
        <ele>1365.4</ele>
        <time>2025-07-19T14:47:11Z</time>
      </trkpt>
      <trkpt lat="42.58594" lon="2.17535">
        <ele>1366</ele>
        <time>2025-07-19T14:47:15Z</time>
      </trkpt>
      <trkpt lat="42.58599" lon="2.17523">
        <ele>1366.4</ele>
        <time>2025-07-19T14:47:19Z</time>
      </trkpt>
      <trkpt lat="42.58608" lon="2.17503">
        <ele>1367.4</ele>
        <time>2025-07-19T14:47:26Z</time>
      </trkpt>
      <trkpt lat="42.58609" lon="2.17501">
        <ele>1367.6</ele>
        <time>2025-07-19T14:47:27Z</time>
      </trkpt>
      <trkpt lat="42.58622" lon="2.1748">
        <ele>1368.4</ele>
        <time>2025-07-19T14:47:35Z</time>
      </trkpt>
      <trkpt lat="42.58624" lon="2.17478">
        <ele>1368.6</ele>
        <time>2025-07-19T14:47:36Z</time>
      </trkpt>
      <trkpt lat="42.58644" lon="2.17454">
        <ele>1369.6</ele>
        <time>2025-07-19T14:47:46Z</time>
      </trkpt>
      <trkpt lat="42.58646" lon="2.17452">
        <ele>1369.8</ele>
        <time>2025-07-19T14:47:47Z</time>
      </trkpt>
      <trkpt lat="42.58659" lon="2.17438">
        <ele>1370.8</ele>
        <time>2025-07-19T14:47:53Z</time>
      </trkpt>
      <trkpt lat="42.58665" lon="2.17432">
        <ele>1371.2</ele>
        <time>2025-07-19T14:47:56Z</time>
      </trkpt>
      <trkpt lat="42.58678" lon="2.17426">
        <ele>1372</ele>
        <time>2025-07-19T14:48:01Z</time>
      </trkpt>
      <trkpt lat="42.58688" lon="2.17422">
        <ele>1372.6</ele>
        <time>2025-07-19T14:48:05Z</time>
      </trkpt>
      <trkpt lat="42.58693" lon="2.17419">
        <ele>1372.8</ele>
        <time>2025-07-19T14:48:07Z</time>
      </trkpt>
      <trkpt lat="42.58711" lon="2.1741">
        <ele>1374</ele>
        <time>2025-07-19T14:48:14Z</time>
      </trkpt>
      <trkpt lat="42.58714" lon="2.17408">
        <ele>1374.2</ele>
        <time>2025-07-19T14:48:15Z</time>
      </trkpt>
      <trkpt lat="42.58725" lon="2.174">
        <ele>1375</ele>
        <time>2025-07-19T14:48:20Z</time>
      </trkpt>
      <trkpt lat="42.58735" lon="2.17393">
        <ele>1375.6</ele>
        <time>2025-07-19T14:48:24Z</time>
      </trkpt>
      <trkpt lat="42.58746" lon="2.17384">
        <ele>1376.2</ele>
        <time>2025-07-19T14:48:29Z</time>
      </trkpt>
      <trkpt lat="42.5875" lon="2.1738">
        <ele>1376.4</ele>
        <time>2025-07-19T14:48:31Z</time>
      </trkpt>
      <trkpt lat="42.58765" lon="2.17369">
        <ele>1377.2</ele>
        <time>2025-07-19T14:48:37Z</time>
      </trkpt>
      <trkpt lat="42.58781" lon="2.17355">
        <ele>1378</ele>
        <time>2025-07-19T14:48:44Z</time>
      </trkpt>
      <trkpt lat="42.58783" lon="2.17352">
        <ele>1378.2</ele>
        <time>2025-07-19T14:48:45Z</time>
      </trkpt>
      <trkpt lat="42.588" lon="2.17337">
        <ele>1379</ele>
        <time>2025-07-19T14:48:52Z</time>
      </trkpt>
      <trkpt lat="42.58807" lon="2.1733">
        <ele>1379.2</ele>
        <time>2025-07-19T14:48:55Z</time>
      </trkpt>
      <trkpt lat="42.5883" lon="2.17306">
        <ele>1380.2</ele>
        <time>2025-07-19T14:49:05Z</time>
      </trkpt>
      <trkpt lat="42.58853" lon="2.17281">
        <ele>1381.2</ele>
        <time>2025-07-19T14:49:15Z</time>
      </trkpt>
      <trkpt lat="42.58856" lon="2.17278">
        <ele>1381.4</ele>
        <time>2025-07-19T14:49:16Z</time>
      </trkpt>
      <trkpt lat="42.58874" lon="2.17258">
        <ele>1382.2</ele>
        <time>2025-07-19T14:49:24Z</time>
      </trkpt>
      <trkpt lat="42.58879" lon="2.17253">
        <ele>1382.6</ele>
        <time>2025-07-19T14:49:26Z</time>
      </trkpt>
      <trkpt lat="42.58894" lon="2.17228">
        <ele>1383.2</ele>
        <time>2025-07-19T14:49:34Z</time>
      </trkpt>
      <trkpt lat="42.58902" lon="2.17202">
        <ele>1383.8</ele>
        <time>2025-07-19T14:49:41Z</time>
      </trkpt>
      <trkpt lat="42.58911" lon="2.17191">
        <ele>1384</ele>
        <time>2025-07-19T14:49:46Z</time>
      </trkpt>
      <trkpt lat="42.58912" lon="2.17189">
        <ele>1384.2</ele>
        <time>2025-07-19T14:49:47Z</time>
      </trkpt>
      <trkpt lat="42.58919" lon="2.17178">
        <ele>1385.2</ele>
        <time>2025-07-19T14:49:52Z</time>
      </trkpt>
      <trkpt lat="42.58922" lon="2.17175">
        <ele>1386</ele>
        <time>2025-07-19T14:49:54Z</time>
      </trkpt>
      <trkpt lat="42.58923" lon="2.17173">
        <ele>1386.2</ele>
        <time>2025-07-19T14:49:55Z</time>
      </trkpt>
      <trkpt lat="42.58932" lon="2.17165">
        <ele>1387.4</ele>
        <time>2025-07-19T14:50:00Z</time>
      </trkpt>
      <trkpt lat="42.58934" lon="2.17164">
        <ele>1387.8</ele>
        <time>2025-07-19T14:50:01Z</time>
      </trkpt>
      <trkpt lat="42.58942" lon="2.17158">
        <ele>1388.6</ele>
        <time>2025-07-19T14:50:05Z</time>
      </trkpt>
      <trkpt lat="42.5895" lon="2.17151">
        <ele>1389.4</ele>
        <time>2025-07-19T14:50:09Z</time>
      </trkpt>
      <trkpt lat="42.58952" lon="2.17149">
        <ele>1389.6</ele>
        <time>2025-07-19T14:50:10Z</time>
      </trkpt>
      <trkpt lat="42.58963" lon="2.17131">
        <ele>1390.6</ele>
        <time>2025-07-19T14:50:17Z</time>
      </trkpt>
      <trkpt lat="42.58965" lon="2.17128">
        <ele>1390.6</ele>
        <time>2025-07-19T14:50:18Z</time>
      </trkpt>
      <trkpt lat="42.5898" lon="2.17103">
        <ele>1391.6</ele>
        <time>2025-07-19T14:50:26Z</time>
      </trkpt>
      <trkpt lat="42.58984" lon="2.17097">
        <ele>1391.8</ele>
        <time>2025-07-19T14:50:28Z</time>
      </trkpt>
      <trkpt lat="42.58996" lon="2.1708">
        <ele>1392.6</ele>
        <time>2025-07-19T14:50:34Z</time>
      </trkpt>
      <trkpt lat="42.59003" lon="2.17073">
        <ele>1392.8</ele>
        <time>2025-07-19T14:50:37Z</time>
      </trkpt>
      <trkpt lat="42.59026" lon="2.17051">
        <ele>1393.8</ele>
        <time>2025-07-19T14:50:46Z</time>
      </trkpt>
      <trkpt lat="42.59031" lon="2.17047">
        <ele>1394</ele>
        <time>2025-07-19T14:50:48Z</time>
      </trkpt>
      <trkpt lat="42.59044" lon="2.17033">
        <ele>1394.8</ele>
        <time>2025-07-19T14:50:54Z</time>
      </trkpt>
      <trkpt lat="42.59055" lon="2.17019">
        <ele>1395.8</ele>
        <time>2025-07-19T14:51:00Z</time>
      </trkpt>
      <trkpt lat="42.59063" lon="2.1701">
        <ele>1396.6</ele>
        <time>2025-07-19T14:51:04Z</time>
      </trkpt>
      <trkpt lat="42.59068" lon="2.17005">
        <ele>1396.8</ele>
        <time>2025-07-19T14:51:06Z</time>
      </trkpt>
      <trkpt lat="42.59082" lon="2.16992">
        <ele>1397.8</ele>
        <time>2025-07-19T14:51:13Z</time>
      </trkpt>
      <trkpt lat="42.59084" lon="2.1699">
        <ele>1397.8</ele>
        <time>2025-07-19T14:51:14Z</time>
      </trkpt>
      <trkpt lat="42.59098" lon="2.1698">
        <ele>1399.2</ele>
        <time>2025-07-19T14:51:20Z</time>
      </trkpt>
      <trkpt lat="42.59102" lon="2.16976">
        <ele>1399.6</ele>
        <time>2025-07-19T14:51:22Z</time>
      </trkpt>
      <trkpt lat="42.59108" lon="2.16967">
        <ele>1400.4</ele>
        <time>2025-07-19T14:51:26Z</time>
      </trkpt>
      <trkpt lat="42.59114" lon="2.16955">
        <ele>1401.2</ele>
        <time>2025-07-19T14:51:31Z</time>
      </trkpt>
      <trkpt lat="42.59116" lon="2.16953">
        <ele>1401.4</ele>
        <time>2025-07-19T14:51:32Z</time>
      </trkpt>
      <trkpt lat="42.59122" lon="2.16942">
        <ele>1402.6</ele>
        <time>2025-07-19T14:51:37Z</time>
      </trkpt>
      <trkpt lat="42.59124" lon="2.1694">
        <ele>1402.8</ele>
        <time>2025-07-19T14:51:38Z</time>
      </trkpt>
      <trkpt lat="42.59127" lon="2.16934">
        <ele>1403.6</ele>
        <time>2025-07-19T14:51:41Z</time>
      </trkpt>
      <trkpt lat="42.59132" lon="2.16926">
        <ele>1404.6</ele>
        <time>2025-07-19T14:51:45Z</time>
      </trkpt>
      <trkpt lat="42.59133" lon="2.16923">
        <ele>1404.6</ele>
        <time>2025-07-19T14:51:46Z</time>
      </trkpt>
      <trkpt lat="42.5914" lon="2.16917">
        <ele>1405.4</ele>
        <time>2025-07-19T14:51:51Z</time>
      </trkpt>
      <trkpt lat="42.59142" lon="2.16916">
        <ele>1405.8</ele>
        <time>2025-07-19T14:51:52Z</time>
      </trkpt>
      <trkpt lat="42.5915" lon="2.16909">
        <ele>1407</ele>
        <time>2025-07-19T14:51:57Z</time>
      </trkpt>
      <trkpt lat="42.59156" lon="2.16904">
        <ele>1408.4</ele>
        <time>2025-07-19T14:52:01Z</time>
      </trkpt>
      <trkpt lat="42.59161" lon="2.16897">
        <ele>1409.6</ele>
        <time>2025-07-19T14:52:05Z</time>
      </trkpt>
      <trkpt lat="42.59167" lon="2.16889">
        <ele>1410.6</ele>
        <time>2025-07-19T14:52:09Z</time>
      </trkpt>
      <trkpt lat="42.5917" lon="2.16886">
        <ele>1411.2</ele>
        <time>2025-07-19T14:52:11Z</time>
      </trkpt>
      <trkpt lat="42.59174" lon="2.16881">
        <ele>1412</ele>
        <time>2025-07-19T14:52:15Z</time>
      </trkpt>
      <trkpt lat="42.5918" lon="2.16872">
        <ele>1413.2</ele>
        <time>2025-07-19T14:52:20Z</time>
      </trkpt>
      <trkpt lat="42.59183" lon="2.16868">
        <ele>1413.6</ele>
        <time>2025-07-19T14:52:21Z</time>
      </trkpt>
      <trkpt lat="42.59189" lon="2.16862">
        <ele>1414.2</ele>
        <time>2025-07-19T14:52:25Z</time>
      </trkpt>
      <trkpt lat="42.59195" lon="2.16855">
        <ele>1415.2</ele>
        <time>2025-07-19T14:52:29Z</time>
      </trkpt>
      <trkpt lat="42.59197" lon="2.16853">
        <ele>1415.8</ele>
        <time>2025-07-19T14:52:30Z</time>
      </trkpt>
      <trkpt lat="42.592" lon="2.16849">
        <ele>1416.6</ele>
        <time>2025-07-19T14:52:32Z</time>
      </trkpt>
      <trkpt lat="42.59207" lon="2.16843">
        <ele>1417.6</ele>
        <time>2025-07-19T14:52:36Z</time>
      </trkpt>
      <trkpt lat="42.59212" lon="2.16839">
        <ele>1418.8</ele>
        <time>2025-07-19T14:52:39Z</time>
      </trkpt>
      <trkpt lat="42.59224" lon="2.16835">
        <ele>1419.8</ele>
        <time>2025-07-19T14:52:45Z</time>
      </trkpt>
      <trkpt lat="42.5923" lon="2.16832">
        <ele>1420</ele>
        <time>2025-07-19T14:52:48Z</time>
      </trkpt>
      <trkpt lat="42.59243" lon="2.16826">
        <ele>1420.4</ele>
        <time>2025-07-19T14:52:55Z</time>
      </trkpt>
      <trkpt lat="42.59259" lon="2.16819">
        <ele>1420.8</ele>
        <time>2025-07-19T14:53:02Z</time>
      </trkpt>
      <trkpt lat="42.59264" lon="2.16816">
        <ele>1421</ele>
        <time>2025-07-19T14:53:04Z</time>
      </trkpt>
      <trkpt lat="42.59275" lon="2.1681">
        <ele>1421.2</ele>
        <time>2025-07-19T14:53:09Z</time>
      </trkpt>
      <trkpt lat="42.59283" lon="2.16805">
        <ele>1421.6</ele>
        <time>2025-07-19T14:53:13Z</time>
      </trkpt>
      <trkpt lat="42.59292" lon="2.168">
        <ele>1422</ele>
        <time>2025-07-19T14:53:17Z</time>
      </trkpt>
      <trkpt lat="42.59306" lon="2.16792">
        <ele>1422.2</ele>
        <time>2025-07-19T14:53:23Z</time>
      </trkpt>
      <trkpt lat="42.59318" lon="2.16782">
        <ele>1422.8</ele>
        <time>2025-07-19T14:53:29Z</time>
      </trkpt>
      <trkpt lat="42.59323" lon="2.16776">
        <ele>1423</ele>
        <time>2025-07-19T14:53:32Z</time>
      </trkpt>
      <trkpt lat="42.59337" lon="2.16757">
        <ele>1423.8</ele>
        <time>2025-07-19T14:53:41Z</time>
      </trkpt>
      <trkpt lat="42.59347" lon="2.16739">
        <ele>1425</ele>
        <time>2025-07-19T14:53:48Z</time>
      </trkpt>
      <trkpt lat="42.59351" lon="2.16731">
        <ele>1425.4</ele>
        <time>2025-07-19T14:53:51Z</time>
      </trkpt>
      <trkpt lat="42.59354" lon="2.16723">
        <ele>1426</ele>
        <time>2025-07-19T14:53:54Z</time>
      </trkpt>
      <trkpt lat="42.59362" lon="2.16708">
        <ele>1426.8</ele>
        <time>2025-07-19T14:54:00Z</time>
      </trkpt>
      <trkpt lat="42.59364" lon="2.16703">
        <ele>1427</ele>
        <time>2025-07-19T14:54:02Z</time>
      </trkpt>
      <trkpt lat="42.59373" lon="2.16693">
        <ele>1427.6</ele>
        <time>2025-07-19T14:54:07Z</time>
      </trkpt>
      <trkpt lat="42.5938" lon="2.16686">
        <ele>1428</ele>
        <time>2025-07-19T14:54:11Z</time>
      </trkpt>
      <trkpt lat="42.59393" lon="2.16673">
        <ele>1428.8</ele>
        <time>2025-07-19T14:54:18Z</time>
      </trkpt>
      <trkpt lat="42.59398" lon="2.16668">
        <ele>1429.2</ele>
        <time>2025-07-19T14:54:21Z</time>
      </trkpt>
      <trkpt lat="42.59409" lon="2.16657">
        <ele>1430.2</ele>
        <time>2025-07-19T14:54:27Z</time>
      </trkpt>
      <trkpt lat="42.59411" lon="2.16655">
        <ele>1430.4</ele>
        <time>2025-07-19T14:54:28Z</time>
      </trkpt>
      <trkpt lat="42.59425" lon="2.1664">
        <ele>1431</ele>
        <time>2025-07-19T14:54:36Z</time>
      </trkpt>
      <trkpt lat="42.59429" lon="2.16636">
        <ele>1431.4</ele>
        <time>2025-07-19T14:54:38Z</time>
      </trkpt>
      <trkpt lat="42.59439" lon="2.16622">
        <ele>1432.4</ele>
        <time>2025-07-19T14:54:45Z</time>
      </trkpt>
      <trkpt lat="42.59449" lon="2.16607">
        <ele>1433.6</ele>
        <time>2025-07-19T14:54:52Z</time>
      </trkpt>
      <trkpt lat="42.59452" lon="2.16603">
        <ele>1434</ele>
        <time>2025-07-19T14:54:54Z</time>
      </trkpt>
      <trkpt lat="42.59455" lon="2.16596">
        <ele>1434.6</ele>
        <time>2025-07-19T14:54:57Z</time>
      </trkpt>
      <trkpt lat="42.59456" lon="2.16594">
        <ele>1434.8</ele>
        <time>2025-07-19T14:54:58Z</time>
      </trkpt>
      <trkpt lat="42.5946" lon="2.16584">
        <ele>1435.8</ele>
        <time>2025-07-19T14:55:02Z</time>
      </trkpt>
      <trkpt lat="42.59462" lon="2.16579">
        <ele>1436.4</ele>
        <time>2025-07-19T14:55:04Z</time>
      </trkpt>
      <trkpt lat="42.59465" lon="2.16572">
        <ele>1437</ele>
        <time>2025-07-19T14:55:07Z</time>
      </trkpt>
      <trkpt lat="42.59471" lon="2.16557">
        <ele>1438</ele>
        <time>2025-07-19T14:55:13Z</time>
      </trkpt>
      <trkpt lat="42.59472" lon="2.16555">
        <ele>1438.4</ele>
        <time>2025-07-19T14:55:14Z</time>
      </trkpt>
      <trkpt lat="42.59478" lon="2.16542">
        <ele>1439.2</ele>
        <time>2025-07-19T14:55:19Z</time>
      </trkpt>
      <trkpt lat="42.59483" lon="2.16529">
        <ele>1439.6</ele>
        <time>2025-07-19T14:55:24Z</time>
      </trkpt>
      <trkpt lat="42.59487" lon="2.1652">
        <ele>1440.2</ele>
        <time>2025-07-19T14:55:28Z</time>
      </trkpt>
      <trkpt lat="42.59492" lon="2.16511">
        <ele>1441.2</ele>
        <time>2025-07-19T14:55:32Z</time>
      </trkpt>
      <trkpt lat="42.59496" lon="2.16505">
        <ele>1441.8</ele>
        <time>2025-07-19T14:55:35Z</time>
      </trkpt>
      <trkpt lat="42.595" lon="2.16498">
        <ele>1442.2</ele>
        <time>2025-07-19T14:55:38Z</time>
      </trkpt>
      <trkpt lat="42.5951" lon="2.16485">
        <ele>1443.4</ele>
        <time>2025-07-19T14:55:45Z</time>
      </trkpt>
      <trkpt lat="42.59511" lon="2.16483">
        <ele>1443.4</ele>
        <time>2025-07-19T14:55:46Z</time>
      </trkpt>
      <trkpt lat="42.59518" lon="2.16473">
        <ele>1444.6</ele>
        <time>2025-07-19T14:55:51Z</time>
      </trkpt>
      <trkpt lat="42.59527" lon="2.16458">
        <ele>1445.2</ele>
        <time>2025-07-19T14:55:58Z</time>
      </trkpt>
      <trkpt lat="42.5953" lon="2.16454">
        <ele>1445.6</ele>
        <time>2025-07-19T14:56:00Z</time>
      </trkpt>
      <trkpt lat="42.59536" lon="2.16444">
        <ele>1446.8</ele>
        <time>2025-07-19T14:56:05Z</time>
      </trkpt>
      <trkpt lat="42.5954" lon="2.16438">
        <ele>1447.6</ele>
        <time>2025-07-19T14:56:08Z</time>
      </trkpt>
      <trkpt lat="42.59543" lon="2.16433">
        <ele>1448</ele>
        <time>2025-07-19T14:56:10Z</time>
      </trkpt>
      <trkpt lat="42.59552" lon="2.16419">
        <ele>1449</ele>
        <time>2025-07-19T14:56:17Z</time>
      </trkpt>
      <trkpt lat="42.59553" lon="2.16417">
        <ele>1449.2</ele>
        <time>2025-07-19T14:56:18Z</time>
      </trkpt>
      <trkpt lat="42.59562" lon="2.16401">
        <ele>1450.2</ele>
        <time>2025-07-19T14:56:25Z</time>
      </trkpt>
      <trkpt lat="42.59569" lon="2.16387">
        <ele>1451.2</ele>
        <time>2025-07-19T14:56:31Z</time>
      </trkpt>
      <trkpt lat="42.5957" lon="2.16384">
        <ele>1451.2</ele>
        <time>2025-07-19T14:56:32Z</time>
      </trkpt>
      <trkpt lat="42.59578" lon="2.16367">
        <ele>1452.2</ele>
        <time>2025-07-19T14:56:39Z</time>
      </trkpt>
      <trkpt lat="42.5958" lon="2.16363">
        <ele>1452.6</ele>
        <time>2025-07-19T14:56:41Z</time>
      </trkpt>
      <trkpt lat="42.59583" lon="2.16356">
        <ele>1453.4</ele>
        <time>2025-07-19T14:56:44Z</time>
      </trkpt>
      <trkpt lat="42.59589" lon="2.16341">
        <ele>1454.4</ele>
        <time>2025-07-19T14:56:51Z</time>
      </trkpt>
      <trkpt lat="42.59592" lon="2.16337">
        <ele>1454.8</ele>
        <time>2025-07-19T14:56:53Z</time>
      </trkpt>
      <trkpt lat="42.59597" lon="2.16326">
        <ele>1455.6</ele>
        <time>2025-07-19T14:56:58Z</time>
      </trkpt>
      <trkpt lat="42.59598" lon="2.16323">
        <ele>1455.8</ele>
        <time>2025-07-19T14:56:59Z</time>
      </trkpt>
      <trkpt lat="42.59601" lon="2.16317">
        <ele>1456</ele>
        <time>2025-07-19T14:57:02Z</time>
      </trkpt>
      <trkpt lat="42.59605" lon="2.16311">
        <ele>1456.6</ele>
        <time>2025-07-19T14:57:05Z</time>
      </trkpt>
      <trkpt lat="42.59611" lon="2.16298">
        <ele>1457.6</ele>
        <time>2025-07-19T14:57:11Z</time>
      </trkpt>
      <trkpt lat="42.5962" lon="2.16281">
        <ele>1458.6</ele>
        <time>2025-07-19T14:57:19Z</time>
      </trkpt>
      <trkpt lat="42.59627" lon="2.16269">
        <ele>1459.8</ele>
        <time>2025-07-19T14:57:25Z</time>
      </trkpt>
      <trkpt lat="42.59629" lon="2.16265">
        <ele>1460</ele>
        <time>2025-07-19T14:57:27Z</time>
      </trkpt>
      <trkpt lat="42.59632" lon="2.16258">
        <ele>1461</ele>
        <time>2025-07-19T14:57:30Z</time>
      </trkpt>
      <trkpt lat="42.59638" lon="2.16247">
        <ele>1462</ele>
        <time>2025-07-19T14:57:35Z</time>
      </trkpt>
      <trkpt lat="42.5964" lon="2.16242">
        <ele>1462.4</ele>
        <time>2025-07-19T14:57:37Z</time>
      </trkpt>
      <trkpt lat="42.59643" lon="2.16235">
        <ele>1463.2</ele>
        <time>2025-07-19T14:57:40Z</time>
      </trkpt>
      <trkpt lat="42.59646" lon="2.16224">
        <ele>1464.2</ele>
        <time>2025-07-19T14:57:45Z</time>
      </trkpt>
      <trkpt lat="42.59646" lon="2.16222">
        <ele>1464.4</ele>
        <time>2025-07-19T14:57:46Z</time>
      </trkpt>
      <trkpt lat="42.59648" lon="2.16215">
        <ele>1465.4</ele>
        <time>2025-07-19T14:57:49Z</time>
      </trkpt>
      <trkpt lat="42.5965" lon="2.16199">
        <ele>1466.4</ele>
        <time>2025-07-19T14:57:55Z</time>
      </trkpt>
      <trkpt lat="42.59652" lon="2.16187">
        <ele>1467.4</ele>
        <time>2025-07-19T14:58:00Z</time>
      </trkpt>
      <trkpt lat="42.59655" lon="2.16178">
        <ele>1468.8</ele>
        <time>2025-07-19T14:58:04Z</time>
      </trkpt>
      <trkpt lat="42.59659" lon="2.16167">
        <ele>1469.8</ele>
        <time>2025-07-19T14:58:09Z</time>
      </trkpt>
      <trkpt lat="42.59662" lon="2.16155">
        <ele>1471</ele>
        <time>2025-07-19T14:58:14Z</time>
      </trkpt>
      <trkpt lat="42.59669" lon="2.16136">
        <ele>1472</ele>
        <time>2025-07-19T14:58:22Z</time>
      </trkpt>
      <trkpt lat="42.5967" lon="2.16134">
        <ele>1472</ele>
        <time>2025-07-19T14:58:23Z</time>
      </trkpt>
      <trkpt lat="42.59673" lon="2.16127">
        <ele>1473</ele>
        <time>2025-07-19T14:58:26Z</time>
      </trkpt>
      <trkpt lat="42.59677" lon="2.16116">
        <ele>1474</ele>
        <time>2025-07-19T14:58:31Z</time>
      </trkpt>
      <trkpt lat="42.59678" lon="2.16111">
        <ele>1474.2</ele>
        <time>2025-07-19T14:58:33Z</time>
      </trkpt>
      <trkpt lat="42.59682" lon="2.16102">
        <ele>1475</ele>
        <time>2025-07-19T14:58:37Z</time>
      </trkpt>
      <trkpt lat="42.59684" lon="2.16094">
        <ele>1475.6</ele>
        <time>2025-07-19T14:58:40Z</time>
      </trkpt>
      <trkpt lat="42.59688" lon="2.16084">
        <ele>1476.2</ele>
        <time>2025-07-19T14:58:44Z</time>
      </trkpt>
      <trkpt lat="42.59695" lon="2.1607">
        <ele>1476.8</ele>
        <time>2025-07-19T14:58:50Z</time>
      </trkpt>
      <trkpt lat="42.59702" lon="2.16057">
        <ele>1477.2</ele>
        <time>2025-07-19T14:58:55Z</time>
      </trkpt>
      <trkpt lat="42.59708" lon="2.16044">
        <ele>1478</ele>
        <time>2025-07-19T14:59:00Z</time>
      </trkpt>
      <trkpt lat="42.59713" lon="2.16037">
        <ele>1478.2</ele>
        <time>2025-07-19T14:59:03Z</time>
      </trkpt>
      <trkpt lat="42.5972" lon="2.16026">
        <ele>1478.6</ele>
        <time>2025-07-19T14:59:08Z</time>
      </trkpt>
      <trkpt lat="42.59725" lon="2.16019">
        <ele>1479.2</ele>
        <time>2025-07-19T14:59:11Z</time>
      </trkpt>
      <trkpt lat="42.59735" lon="2.16006">
        <ele>1480</ele>
        <time>2025-07-19T14:59:17Z</time>
      </trkpt>
      <trkpt lat="42.59746" lon="2.15996">
        <ele>1480.2</ele>
        <time>2025-07-19T14:59:22Z</time>
      </trkpt>
      <trkpt lat="42.59757" lon="2.15989">
        <ele>1480.6</ele>
        <time>2025-07-19T14:59:26Z</time>
      </trkpt>
      <trkpt lat="42.59764" lon="2.15984">
        <ele>1480.8</ele>
        <time>2025-07-19T14:59:29Z</time>
      </trkpt>
      <trkpt lat="42.5978" lon="2.15972">
        <ele>1480.6</ele>
        <time>2025-07-19T14:59:35Z</time>
      </trkpt>
      <trkpt lat="42.59797" lon="2.15952">
        <ele>1481</ele>
        <time>2025-07-19T14:59:44Z</time>
      </trkpt>
      <trkpt lat="42.59804" lon="2.15942">
        <ele>1482.2</ele>
        <time>2025-07-19T14:59:49Z</time>
      </trkpt>
      <trkpt lat="42.59809" lon="2.15936">
        <ele>1482.8</ele>
        <time>2025-07-19T14:59:52Z</time>
      </trkpt>
      <trkpt lat="42.59813" lon="2.1593">
        <ele>1483.2</ele>
        <time>2025-07-19T14:59:55Z</time>
      </trkpt>
      <trkpt lat="42.59822" lon="2.15914">
        <ele>1484.2</ele>
        <time>2025-07-19T15:00:02Z</time>
      </trkpt>
      <trkpt lat="42.59823" lon="2.15912">
        <ele>1484.4</ele>
        <time>2025-07-19T15:00:03Z</time>
      </trkpt>
      <trkpt lat="42.59827" lon="2.15902">
        <ele>1485.6</ele>
        <time>2025-07-19T15:00:07Z</time>
      </trkpt>
      <trkpt lat="42.59834" lon="2.15887">
        <ele>1486</ele>
        <time>2025-07-19T15:00:13Z</time>
      </trkpt>
      <trkpt lat="42.59838" lon="2.15877">
        <ele>1486.6</ele>
        <time>2025-07-19T15:00:17Z</time>
      </trkpt>
      <trkpt lat="42.59843" lon="2.15867">
        <ele>1487.2</ele>
        <time>2025-07-19T15:00:21Z</time>
      </trkpt>
      <trkpt lat="42.59844" lon="2.15864">
        <ele>1487.6</ele>
        <time>2025-07-19T15:00:22Z</time>
      </trkpt>
      <trkpt lat="42.59849" lon="2.15852">
        <ele>1488.8</ele>
        <time>2025-07-19T15:00:27Z</time>
      </trkpt>
      <trkpt lat="42.59851" lon="2.15847">
        <ele>1489.2</ele>
        <time>2025-07-19T15:00:29Z</time>
      </trkpt>
      <trkpt lat="42.59855" lon="2.15837">
        <ele>1489.8</ele>
        <time>2025-07-19T15:00:33Z</time>
      </trkpt>
      <trkpt lat="42.59862" lon="2.15823">
        <ele>1490.4</ele>
        <time>2025-07-19T15:00:39Z</time>
      </trkpt>
      <trkpt lat="42.59867" lon="2.15813">
        <ele>1491</ele>
        <time>2025-07-19T15:00:43Z</time>
      </trkpt>
      <trkpt lat="42.59876" lon="2.15793">
        <ele>1491.8</ele>
        <time>2025-07-19T15:00:51Z</time>
      </trkpt>
      <trkpt lat="42.59877" lon="2.1579">
        <ele>1492</ele>
        <time>2025-07-19T15:00:52Z</time>
      </trkpt>
      <trkpt lat="42.59884" lon="2.15777">
        <ele>1493</ele>
        <time>2025-07-19T15:00:58Z</time>
      </trkpt>
      <trkpt lat="42.59886" lon="2.15774">
        <ele>1493.2</ele>
        <time>2025-07-19T15:00:59Z</time>
      </trkpt>
      <trkpt lat="42.59892" lon="2.15763">
        <ele>1494</ele>
        <time>2025-07-19T15:01:04Z</time>
      </trkpt>
      <trkpt lat="42.59895" lon="2.15756">
        <ele>1494.6</ele>
        <time>2025-07-19T15:01:07Z</time>
      </trkpt>
      <trkpt lat="42.59899" lon="2.15749">
        <ele>1495.2</ele>
        <time>2025-07-19T15:01:10Z</time>
      </trkpt>
      <trkpt lat="42.59903" lon="2.15739">
        <ele>1496</ele>
        <time>2025-07-19T15:01:15Z</time>
      </trkpt>
      <trkpt lat="42.59905" lon="2.15728">
        <ele>1497.4</ele>
        <time>2025-07-19T15:01:20Z</time>
      </trkpt>
      <trkpt lat="42.59908" lon="2.15719">
        <ele>1498.4</ele>
        <time>2025-07-19T15:01:24Z</time>
      </trkpt>
      <trkpt lat="42.59909" lon="2.15717">
        <ele>1498.6</ele>
        <time>2025-07-19T15:01:25Z</time>
      </trkpt>
      <trkpt lat="42.59914" lon="2.15704">
        <ele>1499.8</ele>
        <time>2025-07-19T15:01:30Z</time>
      </trkpt>
      <trkpt lat="42.59918" lon="2.15697">
        <ele>1500.2</ele>
        <time>2025-07-19T15:01:33Z</time>
      </trkpt>
      <trkpt lat="42.59921" lon="2.15692">
        <ele>1501</ele>
        <time>2025-07-19T15:01:35Z</time>
      </trkpt>
      <trkpt lat="42.59928" lon="2.15683">
        <ele>1502</ele>
        <time>2025-07-19T15:01:40Z</time>
      </trkpt>
      <trkpt lat="42.59931" lon="2.1568">
        <ele>1502.4</ele>
        <time>2025-07-19T15:01:42Z</time>
      </trkpt>
      <trkpt lat="42.59938" lon="2.15669">
        <ele>1503.2</ele>
        <time>2025-07-19T15:01:47Z</time>
      </trkpt>
      <trkpt lat="42.59946" lon="2.15659">
        <ele>1504</ele>
        <time>2025-07-19T15:01:52Z</time>
      </trkpt>
      <trkpt lat="42.59949" lon="2.15655">
        <ele>1504.2</ele>
        <time>2025-07-19T15:01:54Z</time>
      </trkpt>
      <trkpt lat="42.5996" lon="2.15637">
        <ele>1504.8</ele>
        <time>2025-07-19T15:02:01Z</time>
      </trkpt>
      <trkpt lat="42.59963" lon="2.15627">
        <ele>1505.2</ele>
        <time>2025-07-19T15:02:04Z</time>
      </trkpt>
      <trkpt lat="42.59965" lon="2.15621">
        <ele>1505.4</ele>
        <time>2025-07-19T15:02:06Z</time>
      </trkpt>
      <trkpt lat="42.59968" lon="2.15603">
        <ele>1506</ele>
        <time>2025-07-19T15:02:11Z</time>
      </trkpt>
      <trkpt lat="42.59972" lon="2.15583">
        <ele>1506.2</ele>
        <time>2025-07-19T15:02:16Z</time>
      </trkpt>
      <trkpt lat="42.59975" lon="2.15572">
        <ele>1506.2</ele>
        <time>2025-07-19T15:02:19Z</time>
      </trkpt>
      <trkpt lat="42.59983" lon="2.15543">
        <ele>1506.6</ele>
        <time>2025-07-19T15:02:27Z</time>
      </trkpt>
      <trkpt lat="42.59989" lon="2.15525">
        <ele>1507.2</ele>
        <time>2025-07-19T15:02:33Z</time>
      </trkpt>
      <trkpt lat="42.5999" lon="2.15522">
        <ele>1507.4</ele>
        <time>2025-07-19T15:02:34Z</time>
      </trkpt>
      <trkpt lat="42.59995" lon="2.15505">
        <ele>1508.4</ele>
        <time>2025-07-19T15:02:40Z</time>
      </trkpt>
      <trkpt lat="42.59997" lon="2.15494">
        <ele>1509.2</ele>
        <time>2025-07-19T15:02:44Z</time>
      </trkpt>
      <trkpt lat="42.59998" lon="2.15491">
        <ele>1509.6</ele>
        <time>2025-07-19T15:02:45Z</time>
      </trkpt>
      <trkpt lat="42.60002" lon="2.15469">
        <ele>1510.8</ele>
        <time>2025-07-19T15:02:52Z</time>
      </trkpt>
      <trkpt lat="42.60003" lon="2.15466">
        <ele>1511</ele>
        <time>2025-07-19T15:02:53Z</time>
      </trkpt>
      <trkpt lat="42.60006" lon="2.15446">
        <ele>1511.8</ele>
        <time>2025-07-19T15:02:59Z</time>
      </trkpt>
      <trkpt lat="42.60006" lon="2.15439">
        <ele>1512</ele>
        <time>2025-07-19T15:03:01Z</time>
      </trkpt>
      <trkpt lat="42.60012" lon="2.15414">
        <ele>1512.8</ele>
        <time>2025-07-19T15:03:09Z</time>
      </trkpt>
      <trkpt lat="42.60012" lon="2.15411">
        <ele>1513</ele>
        <time>2025-07-19T15:03:10Z</time>
      </trkpt>
      <trkpt lat="42.60017" lon="2.15394">
        <ele>1514</ele>
        <time>2025-07-19T15:03:16Z</time>
      </trkpt>
      <trkpt lat="42.60018" lon="2.1539">
        <ele>1514.2</ele>
        <time>2025-07-19T15:03:18Z</time>
      </trkpt>
      <trkpt lat="42.6002" lon="2.15384">
        <ele>1515</ele>
        <time>2025-07-19T15:03:21Z</time>
      </trkpt>
      <trkpt lat="42.60023" lon="2.15378">
        <ele>1516</ele>
        <time>2025-07-19T15:03:24Z</time>
      </trkpt>
      <trkpt lat="42.60024" lon="2.15376">
        <ele>1516</ele>
        <time>2025-07-19T15:03:25Z</time>
      </trkpt>
      <trkpt lat="42.60027" lon="2.15366">
        <ele>1517.2</ele>
        <time>2025-07-19T15:03:30Z</time>
      </trkpt>
      <trkpt lat="42.60028" lon="2.15362">
        <ele>1517.6</ele>
        <time>2025-07-19T15:03:32Z</time>
      </trkpt>
      <trkpt lat="42.60029" lon="2.15357">
        <ele>1518.2</ele>
        <time>2025-07-19T15:03:34Z</time>
      </trkpt>
      <trkpt lat="42.60032" lon="2.15345">
        <ele>1519.4</ele>
        <time>2025-07-19T15:03:39Z</time>
      </trkpt>
      <trkpt lat="42.60032" lon="2.15342">
        <ele>1519.6</ele>
        <time>2025-07-19T15:03:40Z</time>
      </trkpt>
      <trkpt lat="42.60036" lon="2.1533">
        <ele>1520.6</ele>
        <time>2025-07-19T15:03:44Z</time>
      </trkpt>
      <trkpt lat="42.60039" lon="2.15322">
        <ele>1521.2</ele>
        <time>2025-07-19T15:03:47Z</time>
      </trkpt>
      <trkpt lat="42.6004" lon="2.15316">
        <ele>1521.6</ele>
        <time>2025-07-19T15:03:49Z</time>
      </trkpt>
      <trkpt lat="42.60044" lon="2.15303">
        <ele>1522.8</ele>
        <time>2025-07-19T15:03:54Z</time>
      </trkpt>
      <trkpt lat="42.60047" lon="2.15296">
        <ele>1523.2</ele>
        <time>2025-07-19T15:03:57Z</time>
      </trkpt>
      <trkpt lat="42.60049" lon="2.15289">
        <ele>1524</ele>
        <time>2025-07-19T15:04:00Z</time>
      </trkpt>
      <trkpt lat="42.60053" lon="2.15279">
        <ele>1525.2</ele>
        <time>2025-07-19T15:04:05Z</time>
      </trkpt>
      <trkpt lat="42.60054" lon="2.15274">
        <ele>1525.4</ele>
        <time>2025-07-19T15:04:06Z</time>
      </trkpt>
      <trkpt lat="42.60056" lon="2.15264">
        <ele>1526.4</ele>
        <time>2025-07-19T15:04:10Z</time>
      </trkpt>
      <trkpt lat="42.60061" lon="2.1525">
        <ele>1527.4</ele>
        <time>2025-07-19T15:04:16Z</time>
      </trkpt>
      <trkpt lat="42.60062" lon="2.15247">
        <ele>1527.6</ele>
        <time>2025-07-19T15:04:17Z</time>
      </trkpt>
      <trkpt lat="42.60065" lon="2.1524">
        <ele>1528.2</ele>
        <time>2025-07-19T15:04:20Z</time>
      </trkpt>
      <trkpt lat="42.60069" lon="2.15226">
        <ele>1529.4</ele>
        <time>2025-07-19T15:04:26Z</time>
      </trkpt>
      <trkpt lat="42.60071" lon="2.15222">
        <ele>1529.8</ele>
        <time>2025-07-19T15:04:28Z</time>
      </trkpt>
      <trkpt lat="42.60074" lon="2.15213">
        <ele>1530.6</ele>
        <time>2025-07-19T15:04:32Z</time>
      </trkpt>
      <trkpt lat="42.60078" lon="2.15199">
        <ele>1531.6</ele>
        <time>2025-07-19T15:04:38Z</time>
      </trkpt>
      <trkpt lat="42.60079" lon="2.15197">
        <ele>1531.8</ele>
        <time>2025-07-19T15:04:39Z</time>
      </trkpt>
      <trkpt lat="42.60082" lon="2.15179">
        <ele>1532.8</ele>
        <time>2025-07-19T15:04:46Z</time>
      </trkpt>
      <trkpt lat="42.60085" lon="2.15163">
        <ele>1533.6</ele>
        <time>2025-07-19T15:04:52Z</time>
      </trkpt>
      <trkpt lat="42.60086" lon="2.15158">
        <ele>1534.2</ele>
        <time>2025-07-19T15:04:54Z</time>
      </trkpt>
      <trkpt lat="42.60088" lon="2.1515">
        <ele>1534.8</ele>
        <time>2025-07-19T15:04:57Z</time>
      </trkpt>
      <trkpt lat="42.60094" lon="2.15133">
        <ele>1536</ele>
        <time>2025-07-19T15:05:04Z</time>
      </trkpt>
      <trkpt lat="42.60098" lon="2.15117">
        <ele>1537</ele>
        <time>2025-07-19T15:05:10Z</time>
      </trkpt>
      <trkpt lat="42.60099" lon="2.15114">
        <ele>1537</ele>
        <time>2025-07-19T15:05:11Z</time>
      </trkpt>
      <trkpt lat="42.60104" lon="2.15097">
        <ele>1538.2</ele>
        <time>2025-07-19T15:05:18Z</time>
      </trkpt>
      <trkpt lat="42.60108" lon="2.15084">
        <ele>1539.4</ele>
        <time>2025-07-19T15:05:23Z</time>
      </trkpt>
      <trkpt lat="42.60109" lon="2.15078">
        <ele>1539.6</ele>
        <time>2025-07-19T15:05:25Z</time>
      </trkpt>
      <trkpt lat="42.6011" lon="2.15071">
        <ele>1540.6</ele>
        <time>2025-07-19T15:05:28Z</time>
      </trkpt>
      <trkpt lat="42.60115" lon="2.15059">
        <ele>1541.6</ele>
        <time>2025-07-19T15:05:33Z</time>
      </trkpt>
      <trkpt lat="42.60116" lon="2.15056">
        <ele>1541.8</ele>
        <time>2025-07-19T15:05:34Z</time>
      </trkpt>
      <trkpt lat="42.60118" lon="2.15047">
        <ele>1542.6</ele>
        <time>2025-07-19T15:05:38Z</time>
      </trkpt>
      <trkpt lat="42.6012" lon="2.15033">
        <ele>1543.6</ele>
        <time>2025-07-19T15:05:44Z</time>
      </trkpt>
      <trkpt lat="42.60121" lon="2.15031">
        <ele>1543.8</ele>
        <time>2025-07-19T15:05:45Z</time>
      </trkpt>
      <trkpt lat="42.60122" lon="2.15028">
        <ele>1544.4</ele>
        <time>2025-07-19T15:05:47Z</time>
      </trkpt>
      <trkpt lat="42.60122" lon="2.15023">
        <ele>1544.8</ele>
        <time>2025-07-19T15:05:49Z</time>
      </trkpt>
      <trkpt lat="42.60123" lon="2.15018">
        <ele>1545.4</ele>
        <time>2025-07-19T15:05:51Z</time>
      </trkpt>
      <trkpt lat="42.60124" lon="2.15013">
        <ele>1546</ele>
        <time>2025-07-19T15:05:53Z</time>
      </trkpt>
      <trkpt lat="42.60128" lon="2.15003">
        <ele>1547</ele>
        <time>2025-07-19T15:05:57Z</time>
      </trkpt>
      <trkpt lat="42.60129" lon="2.15">
        <ele>1547.4</ele>
        <time>2025-07-19T15:05:58Z</time>
      </trkpt>
      <trkpt lat="42.60131" lon="2.14995">
        <ele>1547.8</ele>
        <time>2025-07-19T15:06:00Z</time>
      </trkpt>
      <trkpt lat="42.60132" lon="2.14992">
        <ele>1548</ele>
        <time>2025-07-19T15:06:01Z</time>
      </trkpt>
      <trkpt lat="42.60133" lon="2.14988">
        <ele>1548.8</ele>
        <time>2025-07-19T15:06:03Z</time>
      </trkpt>
      <trkpt lat="42.60135" lon="2.14982">
        <ele>1549.2</ele>
        <time>2025-07-19T15:06:06Z</time>
      </trkpt>
      <trkpt lat="42.60137" lon="2.14972">
        <ele>1550.4</ele>
        <time>2025-07-19T15:06:10Z</time>
      </trkpt>
      <trkpt lat="42.6014" lon="2.14959">
        <ele>1551.2</ele>
        <time>2025-07-19T15:06:16Z</time>
      </trkpt>
      <trkpt lat="42.6014" lon="2.14956">
        <ele>1551.6</ele>
        <time>2025-07-19T15:06:17Z</time>
      </trkpt>
      <trkpt lat="42.60143" lon="2.14944">
        <ele>1552.4</ele>
        <time>2025-07-19T15:06:22Z</time>
      </trkpt>
      <trkpt lat="42.60144" lon="2.14939">
        <ele>1552.8</ele>
        <time>2025-07-19T15:06:24Z</time>
      </trkpt>
      <trkpt lat="42.60147" lon="2.1493">
        <ele>1553.6</ele>
        <time>2025-07-19T15:06:28Z</time>
      </trkpt>
      <trkpt lat="42.60149" lon="2.14922">
        <ele>1554.2</ele>
        <time>2025-07-19T15:06:31Z</time>
      </trkpt>
      <trkpt lat="42.6015" lon="2.14912">
        <ele>1554.6</ele>
        <time>2025-07-19T15:06:35Z</time>
      </trkpt>
      <trkpt lat="42.60152" lon="2.14898">
        <ele>1555.4</ele>
        <time>2025-07-19T15:06:40Z</time>
      </trkpt>
      <trkpt lat="42.60152" lon="2.14896">
        <ele>1555.6</ele>
        <time>2025-07-19T15:06:41Z</time>
      </trkpt>
      <trkpt lat="42.60156" lon="2.14877">
        <ele>1556.6</ele>
        <time>2025-07-19T15:06:48Z</time>
      </trkpt>
      <trkpt lat="42.60158" lon="2.14869">
        <ele>1557.2</ele>
        <time>2025-07-19T15:06:51Z</time>
      </trkpt>
      <trkpt lat="42.60162" lon="2.14858">
        <ele>1557.6</ele>
        <time>2025-07-19T15:06:55Z</time>
      </trkpt>
      <trkpt lat="42.60167" lon="2.14842">
        <ele>1558.4</ele>
        <time>2025-07-19T15:07:01Z</time>
      </trkpt>
      <trkpt lat="42.60168" lon="2.14837">
        <ele>1558.8</ele>
        <time>2025-07-19T15:07:03Z</time>
      </trkpt>
      <trkpt lat="42.60171" lon="2.14824">
        <ele>1559.8</ele>
        <time>2025-07-19T15:07:08Z</time>
      </trkpt>
      <trkpt lat="42.60173" lon="2.14819">
        <ele>1560.2</ele>
        <time>2025-07-19T15:07:10Z</time>
      </trkpt>
      <trkpt lat="42.60178" lon="2.14812">
        <ele>1561</ele>
        <time>2025-07-19T15:07:14Z</time>
      </trkpt>
      <trkpt lat="42.60182" lon="2.14803">
        <ele>1561.6</ele>
        <time>2025-07-19T15:07:18Z</time>
      </trkpt>
      <trkpt lat="42.60183" lon="2.14797">
        <ele>1561.8</ele>
        <time>2025-07-19T15:07:20Z</time>
      </trkpt>
      <trkpt lat="42.60187" lon="2.14786">
        <ele>1563</ele>
        <time>2025-07-19T15:07:24Z</time>
      </trkpt>
      <trkpt lat="42.60189" lon="2.14781">
        <ele>1563.2</ele>
        <time>2025-07-19T15:07:26Z</time>
      </trkpt>
      <trkpt lat="42.60192" lon="2.14769">
        <ele>1564</ele>
        <time>2025-07-19T15:07:30Z</time>
      </trkpt>
      <trkpt lat="42.60196" lon="2.14749">
        <ele>1564.6</ele>
        <time>2025-07-19T15:07:37Z</time>
      </trkpt>
      <trkpt lat="42.60199" lon="2.1474">
        <ele>1564.8</ele>
        <time>2025-07-19T15:07:40Z</time>
      </trkpt>
      <trkpt lat="42.60202" lon="2.14728">
        <ele>1565.4</ele>
        <time>2025-07-19T15:07:44Z</time>
      </trkpt>
      <trkpt lat="42.60206" lon="2.14709">
        <ele>1566</ele>
        <time>2025-07-19T15:07:50Z</time>
      </trkpt>
      <trkpt lat="42.60207" lon="2.14703">
        <ele>1566.2</ele>
        <time>2025-07-19T15:07:52Z</time>
      </trkpt>
      <trkpt lat="42.6021" lon="2.14678">
        <ele>1567</ele>
        <time>2025-07-19T15:08:00Z</time>
      </trkpt>
      <trkpt lat="42.60211" lon="2.14666">
        <ele>1568</ele>
        <time>2025-07-19T15:08:04Z</time>
      </trkpt>
      <trkpt lat="42.60212" lon="2.14661">
        <ele>1568.4</ele>
        <time>2025-07-19T15:08:06Z</time>
      </trkpt>
      <trkpt lat="42.60215" lon="2.14643">
        <ele>1569.2</ele>
        <time>2025-07-19T15:08:12Z</time>
      </trkpt>
      <trkpt lat="42.60218" lon="2.14636">
        <ele>1569.8</ele>
        <time>2025-07-19T15:08:15Z</time>
      </trkpt>
      <trkpt lat="42.6022" lon="2.14627">
        <ele>1570.4</ele>
        <time>2025-07-19T15:08:18Z</time>
      </trkpt>
      <trkpt lat="42.60225" lon="2.14615">
        <ele>1571</ele>
        <time>2025-07-19T15:08:23Z</time>
      </trkpt>
      <trkpt lat="42.60228" lon="2.1461">
        <ele>1571.2</ele>
        <time>2025-07-19T15:08:25Z</time>
      </trkpt>
      <trkpt lat="42.6023" lon="2.14603">
        <ele>1571.6</ele>
        <time>2025-07-19T15:08:28Z</time>
      </trkpt>
      <trkpt lat="42.60233" lon="2.14591">
        <ele>1572.4</ele>
        <time>2025-07-19T15:08:32Z</time>
      </trkpt>
      <trkpt lat="42.60233" lon="2.14585">
        <ele>1573</ele>
        <time>2025-07-19T15:08:34Z</time>
      </trkpt>
      <trkpt lat="42.60232" lon="2.1458">
        <ele>1573.4</ele>
        <time>2025-07-19T15:08:36Z</time>
      </trkpt>
      <trkpt lat="42.60229" lon="2.14565">
        <ele>1574.4</ele>
        <time>2025-07-19T15:08:41Z</time>
      </trkpt>
      <trkpt lat="42.60223" lon="2.14546">
        <ele>1575.4</ele>
        <time>2025-07-19T15:08:48Z</time>
      </trkpt>
      <trkpt lat="42.60212" lon="2.14527">
        <ele>1576.4</ele>
        <time>2025-07-19T15:08:56Z</time>
      </trkpt>
      <trkpt lat="42.60204" lon="2.14515">
        <ele>1577</ele>
        <time>2025-07-19T15:09:01Z</time>
      </trkpt>
      <trkpt lat="42.60196" lon="2.14502">
        <ele>1577.6</ele>
        <time>2025-07-19T15:09:07Z</time>
      </trkpt>
      <trkpt lat="42.60198" lon="2.14488">
        <ele>1578.6</ele>
        <time>2025-07-19T15:09:12Z</time>
      </trkpt>
      <trkpt lat="42.60207" lon="2.14481">
        <ele>1579.6</ele>
        <time>2025-07-19T15:09:17Z</time>
      </trkpt>
      <trkpt lat="42.60215" lon="2.14481">
        <ele>1580.6</ele>
        <time>2025-07-19T15:09:22Z</time>
      </trkpt>
      <trkpt lat="42.60219" lon="2.14481">
        <ele>1580.6</ele>
        <time>2025-07-19T15:09:23Z</time>
      </trkpt>
      <trkpt lat="42.60231" lon="2.14486">
        <ele>1581.6</ele>
        <time>2025-07-19T15:09:29Z</time>
      </trkpt>
      <trkpt lat="42.60233" lon="2.14486">
        <ele>1581.8</ele>
        <time>2025-07-19T15:09:30Z</time>
      </trkpt>
      <trkpt lat="42.60243" lon="2.14487">
        <ele>1582.8</ele>
        <time>2025-07-19T15:09:35Z</time>
      </trkpt>
      <trkpt lat="42.60247" lon="2.14488">
        <ele>1583.2</ele>
        <time>2025-07-19T15:09:37Z</time>
      </trkpt>
      <trkpt lat="42.60251" lon="2.14489">
        <ele>1584</ele>
        <time>2025-07-19T15:09:39Z</time>
      </trkpt>
      <trkpt lat="42.60262" lon="2.1449">
        <ele>1585</ele>
        <time>2025-07-19T15:09:44Z</time>
      </trkpt>
      <trkpt lat="42.60263" lon="2.1449">
        <ele>1585.2</ele>
        <time>2025-07-19T15:09:45Z</time>
      </trkpt>
      <trkpt lat="42.60275" lon="2.14496">
        <ele>1586.2</ele>
        <time>2025-07-19T15:09:51Z</time>
      </trkpt>
      <trkpt lat="42.60277" lon="2.14497">
        <ele>1586.4</ele>
        <time>2025-07-19T15:09:52Z</time>
      </trkpt>
      <trkpt lat="42.60284" lon="2.14503">
        <ele>1587.4</ele>
        <time>2025-07-19T15:09:56Z</time>
      </trkpt>
      <trkpt lat="42.60287" lon="2.14506">
        <ele>1587.6</ele>
        <time>2025-07-19T15:09:58Z</time>
      </trkpt>
      <trkpt lat="42.60288" lon="2.14509">
        <ele>1588</ele>
        <time>2025-07-19T15:09:59Z</time>
      </trkpt>
      <trkpt lat="42.6029" lon="2.14514">
        <ele>1588.2</ele>
        <time>2025-07-19T15:10:01Z</time>
      </trkpt>
      <trkpt lat="42.60297" lon="2.14524">
        <ele>1589.4</ele>
        <time>2025-07-19T15:10:06Z</time>
      </trkpt>
      <trkpt lat="42.60304" lon="2.1454">
        <ele>1590.6</ele>
        <time>2025-07-19T15:10:13Z</time>
      </trkpt>
      <trkpt lat="42.60311" lon="2.14547">
        <ele>1591.8</ele>
        <time>2025-07-19T15:10:18Z</time>
      </trkpt>
      <trkpt lat="42.60317" lon="2.14554">
        <ele>1592.8</ele>
        <time>2025-07-19T15:10:22Z</time>
      </trkpt>
      <trkpt lat="42.60319" lon="2.14555">
        <ele>1593</ele>
        <time>2025-07-19T15:10:23Z</time>
      </trkpt>
      <trkpt lat="42.60324" lon="2.1456">
        <ele>1593.8</ele>
        <time>2025-07-19T15:10:27Z</time>
      </trkpt>
      <trkpt lat="42.60326" lon="2.14564">
        <ele>1594.6</ele>
        <time>2025-07-19T15:10:29Z</time>
      </trkpt>
      <trkpt lat="42.60327" lon="2.14565">
        <ele>1595</ele>
        <time>2025-07-19T15:10:30Z</time>
      </trkpt>
      <trkpt lat="42.60335" lon="2.14575">
        <ele>1596</ele>
        <time>2025-07-19T15:10:36Z</time>
      </trkpt>
      <trkpt lat="42.60343" lon="2.14585">
        <ele>1597.2</ele>
        <time>2025-07-19T15:10:43Z</time>
      </trkpt>
      <trkpt lat="42.60346" lon="2.14589">
        <ele>1597.6</ele>
        <time>2025-07-19T15:10:45Z</time>
      </trkpt>
      <trkpt lat="42.60349" lon="2.14595">
        <ele>1598.2</ele>
        <time>2025-07-19T15:10:48Z</time>
      </trkpt>
      <trkpt lat="42.60359" lon="2.14608">
        <ele>1599.2</ele>
        <time>2025-07-19T15:10:55Z</time>
      </trkpt>
      <trkpt lat="42.60368" lon="2.14619">
        <ele>1600.4</ele>
        <time>2025-07-19T15:11:01Z</time>
      </trkpt>
      <trkpt lat="42.60377" lon="2.14632">
        <ele>1601.4</ele>
        <time>2025-07-19T15:11:08Z</time>
      </trkpt>
      <trkpt lat="42.6038" lon="2.14635">
        <ele>1601.8</ele>
        <time>2025-07-19T15:11:10Z</time>
      </trkpt>
      <trkpt lat="42.60385" lon="2.14641">
        <ele>1602.6</ele>
        <time>2025-07-19T15:11:14Z</time>
      </trkpt>
      <trkpt lat="42.60392" lon="2.1465">
        <ele>1603.4</ele>
        <time>2025-07-19T15:11:19Z</time>
      </trkpt>
      <trkpt lat="42.60394" lon="2.14651">
        <ele>1603.6</ele>
        <time>2025-07-19T15:11:20Z</time>
      </trkpt>
      <trkpt lat="42.60403" lon="2.14662">
        <ele>1604.8</ele>
        <time>2025-07-19T15:11:26Z</time>
      </trkpt>
      <trkpt lat="42.60405" lon="2.14664">
        <ele>1604.8</ele>
        <time>2025-07-19T15:11:27Z</time>
      </trkpt>
      <trkpt lat="42.60417" lon="2.14673">
        <ele>1605.8</ele>
        <time>2025-07-19T15:11:34Z</time>
      </trkpt>
      <trkpt lat="42.60419" lon="2.14673">
        <ele>1606</ele>
        <time>2025-07-19T15:11:35Z</time>
      </trkpt>
      <trkpt lat="42.60422" lon="2.14671">
        <ele>1606</ele>
        <time>2025-07-19T15:11:37Z</time>
      </trkpt>
      <trkpt lat="42.60423" lon="2.14665">
        <ele>1606.4</ele>
        <time>2025-07-19T15:11:39Z</time>
      </trkpt>
      <trkpt lat="42.60421" lon="2.1466">
        <ele>1606.8</ele>
        <time>2025-07-19T15:11:41Z</time>
      </trkpt>
      <trkpt lat="42.60416" lon="2.14651">
        <ele>1607.8</ele>
        <time>2025-07-19T15:11:45Z</time>
      </trkpt>
      <trkpt lat="42.60415" lon="2.14648">
        <ele>1608.2</ele>
        <time>2025-07-19T15:11:46Z</time>
      </trkpt>
      <trkpt lat="42.60409" lon="2.14637">
        <ele>1609.2</ele>
        <time>2025-07-19T15:11:51Z</time>
      </trkpt>
      <trkpt lat="42.60408" lon="2.14635">
        <ele>1609.4</ele>
        <time>2025-07-19T15:11:52Z</time>
      </trkpt>
      <trkpt lat="42.60402" lon="2.1462">
        <ele>1610</ele>
        <time>2025-07-19T15:11:58Z</time>
      </trkpt>
      <trkpt lat="42.60401" lon="2.14617">
        <ele>1610.2</ele>
        <time>2025-07-19T15:11:59Z</time>
      </trkpt>
      <trkpt lat="42.60392" lon="2.14594">
        <ele>1611</ele>
        <time>2025-07-19T15:12:08Z</time>
      </trkpt>
      <trkpt lat="42.60389" lon="2.14588">
        <ele>1611.2</ele>
        <time>2025-07-19T15:12:10Z</time>
      </trkpt>
      <trkpt lat="42.60382" lon="2.14571">
        <ele>1611.6</ele>
        <time>2025-07-19T15:12:16Z</time>
      </trkpt>
      <trkpt lat="42.60373" lon="2.14547">
        <ele>1612</ele>
        <time>2025-07-19T15:12:23Z</time>
      </trkpt>
      <trkpt lat="42.60369" lon="2.14538">
        <ele>1612.2</ele>
        <time>2025-07-19T15:12:26Z</time>
      </trkpt>
      <trkpt lat="42.60365" lon="2.14526">
        <ele>1612.6</ele>
        <time>2025-07-19T15:12:30Z</time>
      </trkpt>
      <trkpt lat="42.60358" lon="2.14512">
        <ele>1613.2</ele>
        <time>2025-07-19T15:12:35Z</time>
      </trkpt>
      <trkpt lat="42.60353" lon="2.14497">
        <ele>1613.6</ele>
        <time>2025-07-19T15:12:40Z</time>
      </trkpt>
      <trkpt lat="42.60349" lon="2.14486">
        <ele>1614</ele>
        <time>2025-07-19T15:12:44Z</time>
      </trkpt>
      <trkpt lat="42.60345" lon="2.14474">
        <ele>1614.6</ele>
        <time>2025-07-19T15:12:48Z</time>
      </trkpt>
      <trkpt lat="42.60341" lon="2.14466">
        <ele>1615</ele>
        <time>2025-07-19T15:12:51Z</time>
      </trkpt>
      <trkpt lat="42.60336" lon="2.14452">
        <ele>1616</ele>
        <time>2025-07-19T15:12:56Z</time>
      </trkpt>
      <trkpt lat="42.60335" lon="2.14449">
        <ele>1616.2</ele>
        <time>2025-07-19T15:12:57Z</time>
      </trkpt>
      <trkpt lat="42.60326" lon="2.14429">
        <ele>1617.2</ele>
        <time>2025-07-19T15:13:04Z</time>
      </trkpt>
      <trkpt lat="42.60325" lon="2.14423">
        <ele>1617.6</ele>
        <time>2025-07-19T15:13:06Z</time>
      </trkpt>
      <trkpt lat="42.6032" lon="2.14409">
        <ele>1618.4</ele>
        <time>2025-07-19T15:13:11Z</time>
      </trkpt>
      <trkpt lat="42.60314" lon="2.14399">
        <ele>1619.2</ele>
        <time>2025-07-19T15:13:15Z</time>
      </trkpt>
      <trkpt lat="42.60313" lon="2.14396">
        <ele>1619.6</ele>
        <time>2025-07-19T15:13:16Z</time>
      </trkpt>
      <trkpt lat="42.60308" lon="2.14381">
        <ele>1620.4</ele>
        <time>2025-07-19T15:13:21Z</time>
      </trkpt>
      <trkpt lat="42.603" lon="2.14357">
        <ele>1621.6</ele>
        <time>2025-07-19T15:13:29Z</time>
      </trkpt>
      <trkpt lat="42.60299" lon="2.14354">
        <ele>1621.6</ele>
        <time>2025-07-19T15:13:30Z</time>
      </trkpt>
      <trkpt lat="42.60293" lon="2.14337">
        <ele>1622.6</ele>
        <time>2025-07-19T15:13:36Z</time>
      </trkpt>
      <trkpt lat="42.60291" lon="2.14328">
        <ele>1623.2</ele>
        <time>2025-07-19T15:13:39Z</time>
      </trkpt>
      <trkpt lat="42.6029" lon="2.14316">
        <ele>1623.8</ele>
        <time>2025-07-19T15:13:43Z</time>
      </trkpt>
      <trkpt lat="42.60286" lon="2.14299">
        <ele>1624.6</ele>
        <time>2025-07-19T15:13:49Z</time>
      </trkpt>
      <trkpt lat="42.60282" lon="2.14278">
        <ele>1625.8</ele>
        <time>2025-07-19T15:13:57Z</time>
      </trkpt>
      <trkpt lat="42.6028" lon="2.1427">
        <ele>1626.4</ele>
        <time>2025-07-19T15:14:00Z</time>
      </trkpt>
      <trkpt lat="42.60278" lon="2.14261">
        <ele>1627</ele>
        <time>2025-07-19T15:14:03Z</time>
      </trkpt>
      <trkpt lat="42.60274" lon="2.14246">
        <ele>1628</ele>
        <time>2025-07-19T15:14:08Z</time>
      </trkpt>
      <trkpt lat="42.60272" lon="2.14235">
        <ele>1628.8</ele>
        <time>2025-07-19T15:14:12Z</time>
      </trkpt>
      <trkpt lat="42.60271" lon="2.14228">
        <ele>1629</ele>
        <time>2025-07-19T15:14:14Z</time>
      </trkpt>
      <trkpt lat="42.60268" lon="2.14214">
        <ele>1629.6</ele>
        <time>2025-07-19T15:14:19Z</time>
      </trkpt>
      <trkpt lat="42.60267" lon="2.14202">
        <ele>1630.2</ele>
        <time>2025-07-19T15:14:23Z</time>
      </trkpt>
      <trkpt lat="42.60265" lon="2.14192">
        <ele>1630.8</ele>
        <time>2025-07-19T15:14:27Z</time>
      </trkpt>
      <trkpt lat="42.60263" lon="2.14187">
        <ele>1631</ele>
        <time>2025-07-19T15:14:29Z</time>
      </trkpt>
      <trkpt lat="42.60261" lon="2.14174">
        <ele>1631.8</ele>
        <time>2025-07-19T15:14:34Z</time>
      </trkpt>
      <trkpt lat="42.60261" lon="2.14168">
        <ele>1632.2</ele>
        <time>2025-07-19T15:14:36Z</time>
      </trkpt>
      <trkpt lat="42.60261" lon="2.14165">
        <ele>1632.2</ele>
        <time>2025-07-19T15:14:37Z</time>
      </trkpt>
      <trkpt lat="42.60259" lon="2.14159">
        <ele>1632.8</ele>
        <time>2025-07-19T15:14:39Z</time>
      </trkpt>
      <trkpt lat="42.60259" lon="2.14152">
        <ele>1633.2</ele>
        <time>2025-07-19T15:14:42Z</time>
      </trkpt>
      <trkpt lat="42.60258" lon="2.14145">
        <ele>1633.8</ele>
        <time>2025-07-19T15:14:45Z</time>
      </trkpt>
      <trkpt lat="42.60255" lon="2.14136">
        <ele>1634.4</ele>
        <time>2025-07-19T15:14:48Z</time>
      </trkpt>
      <trkpt lat="42.60253" lon="2.14124">
        <ele>1634.8</ele>
        <time>2025-07-19T15:14:51Z</time>
      </trkpt>
      <trkpt lat="42.60253" lon="2.14115">
        <ele>1635.2</ele>
        <time>2025-07-19T15:14:54Z</time>
      </trkpt>
      <trkpt lat="42.60252" lon="2.14113">
        <ele>1635.4</ele>
        <time>2025-07-19T15:14:55Z</time>
      </trkpt>
      <trkpt lat="42.60245" lon="2.14089">
        <ele>1636.6</ele>
        <time>2025-07-19T15:15:02Z</time>
      </trkpt>
      <trkpt lat="42.60243" lon="2.14071">
        <ele>1637.6</ele>
        <time>2025-07-19T15:15:08Z</time>
      </trkpt>
      <trkpt lat="42.60243" lon="2.14068">
        <ele>1637.6</ele>
        <time>2025-07-19T15:15:09Z</time>
      </trkpt>
      <trkpt lat="42.60245" lon="2.14048">
        <ele>1638.4</ele>
        <time>2025-07-19T15:15:15Z</time>
      </trkpt>
      <trkpt lat="42.60246" lon="2.14041">
        <ele>1638.8</ele>
        <time>2025-07-19T15:15:17Z</time>
      </trkpt>
      <trkpt lat="42.60249" lon="2.14028">
        <ele>1639.4</ele>
        <time>2025-07-19T15:15:21Z</time>
      </trkpt>
      <trkpt lat="42.60252" lon="2.14015">
        <ele>1640.2</ele>
        <time>2025-07-19T15:15:25Z</time>
      </trkpt>
      <trkpt lat="42.60253" lon="2.14008">
        <ele>1640.6</ele>
        <time>2025-07-19T15:15:27Z</time>
      </trkpt>
      <trkpt lat="42.60257" lon="2.13995">
        <ele>1641.2</ele>
        <time>2025-07-19T15:15:31Z</time>
      </trkpt>
      <trkpt lat="42.6026" lon="2.13984">
        <ele>1641.8</ele>
        <time>2025-07-19T15:15:34Z</time>
      </trkpt>
      <trkpt lat="42.60267" lon="2.13964">
        <ele>1642.8</ele>
        <time>2025-07-19T15:15:41Z</time>
      </trkpt>
      <trkpt lat="42.6027" lon="2.13947">
        <ele>1643.4</ele>
        <time>2025-07-19T15:15:46Z</time>
      </trkpt>
      <trkpt lat="42.60272" lon="2.13937">
        <ele>1643.8</ele>
        <time>2025-07-19T15:15:49Z</time>
      </trkpt>
      <trkpt lat="42.60275" lon="2.13919">
        <ele>1644.8</ele>
        <time>2025-07-19T15:15:54Z</time>
      </trkpt>
      <trkpt lat="42.60275" lon="2.13916">
        <ele>1645</ele>
        <time>2025-07-19T15:15:55Z</time>
      </trkpt>
      <trkpt lat="42.60277" lon="2.13893">
        <ele>1645.6</ele>
        <time>2025-07-19T15:16:01Z</time>
      </trkpt>
      <trkpt lat="42.60276" lon="2.13889">
        <ele>1645.8</ele>
        <time>2025-07-19T15:16:02Z</time>
      </trkpt>
      <trkpt lat="42.60278" lon="2.13867">
        <ele>1646.2</ele>
        <time>2025-07-19T15:16:08Z</time>
      </trkpt>
      <trkpt lat="42.60279" lon="2.13845">
        <ele>1646.6</ele>
        <time>2025-07-19T15:16:14Z</time>
      </trkpt>
      <trkpt lat="42.60282" lon="2.13833">
        <ele>1646.6</ele>
        <time>2025-07-19T15:16:19Z</time>
      </trkpt>
      <trkpt lat="42.60281" lon="2.13821">
        <ele>1646.6</ele>
        <time>2025-07-19T15:16:25Z</time>
      </trkpt>
      <trkpt lat="42.60281" lon="2.13821">
        <ele>1646.4</ele>
        <time>2025-07-19T15:16:27Z</time>
      </trkpt>
      <trkpt lat="42.60281" lon="2.13811">
        <ele>1647.6</ele>
        <time>2025-07-19T15:27:48Z</time>
      </trkpt>
      <trkpt lat="42.60281" lon="2.13807">
        <ele>1647.4</ele>
        <time>2025-07-19T15:27:49Z</time>
      </trkpt>
      <trkpt lat="42.6028" lon="2.13782">
        <ele>1647.2</ele>
        <time>2025-07-19T15:27:56Z</time>
      </trkpt>
      <trkpt lat="42.60283" lon="2.13759">
        <ele>1646.4</ele>
        <time>2025-07-19T15:28:01Z</time>
      </trkpt>
      <trkpt lat="42.60284" lon="2.13754">
        <ele>1646.2</ele>
        <time>2025-07-19T15:28:02Z</time>
      </trkpt>
      <trkpt lat="42.60284" lon="2.13735">
        <ele>1645.8</ele>
        <time>2025-07-19T15:28:05Z</time>
      </trkpt>
      <trkpt lat="42.60287" lon="2.13713">
        <ele>1644.8</ele>
        <time>2025-07-19T15:28:09Z</time>
      </trkpt>
      <trkpt lat="42.60288" lon="2.13706">
        <ele>1644.6</ele>
        <time>2025-07-19T15:28:10Z</time>
      </trkpt>
      <trkpt lat="42.60296" lon="2.13684">
        <ele>1643.8</ele>
        <time>2025-07-19T15:28:13Z</time>
      </trkpt>
      <trkpt lat="42.60298" lon="2.13676">
        <ele>1643.4</ele>
        <time>2025-07-19T15:28:14Z</time>
      </trkpt>
      <trkpt lat="42.60305" lon="2.13661">
        <ele>1643.2</ele>
        <time>2025-07-19T15:28:16Z</time>
      </trkpt>
      <trkpt lat="42.60313" lon="2.13645">
        <ele>1642.6</ele>
        <time>2025-07-19T15:28:18Z</time>
      </trkpt>
      <trkpt lat="42.60327" lon="2.13615">
        <ele>1641</ele>
        <time>2025-07-19T15:28:21Z</time>
      </trkpt>
      <trkpt lat="42.60331" lon="2.13606">
        <ele>1640.6</ele>
        <time>2025-07-19T15:28:22Z</time>
      </trkpt>
      <trkpt lat="42.60339" lon="2.13588">
        <ele>1639.4</ele>
        <time>2025-07-19T15:28:24Z</time>
      </trkpt>
      <trkpt lat="42.60344" lon="2.13569">
        <ele>1638</ele>
        <time>2025-07-19T15:28:26Z</time>
      </trkpt>
      <trkpt lat="42.60345" lon="2.13559">
        <ele>1637.2</ele>
        <time>2025-07-19T15:28:27Z</time>
      </trkpt>
      <trkpt lat="42.60345" lon="2.13549">
        <ele>1636.8</ele>
        <time>2025-07-19T15:28:28Z</time>
      </trkpt>
      <trkpt lat="42.60345" lon="2.13539">
        <ele>1636</ele>
        <time>2025-07-19T15:28:29Z</time>
      </trkpt>
      <trkpt lat="42.60347" lon="2.13529">
        <ele>1635.6</ele>
        <time>2025-07-19T15:28:30Z</time>
      </trkpt>
      <trkpt lat="42.60351" lon="2.13521">
        <ele>1634.8</ele>
        <time>2025-07-19T15:28:31Z</time>
      </trkpt>
      <trkpt lat="42.60356" lon="2.13514">
        <ele>1634.4</ele>
        <time>2025-07-19T15:28:32Z</time>
      </trkpt>
      <trkpt lat="42.60362" lon="2.13507">
        <ele>1634.2</ele>
        <time>2025-07-19T15:28:33Z</time>
      </trkpt>
      <trkpt lat="42.60368" lon="2.13494">
        <ele>1633.2</ele>
        <time>2025-07-19T15:28:35Z</time>
      </trkpt>
      <trkpt lat="42.60369" lon="2.13487">
        <ele>1632.6</ele>
        <time>2025-07-19T15:28:36Z</time>
      </trkpt>
      <trkpt lat="42.60368" lon="2.13478">
        <ele>1632.2</ele>
        <time>2025-07-19T15:28:37Z</time>
      </trkpt>
      <trkpt lat="42.60366" lon="2.1347">
        <ele>1631</ele>
        <time>2025-07-19T15:28:39Z</time>
      </trkpt>
      <trkpt lat="42.60361" lon="2.13463">
        <ele>1630.6</ele>
        <time>2025-07-19T15:28:40Z</time>
      </trkpt>
      <trkpt lat="42.60343" lon="2.13449">
        <ele>1630</ele>
        <time>2025-07-19T15:28:42Z</time>
      </trkpt>
      <trkpt lat="42.60343" lon="2.13449">
        <ele>1629.4</ele>
        <time>2025-07-19T15:28:43Z</time>
      </trkpt>
      <trkpt lat="42.60328" lon="2.13438">
        <ele>1629</ele>
        <time>2025-07-19T15:28:44Z</time>
      </trkpt>
      <trkpt lat="42.60321" lon="2.13431">
        <ele>1627.8</ele>
        <time>2025-07-19T15:28:46Z</time>
      </trkpt>
      <trkpt lat="42.60309" lon="2.13416">
        <ele>1627.6</ele>
        <time>2025-07-19T15:28:47Z</time>
      </trkpt>
      <trkpt lat="42.60303" lon="2.13407">
        <ele>1626.8</ele>
        <time>2025-07-19T15:28:48Z</time>
      </trkpt>
      <trkpt lat="42.60297" lon="2.13401">
        <ele>1626</ele>
        <time>2025-07-19T15:28:49Z</time>
      </trkpt>
      <trkpt lat="42.60297" lon="2.13401">
        <ele>1625.6</ele>
        <time>2025-07-19T15:28:50Z</time>
      </trkpt>
      <trkpt lat="42.60284" lon="2.13391">
        <ele>1624.6</ele>
        <time>2025-07-19T15:28:51Z</time>
      </trkpt>
      <trkpt lat="42.60275" lon="2.13387">
        <ele>1624.4</ele>
        <time>2025-07-19T15:28:52Z</time>
      </trkpt>
      <trkpt lat="42.60256" lon="2.13377">
        <ele>1623</ele>
        <time>2025-07-19T15:28:54Z</time>
      </trkpt>
      <trkpt lat="42.6024" lon="2.13368">
        <ele>1621.8</ele>
        <time>2025-07-19T15:28:56Z</time>
      </trkpt>
      <trkpt lat="42.60221" lon="2.13355">
        <ele>1620.8</ele>
        <time>2025-07-19T15:28:58Z</time>
      </trkpt>
      <trkpt lat="42.60206" lon="2.13341">
        <ele>1619.8</ele>
        <time>2025-07-19T15:29:00Z</time>
      </trkpt>
      <trkpt lat="42.60198" lon="2.13333">
        <ele>1619</ele>
        <time>2025-07-19T15:29:01Z</time>
      </trkpt>
      <trkpt lat="42.60182" lon="2.13319">
        <ele>1617.8</ele>
        <time>2025-07-19T15:29:03Z</time>
      </trkpt>
      <trkpt lat="42.60165" lon="2.13304">
        <ele>1616.6</ele>
        <time>2025-07-19T15:29:05Z</time>
      </trkpt>
      <trkpt lat="42.60157" lon="2.13297">
        <ele>1615.8</ele>
        <time>2025-07-19T15:29:06Z</time>
      </trkpt>
      <trkpt lat="42.60149" lon="2.1329">
        <ele>1615.6</ele>
        <time>2025-07-19T15:29:07Z</time>
      </trkpt>
      <trkpt lat="42.60132" lon="2.13278">
        <ele>1614.4</ele>
        <time>2025-07-19T15:29:09Z</time>
      </trkpt>
      <trkpt lat="42.60123" lon="2.13275">
        <ele>1613.4</ele>
        <time>2025-07-19T15:29:10Z</time>
      </trkpt>
      <trkpt lat="42.60104" lon="2.13272">
        <ele>1612.2</ele>
        <time>2025-07-19T15:29:12Z</time>
      </trkpt>
      <trkpt lat="42.60094" lon="2.1327">
        <ele>1611.2</ele>
        <time>2025-07-19T15:29:13Z</time>
      </trkpt>
      <trkpt lat="42.60084" lon="2.13269">
        <ele>1610.6</ele>
        <time>2025-07-19T15:29:14Z</time>
      </trkpt>
      <trkpt lat="42.60074" lon="2.13267">
        <ele>1610</ele>
        <time>2025-07-19T15:29:15Z</time>
      </trkpt>
      <trkpt lat="42.60064" lon="2.13264">
        <ele>1608.8</ele>
        <time>2025-07-19T15:29:17Z</time>
      </trkpt>
      <trkpt lat="42.60044" lon="2.1326">
        <ele>1607.8</ele>
        <time>2025-07-19T15:29:18Z</time>
      </trkpt>
      <trkpt lat="42.60034" lon="2.13258">
        <ele>1607.2</ele>
        <time>2025-07-19T15:29:19Z</time>
      </trkpt>
      <trkpt lat="42.60023" lon="2.13257">
        <ele>1606.4</ele>
        <time>2025-07-19T15:29:20Z</time>
      </trkpt>
      <trkpt lat="42.60013" lon="2.13256">
        <ele>1605.8</ele>
        <time>2025-07-19T15:29:21Z</time>
      </trkpt>
      <trkpt lat="42.59982" lon="2.13252">
        <ele>1604.6</ele>
        <time>2025-07-19T15:29:24Z</time>
      </trkpt>
      <trkpt lat="42.59962" lon="2.13247">
        <ele>1602.8</ele>
        <time>2025-07-19T15:29:26Z</time>
      </trkpt>
      <trkpt lat="42.59952" lon="2.13244">
        <ele>1601.4</ele>
        <time>2025-07-19T15:29:27Z</time>
      </trkpt>
      <trkpt lat="42.59942" lon="2.13242">
        <ele>1600.4</ele>
        <time>2025-07-19T15:29:28Z</time>
      </trkpt>
      <trkpt lat="42.59925" lon="2.13234">
        <ele>1599</ele>
        <time>2025-07-19T15:29:30Z</time>
      </trkpt>
      <trkpt lat="42.59916" lon="2.1323">
        <ele>1598.6</ele>
        <time>2025-07-19T15:29:31Z</time>
      </trkpt>
      <trkpt lat="42.59908" lon="2.13224">
        <ele>1597.6</ele>
        <time>2025-07-19T15:29:32Z</time>
      </trkpt>
      <trkpt lat="42.599" lon="2.13217">
        <ele>1596.4</ele>
        <time>2025-07-19T15:29:33Z</time>
      </trkpt>
      <trkpt lat="42.59891" lon="2.13212">
        <ele>1596</ele>
        <time>2025-07-19T15:29:34Z</time>
      </trkpt>
      <trkpt lat="42.59882" lon="2.13207">
        <ele>1595.2</ele>
        <time>2025-07-19T15:29:35Z</time>
      </trkpt>
      <trkpt lat="42.59863" lon="2.132">
        <ele>1593.6</ele>
        <time>2025-07-19T15:29:37Z</time>
      </trkpt>
      <trkpt lat="42.59854" lon="2.13196">
        <ele>1592.2</ele>
        <time>2025-07-19T15:29:38Z</time>
      </trkpt>
      <trkpt lat="42.59846" lon="2.1319">
        <ele>1592</ele>
        <time>2025-07-19T15:29:39Z</time>
      </trkpt>
      <trkpt lat="42.59838" lon="2.13184">
        <ele>1591.2</ele>
        <time>2025-07-19T15:29:40Z</time>
      </trkpt>
      <trkpt lat="42.59821" lon="2.13171">
        <ele>1589.6</ele>
        <time>2025-07-19T15:29:42Z</time>
      </trkpt>
      <trkpt lat="42.59805" lon="2.13165">
        <ele>1588.6</ele>
        <time>2025-07-19T15:29:44Z</time>
      </trkpt>
      <trkpt lat="42.59784" lon="2.13164">
        <ele>1587.6</ele>
        <time>2025-07-19T15:29:46Z</time>
      </trkpt>
      <trkpt lat="42.59776" lon="2.13166">
        <ele>1586.6</ele>
        <time>2025-07-19T15:29:47Z</time>
      </trkpt>
      <trkpt lat="42.59766" lon="2.13169">
        <ele>1585.8</ele>
        <time>2025-07-19T15:29:48Z</time>
      </trkpt>
      <trkpt lat="42.59745" lon="2.13179">
        <ele>1584.8</ele>
        <time>2025-07-19T15:29:50Z</time>
      </trkpt>
      <trkpt lat="42.59736" lon="2.13184">
        <ele>1584.4</ele>
        <time>2025-07-19T15:29:51Z</time>
      </trkpt>
      <trkpt lat="42.59726" lon="2.13187">
        <ele>1583</ele>
        <time>2025-07-19T15:29:52Z</time>
      </trkpt>
      <trkpt lat="42.59706" lon="2.13192">
        <ele>1581.8</ele>
        <time>2025-07-19T15:29:54Z</time>
      </trkpt>
      <trkpt lat="42.59686" lon="2.13193">
        <ele>1580.6</ele>
        <time>2025-07-19T15:29:56Z</time>
      </trkpt>
      <trkpt lat="42.59666" lon="2.1319">
        <ele>1579.2</ele>
        <time>2025-07-19T15:29:58Z</time>
      </trkpt>
      <trkpt lat="42.59656" lon="2.13187">
        <ele>1578</ele>
        <time>2025-07-19T15:29:59Z</time>
      </trkpt>
      <trkpt lat="42.59646" lon="2.13182">
        <ele>1577</ele>
        <time>2025-07-19T15:30:00Z</time>
      </trkpt>
      <trkpt lat="42.59628" lon="2.13174">
        <ele>1575.4</ele>
        <time>2025-07-19T15:30:02Z</time>
      </trkpt>
      <trkpt lat="42.59596" lon="2.1316">
        <ele>1573.6</ele>
        <time>2025-07-19T15:30:05Z</time>
      </trkpt>
      <trkpt lat="42.59579" lon="2.13149">
        <ele>1572.4</ele>
        <time>2025-07-19T15:30:07Z</time>
      </trkpt>
      <trkpt lat="42.59569" lon="2.13143">
        <ele>1571.8</ele>
        <time>2025-07-19T15:30:08Z</time>
      </trkpt>
      <trkpt lat="42.5956" lon="2.13136">
        <ele>1570.8</ele>
        <time>2025-07-19T15:30:09Z</time>
      </trkpt>
      <trkpt lat="42.59551" lon="2.1313">
        <ele>1569.4</ele>
        <time>2025-07-19T15:30:11Z</time>
      </trkpt>
      <trkpt lat="42.59525" lon="2.13115">
        <ele>1568</ele>
        <time>2025-07-19T15:30:13Z</time>
      </trkpt>
      <trkpt lat="42.59516" lon="2.13111">
        <ele>1566.8</ele>
        <time>2025-07-19T15:30:14Z</time>
      </trkpt>
      <trkpt lat="42.59507" lon="2.13107">
        <ele>1566.4</ele>
        <time>2025-07-19T15:30:15Z</time>
      </trkpt>
      <trkpt lat="42.59497" lon="2.13099">
        <ele>1565.4</ele>
        <time>2025-07-19T15:30:16Z</time>
      </trkpt>
      <trkpt lat="42.59489" lon="2.13091">
        <ele>1564.4</ele>
        <time>2025-07-19T15:30:17Z</time>
      </trkpt>
      <trkpt lat="42.59481" lon="2.13081">
        <ele>1563.8</ele>
        <time>2025-07-19T15:30:18Z</time>
      </trkpt>
      <trkpt lat="42.59469" lon="2.13058">
        <ele>1562.4</ele>
        <time>2025-07-19T15:30:20Z</time>
      </trkpt>
      <trkpt lat="42.59459" lon="2.13034">
        <ele>1560.8</ele>
        <time>2025-07-19T15:30:22Z</time>
      </trkpt>
      <trkpt lat="42.5945" lon="2.13012">
        <ele>1559.4</ele>
        <time>2025-07-19T15:30:24Z</time>
      </trkpt>
      <trkpt lat="42.59443" lon="2.12998">
        <ele>1558.8</ele>
        <time>2025-07-19T15:30:25Z</time>
      </trkpt>
      <trkpt lat="42.59438" lon="2.12986">
        <ele>1558</ele>
        <time>2025-07-19T15:30:26Z</time>
      </trkpt>
      <trkpt lat="42.59427" lon="2.12967">
        <ele>1556.6</ele>
        <time>2025-07-19T15:30:28Z</time>
      </trkpt>
      <trkpt lat="42.59419" lon="2.12956">
        <ele>1555.6</ele>
        <time>2025-07-19T15:30:29Z</time>
      </trkpt>
      <trkpt lat="42.59413" lon="2.1295">
        <ele>1555.2</ele>
        <time>2025-07-19T15:30:30Z</time>
      </trkpt>
      <trkpt lat="42.59395" lon="2.12936">
        <ele>1553.2</ele>
        <time>2025-07-19T15:30:32Z</time>
      </trkpt>
      <trkpt lat="42.59378" lon="2.1293">
        <ele>1552</ele>
        <time>2025-07-19T15:30:34Z</time>
      </trkpt>
      <trkpt lat="42.59358" lon="2.12927">
        <ele>1551</ele>
        <time>2025-07-19T15:30:36Z</time>
      </trkpt>
      <trkpt lat="42.59344" lon="2.12925">
        <ele>1549.8</ele>
        <time>2025-07-19T15:30:38Z</time>
      </trkpt>
      <trkpt lat="42.59334" lon="2.12923">
        <ele>1549</ele>
        <time>2025-07-19T15:30:39Z</time>
      </trkpt>
      <trkpt lat="42.59326" lon="2.12923">
        <ele>1548.6</ele>
        <time>2025-07-19T15:30:40Z</time>
      </trkpt>
      <trkpt lat="42.59309" lon="2.12923">
        <ele>1547.2</ele>
        <time>2025-07-19T15:30:42Z</time>
      </trkpt>
      <trkpt lat="42.59301" lon="2.12921">
        <ele>1546.4</ele>
        <time>2025-07-19T15:30:43Z</time>
      </trkpt>
      <trkpt lat="42.59292" lon="2.12919">
        <ele>1545.8</ele>
        <time>2025-07-19T15:30:44Z</time>
      </trkpt>
      <trkpt lat="42.59282" lon="2.12915">
        <ele>1545.4</ele>
        <time>2025-07-19T15:30:45Z</time>
      </trkpt>
      <trkpt lat="42.59274" lon="2.12908">
        <ele>1544.4</ele>
        <time>2025-07-19T15:30:46Z</time>
      </trkpt>
      <trkpt lat="42.59268" lon="2.12898">
        <ele>1543.8</ele>
        <time>2025-07-19T15:30:47Z</time>
      </trkpt>
      <trkpt lat="42.59261" lon="2.12887">
        <ele>1542.8</ele>
        <time>2025-07-19T15:30:48Z</time>
      </trkpt>
      <trkpt lat="42.59261" lon="2.12887">
        <ele>1541.6</ele>
        <time>2025-07-19T15:30:49Z</time>
      </trkpt>
      <trkpt lat="42.59249" lon="2.12868">
        <ele>1541.2</ele>
        <time>2025-07-19T15:30:50Z</time>
      </trkpt>
      <trkpt lat="42.5924" lon="2.12858">
        <ele>1540.2</ele>
        <time>2025-07-19T15:30:51Z</time>
      </trkpt>
      <trkpt lat="42.59232" lon="2.12851">
        <ele>1539.6</ele>
        <time>2025-07-19T15:30:52Z</time>
      </trkpt>
      <trkpt lat="42.59225" lon="2.12846">
        <ele>1538.8</ele>
        <time>2025-07-19T15:30:53Z</time>
      </trkpt>
      <trkpt lat="42.59219" lon="2.1284">
        <ele>1537.6</ele>
        <time>2025-07-19T15:30:54Z</time>
      </trkpt>
      <trkpt lat="42.59211" lon="2.12831">
        <ele>1537.2</ele>
        <time>2025-07-19T15:30:55Z</time>
      </trkpt>
      <trkpt lat="42.59204" lon="2.12817">
        <ele>1536</ele>
        <time>2025-07-19T15:30:56Z</time>
      </trkpt>
      <trkpt lat="42.59194" lon="2.12794">
        <ele>1534</ele>
        <time>2025-07-19T15:30:58Z</time>
      </trkpt>
      <trkpt lat="42.5919" lon="2.12784">
        <ele>1532.8</ele>
        <time>2025-07-19T15:30:59Z</time>
      </trkpt>
      <trkpt lat="42.59178" lon="2.12759">
        <ele>1531</ele>
        <time>2025-07-19T15:31:01Z</time>
      </trkpt>
      <trkpt lat="42.59171" lon="2.1275">
        <ele>1530.4</ele>
        <time>2025-07-19T15:31:02Z</time>
      </trkpt>
      <trkpt lat="42.59163" lon="2.12742">
        <ele>1529</ele>
        <time>2025-07-19T15:31:03Z</time>
      </trkpt>
      <trkpt lat="42.59147" lon="2.12732">
        <ele>1527</ele>
        <time>2025-07-19T15:31:05Z</time>
      </trkpt>
      <trkpt lat="42.59138" lon="2.12727">
        <ele>1526</ele>
        <time>2025-07-19T15:31:06Z</time>
      </trkpt>
      <trkpt lat="42.59118" lon="2.12717">
        <ele>1524</ele>
        <time>2025-07-19T15:31:08Z</time>
      </trkpt>
      <trkpt lat="42.59099" lon="2.12711">
        <ele>1522.4</ele>
        <time>2025-07-19T15:31:10Z</time>
      </trkpt>
      <trkpt lat="42.59092" lon="2.12708">
        <ele>1521.4</ele>
        <time>2025-07-19T15:31:11Z</time>
      </trkpt>
      <trkpt lat="42.59081" lon="2.12703">
        <ele>1521</ele>
        <time>2025-07-19T15:31:12Z</time>
      </trkpt>
      <trkpt lat="42.59072" lon="2.12696">
        <ele>1520.2</ele>
        <time>2025-07-19T15:31:13Z</time>
      </trkpt>
      <trkpt lat="42.59065" lon="2.1269">
        <ele>1519.6</ele>
        <time>2025-07-19T15:31:14Z</time>
      </trkpt>
      <trkpt lat="42.59065" lon="2.1269">
        <ele>1518.6</ele>
        <time>2025-07-19T15:31:15Z</time>
      </trkpt>
      <trkpt lat="42.59051" lon="2.1267">
        <ele>1517.8</ele>
        <time>2025-07-19T15:31:16Z</time>
      </trkpt>
      <trkpt lat="42.59044" lon="2.12657">
        <ele>1517.2</ele>
        <time>2025-07-19T15:31:17Z</time>
      </trkpt>
      <trkpt lat="42.59037" lon="2.12646">
        <ele>1516.6</ele>
        <time>2025-07-19T15:31:18Z</time>
      </trkpt>
      <trkpt lat="42.5903" lon="2.12637">
        <ele>1516.2</ele>
        <time>2025-07-19T15:31:19Z</time>
      </trkpt>
      <trkpt lat="42.59024" lon="2.12627">
        <ele>1515.2</ele>
        <time>2025-07-19T15:31:20Z</time>
      </trkpt>
      <trkpt lat="42.59018" lon="2.12621">
        <ele>1514.4</ele>
        <time>2025-07-19T15:31:21Z</time>
      </trkpt>
      <trkpt lat="42.59008" lon="2.12615">
        <ele>1514</ele>
        <time>2025-07-19T15:31:22Z</time>
      </trkpt>
      <trkpt lat="42.58989" lon="2.12603">
        <ele>1512.4</ele>
        <time>2025-07-19T15:31:24Z</time>
      </trkpt>
      <trkpt lat="42.58979" lon="2.12598">
        <ele>1511.2</ele>
        <time>2025-07-19T15:31:25Z</time>
      </trkpt>
      <trkpt lat="42.58963" lon="2.12588">
        <ele>1509.8</ele>
        <time>2025-07-19T15:31:27Z</time>
      </trkpt>
      <trkpt lat="42.58952" lon="2.12581">
        <ele>1508.6</ele>
        <time>2025-07-19T15:31:28Z</time>
      </trkpt>
      <trkpt lat="42.58934" lon="2.12574">
        <ele>1507</ele>
        <time>2025-07-19T15:31:30Z</time>
      </trkpt>
      <trkpt lat="42.58915" lon="2.12567">
        <ele>1505.6</ele>
        <time>2025-07-19T15:31:32Z</time>
      </trkpt>
      <trkpt lat="42.58896" lon="2.12559">
        <ele>1504.4</ele>
        <time>2025-07-19T15:31:34Z</time>
      </trkpt>
      <trkpt lat="42.58889" lon="2.12554">
        <ele>1503.2</ele>
        <time>2025-07-19T15:31:35Z</time>
      </trkpt>
      <trkpt lat="42.5888" lon="2.12545">
        <ele>1502.8</ele>
        <time>2025-07-19T15:31:36Z</time>
      </trkpt>
      <trkpt lat="42.58873" lon="2.12535">
        <ele>1501.8</ele>
        <time>2025-07-19T15:31:37Z</time>
      </trkpt>
      <trkpt lat="42.58866" lon="2.12525">
        <ele>1501.4</ele>
        <time>2025-07-19T15:31:38Z</time>
      </trkpt>
      <trkpt lat="42.58859" lon="2.12515">
        <ele>1500.2</ele>
        <time>2025-07-19T15:31:40Z</time>
      </trkpt>
      <trkpt lat="42.58846" lon="2.12495">
        <ele>1499.8</ele>
        <time>2025-07-19T15:31:41Z</time>
      </trkpt>
      <trkpt lat="42.5884" lon="2.12489">
        <ele>1498.8</ele>
        <time>2025-07-19T15:31:42Z</time>
      </trkpt>
      <trkpt lat="42.5884" lon="2.12489">
        <ele>1498</ele>
        <time>2025-07-19T15:31:43Z</time>
      </trkpt>
      <trkpt lat="42.5883" lon="2.1248">
        <ele>1497.8</ele>
        <time>2025-07-19T15:31:44Z</time>
      </trkpt>
      <trkpt lat="42.58813" lon="2.12465">
        <ele>1496.4</ele>
        <time>2025-07-19T15:31:46Z</time>
      </trkpt>
      <trkpt lat="42.58797" lon="2.12448">
        <ele>1495</ele>
        <time>2025-07-19T15:31:47Z</time>
      </trkpt>
      <trkpt lat="42.58797" lon="2.12448">
        <ele>1494.2</ele>
        <time>2025-07-19T15:31:48Z</time>
      </trkpt>
      <trkpt lat="42.5878" lon="2.12431">
        <ele>1493.6</ele>
        <time>2025-07-19T15:31:49Z</time>
      </trkpt>
      <trkpt lat="42.5878" lon="2.12431">
        <ele>1492.6</ele>
        <time>2025-07-19T15:31:50Z</time>
      </trkpt>
      <trkpt lat="42.58756" lon="2.12408">
        <ele>1490.8</ele>
        <time>2025-07-19T15:31:52Z</time>
      </trkpt>
      <trkpt lat="42.58746" lon="2.12387">
        <ele>1489</ele>
        <time>2025-07-19T15:31:54Z</time>
      </trkpt>
      <trkpt lat="42.58746" lon="2.12387">
        <ele>1488</ele>
        <time>2025-07-19T15:31:55Z</time>
      </trkpt>
      <trkpt lat="42.58744" lon="2.1238">
        <ele>1487.6</ele>
        <time>2025-07-19T15:31:56Z</time>
      </trkpt>
      <trkpt lat="42.58743" lon="2.12371">
        <ele>1486.4</ele>
        <time>2025-07-19T15:31:57Z</time>
      </trkpt>
      <trkpt lat="42.58743" lon="2.12352">
        <ele>1485.8</ele>
        <time>2025-07-19T15:31:58Z</time>
      </trkpt>
      <trkpt lat="42.58743" lon="2.12343">
        <ele>1484.8</ele>
        <time>2025-07-19T15:31:59Z</time>
      </trkpt>
      <trkpt lat="42.58743" lon="2.12334">
        <ele>1483.6</ele>
        <time>2025-07-19T15:32:00Z</time>
      </trkpt>
      <trkpt lat="42.5874" lon="2.12314">
        <ele>1482</ele>
        <time>2025-07-19T15:32:02Z</time>
      </trkpt>
      <trkpt lat="42.58732" lon="2.12293">
        <ele>1480.6</ele>
        <time>2025-07-19T15:32:04Z</time>
      </trkpt>
      <trkpt lat="42.58726" lon="2.12282">
        <ele>1479.6</ele>
        <time>2025-07-19T15:32:06Z</time>
      </trkpt>
      <trkpt lat="42.58722" lon="2.12275">
        <ele>1478.6</ele>
        <time>2025-07-19T15:32:07Z</time>
      </trkpt>
      <trkpt lat="42.58712" lon="2.12257">
        <ele>1478</ele>
        <time>2025-07-19T15:32:08Z</time>
      </trkpt>
      <trkpt lat="42.58712" lon="2.12257">
        <ele>1477.2</ele>
        <time>2025-07-19T15:32:09Z</time>
      </trkpt>
      <trkpt lat="42.58703" lon="2.12238">
        <ele>1476</ele>
        <time>2025-07-19T15:32:11Z</time>
      </trkpt>
      <trkpt lat="42.58693" lon="2.12219">
        <ele>1475.2</ele>
        <time>2025-07-19T15:32:12Z</time>
      </trkpt>
      <trkpt lat="42.58693" lon="2.12219">
        <ele>1474.8</ele>
        <time>2025-07-19T15:32:13Z</time>
      </trkpt>
      <trkpt lat="42.58679" lon="2.12191">
        <ele>1473.6</ele>
        <time>2025-07-19T15:32:15Z</time>
      </trkpt>
      <trkpt lat="42.58674" lon="2.12182">
        <ele>1472</ele>
        <time>2025-07-19T15:32:17Z</time>
      </trkpt>
      <trkpt lat="42.58659" lon="2.12153">
        <ele>1470.8</ele>
        <time>2025-07-19T15:32:19Z</time>
      </trkpt>
      <trkpt lat="42.58654" lon="2.12144">
        <ele>1470.4</ele>
        <time>2025-07-19T15:32:20Z</time>
      </trkpt>
      <trkpt lat="42.58654" lon="2.12144">
        <ele>1469.6</ele>
        <time>2025-07-19T15:32:21Z</time>
      </trkpt>
      <trkpt lat="42.58649" lon="2.12136">
        <ele>1468.4</ele>
        <time>2025-07-19T15:32:22Z</time>
      </trkpt>
      <trkpt lat="42.58634" lon="2.12113">
        <ele>1467.6</ele>
        <time>2025-07-19T15:32:24Z</time>
      </trkpt>
      <trkpt lat="42.58628" lon="2.12107">
        <ele>1467.2</ele>
        <time>2025-07-19T15:32:25Z</time>
      </trkpt>
      <trkpt lat="42.58628" lon="2.12107">
        <ele>1466.2</ele>
        <time>2025-07-19T15:32:26Z</time>
      </trkpt>
      <trkpt lat="42.58616" lon="2.12098">
        <ele>1465.6</ele>
        <time>2025-07-19T15:32:27Z</time>
      </trkpt>
      <trkpt lat="42.58597" lon="2.12087">
        <ele>1464.2</ele>
        <time>2025-07-19T15:32:30Z</time>
      </trkpt>
      <trkpt lat="42.5859" lon="2.12083">
        <ele>1463.4</ele>
        <time>2025-07-19T15:32:31Z</time>
      </trkpt>
      <trkpt lat="42.58583" lon="2.1208">
        <ele>1462.6</ele>
        <time>2025-07-19T15:32:32Z</time>
      </trkpt>
      <trkpt lat="42.58578" lon="2.12076">
        <ele>1461.8</ele>
        <time>2025-07-19T15:32:34Z</time>
      </trkpt>
      <trkpt lat="42.58566" lon="2.12067">
        <ele>1461.2</ele>
        <time>2025-07-19T15:32:35Z</time>
      </trkpt>
      <trkpt lat="42.5856" lon="2.12061">
        <ele>1460.6</ele>
        <time>2025-07-19T15:32:36Z</time>
      </trkpt>
      <trkpt lat="42.5856" lon="2.12061">
        <ele>1460</ele>
        <time>2025-07-19T15:32:37Z</time>
      </trkpt>
      <trkpt lat="42.58555" lon="2.12054">
        <ele>1459.6</ele>
        <time>2025-07-19T15:32:38Z</time>
      </trkpt>
      <trkpt lat="42.58542" lon="2.12031">
        <ele>1458.4</ele>
        <time>2025-07-19T15:32:40Z</time>
      </trkpt>
      <trkpt lat="42.58536" lon="2.12022">
        <ele>1457.6</ele>
        <time>2025-07-19T15:32:41Z</time>
      </trkpt>
      <trkpt lat="42.58536" lon="2.12022">
        <ele>1457</ele>
        <time>2025-07-19T15:32:42Z</time>
      </trkpt>
      <trkpt lat="42.58528" lon="2.12009">
        <ele>1455.6</ele>
        <time>2025-07-19T15:32:44Z</time>
      </trkpt>
      <trkpt lat="42.58515" lon="2.11987">
        <ele>1454.2</ele>
        <time>2025-07-19T15:32:46Z</time>
      </trkpt>
      <trkpt lat="42.58509" lon="2.11978">
        <ele>1453.2</ele>
        <time>2025-07-19T15:32:48Z</time>
      </trkpt>
      <trkpt lat="42.58494" lon="2.11959">
        <ele>1452</ele>
        <time>2025-07-19T15:32:50Z</time>
      </trkpt>
      <trkpt lat="42.58483" lon="2.11945">
        <ele>1450.6</ele>
        <time>2025-07-19T15:32:52Z</time>
      </trkpt>
      <trkpt lat="42.58478" lon="2.11938">
        <ele>1449.6</ele>
        <time>2025-07-19T15:32:54Z</time>
      </trkpt>
      <trkpt lat="42.58468" lon="2.11924">
        <ele>1449.2</ele>
        <time>2025-07-19T15:32:55Z</time>
      </trkpt>
      <trkpt lat="42.58457" lon="2.11909">
        <ele>1448.4</ele>
        <time>2025-07-19T15:32:57Z</time>
      </trkpt>
      <trkpt lat="42.58452" lon="2.11901">
        <ele>1447.2</ele>
        <time>2025-07-19T15:32:59Z</time>
      </trkpt>
      <trkpt lat="42.58444" lon="2.11873">
        <ele>1446</ele>
        <time>2025-07-19T15:33:01Z</time>
      </trkpt>
      <trkpt lat="42.58442" lon="2.11864">
        <ele>1445.8</ele>
        <time>2025-07-19T15:33:02Z</time>
      </trkpt>
      <trkpt lat="42.5844" lon="2.11856">
        <ele>1444.8</ele>
        <time>2025-07-19T15:33:04Z</time>
      </trkpt>
      <trkpt lat="42.58437" lon="2.11833">
        <ele>1443.8</ele>
        <time>2025-07-19T15:33:06Z</time>
      </trkpt>
      <trkpt lat="42.58436" lon="2.11827">
        <ele>1443.4</ele>
        <time>2025-07-19T15:33:07Z</time>
      </trkpt>
      <trkpt lat="42.58435" lon="2.11823">
        <ele>1442.4</ele>
        <time>2025-07-19T15:33:09Z</time>
      </trkpt>
      <trkpt lat="42.58434" lon="2.11808">
        <ele>1441.6</ele>
        <time>2025-07-19T15:33:12Z</time>
      </trkpt>
      <trkpt lat="42.58435" lon="2.11805">
        <ele>1441.2</ele>
        <time>2025-07-19T15:33:13Z</time>
      </trkpt>
      <trkpt lat="42.58437" lon="2.11804">
        <ele>1440.6</ele>
        <time>2025-07-19T15:33:15Z</time>
      </trkpt>
      <trkpt lat="42.58437" lon="2.11804">
        <ele>1440.2</ele>
        <time>2025-07-19T15:33:16Z</time>
      </trkpt>
      <trkpt lat="42.58443" lon="2.11811">
        <ele>1439</ele>
        <time>2025-07-19T15:33:37Z</time>
      </trkpt>
      <trkpt lat="42.58446" lon="2.11816">
        <ele>1439</ele>
        <time>2025-07-19T15:33:39Z</time>
      </trkpt>
      <trkpt lat="42.58464" lon="2.11843">
        <ele>1438.4</ele>
        <time>2025-07-19T15:33:45Z</time>
      </trkpt>
      <trkpt lat="42.58468" lon="2.11848">
        <ele>1438.2</ele>
        <time>2025-07-19T15:33:46Z</time>
      </trkpt>
      <trkpt lat="42.58472" lon="2.11852">
        <ele>1438</ele>
        <time>2025-07-19T15:33:47Z</time>
      </trkpt>
      <trkpt lat="42.58484" lon="2.11862">
        <ele>1437.2</ele>
        <time>2025-07-19T15:33:50Z</time>
      </trkpt>
      <trkpt lat="42.58509" lon="2.11879">
        <ele>1436.8</ele>
        <time>2025-07-19T15:33:55Z</time>
      </trkpt>
      <trkpt lat="42.58513" lon="2.11881">
        <ele>1436.8</ele>
        <time>2025-07-19T15:33:56Z</time>
      </trkpt>
      <trkpt lat="42.58522" lon="2.11885">
        <ele>1436.4</ele>
        <time>2025-07-19T15:34:01Z</time>
      </trkpt>
      <trkpt lat="42.58526" lon="2.11884">
        <ele>1436.4</ele>
        <time>2025-07-19T15:34:02Z</time>
      </trkpt>
      <trkpt lat="42.58529" lon="2.11883">
        <ele>1436.4</ele>
        <time>2025-07-19T15:34:06Z</time>
      </trkpt>
      <trkpt lat="42.58529" lon="2.11883">
        <ele>1436.4</ele>
        <time>2025-07-19T15:34:08Z</time>
      </trkpt>
      <trkpt lat="42.58532" lon="2.1188">
        <ele>1436.2</ele>
        <time>2025-07-19T15:34:48Z</time>
      </trkpt>
      <trkpt lat="42.58537" lon="2.11881">
        <ele>1436.2</ele>
        <time>2025-07-19T15:34:50Z</time>
      </trkpt>
      <trkpt lat="42.5855" lon="2.11879">
        <ele>1436.2</ele>
        <time>2025-07-19T15:34:55Z</time>
      </trkpt>
      <trkpt lat="42.58572" lon="2.11874">
        <ele>1436</ele>
        <time>2025-07-19T15:35:00Z</time>
      </trkpt>
      <trkpt lat="42.58577" lon="2.11874">
        <ele>1435.8</ele>
        <time>2025-07-19T15:35:01Z</time>
      </trkpt>
      <trkpt lat="42.58604" lon="2.11874">
        <ele>1435.2</ele>
        <time>2025-07-19T15:35:07Z</time>
      </trkpt>
      <trkpt lat="42.58621" lon="2.11877">
        <ele>1435</ele>
        <time>2025-07-19T15:35:11Z</time>
      </trkpt>
      <trkpt lat="42.58629" lon="2.11882">
        <ele>1435</ele>
        <time>2025-07-19T15:35:13Z</time>
      </trkpt>
      <trkpt lat="42.58632" lon="2.11885">
        <ele>1435</ele>
        <time>2025-07-19T15:35:14Z</time>
      </trkpt>
      <trkpt lat="42.58643" lon="2.11895">
        <ele>1436.2</ele>
        <time>2025-07-19T15:35:18Z</time>
      </trkpt>
      <trkpt lat="42.58656" lon="2.11906">
        <ele>1436.8</ele>
        <time>2025-07-19T15:35:24Z</time>
      </trkpt>
      <trkpt lat="42.5866" lon="2.1191">
        <ele>1436.8</ele>
        <time>2025-07-19T15:35:27Z</time>
      </trkpt>
      <trkpt lat="42.58665" lon="2.1191">
        <ele>1436.8</ele>
        <time>2025-07-19T15:35:30Z</time>
      </trkpt>
      <trkpt lat="42.58683" lon="2.119">
        <ele>1436</ele>
        <time>2025-07-19T15:35:38Z</time>
      </trkpt>
      <trkpt lat="42.58692" lon="2.11889">
        <ele>1436</ele>
        <time>2025-07-19T15:35:42Z</time>
      </trkpt>
      <trkpt lat="42.58695" lon="2.11883">
        <ele>1436.2</ele>
        <time>2025-07-19T15:35:44Z</time>
      </trkpt>
      <trkpt lat="42.58702" lon="2.11873">
        <ele>1436.8</ele>
        <time>2025-07-19T15:35:49Z</time>
      </trkpt>
      <trkpt lat="42.58702" lon="2.11871">
        <ele>1437</ele>
        <time>2025-07-19T15:35:50Z</time>
      </trkpt>
      <trkpt lat="42.58706" lon="2.11861">
        <ele>1437.4</ele>
        <time>2025-07-19T15:35:55Z</time>
      </trkpt>
      <trkpt lat="42.58706" lon="2.1186">
        <ele>1437.4</ele>
        <time>2025-07-19T15:35:56Z</time>
      </trkpt>
      <trkpt lat="42.58706" lon="2.1186">
        <ele>1437.6</ele>
        <time>2025-07-19T15:35:57Z</time>
      </trkpt>
      <trkpt lat="42.58708" lon="2.11855">
        <ele>1437.8</ele>
        <time>2025-07-19T15:36:01Z</time>
      </trkpt>
      <trkpt lat="42.58712" lon="2.11851">
        <ele>1437.6</ele>
        <time>2025-07-19T15:36:04Z</time>
      </trkpt>
      <trkpt lat="42.58721" lon="2.11847">
        <ele>1437.4</ele>
        <time>2025-07-19T15:36:11Z</time>
      </trkpt>
      <trkpt lat="42.58721" lon="2.11847">
        <ele>1437.2</ele>
        <time>2025-07-19T15:36:14Z</time>
      </trkpt>
      <trkpt lat="42.58722" lon="2.1185">
        <ele>1437.2</ele>
        <time>2025-07-19T15:40:43Z</time>
      </trkpt>
      <trkpt lat="42.58723" lon="2.11852">
        <ele>1437</ele>
        <time>2025-07-19T15:40:45Z</time>
      </trkpt>
      <trkpt lat="42.58724" lon="2.11853">
        <ele>1437</ele>
        <time>2025-07-19T15:40:46Z</time>
      </trkpt>
      <trkpt lat="42.58727" lon="2.11855">
        <ele>1437</ele>
        <time>2025-07-19T15:40:48Z</time>
      </trkpt>
      <trkpt lat="42.58729" lon="2.11857">
        <ele>1436.8</ele>
        <time>2025-07-19T15:40:50Z</time>
      </trkpt>
      <trkpt lat="42.58731" lon="2.11858">
        <ele>1436.6</ele>
        <time>2025-07-19T15:40:52Z</time>
      </trkpt>
      <trkpt lat="42.58734" lon="2.11859">
        <ele>1436.6</ele>
        <time>2025-07-19T15:40:54Z</time>
      </trkpt>
      <trkpt lat="42.58735" lon="2.11858">
        <ele>1436.6</ele>
        <time>2025-07-19T15:40:55Z</time>
      </trkpt>
      <trkpt lat="42.58744" lon="2.11856">
        <ele>1436.4</ele>
        <time>2025-07-19T15:41:00Z</time>
      </trkpt>
      <trkpt lat="42.58745" lon="2.11856">
        <ele>1436.2</ele>
        <time>2025-07-19T15:41:02Z</time>
      </trkpt>
      <trkpt lat="42.58748" lon="2.11856">
        <ele>1435.8</ele>
        <time>2025-07-19T15:41:08Z</time>
      </trkpt>
    </trkseg>
  </trk>
</gpx>